<?xml version='1.0' encoding='UTF-8'?><gpx version="1.1" creator="JPX - https://github.com/jenetics/jpx" xmlns="http://www.topografix.com/GPX/1/1"><trk><trkseg><trkpt lat="-20.691589941657835" lon="117.00690419713696"><ele>10.0</ele><time>2026-04-23T02:10:14Z</time></trkpt><trkpt lat="-20.691406051330024" lon="117.00699049414462"><ele>10.0</ele><time>2026-04-23T02:10:15Z</time></trkpt><trkpt lat="-20.69123580280052" lon="117.0070862854978"><ele>10.0</ele><time>2026-04-23T02:10:16Z</time></trkpt><trkpt lat="-20.691072169295243" lon="117.00717818875552"><ele>9.666666666666668</ele><time>2026-04-23T02:10:17Z</time></trkpt><trkpt lat="-20.690888989133594" lon="117.00727431003595"><ele>9.333333333333334</ele><time>2026-04-23T02:10:18Z</time></trkpt><trkpt lat="-20.69069308483669" lon="117.00735691672105"><ele>9.0</ele><time>2026-04-23T02:10:19Z</time></trkpt><trkpt lat="-20.6904962462497" lon="117.0074404843317"><ele>8.666666666666666</ele><time>2026-04-23T02:10:20Z</time></trkpt><trkpt lat="-20.690304009119345" lon="117.00752314969805"><ele>8.333333333333332</ele><time>2026-04-23T02:10:21Z</time></trkpt><trkpt lat="-20.690123506108712" lon="117.00759379957142"><ele>8.0</ele><time>2026-04-23T02:10:22Z</time></trkpt><trkpt lat="-20.689940676672993" lon="117.00764895632047"><ele>9.0</ele><time>2026-04-23T02:10:23Z</time></trkpt><trkpt lat="-20.689759072702074" lon="117.00769278919084"><ele>10.0</ele><time>2026-04-23T02:10:24Z</time></trkpt><trkpt lat="-20.689551762654418" lon="117.00773726897306"><ele>11.0</ele><time>2026-04-23T02:10:25Z</time></trkpt><trkpt lat="-20.68934390141533" lon="117.00777739113636"><ele>11.0</ele><time>2026-04-23T02:10:26Z</time></trkpt><trkpt lat="-20.689131267025356" lon="117.00780347203303"><ele>11.0</ele><time>2026-04-23T02:10:27Z</time></trkpt><trkpt lat="-20.68892212138293" lon="117.00781269284195"><ele>11.0</ele><time>2026-04-23T02:10:28Z</time></trkpt><trkpt lat="-20.688696556464695" lon="117.00780844079466"><ele>10.0</ele><time>2026-04-23T02:10:29Z</time></trkpt><trkpt lat="-20.688456510253925" lon="117.00779749922866"><ele>9.0</ele><time>2026-04-23T02:10:30Z</time></trkpt><trkpt lat="-20.68820623338207" lon="117.00778436995148"><ele>9.0</ele><time>2026-04-23T02:10:31Z</time></trkpt><trkpt lat="-20.687957022465785" lon="117.00776946820531"><ele>9.0</ele><time>2026-04-23T02:10:32Z</time></trkpt><trkpt lat="-20.68771396644705" lon="117.00775535256578"><ele>8.5</ele><time>2026-04-23T02:10:33Z</time></trkpt><trkpt lat="-20.687483856671268" lon="117.00773631023864"><ele>8.0</ele><time>2026-04-23T02:10:34Z</time></trkpt><trkpt lat="-20.687266012208656" lon="117.00770230607517"><ele>8.0</ele><time>2026-04-23T02:10:35Z</time></trkpt><trkpt lat="-20.68706374861574" lon="117.00762244020542"><ele>8.0</ele><time>2026-04-23T02:10:36Z</time></trkpt><trkpt lat="-20.686874569674018" lon="117.00753504826675"><ele>8.0</ele><time>2026-04-23T02:10:37Z</time></trkpt><trkpt lat="-20.686680369875504" lon="117.00742904535946"><ele>8.333333333333332</ele><time>2026-04-23T02:10:38Z</time></trkpt><trkpt lat="-20.68648804448021" lon="117.00731070083872"><ele>8.666666666666666</ele><time>2026-04-23T02:10:39Z</time></trkpt><trkpt lat="-20.686300680000663" lon="117.00717689181087"><ele>9.0</ele><time>2026-04-23T02:10:40Z</time></trkpt><trkpt lat="-20.686121508912482" lon="117.00702231621655"><ele>9.0</ele><time>2026-04-23T02:10:41Z</time></trkpt><trkpt lat="-20.685949888345096" lon="117.00684997592546"><ele>9.0</ele><time>2026-04-23T02:10:42Z</time></trkpt><trkpt lat="-20.68578224874925" lon="117.0066580060251"><ele>9.0</ele><time>2026-04-23T02:10:43Z</time></trkpt><trkpt lat="-20.685622011059188" lon="117.00645826364244"><ele>9.0</ele><time>2026-04-23T02:10:44Z</time></trkpt><trkpt lat="-20.685464063634317" lon="117.00625684953343"><ele>9.0</ele><time>2026-04-23T02:10:45Z</time></trkpt><trkpt lat="-20.685302641240856" lon="117.00605950706606"><ele>9.0</ele><time>2026-04-23T02:10:46Z</time></trkpt><trkpt lat="-20.685120929952614" lon="117.00588785274243"><ele>7.5</ele><time>2026-04-23T02:10:47Z</time></trkpt><trkpt lat="-20.684940786564063" lon="117.00572434256603"><ele>6.0</ele><time>2026-04-23T02:10:48Z</time></trkpt><trkpt lat="-20.68476031932751" lon="117.0055848105326"><ele>6.0</ele><time>2026-04-23T02:10:49Z</time></trkpt><trkpt lat="-20.68460196218193" lon="117.00545083204592"><ele>6.0</ele><time>2026-04-23T02:10:50Z</time></trkpt><trkpt lat="-20.68444708468646" lon="117.00536944521927"><ele>6.0</ele><time>2026-04-23T02:10:51Z</time></trkpt><trkpt lat="-20.684326181037665" lon="117.00529473420629"><ele>5.8</ele><time>2026-04-23T02:10:52.001Z</time></trkpt><trkpt lat="-20.684221584830237" lon="117.00524402675279"><ele>5.6</ele><time>2026-04-23T02:10:53.001Z</time></trkpt><trkpt lat="-20.6841093708097" lon="117.00521537948435"><ele>5.4</ele><time>2026-04-23T02:10:54.001Z</time></trkpt><trkpt lat="-20.684011006840905" lon="117.0051723024058"><ele>5.2</ele><time>2026-04-23T02:10:55.001Z</time></trkpt><trkpt lat="-20.683920116659646" lon="117.00514247079978"><ele>5.0</ele><time>2026-04-23T02:10:56.001Z</time></trkpt><trkpt lat="-20.683846211161587" lon="117.00511821383711"><ele>5.0</ele><time>2026-04-23T02:10:57.001Z</time></trkpt><trkpt lat="-20.683703932320633" lon="117.00535492612539"><ele>5.0</ele><time>2026-04-23T02:10:58.001Z</time></trkpt><trkpt lat="-20.68361809825669" lon="117.00544617702401"><ele>5.0</ele><time>2026-04-23T02:10:59.001Z</time></trkpt><trkpt lat="-20.68353062613072" lon="117.00555632067737"><ele>4.666666666666667</ele><time>2026-04-23T02:11:00.001Z</time></trkpt><trkpt lat="-20.68343943625736" lon="117.00568011015318"><ele>4.333333333333333</ele><time>2026-04-23T02:11:00.999Z</time></trkpt><trkpt lat="-20.68333212597079" lon="117.00582815279137"><ele>4.0</ele><time>2026-04-23T02:11:01.999Z</time></trkpt><trkpt lat="-20.68320731730309" lon="117.00598451612217"><ele>4.0</ele><time>2026-04-23T02:11:02.999Z</time></trkpt><trkpt lat="-20.683076597275157" lon="117.00613697784982"><ele>4.0</ele><time>2026-04-23T02:11:03.999Z</time></trkpt><trkpt lat="-20.682933967392366" lon="117.0062889286508"><ele>4.0</ele><time>2026-04-23T02:11:04.999Z</time></trkpt><trkpt lat="-20.682787102745653" lon="117.00642742894952"><ele>4.666666666666666</ele><time>2026-04-23T02:11:05.999Z</time></trkpt><trkpt lat="-20.682633782104638" lon="117.00655431847417"><ele>5.333333333333333</ele><time>2026-04-23T02:11:06.999Z</time></trkpt><trkpt lat="-20.68246586973663" lon="117.00668048088896"><ele>6.0</ele><time>2026-04-23T02:11:07.999Z</time></trkpt><trkpt lat="-20.682295934936207" lon="117.00679931790745"><ele>6.0</ele><time>2026-04-23T02:11:08.999Z</time></trkpt><trkpt lat="-20.682119089094215" lon="117.0069182165935"><ele>6.0</ele><time>2026-04-23T02:11:09.999Z</time></trkpt><trkpt lat="-20.681934744237868" lon="117.00703995891135"><ele>6.0</ele><time>2026-04-23T02:11:10.999Z</time></trkpt><trkpt lat="-20.68175677321266" lon="117.00716618732308"><ele>5.333333333333333</ele><time>2026-04-23T02:11:11.999Z</time></trkpt><trkpt lat="-20.68159090028379" lon="117.00731513826453"><ele>4.666666666666666</ele><time>2026-04-23T02:11:12.999Z</time></trkpt><trkpt lat="-20.681424635208963" lon="117.00748146143616"><ele>4.0</ele><time>2026-04-23T02:11:13.999Z</time></trkpt><trkpt lat="-20.681252485613737" lon="117.0076617366251"><ele>6.5</ele><time>2026-04-23T02:11:14.999Z</time></trkpt><trkpt lat="-20.681081568190926" lon="117.00785129032447"><ele>9.0</ele><time>2026-04-23T02:11:15.999Z</time></trkpt><trkpt lat="-20.680921116080896" lon="117.00804228640548"><ele>9.0</ele><time>2026-04-23T02:11:16.999Z</time></trkpt><trkpt lat="-20.680772043111016" lon="117.00822995611198"><ele>9.0</ele><time>2026-04-23T02:11:17.999Z</time></trkpt><trkpt lat="-20.680628193943335" lon="117.00841511167135"><ele>8.666666666666666</ele><time>2026-04-23T02:11:18.999Z</time></trkpt><trkpt lat="-20.680494644624893" lon="117.00858636640768"><ele>8.333333333333332</ele><time>2026-04-23T02:11:19.999Z</time></trkpt><trkpt lat="-20.68035968122098" lon="117.0087552014074"><ele>8.0</ele><time>2026-04-23T02:11:20.999Z</time></trkpt><trkpt lat="-20.68021592868123" lon="117.00892049752048"><ele>8.0</ele><time>2026-04-23T02:11:21.999Z</time></trkpt><trkpt lat="-20.68006758275883" lon="117.00907898839145"><ele>8.0</ele><time>2026-04-23T02:11:22.999Z</time></trkpt><trkpt lat="-20.67991770138251" lon="117.00923098020452"><ele>8.0</ele><time>2026-04-23T02:11:23.999Z</time></trkpt><trkpt lat="-20.679770592297892" lon="117.00937194242177"><ele>7.666666666666666</ele><time>2026-04-23T02:11:24.999Z</time></trkpt><trkpt lat="-20.679627991721777" lon="117.00949801509842"><ele>7.333333333333334</ele><time>2026-04-23T02:11:26Z</time></trkpt><trkpt lat="-20.679496973843996" lon="117.00960439241354"><ele>7.0</ele><time>2026-04-23T02:11:27Z</time></trkpt><trkpt lat="-20.679375573760666" lon="117.00967945136036"><ele>6.0</ele><time>2026-04-23T02:11:28Z</time></trkpt><trkpt lat="-20.67924729026405" lon="117.0097329898875"><ele>5.0</ele><time>2026-04-23T02:11:29Z</time></trkpt><trkpt lat="-20.679086674487085" lon="117.00977253883269"><ele>4.0</ele><time>2026-04-23T02:11:30Z</time></trkpt><trkpt lat="-20.678904454892052" lon="117.00979434816524"><ele>4.0</ele><time>2026-04-23T02:11:31Z</time></trkpt><trkpt lat="-20.678702020833104" lon="117.00979851424692"><ele>4.0</ele><time>2026-04-23T02:11:32Z</time></trkpt><trkpt lat="-20.678492211242855" lon="117.00978988522758"><ele>4.0</ele><time>2026-04-23T02:11:33Z</time></trkpt><trkpt lat="-20.678264497243063" lon="117.00977104093083"><ele>5.0</ele><time>2026-04-23T02:11:34Z</time></trkpt><trkpt lat="-20.678028364106158" lon="117.00974390128663"><ele>6.0</ele><time>2026-04-23T02:11:35Z</time></trkpt><trkpt lat="-20.677787312167297" lon="117.00970656721213"><ele>6.5</ele><time>2026-04-23T02:11:36Z</time></trkpt><trkpt lat="-20.67753730059983" lon="117.00965901167172"><ele>7.0</ele><time>2026-04-23T02:11:37Z</time></trkpt><trkpt lat="-20.67728573023361" lon="117.00961073898303"><ele>7.0</ele><time>2026-04-23T02:11:38Z</time></trkpt><trkpt lat="-20.677025217749687" lon="117.00956570624345"><ele>7.0</ele><time>2026-04-23T02:11:39Z</time></trkpt><trkpt lat="-20.6767694950924" lon="117.0095241672935"><ele>7.5</ele><time>2026-04-23T02:11:40Z</time></trkpt><trkpt lat="-20.6765260578211" lon="117.00947946824867"><ele>8.0</ele><time>2026-04-23T02:11:41Z</time></trkpt><trkpt lat="-20.676282997960115" lon="117.00943516776675"><ele>7.0</ele><time>2026-04-23T02:11:42Z</time></trkpt><trkpt lat="-20.676045704157026" lon="117.00939223197179"><ele>6.0</ele><time>2026-04-23T02:11:43Z</time></trkpt><trkpt lat="-20.675823926586325" lon="117.00935141165485"><ele>6.0</ele><time>2026-04-23T02:11:44Z</time></trkpt><trkpt lat="-20.675617157610542" lon="117.00931176145285"><ele>6.0</ele><time>2026-04-23T02:11:45Z</time></trkpt><trkpt lat="-20.675417817435996" lon="117.0092649873997"><ele>6.0</ele><time>2026-04-23T02:11:46Z</time></trkpt><trkpt lat="-20.675224802319033" lon="117.00920261624191"><ele>6.0</ele><time>2026-04-23T02:11:47Z</time></trkpt><trkpt lat="-20.675032929461832" lon="117.0091222851033"><ele>6.0</ele><time>2026-04-23T02:11:48Z</time></trkpt><trkpt lat="-20.674834980067843" lon="117.00902459782829"><ele>6.0</ele><time>2026-04-23T02:11:49Z</time></trkpt><trkpt lat="-20.674638430969072" lon="117.00890934450014"><ele>6.0</ele><time>2026-04-23T02:11:50Z</time></trkpt><trkpt lat="-20.674450282925893" lon="117.00877765978024"><ele>6.0</ele><time>2026-04-23T02:11:51Z</time></trkpt><trkpt lat="-20.674265585131067" lon="117.00862086293216"><ele>7.0</ele><time>2026-04-23T02:11:52Z</time></trkpt><trkpt lat="-20.674093839668107" lon="117.00844364200486"><ele>8.0</ele><time>2026-04-23T02:11:53Z</time></trkpt><trkpt lat="-20.673926235185146" lon="117.00824916742447"><ele>8.0</ele><time>2026-04-23T02:11:54Z</time></trkpt><trkpt lat="-20.67374966319688" lon="117.008047760983"><ele>8.0</ele><time>2026-04-23T02:11:55Z</time></trkpt><trkpt lat="-20.673560818110566" lon="117.00784667556023"><ele>7.5</ele><time>2026-04-23T02:11:56Z</time></trkpt><trkpt lat="-20.673357745976773" lon="117.00763924409388"><ele>7.0</ele><time>2026-04-23T02:11:57Z</time></trkpt><trkpt lat="-20.673159659779774" lon="117.00743175010967"><ele>5.0</ele><time>2026-04-23T02:11:58Z</time></trkpt><trkpt lat="-20.672970303049304" lon="117.00723066676457"><ele>3.0</ele><time>2026-04-23T02:11:59Z</time></trkpt><trkpt lat="-20.67278056530288" lon="117.00703623802623"><ele>3.5</ele><time>2026-04-23T02:12:00Z</time></trkpt><trkpt lat="-20.6725918712334" lon="117.0068451398999"><ele>4.0</ele><time>2026-04-23T02:12:01Z</time></trkpt><trkpt lat="-20.67240564883672" lon="117.0066568588818"><ele>4.0</ele><time>2026-04-23T02:12:02Z</time></trkpt><trkpt lat="-20.672223948188922" lon="117.0064718022487"><ele>4.0</ele><time>2026-04-23T02:12:03Z</time></trkpt><trkpt lat="-20.672043743681172" lon="117.00628801443543"><ele>5.5</ele><time>2026-04-23T02:12:04Z</time></trkpt><trkpt lat="-20.67187952549178" lon="117.006091324707"><ele>7.0</ele><time>2026-04-23T02:12:05Z</time></trkpt><trkpt lat="-20.671692730659085" lon="117.00591768907752"><ele>7.5</ele><time>2026-04-23T02:12:06Z</time></trkpt><trkpt lat="-20.671517926447066" lon="117.00572897435326"><ele>8.0</ele><time>2026-04-23T02:12:07Z</time></trkpt><trkpt lat="-20.671346598373837" lon="117.00554519090981"><ele>8.0</ele><time>2026-04-23T02:12:08Z</time></trkpt><trkpt lat="-20.671173972320688" lon="117.00536647053016"><ele>8.0</ele><time>2026-04-23T02:12:09Z</time></trkpt><trkpt lat="-20.670998082884374" lon="117.00518265593107"><ele>8.0</ele><time>2026-04-23T02:12:10Z</time></trkpt><trkpt lat="-20.67082416993685" lon="117.00500340403214"><ele>8.0</ele><time>2026-04-23T02:12:11Z</time></trkpt><trkpt lat="-20.6706467900054" lon="117.00481531748437"><ele>8.0</ele><time>2026-04-23T02:12:12Z</time></trkpt><trkpt lat="-20.67046693016139" lon="117.00462186956652"><ele>8.0</ele><time>2026-04-23T02:12:13Z</time></trkpt><trkpt lat="-20.670284450483532" lon="117.00443156052486"><ele>6.5</ele><time>2026-04-23T02:12:14Z</time></trkpt><trkpt lat="-20.670097857968155" lon="117.00423985972489"><ele>5.0</ele><time>2026-04-23T02:12:15Z</time></trkpt><trkpt lat="-20.669914523486568" lon="117.00404966285979"><ele>5.0</ele><time>2026-04-23T02:12:16Z</time></trkpt><trkpt lat="-20.669733232432048" lon="117.00385906233853"><ele>5.0</ele><time>2026-04-23T02:12:17Z</time></trkpt><trkpt lat="-20.669556037217607" lon="117.00367090340661"><ele>5.5</ele><time>2026-04-23T02:12:18Z</time></trkpt><trkpt lat="-20.669374511169014" lon="117.00348098272553"><ele>6.0</ele><time>2026-04-23T02:12:19Z</time></trkpt><trkpt lat="-20.669196929805842" lon="117.00329326794711"><ele>6.5</ele><time>2026-04-23T02:12:20Z</time></trkpt><trkpt lat="-20.669022727606183" lon="117.003106161286"><ele>7.0</ele><time>2026-04-23T02:12:21Z</time></trkpt><trkpt lat="-20.668843660965493" lon="117.00291837423308"><ele>7.0</ele><time>2026-04-23T02:12:22Z</time></trkpt><trkpt lat="-20.66867121215663" lon="117.00271946375817"><ele>7.0</ele><time>2026-04-23T02:12:23Z</time></trkpt><trkpt lat="-20.66848820473405" lon="117.00253213189745"><ele>7.0</ele><time>2026-04-23T02:12:24Z</time></trkpt><trkpt lat="-20.66830293099246" lon="117.00234734241829"><ele>7.0</ele><time>2026-04-23T02:12:25Z</time></trkpt><trkpt lat="-20.66811188566099" lon="117.00216844326825"><ele>7.0</ele><time>2026-04-23T02:12:26Z</time></trkpt><trkpt lat="-20.66790617768746" lon="117.00200675146773"><ele>7.0</ele><time>2026-04-23T02:12:27Z</time></trkpt><trkpt lat="-20.667718266198257" lon="117.0018238557041"><ele>6.5</ele><time>2026-04-23T02:12:28Z</time></trkpt><trkpt lat="-20.667526849783858" lon="117.0016414534914"><ele>6.0</ele><time>2026-04-23T02:12:29Z</time></trkpt><trkpt lat="-20.667337800317156" lon="117.00145432950234"><ele>6.0</ele><time>2026-04-23T02:12:30Z</time></trkpt><trkpt lat="-20.667154504776494" lon="117.00126052730319"><ele>6.0</ele><time>2026-04-23T02:12:31Z</time></trkpt><trkpt lat="-20.666976995848135" lon="117.00106821743603"><ele>7.0</ele><time>2026-04-23T02:12:32Z</time></trkpt><trkpt lat="-20.666817159144383" lon="117.0008888404604"><ele>8.0</ele><time>2026-04-23T02:12:33Z</time></trkpt><trkpt lat="-20.666664129370794" lon="117.00071104068883"><ele>8.0</ele><time>2026-04-23T02:12:34Z</time></trkpt><trkpt lat="-20.666506772304608" lon="117.00053356630607"><ele>8.0</ele><time>2026-04-23T02:12:35Z</time></trkpt><trkpt lat="-20.666332599252545" lon="117.00036020700858"><ele>8.0</ele><time>2026-04-23T02:12:36Z</time></trkpt><trkpt lat="-20.666144526338552" lon="117.00019191698722"><ele>8.0</ele><time>2026-04-23T02:12:37Z</time></trkpt><trkpt lat="-20.665944445613945" lon="117.0000280706243"><ele>9.0</ele><time>2026-04-23T02:12:38Z</time></trkpt><trkpt lat="-20.66573783246031" lon="116.99987017357826"><ele>10.0</ele><time>2026-04-23T02:12:39Z</time></trkpt><trkpt lat="-20.665524898808837" lon="116.99972057658532"><ele>10.0</ele><time>2026-04-23T02:12:40Z</time></trkpt><trkpt lat="-20.6653049953008" lon="116.99958312382716"><ele>10.0</ele><time>2026-04-23T02:12:41Z</time></trkpt><trkpt lat="-20.665076547920275" lon="116.99945356063134"><ele>12.0</ele><time>2026-04-23T02:12:42Z</time></trkpt><trkpt lat="-20.664846633120387" lon="116.99933674475038"><ele>14.0</ele><time>2026-04-23T02:12:43Z</time></trkpt><trkpt lat="-20.664631180099924" lon="116.99923366272513"><ele>14.333333333333334</ele><time>2026-04-23T02:12:44Z</time></trkpt><trkpt lat="-20.664439942445345" lon="116.99915406796228"><ele>14.666666666666668</ele><time>2026-04-23T02:12:45Z</time></trkpt><trkpt lat="-20.66424800850947" lon="116.999094560931"><ele>15.0</ele><time>2026-04-23T02:12:46Z</time></trkpt><trkpt lat="-20.66403937656896" lon="116.99905218417067"><ele>15.0</ele><time>2026-04-23T02:12:47Z</time></trkpt><trkpt lat="-20.663825669054795" lon="116.99901880111655"><ele>15.0</ele><time>2026-04-23T02:12:48Z</time></trkpt><trkpt lat="-20.66363451187478" lon="116.99900127695527"><ele>15.0</ele><time>2026-04-23T02:12:49Z</time></trkpt><trkpt lat="-20.663464846784372" lon="116.99895924040392"><ele>15.666666666666668</ele><time>2026-04-23T02:12:50Z</time></trkpt><trkpt lat="-20.663279609028447" lon="116.99892352894688"><ele>16.333333333333336</ele><time>2026-04-23T02:12:51Z</time></trkpt><trkpt lat="-20.663083440520136" lon="116.9988473369392"><ele>17.0</ele><time>2026-04-23T02:12:52Z</time></trkpt><trkpt lat="-20.66287927885373" lon="116.99876739846975"><ele>15.0</ele><time>2026-04-23T02:12:53Z</time></trkpt><trkpt lat="-20.662680256756527" lon="116.9986950575329"><ele>13.0</ele><time>2026-04-23T02:12:54.001Z</time></trkpt><trkpt lat="-20.662490501625104" lon="116.99862966731268"><ele>11.0</ele><time>2026-04-23T02:12:55.001Z</time></trkpt><trkpt lat="-20.66231111088025" lon="116.99856544349954"><ele>11.0</ele><time>2026-04-23T02:12:56.001Z</time></trkpt><trkpt lat="-20.662142537465414" lon="116.99850430277729"><ele>11.0</ele><time>2026-04-23T02:12:57.001Z</time></trkpt><trkpt lat="-20.661985327714955" lon="116.99844574744071"><ele>11.0</ele><time>2026-04-23T02:12:58.001Z</time></trkpt><trkpt lat="-20.661838990887254" lon="116.99838760169744"><ele>10.25</ele><time>2026-04-23T02:12:59.001Z</time></trkpt><trkpt lat="-20.661705064314656" lon="116.9983326423954"><ele>9.5</ele><time>2026-04-23T02:13:00.001Z</time></trkpt><trkpt lat="-20.661589360442335" lon="116.99828613396976"><ele>8.75</ele><time>2026-04-23T02:13:01.001Z</time></trkpt><trkpt lat="-20.661493724575497" lon="116.99825018765434"><ele>8.0</ele><time>2026-04-23T02:13:02.001Z</time></trkpt><trkpt lat="-20.661414635910035" lon="116.99822260044539"><ele>7.999999999999999</ele><time>2026-04-23T02:13:03.001Z</time></trkpt><trkpt lat="-20.66135122106073" lon="116.99819950706615"><ele>8.0</ele><time>2026-04-23T02:13:04.001Z</time></trkpt><trkpt lat="-20.661277676681095" lon="116.99816711848673"><ele>8.0</ele><time>2026-04-23T02:13:06.001Z</time></trkpt><trkpt lat="-20.66121595661873" lon="116.99813274155115"><ele>8.0</ele><time>2026-04-23T02:13:29Z</time></trkpt><trkpt lat="-20.66121797199458" lon="116.99800633260402"><ele>7.999999999999999</ele><time>2026-04-23T02:13:30Z</time></trkpt><trkpt lat="-20.66121110759937" lon="116.99792526677817"><ele>8.0</ele><time>2026-04-23T02:13:31Z</time></trkpt><trkpt lat="-20.66119251381808" lon="116.99781244316348"><ele>8.0</ele><time>2026-04-23T02:13:33Z</time></trkpt><trkpt lat="-20.661277594157237" lon="116.99779331389017"><ele>8.0</ele><time>2026-04-23T02:13:34Z</time></trkpt><trkpt lat="-20.661107775786" lon="116.99772127371787"><ele>8.0</ele><time>2026-04-23T02:13:35Z</time></trkpt><trkpt lat="-20.661008284083255" lon="116.9976526985233"><ele>8.0</ele><time>2026-04-23T02:13:37Z</time></trkpt><trkpt lat="-20.660931182555316" lon="116.99759843313024"><ele>7.75</ele><time>2026-04-23T02:13:38Z</time></trkpt><trkpt lat="-20.660841248820486" lon="116.99753644061549"><ele>7.5</ele><time>2026-04-23T02:13:39Z</time></trkpt><trkpt lat="-20.660745463498692" lon="116.99747041452028"><ele>7.25</ele><time>2026-04-23T02:13:40Z</time></trkpt><trkpt lat="-20.66063365996879" lon="116.99741775617028"><ele>7.0</ele><time>2026-04-23T02:13:41Z</time></trkpt><trkpt lat="-20.660537875073043" lon="116.99734395838549"><ele>6.5</ele><time>2026-04-23T02:13:42Z</time></trkpt><trkpt lat="-20.660410034077188" lon="116.99729509036331"><ele>6.0</ele><time>2026-04-23T02:13:43Z</time></trkpt><trkpt lat="-20.660293536859506" lon="116.9972169908346"><ele>5.5</ele><time>2026-04-23T02:13:44Z</time></trkpt><trkpt lat="-20.660171170939925" lon="116.99714056295657"><ele>5.0</ele><time>2026-04-23T02:13:45Z</time></trkpt><trkpt lat="-20.66005176080602" lon="116.99706353978848"><ele>4.75</ele><time>2026-04-23T02:13:46Z</time></trkpt><trkpt lat="-20.659928733209025" lon="116.99698418324387"><ele>4.5</ele><time>2026-04-23T02:13:47Z</time></trkpt><trkpt lat="-20.659810409992136" lon="116.99690772753567"><ele>4.25</ele><time>2026-04-23T02:13:48Z</time></trkpt><trkpt lat="-20.659704642110103" lon="116.99683920186517"><ele>4.0</ele><time>2026-04-23T02:13:49Z</time></trkpt><trkpt lat="-20.65960971220255" lon="116.99677768493463"><ele>3.9999999999999996</ele><time>2026-04-23T02:13:50Z</time></trkpt><trkpt lat="-20.659523451900796" lon="116.99672284740737"><ele>4.0</ele><time>2026-04-23T02:13:51Z</time></trkpt><trkpt lat="-20.659438460455437" lon="116.99669039009532"><ele>4.0</ele><time>2026-04-23T02:13:52Z</time></trkpt><trkpt lat="-20.65937362490816" lon="116.99663966879784"><ele>4.0</ele><time>2026-04-23T02:13:53Z</time></trkpt><trkpt lat="-20.65926663805199" lon="116.99662687086385"><ele>3.9999999999999996</ele><time>2026-04-23T02:13:55Z</time></trkpt><trkpt lat="-20.6592010432222" lon="116.9966423370559"><ele>4.0</ele><time>2026-04-23T02:14:00Z</time></trkpt><trkpt lat="-20.65913328730273" lon="116.9966469516603"><ele>4.428571428571429</ele><time>2026-04-23T02:14:02Z</time></trkpt><trkpt lat="-20.659102172584" lon="116.99657816997961"><ele>4.857142857142857</ele><time>2026-04-23T02:14:03Z</time></trkpt><trkpt lat="-20.659030614240905" lon="116.99654257261768"><ele>5.285714285714286</ele><time>2026-04-23T02:14:06Z</time></trkpt><trkpt lat="-20.658986468020963" lon="116.99648720508216"><ele>5.714285714285714</ele><time>2026-04-23T02:14:58.002Z</time></trkpt><trkpt lat="-20.658928182591083" lon="116.99655245378719"><ele>6.142857142857142</ele><time>2026-04-23T02:14:59.002Z</time></trkpt><trkpt lat="-20.658856616515994" lon="116.99652877541318"><ele>6.571428571428571</ele><time>2026-04-23T02:15:04.002Z</time></trkpt><trkpt lat="-20.658789364518213" lon="116.99651085401521"><ele>7.0</ele><time>2026-04-23T02:15:10.002Z</time></trkpt><trkpt lat="-20.65872185405035" lon="116.99648020603601"><ele>7.0</ele><time>2026-04-23T02:15:15.001Z</time></trkpt><trkpt lat="-20.658644248698145" lon="116.99646848562477"><ele>7.0</ele><time>2026-04-23T02:15:20.001Z</time></trkpt><trkpt lat="-20.658583241152897" lon="116.99643594813216"><ele>7.0</ele><time>2026-04-23T02:15:25.001Z</time></trkpt><trkpt lat="-20.658517975751632" lon="116.9964226708802"><ele>7.0</ele><time>2026-04-23T02:15:30.001Z</time></trkpt><trkpt lat="-20.658447747386187" lon="116.99642408764277"><ele>7.0</ele><time>2026-04-23T02:15:35.001Z</time></trkpt><trkpt lat="-20.65838368505149" lon="116.99641529664619"><ele>7.0</ele><time>2026-04-23T02:15:40.001Z</time></trkpt><trkpt lat="-20.65831634557516" lon="116.99636318100411"><ele>7.0</ele><time>2026-04-23T02:15:46.001Z</time></trkpt><trkpt lat="-20.6582694026183" lon="116.99631228706029"><ele>7.0</ele><time>2026-04-23T02:15:52.001Z</time></trkpt><trkpt lat="-20.65821086988303" lon="116.99627435774582"><ele>7.0</ele><time>2026-04-23T02:16:03.001Z</time></trkpt><trkpt lat="-20.658149704138996" lon="116.99624002927196"><ele>7.0</ele><time>2026-04-23T02:16:08.001Z</time></trkpt><trkpt lat="-20.658083490120507" lon="116.99620291213338"><ele>7.0</ele><time>2026-04-23T02:16:13.001Z</time></trkpt><trkpt lat="-20.65814909447078" lon="116.99623440862209"><ele>7.0</ele><time>2026-04-23T02:16:31.001Z</time></trkpt><trkpt lat="-20.65821145864942" lon="116.9962720168739"><ele>7.0</ele><time>2026-04-23T02:16:38.002Z</time></trkpt><trkpt lat="-20.658269359174707" lon="116.99631584171829"><ele>7.0</ele><time>2026-04-23T02:16:44.002Z</time></trkpt><trkpt lat="-20.65833126204935" lon="116.99636529797202"><ele>7.0</ele><time>2026-04-23T02:16:50.002Z</time></trkpt><trkpt lat="-20.65839421415417" lon="116.99640171552862"><ele>7.0</ele><time>2026-04-23T02:16:55.002Z</time></trkpt><trkpt lat="-20.65846208855164" lon="116.9964154927174"><ele>7.0</ele><time>2026-04-23T02:17:00.002Z</time></trkpt><trkpt lat="-20.658536351534163" lon="116.99643692192062"><ele>7.0</ele><time>2026-04-23T02:17:06.002Z</time></trkpt><trkpt lat="-20.658602098597278" lon="116.99646082050158"><ele>7.0</ele><time>2026-04-23T02:17:14.002Z</time></trkpt><trkpt lat="-20.658681579809343" lon="116.9964918997657"><ele>7.0</ele><time>2026-04-23T02:17:20Z</time></trkpt><trkpt lat="-20.658736095610593" lon="116.99652676237667"><ele>7.0</ele><time>2026-04-23T02:17:27Z</time></trkpt><trkpt lat="-20.658809236619042" lon="116.99653608194863"><ele>7.0</ele><time>2026-04-23T02:17:32Z</time></trkpt><trkpt lat="-20.65887824670863" lon="116.99653964468908"><ele>7.0</ele><time>2026-04-23T02:17:37Z</time></trkpt><trkpt lat="-20.65894701301535" lon="116.99654696454166"><ele>7.0</ele><time>2026-04-23T02:17:42Z</time></trkpt><trkpt lat="-20.65901016253767" lon="116.99656813726736"><ele>7.0</ele><time>2026-04-23T02:17:49Z</time></trkpt><trkpt lat="-20.65898043495166" lon="116.99662981138128"><ele>7.0</ele><time>2026-04-23T02:19:24.001Z</time></trkpt><trkpt lat="-20.659001191166077" lon="116.9966939967783"><ele>7.0</ele><time>2026-04-23T02:19:28Z</time></trkpt><trkpt lat="-20.659078488259652" lon="116.99670789871286"><ele>7.0</ele><time>2026-04-23T02:19:41Z</time></trkpt><trkpt lat="-20.65915614967627" lon="116.99671205312826"><ele>7.000000000000001</ele><time>2026-04-23T02:19:43Z</time></trkpt><trkpt lat="-20.65920673470118" lon="116.99666883811757"><ele>7.0</ele><time>2026-04-23T02:19:44Z</time></trkpt><trkpt lat="-20.659315382987717" lon="116.99667699589361"><ele>7.0</ele><time>2026-04-23T02:19:46Z</time></trkpt><trkpt lat="-20.659380784493795" lon="116.99668940808513"><ele>7.0</ele><time>2026-04-23T02:19:47Z</time></trkpt><trkpt lat="-20.659452877330086" lon="116.99671557177054"><ele>7.000000000000001</ele><time>2026-04-23T02:19:48Z</time></trkpt><trkpt lat="-20.659524379526662" lon="116.99674862459676"><ele>7.0</ele><time>2026-04-23T02:19:49Z</time></trkpt><trkpt lat="-20.65960210806953" lon="116.9968031385119"><ele>6.25</ele><time>2026-04-23T02:19:50Z</time></trkpt><trkpt lat="-20.65968977214146" lon="116.99686514196398"><ele>5.5</ele><time>2026-04-23T02:19:51Z</time></trkpt><trkpt lat="-20.65978378619225" lon="116.99691486371526"><ele>4.75</ele><time>2026-04-23T02:19:52Z</time></trkpt><trkpt lat="-20.659882688628194" lon="116.99698202573649"><ele>4.0</ele><time>2026-04-23T02:19:53Z</time></trkpt><trkpt lat="-20.660003779469296" lon="116.99705955590888"><ele>4.0</ele><time>2026-04-23T02:19:54Z</time></trkpt><trkpt lat="-20.6601392728614" lon="116.99714753445778"><ele>4.0</ele><time>2026-04-23T02:19:55Z</time></trkpt><trkpt lat="-20.66027745011436" lon="116.99723524226438"><ele>4.0</ele><time>2026-04-23T02:19:56Z</time></trkpt><trkpt lat="-20.660418976291314" lon="116.99731334064792"><ele>4.25</ele><time>2026-04-23T02:19:57Z</time></trkpt><trkpt lat="-20.660555102535564" lon="116.9973831495546"><ele>4.5</ele><time>2026-04-23T02:19:58Z</time></trkpt><trkpt lat="-20.66068323738575" lon="116.99745311184279"><ele>4.75</ele><time>2026-04-23T02:19:59Z</time></trkpt><trkpt lat="-20.66079651514604" lon="116.99752812501498"><ele>5.0</ele><time>2026-04-23T02:20:00Z</time></trkpt><trkpt lat="-20.660900076421672" lon="116.99760152278773"><ele>5.333333333333334</ele><time>2026-04-23T02:20:01Z</time></trkpt><trkpt lat="-20.660979442792176" lon="116.9976641492948"><ele>5.666666666666667</ele><time>2026-04-23T02:20:02Z</time></trkpt><trkpt lat="-20.66104366742413" lon="116.9977020095439"><ele>6.0</ele><time>2026-04-23T02:20:03Z</time></trkpt><trkpt lat="-20.66110103894028" lon="116.99773711338452"><ele>6.333333333333334</ele><time>2026-04-23T02:20:04Z</time></trkpt><trkpt lat="-20.661179506545757" lon="116.99780162821109"><ele>6.666666666666667</ele><time>2026-04-23T02:20:06Z</time></trkpt><trkpt lat="-20.66124034554788" lon="116.99785828921489"><ele>7.0</ele><time>2026-04-23T02:20:09Z</time></trkpt><trkpt lat="-20.661207288966807" lon="116.99798629404602"><ele>7.25</ele><time>2026-04-23T02:20:11Z</time></trkpt><trkpt lat="-20.661192996526054" lon="116.99806242922132"><ele>7.5</ele><time>2026-04-23T02:20:12Z</time></trkpt><trkpt lat="-20.661328248845987" lon="116.99822718982672"><ele>7.75</ele><time>2026-04-23T02:20:14Z</time></trkpt><trkpt lat="-20.661428255432114" lon="116.9982609900707"><ele>8.0</ele><time>2026-04-23T02:20:15Z</time></trkpt><trkpt lat="-20.66155266000117" lon="116.99831856779882"><ele>8.333333333333332</ele><time>2026-04-23T02:20:16Z</time></trkpt><trkpt lat="-20.66170888955976" lon="116.99838198348463"><ele>8.666666666666666</ele><time>2026-04-23T02:20:17Z</time></trkpt><trkpt lat="-20.661870303670046" lon="116.99844070855782"><ele>9.0</ele><time>2026-04-23T02:20:18Z</time></trkpt><trkpt lat="-20.662045132738502" lon="116.99850798399454"><ele>9.666666666666666</ele><time>2026-04-23T02:20:19.001Z</time></trkpt><trkpt lat="-20.662232547799285" lon="116.9985850162424"><ele>10.333333333333332</ele><time>2026-04-23T02:20:20.001Z</time></trkpt><trkpt lat="-20.662422201116804" lon="116.99865743753851"><ele>11.0</ele><time>2026-04-23T02:20:21.001Z</time></trkpt><trkpt lat="-20.662628337320825" lon="116.99872566409607"><ele>13.0</ele><time>2026-04-23T02:20:22.001Z</time></trkpt><trkpt lat="-20.66283270849639" lon="116.99879791903061"><ele>15.0</ele><time>2026-04-23T02:20:23.001Z</time></trkpt><trkpt lat="-20.663045009530226" lon="116.99887332151698"><ele>17.0</ele><time>2026-04-23T02:20:24.001Z</time></trkpt><trkpt lat="-20.66325826821601" lon="116.99894454433603"><ele>17.0</ele><time>2026-04-23T02:20:25.001Z</time></trkpt><trkpt lat="-20.663453591500897" lon="116.99900480038875"><ele>17.0</ele><time>2026-04-23T02:20:26.001Z</time></trkpt><trkpt lat="-20.66362428507043" lon="116.99903774827979"><ele>17.0</ele><time>2026-04-23T02:20:27.001Z</time></trkpt><trkpt lat="-20.663797487947082" lon="116.99906065657109"><ele>16.333333333333336</ele><time>2026-04-23T02:20:28.001Z</time></trkpt><trkpt lat="-20.663973526691436" lon="116.99908024639569"><ele>15.666666666666668</ele><time>2026-04-23T02:20:29.001Z</time></trkpt><trkpt lat="-20.664152472933157" lon="116.9991131046185"><ele>15.0</ele><time>2026-04-23T02:20:30.001Z</time></trkpt><trkpt lat="-20.664336284395063" lon="116.9991622823624"><ele>14.666666666666668</ele><time>2026-04-23T02:20:31.001Z</time></trkpt><trkpt lat="-20.66452823735262" lon="116.99923415487963"><ele>14.333333333333334</ele><time>2026-04-23T02:20:32.001Z</time></trkpt><trkpt lat="-20.664735971379223" lon="116.9993233487964"><ele>14.0</ele><time>2026-04-23T02:20:33.001Z</time></trkpt><trkpt lat="-20.664941495808073" lon="116.999427256276"><ele>14.0</ele><time>2026-04-23T02:20:34.001Z</time></trkpt><trkpt lat="-20.665157236068378" lon="116.99954477450754"><ele>14.0</ele><time>2026-04-23T02:20:35.001Z</time></trkpt><trkpt lat="-20.66536997927748" lon="116.99966585322942"><ele>12.0</ele><time>2026-04-23T02:20:36.001Z</time></trkpt><trkpt lat="-20.66557032714015" lon="116.99979091744638"><ele>10.0</ele><time>2026-04-23T02:20:37.001Z</time></trkpt><trkpt lat="-20.665753402502606" lon="116.99992127350545"><ele>10.0</ele><time>2026-04-23T02:20:38.001Z</time></trkpt><trkpt lat="-20.665937932446493" lon="117.0000637580895"><ele>10.0</ele><time>2026-04-23T02:20:39.001Z</time></trkpt><trkpt lat="-20.666119127978885" lon="117.00021627680448"><ele>9.0</ele><time>2026-04-23T02:20:40.001Z</time></trkpt><trkpt lat="-20.666297884749405" lon="117.00037754642982"><ele>8.0</ele><time>2026-04-23T02:20:41.001Z</time></trkpt><trkpt lat="-20.666471379800218" lon="117.00054669324771"><ele>8.0</ele><time>2026-04-23T02:20:42.001Z</time></trkpt><trkpt lat="-20.666634408900073" lon="117.00071741338189"><ele>8.0</ele><time>2026-04-23T02:20:43.001Z</time></trkpt><trkpt lat="-20.666783195850527" lon="117.00088870549315"><ele>8.0</ele><time>2026-04-23T02:20:44.001Z</time></trkpt><trkpt lat="-20.666924967465842" lon="117.00106125944198"><ele>7.333333333333333</ele><time>2026-04-23T02:20:45.001Z</time></trkpt><trkpt lat="-20.667069757613817" lon="117.00123010519614"><ele>6.666666666666666</ele><time>2026-04-23T02:20:46.001Z</time></trkpt><trkpt lat="-20.667225683319934" lon="117.00139652499297"><ele>6.0</ele><time>2026-04-23T02:20:47.001Z</time></trkpt><trkpt lat="-20.66739401044873" lon="117.00156633366798"><ele>8.5</ele><time>2026-04-23T02:20:48.001Z</time></trkpt><trkpt lat="-20.667566050560932" lon="117.00173624982274"><ele>11.0</ele><time>2026-04-23T02:20:49.001Z</time></trkpt><trkpt lat="-20.667741071195305" lon="117.00190219599509"><ele>9.0</ele><time>2026-04-23T02:20:50.001Z</time></trkpt><trkpt lat="-20.66792149827797" lon="117.00207223381939"><ele>7.0</ele><time>2026-04-23T02:20:51.001Z</time></trkpt><trkpt lat="-20.66810595939741" lon="117.0022458542724"><ele>7.0</ele><time>2026-04-23T02:20:52.001Z</time></trkpt><trkpt lat="-20.668292804190287" lon="117.00242706971461"><ele>7.0</ele><time>2026-04-23T02:20:53.001Z</time></trkpt><trkpt lat="-20.66848509059833" lon="117.00261471958714"><ele>7.0</ele><time>2026-04-23T02:20:54.001Z</time></trkpt><trkpt lat="-20.66867845640726" lon="117.00280407001743"><ele>7.0</ele><time>2026-04-23T02:20:55.001Z</time></trkpt><trkpt lat="-20.668864432556834" lon="117.00299110072946"><ele>7.0</ele><time>2026-04-23T02:20:56.001Z</time></trkpt><trkpt lat="-20.669037323631574" lon="117.00317539065331"><ele>7.0</ele><time>2026-04-23T02:20:57.001Z</time></trkpt><trkpt lat="-20.669214362975044" lon="117.0033637934939"><ele>6.5</ele><time>2026-04-23T02:20:58.001Z</time></trkpt><trkpt lat="-20.66938797490311" lon="117.00354808594093"><ele>6.0</ele><time>2026-04-23T02:20:59.001Z</time></trkpt><trkpt lat="-20.66955666870451" lon="117.00373103853562"><ele>5.5</ele><time>2026-04-23T02:21:00.001Z</time></trkpt><trkpt lat="-20.669724454254883" lon="117.00390953143815"><ele>5.0</ele><time>2026-04-23T02:21:01.001Z</time></trkpt><trkpt lat="-20.66989686914575" lon="117.0040889581778"><ele>4.5</ele><time>2026-04-23T02:21:02.001Z</time></trkpt><trkpt lat="-20.670077306961822" lon="117.00427681928166"><ele>4.0</ele><time>2026-04-23T02:21:03.001Z</time></trkpt><trkpt lat="-20.67025631421254" lon="117.00446284509387"><ele>6.0</ele><time>2026-04-23T02:21:04.001Z</time></trkpt><trkpt lat="-20.670429269818236" lon="117.00464631645005"><ele>8.0</ele><time>2026-04-23T02:21:05.001Z</time></trkpt><trkpt lat="-20.67059267251036" lon="117.0048229759827"><ele>8.0</ele><time>2026-04-23T02:21:06.001Z</time></trkpt><trkpt lat="-20.670751942222413" lon="117.00499031620997"><ele>8.0</ele><time>2026-04-23T02:21:07.001Z</time></trkpt><trkpt lat="-20.670903889060536" lon="117.00514642544623"><ele>8.0</ele><time>2026-04-23T02:21:08.001Z</time></trkpt><trkpt lat="-20.67105982631356" lon="117.00530777846808"><ele>8.0</ele><time>2026-04-23T02:21:09.001Z</time></trkpt><trkpt lat="-20.6712247336214" lon="117.00548231475942"><ele>8.0</ele><time>2026-04-23T02:21:10.001Z</time></trkpt><trkpt lat="-20.671393236088345" lon="117.00565971130663"><ele>7.5</ele><time>2026-04-23T02:21:11.001Z</time></trkpt><trkpt lat="-20.67156792423959" lon="117.00584378730608"><ele>7.0</ele><time>2026-04-23T02:21:12.001Z</time></trkpt><trkpt lat="-20.67174678605508" lon="117.00603628169718"><ele>7.0</ele><time>2026-04-23T02:21:13.001Z</time></trkpt><trkpt lat="-20.671927842301955" lon="117.00622556729795"><ele>7.0</ele><time>2026-04-23T02:21:14.001Z</time></trkpt><trkpt lat="-20.672110464229373" lon="117.00641763645599"><ele>6.0</ele><time>2026-04-23T02:21:15.001Z</time></trkpt><trkpt lat="-20.67229473639008" lon="117.00660572418796"><ele>5.0</ele><time>2026-04-23T02:21:16.001Z</time></trkpt><trkpt lat="-20.67246902054904" lon="117.00678454565058"><ele>5.0</ele><time>2026-04-23T02:21:17.001Z</time></trkpt><trkpt lat="-20.672642266629108" lon="117.00696408351232"><ele>5.0</ele><time>2026-04-23T02:21:18.001Z</time></trkpt><trkpt lat="-20.672818790862973" lon="117.00714650977086"><ele>4.0</ele><time>2026-04-23T02:21:19.001Z</time></trkpt><trkpt lat="-20.672992884486433" lon="117.00732698866905"><ele>3.0</ele><time>2026-04-23T02:21:20.001Z</time></trkpt><trkpt lat="-20.67316778842409" lon="117.0075098383525"><ele>5.0</ele><time>2026-04-23T02:21:21.001Z</time></trkpt><trkpt lat="-20.67333990541375" lon="117.00769041951155"><ele>7.0</ele><time>2026-04-23T02:21:22.001Z</time></trkpt><trkpt lat="-20.67351253429819" lon="117.0078704510241"><ele>7.5</ele><time>2026-04-23T02:21:23.001Z</time></trkpt><trkpt lat="-20.673684718476583" lon="117.00805168579645"><ele>8.0</ele><time>2026-04-23T02:21:24.001Z</time></trkpt><trkpt lat="-20.673857353407804" lon="117.0082344476008"><ele>8.5</ele><time>2026-04-23T02:21:25.001Z</time></trkpt><trkpt lat="-20.674034323843326" lon="117.00841774208429"><ele>9.0</ele><time>2026-04-23T02:21:26.001Z</time></trkpt><trkpt lat="-20.674217848225993" lon="117.00859997731604"><ele>9.0</ele><time>2026-04-23T02:21:27.001Z</time></trkpt><trkpt lat="-20.674392603513486" lon="117.00876281282048"><ele>9.0</ele><time>2026-04-23T02:21:28.001Z</time></trkpt><trkpt lat="-20.67455239446737" lon="117.00889063143238"><ele>9.0</ele><time>2026-04-23T02:21:29.001Z</time></trkpt><trkpt lat="-20.674700676164626" lon="117.00898939950758"><ele>8.666666666666666</ele><time>2026-04-23T02:21:30.001Z</time></trkpt><trkpt lat="-20.674874490344948" lon="117.0090813276859"><ele>8.333333333333332</ele><time>2026-04-23T02:21:31Z</time></trkpt><trkpt lat="-20.675073904069826" lon="117.00916894399636"><ele>8.0</ele><time>2026-04-23T02:21:32Z</time></trkpt><trkpt lat="-20.675290391825985" lon="117.00925016135841"><ele>7.0</ele><time>2026-04-23T02:21:33Z</time></trkpt><trkpt lat="-20.675518498263187" lon="117.00932341770964"><ele>6.0</ele><time>2026-04-23T02:21:34Z</time></trkpt><trkpt lat="-20.675757412820122" lon="117.0093843333143"><ele>6.0</ele><time>2026-04-23T02:21:35Z</time></trkpt><trkpt lat="-20.676000959820758" lon="117.00943582203124"><ele>6.0</ele><time>2026-04-23T02:21:36Z</time></trkpt><trkpt lat="-20.676250456396232" lon="117.00948360639762"><ele>7.0</ele><time>2026-04-23T02:21:37Z</time></trkpt><trkpt lat="-20.67649627968358" lon="117.00953133438021"><ele>8.0</ele><time>2026-04-23T02:21:38Z</time></trkpt><trkpt lat="-20.6767463196697" lon="117.00957475869195"><ele>7.5</ele><time>2026-04-23T02:21:39Z</time></trkpt><trkpt lat="-20.676997043111125" lon="117.0096135665849"><ele>7.0</ele><time>2026-04-23T02:21:40Z</time></trkpt><trkpt lat="-20.677245577531387" lon="117.00965516446496"><ele>7.0</ele><time>2026-04-23T02:21:41Z</time></trkpt><trkpt lat="-20.67748910817441" lon="117.00969594105068"><ele>7.0</ele><time>2026-04-23T02:21:42Z</time></trkpt><trkpt lat="-20.677721736195263" lon="117.0097338961164"><ele>6.666666666666667</ele><time>2026-04-23T02:21:43Z</time></trkpt><trkpt lat="-20.677948016686415" lon="117.00977151197792"><ele>6.333333333333334</ele><time>2026-04-23T02:21:44Z</time></trkpt><trkpt lat="-20.678157204792697" lon="117.00980523302903"><ele>6.0</ele><time>2026-04-23T02:21:45Z</time></trkpt><trkpt lat="-20.67836894824172" lon="117.00983039928416"><ele>6.0</ele><time>2026-04-23T02:21:46Z</time></trkpt><trkpt lat="-20.6785858629558" lon="117.0098409732677"><ele>6.0</ele><time>2026-04-23T02:21:47Z</time></trkpt><trkpt lat="-20.67880142963696" lon="117.00983335514636"><ele>6.0</ele><time>2026-04-23T02:21:48Z</time></trkpt><trkpt lat="-20.679003146243833" lon="117.00980862929993"><ele>6.333333333333334</ele><time>2026-04-23T02:21:49Z</time></trkpt><trkpt lat="-20.679197531369137" lon="117.00977020765703"><ele>6.666666666666667</ele><time>2026-04-23T02:21:50Z</time></trkpt><trkpt lat="-20.679376408495784" lon="117.0097135081094"><ele>7.0</ele><time>2026-04-23T02:21:51Z</time></trkpt><trkpt lat="-20.679536050638376" lon="117.0096362316909"><ele>7.0</ele><time>2026-04-23T02:21:52Z</time></trkpt><trkpt lat="-20.679694485364106" lon="117.00952879369004"><ele>7.0</ele><time>2026-04-23T02:21:53Z</time></trkpt><trkpt lat="-20.67983829704609" lon="117.00939800289393"><ele>7.0</ele><time>2026-04-23T02:21:54Z</time></trkpt><trkpt lat="-20.679987458693798" lon="117.00923991380519"><ele>7.333333333333334</ele><time>2026-04-23T02:21:55Z</time></trkpt><trkpt lat="-20.680137214249008" lon="117.00907069479767"><ele>7.666666666666666</ele><time>2026-04-23T02:21:56Z</time></trkpt><trkpt lat="-20.68028852764804" lon="117.00889365569101"><ele>8.0</ele><time>2026-04-23T02:21:57Z</time></trkpt><trkpt lat="-20.6804372381834" lon="117.00871427536764"><ele>8.0</ele><time>2026-04-23T02:21:58Z</time></trkpt><trkpt lat="-20.680584423374917" lon="117.00853069058456"><ele>8.0</ele><time>2026-04-23T02:21:59Z</time></trkpt><trkpt lat="-20.680718953684607" lon="117.00835514923453"><ele>8.0</ele><time>2026-04-23T02:22:00Z</time></trkpt><trkpt lat="-20.680865663669156" lon="117.0081943666232"><ele>8.333333333333332</ele><time>2026-04-23T02:22:01Z</time></trkpt><trkpt lat="-20.681012904044834" lon="117.00802056880727"><ele>8.666666666666666</ele><time>2026-04-23T02:22:02Z</time></trkpt><trkpt lat="-20.68116608390753" lon="117.00784360114255"><ele>9.0</ele><time>2026-04-23T02:22:03Z</time></trkpt><trkpt lat="-20.681324689653877" lon="117.007668545278"><ele>7.333333333333333</ele><time>2026-04-23T02:22:04Z</time></trkpt><trkpt lat="-20.68147428022575" lon="117.00748763332155"><ele>5.666666666666666</ele><time>2026-04-23T02:22:05Z</time></trkpt><trkpt lat="-20.681630814690273" lon="117.00733212085312"><ele>4.0</ele><time>2026-04-23T02:22:06Z</time></trkpt><trkpt lat="-20.681789557128216" lon="117.00718723865498"><ele>4.666666666666666</ele><time>2026-04-23T02:22:07Z</time></trkpt><trkpt lat="-20.681950745401384" lon="117.00705655130517"><ele>5.333333333333333</ele><time>2026-04-23T02:22:08Z</time></trkpt><trkpt lat="-20.68212938147968" lon="117.0069597036698"><ele>6.0</ele><time>2026-04-23T02:22:09Z</time></trkpt><trkpt lat="-20.682309296776772" lon="117.00684474235582"><ele>6.0</ele><time>2026-04-23T02:22:10Z</time></trkpt><trkpt lat="-20.682469128210972" lon="117.00671257128518"><ele>6.0</ele><time>2026-04-23T02:22:11Z</time></trkpt><trkpt lat="-20.682618658807854" lon="117.00660367237343"><ele>6.0</ele><time>2026-04-23T02:22:12Z</time></trkpt><trkpt lat="-20.682750789380098" lon="117.00650394672392"><ele>5.333333333333333</ele><time>2026-04-23T02:22:13Z</time></trkpt><trkpt lat="-20.68287866626678" lon="117.0064003607673"><ele>4.666666666666666</ele><time>2026-04-23T02:22:14Z</time></trkpt><trkpt lat="-20.682996790630405" lon="117.00628701180298"><ele>4.0</ele><time>2026-04-23T02:22:15Z</time></trkpt><trkpt lat="-20.68310035563502" lon="117.00617009560484"><ele>4.0</ele><time>2026-04-23T02:22:16Z</time></trkpt><trkpt lat="-20.68319512244773" lon="117.00605557743853"><ele>4.0</ele><time>2026-04-23T02:22:17Z</time></trkpt><trkpt lat="-20.683285070170598" lon="117.00594564998104"><ele>4.0</ele><time>2026-04-23T02:22:18Z</time></trkpt><trkpt lat="-20.68336613446879" lon="117.00583834471666"><ele>4.0</ele><time>2026-04-23T02:22:19Z</time></trkpt><trkpt lat="-20.683437409428457" lon="117.00573252108737"><ele>4.0</ele><time>2026-04-23T02:22:20Z</time></trkpt><trkpt lat="-20.683524188649052" lon="117.00564584537887"><ele>4.0</ele><time>2026-04-23T02:22:21Z</time></trkpt><trkpt lat="-20.683594901855653" lon="117.00555544007241"><ele>4.0</ele><time>2026-04-23T02:22:22Z</time></trkpt><trkpt lat="-20.683664045576165" lon="117.00548399274983"><ele>4.0</ele><time>2026-04-23T02:22:23.001Z</time></trkpt><trkpt lat="-20.68374087998158" lon="117.00540903785041"><ele>4.0</ele><time>2026-04-23T02:22:24.001Z</time></trkpt><trkpt lat="-20.683814347254255" lon="117.00532727357901"><ele>4.2</ele><time>2026-04-23T02:22:25.001Z</time></trkpt><trkpt lat="-20.683909687657046" lon="117.00527575625172"><ele>4.4</ele><time>2026-04-23T02:22:26.001Z</time></trkpt><trkpt lat="-20.684005950727556" lon="117.00524785263003"><ele>4.6</ele><time>2026-04-23T02:22:27.001Z</time></trkpt><trkpt lat="-20.68409953365093" lon="117.00524269816724"><ele>4.8</ele><time>2026-04-23T02:22:28.001Z</time></trkpt><trkpt lat="-20.68418947151036" lon="117.00526154796935"><ele>5.0</ele><time>2026-04-23T02:22:29.001Z</time></trkpt><trkpt lat="-20.684281347910286" lon="117.00529864666127"><ele>5.0</ele><time>2026-04-23T02:22:30.001Z</time></trkpt><trkpt lat="-20.684374586720693" lon="117.00535196096794"><ele>5.0</ele><time>2026-04-23T02:22:31.001Z</time></trkpt><trkpt lat="-20.684470824221183" lon="117.00541690240497"><ele>5.0</ele><time>2026-04-23T02:22:32.001Z</time></trkpt><trkpt lat="-20.684570336720977" lon="117.00549092865862"><ele>5.0</ele><time>2026-04-23T02:22:33.001Z</time></trkpt><trkpt lat="-20.684675779587916" lon="117.0055691421106"><ele>5.25</ele><time>2026-04-23T02:22:34.001Z</time></trkpt><trkpt lat="-20.68478505577309" lon="117.00564784108109"><ele>5.5</ele><time>2026-04-23T02:22:35.001Z</time></trkpt><trkpt lat="-20.684896991113703" lon="117.00572731212661"><ele>5.75</ele><time>2026-04-23T02:22:36.001Z</time></trkpt><trkpt lat="-20.68500678163361" lon="117.0058155559286"><ele>6.0</ele><time>2026-04-23T02:22:37.001Z</time></trkpt><trkpt lat="-20.685106728616255" lon="117.00590934464756"><ele>5.5</ele><time>2026-04-23T02:22:38.001Z</time></trkpt><trkpt lat="-20.685193987816202" lon="117.0060116353815"><ele>5.0</ele><time>2026-04-23T02:22:39.001Z</time></trkpt><trkpt lat="-20.685276967922878" lon="117.00609587127846"><ele>4.5</ele><time>2026-04-23T02:22:40.001Z</time></trkpt><trkpt lat="-20.685356810088418" lon="117.00619090590337"><ele>4.0</ele><time>2026-04-23T02:22:41.001Z</time></trkpt><trkpt lat="-20.685437467375298" lon="117.00629135478982"><ele>4.75</ele><time>2026-04-23T02:22:42.001Z</time></trkpt><trkpt lat="-20.685520273302036" lon="117.00640041602918"><ele>5.5</ele><time>2026-04-23T02:22:43.001Z</time></trkpt><trkpt lat="-20.68560462724583" lon="117.00651291471976"><ele>6.25</ele><time>2026-04-23T02:22:44.001Z</time></trkpt><trkpt lat="-20.685698581186283" lon="117.0066335170101"><ele>7.0</ele><time>2026-04-23T02:22:45.001Z</time></trkpt><trkpt lat="-20.68580200851639" lon="117.00675777607191"><ele>7.0</ele><time>2026-04-23T02:22:46.001Z</time></trkpt><trkpt lat="-20.685919154401677" lon="117.0068876586843"><ele>7.0</ele><time>2026-04-23T02:22:47.001Z</time></trkpt><trkpt lat="-20.686048217953648" lon="117.00701908295713"><ele>7.0</ele><time>2026-04-23T02:22:48.001Z</time></trkpt><trkpt lat="-20.686187413550808" lon="117.0071455161734"><ele>7.666666666666667</ele><time>2026-04-23T02:22:49.001Z</time></trkpt><trkpt lat="-20.6863361821954" lon="117.00726669009818"><ele>8.333333333333334</ele><time>2026-04-23T02:22:50.001Z</time></trkpt><trkpt lat="-20.686486439397054" lon="117.00737325555065"><ele>9.0</ele><time>2026-04-23T02:22:51.001Z</time></trkpt><trkpt lat="-20.686650620353404" lon="117.00747394264953"><ele>8.666666666666666</ele><time>2026-04-23T02:22:52.001Z</time></trkpt><trkpt lat="-20.68682265011086" lon="117.00756298256869"><ele>8.333333333333332</ele><time>2026-04-23T02:22:53.001Z</time></trkpt><trkpt lat="-20.687008977167633" lon="117.00764413139648"><ele>8.0</ele><time>2026-04-23T02:22:54.001Z</time></trkpt><trkpt lat="-20.687196380400195" lon="117.00770438553732"><ele>8.0</ele><time>2026-04-23T02:22:55.001Z</time></trkpt><trkpt lat="-20.68740062230408" lon="117.00774920501024"><ele>8.0</ele><time>2026-04-23T02:22:56.001Z</time></trkpt><trkpt lat="-20.687623474505482" lon="117.0077845497026"><ele>8.0</ele><time>2026-04-23T02:22:57.001Z</time></trkpt><trkpt lat="-20.6878629079036" lon="117.0078071233725"><ele>8.5</ele><time>2026-04-23T02:22:58.001Z</time></trkpt><trkpt lat="-20.688109970093333" lon="117.00782050872563"><ele>9.0</ele><time>2026-04-23T02:22:59.001Z</time></trkpt><trkpt lat="-20.688350670314577" lon="117.0078329794171"><ele>10.0</ele><time>2026-04-23T02:23:00.001Z</time></trkpt><trkpt lat="-20.688594730978448" lon="117.00784151559952"><ele>11.0</ele><time>2026-04-23T02:23:01.001Z</time></trkpt><trkpt lat="-20.688836009674116" lon="117.00784415137038"><ele>11.0</ele><time>2026-04-23T02:23:02.001Z</time></trkpt><trkpt lat="-20.6890767086399" lon="117.00783916465724"><ele>11.0</ele><time>2026-04-23T02:23:03.001Z</time></trkpt><trkpt lat="-20.68930884795559" lon="117.00782042449235"><ele>11.333333333333332</ele><time>2026-04-23T02:23:04.001Z</time></trkpt><trkpt lat="-20.689528183134318" lon="117.00778329823994"><ele>11.666666666666666</ele><time>2026-04-23T02:23:05.001Z</time></trkpt><trkpt lat="-20.689745358025217" lon="117.00773061320626"><ele>12.0</ele><time>2026-04-23T02:23:06.001Z</time></trkpt><trkpt lat="-20.689965773304067" lon="117.00766764335859"><ele>12.0</ele><time>2026-04-23T02:23:07.001Z</time></trkpt><trkpt lat="-20.690177775921303" lon="117.00760137178524"><ele>12.0</ele><time>2026-04-23T02:23:08.001Z</time></trkpt><trkpt lat="-20.690371850032978" lon="117.0075356915307"><ele>12.0</ele><time>2026-04-23T02:23:09.001Z</time></trkpt><trkpt lat="-20.690556131781847" lon="117.00746072129587"><ele>11.0</ele><time>2026-04-23T02:23:10.001Z</time></trkpt><trkpt lat="-20.690730176015496" lon="117.00737891324077"><ele>10.0</ele><time>2026-04-23T02:23:11.001Z</time></trkpt><trkpt lat="-20.69090998916858" lon="117.00728561619866"><ele>9.0</ele><time>2026-04-23T02:23:12.001Z</time></trkpt><trkpt lat="-20.69108792491736" lon="117.00719379923771"><ele>9.333333333333334</ele><time>2026-04-23T02:23:13.001Z</time></trkpt><trkpt lat="-20.69126159784089" lon="117.00711205212454"><ele>9.666666666666668</ele><time>2026-04-23T02:23:14.001Z</time></trkpt><trkpt lat="-20.691446270356042" lon="117.00702822921238"><ele>10.0</ele><time>2026-04-23T02:23:15.001Z</time></trkpt><trkpt lat="-20.69164169515748" lon="117.00693929540395"><ele>10.0</ele><time>2026-04-23T02:23:16.001Z</time></trkpt><trkpt lat="-20.6918379535614" lon="117.00685034953045"><ele>10.0</ele><time>2026-04-23T02:23:17.001Z</time></trkpt><trkpt lat="-20.692034980043157" lon="117.00676392865556"><ele>10.0</ele><time>2026-04-23T02:23:18.001Z</time></trkpt><trkpt lat="-20.69224256573647" lon="117.00668526321068"><ele>10.0</ele><time>2026-04-23T02:23:19.001Z</time></trkpt><trkpt lat="-20.692433311400467" lon="117.00662721627467"><ele>10.0</ele><time>2026-04-23T02:23:20.001Z</time></trkpt><trkpt lat="-20.69262596644976" lon="117.00658586440072"><ele>10.0</ele><time>2026-04-23T02:23:21.001Z</time></trkpt><trkpt lat="-20.692806500916422" lon="117.00655950096886"><ele>10.0</ele><time>2026-04-23T02:23:22.001Z</time></trkpt><trkpt lat="-20.69298797364061" lon="117.00654433808438"><ele>10.0</ele><time>2026-04-23T02:23:23.001Z</time></trkpt><trkpt lat="-20.69316267117062" lon="117.00654330505182"><ele>10.0</ele><time>2026-04-23T02:23:24.001Z</time></trkpt><trkpt lat="-20.69332985090102" lon="117.00655370006619"><ele>10.0</ele><time>2026-04-23T02:23:25.001Z</time></trkpt><trkpt lat="-20.693492133222154" lon="117.00657092925707"><ele>10.0</ele><time>2026-04-23T02:23:26.001Z</time></trkpt><trkpt lat="-20.693647465590796" lon="117.00658938479556"><ele>10.0</ele><time>2026-04-23T02:23:27.001Z</time></trkpt><trkpt lat="-20.693805724799734" lon="117.00660175550364"><ele>10.25</ele><time>2026-04-23T02:23:28.001Z</time></trkpt><trkpt lat="-20.693960881122617" lon="117.00661077516263"><ele>10.5</ele><time>2026-04-23T02:23:29.001Z</time></trkpt><trkpt lat="-20.694106896330428" lon="117.00662339396399"><ele>10.75</ele><time>2026-04-23T02:23:30.001Z</time></trkpt><trkpt lat="-20.694246145785986" lon="117.00663087818019"><ele>11.0</ele><time>2026-04-23T02:23:31.001Z</time></trkpt><trkpt lat="-20.694380476605296" lon="117.0066343482331"><ele>11.25</ele><time>2026-04-23T02:23:32.001Z</time></trkpt><trkpt lat="-20.69450346009391" lon="117.00663831176554"><ele>11.5</ele><time>2026-04-23T02:23:33.001Z</time></trkpt><trkpt lat="-20.694624245633182" lon="117.00664454211226"><ele>11.75</ele><time>2026-04-23T02:23:34.001Z</time></trkpt><trkpt lat="-20.69474321263035" lon="117.0066522410423"><ele>12.0</ele><time>2026-04-23T02:23:35.001Z</time></trkpt><trkpt lat="-20.694870816994523" lon="117.00666493289496"><ele>12.0</ele><time>2026-04-23T02:23:36.001Z</time></trkpt><trkpt lat="-20.695000762642188" lon="117.00668055718367"><ele>12.0</ele><time>2026-04-23T02:23:37Z</time></trkpt><trkpt lat="-20.69513279437166" lon="117.00669846484465"><ele>12.0</ele><time>2026-04-23T02:23:38Z</time></trkpt><trkpt lat="-20.695268250459556" lon="117.00671689837824"><ele>12.0</ele><time>2026-04-23T02:23:39Z</time></trkpt><trkpt lat="-20.695401799424236" lon="117.00673861932565"><ele>12.0</ele><time>2026-04-23T02:23:40Z</time></trkpt><trkpt lat="-20.695537753319673" lon="117.00676002882848"><ele>12.0</ele><time>2026-04-23T02:23:41Z</time></trkpt><trkpt lat="-20.695673408120147" lon="117.00678033107566"><ele>12.0</ele><time>2026-04-23T02:23:42Z</time></trkpt><trkpt lat="-20.69581147941845" lon="117.00680460277235"><ele>12.0</ele><time>2026-04-23T02:23:43Z</time></trkpt><trkpt lat="-20.695952999443268" lon="117.00683105964063"><ele>12.0</ele><time>2026-04-23T02:23:44Z</time></trkpt><trkpt lat="-20.69610090837935" lon="117.00686310948939"><ele>12.0</ele><time>2026-04-23T02:23:45Z</time></trkpt><trkpt lat="-20.6962581862084" lon="117.00689506133156"><ele>12.0</ele><time>2026-04-23T02:23:46Z</time></trkpt><trkpt lat="-20.696420880664597" lon="117.00692670399533"><ele>12.0</ele><time>2026-04-23T02:23:47Z</time></trkpt><trkpt lat="-20.69659437201163" lon="117.0069564957493"><ele>12.0</ele><time>2026-04-23T02:23:48Z</time></trkpt><trkpt lat="-20.69677288520704" lon="117.00699018988952"><ele>12.0</ele><time>2026-04-23T02:23:49Z</time></trkpt><trkpt lat="-20.6969579785038" lon="117.00702387240626"><ele>13.0</ele><time>2026-04-23T02:23:50Z</time></trkpt><trkpt lat="-20.69714633593308" lon="117.00705479948036"><ele>14.0</ele><time>2026-04-23T02:23:51Z</time></trkpt><trkpt lat="-20.697337673422535" lon="117.00708157301858"><ele>15.0</ele><time>2026-04-23T02:23:52Z</time></trkpt><trkpt lat="-20.697537033832877" lon="117.00710993179679"><ele>15.0</ele><time>2026-04-23T02:23:53Z</time></trkpt><trkpt lat="-20.697733387719264" lon="117.00714288887785"><ele>15.0</ele><time>2026-04-23T02:23:54.001Z</time></trkpt><trkpt lat="-20.697932874297592" lon="117.00718369543996"><ele>15.0</ele><time>2026-04-23T02:23:55.001Z</time></trkpt><trkpt lat="-20.698145849157097" lon="117.00722635022407"><ele>14.5</ele><time>2026-04-23T02:23:56.001Z</time></trkpt><trkpt lat="-20.69836442894675" lon="117.00727181325973"><ele>14.0</ele><time>2026-04-23T02:23:57.001Z</time></trkpt><trkpt lat="-20.698592943691995" lon="117.00731452776003"><ele>14.0</ele><time>2026-04-23T02:23:58.001Z</time></trkpt><trkpt lat="-20.698819048772375" lon="117.00735704793844"><ele>14.0</ele><time>2026-04-23T02:23:59.001Z</time></trkpt><trkpt lat="-20.699038616841698" lon="117.00739453871512"><ele>14.0</ele><time>2026-04-23T02:24:00.001Z</time></trkpt><trkpt lat="-20.699255083014066" lon="117.00743384435862"><ele>14.0</ele><time>2026-04-23T02:24:01.001Z</time></trkpt><trkpt lat="-20.699469390504657" lon="117.00747317996796"><ele>14.0</ele><time>2026-04-23T02:24:02.001Z</time></trkpt><trkpt lat="-20.69967499224061" lon="117.00751179539144"><ele>14.666666666666668</ele><time>2026-04-23T02:24:03.001Z</time></trkpt><trkpt lat="-20.69987140189044" lon="117.00754632221796"><ele>15.333333333333332</ele><time>2026-04-23T02:24:04.001Z</time></trkpt><trkpt lat="-20.700066125148176" lon="117.00758159044237"><ele>16.0</ele><time>2026-04-23T02:24:05.001Z</time></trkpt><trkpt lat="-20.7002532475742" lon="117.00761725564544"><ele>16.333333333333332</ele><time>2026-04-23T02:24:06.001Z</time></trkpt><trkpt lat="-20.700435344359573" lon="117.00765173240617"><ele>16.666666666666668</ele><time>2026-04-23T02:24:07.001Z</time></trkpt><trkpt lat="-20.700613111470226" lon="117.0076813810794"><ele>17.0</ele><time>2026-04-23T02:24:08.001Z</time></trkpt><trkpt lat="-20.70078387090906" lon="117.00770974069553"><ele>17.0</ele><time>2026-04-23T02:24:09.001Z</time></trkpt><trkpt lat="-20.700952367626893" lon="117.00773765194879"><ele>17.0</ele><time>2026-04-23T02:24:10.001Z</time></trkpt><trkpt lat="-20.701114058656835" lon="117.00778812543966"><ele>17.0</ele><time>2026-04-23T02:24:11.001Z</time></trkpt><trkpt lat="-20.70126905092807" lon="117.00782124344202"><ele>17.666666666666668</ele><time>2026-04-23T02:24:12.001Z</time></trkpt><trkpt lat="-20.70141903206279" lon="117.0078416532051"><ele>18.333333333333332</ele><time>2026-04-23T02:24:13.001Z</time></trkpt><trkpt lat="-20.701569225524235" lon="117.00788085733713"><ele>19.0</ele><time>2026-04-23T02:24:14.001Z</time></trkpt><trkpt lat="-20.701716718775078" lon="117.00791791280425"><ele>19.0</ele><time>2026-04-23T02:24:15.001Z</time></trkpt><trkpt lat="-20.701870543221254" lon="117.0079559700274"><ele>19.0</ele><time>2026-04-23T02:24:16.001Z</time></trkpt><trkpt lat="-20.702009373018125" lon="117.0079958857208"><ele>19.0</ele><time>2026-04-23T02:24:17.001Z</time></trkpt><trkpt lat="-20.702135654650686" lon="117.00802867734453"><ele>19.0</ele><time>2026-04-23T02:24:18.001Z</time></trkpt><trkpt lat="-20.70225254587825" lon="117.00806017055558"><ele>19.799999999999997</ele><time>2026-04-23T02:24:19.001Z</time></trkpt><trkpt lat="-20.70236209643782" lon="117.00808994708413"><ele>20.599999999999998</ele><time>2026-04-23T02:24:20.001Z</time></trkpt><trkpt lat="-20.70246670845949" lon="117.00812158217568"><ele>21.4</ele><time>2026-04-23T02:24:21.001Z</time></trkpt><trkpt lat="-20.70256424475207" lon="117.00815494186978"><ele>22.2</ele><time>2026-04-23T02:24:22.001Z</time></trkpt><trkpt lat="-20.70266070102659" lon="117.00818573862257"><ele>23.0</ele><time>2026-04-23T02:24:23.001Z</time></trkpt><trkpt lat="-20.702748175129077" lon="117.00821502939272"><ele>22.833333333333336</ele><time>2026-04-23T02:24:24.001Z</time></trkpt><trkpt lat="-20.702813598454085" lon="117.00823372398263"><ele>22.666666666666668</ele><time>2026-04-23T02:24:25.001Z</time></trkpt><trkpt lat="-20.70289585136296" lon="117.00826247556127"><ele>22.5</ele><time>2026-04-23T02:26:38.001Z</time></trkpt><trkpt lat="-20.70300059658523" lon="117.00829022384269"><ele>22.333333333333332</ele><time>2026-04-23T02:26:40.001Z</time></trkpt><trkpt lat="-20.7030719890576" lon="117.00830502704285"><ele>22.166666666666664</ele><time>2026-04-23T02:26:41.001Z</time></trkpt><trkpt lat="-20.70317054557416" lon="117.00833196921946"><ele>22.0</ele><time>2026-04-23T02:26:42.001Z</time></trkpt><trkpt lat="-20.703270369601597" lon="117.00836508738297"><ele>22.0</ele><time>2026-04-23T02:26:43.001Z</time></trkpt><trkpt lat="-20.703390715371643" lon="117.00840538421659"><ele>22.0</ele><time>2026-04-23T02:26:44.001Z</time></trkpt><trkpt lat="-20.70353738566379" lon="117.00845318003448"><ele>22.0</ele><time>2026-04-23T02:26:45.001Z</time></trkpt><trkpt lat="-20.703694903150495" lon="117.00850200417001"><ele>22.0</ele><time>2026-04-23T02:26:46.001Z</time></trkpt><trkpt lat="-20.703859438919054" lon="117.00855458159465"><ele>21.666666666666664</ele><time>2026-04-23T02:26:47.001Z</time></trkpt><trkpt lat="-20.704037612582038" lon="117.00861185320448"><ele>21.333333333333332</ele><time>2026-04-23T02:26:48.001Z</time></trkpt><trkpt lat="-20.704218324789313" lon="117.00867024239385"><ele>21.0</ele><time>2026-04-23T02:26:49.001Z</time></trkpt><trkpt lat="-20.70440772450423" lon="117.00873829442422"><ele>21.0</ele><time>2026-04-23T02:26:50.001Z</time></trkpt><trkpt lat="-20.70460275887533" lon="117.00880725380708"><ele>21.0</ele><time>2026-04-23T02:26:51.001Z</time></trkpt><trkpt lat="-20.704804135177664" lon="117.00887726911947"><ele>21.0</ele><time>2026-04-23T02:26:52.001Z</time></trkpt><trkpt lat="-20.70500615045844" lon="117.00894403715401"><ele>21.0</ele><time>2026-04-23T02:26:53.001Z</time></trkpt><trkpt lat="-20.7052137414173" lon="117.00901134536662"><ele>21.0</ele><time>2026-04-23T02:26:54.001Z</time></trkpt><trkpt lat="-20.705430759678315" lon="117.00908461451246"><ele>21.0</ele><time>2026-04-23T02:26:55.001Z</time></trkpt><trkpt lat="-20.705652919301546" lon="117.00916116678727"><ele>20.5</ele><time>2026-04-23T02:26:56.001Z</time></trkpt><trkpt lat="-20.705879403791428" lon="117.00923950255226"><ele>20.0</ele><time>2026-04-23T02:26:57.001Z</time></trkpt><trkpt lat="-20.70611266816879" lon="117.00932095565496"><ele>20.0</ele><time>2026-04-23T02:26:58.001Z</time></trkpt><trkpt lat="-20.70634414379923" lon="117.00939953838574"><ele>20.0</ele><time>2026-04-23T02:26:59.001Z</time></trkpt><trkpt lat="-20.70658223912201" lon="117.0094817723609"><ele>20.0</ele><time>2026-04-23T02:27:00.001Z</time></trkpt><trkpt lat="-20.706821285483723" lon="117.0095623826199"><ele>20.0</ele><time>2026-04-23T02:27:01.001Z</time></trkpt><trkpt lat="-20.70706681942338" lon="117.00964739749509"><ele>20.5</ele><time>2026-04-23T02:27:02.001Z</time></trkpt><trkpt lat="-20.70730920978483" lon="117.0097305437475"><ele>21.0</ele><time>2026-04-23T02:27:03.001Z</time></trkpt><trkpt lat="-20.707546277535094" lon="117.00981284051862"><ele>21.0</ele><time>2026-04-23T02:27:04.001Z</time></trkpt><trkpt lat="-20.707781745199465" lon="117.00989122066666"><ele>21.0</ele><time>2026-04-23T02:27:05.001Z</time></trkpt><trkpt lat="-20.708020179668825" lon="117.00997344604038"><ele>20.0</ele><time>2026-04-23T02:27:06.001Z</time></trkpt><trkpt lat="-20.70825921629" lon="117.0100548386631"><ele>19.0</ele><time>2026-04-23T02:27:07.001Z</time></trkpt><trkpt lat="-20.708498286736415" lon="117.01013914619564"><ele>19.5</ele><time>2026-04-23T02:27:08.001Z</time></trkpt><trkpt lat="-20.708734944557936" lon="117.01022174672596"><ele>20.0</ele><time>2026-04-23T02:27:09.001Z</time></trkpt><trkpt lat="-20.708974269464036" lon="117.01030483709052"><ele>20.0</ele><time>2026-04-23T02:27:10.002Z</time></trkpt><trkpt lat="-20.709217286220827" lon="117.01038632946738"><ele>20.0</ele><time>2026-04-23T02:27:11.002Z</time></trkpt><trkpt lat="-20.709462751895718" lon="117.01046868174149"><ele>19.0</ele><time>2026-04-23T02:27:12.002Z</time></trkpt><trkpt lat="-20.709709083891532" lon="117.01055323601716"><ele>18.0</ele><time>2026-04-23T02:27:13.002Z</time></trkpt><trkpt lat="-20.709956579532157" lon="117.01064051628828"><ele>18.0</ele><time>2026-04-23T02:27:14.002Z</time></trkpt><trkpt lat="-20.710202316221782" lon="117.01072570254661"><ele>18.0</ele><time>2026-04-23T02:27:15.002Z</time></trkpt><trkpt lat="-20.710452313577996" lon="117.0108103556585"><ele>18.0</ele><time>2026-04-23T02:27:16.002Z</time></trkpt><trkpt lat="-20.710700824872635" lon="117.01089413452466"><ele>18.0</ele><time>2026-04-23T02:27:17.002Z</time></trkpt><trkpt lat="-20.71094747957503" lon="117.01098170186752"><ele>17.5</ele><time>2026-04-23T02:27:18.002Z</time></trkpt><trkpt lat="-20.711192203337603" lon="117.0110678063305"><ele>17.0</ele><time>2026-04-23T02:27:19.002Z</time></trkpt><trkpt lat="-20.711438235212352" lon="117.01115433096466"><ele>17.0</ele><time>2026-04-23T02:27:20.002Z</time></trkpt><trkpt lat="-20.711685244735254" lon="117.01124130253046"><ele>17.0</ele><time>2026-04-23T02:27:21.002Z</time></trkpt><trkpt lat="-20.711931107788416" lon="117.01132521649893"><ele>17.0</ele><time>2026-04-23T02:27:22.002Z</time></trkpt><trkpt lat="-20.712178420228952" lon="117.01140917323039"><ele>17.0</ele><time>2026-04-23T02:27:23.002Z</time></trkpt><trkpt lat="-20.712420992350182" lon="117.01149362416375"><ele>17.0</ele><time>2026-04-23T02:27:24.002Z</time></trkpt><trkpt lat="-20.712667976100985" lon="117.01157910014285"><ele>17.0</ele><time>2026-04-23T02:27:25.002Z</time></trkpt><trkpt lat="-20.712914823817595" lon="117.01166105503184"><ele>16.5</ele><time>2026-04-23T02:27:26.002Z</time></trkpt><trkpt lat="-20.7131627172634" lon="117.01174288924997"><ele>16.0</ele><time>2026-04-23T02:27:27.002Z</time></trkpt><trkpt lat="-20.713409606198642" lon="117.01182659469784"><ele>16.0</ele><time>2026-04-23T02:27:28.002Z</time></trkpt><trkpt lat="-20.7136580364676" lon="117.0119122308773"><ele>16.0</ele><time>2026-04-23T02:27:29.002Z</time></trkpt><trkpt lat="-20.71390156040177" lon="117.01199648488131"><ele>16.0</ele><time>2026-04-23T02:27:30.002Z</time></trkpt><trkpt lat="-20.714145798981335" lon="117.01207990403883"><ele>16.0</ele><time>2026-04-23T02:27:31.002Z</time></trkpt><trkpt lat="-20.714386629004192" lon="117.01216399761955"><ele>16.0</ele><time>2026-04-23T02:27:32.002Z</time></trkpt><trkpt lat="-20.714632560613236" lon="117.0122504306783"><ele>16.0</ele><time>2026-04-23T02:27:33.002Z</time></trkpt><trkpt lat="-20.714879036760763" lon="117.01233484522301"><ele>16.0</ele><time>2026-04-23T02:27:34.002Z</time></trkpt><trkpt lat="-20.715126085985595" lon="117.01241946559979"><ele>16.0</ele><time>2026-04-23T02:27:35.002Z</time></trkpt><trkpt lat="-20.715374002880292" lon="117.01250805203043"><ele>17.0</ele><time>2026-04-23T02:27:36.002Z</time></trkpt><trkpt lat="-20.715621550115888" lon="117.01259380096252"><ele>18.0</ele><time>2026-04-23T02:27:37.002Z</time></trkpt><trkpt lat="-20.715868342085656" lon="117.01267861374666"><ele>18.5</ele><time>2026-04-23T02:27:38.002Z</time></trkpt><trkpt lat="-20.71610992771541" lon="117.01276264884581"><ele>19.0</ele><time>2026-04-23T02:27:39.002Z</time></trkpt><trkpt lat="-20.716350606649314" lon="117.01284177619168"><ele>19.0</ele><time>2026-04-23T02:27:40.002Z</time></trkpt><trkpt lat="-20.716592899664093" lon="117.0129116912401"><ele>19.0</ele><time>2026-04-23T02:27:41.002Z</time></trkpt><trkpt lat="-20.716840567296018" lon="117.01298194574107"><ele>19.0</ele><time>2026-04-23T02:27:42.002Z</time></trkpt><trkpt lat="-20.71708856840675" lon="117.01305172948258"><ele>19.0</ele><time>2026-04-23T02:27:43.002Z</time></trkpt><trkpt lat="-20.717336123113398" lon="117.01312054932512"><ele>19.0</ele><time>2026-04-23T02:27:44.002Z</time></trkpt><trkpt lat="-20.717584253835238" lon="117.01318891419776"><ele>19.0</ele><time>2026-04-23T02:27:45.002Z</time></trkpt><trkpt lat="-20.717839213250933" lon="117.01325935458702"><ele>17.0</ele><time>2026-04-23T02:27:46.002Z</time></trkpt><trkpt lat="-20.7180926667334" lon="117.01333044356693"><ele>15.0</ele><time>2026-04-23T02:27:47.002Z</time></trkpt><trkpt lat="-20.71835002311037" lon="117.01340490298485"><ele>15.0</ele><time>2026-04-23T02:27:48.002Z</time></trkpt><trkpt lat="-20.718607052330107" lon="117.01347958687495"><ele>15.0</ele><time>2026-04-23T02:27:49.001Z</time></trkpt><trkpt lat="-20.718867345317367" lon="117.01355731123236"><ele>15.0</ele><time>2026-04-23T02:27:50.001Z</time></trkpt><trkpt lat="-20.719130356201234" lon="117.01363690834322"><ele>15.0</ele><time>2026-04-23T02:27:51.001Z</time></trkpt><trkpt lat="-20.71938762722315" lon="117.01371721315486"><ele>14.5</ele><time>2026-04-23T02:27:52.001Z</time></trkpt><trkpt lat="-20.719645572380163" lon="117.01380211525678"><ele>14.0</ele><time>2026-04-23T02:27:53.001Z</time></trkpt><trkpt lat="-20.719895681541452" lon="117.01389032087745"><ele>14.0</ele><time>2026-04-23T02:27:54.001Z</time></trkpt><trkpt lat="-20.72014713980867" lon="117.01398229486276"><ele>14.0</ele><time>2026-04-23T02:27:55.001Z</time></trkpt><trkpt lat="-20.720396974416293" lon="117.01407576149533"><ele>15.0</ele><time>2026-04-23T02:27:56.001Z</time></trkpt><trkpt lat="-20.72064780060208" lon="117.01416817717974"><ele>16.0</ele><time>2026-04-23T02:27:57.001Z</time></trkpt><trkpt lat="-20.720893426430653" lon="117.01426178658456"><ele>15.0</ele><time>2026-04-23T02:27:58.001Z</time></trkpt><trkpt lat="-20.72113697613535" lon="117.01435791579645"><ele>14.0</ele><time>2026-04-23T02:27:59.001Z</time></trkpt><trkpt lat="-20.721378421944326" lon="117.01445428186821"><ele>14.0</ele><time>2026-04-23T02:28:00.001Z</time></trkpt><trkpt lat="-20.721618278444815" lon="117.01455312590693"><ele>14.0</ele><time>2026-04-23T02:28:01.001Z</time></trkpt><trkpt lat="-20.72185171679287" lon="117.01465863788624"><ele>14.5</ele><time>2026-04-23T02:28:02.001Z</time></trkpt><trkpt lat="-20.72208321256269" lon="117.0147730266743"><ele>15.0</ele><time>2026-04-23T02:28:03.001Z</time></trkpt><trkpt lat="-20.72230914057738" lon="117.01489316558502"><ele>14.5</ele><time>2026-04-23T02:28:04.001Z</time></trkpt><trkpt lat="-20.7225375361755" lon="117.01501534280999"><ele>14.0</ele><time>2026-04-23T02:28:05.001Z</time></trkpt><trkpt lat="-20.722761728621805" lon="117.01513572668173"><ele>13.5</ele><time>2026-04-23T02:28:06.001Z</time></trkpt><trkpt lat="-20.722989265893393" lon="117.01525459304962"><ele>13.0</ele><time>2026-04-23T02:28:07.001Z</time></trkpt><trkpt lat="-20.72321799496745" lon="117.01537339093622"><ele>13.0</ele><time>2026-04-23T02:28:08.001Z</time></trkpt><trkpt lat="-20.7234443137794" lon="117.01549365827786"><ele>13.0</ele><time>2026-04-23T02:28:09.001Z</time></trkpt><trkpt lat="-20.723668900578467" lon="117.01561461449894"><ele>13.0</ele><time>2026-04-23T02:28:10.001Z</time></trkpt><trkpt lat="-20.723894922357935" lon="117.01573736156415"><ele>13.0</ele><time>2026-04-23T02:28:11.001Z</time></trkpt><trkpt lat="-20.72412048849997" lon="117.01586457355221"><ele>13.0</ele><time>2026-04-23T02:28:12.001Z</time></trkpt><trkpt lat="-20.724348369013928" lon="117.01599731211549"><ele>13.0</ele><time>2026-04-23T02:28:13.001Z</time></trkpt><trkpt lat="-20.724594362307023" lon="117.01614302561978"><ele>13.0</ele><time>2026-04-23T02:28:14.001Z</time></trkpt><trkpt lat="-20.72482833935399" lon="117.01628488795096"><ele>13.0</ele><time>2026-04-23T02:28:15.001Z</time></trkpt><trkpt lat="-20.725046680084223" lon="117.01641965967013"><ele>13.0</ele><time>2026-04-23T02:28:16.001Z</time></trkpt><trkpt lat="-20.725246389793" lon="117.01655473885401"><ele>13.0</ele><time>2026-04-23T02:28:17.001Z</time></trkpt><trkpt lat="-20.72543936638885" lon="117.01670794338726"><ele>13.0</ele><time>2026-04-23T02:28:18.001Z</time></trkpt><trkpt lat="-20.72561491417314" lon="117.01686954346108"><ele>13.0</ele><time>2026-04-23T02:28:19.001Z</time></trkpt><trkpt lat="-20.725761149486566" lon="117.01702370082151"><ele>13.0</ele><time>2026-04-23T02:28:20.001Z</time></trkpt><trkpt lat="-20.725879580176937" lon="117.01718844082785"><ele>13.0</ele><time>2026-04-23T02:28:21.001Z</time></trkpt><trkpt lat="-20.72598951404314" lon="117.01739185650838"><ele>13.0</ele><time>2026-04-23T02:28:22.001Z</time></trkpt><trkpt lat="-20.726088773509456" lon="117.017614797462"><ele>15.0</ele><time>2026-04-23T02:28:23.001Z</time></trkpt><trkpt lat="-20.72617909521039" lon="117.01785291556081"><ele>17.0</ele><time>2026-04-23T02:28:24.001Z</time></trkpt><trkpt lat="-20.726267977466986" lon="117.01809097981167"><ele>16.0</ele><time>2026-04-23T02:28:25.001Z</time></trkpt><trkpt lat="-20.726366321039077" lon="117.01832509245091"><ele>15.0</ele><time>2026-04-23T02:28:26.001Z</time></trkpt><trkpt lat="-20.726466202243763" lon="117.01855421772831"><ele>15.0</ele><time>2026-04-23T02:28:27.001Z</time></trkpt><trkpt lat="-20.72655816092176" lon="117.0187661847793"><ele>15.0</ele><time>2026-04-23T02:28:28.001Z</time></trkpt><trkpt lat="-20.726649941751447" lon="117.01896521867921"><ele>15.0</ele><time>2026-04-23T02:28:29.001Z</time></trkpt><trkpt lat="-20.726750954655785" lon="117.01916403171893"><ele>15.0</ele><time>2026-04-23T02:28:30.001Z</time></trkpt><trkpt lat="-20.726861643685776" lon="117.01936450382532"><ele>15.0</ele><time>2026-04-23T02:28:31.001Z</time></trkpt><trkpt lat="-20.726979007998608" lon="117.01955821754916"><ele>15.0</ele><time>2026-04-23T02:28:32.001Z</time></trkpt><trkpt lat="-20.727105446042312" lon="117.01975116308427"><ele>15.333333333333332</ele><time>2026-04-23T02:28:33.001Z</time></trkpt><trkpt lat="-20.72723763664937" lon="117.01994303932771"><ele>15.666666666666666</ele><time>2026-04-23T02:28:34.001Z</time></trkpt><trkpt lat="-20.72737072526757" lon="117.02012909887588"><ele>16.0</ele><time>2026-04-23T02:28:35.001Z</time></trkpt><trkpt lat="-20.727505330082682" lon="117.02031647183814"><ele>15.0</ele><time>2026-04-23T02:28:36.001Z</time></trkpt><trkpt lat="-20.72764735905533" lon="117.02050557748747"><ele>14.0</ele><time>2026-04-23T02:28:37.001Z</time></trkpt><trkpt lat="-20.727791605499363" lon="117.02068842152245"><ele>14.666666666666668</ele><time>2026-04-23T02:28:38.001Z</time></trkpt><trkpt lat="-20.727931684452287" lon="117.02086532197939"><ele>15.333333333333332</ele><time>2026-04-23T02:28:39.001Z</time></trkpt><trkpt lat="-20.728060469801527" lon="117.02103228522185"><ele>16.0</ele><time>2026-04-23T02:28:40.001Z</time></trkpt><trkpt lat="-20.728179899000963" lon="117.02118541790927"><ele>16.0</ele><time>2026-04-23T02:28:41.001Z</time></trkpt><trkpt lat="-20.728279192967772" lon="117.02131397840243"><ele>16.0</ele><time>2026-04-23T02:28:42.001Z</time></trkpt><trkpt lat="-20.72836228592205" lon="117.02141790704722"><ele>16.0</ele><time>2026-04-23T02:28:43.001Z</time></trkpt><trkpt lat="-20.72842689766782" lon="117.02150017884512"><ele>16.0</ele><time>2026-04-23T02:28:44.001Z</time></trkpt><trkpt lat="-20.728471976668" lon="117.02155760622702"><ele>16.0</ele><time>2026-04-23T02:28:45.001Z</time></trkpt><trkpt lat="-20.72852017888718" lon="117.02161649960911"><ele>16.0</ele><time>2026-04-23T02:28:47.001Z</time></trkpt><trkpt lat="-20.728482435652705" lon="117.02152870101071"><ele>16.0</ele><time>2026-04-23T02:28:54.001Z</time></trkpt><trkpt lat="-20.728440737728626" lon="117.02147411276498"><ele>16.0</ele><time>2026-04-23T02:28:55.001Z</time></trkpt><trkpt lat="-20.728311285572197" lon="117.02111186701504"><ele>16.0</ele><time>2026-04-23T02:28:56.001Z</time></trkpt><trkpt lat="-20.72837446850158" lon="117.02135286777117"><ele>16.0</ele><time>2026-04-23T02:28:57.001Z</time></trkpt><trkpt lat="-20.728326643030226" lon="117.02128958737006"><ele>16.0</ele><time>2026-04-23T02:28:58.001Z</time></trkpt><trkpt lat="-20.728285056256382" lon="117.02123483912011"><ele>16.0</ele><time>2026-04-23T02:28:59.001Z</time></trkpt><trkpt lat="-20.72821358861942" lon="117.02116536384642"><ele>15.999999999999998</ele><time>2026-04-23T02:29:01.001Z</time></trkpt><trkpt lat="-20.72814565790867" lon="117.02116672029177"><ele>16.0</ele><time>2026-04-23T02:29:03.001Z</time></trkpt><trkpt lat="-20.72807114425371" lon="117.02117817466959"><ele>16.0</ele><time>2026-04-23T02:29:05.001Z</time></trkpt><trkpt lat="-20.72801012514177" lon="117.02120202968521"><ele>16.0</ele><time>2026-04-23T02:29:07.001Z</time></trkpt><trkpt lat="-20.727902384671367" lon="117.02125046803776"><ele>15.999999999999998</ele><time>2026-04-23T02:29:09.001Z</time></trkpt><trkpt lat="-20.72782765613019" lon="117.02127751144775"><ele>16.0</ele><time>2026-04-23T02:29:10.001Z</time></trkpt><trkpt lat="-20.727743597922466" lon="117.02130601274713"><ele>15.8</ele><time>2026-04-23T02:29:11.001Z</time></trkpt><trkpt lat="-20.727663750601618" lon="117.0213347527919"><ele>15.600000000000001</ele><time>2026-04-23T02:29:12.001Z</time></trkpt><trkpt lat="-20.727575588636668" lon="117.02136577985361"><ele>15.4</ele><time>2026-04-23T02:29:13.001Z</time></trkpt><trkpt lat="-20.72747763810133" lon="117.02140470880063"><ele>15.2</ele><time>2026-04-23T02:29:14.001Z</time></trkpt><trkpt lat="-20.72737974265103" lon="117.02144447264328"><ele>15.0</ele><time>2026-04-23T02:29:15.001Z</time></trkpt><trkpt lat="-20.727281364733237" lon="117.02148280760981"><ele>15.0</ele><time>2026-04-23T02:29:16.001Z</time></trkpt><trkpt lat="-20.727174700073405" lon="117.02152799211346"><ele>15.0</ele><time>2026-04-23T02:29:17.001Z</time></trkpt><trkpt lat="-20.727055718751778" lon="117.02157424415367"><ele>15.0</ele><time>2026-04-23T02:29:18.001Z</time></trkpt><trkpt lat="-20.72694082593963" lon="117.02162017358752"><ele>15.0</ele><time>2026-04-23T02:29:19.001Z</time></trkpt><trkpt lat="-20.72682616666118" lon="117.02166595386295"><ele>14.75</ele><time>2026-04-23T02:29:20.001Z</time></trkpt><trkpt lat="-20.72671125325491" lon="117.02171193410234"><ele>14.5</ele><time>2026-04-23T02:29:21.001Z</time></trkpt><trkpt lat="-20.726593690953568" lon="117.0217507746504"><ele>14.25</ele><time>2026-04-23T02:29:22.001Z</time></trkpt><trkpt lat="-20.72648143516411" lon="117.02179468289549"><ele>14.0</ele><time>2026-04-23T02:29:23.001Z</time></trkpt><trkpt lat="-20.72637765508141" lon="117.02184030746659"><ele>14.0</ele><time>2026-04-23T02:29:24.001Z</time></trkpt><trkpt lat="-20.726275130786867" lon="117.02188759248519"><ele>13.999999999999998</ele><time>2026-04-23T02:29:25.001Z</time></trkpt><trkpt lat="-20.726172165584764" lon="117.02193456312116"><ele>13.999999999999998</ele><time>2026-04-23T02:29:26.001Z</time></trkpt><trkpt lat="-20.72606260994418" lon="117.02196368321133"><ele>14.0</ele><time>2026-04-23T02:29:27.001Z</time></trkpt><trkpt lat="-20.725961964998028" lon="117.02200215160889"><ele>14.0</ele><time>2026-04-23T02:29:28.001Z</time></trkpt><trkpt lat="-20.725866172002398" lon="117.022040001755"><ele>14.2</ele><time>2026-04-23T02:29:29.001Z</time></trkpt><trkpt lat="-20.725780159055844" lon="117.02207282911037"><ele>14.399999999999999</ele><time>2026-04-23T02:29:30.002Z</time></trkpt><trkpt lat="-20.725710131001996" lon="117.02211333566723"><ele>14.6</ele><time>2026-04-23T02:29:31.002Z</time></trkpt><trkpt lat="-20.725624355491252" lon="117.02212472056739"><ele>14.8</ele><time>2026-04-23T02:29:33.002Z</time></trkpt><trkpt lat="-20.725536742292086" lon="117.02216646281306"><ele>15.0</ele><time>2026-04-23T02:29:55.001Z</time></trkpt><trkpt lat="-20.725441162297212" lon="117.02223885854997"><ele>15.0</ele><time>2026-04-23T02:29:57.001Z</time></trkpt><trkpt lat="-20.72538559615582" lon="117.0222925689507"><ele>15.0</ele><time>2026-04-23T02:29:58.001Z</time></trkpt><trkpt lat="-20.725335888647443" lon="117.02235980178128"><ele>15.0</ele><time>2026-04-23T02:29:59.001Z</time></trkpt><trkpt lat="-20.725284697356244" lon="117.0224452521749"><ele>15.0</ele><time>2026-04-23T02:30:00.001Z</time></trkpt><trkpt lat="-20.725230465450437" lon="117.02254422153383"><ele>15.0</ele><time>2026-04-23T02:30:01.001Z</time></trkpt><trkpt lat="-20.72516656393275" lon="117.02266002534313"><ele>15.25</ele><time>2026-04-23T02:30:02.001Z</time></trkpt><trkpt lat="-20.725095146249338" lon="117.02278395459535"><ele>15.5</ele><time>2026-04-23T02:30:03.001Z</time></trkpt><trkpt lat="-20.72502346916312" lon="117.0229085369088"><ele>15.75</ele><time>2026-04-23T02:30:04.001Z</time></trkpt><trkpt lat="-20.724945052466758" lon="117.0230370049108"><ele>16.0</ele><time>2026-04-23T02:30:05.001Z</time></trkpt><trkpt lat="-20.72485765178729" lon="117.02317408450944"><ele>15.666666666666666</ele><time>2026-04-23T02:30:06.001Z</time></trkpt><trkpt lat="-20.724765702506392" lon="117.02331486112263"><ele>15.333333333333332</ele><time>2026-04-23T02:30:07.001Z</time></trkpt><trkpt lat="-20.7246830586181" lon="117.02344462723475"><ele>15.0</ele><time>2026-04-23T02:30:08.001Z</time></trkpt><trkpt lat="-20.724602911590704" lon="117.02357088831704"><ele>15.0</ele><time>2026-04-23T02:30:09.001Z</time></trkpt><trkpt lat="-20.724524257859212" lon="117.02369934672129"><ele>15.0</ele><time>2026-04-23T02:30:10.001Z</time></trkpt><trkpt lat="-20.724442855926846" lon="117.02383286176054"><ele>15.0</ele><time>2026-04-23T02:30:11.001Z</time></trkpt><trkpt lat="-20.72436074671168" lon="117.02397258685929"><ele>15.0</ele><time>2026-04-23T02:30:12.001Z</time></trkpt><trkpt lat="-20.72427919754901" lon="117.0241083434016"><ele>15.333333333333332</ele><time>2026-04-23T02:30:13.001Z</time></trkpt><trkpt lat="-20.724192254827983" lon="117.02424471963353"><ele>15.666666666666666</ele><time>2026-04-23T02:30:14.001Z</time></trkpt><trkpt lat="-20.724104541041203" lon="117.02438594699316"><ele>16.0</ele><time>2026-04-23T02:30:15.001Z</time></trkpt><trkpt lat="-20.72401382529719" lon="117.02453504252622"><ele>16.0</ele><time>2026-04-23T02:30:16.001Z</time></trkpt><trkpt lat="-20.723930462503127" lon="117.02468550228065"><ele>16.0</ele><time>2026-04-23T02:30:17.001Z</time></trkpt><trkpt lat="-20.723839388476016" lon="117.02483143886002"><ele>16.0</ele><time>2026-04-23T02:30:18.001Z</time></trkpt><trkpt lat="-20.72374745553341" lon="117.02497053773033"><ele>16.0</ele><time>2026-04-23T02:30:19.001Z</time></trkpt><trkpt lat="-20.72365793282931" lon="117.02511162383573"><ele>16.0</ele><time>2026-04-23T02:30:20.001Z</time></trkpt><trkpt lat="-20.723577621229623" lon="117.02525498930414"><ele>16.0</ele><time>2026-04-23T02:30:21.001Z</time></trkpt><trkpt lat="-20.723502667677618" lon="117.02539226271068"><ele>16.0</ele><time>2026-04-23T02:30:22.001Z</time></trkpt><trkpt lat="-20.72342315483393" lon="117.02551986818949"><ele>16.0</ele><time>2026-04-23T02:30:23.001Z</time></trkpt><trkpt lat="-20.723338933111147" lon="117.0256415790961"><ele>16.0</ele><time>2026-04-23T02:30:24.001Z</time></trkpt><trkpt lat="-20.72325674492953" lon="117.02576039260586"><ele>16.0</ele><time>2026-04-23T02:30:25.001Z</time></trkpt><trkpt lat="-20.723183076483195" lon="117.02587366444419"><ele>16.25</ele><time>2026-04-23T02:30:26.001Z</time></trkpt><trkpt lat="-20.72310941767994" lon="117.02598675091924"><ele>16.5</ele><time>2026-04-23T02:30:27.001Z</time></trkpt><trkpt lat="-20.72303206407642" lon="117.02610529643273"><ele>16.75</ele><time>2026-04-23T02:30:28.001Z</time></trkpt><trkpt lat="-20.72296036982284" lon="117.02622979940811"><ele>17.0</ele><time>2026-04-23T02:30:29.001Z</time></trkpt><trkpt lat="-20.72289339302578" lon="117.02637050096932"><ele>17.0</ele><time>2026-04-23T02:30:30.001Z</time></trkpt><trkpt lat="-20.72279968579186" lon="117.02651222835568"><ele>17.0</ele><time>2026-04-23T02:30:31.001Z</time></trkpt><trkpt lat="-20.72271211652304" lon="117.026679944367"><ele>17.0</ele><time>2026-04-23T02:30:32.001Z</time></trkpt><trkpt lat="-20.72261009572226" lon="117.02683643151177"><ele>16.666666666666668</ele><time>2026-04-23T02:30:33.001Z</time></trkpt><trkpt lat="-20.722518999544516" lon="117.02698611547002"><ele>16.333333333333332</ele><time>2026-04-23T02:30:34.001Z</time></trkpt><trkpt lat="-20.72244091382336" lon="117.02712794793224"><ele>16.0</ele><time>2026-04-23T02:30:35.001Z</time></trkpt><trkpt lat="-20.722370152108198" lon="117.02725743365372"><ele>16.0</ele><time>2026-04-23T02:30:36.001Z</time></trkpt><trkpt lat="-20.72228737782047" lon="117.02737897660747"><ele>16.0</ele><time>2026-04-23T02:30:37.001Z</time></trkpt><trkpt lat="-20.722196993588437" lon="117.02750937126169"><ele>16.0</ele><time>2026-04-23T02:30:38.001Z</time></trkpt><trkpt lat="-20.72210448333372" lon="117.02764226225437"><ele>16.0</ele><time>2026-04-23T02:30:39.001Z</time></trkpt><trkpt lat="-20.722010953176387" lon="117.0277982634227"><ele>16.333333333333332</ele><time>2026-04-23T02:30:40.001Z</time></trkpt><trkpt lat="-20.721916801703316" lon="117.0279578743722"><ele>16.666666666666668</ele><time>2026-04-23T02:30:41.001Z</time></trkpt><trkpt lat="-20.72182582576991" lon="117.0281151628344"><ele>17.0</ele><time>2026-04-23T02:30:42.001Z</time></trkpt><trkpt lat="-20.72173396219447" lon="117.02827300018043"><ele>17.333333333333336</ele><time>2026-04-23T02:30:43.001Z</time></trkpt><trkpt lat="-20.721640710771776" lon="117.02842535515468"><ele>17.666666666666668</ele><time>2026-04-23T02:30:44.001Z</time></trkpt><trkpt lat="-20.72154769113509" lon="117.02857640779031"><ele>18.0</ele><time>2026-04-23T02:30:45.001Z</time></trkpt><trkpt lat="-20.721452159346093" lon="117.02872511635809"><ele>18.0</ele><time>2026-04-23T02:30:46.001Z</time></trkpt><trkpt lat="-20.721353792203963" lon="117.02888413687768"><ele>18.0</ele><time>2026-04-23T02:30:47.001Z</time></trkpt><trkpt lat="-20.721260733667922" lon="117.02903412638946"><ele>18.0</ele><time>2026-04-23T02:30:48.001Z</time></trkpt><trkpt lat="-20.721181294002836" lon="117.02918593794278"><ele>18.0</ele><time>2026-04-23T02:30:49.001Z</time></trkpt><trkpt lat="-20.721097239165168" lon="117.02933398634126"><ele>18.0</ele><time>2026-04-23T02:30:50.001Z</time></trkpt><trkpt lat="-20.721004277370938" lon="117.02948081532212"><ele>18.0</ele><time>2026-04-23T02:30:51.001Z</time></trkpt><trkpt lat="-20.720912631168673" lon="117.02962592737055"><ele>17.666666666666668</ele><time>2026-04-23T02:30:52.001Z</time></trkpt><trkpt lat="-20.72082375938602" lon="117.02976514952802"><ele>17.333333333333336</ele><time>2026-04-23T02:30:53.001Z</time></trkpt><trkpt lat="-20.720740610401023" lon="117.02989384790645"><ele>17.0</ele><time>2026-04-23T02:30:54.001Z</time></trkpt><trkpt lat="-20.720656023058446" lon="117.0300260248024"><ele>17.75</ele><time>2026-04-23T02:30:55.001Z</time></trkpt><trkpt lat="-20.72057049295759" lon="117.03015896604022"><ele>18.5</ele><time>2026-04-23T02:30:56.001Z</time></trkpt><trkpt lat="-20.72048663153651" lon="117.0302885634723"><ele>19.25</ele><time>2026-04-23T02:30:57.001Z</time></trkpt><trkpt lat="-20.72041270749036" lon="117.03042746174647"><ele>20.0</ele><time>2026-04-23T02:30:58.001Z</time></trkpt><trkpt lat="-20.720329349333372" lon="117.03057297591353"><ele>20.0</ele><time>2026-04-23T02:30:59.001Z</time></trkpt><trkpt lat="-20.72024397395829" lon="117.03072149574288"><ele>20.0</ele><time>2026-04-23T02:31:00.001Z</time></trkpt><trkpt lat="-20.720157935231843" lon="117.03086613115283"><ele>20.0</ele><time>2026-04-23T02:31:01.001Z</time></trkpt><trkpt lat="-20.720067173429154" lon="117.03100851819423"><ele>20.0</ele><time>2026-04-23T02:31:02.001Z</time></trkpt><trkpt lat="-20.71999590245692" lon="117.03115788283318"><ele>20.0</ele><time>2026-04-23T02:31:03.001Z</time></trkpt><trkpt lat="-20.719901741474573" lon="117.03127372993129"><ele>20.0</ele><time>2026-04-23T02:31:04.001Z</time></trkpt><trkpt lat="-20.71982685020212" lon="117.03138689709894"><ele>20.0</ele><time>2026-04-23T02:31:05.001Z</time></trkpt><trkpt lat="-20.719759406692738" lon="117.03148305071191"><ele>20.0</ele><time>2026-04-23T02:31:06.001Z</time></trkpt><trkpt lat="-20.71969637716222" lon="117.03156742950596"><ele>20.0</ele><time>2026-04-23T02:31:07.001Z</time></trkpt><trkpt lat="-20.71961046584754" lon="117.03162155161871"><ele>20.0</ele><time>2026-04-23T02:31:08.001Z</time></trkpt><trkpt lat="-20.719517214797236" lon="117.03166768557554"><ele>20.0</ele><time>2026-04-23T02:31:09.001Z</time></trkpt><trkpt lat="-20.719407414971492" lon="117.03171652278066"><ele>20.0</ele><time>2026-04-23T02:31:10.001Z</time></trkpt><trkpt lat="-20.719292125543245" lon="117.03177809418722"><ele>19.5</ele><time>2026-04-23T02:31:11.001Z</time></trkpt><trkpt lat="-20.719181168901308" lon="117.03181231408787"><ele>19.0</ele><time>2026-04-23T02:31:12.001Z</time></trkpt><trkpt lat="-20.719076881842984" lon="117.031869409468"><ele>18.5</ele><time>2026-04-23T02:31:13.001Z</time></trkpt><trkpt lat="-20.718955164745445" lon="117.03194523113977"><ele>18.0</ele><time>2026-04-23T02:31:14.001Z</time></trkpt><trkpt lat="-20.71881855926965" lon="117.03201032752709"><ele>18.0</ele><time>2026-04-23T02:31:15.001Z</time></trkpt><trkpt lat="-20.71866618740662" lon="117.03207219458723"><ele>18.0</ele><time>2026-04-23T02:31:16.001Z</time></trkpt><trkpt lat="-20.718522226469908" lon="117.03213590843994"><ele>18.0</ele><time>2026-04-23T02:31:17.001Z</time></trkpt><trkpt lat="-20.71838094918749" lon="117.0321979244219"><ele>18.0</ele><time>2026-04-23T02:31:18.001Z</time></trkpt><trkpt lat="-20.718235119797427" lon="117.03226500291046"><ele>18.0</ele><time>2026-04-23T02:31:19.001Z</time></trkpt><trkpt lat="-20.71809449490572" lon="117.0323315269325"><ele>18.0</ele><time>2026-04-23T02:31:20.001Z</time></trkpt><trkpt lat="-20.71795097591291" lon="117.03239974700116"><ele>18.0</ele><time>2026-04-23T02:31:21.001Z</time></trkpt><trkpt lat="-20.717798378829524" lon="117.03245802812589"><ele>18.0</ele><time>2026-04-23T02:31:22.001Z</time></trkpt><trkpt lat="-20.71765649183847" lon="117.03252458974737"><ele>18.0</ele><time>2026-04-23T02:31:23.001Z</time></trkpt><trkpt lat="-20.717502890196876" lon="117.03261451100055"><ele>19.0</ele><time>2026-04-23T02:31:24.001Z</time></trkpt><trkpt lat="-20.717347256641474" lon="117.03267985900938"><ele>20.0</ele><time>2026-04-23T02:31:25.001Z</time></trkpt><trkpt lat="-20.7171979458348" lon="117.03274689670396"><ele>21.0</ele><time>2026-04-23T02:31:26.001Z</time></trkpt><trkpt lat="-20.717038742023124" lon="117.03281659652099"><ele>22.0</ele><time>2026-04-23T02:31:27.001Z</time></trkpt><trkpt lat="-20.71687739808977" lon="117.0328867000302"><ele>23.0</ele><time>2026-04-23T02:31:28.001Z</time></trkpt><trkpt lat="-20.716705260773836" lon="117.03297390282403"><ele>24.0</ele><time>2026-04-23T02:31:29.001Z</time></trkpt><trkpt lat="-20.716539460388642" lon="117.03305834325228"><ele>24.0</ele><time>2026-04-23T02:31:30.001Z</time></trkpt><trkpt lat="-20.71637485181795" lon="117.03313433206019"><ele>24.0</ele><time>2026-04-23T02:31:31.001Z</time></trkpt><trkpt lat="-20.716211788849616" lon="117.0332061789906"><ele>24.0</ele><time>2026-04-23T02:31:32.001Z</time></trkpt><trkpt lat="-20.71605238521328" lon="117.03327853464825"><ele>23.0</ele><time>2026-04-23T02:31:33.001Z</time></trkpt><trkpt lat="-20.71588295066759" lon="117.03335623057443"><ele>22.0</ele><time>2026-04-23T02:31:34.001Z</time></trkpt><trkpt lat="-20.715718925275638" lon="117.0334351696543"><ele>21.0</ele><time>2026-04-23T02:31:35.001Z</time></trkpt><trkpt lat="-20.715537135165917" lon="117.03352121663801"><ele>21.0</ele><time>2026-04-23T02:31:36.001Z</time></trkpt><trkpt lat="-20.715362921053448" lon="117.0336010080464"><ele>21.0</ele><time>2026-04-23T02:31:37.001Z</time></trkpt><trkpt lat="-20.715207860435957" lon="117.03367685745147"><ele>21.0</ele><time>2026-04-23T02:31:38.001Z</time></trkpt><trkpt lat="-20.715046033529923" lon="117.03375301613858"><ele>21.666666666666668</ele><time>2026-04-23T02:31:39.001Z</time></trkpt><trkpt lat="-20.714874873353775" lon="117.03383024307344"><ele>22.333333333333336</ele><time>2026-04-23T02:31:40.001Z</time></trkpt><trkpt lat="-20.714727128930534" lon="117.03390767986906"><ele>23.0</ele><time>2026-04-23T02:31:41.001Z</time></trkpt><trkpt lat="-20.714560565361452" lon="117.03398039249475"><ele>23.0</ele><time>2026-04-23T02:31:42.001Z</time></trkpt><trkpt lat="-20.71441021167322" lon="117.03405338419105"><ele>23.0</ele><time>2026-04-23T02:31:43.001Z</time></trkpt><trkpt lat="-20.714259913215052" lon="117.03412046534191"><ele>23.0</ele><time>2026-04-23T02:31:44.001Z</time></trkpt><trkpt lat="-20.71411978409637" lon="117.03418697625501"><ele>23.0</ele><time>2026-04-23T02:31:45.001Z</time></trkpt><trkpt lat="-20.713966394045016" lon="117.0342559339051"><ele>23.0</ele><time>2026-04-23T02:31:46.001Z</time></trkpt><trkpt lat="-20.713821741330296" lon="117.03432116786284"><ele>23.0</ele><time>2026-04-23T02:31:47.001Z</time></trkpt><trkpt lat="-20.71367394512352" lon="117.03439075054528"><ele>23.333333333333336</ele><time>2026-04-23T02:31:48.001Z</time></trkpt><trkpt lat="-20.713509487000877" lon="117.0344675631138"><ele>23.666666666666668</ele><time>2026-04-23T02:31:49.001Z</time></trkpt><trkpt lat="-20.713344897148758" lon="117.0345472088316"><ele>24.0</ele><time>2026-04-23T02:31:50.001Z</time></trkpt><trkpt lat="-20.713172439296173" lon="117.03462133872665"><ele>24.0</ele><time>2026-04-23T02:31:51.001Z</time></trkpt><trkpt lat="-20.71300604355113" lon="117.03469396088619"><ele>24.0</ele><time>2026-04-23T02:31:52.001Z</time></trkpt><trkpt lat="-20.712847940744567" lon="117.03476171379944"><ele>24.0</ele><time>2026-04-23T02:31:53.001Z</time></trkpt><trkpt lat="-20.712703401658487" lon="117.03482574016077"><ele>24.0</ele><time>2026-04-23T02:31:54.001Z</time></trkpt><trkpt lat="-20.712574597484476" lon="117.03488746932533"><ele>24.0</ele><time>2026-04-23T02:31:55.001Z</time></trkpt><trkpt lat="-20.712453366700647" lon="117.03494878191252"><ele>24.0</ele><time>2026-04-23T02:31:56.001Z</time></trkpt><trkpt lat="-20.712335017181708" lon="117.03501894725551"><ele>24.0</ele><time>2026-04-23T02:31:57.001Z</time></trkpt><trkpt lat="-20.712208602049778" lon="117.03511220693117"><ele>24.0</ele><time>2026-04-23T02:31:58.001Z</time></trkpt><trkpt lat="-20.712074225114993" lon="117.03521816324825"><ele>24.0</ele><time>2026-04-23T02:31:59.001Z</time></trkpt><trkpt lat="-20.711932872562887" lon="117.03531981214338"><ele>24.0</ele><time>2026-04-23T02:32:00.001Z</time></trkpt><trkpt lat="-20.711789816386887" lon="117.03541436171406"><ele>23.333333333333332</ele><time>2026-04-23T02:32:01.001Z</time></trkpt><trkpt lat="-20.711643527025092" lon="117.03550603640464"><ele>22.666666666666664</ele><time>2026-04-23T02:32:02.001Z</time></trkpt><trkpt lat="-20.711497033267804" lon="117.03560785968583"><ele>22.0</ele><time>2026-04-23T02:32:03.001Z</time></trkpt><trkpt lat="-20.7113517407762" lon="117.03570030501444"><ele>22.0</ele><time>2026-04-23T02:32:04.001Z</time></trkpt><trkpt lat="-20.711205940214164" lon="117.0357934735017"><ele>22.0</ele><time>2026-04-23T02:32:05.001Z</time></trkpt><trkpt lat="-20.711066305863497" lon="117.03589097780676"><ele>22.0</ele><time>2026-04-23T02:32:06.001Z</time></trkpt><trkpt lat="-20.71092056338999" lon="117.03598966261724"><ele>22.666666666666664</ele><time>2026-04-23T02:32:07.001Z</time></trkpt><trkpt lat="-20.710773533954846" lon="117.03609257295936"><ele>23.333333333333332</ele><time>2026-04-23T02:32:08.001Z</time></trkpt><trkpt lat="-20.710625526669595" lon="117.03619786030215"><ele>24.0</ele><time>2026-04-23T02:32:09.001Z</time></trkpt><trkpt lat="-20.710474690966794" lon="117.03630378816224"><ele>24.0</ele><time>2026-04-23T02:32:10.001Z</time></trkpt><trkpt lat="-20.710319900569424" lon="117.03641572531188"><ele>24.0</ele><time>2026-04-23T02:32:11.001Z</time></trkpt><trkpt lat="-20.71015878300182" lon="117.03652647729368"><ele>24.0</ele><time>2026-04-23T02:32:12.001Z</time></trkpt><trkpt lat="-20.70999624077016" lon="117.03663446768611"><ele>24.0</ele><time>2026-04-23T02:32:13.001Z</time></trkpt><trkpt lat="-20.70983013528117" lon="117.03674396349827"><ele>24.0</ele><time>2026-04-23T02:32:14.001Z</time></trkpt><trkpt lat="-20.709656322786856" lon="117.03685195961567"><ele>24.0</ele><time>2026-04-23T02:32:15.001Z</time></trkpt><trkpt lat="-20.709490994871402" lon="117.03695911664036"><ele>24.25</ele><time>2026-04-23T02:32:16.001Z</time></trkpt><trkpt lat="-20.709345219651606" lon="117.03705514286919"><ele>24.5</ele><time>2026-04-23T02:32:17.001Z</time></trkpt><trkpt lat="-20.709215078187142" lon="117.03713002665152"><ele>24.75</ele><time>2026-04-23T02:32:18.001Z</time></trkpt><trkpt lat="-20.709113797551613" lon="117.03721322629195"><ele>25.0</ele><time>2026-04-23T02:32:19.001Z</time></trkpt><trkpt lat="-20.709000596813105" lon="117.03729253440576"><ele>25.0</ele><time>2026-04-23T02:32:20.001Z</time></trkpt><trkpt lat="-20.70889215137447" lon="117.0373687598333"><ele>25.0</ele><time>2026-04-23T02:32:21.001Z</time></trkpt><trkpt lat="-20.70877011304976" lon="117.03744748981934"><ele>25.0</ele><time>2026-04-23T02:32:22.001Z</time></trkpt><trkpt lat="-20.708661519390876" lon="117.03754315302811"><ele>25.0</ele><time>2026-04-23T02:32:23.001Z</time></trkpt><trkpt lat="-20.70855284731365" lon="117.03762927747715"><ele>24.0</ele><time>2026-04-23T02:32:24.001Z</time></trkpt><trkpt lat="-20.708433917198995" lon="117.03772660314554"><ele>23.0</ele><time>2026-04-23T02:32:25.001Z</time></trkpt><trkpt lat="-20.70831421338825" lon="117.03782051708951"><ele>22.0</ele><time>2026-04-23T02:32:26.001Z</time></trkpt><trkpt lat="-20.708181487683326" lon="117.03791246921313"><ele>22.0</ele><time>2026-04-23T02:32:27.001Z</time></trkpt><trkpt lat="-20.70804924250975" lon="117.03799299897578"><ele>22.0</ele><time>2026-04-23T02:32:28.001Z</time></trkpt><trkpt lat="-20.70791027048745" lon="117.0380855695691"><ele>22.0</ele><time>2026-04-23T02:32:29.001Z</time></trkpt><trkpt lat="-20.70777375729425" lon="117.03817816767804"><ele>22.0</ele><time>2026-04-23T02:32:30.001Z</time></trkpt><trkpt lat="-20.707627788131784" lon="117.03827061130566"><ele>22.0</ele><time>2026-04-23T02:32:31.001Z</time></trkpt><trkpt lat="-20.707473668045413" lon="117.03836629245905"><ele>22.0</ele><time>2026-04-23T02:32:32.001Z</time></trkpt><trkpt lat="-20.707313454403877" lon="117.03846713039302"><ele>22.0</ele><time>2026-04-23T02:32:33.001Z</time></trkpt><trkpt lat="-20.70715511303464" lon="117.03858103088808"><ele>22.0</ele><time>2026-04-23T02:32:34.001Z</time></trkpt><trkpt lat="-20.707003849244522" lon="117.03868276029336"><ele>22.0</ele><time>2026-04-23T02:32:35.001Z</time></trkpt><trkpt lat="-20.706846727716535" lon="117.03878856748871"><ele>21.333333333333332</ele><time>2026-04-23T02:32:36.001Z</time></trkpt><trkpt lat="-20.706690591747446" lon="117.03889349902984"><ele>20.666666666666668</ele><time>2026-04-23T02:32:37.001Z</time></trkpt><trkpt lat="-20.706545432303134" lon="117.03899406173575"><ele>20.0</ele><time>2026-04-23T02:32:38.001Z</time></trkpt><trkpt lat="-20.706409440969633" lon="117.03908258038103"><ele>19.666666666666668</ele><time>2026-04-23T02:32:39.001Z</time></trkpt><trkpt lat="-20.70628506395967" lon="117.03916108914221"><ele>19.333333333333332</ele><time>2026-04-23T02:32:40.001Z</time></trkpt><trkpt lat="-20.706143951515788" lon="117.03924580452832"><ele>19.0</ele><time>2026-04-23T02:32:41.001Z</time></trkpt><trkpt lat="-20.706011117599008" lon="117.03933701327331"><ele>19.0</ele><time>2026-04-23T02:32:42.001Z</time></trkpt><trkpt lat="-20.705888451418694" lon="117.0394296155606"><ele>19.0</ele><time>2026-04-23T02:32:43.001Z</time></trkpt><trkpt lat="-20.7057572430108" lon="117.03953121871939"><ele>19.0</ele><time>2026-04-23T02:32:44.001Z</time></trkpt><trkpt lat="-20.705629803140575" lon="117.03962637366875"><ele>19.0</ele><time>2026-04-23T02:32:45.001Z</time></trkpt><trkpt lat="-20.705508317470606" lon="117.0397200115082"><ele>19.0</ele><time>2026-04-23T02:32:46.001Z</time></trkpt><trkpt lat="-20.705382314907805" lon="117.03980842605897"><ele>19.0</ele><time>2026-04-23T02:32:47.001Z</time></trkpt><trkpt lat="-20.705249930691235" lon="117.03989484585588"><ele>19.0</ele><time>2026-04-23T02:32:48.001Z</time></trkpt><trkpt lat="-20.705114873648757" lon="117.03998046590092"><ele>19.0</ele><time>2026-04-23T02:32:49.001Z</time></trkpt><trkpt lat="-20.70497805905955" lon="117.04006819043397"><ele>19.0</ele><time>2026-04-23T02:32:50.001Z</time></trkpt><trkpt lat="-20.70484081702024" lon="117.04015948638818"><ele>19.0</ele><time>2026-04-23T02:32:51.001Z</time></trkpt><trkpt lat="-20.70470744373625" lon="117.04024585679014"><ele>19.0</ele><time>2026-04-23T02:32:52.001Z</time></trkpt><trkpt lat="-20.704576703129206" lon="117.04033412147719"><ele>19.0</ele><time>2026-04-23T02:32:53.001Z</time></trkpt><trkpt lat="-20.704437412054027" lon="117.04042951049756"><ele>18.666666666666664</ele><time>2026-04-23T02:32:54.001Z</time></trkpt><trkpt lat="-20.704297014452457" lon="117.04052795718518"><ele>18.333333333333332</ele><time>2026-04-23T02:32:55.001Z</time></trkpt><trkpt lat="-20.704161660037503" lon="117.04062728168682"><ele>18.0</ele><time>2026-04-23T02:32:56.001Z</time></trkpt><trkpt lat="-20.70402940360749" lon="117.04071928879988"><ele>17.666666666666668</ele><time>2026-04-23T02:32:57.001Z</time></trkpt><trkpt lat="-20.70389647354427" lon="117.04080948824958"><ele>17.333333333333336</ele><time>2026-04-23T02:32:58.001Z</time></trkpt><trkpt lat="-20.703767793008584" lon="117.04089961162552"><ele>17.0</ele><time>2026-04-23T02:32:59.001Z</time></trkpt><trkpt lat="-20.70365291957464" lon="117.0409819425398"><ele>17.0</ele><time>2026-04-23T02:33:00.001Z</time></trkpt><trkpt lat="-20.703550165017855" lon="117.0410566887678"><ele>17.0</ele><time>2026-04-23T02:33:01.001Z</time></trkpt><trkpt lat="-20.703460223858343" lon="117.04112278810194"><ele>17.0</ele><time>2026-04-23T02:33:02.001Z</time></trkpt><trkpt lat="-20.703384589518798" lon="117.04118674245963"><ele>17.0</ele><time>2026-04-23T02:33:03.001Z</time></trkpt><trkpt lat="-20.703333811372655" lon="117.04125146160938"><ele>17.0</ele><time>2026-04-23T02:33:04.001Z</time></trkpt><trkpt lat="-20.70329695285362" lon="117.04133393052221"><ele>17.0</ele><time>2026-04-23T02:33:05.001Z</time></trkpt><trkpt lat="-20.703269993381543" lon="117.04143422518543"><ele>17.0</ele><time>2026-04-23T02:33:06.001Z</time></trkpt><trkpt lat="-20.703250478935896" lon="117.04155047386631"><ele>17.0</ele><time>2026-04-23T02:33:07.001Z</time></trkpt><trkpt lat="-20.703232025929132" lon="117.041674050099"><ele>17.0</ele><time>2026-04-23T02:33:08.001Z</time></trkpt><trkpt lat="-20.703201101476886" lon="117.04179570757492"><ele>17.0</ele><time>2026-04-23T02:33:09.001Z</time></trkpt><trkpt lat="-20.70316113632162" lon="117.04192458114255"><ele>16.75</ele><time>2026-04-23T02:33:10.001Z</time></trkpt><trkpt lat="-20.70311452712631" lon="117.04206293171373"><ele>16.5</ele><time>2026-04-23T02:33:11.001Z</time></trkpt><trkpt lat="-20.7030746682434" lon="117.04219925217708"><ele>16.25</ele><time>2026-04-23T02:33:12.001Z</time></trkpt><trkpt lat="-20.703033072228425" lon="117.04233774608055"><ele>16.0</ele><time>2026-04-23T02:33:13.001Z</time></trkpt><trkpt lat="-20.702985060795495" lon="117.0424801138776"><ele>16.0</ele><time>2026-04-23T02:33:14.001Z</time></trkpt><trkpt lat="-20.702937693918045" lon="117.04261885765534"><ele>16.0</ele><time>2026-04-23T02:33:15.001Z</time></trkpt><trkpt lat="-20.70289793202557" lon="117.04274395838286"><ele>16.0</ele><time>2026-04-23T02:33:16.001Z</time></trkpt><trkpt lat="-20.702867464106436" lon="117.04285894567275"><ele>16.0</ele><time>2026-04-23T02:33:17.001Z</time></trkpt><trkpt lat="-20.70283675787784" lon="117.0429750570258"><ele>16.0</ele><time>2026-04-23T02:33:18.001Z</time></trkpt><trkpt lat="-20.70279607971751" lon="117.04310302817068"><ele>16.0</ele><time>2026-04-23T02:33:19.001Z</time></trkpt><trkpt lat="-20.70275538828509" lon="117.04323844700193"><ele>16.0</ele><time>2026-04-23T02:33:20.001Z</time></trkpt><trkpt lat="-20.702713458222537" lon="117.04336152906119"><ele>16.0</ele><time>2026-04-23T02:33:21.001Z</time></trkpt><trkpt lat="-20.702685595785358" lon="117.04347289339057"><ele>15.5</ele><time>2026-04-23T02:33:22.001Z</time></trkpt><trkpt lat="-20.702657368483795" lon="117.04358658906504"><ele>15.0</ele><time>2026-04-23T02:33:23.001Z</time></trkpt><trkpt lat="-20.702618372529688" lon="117.04371525815247"><ele>14.5</ele><time>2026-04-23T02:33:24.001Z</time></trkpt><trkpt lat="-20.702568746471997" lon="117.0438592235983"><ele>14.0</ele><time>2026-04-23T02:33:25.001Z</time></trkpt><trkpt lat="-20.702526182147828" lon="117.04400632705887"><ele>14.5</ele><time>2026-04-23T02:33:26.001Z</time></trkpt><trkpt lat="-20.70248128265222" lon="117.04413135237736"><ele>15.0</ele><time>2026-04-23T02:33:27.001Z</time></trkpt><trkpt lat="-20.70243564307431" lon="117.0442361877264"><ele>15.5</ele><time>2026-04-23T02:33:28.001Z</time></trkpt><trkpt lat="-20.702354447505574" lon="117.04431867251348"><ele>16.0</ele><time>2026-04-23T02:33:29.001Z</time></trkpt><trkpt lat="-20.70230722942746" lon="117.0444349828825"><ele>16.0</ele><time>2026-04-23T02:33:30.001Z</time></trkpt><trkpt lat="-20.7022420266704" lon="117.0445485460355"><ele>16.0</ele><time>2026-04-23T02:33:31.001Z</time></trkpt><trkpt lat="-20.702199994107307" lon="117.0446668812144"><ele>16.0</ele><time>2026-04-23T02:33:32.001Z</time></trkpt><trkpt lat="-20.702170963560892" lon="117.0448054912343"><ele>16.0</ele><time>2026-04-23T02:33:33.001Z</time></trkpt><trkpt lat="-20.702135325003013" lon="117.04496424781297"><ele>16.0</ele><time>2026-04-23T02:33:34.001Z</time></trkpt><trkpt lat="-20.70209856808596" lon="117.04511628810853"><ele>16.0</ele><time>2026-04-23T02:33:35.001Z</time></trkpt><trkpt lat="-20.702065373805347" lon="117.04526305868728"><ele>16.0</ele><time>2026-04-23T02:33:36.001Z</time></trkpt><trkpt lat="-20.702044017565512" lon="117.04540513035987"><ele>16.0</ele><time>2026-04-23T02:33:37.001Z</time></trkpt><trkpt lat="-20.70202309609693" lon="117.04551890298411"><ele>16.0</ele><time>2026-04-23T02:33:38.001Z</time></trkpt><trkpt lat="-20.701989220569295" lon="117.04565841960033"><ele>16.0</ele><time>2026-04-23T02:33:39.001Z</time></trkpt><trkpt lat="-20.701951370139483" lon="117.04580285402555"><ele>16.0</ele><time>2026-04-23T02:33:40.001Z</time></trkpt><trkpt lat="-20.70190210142628" lon="117.04594927107189"><ele>16.0</ele><time>2026-04-23T02:33:41.001Z</time></trkpt><trkpt lat="-20.701853180496016" lon="117.0460749468648"><ele>15.8</ele><time>2026-04-23T02:33:42.001Z</time></trkpt><trkpt lat="-20.701821413788903" lon="117.04619111861781"><ele>15.600000000000001</ele><time>2026-04-23T02:33:43.001Z</time></trkpt><trkpt lat="-20.701797426839267" lon="117.04629883329659"><ele>15.4</ele><time>2026-04-23T02:33:44.001Z</time></trkpt><trkpt lat="-20.701778989000225" lon="117.04640416909473"><ele>15.2</ele><time>2026-04-23T02:33:45.001Z</time></trkpt><trkpt lat="-20.70176132259468" lon="117.04650352195722"><ele>15.0</ele><time>2026-04-23T02:33:46.001Z</time></trkpt><trkpt lat="-20.70173552299859" lon="117.04659631684034"><ele>14.833333333333334</ele><time>2026-04-23T02:33:47.001Z</time></trkpt><trkpt lat="-20.701703994697713" lon="117.04667860688394"><ele>14.666666666666668</ele><time>2026-04-23T02:33:48.001Z</time></trkpt><trkpt lat="-20.70167523754378" lon="117.04675629643744"><ele>14.5</ele><time>2026-04-23T02:33:49.001Z</time></trkpt><trkpt lat="-20.70165452480461" lon="117.04682985690364"><ele>14.333333333333334</ele><time>2026-04-23T02:33:50.001Z</time></trkpt><trkpt lat="-20.70163161175975" lon="117.04691172655423"><ele>14.166666666666668</ele><time>2026-04-23T02:33:51.001Z</time></trkpt><trkpt lat="-20.701603408195467" lon="117.04701231517868"><ele>14.0</ele><time>2026-04-23T02:33:52.001Z</time></trkpt><trkpt lat="-20.701560546580605" lon="117.04712410213736"><ele>14.000000000000002</ele><time>2026-04-23T02:33:53.001Z</time></trkpt><trkpt lat="-20.70151786619155" lon="117.04722920849834"><ele>14.0</ele><time>2026-04-23T02:33:54.001Z</time></trkpt><trkpt lat="-20.7014842524714" lon="117.04731675835706"><ele>14.0</ele><time>2026-04-23T02:33:55.001Z</time></trkpt><trkpt lat="-20.701457787462573" lon="117.04739471936544"><ele>14.0</ele><time>2026-04-23T02:33:56.001Z</time></trkpt><trkpt lat="-20.701411235354566" lon="117.04747283443675"><ele>14.000000000000002</ele><time>2026-04-23T02:33:57.001Z</time></trkpt><trkpt lat="-20.701370510409912" lon="117.04754629885048"><ele>14.0</ele><time>2026-04-23T02:33:58.001Z</time></trkpt><trkpt lat="-20.701364001401654" lon="117.04763399860083"><ele>13.75</ele><time>2026-04-23T02:33:59.001Z</time></trkpt><trkpt lat="-20.70132741132917" lon="117.0477399915691"><ele>13.5</ele><time>2026-04-23T02:34:00.001Z</time></trkpt><trkpt lat="-20.7012970235934" lon="117.0478731014802"><ele>13.25</ele><time>2026-04-23T02:34:01.001Z</time></trkpt><trkpt lat="-20.701274505144575" lon="117.04801146813014"><ele>13.0</ele><time>2026-04-23T02:34:02.001Z</time></trkpt><trkpt lat="-20.701234030897577" lon="117.04815647369352"><ele>13.0</ele><time>2026-04-23T02:34:03.001Z</time></trkpt><trkpt lat="-20.701181110906486" lon="117.04832561321872"><ele>13.0</ele><time>2026-04-23T02:34:04.001Z</time></trkpt><trkpt lat="-20.701118081189534" lon="117.04851676908895"><ele>13.0</ele><time>2026-04-23T02:34:05.001Z</time></trkpt><trkpt lat="-20.701055944153534" lon="117.04870795988819"><ele>13.333333333333332</ele><time>2026-04-23T02:34:06.001Z</time></trkpt><trkpt lat="-20.700988627608435" lon="117.04890373805478"><ele>13.666666666666668</ele><time>2026-04-23T02:34:07.001Z</time></trkpt><trkpt lat="-20.700921278096633" lon="117.04910811370132"><ele>14.0</ele><time>2026-04-23T02:34:08.001Z</time></trkpt><trkpt lat="-20.70085495476479" lon="117.04930132589136"><ele>15.0</ele><time>2026-04-23T02:34:09.001Z</time></trkpt><trkpt lat="-20.700803408880496" lon="117.0494632614303"><ele>16.0</ele><time>2026-04-23T02:34:10.001Z</time></trkpt><trkpt lat="-20.70075867771041" lon="117.0496064756393"><ele>17.0</ele><time>2026-04-23T02:34:11.001Z</time></trkpt><trkpt lat="-20.70071025442427" lon="117.04976841044859"><ele>17.0</ele><time>2026-04-23T02:34:12.001Z</time></trkpt><trkpt lat="-20.700655344736102" lon="117.04994200008711"><ele>17.0</ele><time>2026-04-23T02:34:13.001Z</time></trkpt><trkpt lat="-20.700607177329474" lon="117.05011342082689"><ele>17.0</ele><time>2026-04-23T02:34:14.001Z</time></trkpt><trkpt lat="-20.700564009661548" lon="117.0502602481449"><ele>16.5</ele><time>2026-04-23T02:34:15.001Z</time></trkpt><trkpt lat="-20.700525565390137" lon="117.05039100660733"><ele>16.0</ele><time>2026-04-23T02:34:16.001Z</time></trkpt><trkpt lat="-20.700478272968933" lon="117.05052310023943"><ele>15.5</ele><time>2026-04-23T02:34:17.001Z</time></trkpt><trkpt lat="-20.70042112783982" lon="117.05065332166764"><ele>15.0</ele><time>2026-04-23T02:34:18.001Z</time></trkpt><trkpt lat="-20.70039278536885" lon="117.05078251582862"><ele>15.333333333333332</ele><time>2026-04-23T02:34:19.001Z</time></trkpt><trkpt lat="-20.70035048881829" lon="117.05092069623987"><ele>15.666666666666666</ele><time>2026-04-23T02:34:20.001Z</time></trkpt><trkpt lat="-20.70029300106665" lon="117.05107341225326"><ele>16.0</ele><time>2026-04-23T02:34:21.001Z</time></trkpt><trkpt lat="-20.7002580047844" lon="117.05125253129954"><ele>15.75</ele><time>2026-04-23T02:34:22.001Z</time></trkpt><trkpt lat="-20.700217647761665" lon="117.05141453383686"><ele>15.5</ele><time>2026-04-23T02:34:23.001Z</time></trkpt><trkpt lat="-20.700145899461855" lon="117.05153698274557"><ele>15.25</ele><time>2026-04-23T02:34:24.001Z</time></trkpt><trkpt lat="-20.70009371809166" lon="117.0516492172471"><ele>15.0</ele><time>2026-04-23T02:34:25.001Z</time></trkpt><trkpt lat="-20.7000615710983" lon="117.05176124544802"><ele>15.0</ele><time>2026-04-23T02:34:26.001Z</time></trkpt><trkpt lat="-20.700001704340618" lon="117.05184492427261"><ele>15.0</ele><time>2026-04-23T02:34:27.001Z</time></trkpt><trkpt lat="-20.699970883309653" lon="117.05192847274598"><ele>15.0</ele><time>2026-04-23T02:34:28.001Z</time></trkpt><trkpt lat="-20.699959895553363" lon="117.05202966215244"><ele>15.0</ele><time>2026-04-23T02:34:29.001Z</time></trkpt><trkpt lat="-20.69996076869539" lon="117.05215766313609"><ele>15.0</ele><time>2026-04-23T02:34:30.001Z</time></trkpt><trkpt lat="-20.699956486201334" lon="117.05226988818477"><ele>15.0</ele><time>2026-04-23T02:34:31.001Z</time></trkpt><trkpt lat="-20.699944155924925" lon="117.05235585386255"><ele>15.0</ele><time>2026-04-23T02:34:32.001Z</time></trkpt><trkpt lat="-20.699919912104196" lon="117.05244721633737"><ele>15.0</ele><time>2026-04-23T02:34:33.001Z</time></trkpt><trkpt lat="-20.699885253028906" lon="117.05255488875456"><ele>15.0</ele><time>2026-04-23T02:34:34.001Z</time></trkpt><trkpt lat="-20.69984258975" lon="117.0526743780725"><ele>15.0</ele><time>2026-04-23T02:34:35.001Z</time></trkpt><trkpt lat="-20.69979727148059" lon="117.05280750174973"><ele>15.0</ele><time>2026-04-23T02:34:36.001Z</time></trkpt><trkpt lat="-20.699758859378473" lon="117.05293971262319"><ele>15.0</ele><time>2026-04-23T02:34:37.001Z</time></trkpt><trkpt lat="-20.699721889623234" lon="117.0530677676245"><ele>15.0</ele><time>2026-04-23T02:34:38.001Z</time></trkpt><trkpt lat="-20.699683268315493" lon="117.05320818427629"><ele>15.0</ele><time>2026-04-23T02:34:39.001Z</time></trkpt><trkpt lat="-20.699643147714536" lon="117.0533458705132"><ele>15.0</ele><time>2026-04-23T02:34:40.001Z</time></trkpt><trkpt lat="-20.699604459407603" lon="117.0534873147492"><ele>15.0</ele><time>2026-04-23T02:34:41.001Z</time></trkpt><trkpt lat="-20.69955741530886" lon="117.05364293647949"><ele>15.0</ele><time>2026-04-23T02:34:42.001Z</time></trkpt><trkpt lat="-20.699509222249088" lon="117.0538087438042"><ele>15.0</ele><time>2026-04-23T02:34:43.001Z</time></trkpt><trkpt lat="-20.699460767249196" lon="117.0539827389735"><ele>15.0</ele><time>2026-04-23T02:34:44.001Z</time></trkpt><trkpt lat="-20.699407030064446" lon="117.0541640404133"><ele>15.0</ele><time>2026-04-23T02:34:45.001Z</time></trkpt><trkpt lat="-20.699345790049822" lon="117.0543470816876"><ele>16.0</ele><time>2026-04-23T02:34:46.001Z</time></trkpt><trkpt lat="-20.69929086932097" lon="117.05452917260699"><ele>17.0</ele><time>2026-04-23T02:34:47.001Z</time></trkpt><trkpt lat="-20.69923704653741" lon="117.05470181937038"><ele>18.0</ele><time>2026-04-23T02:34:48.001Z</time></trkpt><trkpt lat="-20.6991854889155" lon="117.05487019622299"><ele>18.0</ele><time>2026-04-23T02:34:49.001Z</time></trkpt><trkpt lat="-20.69913630292242" lon="117.05504342663774"><ele>18.0</ele><time>2026-04-23T02:34:50.001Z</time></trkpt><trkpt lat="-20.69908618050827" lon="117.05522121420132"><ele>18.0</ele><time>2026-04-23T02:34:51.001Z</time></trkpt><trkpt lat="-20.699028423686556" lon="117.05540777883533"><ele>18.0</ele><time>2026-04-23T02:34:52.001Z</time></trkpt><trkpt lat="-20.698967869783093" lon="117.05560440701095"><ele>18.0</ele><time>2026-04-23T02:34:53.001Z</time></trkpt><trkpt lat="-20.698909145186697" lon="117.05580595363716"><ele>18.0</ele><time>2026-04-23T02:34:54.001Z</time></trkpt><trkpt lat="-20.698835542353894" lon="117.05599258648864"><ele>16.333333333333332</ele><time>2026-04-23T02:34:55.001Z</time></trkpt><trkpt lat="-20.698799589380485" lon="117.05617347390728"><ele>14.666666666666666</ele><time>2026-04-23T02:34:56.001Z</time></trkpt><trkpt lat="-20.698734729243768" lon="117.05633717378853"><ele>13.0</ele><time>2026-04-23T02:34:57.001Z</time></trkpt><trkpt lat="-20.698688841261838" lon="117.0564950181798"><ele>13.666666666666666</ele><time>2026-04-23T02:34:58.001Z</time></trkpt><trkpt lat="-20.6986422085122" lon="117.0566554247254"><ele>14.333333333333332</ele><time>2026-04-23T02:34:59.001Z</time></trkpt><trkpt lat="-20.698599688555028" lon="117.0568188957843"><ele>15.0</ele><time>2026-04-23T02:35:00.001Z</time></trkpt><trkpt lat="-20.698537260503294" lon="117.05698793910342"><ele>15.25</ele><time>2026-04-23T02:35:01.001Z</time></trkpt><trkpt lat="-20.698482628222003" lon="117.05714995558574"><ele>15.5</ele><time>2026-04-23T02:35:02.001Z</time></trkpt><trkpt lat="-20.69843739391922" lon="117.05729729203293"><ele>15.75</ele><time>2026-04-23T02:35:03.001Z</time></trkpt><trkpt lat="-20.69839671570618" lon="117.0574356422428"><ele>16.0</ele><time>2026-04-23T02:35:04.001Z</time></trkpt><trkpt lat="-20.69835766171629" lon="117.05756357746016"><ele>16.0</ele><time>2026-04-23T02:35:05.001Z</time></trkpt><trkpt lat="-20.69831909290453" lon="117.0576833612982"><ele>16.0</ele><time>2026-04-23T02:35:06.001Z</time></trkpt><trkpt lat="-20.698282892945766" lon="117.05779436767382"><ele>16.0</ele><time>2026-04-23T02:35:07.001Z</time></trkpt><trkpt lat="-20.698249251887933" lon="117.05789630404685"><ele>16.0</ele><time>2026-04-23T02:35:08.001Z</time></trkpt><trkpt lat="-20.69822330265043" lon="117.05798718767295"><ele>16.0</ele><time>2026-04-23T02:35:09.001Z</time></trkpt><trkpt lat="-20.698199633910765" lon="117.05808923415053"><ele>15.999999999999998</ele><time>2026-04-23T02:35:10.001Z</time></trkpt><trkpt lat="-20.698172013665683" lon="117.0581661700655"><ele>16.0</ele><time>2026-04-23T02:35:11.001Z</time></trkpt><trkpt lat="-20.698138191154598" lon="117.05827085258264"><ele>16.0</ele><time>2026-04-23T02:35:12.001Z</time></trkpt><trkpt lat="-20.698101055264498" lon="117.05836263360617"><ele>16.0</ele><time>2026-04-23T02:35:13.001Z</time></trkpt><trkpt lat="-20.69805343008894" lon="117.05843830694481"><ele>15.999999999999998</ele><time>2026-04-23T02:35:14.001Z</time></trkpt><trkpt lat="-20.698022992725654" lon="117.05850728640549"><ele>16.0</ele><time>2026-04-23T02:35:15.001Z</time></trkpt><trkpt lat="-20.69798549228571" lon="117.05861393406093"><ele>15.666666666666666</ele><time>2026-04-23T02:35:17.001Z</time></trkpt><trkpt lat="-20.69797009588013" lon="117.05868544933936"><ele>15.333333333333332</ele><time>2026-04-23T02:35:20.001Z</time></trkpt><trkpt lat="-20.697950670819644" lon="117.05877060323618"><ele>15.0</ele><time>2026-04-23T02:35:33.001Z</time></trkpt><trkpt lat="-20.69792904663897" lon="117.05883396365215"><ele>14.666666666666668</ele><time>2026-04-23T02:35:35.001Z</time></trkpt><trkpt lat="-20.697896550507064" lon="117.05892550435645"><ele>14.333333333333334</ele><time>2026-04-23T02:35:38.001Z</time></trkpt><trkpt lat="-20.697858937911583" lon="117.05900641272622"><ele>14.0</ele><time>2026-04-23T02:35:40.001Z</time></trkpt><trkpt lat="-20.697813525987424" lon="117.05911344085149"><ele>14.000000000000002</ele><time>2026-04-23T02:35:42.001Z</time></trkpt><trkpt lat="-20.697756527342136" lon="117.05920639360997"><ele>14.0</ele><time>2026-04-23T02:35:44.001Z</time></trkpt><trkpt lat="-20.697675817794142" lon="117.05928793883702"><ele>14.0</ele><time>2026-04-23T02:35:46.001Z</time></trkpt><trkpt lat="-20.697627987926197" lon="117.05934111375446"><ele>14.0</ele><time>2026-04-23T02:35:47.001Z</time></trkpt><trkpt lat="-20.697579182581343" lon="117.05940029281689"><ele>14.000000000000002</ele><time>2026-04-23T02:35:48.001Z</time></trkpt><trkpt lat="-20.697537567852685" lon="117.05946862023127"><ele>14.0</ele><time>2026-04-23T02:35:49.001Z</time></trkpt><trkpt lat="-20.697515448441084" lon="117.05953537720167"><ele>14.000000000000002</ele><time>2026-04-23T02:35:50.001Z</time></trkpt><trkpt lat="-20.697510709490057" lon="117.05960617532035"><ele>14.0</ele><time>2026-04-23T02:35:51.001Z</time></trkpt><trkpt lat="-20.69750308027703" lon="117.05969288782693"><ele>14.0</ele><time>2026-04-23T02:35:52.001Z</time></trkpt><trkpt lat="-20.69749779817837" lon="117.05978097995332"><ele>14.0</ele><time>2026-04-23T02:35:53.001Z</time></trkpt><trkpt lat="-20.69748742797286" lon="117.05986297445159"><ele>14.000000000000002</ele><time>2026-04-23T02:35:54.001Z</time></trkpt><trkpt lat="-20.69747214456305" lon="117.05994077269283"><ele>14.0</ele><time>2026-04-23T02:35:55.001Z</time></trkpt><trkpt lat="-20.697445553349144" lon="117.06001863948346"><ele>14.0</ele><time>2026-04-23T02:35:56.001Z</time></trkpt><trkpt lat="-20.69741417131069" lon="117.06009375440827"><ele>13.999999999999998</ele><time>2026-04-23T02:35:57.001Z</time></trkpt><trkpt lat="-20.69737895525223" lon="117.06019137257289"><ele>13.999999999999998</ele><time>2026-04-23T02:35:58.001Z</time></trkpt><trkpt lat="-20.697349642103195" lon="117.06028298001752"><ele>14.0</ele><time>2026-04-23T02:35:59.001Z</time></trkpt><trkpt lat="-20.697314192057227" lon="117.06037577639212"><ele>14.0</ele><time>2026-04-23T02:36:00.001Z</time></trkpt><trkpt lat="-20.697272136979322" lon="117.06046540251316"><ele>14.000000000000002</ele><time>2026-04-23T02:36:01.001Z</time></trkpt><trkpt lat="-20.697228251261546" lon="117.06055503524144"><ele>14.0</ele><time>2026-04-23T02:36:02.001Z</time></trkpt><trkpt lat="-20.697189493803208" lon="117.0606333937308"><ele>14.0</ele><time>2026-04-23T02:36:03.001Z</time></trkpt><trkpt lat="-20.697148819203367" lon="117.06069746836197"><ele>14.0</ele><time>2026-04-23T02:36:04.001Z</time></trkpt><trkpt lat="-20.697102976340837" lon="117.06074863898293"><ele>14.000000000000002</ele><time>2026-04-23T02:36:05.001Z</time></trkpt><trkpt lat="-20.697050725768996" lon="117.0608014382278"><ele>14.0</ele><time>2026-04-23T02:36:06.001Z</time></trkpt><trkpt lat="-20.69699357551754" lon="117.06085549657425"><ele>14.500000000000002</ele><time>2026-04-23T02:36:07.001Z</time></trkpt><trkpt lat="-20.69692873612795" lon="117.06091758449092"><ele>15.0</ele><time>2026-04-23T02:36:08.001Z</time></trkpt><trkpt lat="-20.69686314407256" lon="117.06097938922096"><ele>15.5</ele><time>2026-04-23T02:36:09.001Z</time></trkpt><trkpt lat="-20.69679606377732" lon="117.06103888431703"><ele>16.0</ele><time>2026-04-23T02:36:10.001Z</time></trkpt><trkpt lat="-20.696725738206528" lon="117.06109964163977"><ele>16.5</ele><time>2026-04-23T02:36:11.001Z</time></trkpt><trkpt lat="-20.696666729729756" lon="117.06115973674964"><ele>17.0</ele><time>2026-04-23T02:36:12.001Z</time></trkpt><trkpt lat="-20.69661652832696" lon="117.06120940831747"><ele>17.0</ele><time>2026-04-23T02:36:13.001Z</time></trkpt><trkpt lat="-20.696545092556942" lon="117.06122942533096"><ele>17.0</ele><time>2026-04-23T02:36:14.001Z</time></trkpt><trkpt lat="-20.696481354262172" lon="117.06125898281748"><ele>17.0</ele><time>2026-04-23T02:36:15.001Z</time></trkpt><trkpt lat="-20.696406610719468" lon="117.06129940688648"><ele>17.0</ele><time>2026-04-23T02:36:16.001Z</time></trkpt><trkpt lat="-20.696330206804337" lon="117.06135710281683"><ele>17.0</ele><time>2026-04-23T02:36:17.001Z</time></trkpt><trkpt lat="-20.696265038075808" lon="117.06143520388564"><ele>17.0</ele><time>2026-04-23T02:36:18.001Z</time></trkpt><trkpt lat="-20.696199669755995" lon="117.06150851521109"><ele>17.0</ele><time>2026-04-23T02:36:19.001Z</time></trkpt><trkpt lat="-20.696138568582562" lon="117.06158320221107"><ele>17.0</ele><time>2026-04-23T02:36:20.001Z</time></trkpt><trkpt lat="-20.696073907371225" lon="117.06166449860946"><ele>17.0</ele><time>2026-04-23T02:36:21.001Z</time></trkpt><trkpt lat="-20.696006189999995" lon="117.06173229908153"><ele>17.0</ele><time>2026-04-23T02:36:22.001Z</time></trkpt><trkpt lat="-20.695932569145228" lon="117.06180038294366"><ele>17.0</ele><time>2026-04-23T02:36:23.001Z</time></trkpt><trkpt lat="-20.69586690881764" lon="117.06185291819389"><ele>17.0</ele><time>2026-04-23T02:36:24.001Z</time></trkpt><trkpt lat="-20.695797818808373" lon="117.0618921525827"><ele>17.0</ele><time>2026-04-23T02:36:25.001Z</time></trkpt><trkpt lat="-20.695712127356213" lon="117.06194327114244"><ele>17.0</ele><time>2026-04-23T02:36:26.001Z</time></trkpt><trkpt lat="-20.695630400053382" lon="117.06200361566717"><ele>17.0</ele><time>2026-04-23T02:36:27.001Z</time></trkpt><trkpt lat="-20.695536314386487" lon="117.06207517042048"><ele>17.0</ele><time>2026-04-23T02:36:28.001Z</time></trkpt><trkpt lat="-20.695442172421117" lon="117.06215530577671"><ele>17.0</ele><time>2026-04-23T02:36:29.001Z</time></trkpt><trkpt lat="-20.69535895769937" lon="117.06222447001585"><ele>17.0</ele><time>2026-04-23T02:36:30.001Z</time></trkpt><trkpt lat="-20.695282828390877" lon="117.06229261940778"><ele>17.0</ele><time>2026-04-23T02:36:31.001Z</time></trkpt><trkpt lat="-20.69522096656562" lon="117.06236478142753"><ele>17.0</ele><time>2026-04-23T02:36:32.001Z</time></trkpt><trkpt lat="-20.695163974059433" lon="117.06244307906101"><ele>17.0</ele><time>2026-04-23T02:36:33.001Z</time></trkpt><trkpt lat="-20.695105031855686" lon="117.06254272117995"><ele>17.8</ele><time>2026-04-23T02:36:34.001Z</time></trkpt><trkpt lat="-20.69504201143286" lon="117.06264740747092"><ele>18.6</ele><time>2026-04-23T02:36:35.001Z</time></trkpt><trkpt lat="-20.694981076917397" lon="117.06273424398998"><ele>19.400000000000002</ele><time>2026-04-23T02:36:36.001Z</time></trkpt><trkpt lat="-20.69491701451899" lon="117.06281581289457"><ele>20.2</ele><time>2026-04-23T02:36:37.001Z</time></trkpt><trkpt lat="-20.6948607646812" lon="117.06288339719822"><ele>21.0</ele><time>2026-04-23T02:36:38.001Z</time></trkpt><trkpt lat="-20.69481343188306" lon="117.06293872597246"><ele>21.0</ele><time>2026-04-23T02:36:39.001Z</time></trkpt><trkpt lat="-20.694739252578344" lon="117.06301872588054"><ele>21.0</ele><time>2026-04-23T02:36:41.001Z</time></trkpt><trkpt lat="-20.694637597651184" lon="117.06310081030179"><ele>21.0</ele><time>2026-04-23T02:36:43.001Z</time></trkpt><trkpt lat="-20.694572917346118" lon="117.06315749597492"><ele>21.0</ele><time>2026-04-23T02:36:44.001Z</time></trkpt><trkpt lat="-20.69448019113491" lon="117.06322919633662"><ele>21.0</ele><time>2026-04-23T02:36:45.001Z</time></trkpt><trkpt lat="-20.694382039248016" lon="117.06329819607342"><ele>20.6</ele><time>2026-04-23T02:36:46.001Z</time></trkpt><trkpt lat="-20.694293837695113" lon="117.06336834207487"><ele>20.200000000000003</ele><time>2026-04-23T02:36:47.001Z</time></trkpt><trkpt lat="-20.694220053891694" lon="117.0634271889173"><ele>19.799999999999997</ele><time>2026-04-23T02:36:48.001Z</time></trkpt><trkpt lat="-20.694147321957704" lon="117.06349228619678"><ele>19.4</ele><time>2026-04-23T02:36:49.001Z</time></trkpt><trkpt lat="-20.694071917998194" lon="117.06356417736653"><ele>19.0</ele><time>2026-04-23T02:36:50.001Z</time></trkpt><trkpt lat="-20.69399205789202" lon="117.06364289101379"><ele>19.0</ele><time>2026-04-23T02:36:51.001Z</time></trkpt><trkpt lat="-20.693915514557922" lon="117.06372883335578"><ele>19.0</ele><time>2026-04-23T02:36:52.001Z</time></trkpt><trkpt lat="-20.69384061208037" lon="117.06381618038736"><ele>19.0</ele><time>2026-04-23T02:36:53.001Z</time></trkpt><trkpt lat="-20.693760948371054" lon="117.06390532479593"><ele>19.0</ele><time>2026-04-23T02:36:54.001Z</time></trkpt><trkpt lat="-20.693679460631337" lon="117.06399838756901"><ele>19.0</ele><time>2026-04-23T02:36:55.001Z</time></trkpt><trkpt lat="-20.693596754234267" lon="117.06409342014331"><ele>19.0</ele><time>2026-04-23T02:36:56.001Z</time></trkpt><trkpt lat="-20.6934853656394" lon="117.06420301581484"><ele>19.0</ele><time>2026-04-23T02:36:57.001Z</time></trkpt><trkpt lat="-20.693372367177865" lon="117.06430562405177"><ele>19.0</ele><time>2026-04-23T02:36:58.001Z</time></trkpt><trkpt lat="-20.693258508783703" lon="117.06440880431802"><ele>19.5</ele><time>2026-04-23T02:36:59.001Z</time></trkpt><trkpt lat="-20.693159154232184" lon="117.06449691022023"><ele>20.0</ele><time>2026-04-23T02:37:00.001Z</time></trkpt><trkpt lat="-20.693074643197193" lon="117.06458086580398"><ele>20.5</ele><time>2026-04-23T02:37:01.001Z</time></trkpt><trkpt lat="-20.69298745091736" lon="117.06464915310279"><ele>21.0</ele><time>2026-04-23T02:37:02.001Z</time></trkpt><trkpt lat="-20.69290656305059" lon="117.06472563538347"><ele>21.0</ele><time>2026-04-23T02:37:03.001Z</time></trkpt><trkpt lat="-20.692829282158623" lon="117.06479885430613"><ele>21.0</ele><time>2026-04-23T02:37:04.001Z</time></trkpt><trkpt lat="-20.692750622946626" lon="117.06487373961657"><ele>21.0</ele><time>2026-04-23T02:37:05.001Z</time></trkpt><trkpt lat="-20.69267213560099" lon="117.06494846139134"><ele>21.0</ele><time>2026-04-23T02:37:06.001Z</time></trkpt><trkpt lat="-20.6925988909827" lon="117.0650181917675"><ele>21.0</ele><time>2026-04-23T02:37:07.001Z</time></trkpt><trkpt lat="-20.69252716294552" lon="117.06508761351442"><ele>21.25</ele><time>2026-04-23T02:37:08.001Z</time></trkpt><trkpt lat="-20.692451304843825" lon="117.06516802662397"><ele>21.5</ele><time>2026-04-23T02:37:09.001Z</time></trkpt><trkpt lat="-20.69235800261436" lon="117.06524620032792"><ele>21.75</ele><time>2026-04-23T02:37:10.001Z</time></trkpt><trkpt lat="-20.692267915082823" lon="117.06534182342418"><ele>22.0</ele><time>2026-04-23T02:37:11.001Z</time></trkpt><trkpt lat="-20.692158585455847" lon="117.06545083926616"><ele>22.0</ele><time>2026-04-23T02:37:12.001Z</time></trkpt><trkpt lat="-20.692052185596925" lon="117.06555202725885"><ele>22.0</ele><time>2026-04-23T02:37:13.001Z</time></trkpt><trkpt lat="-20.691956516729157" lon="117.0656497128211"><ele>22.0</ele><time>2026-04-23T02:37:14.001Z</time></trkpt><trkpt lat="-20.69186685131847" lon="117.06574159502657"><ele>22.0</ele><time>2026-04-23T02:37:15.001Z</time></trkpt><trkpt lat="-20.691767259495016" lon="117.0658387535033"><ele>22.75</ele><time>2026-04-23T02:37:16.001Z</time></trkpt><trkpt lat="-20.69166128788556" lon="117.06594510288794"><ele>23.5</ele><time>2026-04-23T02:37:17.001Z</time></trkpt><trkpt lat="-20.691570762601884" lon="117.06604524355065"><ele>24.25</ele><time>2026-04-23T02:37:18.001Z</time></trkpt><trkpt lat="-20.691459692499315" lon="117.06613786508252"><ele>25.0</ele><time>2026-04-23T02:37:19.001Z</time></trkpt><trkpt lat="-20.69136450515229" lon="117.06623584736981"><ele>25.0</ele><time>2026-04-23T02:37:20.001Z</time></trkpt><trkpt lat="-20.691268259061452" lon="117.06633590128742"><ele>25.0</ele><time>2026-04-23T02:37:21.001Z</time></trkpt><trkpt lat="-20.691171935969727" lon="117.06643386345748"><ele>25.0</ele><time>2026-04-23T02:37:22.001Z</time></trkpt><trkpt lat="-20.691074319556666" lon="117.0665331669443"><ele>25.0</ele><time>2026-04-23T02:37:23.001Z</time></trkpt><trkpt lat="-20.690982885401194" lon="117.06663813343091"><ele>25.25</ele><time>2026-04-23T02:37:24.001Z</time></trkpt><trkpt lat="-20.690874366440088" lon="117.0667316001673"><ele>25.5</ele><time>2026-04-23T02:37:25.001Z</time></trkpt><trkpt lat="-20.69076985660926" lon="117.06683084292287"><ele>25.75</ele><time>2026-04-23T02:37:26.001Z</time></trkpt><trkpt lat="-20.690671794776463" lon="117.06692993455384"><ele>26.0</ele><time>2026-04-23T02:37:27.001Z</time></trkpt><trkpt lat="-20.690577994707816" lon="117.06701927186839"><ele>26.0</ele><time>2026-04-23T02:37:28.001Z</time></trkpt><trkpt lat="-20.690490295920505" lon="117.06710625900718"><ele>26.0</ele><time>2026-04-23T02:37:29.001Z</time></trkpt><trkpt lat="-20.69040812678048" lon="117.06718649405636"><ele>26.0</ele><time>2026-04-23T02:37:30.001Z</time></trkpt><trkpt lat="-20.690328766157926" lon="117.06727575217784"><ele>26.0</ele><time>2026-04-23T02:37:31.001Z</time></trkpt><trkpt lat="-20.690247901200706" lon="117.06735503597024"><ele>26.200000000000003</ele><time>2026-04-23T02:37:32.001Z</time></trkpt><trkpt lat="-20.690161534917056" lon="117.06742930229997"><ele>26.400000000000002</ele><time>2026-04-23T02:37:33.001Z</time></trkpt><trkpt lat="-20.690077153801987" lon="117.06749789954671"><ele>26.6</ele><time>2026-04-23T02:37:34.001Z</time></trkpt><trkpt lat="-20.68998872216771" lon="117.06756733013765"><ele>26.8</ele><time>2026-04-23T02:37:35.001Z</time></trkpt><trkpt lat="-20.6898908126592" lon="117.06762090142539"><ele>27.0</ele><time>2026-04-23T02:37:36.001Z</time></trkpt><trkpt lat="-20.689814921165507" lon="117.06769780490116"><ele>26.25</ele><time>2026-04-23T02:37:37.001Z</time></trkpt><trkpt lat="-20.689730532226903" lon="117.06776198585378"><ele>25.5</ele><time>2026-04-23T02:37:38.001Z</time></trkpt><trkpt lat="-20.689637202757794" lon="117.06782859051502"><ele>24.75</ele><time>2026-04-23T02:37:39.001Z</time></trkpt><trkpt lat="-20.6895417318578" lon="117.06791309231389"><ele>24.0</ele><time>2026-04-23T02:37:40.001Z</time></trkpt><trkpt lat="-20.689442392877503" lon="117.068002071641"><ele>24.0</ele><time>2026-04-23T02:37:41.001Z</time></trkpt><trkpt lat="-20.689361526643566" lon="117.06808143638018"><ele>24.0</ele><time>2026-04-23T02:37:42.001Z</time></trkpt><trkpt lat="-20.689295193018882" lon="117.06816159313358"><ele>24.0</ele><time>2026-04-23T02:37:43.001Z</time></trkpt><trkpt lat="-20.6892339157668" lon="117.06825188597979"><ele>24.0</ele><time>2026-04-23T02:37:44.001Z</time></trkpt><trkpt lat="-20.689170173956104" lon="117.0683567461187"><ele>24.0</ele><time>2026-04-23T02:37:45.001Z</time></trkpt><trkpt lat="-20.68907842820391" lon="117.06844191309216"><ele>24.25</ele><time>2026-04-23T02:37:46.001Z</time></trkpt><trkpt lat="-20.688980574913938" lon="117.06854118811009"><ele>24.5</ele><time>2026-04-23T02:37:47.001Z</time></trkpt><trkpt lat="-20.68888343017078" lon="117.06862935608419"><ele>24.75</ele><time>2026-04-23T02:37:48.001Z</time></trkpt><trkpt lat="-20.688785829291422" lon="117.06871062020522"><ele>25.0</ele><time>2026-04-23T02:37:49.001Z</time></trkpt><trkpt lat="-20.688688563937255" lon="117.0687904607273"><ele>25.25</ele><time>2026-04-23T02:37:50.001Z</time></trkpt><trkpt lat="-20.688585136965028" lon="117.06887535853086"><ele>25.5</ele><time>2026-04-23T02:37:51.001Z</time></trkpt><trkpt lat="-20.688471593207993" lon="117.0689729294906"><ele>25.75</ele><time>2026-04-23T02:37:52.001Z</time></trkpt><trkpt lat="-20.688371169572683" lon="117.06907314529765"><ele>26.0</ele><time>2026-04-23T02:37:53.001Z</time></trkpt><trkpt lat="-20.688275969418868" lon="117.06915055650263"><ele>26.25</ele><time>2026-04-23T02:37:54.001Z</time></trkpt><trkpt lat="-20.688190050960905" lon="117.06923716401182"><ele>26.5</ele><time>2026-04-23T02:37:55.001Z</time></trkpt><trkpt lat="-20.688101720858693" lon="117.06935082750287"><ele>26.75</ele><time>2026-04-23T02:37:56.001Z</time></trkpt><trkpt lat="-20.688018730930096" lon="117.06946715595691"><ele>27.0</ele><time>2026-04-23T02:37:57.001Z</time></trkpt><trkpt lat="-20.68791277543616" lon="117.06958414255345"><ele>27.0</ele><time>2026-04-23T02:37:58.001Z</time></trkpt><trkpt lat="-20.687792459616524" lon="117.06969606631544"><ele>27.0</ele><time>2026-04-23T02:37:59.001Z</time></trkpt><trkpt lat="-20.687654776480937" lon="117.06981713519048"><ele>27.0</ele><time>2026-04-23T02:38:00.001Z</time></trkpt><trkpt lat="-20.687510893944438" lon="117.06993828725149"><ele>27.0</ele><time>2026-04-23T02:38:01.001Z</time></trkpt><trkpt lat="-20.68736694377966" lon="117.07006700079693"><ele>27.0</ele><time>2026-04-23T02:38:02.001Z</time></trkpt><trkpt lat="-20.687246689990378" lon="117.07018365688704"><ele>27.0</ele><time>2026-04-23T02:38:03.001Z</time></trkpt><trkpt lat="-20.687130331664957" lon="117.07030023728765"><ele>27.0</ele><time>2026-04-23T02:38:04.001Z</time></trkpt><trkpt lat="-20.68701462585678" lon="117.0704118076844"><ele>27.0</ele><time>2026-04-23T02:38:05.001Z</time></trkpt><trkpt lat="-20.686896126006488" lon="117.07053349352982"><ele>27.0</ele><time>2026-04-23T02:38:06.001Z</time></trkpt><trkpt lat="-20.686760623069173" lon="117.07064320972084"><ele>27.0</ele><time>2026-04-23T02:38:07.001Z</time></trkpt><trkpt lat="-20.686645345028545" lon="117.07074948361542"><ele>27.0</ele><time>2026-04-23T02:38:08.001Z</time></trkpt><trkpt lat="-20.686543413717555" lon="117.07084716707863"><ele>27.0</ele><time>2026-04-23T02:38:09.001Z</time></trkpt><trkpt lat="-20.686438375196726" lon="117.07095272187236"><ele>27.0</ele><time>2026-04-23T02:38:10.001Z</time></trkpt><trkpt lat="-20.68632887500672" lon="117.07106763401964"><ele>27.666666666666664</ele><time>2026-04-23T02:38:11.001Z</time></trkpt><trkpt lat="-20.68621250013438" lon="117.07119363825538"><ele>28.333333333333332</ele><time>2026-04-23T02:38:12.001Z</time></trkpt><trkpt lat="-20.686114007840068" lon="117.07132478764359"><ele>29.0</ele><time>2026-04-23T02:38:13.001Z</time></trkpt><trkpt lat="-20.686008026591182" lon="117.07144240979432"><ele>29.0</ele><time>2026-04-23T02:38:14.001Z</time></trkpt><trkpt lat="-20.685896485775995" lon="117.07156474612884"><ele>29.0</ele><time>2026-04-23T02:38:15.001Z</time></trkpt><trkpt lat="-20.685780380802875" lon="117.07169222818085"><ele>29.0</ele><time>2026-04-23T02:38:16.001Z</time></trkpt><trkpt lat="-20.685666447577365" lon="117.07181983750776"><ele>28.5</ele><time>2026-04-23T02:38:17.001Z</time></trkpt><trkpt lat="-20.685567553363274" lon="117.07193433437035"><ele>28.0</ele><time>2026-04-23T02:38:18.001Z</time></trkpt><trkpt lat="-20.685474070743588" lon="117.07204223351083"><ele>27.5</ele><time>2026-04-23T02:38:19.001Z</time></trkpt><trkpt lat="-20.68538013699336" lon="117.07214102458089"><ele>27.0</ele><time>2026-04-23T02:38:20.001Z</time></trkpt><trkpt lat="-20.685277940712012" lon="117.07223612530628"><ele>27.0</ele><time>2026-04-23T02:38:21.001Z</time></trkpt><trkpt lat="-20.685166991940086" lon="117.07233070957979"><ele>27.0</ele><time>2026-04-23T02:38:22.001Z</time></trkpt><trkpt lat="-20.685046642885784" lon="117.07239708465578"><ele>27.0</ele><time>2026-04-23T02:38:23.001Z</time></trkpt><trkpt lat="-20.684909030237684" lon="117.07247439867628"><ele>27.0</ele><time>2026-04-23T02:38:24.001Z</time></trkpt><trkpt lat="-20.684785264731598" lon="117.07257324849127"><ele>27.0</ele><time>2026-04-23T02:38:25.001Z</time></trkpt><trkpt lat="-20.68467108654855" lon="117.07269381982836"><ele>27.0</ele><time>2026-04-23T02:38:26.001Z</time></trkpt><trkpt lat="-20.684561405396217" lon="117.07279596785216"><ele>27.0</ele><time>2026-04-23T02:38:27.001Z</time></trkpt><trkpt lat="-20.684458829338347" lon="117.07289311310777"><ele>27.0</ele><time>2026-04-23T02:38:28.001Z</time></trkpt><trkpt lat="-20.684361229811323" lon="117.07299224105559"><ele>27.0</ele><time>2026-04-23T02:38:29.001Z</time></trkpt><trkpt lat="-20.684253383091807" lon="117.07310359746651"><ele>27.0</ele><time>2026-04-23T02:38:30.001Z</time></trkpt><trkpt lat="-20.684144492195838" lon="117.07321954232108"><ele>27.0</ele><time>2026-04-23T02:38:31.001Z</time></trkpt><trkpt lat="-20.684029889224487" lon="117.07331816440835"><ele>28.0</ele><time>2026-04-23T02:38:32.001Z</time></trkpt><trkpt lat="-20.68390391717386" lon="117.07344961139077"><ele>29.0</ele><time>2026-04-23T02:38:33.001Z</time></trkpt><trkpt lat="-20.68377533455113" lon="117.07357877665173"><ele>30.0</ele><time>2026-04-23T02:38:34.001Z</time></trkpt><trkpt lat="-20.683651143663457" lon="117.07370284923334"><ele>30.25</ele><time>2026-04-23T02:38:35.001Z</time></trkpt><trkpt lat="-20.68353765591953" lon="117.07381079300312"><ele>30.5</ele><time>2026-04-23T02:38:36.001Z</time></trkpt><trkpt lat="-20.683431348608913" lon="117.07392336213844"><ele>30.75</ele><time>2026-04-23T02:38:37.001Z</time></trkpt><trkpt lat="-20.683314284737577" lon="117.07401774542099"><ele>31.0</ele><time>2026-04-23T02:38:38.001Z</time></trkpt><trkpt lat="-20.68321311945299" lon="117.0741136139417"><ele>31.0</ele><time>2026-04-23T02:38:39.001Z</time></trkpt><trkpt lat="-20.683108902250847" lon="117.07421237455509"><ele>31.0</ele><time>2026-04-23T02:38:40.001Z</time></trkpt><trkpt lat="-20.682987838023784" lon="117.07432710006593"><ele>31.0</ele><time>2026-04-23T02:38:41.001Z</time></trkpt><trkpt lat="-20.68287142985146" lon="117.07443741335572"><ele>31.0</ele><time>2026-04-23T02:38:42.001Z</time></trkpt><trkpt lat="-20.682768923249306" lon="117.07453578512379"><ele>31.0</ele><time>2026-04-23T02:38:43.001Z</time></trkpt><trkpt lat="-20.6826710812554" lon="117.07464523232137"><ele>31.0</ele><time>2026-04-23T02:38:44.001Z</time></trkpt><trkpt lat="-20.682563780289755" lon="117.07474907263213"><ele>31.0</ele><time>2026-04-23T02:38:45.001Z</time></trkpt><trkpt lat="-20.682445169387986" lon="117.07487346496308"><ele>31.333333333333336</ele><time>2026-04-23T02:38:46.001Z</time></trkpt><trkpt lat="-20.68231631426943" lon="117.07500174614022"><ele>31.666666666666664</ele><time>2026-04-23T02:38:47.001Z</time></trkpt><trkpt lat="-20.682183399846483" lon="117.07513540164507"><ele>32.0</ele><time>2026-04-23T02:38:48.001Z</time></trkpt><trkpt lat="-20.682059676809523" lon="117.07525701641751"><ele>32.0</ele><time>2026-04-23T02:38:49.001Z</time></trkpt><trkpt lat="-20.681946425282813" lon="117.07537159841685"><ele>32.0</ele><time>2026-04-23T02:38:50.001Z</time></trkpt><trkpt lat="-20.681824440376463" lon="117.07549064943291"><ele>32.0</ele><time>2026-04-23T02:38:51.001Z</time></trkpt><trkpt lat="-20.68171809502483" lon="117.07559010956702"><ele>32.0</ele><time>2026-04-23T02:38:52.001Z</time></trkpt><trkpt lat="-20.681626180303738" lon="117.07567893611137"><ele>32.0</ele><time>2026-04-23T02:38:53.001Z</time></trkpt><trkpt lat="-20.681539583583735" lon="117.07577051523873"><ele>32.0</ele><time>2026-04-23T02:38:54.001Z</time></trkpt><trkpt lat="-20.68143272796273" lon="117.07586787556825"><ele>32.0</ele><time>2026-04-23T02:38:55.001Z</time></trkpt><trkpt lat="-20.681307674375766" lon="117.07598039732527"><ele>32.33333333333333</ele><time>2026-04-23T02:38:56.001Z</time></trkpt><trkpt lat="-20.68118244976404" lon="117.07609478423066"><ele>32.666666666666664</ele><time>2026-04-23T02:38:57.001Z</time></trkpt><trkpt lat="-20.681049126193276" lon="117.07620827238136"><ele>33.0</ele><time>2026-04-23T02:38:58.001Z</time></trkpt><trkpt lat="-20.680910405792638" lon="117.07633854332919"><ele>33.0</ele><time>2026-04-23T02:38:59.001Z</time></trkpt><trkpt lat="-20.680765062172682" lon="117.07648461043229"><ele>33.0</ele><time>2026-04-23T02:39:00.001Z</time></trkpt><trkpt lat="-20.68060349541846" lon="117.07661875149152"><ele>33.0</ele><time>2026-04-23T02:39:01.001Z</time></trkpt><trkpt lat="-20.680450088015263" lon="117.07676075616894"><ele>33.333333333333336</ele><time>2026-04-23T02:39:02.001Z</time></trkpt><trkpt lat="-20.680298056815204" lon="117.07690254349471"><ele>33.66666666666667</ele><time>2026-04-23T02:39:03.001Z</time></trkpt><trkpt lat="-20.680158183129844" lon="117.07703817093872"><ele>34.0</ele><time>2026-04-23T02:39:04.001Z</time></trkpt><trkpt lat="-20.680028370966994" lon="117.07716940918462"><ele>33.66666666666667</ele><time>2026-04-23T02:39:05.001Z</time></trkpt><trkpt lat="-20.679901590020727" lon="117.07730309740758"><ele>33.333333333333336</ele><time>2026-04-23T02:39:06.001Z</time></trkpt><trkpt lat="-20.679772566954938" lon="117.07744302161038"><ele>33.0</ele><time>2026-04-23T02:39:07.001Z</time></trkpt><trkpt lat="-20.67967216330649" lon="117.07757811352235"><ele>33.0</ele><time>2026-04-23T02:39:08.001Z</time></trkpt><trkpt lat="-20.679532687856042" lon="117.07771856196422"><ele>33.0</ele><time>2026-04-23T02:39:09.001Z</time></trkpt><trkpt lat="-20.679400098304317" lon="117.07785402003651"><ele>33.0</ele><time>2026-04-23T02:39:10.001Z</time></trkpt><trkpt lat="-20.679263024492872" lon="117.07799154081074"><ele>32.666666666666664</ele><time>2026-04-23T02:39:11.001Z</time></trkpt><trkpt lat="-20.679122056045205" lon="117.07813169685022"><ele>32.33333333333333</ele><time>2026-04-23T02:39:12.001Z</time></trkpt><trkpt lat="-20.678995901500695" lon="117.07825817311202"><ele>32.0</ele><time>2026-04-23T02:39:13.001Z</time></trkpt><trkpt lat="-20.67887467293375" lon="117.07837868402927"><ele>32.0</ele><time>2026-04-23T02:39:14.001Z</time></trkpt><trkpt lat="-20.6787662054562" lon="117.07848341008662"><ele>32.0</ele><time>2026-04-23T02:39:15.001Z</time></trkpt><trkpt lat="-20.678664387462103" lon="117.07858115073041"><ele>32.0</ele><time>2026-04-23T02:39:16.001Z</time></trkpt><trkpt lat="-20.67856367983681" lon="117.07866293262242"><ele>32.0</ele><time>2026-04-23T02:39:17.001Z</time></trkpt><trkpt lat="-20.678451635593415" lon="117.07874211703844"><ele>31.5</ele><time>2026-04-23T02:39:18.001Z</time></trkpt><trkpt lat="-20.6783258571878" lon="117.07882329448448"><ele>31.0</ele><time>2026-04-23T02:39:19.001Z</time></trkpt><trkpt lat="-20.678189457570824" lon="117.07888477493724"><ele>30.5</ele><time>2026-04-23T02:39:20.001Z</time></trkpt><trkpt lat="-20.678071658911993" lon="117.07894499869222"><ele>30.0</ele><time>2026-04-23T02:39:21.001Z</time></trkpt><trkpt lat="-20.677964679528774" lon="117.07900047250833"><ele>30.0</ele><time>2026-04-23T02:39:22.001Z</time></trkpt><trkpt lat="-20.67785599852494" lon="117.07905761189846"><ele>30.0</ele><time>2026-04-23T02:39:23.001Z</time></trkpt><trkpt lat="-20.677740372128262" lon="117.07912489607835"><ele>30.0</ele><time>2026-04-23T02:39:24.001Z</time></trkpt><trkpt lat="-20.677614318256584" lon="117.07917539679666"><ele>30.0</ele><time>2026-04-23T02:39:25.001Z</time></trkpt><trkpt lat="-20.67748062074543" lon="117.07924926721866"><ele>29.666666666666664</ele><time>2026-04-23T02:39:26.001Z</time></trkpt><trkpt lat="-20.677336853640302" lon="117.0793243203099"><ele>29.333333333333332</ele><time>2026-04-23T02:39:27.001Z</time></trkpt><trkpt lat="-20.67719330945806" lon="117.07939809242443"><ele>29.0</ele><time>2026-04-23T02:39:28.001Z</time></trkpt><trkpt lat="-20.677053215745325" lon="117.07946717188501"><ele>28.5</ele><time>2026-04-23T02:39:29.001Z</time></trkpt><trkpt lat="-20.676916082750104" lon="117.07952765036357"><ele>28.0</ele><time>2026-04-23T02:39:30.001Z</time></trkpt><trkpt lat="-20.67678985008189" lon="117.07959241128209"><ele>27.5</ele><time>2026-04-23T02:39:31.001Z</time></trkpt><trkpt lat="-20.676652649299935" lon="117.07964563388153"><ele>27.0</ele><time>2026-04-23T02:39:32.001Z</time></trkpt><trkpt lat="-20.676538076890665" lon="117.07971321598076"><ele>27.0</ele><time>2026-04-23T02:39:33.001Z</time></trkpt><trkpt lat="-20.676431132199248" lon="117.0797544312525"><ele>27.000000000000004</ele><time>2026-04-23T02:39:34.001Z</time></trkpt><trkpt lat="-20.67633574705607" lon="117.07980150693113"><ele>27.000000000000004</ele><time>2026-04-23T02:39:35.001Z</time></trkpt><trkpt lat="-20.67624544260357" lon="117.07985017318347"><ele>27.0</ele><time>2026-04-23T02:39:36.001Z</time></trkpt><trkpt lat="-20.676161117565652" lon="117.07990359279066"><ele>27.0</ele><time>2026-04-23T02:39:37.001Z</time></trkpt><trkpt lat="-20.676083341395206" lon="117.07996376061477"><ele>26.75</ele><time>2026-04-23T02:39:38.001Z</time></trkpt><trkpt lat="-20.67597274520867" lon="117.08001678870299"><ele>26.5</ele><time>2026-04-23T02:39:39.001Z</time></trkpt><trkpt lat="-20.67586794160134" lon="117.08007877749866"><ele>26.25</ele><time>2026-04-23T02:39:40.001Z</time></trkpt><trkpt lat="-20.675762464834417" lon="117.0801362746497"><ele>26.0</ele><time>2026-04-23T02:39:41.001Z</time></trkpt><trkpt lat="-20.67564816329186" lon="117.0801851814829"><ele>26.0</ele><time>2026-04-23T02:39:42.001Z</time></trkpt><trkpt lat="-20.675517960371717" lon="117.08023113332462"><ele>26.0</ele><time>2026-04-23T02:39:43.001Z</time></trkpt><trkpt lat="-20.67536876270688" lon="117.08028908290407"><ele>26.0</ele><time>2026-04-23T02:39:44.001Z</time></trkpt><trkpt lat="-20.67524211071561" lon="117.08036603025432"><ele>26.0</ele><time>2026-04-23T02:39:45.001Z</time></trkpt><trkpt lat="-20.675119721029823" lon="117.08043019700236"><ele>25.5</ele><time>2026-04-23T02:39:46.001Z</time></trkpt><trkpt lat="-20.67500850492523" lon="117.08048814303228"><ele>25.0</ele><time>2026-04-23T02:39:47.001Z</time></trkpt><trkpt lat="-20.674906862381548" lon="117.08055188290362"><ele>24.5</ele><time>2026-04-23T02:39:48.001Z</time></trkpt><trkpt lat="-20.674802858773134" lon="117.08062425178902"><ele>24.0</ele><time>2026-04-23T02:39:49.001Z</time></trkpt><trkpt lat="-20.674693917590375" lon="117.08067568364207"><ele>24.0</ele><time>2026-04-23T02:39:50.001Z</time></trkpt><trkpt lat="-20.67458762866866" lon="117.08073248562178"><ele>24.0</ele><time>2026-04-23T02:39:51.001Z</time></trkpt><trkpt lat="-20.67448544723057" lon="117.08078709235379"><ele>24.0</ele><time>2026-04-23T02:39:52.001Z</time></trkpt><trkpt lat="-20.674378202714845" lon="117.08084440557025"><ele>24.0</ele><time>2026-04-23T02:39:53.001Z</time></trkpt><trkpt lat="-20.674269781859515" lon="117.08090137310016"><ele>23.5</ele><time>2026-04-23T02:39:54.001Z</time></trkpt><trkpt lat="-20.674155085731947" lon="117.08096150538834"><ele>23.0</ele><time>2026-04-23T02:39:55.001Z</time></trkpt><trkpt lat="-20.67402476267724" lon="117.08102984402035"><ele>22.5</ele><time>2026-04-23T02:39:56.001Z</time></trkpt><trkpt lat="-20.673901999284908" lon="117.08109432755802"><ele>22.0</ele><time>2026-04-23T02:39:57.001Z</time></trkpt><trkpt lat="-20.67380040660701" lon="117.0811476144738"><ele>22.0</ele><time>2026-04-23T02:39:58.001Z</time></trkpt><trkpt lat="-20.673715053242066" lon="117.08119212041306"><ele>22.0</ele><time>2026-04-23T02:39:59.001Z</time></trkpt><trkpt lat="-20.67364637261269" lon="117.08122882828769"><ele>22.0</ele><time>2026-04-23T02:40:00.001Z</time></trkpt><trkpt lat="-20.673583252624397" lon="117.08126490345188"><ele>22.0</ele><time>2026-04-23T02:40:01.001Z</time></trkpt><trkpt lat="-20.67348523385434" lon="117.08132694554503"><ele>22.0</ele><time>2026-04-23T02:40:03.001Z</time></trkpt><trkpt lat="-20.673408643778806" lon="117.08134584996046"><ele>22.0</ele><time>2026-04-23T02:40:04.001Z</time></trkpt><trkpt lat="-20.673322874273165" lon="117.0813872679146"><ele>21.5</ele><time>2026-04-23T02:40:05.001Z</time></trkpt><trkpt lat="-20.673230313880964" lon="117.08143213655104"><ele>21.0</ele><time>2026-04-23T02:40:06.001Z</time></trkpt><trkpt lat="-20.67311598607136" lon="117.0815036707468"><ele>20.5</ele><time>2026-04-23T02:40:07.001Z</time></trkpt><trkpt lat="-20.672998338590205" lon="117.08156293863294"><ele>20.0</ele><time>2026-04-23T02:40:08.001Z</time></trkpt><trkpt lat="-20.67288351796997" lon="117.08160611792874"><ele>20.0</ele><time>2026-04-23T02:40:09.001Z</time></trkpt><trkpt lat="-20.672774971108886" lon="117.08166196542703"><ele>20.0</ele><time>2026-04-23T02:40:10.001Z</time></trkpt><trkpt lat="-20.672678544118114" lon="117.0817187164642"><ele>20.0</ele><time>2026-04-23T02:40:11.001Z</time></trkpt><trkpt lat="-20.672584489848408" lon="117.0817757278242"><ele>20.0</ele><time>2026-04-23T02:40:12.001Z</time></trkpt><trkpt lat="-20.67250089249933" lon="117.08182156059097"><ele>20.0</ele><time>2026-04-23T02:40:13.001Z</time></trkpt><trkpt lat="-20.672421718277644" lon="117.0818598246991"><ele>20.0</ele><time>2026-04-23T02:40:14.001Z</time></trkpt><trkpt lat="-20.67234857094269" lon="117.0818861495067"><ele>20.0</ele><time>2026-04-23T02:40:15.001Z</time></trkpt><trkpt lat="-20.67227246081763" lon="117.08190643897399"><ele>20.0</ele><time>2026-04-23T02:40:16.001Z</time></trkpt><trkpt lat="-20.672211055663606" lon="117.08194492907141"><ele>20.0</ele><time>2026-04-23T02:40:17.001Z</time></trkpt><trkpt lat="-20.67212997874747" lon="117.08195596324381"><ele>20.0</ele><time>2026-04-23T02:40:18.001Z</time></trkpt><trkpt lat="-20.67203625615415" lon="117.08198951407107"><ele>20.0</ele><time>2026-04-23T02:40:19.001Z</time></trkpt><trkpt lat="-20.671920152719128" lon="117.08203159420445"><ele>19.333333333333336</ele><time>2026-04-23T02:40:20.001Z</time></trkpt><trkpt lat="-20.671788263161968" lon="117.0820810121315"><ele>18.666666666666668</ele><time>2026-04-23T02:40:21.001Z</time></trkpt><trkpt lat="-20.67164289383549" lon="117.08215156569715"><ele>18.0</ele><time>2026-04-23T02:40:22.001Z</time></trkpt><trkpt lat="-20.6714879178636" lon="117.08220651602993"><ele>18.0</ele><time>2026-04-23T02:40:23.001Z</time></trkpt><trkpt lat="-20.6713421303684" lon="117.08227913781252"><ele>18.0</ele><time>2026-04-23T02:40:24.001Z</time></trkpt><trkpt lat="-20.67118227166197" lon="117.08235078070737"><ele>18.0</ele><time>2026-04-23T02:40:25Z</time></trkpt><trkpt lat="-20.671032600142954" lon="117.08242521400611"><ele>18.333333333333332</ele><time>2026-04-23T02:40:26Z</time></trkpt><trkpt lat="-20.67089956047012" lon="117.0825003005418"><ele>18.666666666666664</ele><time>2026-04-23T02:40:27Z</time></trkpt><trkpt lat="-20.670767325054396" lon="117.0825891158863"><ele>19.0</ele><time>2026-04-23T02:40:28Z</time></trkpt><trkpt lat="-20.6706200725792" lon="117.08269082984394"><ele>19.0</ele><time>2026-04-23T02:40:29Z</time></trkpt><trkpt lat="-20.670486145276676" lon="117.08277504023229"><ele>19.0</ele><time>2026-04-23T02:40:30Z</time></trkpt><trkpt lat="-20.670345107548062" lon="117.08286472668692"><ele>19.0</ele><time>2026-04-23T02:40:31Z</time></trkpt><trkpt lat="-20.67019960578289" lon="117.0829530877719"><ele>18.333333333333332</ele><time>2026-04-23T02:40:32Z</time></trkpt><trkpt lat="-20.670045471250024" lon="117.0830444669512"><ele>17.666666666666668</ele><time>2026-04-23T02:40:33Z</time></trkpt><trkpt lat="-20.66988801685034" lon="117.08313210889455"><ele>17.0</ele><time>2026-04-23T02:40:34Z</time></trkpt><trkpt lat="-20.669744612219482" lon="117.08321531420044"><ele>17.333333333333336</ele><time>2026-04-23T02:40:35Z</time></trkpt><trkpt lat="-20.66961458617071" lon="117.0832959169489"><ele>17.666666666666668</ele><time>2026-04-23T02:40:36Z</time></trkpt><trkpt lat="-20.669464893253117" lon="117.08336363222814"><ele>18.0</ele><time>2026-04-23T02:40:37Z</time></trkpt><trkpt lat="-20.669310477301373" lon="117.08344328304327"><ele>18.333333333333332</ele><time>2026-04-23T02:40:38Z</time></trkpt><trkpt lat="-20.66914937282042" lon="117.08353873803264"><ele>18.666666666666664</ele><time>2026-04-23T02:40:39Z</time></trkpt><trkpt lat="-20.66898555956905" lon="117.08361220149934"><ele>19.0</ele><time>2026-04-23T02:40:40Z</time></trkpt><trkpt lat="-20.668830417273313" lon="117.08368834660689"><ele>19.0</ele><time>2026-04-23T02:40:41Z</time></trkpt><trkpt lat="-20.66868517967532" lon="117.08375447197534"><ele>19.0</ele><time>2026-04-23T02:40:42Z</time></trkpt><trkpt lat="-20.668530109892263" lon="117.08381956157606"><ele>19.0</ele><time>2026-04-23T02:40:43Z</time></trkpt><trkpt lat="-20.668375649059538" lon="117.08388302145211"><ele>19.0</ele><time>2026-04-23T02:40:44Z</time></trkpt><trkpt lat="-20.668226828326915" lon="117.08394921913967"><ele>19.0</ele><time>2026-04-23T02:40:45Z</time></trkpt><trkpt lat="-20.6680786512389" lon="117.08402863259982"><ele>19.0</ele><time>2026-04-23T02:40:46Z</time></trkpt><trkpt lat="-20.667921549506996" lon="117.08412519633879"><ele>19.666666666666664</ele><time>2026-04-23T02:40:47Z</time></trkpt><trkpt lat="-20.667765363085813" lon="117.08419689780618"><ele>20.333333333333332</ele><time>2026-04-23T02:40:48Z</time></trkpt><trkpt lat="-20.667625984481834" lon="117.08426915059405"><ele>21.0</ele><time>2026-04-23T02:40:49Z</time></trkpt><trkpt lat="-20.667496644985945" lon="117.0843510456554"><ele>21.0</ele><time>2026-04-23T02:40:50Z</time></trkpt><trkpt lat="-20.667396333441445" lon="117.08443072176671"><ele>21.0</ele><time>2026-04-23T02:40:51Z</time></trkpt><trkpt lat="-20.667320542292405" lon="117.08452687580686"><ele>21.0</ele><time>2026-04-23T02:40:52Z</time></trkpt><trkpt lat="-20.66722689453027" lon="117.08461832656369"><ele>21.0</ele><time>2026-04-23T02:40:53Z</time></trkpt><trkpt lat="-20.667127499250636" lon="117.08473063635228"><ele>21.0</ele><time>2026-04-23T02:40:54Z</time></trkpt><trkpt lat="-20.66701520774837" lon="117.08486707704996"><ele>21.0</ele><time>2026-04-23T02:40:55Z</time></trkpt><trkpt lat="-20.66690788675853" lon="117.08497360498573"><ele>21.0</ele><time>2026-04-23T02:40:56Z</time></trkpt><trkpt lat="-20.666824244158267" lon="117.0850647646461"><ele>21.0</ele><time>2026-04-23T02:40:57Z</time></trkpt><trkpt lat="-20.666737138547823" lon="117.0851465823011"><ele>20.0</ele><time>2026-04-23T02:40:58Z</time></trkpt><trkpt lat="-20.666637459639823" lon="117.08523186816548"><ele>19.0</ele><time>2026-04-23T02:40:59Z</time></trkpt><trkpt lat="-20.666559249854064" lon="117.08532516129605"><ele>18.0</ele><time>2026-04-23T02:41:00Z</time></trkpt><trkpt lat="-20.666474214823495" lon="117.08539776950644"><ele>17.0</ele><time>2026-04-23T02:41:01Z</time></trkpt><trkpt lat="-20.66638491377334" lon="117.08550943313554"><ele>17.0</ele><time>2026-04-23T02:41:02Z</time></trkpt><trkpt lat="-20.66631960631462" lon="117.08559431420845"><ele>17.0</ele><time>2026-04-23T02:41:03Z</time></trkpt><trkpt lat="-20.66626736792273" lon="117.08568850365508"><ele>17.0</ele><time>2026-04-23T02:41:04Z</time></trkpt><trkpt lat="-20.666229750809126" lon="117.08575993652907"><ele>17.0</ele><time>2026-04-23T02:41:05Z</time></trkpt><trkpt lat="-20.66620609429984" lon="117.08585107537769"><ele>17.0</ele><time>2026-04-23T02:41:06Z</time></trkpt><trkpt lat="-20.666190493997195" lon="117.0859461225865"><ele>16.8</ele><time>2026-04-23T02:41:07Z</time></trkpt><trkpt lat="-20.66615393379122" lon="117.08602975545962"><ele>16.6</ele><time>2026-04-23T02:41:08Z</time></trkpt><trkpt lat="-20.666094375050456" lon="117.08611433619443"><ele>16.400000000000002</ele><time>2026-04-23T02:41:09Z</time></trkpt><trkpt lat="-20.66601469084575" lon="117.08619798593223"><ele>16.2</ele><time>2026-04-23T02:41:10Z</time></trkpt><trkpt lat="-20.66591921743544" lon="117.08629141739235"><ele>16.0</ele><time>2026-04-23T02:41:11Z</time></trkpt><trkpt lat="-20.66582393164398" lon="117.08639915692733"><ele>15.5</ele><time>2026-04-23T02:41:12Z</time></trkpt><trkpt lat="-20.665728370347843" lon="117.08652088053084"><ele>15.0</ele><time>2026-04-23T02:41:13.001Z</time></trkpt><trkpt lat="-20.66562640526115" lon="117.08664184229947"><ele>14.5</ele><time>2026-04-23T02:41:14.001Z</time></trkpt><trkpt lat="-20.66552435404952" lon="117.08675355613914"><ele>14.0</ele><time>2026-04-23T02:41:15.001Z</time></trkpt><trkpt lat="-20.665429366065283" lon="117.08687325542948"><ele>14.0</ele><time>2026-04-23T02:41:16.001Z</time></trkpt><trkpt lat="-20.665342653524608" lon="117.08698586556288"><ele>14.0</ele><time>2026-04-23T02:41:17.001Z</time></trkpt><trkpt lat="-20.665257361063574" lon="117.08708851285793"><ele>14.0</ele><time>2026-04-23T02:41:18.001Z</time></trkpt><trkpt lat="-20.66517660978159" lon="117.08718455360865"><ele>14.0</ele><time>2026-04-23T02:41:19.001Z</time></trkpt><trkpt lat="-20.665100580531806" lon="117.0872829620591"><ele>13.6</ele><time>2026-04-23T02:41:20.001Z</time></trkpt><trkpt lat="-20.665011776157204" lon="117.08737080435134"><ele>13.2</ele><time>2026-04-23T02:41:21.001Z</time></trkpt><trkpt lat="-20.66492393790468" lon="117.08745254480075"><ele>12.799999999999999</ele><time>2026-04-23T02:41:22.001Z</time></trkpt><trkpt lat="-20.664843652042933" lon="117.08753532659338"><ele>12.399999999999999</ele><time>2026-04-23T02:41:23.001Z</time></trkpt><trkpt lat="-20.66477275468142" lon="117.08760723814355"><ele>12.0</ele><time>2026-04-23T02:41:24.001Z</time></trkpt><trkpt lat="-20.66471020291498" lon="117.0876895399948"><ele>12.0</ele><time>2026-04-23T02:41:25.001Z</time></trkpt><trkpt lat="-20.66464097881081" lon="117.0877474877304"><ele>12.0</ele><time>2026-04-23T02:41:26.001Z</time></trkpt><trkpt lat="-20.664562436534336" lon="117.08782289333604"><ele>12.0</ele><time>2026-04-23T02:41:27.001Z</time></trkpt><trkpt lat="-20.66448274323197" lon="117.08791953694133"><ele>12.0</ele><time>2026-04-23T02:41:28.001Z</time></trkpt><trkpt lat="-20.664396816714675" lon="117.08802387024026"><ele>12.0</ele><time>2026-04-23T02:41:29.001Z</time></trkpt><trkpt lat="-20.664292820966658" lon="117.08814134050013"><ele>11.75</ele><time>2026-04-23T02:41:30.001Z</time></trkpt><trkpt lat="-20.664198489951584" lon="117.088248599186"><ele>11.5</ele><time>2026-04-23T02:41:31.001Z</time></trkpt><trkpt lat="-20.66412186213856" lon="117.08834735940202"><ele>11.25</ele><time>2026-04-23T02:41:32.001Z</time></trkpt><trkpt lat="-20.66404784539524" lon="117.08843360429303"><ele>11.0</ele><time>2026-04-23T02:41:33.001Z</time></trkpt><trkpt lat="-20.66399017393314" lon="117.08852876410366"><ele>11.0</ele><time>2026-04-23T02:41:34.001Z</time></trkpt><trkpt lat="-20.663930665181848" lon="117.08862196724903"><ele>11.0</ele><time>2026-04-23T02:41:35.001Z</time></trkpt><trkpt lat="-20.66388822185608" lon="117.08870246856222"><ele>11.0</ele><time>2026-04-23T02:41:36.001Z</time></trkpt><trkpt lat="-20.663855761973668" lon="117.08878703604785"><ele>11.0</ele><time>2026-04-23T02:41:37.001Z</time></trkpt><trkpt lat="-20.663830099217527" lon="117.08888627299606"><ele>11.0</ele><time>2026-04-23T02:41:38.001Z</time></trkpt><trkpt lat="-20.66381823366876" lon="117.08899907895875"><ele>11.0</ele><time>2026-04-23T02:41:39.001Z</time></trkpt><trkpt lat="-20.66381759990561" lon="117.08913040696112"><ele>11.0</ele><time>2026-04-23T02:41:40.001Z</time></trkpt><trkpt lat="-20.663811744114884" lon="117.08928294519852"><ele>11.0</ele><time>2026-04-23T02:41:41.001Z</time></trkpt><trkpt lat="-20.663803190945043" lon="117.08942024820287"><ele>11.0</ele><time>2026-04-23T02:41:42.001Z</time></trkpt><trkpt lat="-20.663766423720947" lon="117.08953870558942"><ele>11.0</ele><time>2026-04-23T02:41:43.001Z</time></trkpt><trkpt lat="-20.663728566086796" lon="117.0896630663148"><ele>11.0</ele><time>2026-04-23T02:41:44.001Z</time></trkpt><trkpt lat="-20.66368651868685" lon="117.0897759299338"><ele>11.0</ele><time>2026-04-23T02:41:45.001Z</time></trkpt><trkpt lat="-20.663640833624438" lon="117.08988157415251"><ele>11.0</ele><time>2026-04-23T02:41:46.001Z</time></trkpt><trkpt lat="-20.663608556645393" lon="117.08997336180737"><ele>11.0</ele><time>2026-04-23T02:41:47.001Z</time></trkpt><trkpt lat="-20.663589020733202" lon="117.09007522753717"><ele>10.8</ele><time>2026-04-23T02:41:48.001Z</time></trkpt><trkpt lat="-20.663602783693843" lon="117.09018094387636"><ele>10.600000000000001</ele><time>2026-04-23T02:41:49.001Z</time></trkpt><trkpt lat="-20.663609620123424" lon="117.09029296622178"><ele>10.4</ele><time>2026-04-23T02:41:50.001Z</time></trkpt><trkpt lat="-20.66362759631038" lon="117.09041944982592"><ele>10.2</ele><time>2026-04-23T02:41:51.001Z</time></trkpt><trkpt lat="-20.66365075436086" lon="117.09054836695924"><ele>10.0</ele><time>2026-04-23T02:41:52.001Z</time></trkpt><trkpt lat="-20.66368215923402" lon="117.09067132438261"><ele>10.5</ele><time>2026-04-23T02:41:53.001Z</time></trkpt><trkpt lat="-20.663703116068746" lon="117.09081484698956"><ele>11.0</ele><time>2026-04-23T02:41:54.001Z</time></trkpt><trkpt lat="-20.663702203623895" lon="117.09096836641054"><ele>11.5</ele><time>2026-04-23T02:41:55.001Z</time></trkpt><trkpt lat="-20.663691634534306" lon="117.09114568732114"><ele>12.0</ele><time>2026-04-23T02:41:56.001Z</time></trkpt><trkpt lat="-20.66367848881686" lon="117.09132773797104"><ele>12.0</ele><time>2026-04-23T02:41:57.001Z</time></trkpt><trkpt lat="-20.66366417323563" lon="117.09152333811433"><ele>12.0</ele><time>2026-04-23T02:41:58.001Z</time></trkpt><trkpt lat="-20.663654898623655" lon="117.09171501989634"><ele>12.0</ele><time>2026-04-23T02:41:59.001Z</time></trkpt><trkpt lat="-20.66362454997071" lon="117.09190318181592"><ele>12.333333333333332</ele><time>2026-04-23T02:42:00.001Z</time></trkpt><trkpt lat="-20.663612811099412" lon="117.09208662758877"><ele>12.666666666666666</ele><time>2026-04-23T02:42:01.001Z</time></trkpt><trkpt lat="-20.663602993404332" lon="117.09226300181547"><ele>13.0</ele><time>2026-04-23T02:42:02.001Z</time></trkpt><trkpt lat="-20.663592055782466" lon="117.09245361133459"><ele>13.333333333333332</ele><time>2026-04-23T02:42:03.001Z</time></trkpt><trkpt lat="-20.663596585124356" lon="117.09263988729137"><ele>13.666666666666668</ele><time>2026-04-23T02:42:04.001Z</time></trkpt><trkpt lat="-20.663579695018345" lon="117.09282606952578"><ele>14.0</ele><time>2026-04-23T02:42:05.001Z</time></trkpt><trkpt lat="-20.66356695716827" lon="117.0930112737374"><ele>14.0</ele><time>2026-04-23T02:42:06.001Z</time></trkpt><trkpt lat="-20.66355924357597" lon="117.09319116280162"><ele>14.0</ele><time>2026-04-23T02:42:07.001Z</time></trkpt><trkpt lat="-20.663551910137983" lon="117.09337861108536"><ele>14.0</ele><time>2026-04-23T02:42:08.001Z</time></trkpt><trkpt lat="-20.663542102702262" lon="117.09355389458932"><ele>12.75</ele><time>2026-04-23T02:42:09.001Z</time></trkpt><trkpt lat="-20.663536341952703" lon="117.09371059220598"><ele>11.5</ele><time>2026-04-23T02:42:10.001Z</time></trkpt><trkpt lat="-20.663533633195065" lon="117.09383488659456"><ele>10.25</ele><time>2026-04-23T02:42:11.001Z</time></trkpt><trkpt lat="-20.66352559364026" lon="117.09395635239949"><ele>9.0</ele><time>2026-04-23T02:42:12.001Z</time></trkpt><trkpt lat="-20.663525158223273" lon="117.09407761161607"><ele>9.000000000000002</ele><time>2026-04-23T02:42:13.001Z</time></trkpt><trkpt lat="-20.663521728715537" lon="117.09418785144625"><ele>9.0</ele><time>2026-04-23T02:42:14.001Z</time></trkpt><trkpt lat="-20.6635206037079" lon="117.09426238051842"><ele>9.0</ele><time>2026-04-23T02:42:15.001Z</time></trkpt><trkpt lat="-20.663514237277973" lon="117.09417840562901"><ele>9.0</ele><time>2026-04-23T02:42:49Z</time></trkpt><trkpt lat="-20.6635213704882" lon="117.09411055284149"><ele>9.0</ele><time>2026-04-23T02:42:50Z</time></trkpt><trkpt lat="-20.663526528220594" lon="117.09404089976667"><ele>9.000000000000002</ele><time>2026-04-23T02:42:51Z</time></trkpt><trkpt lat="-20.663528580289878" lon="117.09397072472403"><ele>9.0</ele><time>2026-04-23T02:42:52Z</time></trkpt><trkpt lat="-20.663530096386086" lon="117.09385398367652"><ele>9.0</ele><time>2026-04-23T02:42:54Z</time></trkpt><trkpt lat="-20.663522463868404" lon="117.0937649748003"><ele>9.0</ele><time>2026-04-23T02:42:56Z</time></trkpt><trkpt lat="-20.66367277466022" lon="117.0937014737128"><ele>9.0</ele><time>2026-04-23T02:42:59Z</time></trkpt><trkpt lat="-20.663785708316478" lon="117.0937197117019"><ele>9.0</ele><time>2026-04-23T02:43:01Z</time></trkpt><trkpt lat="-20.66384992120998" lon="117.09373340570463"><ele>9.0</ele><time>2026-04-23T02:43:02Z</time></trkpt><trkpt lat="-20.6639166214077" lon="117.0937437216253"><ele>9.2</ele><time>2026-04-23T02:43:03Z</time></trkpt><trkpt lat="-20.663996123150007" lon="117.09375422130356"><ele>9.4</ele><time>2026-04-23T02:43:04Z</time></trkpt><trkpt lat="-20.66408090828613" lon="117.09376012690927"><ele>9.6</ele><time>2026-04-23T02:43:05Z</time></trkpt><trkpt lat="-20.66417211476948" lon="117.09377524307124"><ele>9.8</ele><time>2026-04-23T02:43:06Z</time></trkpt><trkpt lat="-20.664271069453143" lon="117.09380188143604"><ele>10.0</ele><time>2026-04-23T02:43:07Z</time></trkpt><trkpt lat="-20.66438616535953" lon="117.09383240046958"><ele>11.0</ele><time>2026-04-23T02:43:08Z</time></trkpt><trkpt lat="-20.66452838013216" lon="117.09387688992571"><ele>12.0</ele><time>2026-04-23T02:43:09Z</time></trkpt><trkpt lat="-20.664683790805423" lon="117.09392874608673"><ele>13.0</ele><time>2026-04-23T02:43:10Z</time></trkpt><trkpt lat="-20.66484214832179" lon="117.09399195985885"><ele>13.0</ele><time>2026-04-23T02:43:11Z</time></trkpt><trkpt lat="-20.665019291355417" lon="117.09406406139746"><ele>13.0</ele><time>2026-04-23T02:43:12Z</time></trkpt><trkpt lat="-20.665204777918056" lon="117.09411912863041"><ele>13.0</ele><time>2026-04-23T02:43:13Z</time></trkpt><trkpt lat="-20.665399332661345" lon="117.09417632372313"><ele>12.666666666666666</ele><time>2026-04-23T02:43:14Z</time></trkpt><trkpt lat="-20.665603293416858" lon="117.09422501644963"><ele>12.333333333333332</ele><time>2026-04-23T02:43:15Z</time></trkpt><trkpt lat="-20.665800338570914" lon="117.0942665863998"><ele>12.0</ele><time>2026-04-23T02:43:16Z</time></trkpt><trkpt lat="-20.665974480276116" lon="117.09430496330772"><ele>12.666666666666668</ele><time>2026-04-23T02:43:17Z</time></trkpt><trkpt lat="-20.666141531185573" lon="117.09433963492543"><ele>13.333333333333334</ele><time>2026-04-23T02:43:18Z</time></trkpt><trkpt lat="-20.666281515145332" lon="117.09437243539769"><ele>14.0</ele><time>2026-04-23T02:43:19Z</time></trkpt><trkpt lat="-20.666425300671506" lon="117.09441329685232"><ele>14.0</ele><time>2026-04-23T02:43:20Z</time></trkpt><trkpt lat="-20.66658089657468" lon="117.09447447981026"><ele>14.0</ele><time>2026-04-23T02:43:21Z</time></trkpt><trkpt lat="-20.666748212991358" lon="117.0945491115709"><ele>14.0</ele><time>2026-04-23T02:43:22Z</time></trkpt><trkpt lat="-20.666899308563625" lon="117.0946155502198"><ele>16.333333333333336</ele><time>2026-04-23T02:43:23Z</time></trkpt><trkpt lat="-20.667030147517334" lon="117.09468644854527"><ele>18.666666666666668</ele><time>2026-04-23T02:43:24Z</time></trkpt><trkpt lat="-20.667166465835" lon="117.09477377820895"><ele>21.0</ele><time>2026-04-23T02:43:25.001Z</time></trkpt><trkpt lat="-20.66731737691823" lon="117.09487503119524"><ele>20.0</ele><time>2026-04-23T02:43:26.001Z</time></trkpt><trkpt lat="-20.667461865227068" lon="117.09496760092802"><ele>19.0</ele><time>2026-04-23T02:43:27.001Z</time></trkpt><trkpt lat="-20.667599498693203" lon="117.0950517841963"><ele>18.0</ele><time>2026-04-23T02:43:28.001Z</time></trkpt><trkpt lat="-20.667730439425885" lon="117.09512580552547"><ele>19.5</ele><time>2026-04-23T02:43:29.001Z</time></trkpt><trkpt lat="-20.667856271971164" lon="117.09520290364772"><ele>21.0</ele><time>2026-04-23T02:43:30.001Z</time></trkpt><trkpt lat="-20.667979724177872" lon="117.09526855095208"><ele>22.5</ele><time>2026-04-23T02:43:31.001Z</time></trkpt><trkpt lat="-20.668110928565913" lon="117.09532614908979"><ele>24.0</ele><time>2026-04-23T02:43:32.001Z</time></trkpt><trkpt lat="-20.6682510718572" lon="117.09537620618195"><ele>24.0</ele><time>2026-04-23T02:43:33.001Z</time></trkpt><trkpt lat="-20.66840380080637" lon="117.09542116887204"><ele>24.0</ele><time>2026-04-23T02:43:34.001Z</time></trkpt><trkpt lat="-20.668566497644342" lon="117.09546110848585"><ele>24.0</ele><time>2026-04-23T02:43:35.001Z</time></trkpt><trkpt lat="-20.668728045925576" lon="117.09550082167227"><ele>26.333333333333336</ele><time>2026-04-23T02:43:36.001Z</time></trkpt><trkpt lat="-20.66888301593945" lon="117.095541793718"><ele>28.666666666666668</ele><time>2026-04-23T02:43:37.001Z</time></trkpt><trkpt lat="-20.669023897561193" lon="117.0955725858161"><ele>31.0</ele><time>2026-04-23T02:43:38.001Z</time></trkpt><trkpt lat="-20.669169161741753" lon="117.0955967537008"><ele>31.0</ele><time>2026-04-23T02:43:39.001Z</time></trkpt><trkpt lat="-20.669321912997503" lon="117.09561252608583"><ele>31.0</ele><time>2026-04-23T02:43:40.001Z</time></trkpt><trkpt lat="-20.669469682749455" lon="117.09562699865728"><ele>31.0</ele><time>2026-04-23T02:43:41.001Z</time></trkpt><trkpt lat="-20.669629241692654" lon="117.0956414921044"><ele>30.75</ele><time>2026-04-23T02:43:42.001Z</time></trkpt><trkpt lat="-20.669770747013736" lon="117.09565182239679"><ele>30.5</ele><time>2026-04-23T02:43:43.001Z</time></trkpt><trkpt lat="-20.66993045247859" lon="117.09566849432763"><ele>30.25</ele><time>2026-04-23T02:43:44.001Z</time></trkpt><trkpt lat="-20.6700769763374" lon="117.09568276975547"><ele>30.0</ele><time>2026-04-23T02:43:45.001Z</time></trkpt><trkpt lat="-20.67023871213833" lon="117.09569988521278"><ele>27.666666666666668</ele><time>2026-04-23T02:43:46.001Z</time></trkpt><trkpt lat="-20.670404932725233" lon="117.0957140368881"><ele>25.333333333333336</ele><time>2026-04-23T02:43:47.001Z</time></trkpt><trkpt lat="-20.670572277493687" lon="117.09572963460205"><ele>23.0</ele><time>2026-04-23T02:43:48.001Z</time></trkpt><trkpt lat="-20.67072928434194" lon="117.09574697737722"><ele>20.75</ele><time>2026-04-23T02:43:49.001Z</time></trkpt><trkpt lat="-20.670869254542417" lon="117.09575419023403"><ele>18.5</ele><time>2026-04-23T02:43:50.001Z</time></trkpt><trkpt lat="-20.671000442022198" lon="117.09575987001192"><ele>16.25</ele><time>2026-04-23T02:43:51.001Z</time></trkpt><trkpt lat="-20.671113834912163" lon="117.09577069015094"><ele>14.0</ele><time>2026-04-23T02:43:52.001Z</time></trkpt><trkpt lat="-20.671209420593588" lon="117.09578143261342"><ele>14.000000000000002</ele><time>2026-04-23T02:43:53.001Z</time></trkpt><trkpt lat="-20.671276930413995" lon="117.0957798167243"><ele>14.0</ele><time>2026-04-23T02:43:54.001Z</time></trkpt><trkpt lat="-20.671349976724933" lon="117.09577390224926"><ele>14.0</ele><time>2026-04-23T02:43:55.001Z</time></trkpt><trkpt lat="-20.671419494183283" lon="117.09578666700779"><ele>14.0</ele><time>2026-04-23T02:43:56.001Z</time></trkpt><trkpt lat="-20.671498295892672" lon="117.09581589865253"><ele>14.000000000000002</ele><time>2026-04-23T02:43:57.001Z</time></trkpt><trkpt lat="-20.671566874149384" lon="117.09585336067799"><ele>14.0</ele><time>2026-04-23T02:43:58.001Z</time></trkpt><trkpt lat="-20.671651258778116" lon="117.09590118764167"><ele>14.000000000000002</ele><time>2026-04-23T02:43:59.001Z</time></trkpt><trkpt lat="-20.671734160371525" lon="117.09592637653718"><ele>14.0</ele><time>2026-04-23T02:44:00.001Z</time></trkpt><trkpt lat="-20.671817887393935" lon="117.0959549874034"><ele>14.0</ele><time>2026-04-23T02:44:01.001Z</time></trkpt><trkpt lat="-20.671907119311737" lon="117.09599545920457"><ele>14.0</ele><time>2026-04-23T02:44:02.001Z</time></trkpt><trkpt lat="-20.6719852508709" lon="117.09603854994045"><ele>14.000000000000002</ele><time>2026-04-23T02:44:03.001Z</time></trkpt><trkpt lat="-20.672044994775604" lon="117.09608304216943"><ele>14.0</ele><time>2026-04-23T02:44:04.001Z</time></trkpt><trkpt lat="-20.672101408613756" lon="117.09613014163064"><ele>13.6</ele><time>2026-04-23T02:44:05.001Z</time></trkpt><trkpt lat="-20.672196870006797" lon="117.0961725802735"><ele>13.2</ele><time>2026-04-23T02:44:07.001Z</time></trkpt><trkpt lat="-20.67229570703454" lon="117.09617978332405"><ele>12.799999999999999</ele><time>2026-04-23T02:44:09.001Z</time></trkpt><trkpt lat="-20.672407540239753" lon="117.09622639526805"><ele>12.399999999999999</ele><time>2026-04-23T02:44:11.001Z</time></trkpt><trkpt lat="-20.672497563772563" lon="117.0962847664061"><ele>12.0</ele><time>2026-04-23T02:44:13.001Z</time></trkpt><trkpt lat="-20.67261021867691" lon="117.09633409851234"><ele>12.0</ele><time>2026-04-23T02:44:15.001Z</time></trkpt><trkpt lat="-20.672717822365595" lon="117.09635997619749"><ele>12.0</ele><time>2026-04-23T02:44:17.001Z</time></trkpt><trkpt lat="-20.67278115349803" lon="117.09634065640985"><ele>12.0</ele><time>2026-04-23T02:44:19.001Z</time></trkpt><trkpt lat="-20.67282482916092" lon="117.09628879594483"><ele>12.0</ele><time>2026-04-23T02:44:29.001Z</time></trkpt><trkpt lat="-20.672898651674434" lon="117.09622793416345"><ele>12.0</ele><time>2026-04-23T02:44:31.001Z</time></trkpt><trkpt lat="-20.672958740025944" lon="117.0961954660533"><ele>12.0</ele><time>2026-04-23T02:44:32.001Z</time></trkpt><trkpt lat="-20.673036508849076" lon="117.09615308398624"><ele>12.166666666666666</ele><time>2026-04-23T02:44:33.001Z</time></trkpt><trkpt lat="-20.67311602363819" lon="117.0961138118734"><ele>12.333333333333332</ele><time>2026-04-23T02:44:34.001Z</time></trkpt><trkpt lat="-20.6732013678461" lon="117.09608620593762"><ele>12.5</ele><time>2026-04-23T02:44:35.001Z</time></trkpt><trkpt lat="-20.673285372347273" lon="117.09606563385586"><ele>12.666666666666666</ele><time>2026-04-23T02:44:36.001Z</time></trkpt><trkpt lat="-20.67337826414254" lon="117.09604570440618"><ele>12.833333333333332</ele><time>2026-04-23T02:44:37Z</time></trkpt><trkpt lat="-20.673461210767933" lon="117.09602313754216"><ele>13.0</ele><time>2026-04-23T02:44:38Z</time></trkpt><trkpt lat="-20.673535157634245" lon="117.09601062646675"><ele>13.2</ele><time>2026-04-23T02:44:39Z</time></trkpt><trkpt lat="-20.673615423542195" lon="117.09600449606457"><ele>13.4</ele><time>2026-04-23T02:44:40Z</time></trkpt><trkpt lat="-20.6737268634506" lon="117.09599743117"><ele>13.599999999999998</ele><time>2026-04-23T02:44:41Z</time></trkpt><trkpt lat="-20.673836630381764" lon="117.09599395708659"><ele>13.799999999999999</ele><time>2026-04-23T02:44:42Z</time></trkpt><trkpt lat="-20.67394341831927" lon="117.09598914032834"><ele>14.0</ele><time>2026-04-23T02:44:43Z</time></trkpt><trkpt lat="-20.67403268273697" lon="117.0959863559302"><ele>14.0</ele><time>2026-04-23T02:44:44Z</time></trkpt><trkpt lat="-20.674124680246642" lon="117.09599237242155"><ele>14.0</ele><time>2026-04-23T02:44:45Z</time></trkpt><trkpt lat="-20.674228455291086" lon="117.0960171916607"><ele>14.0</ele><time>2026-04-23T02:44:46Z</time></trkpt><trkpt lat="-20.67435448444272" lon="117.09606171170617"><ele>14.0</ele><time>2026-04-23T02:44:47Z</time></trkpt><trkpt lat="-20.674502400891377" lon="117.09611973446083"><ele>14.666666666666668</ele><time>2026-04-23T02:44:48Z</time></trkpt><trkpt lat="-20.67466138102337" lon="117.09617804248865"><ele>15.333333333333332</ele><time>2026-04-23T02:44:49Z</time></trkpt><trkpt lat="-20.674822501044986" lon="117.09622802230089"><ele>16.0</ele><time>2026-04-23T02:44:50Z</time></trkpt><trkpt lat="-20.67498579795597" lon="117.09628181372788"><ele>16.0</ele><time>2026-04-23T02:44:51Z</time></trkpt><trkpt lat="-20.675141321533683" lon="117.09633292398026"><ele>16.0</ele><time>2026-04-23T02:44:52Z</time></trkpt><trkpt lat="-20.675295618733546" lon="117.09637820390716"><ele>16.0</ele><time>2026-04-23T02:44:53Z</time></trkpt><trkpt lat="-20.675457352839597" lon="117.09642892911174"><ele>16.666666666666664</ele><time>2026-04-23T02:44:54Z</time></trkpt><trkpt lat="-20.675613911184396" lon="117.09647706101164"><ele>17.333333333333332</ele><time>2026-04-23T02:44:55Z</time></trkpt><trkpt lat="-20.675766171507505" lon="117.09652334943696"><ele>18.0</ele><time>2026-04-23T02:44:56Z</time></trkpt><trkpt lat="-20.675932438020418" lon="117.09657772274076"><ele>17.666666666666668</ele><time>2026-04-23T02:44:57Z</time></trkpt><trkpt lat="-20.676090113198452" lon="117.09663110286887"><ele>17.333333333333336</ele><time>2026-04-23T02:44:58Z</time></trkpt><trkpt lat="-20.676244416608007" lon="117.09668161580719"><ele>17.0</ele><time>2026-04-23T02:44:59Z</time></trkpt><trkpt lat="-20.67639296960947" lon="117.09673015258522"><ele>17.0</ele><time>2026-04-23T02:45:00Z</time></trkpt><trkpt lat="-20.67654604654172" lon="117.0967779179381"><ele>17.0</ele><time>2026-04-23T02:45:01Z</time></trkpt><trkpt lat="-20.676692748878963" lon="117.09683165113731"><ele>17.0</ele><time>2026-04-23T02:45:02Z</time></trkpt><trkpt lat="-20.676847116182515" lon="117.09689913526296"><ele>17.0</ele><time>2026-04-23T02:45:03Z</time></trkpt><trkpt lat="-20.677007249436706" lon="117.09696800489901"><ele>17.0</ele><time>2026-04-23T02:45:04Z</time></trkpt><trkpt lat="-20.677172145205677" lon="117.09703458669415"><ele>17.0</ele><time>2026-04-23T02:45:05Z</time></trkpt><trkpt lat="-20.677345053153555" lon="117.09709906300297"><ele>17.0</ele><time>2026-04-23T02:45:06Z</time></trkpt><trkpt lat="-20.677522544823308" lon="117.09716628845533"><ele>17.0</ele><time>2026-04-23T02:45:07Z</time></trkpt><trkpt lat="-20.67769724577879" lon="117.09722577198453"><ele>17.0</ele><time>2026-04-23T02:45:08Z</time></trkpt><trkpt lat="-20.677873512054983" lon="117.09728695709252"><ele>16.333333333333336</ele><time>2026-04-23T02:45:09Z</time></trkpt><trkpt lat="-20.678044360995784" lon="117.09734450002566"><ele>15.666666666666668</ele><time>2026-04-23T02:45:10Z</time></trkpt><trkpt lat="-20.678212368325806" lon="117.0974062233302"><ele>15.0</ele><time>2026-04-23T02:45:11Z</time></trkpt><trkpt lat="-20.678378932707858" lon="117.09746347206975"><ele>14.666666666666668</ele><time>2026-04-23T02:45:12Z</time></trkpt><trkpt lat="-20.678551367996565" lon="117.0975188268214"><ele>14.333333333333334</ele><time>2026-04-23T02:45:13Z</time></trkpt><trkpt lat="-20.678726983119287" lon="117.09756873257604"><ele>14.0</ele><time>2026-04-23T02:45:14Z</time></trkpt><trkpt lat="-20.678911134251234" lon="117.097621980476"><ele>15.0</ele><time>2026-04-23T02:45:15Z</time></trkpt><trkpt lat="-20.679086678268025" lon="117.09766852244267"><ele>16.0</ele><time>2026-04-23T02:45:16Z</time></trkpt><trkpt lat="-20.679268904701757" lon="117.09771648492769"><ele>17.0</ele><time>2026-04-23T02:45:17Z</time></trkpt><trkpt lat="-20.679453816488643" lon="117.09776249457536"><ele>17.0</ele><time>2026-04-23T02:45:18Z</time></trkpt><trkpt lat="-20.67963542978228" lon="117.09780452312376"><ele>17.0</ele><time>2026-04-23T02:45:19Z</time></trkpt><trkpt lat="-20.679819906451918" lon="117.09785132113663"><ele>17.0</ele><time>2026-04-23T02:45:20Z</time></trkpt><trkpt lat="-20.680004229538483" lon="117.09789802477836"><ele>17.0</ele><time>2026-04-23T02:45:21Z</time></trkpt><trkpt lat="-20.680181449692288" lon="117.09794401747753"><ele>17.0</ele><time>2026-04-23T02:45:22Z</time></trkpt><trkpt lat="-20.68036476460322" lon="117.09798754514209"><ele>17.0</ele><time>2026-04-23T02:45:23Z</time></trkpt><trkpt lat="-20.680549587623112" lon="117.09802610336197"><ele>18.0</ele><time>2026-04-23T02:45:24Z</time></trkpt><trkpt lat="-20.68073150629981" lon="117.09805243137795"><ele>19.0</ele><time>2026-04-23T02:45:25Z</time></trkpt><trkpt lat="-20.680905819948336" lon="117.09807131005543"><ele>20.0</ele><time>2026-04-23T02:45:26Z</time></trkpt><trkpt lat="-20.68108181852279" lon="117.09809442903885"><ele>19.0</ele><time>2026-04-23T02:45:27Z</time></trkpt><trkpt lat="-20.68126424830276" lon="117.09812746950823"><ele>18.0</ele><time>2026-04-23T02:45:28Z</time></trkpt><trkpt lat="-20.681440327735668" lon="117.09817563898964"><ele>17.0</ele><time>2026-04-23T02:45:29Z</time></trkpt><trkpt lat="-20.681629076329177" lon="117.09823196655579"><ele>17.666666666666668</ele><time>2026-04-23T02:45:30Z</time></trkpt><trkpt lat="-20.681813169234854" lon="117.09827331217099"><ele>18.333333333333332</ele><time>2026-04-23T02:45:31Z</time></trkpt><trkpt lat="-20.682002270981794" lon="117.09831349738978"><ele>19.0</ele><time>2026-04-23T02:45:32Z</time></trkpt><trkpt lat="-20.682184531839923" lon="117.09835673054087"><ele>19.0</ele><time>2026-04-23T02:45:33Z</time></trkpt><trkpt lat="-20.682347866500955" lon="117.09839298321074"><ele>19.0</ele><time>2026-04-23T02:45:34Z</time></trkpt><trkpt lat="-20.682505930121458" lon="117.09844004739483"><ele>19.0</ele><time>2026-04-23T02:45:35Z</time></trkpt><trkpt lat="-20.682672430344557" lon="117.09850416139291"><ele>19.333333333333332</ele><time>2026-04-23T02:45:36Z</time></trkpt><trkpt lat="-20.68282797981963" lon="117.0985767484895"><ele>19.666666666666668</ele><time>2026-04-23T02:45:37Z</time></trkpt><trkpt lat="-20.682974382118" lon="117.09866097731576"><ele>20.0</ele><time>2026-04-23T02:45:38Z</time></trkpt><trkpt lat="-20.683130782731013" lon="117.09876919305022"><ele>20.0</ele><time>2026-04-23T02:45:39Z</time></trkpt><trkpt lat="-20.68328227487391" lon="117.09887322497632"><ele>20.0</ele><time>2026-04-23T02:45:40Z</time></trkpt><trkpt lat="-20.68340722277379" lon="117.0989522536231"><ele>20.0</ele><time>2026-04-23T02:45:41Z</time></trkpt><trkpt lat="-20.68350512542192" lon="117.09901418114876"><ele>20.0</ele><time>2026-04-23T02:45:42Z</time></trkpt><trkpt lat="-20.683577766039555" lon="117.09906649263758"><ele>19.8</ele><time>2026-04-23T02:45:43Z</time></trkpt><trkpt lat="-20.68365434592908" lon="117.09913079869993"><ele>19.6</ele><time>2026-04-23T02:45:45Z</time></trkpt><trkpt lat="-20.683712088304578" lon="117.09919073954522"><ele>19.4</ele><time>2026-04-23T02:45:47Z</time></trkpt><trkpt lat="-20.68379612944938" lon="117.09927768725171"><ele>19.2</ele><time>2026-04-23T02:45:49Z</time></trkpt><trkpt lat="-20.68389185480481" lon="117.09933730053164"><ele>19.0</ele><time>2026-04-23T02:45:51Z</time></trkpt><trkpt lat="-20.684000205095188" lon="117.0993681949143"><ele>19.0</ele><time>2026-04-23T02:45:53Z</time></trkpt><trkpt lat="-20.68406378750362" lon="117.09940021688676"><ele>19.0</ele><time>2026-04-23T02:45:55Z</time></trkpt><trkpt lat="-20.68413306929593" lon="117.09941285345889"><ele>19.0</ele><time>2026-04-23T02:45:57Z</time></trkpt><trkpt lat="-20.684263845036067" lon="117.09940634631535"><ele>19.0</ele><time>2026-04-23T02:45:59Z</time></trkpt><trkpt lat="-20.68433719777598" lon="117.09938903090637"><ele>19.0</ele><time>2026-04-23T02:46:00Z</time></trkpt><trkpt lat="-20.68440317641768" lon="117.09936881904717"><ele>19.0</ele><time>2026-04-23T02:46:01Z</time></trkpt><trkpt lat="-20.68447118267658" lon="117.09934703287654"><ele>19.0</ele><time>2026-04-23T02:46:02Z</time></trkpt><trkpt lat="-20.684540442613542" lon="117.09931780536442"><ele>19.0</ele><time>2026-04-23T02:46:03Z</time></trkpt><trkpt lat="-20.68459948385295" lon="117.09928791396455"><ele>19.0</ele><time>2026-04-23T02:46:04Z</time></trkpt><trkpt lat="-20.684660944194952" lon="117.0992490041135"><ele>19.0</ele><time>2026-04-23T02:46:05Z</time></trkpt><trkpt lat="-20.684736998432655" lon="117.09920707619453"><ele>19.0</ele><time>2026-04-23T02:46:06Z</time></trkpt><trkpt lat="-20.684807194294688" lon="117.09917576875876"><ele>19.0</ele><time>2026-04-23T02:46:07Z</time></trkpt><trkpt lat="-20.684878587154977" lon="117.09915087228512"><ele>19.0</ele><time>2026-04-23T02:46:08Z</time></trkpt><trkpt lat="-20.684954550730442" lon="117.09913330297948"><ele>19.0</ele><time>2026-04-23T02:46:09Z</time></trkpt><trkpt lat="-20.685020401999484" lon="117.09912440810146"><ele>19.0</ele><time>2026-04-23T02:46:10Z</time></trkpt><trkpt lat="-20.68508523818704" lon="117.09912318051913"><ele>19.0</ele><time>2026-04-23T02:46:11Z</time></trkpt><trkpt lat="-20.685199898324086" lon="117.09912914843869"><ele>19.0</ele><time>2026-04-23T02:46:13.001Z</time></trkpt><trkpt lat="-20.68529367681322" lon="117.09914811790307"><ele>19.0</ele><time>2026-04-23T02:46:15.001Z</time></trkpt><trkpt lat="-20.685407477183464" lon="117.09920805504616"><ele>19.0</ele><time>2026-04-23T02:46:17.001Z</time></trkpt><trkpt lat="-20.68546632794043" lon="117.09925736815066"><ele>19.0</ele><time>2026-04-23T02:46:18.001Z</time></trkpt><trkpt lat="-20.68552671090513" lon="117.09931288426402"><ele>19.0</ele><time>2026-04-23T02:46:19.001Z</time></trkpt><trkpt lat="-20.685588591731474" lon="117.09938181793527"><ele>19.0</ele><time>2026-04-23T02:46:20.001Z</time></trkpt><trkpt lat="-20.685644635351082" lon="117.09944553073869"><ele>19.0</ele><time>2026-04-23T02:46:21.001Z</time></trkpt><trkpt lat="-20.685694454462865" lon="117.09951003674573"><ele>19.0</ele><time>2026-04-23T02:46:22.001Z</time></trkpt><trkpt lat="-20.685737870475002" lon="117.09958452600276"><ele>19.0</ele><time>2026-04-23T02:46:23.001Z</time></trkpt><trkpt lat="-20.68577487482183" lon="117.09964406845596"><ele>19.0</ele><time>2026-04-23T02:46:24.001Z</time></trkpt><trkpt lat="-20.685900627784797" lon="117.09972570923495"><ele>19.0</ele><time>2026-04-23T02:46:26.001Z</time></trkpt><trkpt lat="-20.6859944459115" lon="117.09976885028117"><ele>19.0</ele><time>2026-04-23T02:46:27.001Z</time></trkpt><trkpt lat="-20.68607227797205" lon="117.09981733599938"><ele>19.0</ele><time>2026-04-23T02:46:28.001Z</time></trkpt><trkpt lat="-20.686160040166403" lon="117.09988953434903"><ele>20.0</ele><time>2026-04-23T02:46:29.001Z</time></trkpt><trkpt lat="-20.686254126536117" lon="117.0999641802557"><ele>21.0</ele><time>2026-04-23T02:46:30.001Z</time></trkpt><trkpt lat="-20.686327889527156" lon="117.10000837717773"><ele>22.0</ele><time>2026-04-23T02:46:31.001Z</time></trkpt><trkpt lat="-20.686426028167975" lon="117.10005290981759"><ele>23.0</ele><time>2026-04-23T02:46:32.001Z</time></trkpt><trkpt lat="-20.68652053710385" lon="117.10009782668148"><ele>24.0</ele><time>2026-04-23T02:46:33.001Z</time></trkpt><trkpt lat="-20.686597740384585" lon="117.10015315690725"><ele>24.0</ele><time>2026-04-23T02:46:34.001Z</time></trkpt><trkpt lat="-20.68664371956894" lon="117.10021234343756"><ele>24.0</ele><time>2026-04-23T02:46:35.001Z</time></trkpt><trkpt lat="-20.686695575837636" lon="117.10028113745747"><ele>24.0</ele><time>2026-04-23T02:46:36.001Z</time></trkpt><trkpt lat="-20.68674521003854" lon="117.10035299601084"><ele>24.0</ele><time>2026-04-23T02:46:37.001Z</time></trkpt><trkpt lat="-20.68678237473544" lon="117.10043332098599"><ele>24.0</ele><time>2026-04-23T02:46:38.001Z</time></trkpt><trkpt lat="-20.686812807090057" lon="117.10053053040505"><ele>24.0</ele><time>2026-04-23T02:46:39.001Z</time></trkpt><trkpt lat="-20.686838055926128" lon="117.10063788498162"><ele>24.0</ele><time>2026-04-23T02:46:40.001Z</time></trkpt><trkpt lat="-20.686873907911316" lon="117.1007420221259"><ele>24.0</ele><time>2026-04-23T02:46:41.001Z</time></trkpt><trkpt lat="-20.68691877053738" lon="117.10083287437192"><ele>24.0</ele><time>2026-04-23T02:46:42.001Z</time></trkpt><trkpt lat="-20.686984008312464" lon="117.10093456277373"><ele>24.0</ele><time>2026-04-23T02:46:43Z</time></trkpt><trkpt lat="-20.687046515917928" lon="117.10103073481874"><ele>24.0</ele><time>2026-04-23T02:46:44Z</time></trkpt><trkpt lat="-20.687111795951242" lon="117.10112620169016"><ele>23.25</ele><time>2026-04-23T02:46:45Z</time></trkpt><trkpt lat="-20.68719200338515" lon="117.10123332937698"><ele>22.5</ele><time>2026-04-23T02:46:46Z</time></trkpt><trkpt lat="-20.68728611736622" lon="117.10134014219108"><ele>21.75</ele><time>2026-04-23T02:46:47Z</time></trkpt><trkpt lat="-20.687380490896953" lon="117.1014339831257"><ele>21.0</ele><time>2026-04-23T02:46:48Z</time></trkpt><trkpt lat="-20.687488641632513" lon="117.10152636851558"><ele>20.75</ele><time>2026-04-23T02:46:49Z</time></trkpt><trkpt lat="-20.687592265311647" lon="117.10162153456277"><ele>20.5</ele><time>2026-04-23T02:46:50Z</time></trkpt><trkpt lat="-20.68767640787011" lon="117.10171156383483"><ele>20.25</ele><time>2026-04-23T02:46:51Z</time></trkpt><trkpt lat="-20.68776148577611" lon="117.10179781745754"><ele>20.0</ele><time>2026-04-23T02:46:52Z</time></trkpt><trkpt lat="-20.68785944618024" lon="117.1018703003792"><ele>19.5</ele><time>2026-04-23T02:46:53Z</time></trkpt><trkpt lat="-20.68796843403006" lon="117.10192865725327"><ele>19.0</ele><time>2026-04-23T02:46:54Z</time></trkpt><trkpt lat="-20.688082065434426" lon="117.10197929034335"><ele>18.5</ele><time>2026-04-23T02:46:55Z</time></trkpt><trkpt lat="-20.688182749627153" lon="117.10201854282747"><ele>18.0</ele><time>2026-04-23T02:46:56Z</time></trkpt><trkpt lat="-20.68827527924407" lon="117.10205142696199"><ele>18.0</ele><time>2026-04-23T02:46:57Z</time></trkpt><trkpt lat="-20.688370269357893" lon="117.10205958830615"><ele>18.0</ele><time>2026-04-23T02:46:58Z</time></trkpt><trkpt lat="-20.688476365307828" lon="117.10206224807044"><ele>18.0</ele><time>2026-04-23T02:46:59Z</time></trkpt><trkpt lat="-20.688577848657083" lon="117.10206316241249"><ele>18.0</ele><time>2026-04-23T02:47:00Z</time></trkpt><trkpt lat="-20.68864842654939" lon="117.1020681808299"><ele>18.0</ele><time>2026-04-23T02:47:01Z</time></trkpt><trkpt lat="-20.688729263904616" lon="117.10211454046785"><ele>18.6</ele><time>2026-04-23T02:47:03Z</time></trkpt><trkpt lat="-20.688780064139568" lon="117.10217923707914"><ele>19.200000000000003</ele><time>2026-04-23T02:47:04Z</time></trkpt><trkpt lat="-20.688835399985855" lon="117.10226760305223"><ele>19.8</ele><time>2026-04-23T02:47:05Z</time></trkpt><trkpt lat="-20.688880711598188" lon="117.10237783257162"><ele>20.400000000000002</ele><time>2026-04-23T02:47:06Z</time></trkpt><trkpt lat="-20.688919778629522" lon="117.1024928429297"><ele>21.0</ele><time>2026-04-23T02:47:07Z</time></trkpt><trkpt lat="-20.688960116187427" lon="117.10259406241329"><ele>21.0</ele><time>2026-04-23T02:47:08Z</time></trkpt><trkpt lat="-20.68900252694487" lon="117.10268462799792"><ele>21.0</ele><time>2026-04-23T02:47:09Z</time></trkpt><trkpt lat="-20.68905367640095" lon="117.10276813810694"><ele>21.0</ele><time>2026-04-23T02:47:10Z</time></trkpt><trkpt lat="-20.689114895277637" lon="117.10286301668482"><ele>21.0</ele><time>2026-04-23T02:47:11Z</time></trkpt><trkpt lat="-20.68917985030698" lon="117.10296204275416"><ele>21.0</ele><time>2026-04-23T02:47:12Z</time></trkpt><trkpt lat="-20.68923532809551" lon="117.1030419571824"><ele>21.0</ele><time>2026-04-23T02:47:13Z</time></trkpt><trkpt lat="-20.689296501549567" lon="117.1031291873276"><ele>21.0</ele><time>2026-04-23T02:47:14Z</time></trkpt><trkpt lat="-20.689347532763655" lon="117.10322375961495"><ele>21.0</ele><time>2026-04-23T02:47:15Z</time></trkpt><trkpt lat="-20.689398126876046" lon="117.10333666981975"><ele>21.0</ele><time>2026-04-23T02:47:16Z</time></trkpt><trkpt lat="-20.689452391699724" lon="117.10345622010695"><ele>21.0</ele><time>2026-04-23T02:47:17Z</time></trkpt><trkpt lat="-20.68949751325299" lon="117.10356606077389"><ele>21.25</ele><time>2026-04-23T02:47:18Z</time></trkpt><trkpt lat="-20.689551964797214" lon="117.10367266286315"><ele>21.5</ele><time>2026-04-23T02:47:19Z</time></trkpt><trkpt lat="-20.68961692269188" lon="117.10377386098841"><ele>21.75</ele><time>2026-04-23T02:47:20Z</time></trkpt><trkpt lat="-20.689678448369236" lon="117.10387996791647"><ele>22.0</ele><time>2026-04-23T02:47:21Z</time></trkpt><trkpt lat="-20.68974561150504" lon="117.10399277885327"><ele>22.0</ele><time>2026-04-23T02:47:22Z</time></trkpt><trkpt lat="-20.689818152325696" lon="117.10410681442629"><ele>22.0</ele><time>2026-04-23T02:47:23Z</time></trkpt><trkpt lat="-20.689897419007885" lon="117.10422610657866"><ele>22.0</ele><time>2026-04-23T02:47:24Z</time></trkpt><trkpt lat="-20.689981240064224" lon="117.10434966308024"><ele>22.0</ele><time>2026-04-23T02:47:25Z</time></trkpt><trkpt lat="-20.69006306718249" lon="117.10447637442938"><ele>22.0</ele><time>2026-04-23T02:47:26Z</time></trkpt><trkpt lat="-20.69014827349489" lon="117.10459687890189"><ele>22.0</ele><time>2026-04-23T02:47:27Z</time></trkpt><trkpt lat="-20.690232768550725" lon="117.10471277176829"><ele>22.0</ele><time>2026-04-23T02:47:28Z</time></trkpt><trkpt lat="-20.690305308847947" lon="117.10481449988119"><ele>22.0</ele><time>2026-04-23T02:47:29Z</time></trkpt><trkpt lat="-20.69037402488783" lon="117.1049110213144"><ele>21.666666666666664</ele><time>2026-04-23T02:47:30Z</time></trkpt><trkpt lat="-20.690434898990606" lon="117.10499695283686"><ele>21.333333333333332</ele><time>2026-04-23T02:47:31Z</time></trkpt><trkpt lat="-20.69048996482862" lon="117.10506993956011"><ele>21.0</ele><time>2026-04-23T02:47:32Z</time></trkpt><trkpt lat="-20.69053756372039" lon="117.10513727840095"><ele>20.666666666666668</ele><time>2026-04-23T02:47:33Z</time></trkpt><trkpt lat="-20.69057514658097" lon="117.10520353129904"><ele>20.333333333333336</ele><time>2026-04-23T02:47:34Z</time></trkpt><trkpt lat="-20.69061953684818" lon="117.10527702284449"><ele>20.0</ele><time>2026-04-23T02:47:35Z</time></trkpt><trkpt lat="-20.69066292130058" lon="117.10533899618093"><ele>20.0</ele><time>2026-04-23T02:47:36Z</time></trkpt><trkpt lat="-20.690721979221234" lon="117.10541959252245"><ele>20.0</ele><time>2026-04-23T02:47:38Z</time></trkpt><trkpt lat="-20.690798398043903" lon="117.105428113822"><ele>20.0</ele><time>2026-04-23T02:48:00Z</time></trkpt><trkpt lat="-20.690856270556477" lon="117.10536111065622"><ele>20.0</ele><time>2026-04-23T02:48:02Z</time></trkpt><trkpt lat="-20.69092917192081" lon="117.10525425634607"><ele>20.0</ele><time>2026-04-23T02:48:04Z</time></trkpt><trkpt lat="-20.69098191511944" lon="117.10518607134286"><ele>20.0</ele><time>2026-04-23T02:48:05Z</time></trkpt><trkpt lat="-20.69104777586112" lon="117.10510036484311"><ele>20.0</ele><time>2026-04-23T02:48:06Z</time></trkpt><trkpt lat="-20.691110525925314" lon="117.10500720204122"><ele>20.0</ele><time>2026-04-23T02:48:07Z</time></trkpt><trkpt lat="-20.691181284212856" lon="117.1049071593663"><ele>20.0</ele><time>2026-04-23T02:48:08Z</time></trkpt><trkpt lat="-20.691252960046228" lon="117.10481398696533"><ele>20.0</ele><time>2026-04-23T02:48:09Z</time></trkpt><trkpt lat="-20.691316160190816" lon="117.10473373240298"><ele>20.166666666666668</ele><time>2026-04-23T02:48:10Z</time></trkpt><trkpt lat="-20.691370561940346" lon="117.10466140612967"><ele>20.333333333333336</ele><time>2026-04-23T02:48:11Z</time></trkpt><trkpt lat="-20.691419049835922" lon="117.10459513386138"><ele>20.5</ele><time>2026-04-23T02:48:12Z</time></trkpt><trkpt lat="-20.691468030109345" lon="117.10453467146459"><ele>20.666666666666668</ele><time>2026-04-23T02:48:13Z</time></trkpt><trkpt lat="-20.691516316534067" lon="117.10447694464037"><ele>20.833333333333332</ele><time>2026-04-23T02:48:14Z</time></trkpt><trkpt lat="-20.691571432881343" lon="117.10441176668115"><ele>21.0</ele><time>2026-04-23T02:48:15Z</time></trkpt><trkpt lat="-20.69162531783589" lon="117.10434274181628"><ele>21.0</ele><time>2026-04-23T02:48:16Z</time></trkpt><trkpt lat="-20.691681607543448" lon="117.10426581592847"><ele>21.0</ele><time>2026-04-23T02:48:17Z</time></trkpt><trkpt lat="-20.69173581869169" lon="117.10419191655197"><ele>21.0</ele><time>2026-04-23T02:48:18Z</time></trkpt><trkpt lat="-20.691799467547177" lon="117.10411551005846"><ele>21.0</ele><time>2026-04-23T02:48:19Z</time></trkpt><trkpt lat="-20.691863211968275" lon="117.10403345101332"><ele>21.0</ele><time>2026-04-23T02:48:20Z</time></trkpt><trkpt lat="-20.69192581859877" lon="117.1039463118554"><ele>21.5</ele><time>2026-04-23T02:48:21Z</time></trkpt><trkpt lat="-20.691997302475883" lon="117.10385482642207"><ele>22.0</ele><time>2026-04-23T02:48:22Z</time></trkpt><trkpt lat="-20.69207371685612" lon="117.10375494304624"><ele>22.5</ele><time>2026-04-23T02:48:23Z</time></trkpt><trkpt lat="-20.692158985438816" lon="117.10364873596914"><ele>23.0</ele><time>2026-04-23T02:48:24Z</time></trkpt><trkpt lat="-20.692253603391986" lon="117.10352881104419"><ele>23.0</ele><time>2026-04-23T02:48:25Z</time></trkpt><trkpt lat="-20.692356984820165" lon="117.10339777215427"><ele>23.0</ele><time>2026-04-23T02:48:26Z</time></trkpt><trkpt lat="-20.69247710683899" lon="117.1032451648607"><ele>23.0</ele><time>2026-04-23T02:48:27Z</time></trkpt><trkpt lat="-20.692599709311033" lon="117.10308660141708"><ele>22.666666666666668</ele><time>2026-04-23T02:48:28Z</time></trkpt><trkpt lat="-20.692726496695226" lon="117.10292505226461"><ele>22.333333333333332</ele><time>2026-04-23T02:48:29Z</time></trkpt><trkpt lat="-20.692849141109154" lon="117.10276323892927"><ele>22.0</ele><time>2026-04-23T02:48:30Z</time></trkpt><trkpt lat="-20.692969352545788" lon="117.10260108370477"><ele>21.0</ele><time>2026-04-23T02:48:31Z</time></trkpt><trkpt lat="-20.693090375627317" lon="117.10244262516699"><ele>20.0</ele><time>2026-04-23T02:48:32Z</time></trkpt><trkpt lat="-20.69320546403607" lon="117.10229730163105"><ele>19.0</ele><time>2026-04-23T02:48:33Z</time></trkpt><trkpt lat="-20.69332456884741" lon="117.10215168912244"><ele>20.666666666666664</ele><time>2026-04-23T02:48:34Z</time></trkpt><trkpt lat="-20.693437072352182" lon="117.1020156368699"><ele>22.333333333333332</ele><time>2026-04-23T02:48:35Z</time></trkpt><trkpt lat="-20.693556992129743" lon="117.1018722402438"><ele>24.0</ele><time>2026-04-23T02:48:36Z</time></trkpt><trkpt lat="-20.693673913741193" lon="117.10173608831465"><ele>24.0</ele><time>2026-04-23T02:48:37Z</time></trkpt><trkpt lat="-20.693796091286874" lon="117.10160191001012"><ele>24.0</ele><time>2026-04-23T02:48:38Z</time></trkpt><trkpt lat="-20.69392884190441" lon="117.10145592399039"><ele>24.0</ele><time>2026-04-23T02:48:39Z</time></trkpt><trkpt lat="-20.694059614048435" lon="117.10130282855945"><ele>23.666666666666668</ele><time>2026-04-23T02:48:40Z</time></trkpt><trkpt lat="-20.69418655311712" lon="117.10114161115274"><ele>23.333333333333336</ele><time>2026-04-23T02:48:41Z</time></trkpt><trkpt lat="-20.694320357037736" lon="117.10097252184401"><ele>23.0</ele><time>2026-04-23T02:48:42Z</time></trkpt><trkpt lat="-20.694454440592498" lon="117.10080311994392"><ele>24.333333333333336</ele><time>2026-04-23T02:48:43Z</time></trkpt><trkpt lat="-20.694580875835573" lon="117.1006438870995"><ele>25.666666666666668</ele><time>2026-04-23T02:48:44.001Z</time></trkpt><trkpt lat="-20.694710726911254" lon="117.1004795331246"><ele>27.0</ele><time>2026-04-23T02:48:45.001Z</time></trkpt><trkpt lat="-20.694837619552114" lon="117.10030413593569"><ele>27.0</ele><time>2026-04-23T02:48:46.001Z</time></trkpt><trkpt lat="-20.694957912261554" lon="117.10014791317421"><ele>27.0</ele><time>2026-04-23T02:48:47.001Z</time></trkpt><trkpt lat="-20.69508825902217" lon="117.09997832214292"><ele>27.0</ele><time>2026-04-23T02:48:48.001Z</time></trkpt><trkpt lat="-20.69521213383255" lon="117.09982664462052"><ele>26.333333333333336</ele><time>2026-04-23T02:48:48.999Z</time></trkpt><trkpt lat="-20.695345959791663" lon="117.09968217848564"><ele>25.666666666666668</ele><time>2026-04-23T02:48:49.999Z</time></trkpt><trkpt lat="-20.695491673523946" lon="117.09953298778723"><ele>25.0</ele><time>2026-04-23T02:48:50.999Z</time></trkpt><trkpt lat="-20.695640209777306" lon="117.09938640824086"><ele>25.0</ele><time>2026-04-23T02:48:51.999Z</time></trkpt><trkpt lat="-20.695790149476654" lon="117.09924659237993"><ele>25.0</ele><time>2026-04-23T02:48:52.999Z</time></trkpt><trkpt lat="-20.6959394432637" lon="117.09911381579293"><ele>25.0</ele><time>2026-04-23T02:48:53.999Z</time></trkpt><trkpt lat="-20.696088423420978" lon="117.09898570994719"><ele>25.0</ele><time>2026-04-23T02:48:54.999Z</time></trkpt><trkpt lat="-20.69624049913369" lon="117.09886139826989"><ele>25.0</ele><time>2026-04-23T02:48:55.999Z</time></trkpt><trkpt lat="-20.696393574483597" lon="117.09873824472655"><ele>25.0</ele><time>2026-04-23T02:48:56.999Z</time></trkpt><trkpt lat="-20.69655599538833" lon="117.0986254127369"><ele>25.0</ele><time>2026-04-23T02:48:57.999Z</time></trkpt><trkpt lat="-20.69672129255986" lon="117.09852402452712"><ele>25.0</ele><time>2026-04-23T02:48:58.999Z</time></trkpt><trkpt lat="-20.696887104322432" lon="117.09842440523286"><ele>25.0</ele><time>2026-04-23T02:48:59.999Z</time></trkpt><trkpt lat="-20.69706537799929" lon="117.09832501904103"><ele>25.333333333333336</ele><time>2026-04-23T02:49:00.999Z</time></trkpt><trkpt lat="-20.6972550462281" lon="117.09822537527164"><ele>25.666666666666664</ele><time>2026-04-23T02:49:01.999Z</time></trkpt><trkpt lat="-20.69745129698474" lon="117.09812837345238"><ele>26.0</ele><time>2026-04-23T02:49:02.999Z</time></trkpt><trkpt lat="-20.697658780657964" lon="117.09803415894967"><ele>26.5</ele><time>2026-04-23T02:49:03.999Z</time></trkpt><trkpt lat="-20.69787063966193" lon="117.09794893338993"><ele>27.0</ele><time>2026-04-23T02:49:04.999Z</time></trkpt><trkpt lat="-20.69808388176686" lon="117.0978725268854"><ele>27.0</ele><time>2026-04-23T02:49:05.999Z</time></trkpt><trkpt lat="-20.698292251870352" lon="117.09780958808815"><ele>27.0</ele><time>2026-04-23T02:49:06.999Z</time></trkpt><trkpt lat="-20.69848762057745" lon="117.09775869171487"><ele>27.0</ele><time>2026-04-23T02:49:08Z</time></trkpt><trkpt lat="-20.698663930795565" lon="117.0977167227474"><ele>27.400000000000002</ele><time>2026-04-23T02:49:09Z</time></trkpt><trkpt lat="-20.698815591516485" lon="117.09768216195285"><ele>27.800000000000004</ele><time>2026-04-23T02:49:10Z</time></trkpt><trkpt lat="-20.698933177389744" lon="117.09764740122276"><ele>28.2</ele><time>2026-04-23T02:49:11Z</time></trkpt><trkpt lat="-20.69902129410754" lon="117.09760654257944"><ele>28.6</ele><time>2026-04-23T02:49:12Z</time></trkpt><trkpt lat="-20.699090046080904" lon="117.09757703052705"><ele>29.0</ele><time>2026-04-23T02:49:13Z</time></trkpt><trkpt lat="-20.699160522064044" lon="117.09755895382693"><ele>28.999999999999996</ele><time>2026-04-23T02:49:14Z</time></trkpt><trkpt lat="-20.699225152899928" lon="117.09754941765517"><ele>29.0</ele><time>2026-04-23T02:49:15Z</time></trkpt><trkpt lat="-20.699297925678113" lon="117.09755237929174"><ele>29.0</ele><time>2026-04-23T02:49:16Z</time></trkpt><trkpt lat="-20.699389161136928" lon="117.09756604758788"><ele>29.0</ele><time>2026-04-23T02:49:17Z</time></trkpt><trkpt lat="-20.699493454759224" lon="117.09757940781397"><ele>28.999999999999996</ele><time>2026-04-23T02:49:18Z</time></trkpt><trkpt lat="-20.699602778219546" lon="117.09756873443796"><ele>29.0</ele><time>2026-04-23T02:49:19Z</time></trkpt><trkpt lat="-20.69971876789579" lon="117.09754859353653"><ele>29.0</ele><time>2026-04-23T02:49:20Z</time></trkpt><trkpt lat="-20.699838563229783" lon="117.09754207129663"><ele>29.0</ele><time>2026-04-23T02:49:21Z</time></trkpt><trkpt lat="-20.699964513471887" lon="117.09752921586946"><ele>29.0</ele><time>2026-04-23T02:49:22Z</time></trkpt><trkpt lat="-20.700112507555463" lon="117.09750617813768"><ele>29.0</ele><time>2026-04-23T02:49:23Z</time></trkpt><trkpt lat="-20.700275980614954" lon="117.09747552137043"><ele>29.666666666666664</ele><time>2026-04-23T02:49:24Z</time></trkpt><trkpt lat="-20.700452185578072" lon="117.09744526988604"><ele>30.333333333333336</ele><time>2026-04-23T02:49:25Z</time></trkpt><trkpt lat="-20.700642139493304" lon="117.09741556347032"><ele>31.0</ele><time>2026-04-23T02:49:26Z</time></trkpt><trkpt lat="-20.70084019052618" lon="117.09739240746515"><ele>31.0</ele><time>2026-04-23T02:49:27Z</time></trkpt><trkpt lat="-20.701053169863368" lon="117.09736743733977"><ele>31.0</ele><time>2026-04-23T02:49:28Z</time></trkpt><trkpt lat="-20.701271444969294" lon="117.09734510170023"><ele>31.0</ele><time>2026-04-23T02:49:29Z</time></trkpt><trkpt lat="-20.701483795395625" lon="117.09732694555738"><ele>30.666666666666668</ele><time>2026-04-23T02:49:30Z</time></trkpt><trkpt lat="-20.701692723152313" lon="117.09730465316517"><ele>30.333333333333336</ele><time>2026-04-23T02:49:31Z</time></trkpt><trkpt lat="-20.701884942832653" lon="117.09727583123309"><ele>30.0</ele><time>2026-04-23T02:49:32Z</time></trkpt><trkpt lat="-20.702064904178936" lon="117.09724531252954"><ele>30.0</ele><time>2026-04-23T02:49:33Z</time></trkpt><trkpt lat="-20.702237581990783" lon="117.09721644599377"><ele>30.0</ele><time>2026-04-23T02:49:34Z</time></trkpt><trkpt lat="-20.702403092286215" lon="117.09719167253934"><ele>30.0</ele><time>2026-04-23T02:49:35Z</time></trkpt><trkpt lat="-20.702588487984304" lon="117.09717958333468"><ele>30.0</ele><time>2026-04-23T02:49:36Z</time></trkpt><trkpt lat="-20.702750664356063" lon="117.0971787665491"><ele>30.0</ele><time>2026-04-23T02:49:37Z</time></trkpt><trkpt lat="-20.702948801761845" lon="117.09715945448593"><ele>30.0</ele><time>2026-04-23T02:49:38Z</time></trkpt><trkpt lat="-20.703148919795378" lon="117.09714182503531"><ele>30.0</ele><time>2026-04-23T02:49:39Z</time></trkpt><trkpt lat="-20.703326582055734" lon="117.09711615461866"><ele>30.0</ele><time>2026-04-23T02:49:40Z</time></trkpt><trkpt lat="-20.703488356854542" lon="117.09709038616569"><ele>30.0</ele><time>2026-04-23T02:49:41Z</time></trkpt><trkpt lat="-20.70365014457287" lon="117.09706427364821"><ele>30.333333333333336</ele><time>2026-04-23T02:49:42Z</time></trkpt><trkpt lat="-20.703822334001035" lon="117.09704146108211"><ele>30.666666666666668</ele><time>2026-04-23T02:49:43Z</time></trkpt><trkpt lat="-20.704004965103312" lon="117.09702669114424"><ele>31.0</ele><time>2026-04-23T02:49:44Z</time></trkpt><trkpt lat="-20.70417978357507" lon="117.09701691076728"><ele>31.0</ele><time>2026-04-23T02:49:45Z</time></trkpt><trkpt lat="-20.704378751026102" lon="117.09700222543357"><ele>31.0</ele><time>2026-04-23T02:49:46Z</time></trkpt><trkpt lat="-20.7045836848962" lon="117.09698319987356"><ele>31.0</ele><time>2026-04-23T02:49:47Z</time></trkpt><trkpt lat="-20.704802072572353" lon="117.09696026799797"><ele>31.666666666666668</ele><time>2026-04-23T02:49:48Z</time></trkpt><trkpt lat="-20.70501574928171" lon="117.09693795251462"><ele>32.333333333333336</ele><time>2026-04-23T02:49:49Z</time></trkpt><trkpt lat="-20.70522749622856" lon="117.09691466286966"><ele>33.0</ele><time>2026-04-23T02:49:50Z</time></trkpt><trkpt lat="-20.70544203474826" lon="117.09689083106775"><ele>33.666666666666664</ele><time>2026-04-23T02:49:51Z</time></trkpt><trkpt lat="-20.7056586130721" lon="117.09686647200392"><ele>34.33333333333333</ele><time>2026-04-23T02:49:52Z</time></trkpt><trkpt lat="-20.705873847435264" lon="117.09684028176483"><ele>35.0</ele><time>2026-04-23T02:49:53Z</time></trkpt><trkpt lat="-20.7060879628216" lon="117.09681360524878"><ele>35.666666666666664</ele><time>2026-04-23T02:49:54Z</time></trkpt><trkpt lat="-20.70630133167761" lon="117.0967888821268"><ele>36.333333333333336</ele><time>2026-04-23T02:49:55Z</time></trkpt><trkpt lat="-20.70651173210553" lon="117.09676865019023"><ele>37.0</ele><time>2026-04-23T02:49:56Z</time></trkpt><trkpt lat="-20.706728413166623" lon="117.09674475238774"><ele>37.333333333333336</ele><time>2026-04-23T02:49:57Z</time></trkpt><trkpt lat="-20.706940369366862" lon="117.09672112198939"><ele>37.666666666666664</ele><time>2026-04-23T02:49:58Z</time></trkpt><trkpt lat="-20.707147415754815" lon="117.09669843231917"><ele>38.0</ele><time>2026-04-23T02:49:59Z</time></trkpt><trkpt lat="-20.70735697777882" lon="117.09667395495757"><ele>38.0</ele><time>2026-04-23T02:50:00Z</time></trkpt><trkpt lat="-20.70756057960384" lon="117.09665141331497"><ele>38.0</ele><time>2026-04-23T02:50:01Z</time></trkpt><trkpt lat="-20.707759148266597" lon="117.09662959154355"><ele>38.0</ele><time>2026-04-23T02:50:02Z</time></trkpt><trkpt lat="-20.707947848940567" lon="117.09660913958072"><ele>38.33333333333333</ele><time>2026-04-23T02:50:03Z</time></trkpt><trkpt lat="-20.70812535457735" lon="117.09659039458333"><ele>38.666666666666664</ele><time>2026-04-23T02:50:04Z</time></trkpt><trkpt lat="-20.708291020886104" lon="117.0965672368285"><ele>39.0</ele><time>2026-04-23T02:50:05Z</time></trkpt><trkpt lat="-20.708449629918714" lon="117.09653953127469"><ele>38.25</ele><time>2026-04-23T02:50:06Z</time></trkpt><trkpt lat="-20.708598540049756" lon="117.09651396533896"><ele>37.5</ele><time>2026-04-23T02:50:07Z</time></trkpt><trkpt lat="-20.708741547521246" lon="117.09648905534888"><ele>36.75</ele><time>2026-04-23T02:50:08Z</time></trkpt><trkpt lat="-20.708883785317894" lon="117.09645949489145"><ele>36.0</ele><time>2026-04-23T02:50:09Z</time></trkpt><trkpt lat="-20.709019363072667" lon="117.0964398242036"><ele>36.0</ele><time>2026-04-23T02:50:10Z</time></trkpt><trkpt lat="-20.70915299870725" lon="117.09642336799043"><ele>36.0</ele><time>2026-04-23T02:50:11Z</time></trkpt><trkpt lat="-20.709280385988972" lon="117.09641138437426"><ele>36.0</ele><time>2026-04-23T02:50:12Z</time></trkpt><trkpt lat="-20.709410768183" lon="117.09640697187545"><ele>36.0</ele><time>2026-04-23T02:50:13Z</time></trkpt><trkpt lat="-20.70956137011734" lon="117.09641223711043"><ele>35.666666666666664</ele><time>2026-04-23T02:50:14Z</time></trkpt><trkpt lat="-20.709718185745842" lon="117.09640774953643"><ele>35.33333333333333</ele><time>2026-04-23T02:50:15Z</time></trkpt><trkpt lat="-20.709884701845404" lon="117.09639080760502"><ele>35.0</ele><time>2026-04-23T02:50:16Z</time></trkpt><trkpt lat="-20.71006128475989" lon="117.09636604357156"><ele>35.33333333333333</ele><time>2026-04-23T02:50:17Z</time></trkpt><trkpt lat="-20.71024738329715" lon="117.09634534328026"><ele>35.666666666666664</ele><time>2026-04-23T02:50:18Z</time></trkpt><trkpt lat="-20.710436292405166" lon="117.09632468442487"><ele>36.0</ele><time>2026-04-23T02:50:19Z</time></trkpt><trkpt lat="-20.71063379408403" lon="117.0963006321103"><ele>36.0</ele><time>2026-04-23T02:50:20Z</time></trkpt><trkpt lat="-20.710826563796065" lon="117.09627543669232"><ele>36.0</ele><time>2026-04-23T02:50:21Z</time></trkpt><trkpt lat="-20.71103277616295" lon="117.09624597830503"><ele>36.0</ele><time>2026-04-23T02:50:22Z</time></trkpt><trkpt lat="-20.711244860547605" lon="117.0962199927141"><ele>35.666666666666664</ele><time>2026-04-23T02:50:23Z</time></trkpt><trkpt lat="-20.711461019578522" lon="117.09619854051464"><ele>35.33333333333333</ele><time>2026-04-23T02:50:24Z</time></trkpt><trkpt lat="-20.711690503171077" lon="117.09617527010647"><ele>35.0</ele><time>2026-04-23T02:50:25Z</time></trkpt><trkpt lat="-20.711919757272714" lon="117.09615037910785"><ele>35.0</ele><time>2026-04-23T02:50:26Z</time></trkpt><trkpt lat="-20.712126928118344" lon="117.09612567885651"><ele>35.0</ele><time>2026-04-23T02:50:27Z</time></trkpt><trkpt lat="-20.712317546053125" lon="117.0961007082242"><ele>35.0</ele><time>2026-04-23T02:50:28Z</time></trkpt><trkpt lat="-20.712495112996326" lon="117.09607501582497"><ele>35.0</ele><time>2026-04-23T02:50:29Z</time></trkpt><trkpt lat="-20.712664812112703" lon="117.09604621609876"><ele>35.0</ele><time>2026-04-23T02:50:30Z</time></trkpt><trkpt lat="-20.712808555927325" lon="117.0960207739186"><ele>35.0</ele><time>2026-04-23T02:50:31Z</time></trkpt><trkpt lat="-20.712924303953372" lon="117.09599798710481"><ele>35.0</ele><time>2026-04-23T02:50:32Z</time></trkpt><trkpt lat="-20.713003836758404" lon="117.09598021377948"><ele>35.2</ele><time>2026-04-23T02:50:33Z</time></trkpt><trkpt lat="-20.713083334214073" lon="117.0959610697458"><ele>35.4</ele><time>2026-04-23T02:50:34Z</time></trkpt><trkpt lat="-20.713173766839734" lon="117.09594550479109"><ele>35.6</ele><time>2026-04-23T02:50:35Z</time></trkpt><trkpt lat="-20.713280453295532" lon="117.0959513211118"><ele>35.8</ele><time>2026-04-23T02:50:36Z</time></trkpt><trkpt lat="-20.713399912370143" lon="117.09596462658193"><ele>36.0</ele><time>2026-04-23T02:50:37Z</time></trkpt><trkpt lat="-20.71354263887759" lon="117.0959714645196"><ele>37.333333333333336</ele><time>2026-04-23T02:50:38Z</time></trkpt><trkpt lat="-20.71370434175971" lon="117.0959645350002"><ele>38.66666666666667</ele><time>2026-04-23T02:50:39Z</time></trkpt><trkpt lat="-20.713882175861553" lon="117.09594109039953"><ele>40.0</ele><time>2026-04-23T02:50:40Z</time></trkpt><trkpt lat="-20.714078465733113" lon="117.095914223629"><ele>40.0</ele><time>2026-04-23T02:50:41Z</time></trkpt><trkpt lat="-20.71428333296908" lon="117.09588391934821"><ele>40.0</ele><time>2026-04-23T02:50:42Z</time></trkpt><trkpt lat="-20.714504856672402" lon="117.09585428787543"><ele>40.0</ele><time>2026-04-23T02:50:43Z</time></trkpt><trkpt lat="-20.714732522921153" lon="117.09582262047613"><ele>38.5</ele><time>2026-04-23T02:50:44Z</time></trkpt><trkpt lat="-20.714959959716538" lon="117.09579659174145"><ele>37.0</ele><time>2026-04-23T02:50:45Z</time></trkpt><trkpt lat="-20.71519919314818" lon="117.09577265735678"><ele>41.0</ele><time>2026-04-23T02:50:46Z</time></trkpt><trkpt lat="-20.715441687903194" lon="117.09574061558223"><ele>45.0</ele><time>2026-04-23T02:50:47Z</time></trkpt><trkpt lat="-20.71568543816029" lon="117.09570408361796"><ele>45.0</ele><time>2026-04-23T02:50:48Z</time></trkpt><trkpt lat="-20.71591082969867" lon="117.09567614770121"><ele>45.0</ele><time>2026-04-23T02:50:49Z</time></trkpt><trkpt lat="-20.716119551624693" lon="117.09564769764252"><ele>45.0</ele><time>2026-04-23T02:50:50.001Z</time></trkpt><trkpt lat="-20.71631676133737" lon="117.09561665753259"><ele>44.333333333333336</ele><time>2026-04-23T02:50:51.001Z</time></trkpt><trkpt lat="-20.716518779754058" lon="117.09557918601112"><ele>43.66666666666667</ele><time>2026-04-23T02:50:52.001Z</time></trkpt><trkpt lat="-20.716707588644" lon="117.0955522157318"><ele>43.0</ele><time>2026-04-23T02:50:53.001Z</time></trkpt><trkpt lat="-20.71688350753312" lon="117.09552714835205"><ele>42.333333333333336</ele><time>2026-04-23T02:50:54.001Z</time></trkpt><trkpt lat="-20.717050176504273" lon="117.09550843778857"><ele>41.666666666666664</ele><time>2026-04-23T02:50:54.999Z</time></trkpt><trkpt lat="-20.71721891314771" lon="117.09549693201114"><ele>41.0</ele><time>2026-04-23T02:50:55.999Z</time></trkpt><trkpt lat="-20.717396698927928" lon="117.09548675748111"><ele>41.0</ele><time>2026-04-23T02:50:56.999Z</time></trkpt><trkpt lat="-20.717572987130676" lon="117.09547386039668"><ele>41.0</ele><time>2026-04-23T02:50:57.999Z</time></trkpt><trkpt lat="-20.71774618537033" lon="117.09545638964376"><ele>41.0</ele><time>2026-04-23T02:50:58.999Z</time></trkpt><trkpt lat="-20.71791045615472" lon="117.09543715222793"><ele>40.5</ele><time>2026-04-23T02:50:59.999Z</time></trkpt><trkpt lat="-20.718060869181212" lon="117.09541534197422"><ele>40.0</ele><time>2026-04-23T02:51:00.999Z</time></trkpt><trkpt lat="-20.71820272045797" lon="117.09539886642665"><ele>39.5</ele><time>2026-04-23T02:51:01.999Z</time></trkpt><trkpt lat="-20.718335677608156" lon="117.09538609858863"><ele>39.0</ele><time>2026-04-23T02:51:02.999Z</time></trkpt><trkpt lat="-20.71846445309424" lon="117.09537616897168"><ele>38.5</ele><time>2026-04-23T02:51:03.999Z</time></trkpt><trkpt lat="-20.718588714946645" lon="117.09536740278523"><ele>38.0</ele><time>2026-04-23T02:51:04.999Z</time></trkpt><trkpt lat="-20.718709442300263" lon="117.09535445229407"><ele>37.5</ele><time>2026-04-23T02:51:05.999Z</time></trkpt><trkpt lat="-20.718824660520532" lon="117.09534267992862"><ele>37.0</ele><time>2026-04-23T02:51:06.999Z</time></trkpt><trkpt lat="-20.718933614043543" lon="117.09533462740156"><ele>37.0</ele><time>2026-04-23T02:51:07.999Z</time></trkpt><trkpt lat="-20.71902987135147" lon="117.09532261530889"><ele>37.0</ele><time>2026-04-23T02:51:08.999Z</time></trkpt><trkpt lat="-20.719115701481513" lon="117.09531303299124"><ele>37.0</ele><time>2026-04-23T02:51:09.999Z</time></trkpt><trkpt lat="-20.719191349213993" lon="117.09530120706094"><ele>37.0</ele><time>2026-04-23T02:51:10.999Z</time></trkpt><trkpt lat="-20.719297956134707" lon="117.09526923197079"><ele>37.0</ele><time>2026-04-23T02:51:13Z</time></trkpt><trkpt lat="-20.719383438089498" lon="117.09525120415377"><ele>36.85714285714286</ele><time>2026-04-23T02:51:17Z</time></trkpt><trkpt lat="-20.7194514366932" lon="117.0951967583422"><ele>36.714285714285715</ele><time>2026-04-23T02:51:20Z</time></trkpt><trkpt lat="-20.7195157768922" lon="117.09521111295324"><ele>36.57142857142857</ele><time>2026-04-23T02:51:22Z</time></trkpt><trkpt lat="-20.719503169376715" lon="117.0952815871258"><ele>36.42857142857143</ele><time>2026-04-23T02:51:27Z</time></trkpt><trkpt lat="-20.71946495883209" lon="117.09535063767991"><ele>36.285714285714285</ele><time>2026-04-23T02:53:15Z</time></trkpt><trkpt lat="-20.71945853232129" lon="117.09542000503352"><ele>36.142857142857146</ele><time>2026-04-23T02:53:16Z</time></trkpt><trkpt lat="-20.719442913862217" lon="117.09549801466765"><ele>36.0</ele><time>2026-04-23T02:53:17Z</time></trkpt><trkpt lat="-20.71942104328904" lon="117.09558253849494"><ele>36.2</ele><time>2026-04-23T02:53:18Z</time></trkpt><trkpt lat="-20.719394784127157" lon="117.09567359659145"><ele>36.400000000000006</ele><time>2026-04-23T02:53:19Z</time></trkpt><trkpt lat="-20.719346339091018" lon="117.09576247797078"><ele>36.6</ele><time>2026-04-23T02:53:20Z</time></trkpt><trkpt lat="-20.71927044327577" lon="117.09584071813208"><ele>36.800000000000004</ele><time>2026-04-23T02:53:21Z</time></trkpt><trkpt lat="-20.719170908202422" lon="117.09590238441011"><ele>37.0</ele><time>2026-04-23T02:53:22Z</time></trkpt><trkpt lat="-20.71905333072064" lon="117.09594476785"><ele>37.0</ele><time>2026-04-23T02:53:23Z</time></trkpt><trkpt lat="-20.718919845989443" lon="117.09597414016514"><ele>37.0</ele><time>2026-04-23T02:53:24Z</time></trkpt><trkpt lat="-20.718781978436454" lon="117.09598984282856"><ele>37.0</ele><time>2026-04-23T02:53:25Z</time></trkpt><trkpt lat="-20.71863970490726" lon="117.09599241237818"><ele>37.0</ele><time>2026-04-23T02:53:26Z</time></trkpt><trkpt lat="-20.71846337615595" lon="117.09598511169855"><ele>38.0</ele><time>2026-04-23T02:53:27Z</time></trkpt><trkpt lat="-20.718302426150384" lon="117.09597687635898"><ele>39.0</ele><time>2026-04-23T02:53:28Z</time></trkpt><trkpt lat="-20.71812703663344" lon="117.09596600652769"><ele>40.0</ele><time>2026-04-23T02:53:29Z</time></trkpt><trkpt lat="-20.717948058492908" lon="117.09595690825175"><ele>40.0</ele><time>2026-04-23T02:53:30Z</time></trkpt><trkpt lat="-20.71778212330652" lon="117.0959470397996"><ele>40.0</ele><time>2026-04-23T02:53:31Z</time></trkpt><trkpt lat="-20.717600128214627" lon="117.09593888969968"><ele>40.0</ele><time>2026-04-23T02:53:32Z</time></trkpt><trkpt lat="-20.717431731082357" lon="117.09594289778461"><ele>40.333333333333336</ele><time>2026-04-23T02:53:33Z</time></trkpt><trkpt lat="-20.717255317117875" lon="117.09595175940805"><ele>40.666666666666664</ele><time>2026-04-23T02:53:34Z</time></trkpt><trkpt lat="-20.717071022704864" lon="117.09596598309733"><ele>41.0</ele><time>2026-04-23T02:53:35Z</time></trkpt><trkpt lat="-20.716876499144448" lon="117.0959834181441"><ele>41.33333333333333</ele><time>2026-04-23T02:53:36Z</time></trkpt><trkpt lat="-20.716662399638086" lon="117.09600380396265"><ele>41.666666666666664</ele><time>2026-04-23T02:53:37Z</time></trkpt><trkpt lat="-20.71643965378421" lon="117.09602555637558"><ele>42.0</ele><time>2026-04-23T02:53:38Z</time></trkpt><trkpt lat="-20.716218165612318" lon="117.0960556414565"><ele>41.333333333333336</ele><time>2026-04-23T02:53:39Z</time></trkpt><trkpt lat="-20.71599122901062" lon="117.0960788389012"><ele>40.66666666666667</ele><time>2026-04-23T02:53:40Z</time></trkpt><trkpt lat="-20.715774110883924" lon="117.09611150701795"><ele>40.0</ele><time>2026-04-23T02:53:41Z</time></trkpt><trkpt lat="-20.71554659240266" lon="117.0961310328625"><ele>40.0</ele><time>2026-04-23T02:53:42Z</time></trkpt><trkpt lat="-20.715318388419323" lon="117.09615684694546"><ele>40.0</ele><time>2026-04-23T02:53:43Z</time></trkpt><trkpt lat="-20.715089702885425" lon="117.09618343844564"><ele>38.5</ele><time>2026-04-23T02:53:44Z</time></trkpt><trkpt lat="-20.71486635663249" lon="117.09621069068564"><ele>37.0</ele><time>2026-04-23T02:53:45Z</time></trkpt><trkpt lat="-20.714641595500137" lon="117.09621995965452"><ele>37.0</ele><time>2026-04-23T02:53:46Z</time></trkpt><trkpt lat="-20.714419234164627" lon="117.09624539668303"><ele>37.0</ele><time>2026-04-23T02:53:47Z</time></trkpt><trkpt lat="-20.714197655132583" lon="117.09627459309549"><ele>37.0</ele><time>2026-04-23T02:53:48Z</time></trkpt><trkpt lat="-20.71397741080578" lon="117.09630318889904"><ele>36.5</ele><time>2026-04-23T02:53:49Z</time></trkpt><trkpt lat="-20.713752689369347" lon="117.09633053260761"><ele>36.0</ele><time>2026-04-23T02:53:50Z</time></trkpt><trkpt lat="-20.71352987409943" lon="117.09635752996823"><ele>36.0</ele><time>2026-04-23T02:53:51Z</time></trkpt><trkpt lat="-20.713301329528736" lon="117.09638593463592"><ele>36.0</ele><time>2026-04-23T02:53:52Z</time></trkpt><trkpt lat="-20.713073276194667" lon="117.09641341030498"><ele>36.0</ele><time>2026-04-23T02:53:53Z</time></trkpt><trkpt lat="-20.71283443628038" lon="117.09644087667894"><ele>36.0</ele><time>2026-04-23T02:53:54Z</time></trkpt><trkpt lat="-20.712585628224844" lon="117.09646757352297"><ele>35.5</ele><time>2026-04-23T02:53:55Z</time></trkpt><trkpt lat="-20.71236388757619" lon="117.09650814529876"><ele>35.0</ele><time>2026-04-23T02:53:56Z</time></trkpt><trkpt lat="-20.712136066712574" lon="117.09652825419596"><ele>35.0</ele><time>2026-04-23T02:53:57Z</time></trkpt><trkpt lat="-20.711906913214612" lon="117.09654818771418"><ele>35.0</ele><time>2026-04-23T02:53:58Z</time></trkpt><trkpt lat="-20.71168259467572" lon="117.09658431130175"><ele>36.0</ele><time>2026-04-23T02:53:59Z</time></trkpt><trkpt lat="-20.711448246319282" lon="117.0966081469602"><ele>37.0</ele><time>2026-04-23T02:54:00Z</time></trkpt><trkpt lat="-20.711209062850756" lon="117.09662300892654"><ele>37.0</ele><time>2026-04-23T02:54:01Z</time></trkpt><trkpt lat="-20.710974904560974" lon="117.09664945733877"><ele>37.0</ele><time>2026-04-23T02:54:02Z</time></trkpt><trkpt lat="-20.71074071151432" lon="117.09667769281528"><ele>37.0</ele><time>2026-04-23T02:54:03Z</time></trkpt><trkpt lat="-20.710506812852252" lon="117.09670667921732"><ele>37.0</ele><time>2026-04-23T02:54:04Z</time></trkpt><trkpt lat="-20.710273982289564" lon="117.09675230403467"><ele>37.5</ele><time>2026-04-23T02:54:05Z</time></trkpt><trkpt lat="-20.71003607295698" lon="117.09676563637721"><ele>38.0</ele><time>2026-04-23T02:54:06Z</time></trkpt><trkpt lat="-20.709799409757245" lon="117.09679618092031"><ele>38.0</ele><time>2026-04-23T02:54:07Z</time></trkpt><trkpt lat="-20.709562507983325" lon="117.09682752342748"><ele>38.0</ele><time>2026-04-23T02:54:08Z</time></trkpt><trkpt lat="-20.70931500643049" lon="117.09686055767939"><ele>39.0</ele><time>2026-04-23T02:54:09Z</time></trkpt><trkpt lat="-20.70906662402979" lon="117.09689399470984"><ele>40.0</ele><time>2026-04-23T02:54:10Z</time></trkpt><trkpt lat="-20.708813795217743" lon="117.09692804958766"><ele>39.5</ele><time>2026-04-23T02:54:11Z</time></trkpt><trkpt lat="-20.708556898817783" lon="117.09696292935925"><ele>39.0</ele><time>2026-04-23T02:54:12Z</time></trkpt><trkpt lat="-20.70829884584011" lon="117.09699847155716"><ele>39.0</ele><time>2026-04-23T02:54:13Z</time></trkpt><trkpt lat="-20.708024430519085" lon="117.09703774635678"><ele>39.0</ele><time>2026-04-23T02:54:14Z</time></trkpt><trkpt lat="-20.707909181178557" lon="117.0970563743232"><ele>39.0</ele><time>2026-04-23T02:54:15Z</time></trkpt><trkpt lat="-20.707725571426298" lon="117.09709629780237"><ele>38.666666666666664</ele><time>2026-04-23T02:54:16Z</time></trkpt><trkpt lat="-20.707548919345598" lon="117.09715992062667"><ele>38.33333333333333</ele><time>2026-04-23T02:54:17Z</time></trkpt><trkpt lat="-20.70736401350153" lon="117.09721413428095"><ele>38.0</ele><time>2026-04-23T02:54:18.001Z</time></trkpt><trkpt lat="-20.707180264350875" lon="117.09729232263167"><ele>38.0</ele><time>2026-04-23T02:54:19.001Z</time></trkpt><trkpt lat="-20.70699719321971" lon="117.09738867976873"><ele>38.0</ele><time>2026-04-23T02:54:20.001Z</time></trkpt><trkpt lat="-20.70681712736335" lon="117.09749890571327"><ele>38.0</ele><time>2026-04-23T02:54:21.001Z</time></trkpt><trkpt lat="-20.70663524796895" lon="117.0976237358323"><ele>38.5</ele><time>2026-04-23T02:54:22.001Z</time></trkpt><trkpt lat="-20.706445469386452" lon="117.09776068444594"><ele>39.0</ele><time>2026-04-23T02:54:23.001Z</time></trkpt><trkpt lat="-20.70625106325503" lon="117.09789363353798"><ele>36.5</ele><time>2026-04-23T02:54:24.001Z</time></trkpt><trkpt lat="-20.70605600974782" lon="117.09802193795326"><ele>34.0</ele><time>2026-04-23T02:54:25.001Z</time></trkpt><trkpt lat="-20.705861575069104" lon="117.09814653687144"><ele>36.0</ele><time>2026-04-23T02:54:26.001Z</time></trkpt><trkpt lat="-20.705662479286477" lon="117.09827642673456"><ele>38.0</ele><time>2026-04-23T02:54:27.001Z</time></trkpt><trkpt lat="-20.705460502846094" lon="117.09841422346723"><ele>38.0</ele><time>2026-04-23T02:54:28.001Z</time></trkpt><trkpt lat="-20.705258265755273" lon="117.09854616698067"><ele>38.0</ele><time>2026-04-23T02:54:29.001Z</time></trkpt><trkpt lat="-20.705058281173823" lon="117.09867303015119"><ele>37.0</ele><time>2026-04-23T02:54:30.001Z</time></trkpt><trkpt lat="-20.704856387893578" lon="117.09880304787644"><ele>36.0</ele><time>2026-04-23T02:54:31.001Z</time></trkpt><trkpt lat="-20.704652512434983" lon="117.09893687488501"><ele>36.0</ele><time>2026-04-23T02:54:32.001Z</time></trkpt><trkpt lat="-20.70444583516565" lon="117.0990764784868"><ele>36.0</ele><time>2026-04-23T02:54:33.001Z</time></trkpt><trkpt lat="-20.704241399958384" lon="117.0992157775727"><ele>36.0</ele><time>2026-04-23T02:54:34.001Z</time></trkpt><trkpt lat="-20.704033273644207" lon="117.09935462414084"><ele>36.0</ele><time>2026-04-23T02:54:35.001Z</time></trkpt><trkpt lat="-20.70381371596133" lon="117.09949578453117"><ele>36.0</ele><time>2026-04-23T02:54:36.001Z</time></trkpt><trkpt lat="-20.703603199047855" lon="117.09963194484861"><ele>36.0</ele><time>2026-04-23T02:54:37.001Z</time></trkpt><trkpt lat="-20.703405152177282" lon="117.0997625735484"><ele>37.5</ele><time>2026-04-23T02:54:38.001Z</time></trkpt><trkpt lat="-20.703199487453524" lon="117.09989802306048"><ele>39.0</ele><time>2026-04-23T02:54:39.001Z</time></trkpt><trkpt lat="-20.70300318889217" lon="117.10002780947981"><ele>39.333333333333336</ele><time>2026-04-23T02:54:40.001Z</time></trkpt><trkpt lat="-20.70283661816445" lon="117.10013969861376"><ele>39.66666666666667</ele><time>2026-04-23T02:54:41.001Z</time></trkpt><trkpt lat="-20.702679164595597" lon="117.1002543951999"><ele>40.0</ele><time>2026-04-23T02:54:42.001Z</time></trkpt><trkpt lat="-20.70251119531174" lon="117.10035727708113"><ele>43.0</ele><time>2026-04-23T02:54:43.001Z</time></trkpt><trkpt lat="-20.702371294694714" lon="117.10046878481552"><ele>46.0</ele><time>2026-04-23T02:54:44.001Z</time></trkpt><trkpt lat="-20.702234419297646" lon="117.10057012782772"><ele>49.0</ele><time>2026-04-23T02:54:45.001Z</time></trkpt><trkpt lat="-20.702087407253874" lon="117.10065681763723"><ele>47.33333333333333</ele><time>2026-04-23T02:54:46.001Z</time></trkpt><trkpt lat="-20.701944505094428" lon="117.10075323560906"><ele>45.666666666666664</ele><time>2026-04-23T02:54:47.001Z</time></trkpt><trkpt lat="-20.70180307154335" lon="117.10084917165342"><ele>44.0</ele><time>2026-04-23T02:54:48.001Z</time></trkpt><trkpt lat="-20.70165663048386" lon="117.1009377159997"><ele>42.0</ele><time>2026-04-23T02:54:49.001Z</time></trkpt><trkpt lat="-20.7015059551524" lon="117.10103145763723"><ele>40.0</ele><time>2026-04-23T02:54:50.001Z</time></trkpt><trkpt lat="-20.701334718642066" lon="117.1010665912086"><ele>38.0</ele><time>2026-04-23T02:54:51.001Z</time></trkpt><trkpt lat="-20.701152799711775" lon="117.10109280915859"><ele>35.33333333333333</ele><time>2026-04-23T02:54:52.001Z</time></trkpt><trkpt lat="-20.700947364568652" lon="117.10110294499535"><ele>32.666666666666664</ele><time>2026-04-23T02:54:53.001Z</time></trkpt><trkpt lat="-20.700746280464998" lon="117.10109728319216"><ele>30.0</ele><time>2026-04-23T02:54:54.001Z</time></trkpt><trkpt lat="-20.700552686127434" lon="117.10107094877948"><ele>30.0</ele><time>2026-04-23T02:54:55.001Z</time></trkpt><trkpt lat="-20.700365936529177" lon="117.10103580334365"><ele>30.0</ele><time>2026-04-23T02:54:56.001Z</time></trkpt><trkpt lat="-20.700152793939335" lon="117.10098404503782"><ele>30.0</ele><time>2026-04-23T02:54:57.001Z</time></trkpt><trkpt lat="-20.69993094724884" lon="117.10092442343952"><ele>30.0</ele><time>2026-04-23T02:54:58.001Z</time></trkpt><trkpt lat="-20.69971908761661" lon="117.1008674858961"><ele>30.0</ele><time>2026-04-23T02:54:59.001Z</time></trkpt><trkpt lat="-20.69948879869022" lon="117.10080907532038"><ele>30.0</ele><time>2026-04-23T02:55:00.001Z</time></trkpt><trkpt lat="-20.699267556023443" lon="117.10075361347971"><ele>30.0</ele><time>2026-04-23T02:55:01.001Z</time></trkpt><trkpt lat="-20.69904428584128" lon="117.1006976433868"><ele>30.0</ele><time>2026-04-23T02:55:02.001Z</time></trkpt><trkpt lat="-20.698828181555545" lon="117.1006595993277"><ele>30.0</ele><time>2026-04-23T02:55:03.001Z</time></trkpt><trkpt lat="-20.6986166009642" lon="117.10060266969269"><ele>30.0</ele><time>2026-04-23T02:55:04.001Z</time></trkpt><trkpt lat="-20.69839515020067" lon="117.10054996736172"><ele>29.333333333333336</ele><time>2026-04-23T02:55:05.001Z</time></trkpt><trkpt lat="-20.69819248168656" lon="117.10048465226117"><ele>28.666666666666668</ele><time>2026-04-23T02:55:06.001Z</time></trkpt><trkpt lat="-20.697988007983565" lon="117.10043251654439"><ele>28.0</ele><time>2026-04-23T02:55:07Z</time></trkpt><trkpt lat="-20.697793956303727" lon="117.1003827614569"><ele>27.666666666666668</ele><time>2026-04-23T02:55:08Z</time></trkpt><trkpt lat="-20.697596508788575" lon="117.10033217199471"><ele>27.333333333333336</ele><time>2026-04-23T02:55:09Z</time></trkpt><trkpt lat="-20.697399133422813" lon="117.10028162034321"><ele>27.0</ele><time>2026-04-23T02:55:10Z</time></trkpt><trkpt lat="-20.697184141934738" lon="117.10024285755429"><ele>27.0</ele><time>2026-04-23T02:55:11Z</time></trkpt><trkpt lat="-20.697003033159653" lon="117.10017980686884"><ele>27.0</ele><time>2026-04-23T02:55:12Z</time></trkpt><trkpt lat="-20.696814242100878" lon="117.10013554027726"><ele>27.0</ele><time>2026-04-23T02:55:13Z</time></trkpt><trkpt lat="-20.696635480287522" lon="117.10009971410163"><ele>26.666666666666664</ele><time>2026-04-23T02:55:14Z</time></trkpt><trkpt lat="-20.696466741506022" lon="117.10007446612231"><ele>26.333333333333332</ele><time>2026-04-23T02:55:15Z</time></trkpt><trkpt lat="-20.696290649511223" lon="117.10005881158156"><ele>26.0</ele><time>2026-04-23T02:55:16Z</time></trkpt><trkpt lat="-20.696123778136002" lon="117.10005707343224"><ele>25.0</ele><time>2026-04-23T02:55:17Z</time></trkpt><trkpt lat="-20.69596048958734" lon="117.10007104023899"><ele>24.0</ele><time>2026-04-23T02:55:18Z</time></trkpt><trkpt lat="-20.69579761009868" lon="117.10012133717359"><ele>23.0</ele><time>2026-04-23T02:55:19Z</time></trkpt><trkpt lat="-20.695631647515558" lon="117.10017475023051"><ele>23.0</ele><time>2026-04-23T02:55:20Z</time></trkpt><trkpt lat="-20.695455768156048" lon="117.10025360092754"><ele>23.0</ele><time>2026-04-23T02:55:21Z</time></trkpt><trkpt lat="-20.69529492748389" lon="117.10034964010991"><ele>23.0</ele><time>2026-04-23T02:55:22Z</time></trkpt><trkpt lat="-20.695145856713598" lon="117.1004707555934"><ele>23.0</ele><time>2026-04-23T02:55:23Z</time></trkpt><trkpt lat="-20.69500051752275" lon="117.10061918170061"><ele>23.0</ele><time>2026-04-23T02:55:24Z</time></trkpt><trkpt lat="-20.694862371373976" lon="117.10078508420816"><ele>23.0</ele><time>2026-04-23T02:55:25Z</time></trkpt><trkpt lat="-20.69471823053717" lon="117.10097341077416"><ele>23.0</ele><time>2026-04-23T02:55:26Z</time></trkpt><trkpt lat="-20.694573394172423" lon="117.1011705288414"><ele>23.0</ele><time>2026-04-23T02:55:27Z</time></trkpt><trkpt lat="-20.6944160535392" lon="117.10138161140178"><ele>23.5</ele><time>2026-04-23T02:55:28Z</time></trkpt><trkpt lat="-20.694268144412426" lon="117.10157555883215"><ele>24.0</ele><time>2026-04-23T02:55:29Z</time></trkpt><trkpt lat="-20.694117565460587" lon="117.10177464454947"><ele>24.0</ele><time>2026-04-23T02:55:30Z</time></trkpt><trkpt lat="-20.693955163837195" lon="117.10197866427447"><ele>24.0</ele><time>2026-04-23T02:55:31Z</time></trkpt><trkpt lat="-20.69380683806764" lon="117.10217376054155"><ele>24.0</ele><time>2026-04-23T02:55:32Z</time></trkpt><trkpt lat="-20.69365541252146" lon="117.10236999174656"><ele>24.0</ele><time>2026-04-23T02:55:33Z</time></trkpt><trkpt lat="-20.693515006651108" lon="117.1025605473064"><ele>22.333333333333332</ele><time>2026-04-23T02:55:34Z</time></trkpt><trkpt lat="-20.693377839740673" lon="117.10274904556806"><ele>20.666666666666664</ele><time>2026-04-23T02:55:35Z</time></trkpt><trkpt lat="-20.693242661967464" lon="117.10293239005154"><ele>19.0</ele><time>2026-04-23T02:55:36Z</time></trkpt><trkpt lat="-20.693098913703125" lon="117.10311817458943"><ele>19.5</ele><time>2026-04-23T02:55:37Z</time></trkpt><trkpt lat="-20.692957227177754" lon="117.10330309155583"><ele>20.0</ele><time>2026-04-23T02:55:38Z</time></trkpt><trkpt lat="-20.69281202061021" lon="117.10348949194282"><ele>21.0</ele><time>2026-04-23T02:55:39Z</time></trkpt><trkpt lat="-20.692669239707843" lon="117.10367576039766"><ele>22.0</ele><time>2026-04-23T02:55:40Z</time></trkpt><trkpt lat="-20.692531488909818" lon="117.10385504635897"><ele>23.0</ele><time>2026-04-23T02:55:41Z</time></trkpt><trkpt lat="-20.692396463119554" lon="117.10403435877495"><ele>22.0</ele><time>2026-04-23T02:55:42Z</time></trkpt><trkpt lat="-20.692258385150204" lon="117.10421516258381"><ele>21.0</ele><time>2026-04-23T02:55:43Z</time></trkpt><trkpt lat="-20.692120781732413" lon="117.10439486544942"><ele>20.0</ele><time>2026-04-23T02:55:44Z</time></trkpt><trkpt lat="-20.691991132855648" lon="117.1045688955033"><ele>20.333333333333336</ele><time>2026-04-23T02:55:45Z</time></trkpt><trkpt lat="-20.691869343435233" lon="117.1047371325276"><ele>20.666666666666668</ele><time>2026-04-23T02:55:46Z</time></trkpt><trkpt lat="-20.69174209560394" lon="117.10490319474499"><ele>21.0</ele><time>2026-04-23T02:55:47Z</time></trkpt><trkpt lat="-20.691613188152214" lon="117.105067448237"><ele>21.333333333333332</ele><time>2026-04-23T02:55:48Z</time></trkpt><trkpt lat="-20.691477382227117" lon="117.10524394463337"><ele>21.666666666666664</ele><time>2026-04-23T02:55:49Z</time></trkpt><trkpt lat="-20.69134372843633" lon="117.10542368074219"><ele>22.0</ele><time>2026-04-23T02:55:50Z</time></trkpt><trkpt lat="-20.691212001654126" lon="117.10560473554357"><ele>20.333333333333332</ele><time>2026-04-23T02:55:51Z</time></trkpt><trkpt lat="-20.691080458836016" lon="117.1057833166688"><ele>18.666666666666668</ele><time>2026-04-23T02:55:52Z</time></trkpt><trkpt lat="-20.690947729421225" lon="117.10595876043945"><ele>17.0</ele><time>2026-04-23T02:55:53Z</time></trkpt><trkpt lat="-20.69081440591475" lon="117.10613568424945"><ele>17.0</ele><time>2026-04-23T02:55:54Z</time></trkpt><trkpt lat="-20.69068459917329" lon="117.10631015545239"><ele>17.0</ele><time>2026-04-23T02:55:55Z</time></trkpt><trkpt lat="-20.690550272137045" lon="117.10649886767307"><ele>17.0</ele><time>2026-04-23T02:55:56Z</time></trkpt><trkpt lat="-20.69041902080355" lon="117.10668119060372"><ele>18.0</ele><time>2026-04-23T02:55:57Z</time></trkpt><trkpt lat="-20.690281598402933" lon="117.10687041743898"><ele>19.0</ele><time>2026-04-23T02:55:58Z</time></trkpt><trkpt lat="-20.690147469059973" lon="117.10706158599888"><ele>20.0</ele><time>2026-04-23T02:55:59Z</time></trkpt><trkpt lat="-20.690010822802915" lon="117.1072505499428"><ele>19.5</ele><time>2026-04-23T02:56:00Z</time></trkpt><trkpt lat="-20.689870418839572" lon="117.10744345291779"><ele>19.0</ele><time>2026-04-23T02:56:01Z</time></trkpt><trkpt lat="-20.689731411912643" lon="117.10763184554135"><ele>19.0</ele><time>2026-04-23T02:56:02Z</time></trkpt><trkpt lat="-20.689591153039405" lon="117.10781986678201"><ele>19.0</ele><time>2026-04-23T02:56:03Z</time></trkpt><trkpt lat="-20.689456377041047" lon="117.10800391711531"><ele>19.0</ele><time>2026-04-23T02:56:04.001Z</time></trkpt><trkpt lat="-20.68931269133491" lon="117.10819699347135"><ele>18.333333333333332</ele><time>2026-04-23T02:56:05.001Z</time></trkpt><trkpt lat="-20.689172167756567" lon="117.10838121308032"><ele>17.666666666666668</ele><time>2026-04-23T02:56:06.001Z</time></trkpt><trkpt lat="-20.68902908953607" lon="117.10856309456767"><ele>17.0</ele><time>2026-04-23T02:56:07.001Z</time></trkpt><trkpt lat="-20.688885226185853" lon="117.10875142913373"><ele>17.0</ele><time>2026-04-23T02:56:08.001Z</time></trkpt><trkpt lat="-20.688748534631706" lon="117.10894610200702"><ele>17.0</ele><time>2026-04-23T02:56:09.001Z</time></trkpt><trkpt lat="-20.68862857518211" lon="117.10913747030612"><ele>17.0</ele><time>2026-04-23T02:56:10.001Z</time></trkpt><trkpt lat="-20.68851278518971" lon="117.10931653179705"><ele>17.0</ele><time>2026-04-23T02:56:11.001Z</time></trkpt><trkpt lat="-20.688403563183368" lon="117.10948894278926"><ele>17.0</ele><time>2026-04-23T02:56:12.001Z</time></trkpt><trkpt lat="-20.688294513819763" lon="117.10966427588626"><ele>17.0</ele><time>2026-04-23T02:56:13.001Z</time></trkpt><trkpt lat="-20.68817942840591" lon="117.10984720848734"><ele>18.333333333333336</ele><time>2026-04-23T02:56:14.001Z</time></trkpt><trkpt lat="-20.688054515464884" lon="117.1100430287577"><ele>19.666666666666668</ele><time>2026-04-23T02:56:15.001Z</time></trkpt><trkpt lat="-20.687935490368297" lon="117.11023275922847"><ele>21.0</ele><time>2026-04-23T02:56:16.001Z</time></trkpt><trkpt lat="-20.687808956886602" lon="117.11043222635844"><ele>20.333333333333332</ele><time>2026-04-23T02:56:17.001Z</time></trkpt><trkpt lat="-20.6876782161272" lon="117.11062485160468"><ele>19.666666666666664</ele><time>2026-04-23T02:56:18.001Z</time></trkpt><trkpt lat="-20.68754313635724" lon="117.11081243720481"><ele>19.0</ele><time>2026-04-23T02:56:19.001Z</time></trkpt><trkpt lat="-20.687405140152972" lon="117.11100403345218"><ele>19.0</ele><time>2026-04-23T02:56:20.001Z</time></trkpt><trkpt lat="-20.687264822135045" lon="117.11119200246114"><ele>19.0</ele><time>2026-04-23T02:56:21.001Z</time></trkpt><trkpt lat="-20.68712421729722" lon="117.11137507107311"><ele>19.0</ele><time>2026-04-23T02:56:22.001Z</time></trkpt><trkpt lat="-20.686974149029442" lon="117.11155886492703"><ele>20.0</ele><time>2026-04-23T02:56:23.001Z</time></trkpt><trkpt lat="-20.68682356697739" lon="117.11174702941304"><ele>21.0</ele><time>2026-04-23T02:56:24.001Z</time></trkpt><trkpt lat="-20.686669571737134" lon="117.11194521916174"><ele>21.0</ele><time>2026-04-23T02:56:25.001Z</time></trkpt><trkpt lat="-20.686522207258317" lon="117.11213636484658"><ele>21.0</ele><time>2026-04-23T02:56:26.001Z</time></trkpt><trkpt lat="-20.686371773611363" lon="117.112336227378"><ele>21.0</ele><time>2026-04-23T02:56:27.001Z</time></trkpt><trkpt lat="-20.686223831947594" lon="117.11252889340284"><ele>21.0</ele><time>2026-04-23T02:56:28.001Z</time></trkpt><trkpt lat="-20.68607289113996" lon="117.11272686135509"><ele>19.0</ele><time>2026-04-23T02:56:29.001Z</time></trkpt><trkpt lat="-20.685918879326618" lon="117.11292381576136"><ele>17.0</ele><time>2026-04-23T02:56:30.001Z</time></trkpt><trkpt lat="-20.685762686364686" lon="117.11311946049771"><ele>18.0</ele><time>2026-04-23T02:56:31.001Z</time></trkpt><trkpt lat="-20.685607293432767" lon="117.1133162500906"><ele>19.0</ele><time>2026-04-23T02:56:32.001Z</time></trkpt><trkpt lat="-20.685459685597348" lon="117.1135042723647"><ele>19.0</ele><time>2026-04-23T02:56:33.001Z</time></trkpt><trkpt lat="-20.685320260901992" lon="117.11368813961222"><ele>19.0</ele><time>2026-04-23T02:56:34.001Z</time></trkpt><trkpt lat="-20.685195646295444" lon="117.11386187687914"><ele>19.0</ele><time>2026-04-23T02:56:35.001Z</time></trkpt><trkpt lat="-20.685078283876887" lon="117.11403717974332"><ele>18.666666666666664</ele><time>2026-04-23T02:56:36.001Z</time></trkpt><trkpt lat="-20.68497317118296" lon="117.11422990016463"><ele>18.333333333333332</ele><time>2026-04-23T02:56:37.001Z</time></trkpt><trkpt lat="-20.684876880903" lon="117.11443805591894"><ele>18.0</ele><time>2026-04-23T02:56:38.001Z</time></trkpt><trkpt lat="-20.684756122161804" lon="117.11462950097193"><ele>18.0</ele><time>2026-04-23T02:56:39.001Z</time></trkpt><trkpt lat="-20.68468435382217" lon="117.1148507496315"><ele>18.0</ele><time>2026-04-23T02:56:40.001Z</time></trkpt><trkpt lat="-20.684579032487616" lon="117.11505355456953"><ele>18.0</ele><time>2026-04-23T02:56:41.001Z</time></trkpt><trkpt lat="-20.68447031125383" lon="117.11524888199739"><ele>17.666666666666668</ele><time>2026-04-23T02:56:42.001Z</time></trkpt><trkpt lat="-20.684351929926812" lon="117.1154468298287"><ele>17.333333333333336</ele><time>2026-04-23T02:56:43.001Z</time></trkpt><trkpt lat="-20.68421652040178" lon="117.11564277064538"><ele>17.0</ele><time>2026-04-23T02:56:44.001Z</time></trkpt><trkpt lat="-20.684067300994872" lon="117.11583588866678"><ele>18.0</ele><time>2026-04-23T02:56:45.001Z</time></trkpt><trkpt lat="-20.683918878359567" lon="117.11602761070192"><ele>19.0</ele><time>2026-04-23T02:56:46.001Z</time></trkpt><trkpt lat="-20.683773820977134" lon="117.11622707395182"><ele>19.0</ele><time>2026-04-23T02:56:47.001Z</time></trkpt><trkpt lat="-20.683623694282222" lon="117.11642604313991"><ele>19.0</ele><time>2026-04-23T02:56:48.001Z</time></trkpt><trkpt lat="-20.68346797776709" lon="117.11662975388145"><ele>18.5</ele><time>2026-04-23T02:56:49.001Z</time></trkpt><trkpt lat="-20.68331358679232" lon="117.11683639515901"><ele>18.0</ele><time>2026-04-23T02:56:50.001Z</time></trkpt><trkpt lat="-20.683153844348446" lon="117.1170502667403"><ele>18.0</ele><time>2026-04-23T02:56:51.001Z</time></trkpt><trkpt lat="-20.682990608641287" lon="117.11725900231248"><ele>18.0</ele><time>2026-04-23T02:56:52.001Z</time></trkpt><trkpt lat="-20.682835470940166" lon="117.1174673778127"><ele>16.0</ele><time>2026-04-23T02:56:53.001Z</time></trkpt><trkpt lat="-20.68268231112366" lon="117.11767439340953"><ele>14.0</ele><time>2026-04-23T02:56:54.001Z</time></trkpt><trkpt lat="-20.682527584445562" lon="117.11788129603131"><ele>14.0</ele><time>2026-04-23T02:56:55.001Z</time></trkpt><trkpt lat="-20.6823741375844" lon="117.1180905192899"><ele>14.0</ele><time>2026-04-23T02:56:56.001Z</time></trkpt><trkpt lat="-20.682221224373155" lon="117.11828939274845"><ele>16.5</ele><time>2026-04-23T02:56:57.001Z</time></trkpt><trkpt lat="-20.68206744981774" lon="117.11849146608925"><ele>19.0</ele><time>2026-04-23T02:56:58.001Z</time></trkpt><trkpt lat="-20.68192051797094" lon="117.11869135869024"><ele>19.0</ele><time>2026-04-23T02:56:59.001Z</time></trkpt><trkpt lat="-20.681784326743248" lon="117.11887439584974"><ele>19.0</ele><time>2026-04-23T02:57:00.001Z</time></trkpt><trkpt lat="-20.681656965810095" lon="117.11904194676355"><ele>19.0</ele><time>2026-04-23T02:57:01.001Z</time></trkpt><trkpt lat="-20.681536610059787" lon="117.1191989995808"><ele>18.333333333333332</ele><time>2026-04-23T02:57:02.001Z</time></trkpt><trkpt lat="-20.681407049733714" lon="117.11934659759598"><ele>17.666666666666668</ele><time>2026-04-23T02:57:03.001Z</time></trkpt><trkpt lat="-20.68127550145103" lon="117.11947547624675"><ele>17.0</ele><time>2026-04-23T02:57:04.001Z</time></trkpt><trkpt lat="-20.681134900571056" lon="117.1195840804662"><ele>16.0</ele><time>2026-04-23T02:57:05.001Z</time></trkpt><trkpt lat="-20.680977451196576" lon="117.11967800668083"><ele>15.0</ele><time>2026-04-23T02:57:06.001Z</time></trkpt><trkpt lat="-20.680812631511444" lon="117.1197539247135"><ele>14.0</ele><time>2026-04-23T02:57:07.001Z</time></trkpt><trkpt lat="-20.680641422227822" lon="117.11981649044837"><ele>14.0</ele><time>2026-04-23T02:57:08.001Z</time></trkpt><trkpt lat="-20.680479233519627" lon="117.11985283800367"><ele>14.0</ele><time>2026-04-23T02:57:09.001Z</time></trkpt><trkpt lat="-20.680328027732124" lon="117.1198683146275"><ele>14.0</ele><time>2026-04-23T02:57:10.001Z</time></trkpt><trkpt lat="-20.680184435436686" lon="117.11986688039542"><ele>14.0</ele><time>2026-04-23T02:57:11.001Z</time></trkpt><trkpt lat="-20.680054951700097" lon="117.11985337472959"><ele>14.0</ele><time>2026-04-23T02:57:12.001Z</time></trkpt><trkpt lat="-20.67993221282329" lon="117.11984000803912"><ele>14.0</ele><time>2026-04-23T02:57:13.001Z</time></trkpt><trkpt lat="-20.679815832859536" lon="117.11983673973418"><ele>14.0</ele><time>2026-04-23T02:57:14.001Z</time></trkpt><trkpt lat="-20.679693914578625" lon="117.11984712129055"><ele>14.0</ele><time>2026-04-23T02:57:15.001Z</time></trkpt><trkpt lat="-20.679569808816407" lon="117.11988051725338"><ele>14.0</ele><time>2026-04-23T02:57:16.001Z</time></trkpt><trkpt lat="-20.67945380807638" lon="117.11993960450037"><ele>14.0</ele><time>2026-04-23T02:57:17.001Z</time></trkpt><trkpt lat="-20.67934179898907" lon="117.12002736940835"><ele>14.0</ele><time>2026-04-23T02:57:18.001Z</time></trkpt><trkpt lat="-20.679241587133145" lon="117.12015272137731"><ele>14.0</ele><time>2026-04-23T02:57:19.001Z</time></trkpt><trkpt lat="-20.679158219713212" lon="117.12029135755922"><ele>14.0</ele><time>2026-04-23T02:57:20Z</time></trkpt><trkpt lat="-20.679092409767968" lon="117.12045188485013"><ele>14.0</ele><time>2026-04-23T02:57:21Z</time></trkpt><trkpt lat="-20.679036834340184" lon="117.1206447852265"><ele>14.0</ele><time>2026-04-23T02:57:22Z</time></trkpt><trkpt lat="-20.67898757606823" lon="117.12083818967517"><ele>14.0</ele><time>2026-04-23T02:57:23Z</time></trkpt><trkpt lat="-20.678934871669025" lon="117.1210348028334"><ele>14.0</ele><time>2026-04-23T02:57:24Z</time></trkpt><trkpt lat="-20.678875811354054" lon="117.12122984958125"><ele>14.0</ele><time>2026-04-23T02:57:25Z</time></trkpt><trkpt lat="-20.678803668044267" lon="117.12143422537173"><ele>14.0</ele><time>2026-04-23T02:57:26Z</time></trkpt><trkpt lat="-20.678720652716905" lon="117.12163719568959"><ele>14.0</ele><time>2026-04-23T02:57:27Z</time></trkpt><trkpt lat="-20.678631205877522" lon="117.12183213412833"><ele>14.333333333333334</ele><time>2026-04-23T02:57:28Z</time></trkpt><trkpt lat="-20.67853534494208" lon="117.12201038242007"><ele>14.666666666666668</ele><time>2026-04-23T02:57:29Z</time></trkpt><trkpt lat="-20.678428953510124" lon="117.12217479714212"><ele>15.0</ele><time>2026-04-23T02:57:30Z</time></trkpt><trkpt lat="-20.678304242394816" lon="117.12232942321337"><ele>15.0</ele><time>2026-04-23T02:57:31Z</time></trkpt><trkpt lat="-20.678153293818216" lon="117.12248041971336"><ele>15.0</ele><time>2026-04-23T02:57:32Z</time></trkpt><trkpt lat="-20.677984209201885" lon="117.12261692843572"><ele>15.0</ele><time>2026-04-23T02:57:33Z</time></trkpt><trkpt lat="-20.67780296900404" lon="117.1227434595574"><ele>15.0</ele><time>2026-04-23T02:57:34Z</time></trkpt><trkpt lat="-20.67761537352655" lon="117.12286982124837"><ele>15.0</ele><time>2026-04-23T02:57:35Z</time></trkpt><trkpt lat="-20.677432066012937" lon="117.12299723326736"><ele>15.0</ele><time>2026-04-23T02:57:36Z</time></trkpt><trkpt lat="-20.67724245351325" lon="117.1231309360447"><ele>15.0</ele><time>2026-04-23T02:57:37Z</time></trkpt><trkpt lat="-20.677053037374833" lon="117.12325985649116"><ele>15.0</ele><time>2026-04-23T02:57:38Z</time></trkpt><trkpt lat="-20.67686212059353" lon="117.12338348940811"><ele>15.0</ele><time>2026-04-23T02:57:39Z</time></trkpt><trkpt lat="-20.67665838278117" lon="117.12350339531469"><ele>13.5</ele><time>2026-04-23T02:57:40Z</time></trkpt><trkpt lat="-20.676450893312996" lon="117.12360834456533"><ele>12.0</ele><time>2026-04-23T02:57:41Z</time></trkpt><trkpt lat="-20.67623228929614" lon="117.12371565811011"><ele>11.0</ele><time>2026-04-23T02:57:42Z</time></trkpt><trkpt lat="-20.67601930338769" lon="117.12382199826989"><ele>10.0</ele><time>2026-04-23T02:57:43Z</time></trkpt><trkpt lat="-20.675799790756276" lon="117.12392837725895"><ele>10.0</ele><time>2026-04-23T02:57:44Z</time></trkpt><trkpt lat="-20.675583892712723" lon="117.12403410989798"><ele>10.0</ele><time>2026-04-23T02:57:45Z</time></trkpt><trkpt lat="-20.67536723616723" lon="117.12414063667748"><ele>10.0</ele><time>2026-04-23T02:57:46Z</time></trkpt><trkpt lat="-20.67515172994478" lon="117.12425410583243"><ele>10.0</ele><time>2026-04-23T02:57:47Z</time></trkpt><trkpt lat="-20.67493522302056" lon="117.12436785583913"><ele>10.0</ele><time>2026-04-23T02:57:48Z</time></trkpt><trkpt lat="-20.674717040226433" lon="117.12447611008733"><ele>10.0</ele><time>2026-04-23T02:57:49Z</time></trkpt><trkpt lat="-20.67450167376737" lon="117.12457985756859"><ele>9.5</ele><time>2026-04-23T02:57:50Z</time></trkpt><trkpt lat="-20.674282694697954" lon="117.12468606878166"><ele>9.0</ele><time>2026-04-23T02:57:51Z</time></trkpt><trkpt lat="-20.674068997038216" lon="117.12478986065217"><ele>9.0</ele><time>2026-04-23T02:57:52.001Z</time></trkpt><trkpt lat="-20.67385817537275" lon="117.12489362478696"><ele>9.0</ele><time>2026-04-23T02:57:53.001Z</time></trkpt><trkpt lat="-20.673653509469904" lon="117.12499404326189"><ele>9.333333333333334</ele><time>2026-04-23T02:57:54.001Z</time></trkpt><trkpt lat="-20.67345720835175" lon="117.12508433225827"><ele>9.666666666666668</ele><time>2026-04-23T02:57:55.001Z</time></trkpt><trkpt lat="-20.673279311077003" lon="117.12516818215519"><ele>10.0</ele><time>2026-04-23T02:57:56.001Z</time></trkpt><trkpt lat="-20.673115873069648" lon="117.12524715358941"><ele>10.0</ele><time>2026-04-23T02:57:57.001Z</time></trkpt><trkpt lat="-20.67296220003855" lon="117.12532204949858"><ele>10.0</ele><time>2026-04-23T02:57:58.001Z</time></trkpt><trkpt lat="-20.672797294083228" lon="117.12539967774607"><ele>10.0</ele><time>2026-04-23T02:57:59.001Z</time></trkpt><trkpt lat="-20.67261830805439" lon="117.12548611396791"><ele>10.0</ele><time>2026-04-23T02:58:00.001Z</time></trkpt><trkpt lat="-20.672427512570895" lon="117.12557966475109"><ele>10.0</ele><time>2026-04-23T02:58:01.001Z</time></trkpt><trkpt lat="-20.672230552397597" lon="117.12567287824825"><ele>10.0</ele><time>2026-04-23T02:58:02.001Z</time></trkpt><trkpt lat="-20.672036133440127" lon="117.12575615870044"><ele>9.666666666666668</ele><time>2026-04-23T02:58:03.001Z</time></trkpt><trkpt lat="-20.67183940997473" lon="117.12582785140162"><ele>9.333333333333334</ele><time>2026-04-23T02:58:04.001Z</time></trkpt><trkpt lat="-20.671629417635586" lon="117.12586520948102"><ele>9.0</ele><time>2026-04-23T02:58:05.001Z</time></trkpt><trkpt lat="-20.671416739212123" lon="117.12592513257441"><ele>9.0</ele><time>2026-04-23T02:58:06.001Z</time></trkpt><trkpt lat="-20.671222492180004" lon="117.126009515697"><ele>9.0</ele><time>2026-04-23T02:58:07.001Z</time></trkpt><trkpt lat="-20.671023608696228" lon="117.12609545907951"><ele>9.0</ele><time>2026-04-23T02:58:08.001Z</time></trkpt><trkpt lat="-20.67082266461212" lon="117.1261925420487"><ele>9.5</ele><time>2026-04-23T02:58:09.001Z</time></trkpt><trkpt lat="-20.670625327350663" lon="117.12629868469746"><ele>10.0</ele><time>2026-04-23T02:58:10.001Z</time></trkpt><trkpt lat="-20.670422028393855" lon="117.12641345612585"><ele>9.0</ele><time>2026-04-23T02:58:11.001Z</time></trkpt><trkpt lat="-20.67021512582091" lon="117.12652988010733"><ele>8.0</ele><time>2026-04-23T02:58:12.001Z</time></trkpt><trkpt lat="-20.6700169000384" lon="117.1266390130694"><ele>8.0</ele><time>2026-04-23T02:58:13.001Z</time></trkpt><trkpt lat="-20.66983108891371" lon="117.12673876924916"><ele>8.0</ele><time>2026-04-23T02:58:14.001Z</time></trkpt><trkpt lat="-20.669657786814746" lon="117.12683203319808"><ele>8.0</ele><time>2026-04-23T02:58:15.001Z</time></trkpt><trkpt lat="-20.669494733974965" lon="117.12692140451664"><ele>7.666666666666666</ele><time>2026-04-23T02:58:16.001Z</time></trkpt><trkpt lat="-20.669338747625755" lon="117.12700643783764"><ele>7.333333333333334</ele><time>2026-04-23T02:58:17.001Z</time></trkpt><trkpt lat="-20.66918707793157" lon="117.1270893516245"><ele>7.0</ele><time>2026-04-23T02:58:18.001Z</time></trkpt><trkpt lat="-20.669040808865066" lon="117.12717461524208"><ele>7.0</ele><time>2026-04-23T02:58:19.001Z</time></trkpt><trkpt lat="-20.668895928016386" lon="117.1272724610088"><ele>7.0</ele><time>2026-04-23T02:58:20.001Z</time></trkpt><trkpt lat="-20.668762879305024" lon="117.12738856968275"><ele>7.0</ele><time>2026-04-23T02:58:21.001Z</time></trkpt><trkpt lat="-20.66864936417933" lon="117.12752554808705"><ele>7.333333333333334</ele><time>2026-04-23T02:58:22.001Z</time></trkpt><trkpt lat="-20.668558813910607" lon="117.12767537938782"><ele>7.666666666666666</ele><time>2026-04-23T02:58:23.001Z</time></trkpt><trkpt lat="-20.668492850693166" lon="117.12783334385352"><ele>8.0</ele><time>2026-04-23T02:58:24.001Z</time></trkpt><trkpt lat="-20.668442745747715" lon="117.12800789375932"><ele>8.0</ele><time>2026-04-23T02:58:25.001Z</time></trkpt><trkpt lat="-20.668414897332564" lon="117.12819569446388"><ele>8.0</ele><time>2026-04-23T02:58:26.001Z</time></trkpt><trkpt lat="-20.668416022616032" lon="117.12839344619984"><ele>8.0</ele><time>2026-04-23T02:58:27.001Z</time></trkpt><trkpt lat="-20.668448397250163" lon="117.12859081305461"><ele>8.0</ele><time>2026-04-23T02:58:28.001Z</time></trkpt><trkpt lat="-20.668509816663985" lon="117.12878949058398"><ele>8.0</ele><time>2026-04-23T02:58:29.001Z</time></trkpt><trkpt lat="-20.668600510802285" lon="117.12897666114011"><ele>8.0</ele><time>2026-04-23T02:58:30.001Z</time></trkpt><trkpt lat="-20.66871938419866" lon="117.12914852534658"><ele>8.0</ele><time>2026-04-23T02:58:31.001Z</time></trkpt><trkpt lat="-20.6688688173398" lon="117.12931252969481"><ele>8.0</ele><time>2026-04-23T02:58:32.001Z</time></trkpt><trkpt lat="-20.669036691510197" lon="117.12947376623605"><ele>8.0</ele><time>2026-04-23T02:58:33.001Z</time></trkpt><trkpt lat="-20.669215788887907" lon="117.1296445702878"><ele>8.0</ele><time>2026-04-23T02:58:34.001Z</time></trkpt><trkpt lat="-20.669391920656313" lon="117.12982204379495"><ele>8.0</ele><time>2026-04-23T02:58:35.001Z</time></trkpt><trkpt lat="-20.669573340594003" lon="117.13000513138343"><ele>8.0</ele><time>2026-04-23T02:58:36.001Z</time></trkpt><trkpt lat="-20.669757103238933" lon="117.1301877161307"><ele>8.0</ele><time>2026-04-23T02:58:37.001Z</time></trkpt><trkpt lat="-20.66993121721896" lon="117.13036296485245"><ele>8.0</ele><time>2026-04-23T02:58:38.001Z</time></trkpt><trkpt lat="-20.67010568650056" lon="117.13053986981635"><ele>8.0</ele><time>2026-04-23T02:58:39.001Z</time></trkpt><trkpt lat="-20.670280403572967" lon="117.13071412371309"><ele>8.0</ele><time>2026-04-23T02:58:40.001Z</time></trkpt><trkpt lat="-20.67044415524101" lon="117.13087323454386"><ele>8.0</ele><time>2026-04-23T02:58:41.001Z</time></trkpt><trkpt lat="-20.670604208357506" lon="117.13103194284207"><ele>8.0</ele><time>2026-04-23T02:58:42.001Z</time></trkpt><trkpt lat="-20.6707500553365" lon="117.13118661218067"><ele>8.0</ele><time>2026-04-23T02:58:43.001Z</time></trkpt><trkpt lat="-20.6708814345866" lon="117.13132816538037"><ele>8.0</ele><time>2026-04-23T02:58:44.001Z</time></trkpt><trkpt lat="-20.67099539426046" lon="117.13144889664845"><ele>8.0</ele><time>2026-04-23T02:58:45.001Z</time></trkpt><trkpt lat="-20.671081042315862" lon="117.1315455177461"><ele>8.666666666666666</ele><time>2026-04-23T02:58:46.001Z</time></trkpt><trkpt lat="-20.671135542675767" lon="117.13161882030904"><ele>9.333333333333332</ele><time>2026-04-23T02:58:47.001Z</time></trkpt><trkpt lat="-20.67117658474164" lon="117.13169753857501"><ele>10.0</ele><time>2026-04-23T02:58:49.001Z</time></trkpt><trkpt lat="-20.671234224500246" lon="117.13175842835173"><ele>10.666666666666666</ele><time>2026-04-23T02:58:51.001Z</time></trkpt><trkpt lat="-20.671349547424196" lon="117.13175989345572"><ele>11.333333333333334</ele><time>2026-04-23T02:58:53.001Z</time></trkpt><trkpt lat="-20.67142527908627" lon="117.13173649439192"><ele>12.0</ele><time>2026-04-23T02:58:54.001Z</time></trkpt><trkpt lat="-20.67151259299478" lon="117.13170993440114"><ele>12.0</ele><time>2026-04-23T02:58:55.001Z</time></trkpt><trkpt lat="-20.671617968488356" lon="117.13169044551316"><ele>12.0</ele><time>2026-04-23T02:58:56.001Z</time></trkpt><trkpt lat="-20.671738424622955" lon="117.13167771130641"><ele>12.0</ele><time>2026-04-23T02:58:57.001Z</time></trkpt><trkpt lat="-20.671874662861377" lon="117.13166931119179"><ele>12.0</ele><time>2026-04-23T02:58:58.001Z</time></trkpt><trkpt lat="-20.67202025246545" lon="117.13167116527886"><ele>12.0</ele><time>2026-04-23T02:58:59.001Z</time></trkpt><trkpt lat="-20.672173340390916" lon="117.13169087377935"><ele>12.0</ele><time>2026-04-23T02:59:00.001Z</time></trkpt><trkpt lat="-20.672332831194737" lon="117.13172424194089"><ele>12.0</ele><time>2026-04-23T02:59:01.001Z</time></trkpt><trkpt lat="-20.67249425461332" lon="117.13177169571078"><ele>12.0</ele><time>2026-04-23T02:59:02.001Z</time></trkpt><trkpt lat="-20.672651232770303" lon="117.13183942867624"><ele>12.0</ele><time>2026-04-23T02:59:03.001Z</time></trkpt><trkpt lat="-20.67281270244543" lon="117.13192422738085"><ele>12.0</ele><time>2026-04-23T02:59:04.001Z</time></trkpt><trkpt lat="-20.67297261630832" lon="117.13202772405158"><ele>13.0</ele><time>2026-04-23T02:59:05.001Z</time></trkpt><trkpt lat="-20.67313382701385" lon="117.13213750836763"><ele>14.0</ele><time>2026-04-23T02:59:06.001Z</time></trkpt><trkpt lat="-20.67330333300407" lon="117.13224558286258"><ele>15.0</ele><time>2026-04-23T02:59:07.001Z</time></trkpt><trkpt lat="-20.67348970483064" lon="117.13235776133916"><ele>15.666666666666668</ele><time>2026-04-23T02:59:08.001Z</time></trkpt><trkpt lat="-20.67367819176321" lon="117.13247293606194"><ele>16.333333333333336</ele><time>2026-04-23T02:59:09.001Z</time></trkpt><trkpt lat="-20.673869094311215" lon="117.13259025023075"><ele>17.0</ele><time>2026-04-23T02:59:10.001Z</time></trkpt><trkpt lat="-20.674051879355932" lon="117.13270480413597"><ele>17.0</ele><time>2026-04-23T02:59:11.001Z</time></trkpt><trkpt lat="-20.674230486258647" lon="117.13281896647221"><ele>17.0</ele><time>2026-04-23T02:59:12.001Z</time></trkpt><trkpt lat="-20.674415812576" lon="117.13293231547941"><ele>17.0</ele><time>2026-04-23T02:59:13.001Z</time></trkpt><trkpt lat="-20.67460420135638" lon="117.1330452490673"><ele>17.0</ele><time>2026-04-23T02:59:14.001Z</time></trkpt><trkpt lat="-20.674790342635358" lon="117.13316150282338"><ele>17.0</ele><time>2026-04-23T02:59:15.001Z</time></trkpt><trkpt lat="-20.67498434078271" lon="117.13327910725424"><ele>17.0</ele><time>2026-04-23T02:59:16.001Z</time></trkpt><trkpt lat="-20.675175781739835" lon="117.13339420083727"><ele>16.666666666666668</ele><time>2026-04-23T02:59:17.001Z</time></trkpt><trkpt lat="-20.675362617065215" lon="117.13350903456795"><ele>16.333333333333332</ele><time>2026-04-23T02:59:18.001Z</time></trkpt><trkpt lat="-20.67553965583897" lon="117.13361776730136"><ele>16.0</ele><time>2026-04-23T02:59:19Z</time></trkpt><trkpt lat="-20.675701334195338" lon="117.13371326160039"><ele>16.0</ele><time>2026-04-23T02:59:20Z</time></trkpt><trkpt lat="-20.675842150521277" lon="117.13379683388897"><ele>16.0</ele><time>2026-04-23T02:59:21Z</time></trkpt><trkpt lat="-20.675978393863087" lon="117.13386855026033"><ele>16.0</ele><time>2026-04-23T02:59:22Z</time></trkpt><trkpt lat="-20.67612249164445" lon="117.13394799472151"><ele>16.0</ele><time>2026-04-23T02:59:23Z</time></trkpt><trkpt lat="-20.676277609407467" lon="117.13404351450988"><ele>16.0</ele><time>2026-04-23T02:59:24Z</time></trkpt><trkpt lat="-20.67643370118552" lon="117.13413610659134"><ele>16.0</ele><time>2026-04-23T02:59:25Z</time></trkpt><trkpt lat="-20.67660417935434" lon="117.13422731301287"><ele>16.0</ele><time>2026-04-23T02:59:26Z</time></trkpt><trkpt lat="-20.676786511285677" lon="117.13432234873338"><ele>16.0</ele><time>2026-04-23T02:59:27Z</time></trkpt><trkpt lat="-20.67697725356815" lon="117.13442136238385"><ele>16.0</ele><time>2026-04-23T02:59:28Z</time></trkpt><trkpt lat="-20.67717684885767" lon="117.13452368176358"><ele>16.5</ele><time>2026-04-23T02:59:29Z</time></trkpt><trkpt lat="-20.677385215169036" lon="117.13462803485514"><ele>17.0</ele><time>2026-04-23T02:59:30Z</time></trkpt><trkpt lat="-20.67759524068366" lon="117.13473526010712"><ele>18.0</ele><time>2026-04-23T02:59:31Z</time></trkpt><trkpt lat="-20.677807168365376" lon="117.13484393367652"><ele>19.0</ele><time>2026-04-23T02:59:32Z</time></trkpt><trkpt lat="-20.678020947514096" lon="117.1349508701666"><ele>19.0</ele><time>2026-04-23T02:59:33Z</time></trkpt><trkpt lat="-20.67823083383049" lon="117.13505258347163"><ele>19.0</ele><time>2026-04-23T02:59:34Z</time></trkpt><trkpt lat="-20.678444551268406" lon="117.135157328866"><ele>23.0</ele><time>2026-04-23T02:59:35Z</time></trkpt><trkpt lat="-20.678653246538094" lon="117.1352629981031"><ele>27.0</ele><time>2026-04-23T02:59:36Z</time></trkpt><trkpt lat="-20.67885870904338" lon="117.13536789323855"><ele>27.0</ele><time>2026-04-23T02:59:37Z</time></trkpt><trkpt lat="-20.679064097468444" lon="117.13547110518995"><ele>27.0</ele><time>2026-04-23T02:59:38Z</time></trkpt><trkpt lat="-20.679270586583755" lon="117.13557118624999"><ele>28.666666666666664</ele><time>2026-04-23T02:59:39Z</time></trkpt><trkpt lat="-20.679473837895635" lon="117.13566979857468"><ele>30.333333333333332</ele><time>2026-04-23T02:59:40Z</time></trkpt><trkpt lat="-20.679668941404447" lon="117.13576511771365"><ele>32.0</ele><time>2026-04-23T02:59:41Z</time></trkpt><trkpt lat="-20.679855216224087" lon="117.13585388063463"><ele>30.333333333333332</ele><time>2026-04-23T02:59:42Z</time></trkpt><trkpt lat="-20.680031622465666" lon="117.13593696509957"><ele>28.666666666666664</ele><time>2026-04-23T02:59:43Z</time></trkpt><trkpt lat="-20.680202212199926" lon="117.13601345060397"><ele>27.0</ele><time>2026-04-23T02:59:44Z</time></trkpt><trkpt lat="-20.68037514364366" lon="117.13608687580356"><ele>27.0</ele><time>2026-04-23T02:59:45Z</time></trkpt><trkpt lat="-20.680554826062867" lon="117.13615659417404"><ele>27.0</ele><time>2026-04-23T02:59:46Z</time></trkpt><trkpt lat="-20.680737467186866" lon="117.13622150609405"><ele>27.0</ele><time>2026-04-23T02:59:47Z</time></trkpt><trkpt lat="-20.68091333942112" lon="117.13628036971497"><ele>27.0</ele><time>2026-04-23T02:59:48Z</time></trkpt><trkpt lat="-20.681077008224218" lon="117.13633070432832"><ele>27.0</ele><time>2026-04-23T02:59:49Z</time></trkpt><trkpt lat="-20.681234471182773" lon="117.13638214108379"><ele>27.0</ele><time>2026-04-23T02:59:50Z</time></trkpt><trkpt lat="-20.681396689630745" lon="117.1364398933251"><ele>27.666666666666664</ele><time>2026-04-23T02:59:51Z</time></trkpt><trkpt lat="-20.68156883918977" lon="117.13650237783018"><ele>28.333333333333332</ele><time>2026-04-23T02:59:52Z</time></trkpt><trkpt lat="-20.68174296813907" lon="117.13656531037068"><ele>29.0</ele><time>2026-04-23T02:59:53Z</time></trkpt><trkpt lat="-20.68190744389934" lon="117.13662363467044"><ele>27.75</ele><time>2026-04-23T02:59:54Z</time></trkpt><trkpt lat="-20.682060443209174" lon="117.1366761631711"><ele>26.5</ele><time>2026-04-23T02:59:55Z</time></trkpt><trkpt lat="-20.682202944511765" lon="117.13672523523616"><ele>25.25</ele><time>2026-04-23T02:59:56Z</time></trkpt><trkpt lat="-20.68233418957367" lon="117.1367676303031"><ele>24.0</ele><time>2026-04-23T02:59:57Z</time></trkpt><trkpt lat="-20.6824656369807" lon="117.13681457616174"><ele>24.0</ele><time>2026-04-23T02:59:58Z</time></trkpt><trkpt lat="-20.68259307975493" lon="117.13685721519374"><ele>24.0</ele><time>2026-04-23T02:59:59Z</time></trkpt><trkpt lat="-20.682723877158292" lon="117.1369028643606"><ele>24.0</ele><time>2026-04-23T03:00:00Z</time></trkpt><trkpt lat="-20.6828531261134" lon="117.1369505519777"><ele>24.0</ele><time>2026-04-23T03:00:01Z</time></trkpt><trkpt lat="-20.68298457009911" lon="117.13700030280121"><ele>23.75</ele><time>2026-04-23T03:00:02Z</time></trkpt><trkpt lat="-20.68311902669495" lon="117.13704655296715"><ele>23.5</ele><time>2026-04-23T03:00:03Z</time></trkpt><trkpt lat="-20.68324976809937" lon="117.13710787411462"><ele>23.25</ele><time>2026-04-23T03:00:04Z</time></trkpt><trkpt lat="-20.683393702138797" lon="117.13713182014378"><ele>23.0</ele><time>2026-04-23T03:00:05Z</time></trkpt><trkpt lat="-20.68353308721799" lon="117.13717612353582"><ele>22.0</ele><time>2026-04-23T03:00:06Z</time></trkpt><trkpt lat="-20.68382567813559" lon="117.13728451418477"><ele>21.0</ele><time>2026-04-23T03:00:08Z</time></trkpt><trkpt lat="-20.683960442327496" lon="117.13732626952122"><ele>21.0</ele><time>2026-04-23T03:00:09Z</time></trkpt><trkpt lat="-20.684093122049738" lon="117.13738551892853"><ele>21.0</ele><time>2026-04-23T03:00:10Z</time></trkpt><trkpt lat="-20.684214817785623" lon="117.13744300253947"><ele>21.0</ele><time>2026-04-23T03:00:11Z</time></trkpt><trkpt lat="-20.68432243784013" lon="117.13750721216272"><ele>21.0</ele><time>2026-04-23T03:00:12Z</time></trkpt><trkpt lat="-20.68442238182583" lon="117.13757610330607"><ele>21.0</ele><time>2026-04-23T03:00:13Z</time></trkpt><trkpt lat="-20.68451368242766" lon="117.13764660207795"><ele>21.0</ele><time>2026-04-23T03:00:14Z</time></trkpt><trkpt lat="-20.684606289651708" lon="117.13772482151411"><ele>21.0</ele><time>2026-04-23T03:00:15Z</time></trkpt><trkpt lat="-20.684700599348435" lon="117.13780947683566"><ele>21.0</ele><time>2026-04-23T03:00:16Z</time></trkpt><trkpt lat="-20.684797935295435" lon="117.13790202910899"><ele>21.0</ele><time>2026-04-23T03:00:17Z</time></trkpt><trkpt lat="-20.684902623611308" lon="117.13799766549714"><ele>21.0</ele><time>2026-04-23T03:00:18Z</time></trkpt><trkpt lat="-20.68501508605952" lon="117.1380892308649"><ele>21.0</ele><time>2026-04-23T03:00:19Z</time></trkpt><trkpt lat="-20.685129585655176" lon="117.13818183943695"><ele>21.0</ele><time>2026-04-23T03:00:20Z</time></trkpt><trkpt lat="-20.68525304976481" lon="117.13826793312613"><ele>21.333333333333332</ele><time>2026-04-23T03:00:21.001Z</time></trkpt><trkpt lat="-20.685385778931803" lon="117.13834267558501"><ele>21.666666666666664</ele><time>2026-04-23T03:00:22.001Z</time></trkpt><trkpt lat="-20.685526020121234" lon="117.13840840064599"><ele>22.0</ele><time>2026-04-23T03:00:23.001Z</time></trkpt><trkpt lat="-20.685673906219893" lon="117.13846430312093"><ele>22.0</ele><time>2026-04-23T03:00:24.001Z</time></trkpt><trkpt lat="-20.685820057578894" lon="117.13850464472523"><ele>22.0</ele><time>2026-04-23T03:00:25.001Z</time></trkpt><trkpt lat="-20.685967195741963" lon="117.13853246906012"><ele>22.0</ele><time>2026-04-23T03:00:26.001Z</time></trkpt><trkpt lat="-20.686114317407412" lon="117.13854913335257"><ele>22.0</ele><time>2026-04-23T03:00:27.001Z</time></trkpt><trkpt lat="-20.686250092717057" lon="117.13855334968572"><ele>21.75</ele><time>2026-04-23T03:00:28.001Z</time></trkpt><trkpt lat="-20.68637983696793" lon="117.1385478369192"><ele>21.5</ele><time>2026-04-23T03:00:29.001Z</time></trkpt><trkpt lat="-20.686500698960085" lon="117.13853221738103"><ele>21.25</ele><time>2026-04-23T03:00:30.001Z</time></trkpt><trkpt lat="-20.686612501130845" lon="117.13850456707331"><ele>21.0</ele><time>2026-04-23T03:00:31.001Z</time></trkpt><trkpt lat="-20.686718132871142" lon="117.13847210329503"><ele>21.0</ele><time>2026-04-23T03:00:32.001Z</time></trkpt><trkpt lat="-20.686819168625476" lon="117.13844309207562"><ele>21.0</ele><time>2026-04-23T03:00:33.001Z</time></trkpt><trkpt lat="-20.686912097694" lon="117.13842152898582"><ele>21.0</ele><time>2026-04-23T03:00:34.001Z</time></trkpt><trkpt lat="-20.68699443052474" lon="117.13840506575252"><ele>21.0</ele><time>2026-04-23T03:00:35.001Z</time></trkpt><trkpt lat="-20.687073346019325" lon="117.13838801480725"><ele>21.0</ele><time>2026-04-23T03:00:36.001Z</time></trkpt><trkpt lat="-20.687164491183406" lon="117.13837695558578"><ele>21.0</ele><time>2026-04-23T03:00:37.001Z</time></trkpt><trkpt lat="-20.687259963082226" lon="117.13837473435967"><ele>21.0</ele><time>2026-04-23T03:00:38.001Z</time></trkpt><trkpt lat="-20.687373253015682" lon="117.13837296785036"><ele>21.0</ele><time>2026-04-23T03:00:39.001Z</time></trkpt><trkpt lat="-20.687492265496356" lon="117.13837190364679"><ele>21.0</ele><time>2026-04-23T03:00:40.001Z</time></trkpt><trkpt lat="-20.687609728874257" lon="117.13836776551126"><ele>21.0</ele><time>2026-04-23T03:00:41.001Z</time></trkpt><trkpt lat="-20.68770903700087" lon="117.13836176291275"><ele>21.25</ele><time>2026-04-23T03:00:42.001Z</time></trkpt><trkpt lat="-20.68780461050225" lon="117.13836639858799"><ele>21.5</ele><time>2026-04-23T03:00:43.001Z</time></trkpt><trkpt lat="-20.68791866944965" lon="117.13838012295265"><ele>21.75</ele><time>2026-04-23T03:00:44.001Z</time></trkpt><trkpt lat="-20.688045899503603" lon="117.13839941713829"><ele>22.0</ele><time>2026-04-23T03:00:45.001Z</time></trkpt><trkpt lat="-20.68817870600168" lon="117.13841627027584"><ele>22.0</ele><time>2026-04-23T03:00:46.001Z</time></trkpt><trkpt lat="-20.688317052104562" lon="117.13844180319354"><ele>22.0</ele><time>2026-04-23T03:00:47.001Z</time></trkpt><trkpt lat="-20.688459380269844" lon="117.13846904945535"><ele>22.0</ele><time>2026-04-23T03:00:48.001Z</time></trkpt><trkpt lat="-20.688600872466154" lon="117.13849979179821"><ele>22.0</ele><time>2026-04-23T03:00:49.001Z</time></trkpt><trkpt lat="-20.68873905900355" lon="117.13852587348086"><ele>21.833333333333332</ele><time>2026-04-23T03:00:50.001Z</time></trkpt><trkpt lat="-20.688852768413422" lon="117.13854454090104"><ele>21.666666666666664</ele><time>2026-04-23T03:00:51.001Z</time></trkpt><trkpt lat="-20.68894056298922" lon="117.13855888615738"><ele>21.5</ele><time>2026-04-23T03:00:52.001Z</time></trkpt><trkpt lat="-20.689004256309016" lon="117.13857377878179"><ele>21.333333333333332</ele><time>2026-04-23T03:00:53.001Z</time></trkpt><trkpt lat="-20.689062664651072" lon="117.13860541345859"><ele>21.166666666666668</ele><time>2026-04-23T03:00:54.001Z</time></trkpt><trkpt lat="-20.689108777584007" lon="117.13866327699357"><ele>21.0</ele><time>2026-04-23T03:00:55.001Z</time></trkpt><trkpt lat="-20.689146437834044" lon="117.13874534476527"><ele>21.0</ele><time>2026-04-23T03:00:56.001Z</time></trkpt><trkpt lat="-20.689161893373488" lon="117.13883529411845"><ele>21.0</ele><time>2026-04-23T03:00:57.001Z</time></trkpt><trkpt lat="-20.68916937713725" lon="117.13891983457528"><ele>21.0</ele><time>2026-04-23T03:00:58.001Z</time></trkpt><trkpt lat="-20.68918800769505" lon="117.13901499999548"><ele>21.0</ele><time>2026-04-23T03:00:59.001Z</time></trkpt><trkpt lat="-20.689214707647178" lon="117.13912301363342"><ele>21.0</ele><time>2026-04-23T03:01:00.001Z</time></trkpt><trkpt lat="-20.689238095978027" lon="117.13923184842496"><ele>20.6</ele><time>2026-04-23T03:01:01.001Z</time></trkpt><trkpt lat="-20.689244285006293" lon="117.13933780484068"><ele>20.200000000000003</ele><time>2026-04-23T03:01:02.001Z</time></trkpt><trkpt lat="-20.68923717823294" lon="117.13945864717867"><ele>19.799999999999997</ele><time>2026-04-23T03:01:03.001Z</time></trkpt><trkpt lat="-20.689238329248646" lon="117.13957123972286"><ele>19.4</ele><time>2026-04-23T03:01:04.001Z</time></trkpt><trkpt lat="-20.689251749760032" lon="117.1396690867169"><ele>19.0</ele><time>2026-04-23T03:01:05.001Z</time></trkpt><trkpt lat="-20.68926677454699" lon="117.13974521311768"><ele>19.0</ele><time>2026-04-23T03:01:06.001Z</time></trkpt><trkpt lat="-20.689276355014496" lon="117.13982061286278"><ele>19.0</ele><time>2026-04-23T03:01:07.001Z</time></trkpt><trkpt lat="-20.68928576714984" lon="117.1398953329506"><ele>19.0</ele><time>2026-04-23T03:01:08.001Z</time></trkpt><trkpt lat="-20.689281070695294" lon="117.14002195996817"><ele>19.0</ele><time>2026-04-23T03:01:10.001Z</time></trkpt><trkpt lat="-20.689268768896138" lon="117.14011058312563"><ele>19.0</ele><time>2026-04-23T03:01:12.001Z</time></trkpt><trkpt lat="-20.68934278386827" lon="117.14015317702254"><ele>19.0</ele><time>2026-04-23T03:01:15.001Z</time></trkpt><trkpt lat="-20.689420591603753" lon="117.14012328958502"><ele>18.5</ele><time>2026-04-23T03:01:17.001Z</time></trkpt><trkpt lat="-20.689485960805264" lon="117.14003521814554"><ele>18.0</ele><time>2026-04-23T03:01:19.001Z</time></trkpt><trkpt lat="-20.689535084555473" lon="117.13997246227078"><ele>17.5</ele><time>2026-04-23T03:01:20.001Z</time></trkpt><trkpt lat="-20.689588853636792" lon="117.13991041910214"><ele>17.0</ele><time>2026-04-23T03:01:21.001Z</time></trkpt><trkpt lat="-20.68968786806024" lon="117.1398692232976"><ele>16.5</ele><time>2026-04-23T03:01:23.001Z</time></trkpt><trkpt lat="-20.6897591191335" lon="117.1398499888083"><ele>16.0</ele><time>2026-04-23T03:01:24.999Z</time></trkpt><trkpt lat="-20.68987386636512" lon="117.13987069141415"><ele>15.75</ele><time>2026-04-23T03:01:26.999Z</time></trkpt><trkpt lat="-20.689966197748138" lon="117.13988500571195"><ele>15.5</ele><time>2026-04-23T03:01:27.999Z</time></trkpt><trkpt lat="-20.690071943112404" lon="117.13991787167143"><ele>15.25</ele><time>2026-04-23T03:01:28.999Z</time></trkpt><trkpt lat="-20.6902014062159" lon="117.13995796781083"><ele>15.0</ele><time>2026-04-23T03:01:29.999Z</time></trkpt><trkpt lat="-20.69032517000717" lon="117.13999677313409"><ele>15.0</ele><time>2026-04-23T03:01:30.999Z</time></trkpt><trkpt lat="-20.690475187840562" lon="117.14005237525421"><ele>15.0</ele><time>2026-04-23T03:01:31.999Z</time></trkpt><trkpt lat="-20.690639459009404" lon="117.1400796948615"><ele>15.0</ele><time>2026-04-23T03:01:32.999Z</time></trkpt><trkpt lat="-20.69081175011245" lon="117.14012856217184"><ele>15.0</ele><time>2026-04-23T03:01:33.999Z</time></trkpt><trkpt lat="-20.690991662629646" lon="117.14017900894487"><ele>15.0</ele><time>2026-04-23T03:01:34.999Z</time></trkpt><trkpt lat="-20.69118407238064" lon="117.1402451215865"><ele>15.0</ele><time>2026-04-23T03:01:35.999Z</time></trkpt><trkpt lat="-20.691395254221135" lon="117.14030129626524"><ele>15.333333333333332</ele><time>2026-04-23T03:01:36.999Z</time></trkpt><trkpt lat="-20.691594401184627" lon="117.14035426964837"><ele>15.666666666666666</ele><time>2026-04-23T03:01:38Z</time></trkpt><trkpt lat="-20.69179905459248" lon="117.14040870775413"><ele>16.0</ele><time>2026-04-23T03:01:39Z</time></trkpt><trkpt lat="-20.691992649525016" lon="117.1404587778767"><ele>16.0</ele><time>2026-04-23T03:01:40Z</time></trkpt><trkpt lat="-20.692195293090982" lon="117.14050870727382"><ele>16.0</ele><time>2026-04-23T03:01:41Z</time></trkpt><trkpt lat="-20.69240435531283" lon="117.14055701819487"><ele>16.0</ele><time>2026-04-23T03:01:42Z</time></trkpt><trkpt lat="-20.692614991801335" lon="117.14060308794852"><ele>15.333333333333332</ele><time>2026-04-23T03:01:43Z</time></trkpt><trkpt lat="-20.69280563385566" lon="117.14064109384391"><ele>14.666666666666668</ele><time>2026-04-23T03:01:44Z</time></trkpt><trkpt lat="-20.69298733708427" lon="117.1406763332588"><ele>14.0</ele><time>2026-04-23T03:01:45Z</time></trkpt><trkpt lat="-20.693143427423042" lon="117.14070351167206"><ele>13.799999999999999</ele><time>2026-04-23T03:01:46Z</time></trkpt><trkpt lat="-20.693281291618366" lon="117.14071629443619"><ele>13.599999999999998</ele><time>2026-04-23T03:01:47Z</time></trkpt><trkpt lat="-20.693391170080236" lon="117.14074094212714"><ele>13.4</ele><time>2026-04-23T03:01:48Z</time></trkpt><trkpt lat="-20.693472868782127" lon="117.14075175827911"><ele>13.2</ele><time>2026-04-23T03:01:49Z</time></trkpt><trkpt lat="-20.693554588493594" lon="117.14076232681958"><ele>13.0</ele><time>2026-04-23T03:01:51Z</time></trkpt><trkpt lat="-20.693579888563587" lon="117.14093364996761"><ele>13.0</ele><time>2026-04-23T03:01:55Z</time></trkpt><trkpt lat="-20.69355519784296" lon="117.14100739394107"><ele>13.0</ele><time>2026-04-23T03:01:56Z</time></trkpt><trkpt lat="-20.693528781132994" lon="117.14108862497397"><ele>13.0</ele><time>2026-04-23T03:01:57Z</time></trkpt><trkpt lat="-20.693510015566297" lon="117.14120000089282"><ele>13.0</ele><time>2026-04-23T03:01:58Z</time></trkpt><trkpt lat="-20.6934802911142" lon="117.14131935149085"><ele>13.0</ele><time>2026-04-23T03:01:59Z</time></trkpt><trkpt lat="-20.693443695196375" lon="117.14146839915124"><ele>13.666666666666666</ele><time>2026-04-23T03:02:00Z</time></trkpt><trkpt lat="-20.693407171717304" lon="117.14163389650642"><ele>14.333333333333332</ele><time>2026-04-23T03:02:01Z</time></trkpt><trkpt lat="-20.693371694908222" lon="117.14181055593923"><ele>15.0</ele><time>2026-04-23T03:02:02Z</time></trkpt><trkpt lat="-20.693332347751507" lon="117.14200132947357"><ele>15.0</ele><time>2026-04-23T03:02:03Z</time></trkpt><trkpt lat="-20.693291159273414" lon="117.14220531132227"><ele>15.0</ele><time>2026-04-23T03:02:04Z</time></trkpt><trkpt lat="-20.693246329405646" lon="117.14242077582277"><ele>15.0</ele><time>2026-04-23T03:02:05Z</time></trkpt><trkpt lat="-20.693206441535477" lon="117.14264965790359"><ele>14.666666666666668</ele><time>2026-04-23T03:02:06Z</time></trkpt><trkpt lat="-20.693164485489465" lon="117.14287992833913"><ele>14.333333333333334</ele><time>2026-04-23T03:02:07Z</time></trkpt><trkpt lat="-20.693120377799385" lon="117.14311941187611"><ele>14.0</ele><time>2026-04-23T03:02:08Z</time></trkpt><trkpt lat="-20.693076646380252" lon="117.14337062218819"><ele>12.5</ele><time>2026-04-23T03:02:09Z</time></trkpt><trkpt lat="-20.693035634810627" lon="117.14362167989609"><ele>11.0</ele><time>2026-04-23T03:02:10Z</time></trkpt><trkpt lat="-20.692992455838866" lon="117.14385560362538"><ele>11.0</ele><time>2026-04-23T03:02:11Z</time></trkpt><trkpt lat="-20.692928371633894" lon="117.1440895988663"><ele>11.0</ele><time>2026-04-23T03:02:12Z</time></trkpt><trkpt lat="-20.692881147828636" lon="117.14432127821485"><ele>11.0</ele><time>2026-04-23T03:02:13Z</time></trkpt><trkpt lat="-20.692834600890794" lon="117.14455489361384"><ele>11.0</ele><time>2026-04-23T03:02:14Z</time></trkpt><trkpt lat="-20.692789229355125" lon="117.14479206949724"><ele>11.666666666666666</ele><time>2026-04-23T03:02:15Z</time></trkpt><trkpt lat="-20.692745658138797" lon="117.1450234268599"><ele>12.333333333333332</ele><time>2026-04-23T03:02:16Z</time></trkpt><trkpt lat="-20.69270177814136" lon="117.14525393128856"><ele>13.0</ele><time>2026-04-23T03:02:17Z</time></trkpt><trkpt lat="-20.69265712037952" lon="117.1454835283015"><ele>13.0</ele><time>2026-04-23T03:02:18Z</time></trkpt><trkpt lat="-20.692614753584863" lon="117.14570134688445"><ele>13.0</ele><time>2026-04-23T03:02:19Z</time></trkpt><trkpt lat="-20.692572457118718" lon="117.14591880388032"><ele>13.0</ele><time>2026-04-23T03:02:20Z</time></trkpt><trkpt lat="-20.692532802753156" lon="117.14612976172691"><ele>12.333333333333332</ele><time>2026-04-23T03:02:21Z</time></trkpt><trkpt lat="-20.69249732440377" lon="117.14633964779709"><ele>11.666666666666666</ele><time>2026-04-23T03:02:22Z</time></trkpt><trkpt lat="-20.692480637268833" lon="117.14654053253409"><ele>11.0</ele><time>2026-04-23T03:02:23Z</time></trkpt><trkpt lat="-20.69245186844655" lon="117.14673027093464"><ele>10.333333333333332</ele><time>2026-04-23T03:02:24Z</time></trkpt><trkpt lat="-20.692428559332363" lon="117.14690983050866"><ele>9.666666666666666</ele><time>2026-04-23T03:02:25Z</time></trkpt><trkpt lat="-20.692411258062027" lon="117.1470964128644"><ele>9.0</ele><time>2026-04-23T03:02:26Z</time></trkpt><trkpt lat="-20.69240434382357" lon="117.14727786973855"><ele>9.666666666666666</ele><time>2026-04-23T03:02:27Z</time></trkpt><trkpt lat="-20.692406277533557" lon="117.14746070364171"><ele>10.333333333333332</ele><time>2026-04-23T03:02:28Z</time></trkpt><trkpt lat="-20.69241601180056" lon="117.14763398014347"><ele>11.0</ele><time>2026-04-23T03:02:29Z</time></trkpt><trkpt lat="-20.692427342660817" lon="117.14778835709423"><ele>11.0</ele><time>2026-04-23T03:02:30Z</time></trkpt><trkpt lat="-20.69243580135081" lon="117.14793484027689"><ele>11.0</ele><time>2026-04-23T03:02:31Z</time></trkpt><trkpt lat="-20.692442877406847" lon="117.14807025475453"><ele>11.0</ele><time>2026-04-23T03:02:32Z</time></trkpt><trkpt lat="-20.692446738310927" lon="117.14819459809158"><ele>11.0</ele><time>2026-04-23T03:02:33Z</time></trkpt><trkpt lat="-20.692454365855248" lon="117.14830548177237"><ele>10.8</ele><time>2026-04-23T03:02:34Z</time></trkpt><trkpt lat="-20.692451172014387" lon="117.14840783229884"><ele>10.600000000000001</ele><time>2026-04-23T03:02:35Z</time></trkpt><trkpt lat="-20.69245873013636" lon="117.14848604876394"><ele>10.4</ele><time>2026-04-23T03:02:36Z</time></trkpt><trkpt lat="-20.69246644630544" lon="117.1485748798372"><ele>10.2</ele><time>2026-04-23T03:02:38Z</time></trkpt><trkpt lat="-20.692452954938297" lon="117.14864226982674"><ele>10.0</ele><time>2026-04-23T03:02:40Z</time></trkpt><trkpt lat="-20.692660786166122" lon="117.14868652508733"><ele>9.5</ele><time>2026-04-23T03:02:42Z</time></trkpt><trkpt lat="-20.692766855256355" lon="117.14869217837452"><ele>9.0</ele><time>2026-04-23T03:02:43Z</time></trkpt><trkpt lat="-20.69288542845397" lon="117.1486798856173"><ele>8.5</ele><time>2026-04-23T03:02:44Z</time></trkpt><trkpt lat="-20.693024813512753" lon="117.14866976881652"><ele>8.0</ele><time>2026-04-23T03:02:45Z</time></trkpt><trkpt lat="-20.693180935116015" lon="117.1486625531933"><ele>8.0</ele><time>2026-04-23T03:02:46Z</time></trkpt><trkpt lat="-20.69334111276858" lon="117.14865084491821"><ele>8.0</ele><time>2026-04-23T03:02:47Z</time></trkpt><trkpt lat="-20.693510924999913" lon="117.14863547550085"><ele>8.0</ele><time>2026-04-23T03:02:48Z</time></trkpt><trkpt lat="-20.6936965877642" lon="117.14862078756921"><ele>8.0</ele><time>2026-04-23T03:02:49Z</time></trkpt><trkpt lat="-20.693895687152715" lon="117.14861344569012"><ele>8.0</ele><time>2026-04-23T03:02:50Z</time></trkpt><trkpt lat="-20.69410155727233" lon="117.14861208893909"><ele>8.0</ele><time>2026-04-23T03:02:51Z</time></trkpt><trkpt lat="-20.69430635632432" lon="117.14860505774169"><ele>8.0</ele><time>2026-04-23T03:02:52Z</time></trkpt><trkpt lat="-20.694524152075196" lon="117.14858975685745"><ele>8.0</ele><time>2026-04-23T03:02:53Z</time></trkpt><trkpt lat="-20.694752764963894" lon="117.14857916563247"><ele>8.0</ele><time>2026-04-23T03:02:54Z</time></trkpt><trkpt lat="-20.69499191375237" lon="117.14856971001213"><ele>8.0</ele><time>2026-04-23T03:02:55Z</time></trkpt><trkpt lat="-20.695238883097748" lon="117.1485595434816"><ele>8.0</ele><time>2026-04-23T03:02:56Z</time></trkpt><trkpt lat="-20.695481729507424" lon="117.1485472201618"><ele>8.0</ele><time>2026-04-23T03:02:57Z</time></trkpt><trkpt lat="-20.695726862386955" lon="117.1485325572322"><ele>8.0</ele><time>2026-04-23T03:02:58Z</time></trkpt><trkpt lat="-20.69598038280649" lon="117.14851857846594"><ele>9.5</ele><time>2026-04-23T03:02:59Z</time></trkpt><trkpt lat="-20.696234883355345" lon="117.1485067484588"><ele>11.0</ele><time>2026-04-23T03:03:00Z</time></trkpt><trkpt lat="-20.69647715145921" lon="117.14849448017604"><ele>11.0</ele><time>2026-04-23T03:03:01Z</time></trkpt><trkpt lat="-20.696717822331365" lon="117.14848042508527"><ele>11.0</ele><time>2026-04-23T03:03:02Z</time></trkpt><trkpt lat="-20.696957229427586" lon="117.14846064717375"><ele>10.0</ele><time>2026-04-23T03:03:03Z</time></trkpt><trkpt lat="-20.697198329551785" lon="117.1484386264668"><ele>9.0</ele><time>2026-04-23T03:03:04Z</time></trkpt><trkpt lat="-20.69743998599385" lon="117.1484100691241"><ele>9.0</ele><time>2026-04-23T03:03:05Z</time></trkpt><trkpt lat="-20.69768599566261" lon="117.14836572166836"><ele>9.0</ele><time>2026-04-23T03:03:06Z</time></trkpt><trkpt lat="-20.697935784853826" lon="117.14831164024177"><ele>9.0</ele><time>2026-04-23T03:03:07Z</time></trkpt><trkpt lat="-20.698188232935642" lon="117.14824361703482"><ele>9.0</ele><time>2026-04-23T03:03:08Z</time></trkpt><trkpt lat="-20.698437486727432" lon="117.14816561575682"><ele>8.5</ele><time>2026-04-23T03:03:09Z</time></trkpt><trkpt lat="-20.698684556565944" lon="117.14808099161688"><ele>8.0</ele><time>2026-04-23T03:03:10.001Z</time></trkpt><trkpt lat="-20.698928487804352" lon="117.14798836638683"><ele>8.0</ele><time>2026-04-23T03:03:11.001Z</time></trkpt><trkpt lat="-20.69916922194241" lon="117.14788172943904"><ele>8.0</ele><time>2026-04-23T03:03:12.001Z</time></trkpt><trkpt lat="-20.69940541952371" lon="117.14776364538551"><ele>8.0</ele><time>2026-04-23T03:03:13.001Z</time></trkpt><trkpt lat="-20.699639512878132" lon="117.14763931728332"><ele>8.0</ele><time>2026-04-23T03:03:14.001Z</time></trkpt><trkpt lat="-20.699867845551655" lon="117.14750249960477"><ele>8.5</ele><time>2026-04-23T03:03:15.001Z</time></trkpt><trkpt lat="-20.700091626352737" lon="117.14735511908302"><ele>9.0</ele><time>2026-04-23T03:03:16.001Z</time></trkpt><trkpt lat="-20.700310609224218" lon="117.14719905045689"><ele>9.0</ele><time>2026-04-23T03:03:17.001Z</time></trkpt><trkpt lat="-20.700521762449007" lon="117.14703085331323"><ele>9.0</ele><time>2026-04-23T03:03:18.001Z</time></trkpt><trkpt lat="-20.700727714527876" lon="117.14685541885892"><ele>9.0</ele><time>2026-04-23T03:03:19.001Z</time></trkpt><trkpt lat="-20.700925318659767" lon="117.14667552973492"><ele>9.0</ele><time>2026-04-23T03:03:20.001Z</time></trkpt><trkpt lat="-20.701117111044915" lon="117.14648755646076"><ele>8.5</ele><time>2026-04-23T03:03:21.001Z</time></trkpt><trkpt lat="-20.70130008209845" lon="117.14629337425146"><ele>8.0</ele><time>2026-04-23T03:03:22.001Z</time></trkpt><trkpt lat="-20.701476023465247" lon="117.146093135386"><ele>8.0</ele><time>2026-04-23T03:03:23.001Z</time></trkpt><trkpt lat="-20.70164472457411" lon="117.14588887542149"><ele>8.0</ele><time>2026-04-23T03:03:24.001Z</time></trkpt><trkpt lat="-20.701804748719784" lon="117.14568172329076"><ele>9.0</ele><time>2026-04-23T03:03:25.001Z</time></trkpt><trkpt lat="-20.701954729358633" lon="117.14546769179869"><ele>10.0</ele><time>2026-04-23T03:03:26.001Z</time></trkpt><trkpt lat="-20.702096544540648" lon="117.14524764360026"><ele>10.0</ele><time>2026-04-23T03:03:27.001Z</time></trkpt><trkpt lat="-20.702228669527102" lon="117.1450229985135"><ele>10.0</ele><time>2026-04-23T03:03:28.001Z</time></trkpt><trkpt lat="-20.70235376481289" lon="117.14479608560666"><ele>9.5</ele><time>2026-04-23T03:03:29.001Z</time></trkpt><trkpt lat="-20.7024732342196" lon="117.14456329789061"><ele>9.0</ele><time>2026-04-23T03:03:30.001Z</time></trkpt><trkpt lat="-20.70258729037402" lon="117.14432858456486"><ele>9.0</ele><time>2026-04-23T03:03:30.999Z</time></trkpt><trkpt lat="-20.702700054019385" lon="117.14409139663672"><ele>9.0</ele><time>2026-04-23T03:03:31.999Z</time></trkpt><trkpt lat="-20.702815865861144" lon="117.1438530005903"><ele>9.0</ele><time>2026-04-23T03:03:32.999Z</time></trkpt><trkpt lat="-20.70293311715691" lon="117.1436121437415"><ele>9.0</ele><time>2026-04-23T03:03:33.999Z</time></trkpt><trkpt lat="-20.703048232569884" lon="117.14336807318269"><ele>9.0</ele><time>2026-04-23T03:03:34.999Z</time></trkpt><trkpt lat="-20.703165725839195" lon="117.1431218656168"><ele>9.0</ele><time>2026-04-23T03:03:35.999Z</time></trkpt><trkpt lat="-20.70328195100685" lon="117.14287603980043"><ele>9.0</ele><time>2026-04-23T03:03:36.999Z</time></trkpt><trkpt lat="-20.7034020896448" lon="117.142630595719"><ele>9.0</ele><time>2026-04-23T03:03:37.999Z</time></trkpt><trkpt lat="-20.703522548177283" lon="117.14238136089249"><ele>11.5</ele><time>2026-04-23T03:03:38.999Z</time></trkpt><trkpt lat="-20.703643950878305" lon="117.14212837146697"><ele>14.0</ele><time>2026-04-23T03:03:39.999Z</time></trkpt><trkpt lat="-20.703762889464258" lon="117.14186971994413"><ele>14.0</ele><time>2026-04-23T03:03:40.999Z</time></trkpt><trkpt lat="-20.703882168265384" lon="117.14161245141904"><ele>14.0</ele><time>2026-04-23T03:03:41.999Z</time></trkpt><trkpt lat="-20.70400627005161" lon="117.1413561870655"><ele>13.5</ele><time>2026-04-23T03:03:42.999Z</time></trkpt><trkpt lat="-20.704130766870268" lon="117.14110262026828"><ele>13.0</ele><time>2026-04-23T03:03:43.999Z</time></trkpt><trkpt lat="-20.704258308780023" lon="117.1408511510383"><ele>13.5</ele><time>2026-04-23T03:03:44.999Z</time></trkpt><trkpt lat="-20.704392465175435" lon="117.14060134375033"><ele>14.0</ele><time>2026-04-23T03:03:45.999Z</time></trkpt><trkpt lat="-20.704532655799884" lon="117.14035358386039"><ele>14.5</ele><time>2026-04-23T03:03:47Z</time></trkpt><trkpt lat="-20.70468128257181" lon="117.1401101216656"><ele>15.0</ele><time>2026-04-23T03:03:48Z</time></trkpt><trkpt lat="-20.70484019624092" lon="117.13987321135157"><ele>16.5</ele><time>2026-04-23T03:03:49Z</time></trkpt><trkpt lat="-20.705013287396877" lon="117.13963994014547"><ele>18.0</ele><time>2026-04-23T03:03:50Z</time></trkpt><trkpt lat="-20.70519826024406" lon="117.13941895186156"><ele>18.0</ele><time>2026-04-23T03:03:51Z</time></trkpt><trkpt lat="-20.705390378522033" lon="117.13920647780532"><ele>18.0</ele><time>2026-04-23T03:03:52Z</time></trkpt><trkpt lat="-20.705586850271093" lon="117.13900157526889"><ele>16.0</ele><time>2026-04-23T03:03:53Z</time></trkpt><trkpt lat="-20.705788785706602" lon="117.13880703554001"><ele>14.0</ele><time>2026-04-23T03:03:54Z</time></trkpt><trkpt lat="-20.705997965786167" lon="117.13862337582133"><ele>16.0</ele><time>2026-04-23T03:03:55Z</time></trkpt><trkpt lat="-20.70621272020454" lon="117.13844860056743"><ele>18.0</ele><time>2026-04-23T03:03:56Z</time></trkpt><trkpt lat="-20.70643220459898" lon="117.13828705360837"><ele>17.5</ele><time>2026-04-23T03:03:57Z</time></trkpt><trkpt lat="-20.70665370196674" lon="117.13813603446067"><ele>17.0</ele><time>2026-04-23T03:03:58Z</time></trkpt><trkpt lat="-20.706878261187335" lon="117.13799650887889"><ele>17.5</ele><time>2026-04-23T03:03:59Z</time></trkpt><trkpt lat="-20.70710514637664" lon="117.13786458722069"><ele>18.0</ele><time>2026-04-23T03:04:00Z</time></trkpt><trkpt lat="-20.707332135594335" lon="117.13774190012691"><ele>18.0</ele><time>2026-04-23T03:04:01Z</time></trkpt><trkpt lat="-20.70756499230175" lon="117.1376311848149"><ele>18.0</ele><time>2026-04-23T03:04:02Z</time></trkpt><trkpt lat="-20.707801054424724" lon="117.13753066079033"><ele>18.0</ele><time>2026-04-23T03:04:03Z</time></trkpt><trkpt lat="-20.708039948004334" lon="117.13743596408528"><ele>18.0</ele><time>2026-04-23T03:04:04Z</time></trkpt><trkpt lat="-20.708280667827097" lon="117.13734194635838"><ele>18.5</ele><time>2026-04-23T03:04:05Z</time></trkpt><trkpt lat="-20.708522284285227" lon="117.13724449332676"><ele>19.0</ele><time>2026-04-23T03:04:06Z</time></trkpt><trkpt lat="-20.708763744260548" lon="117.13714408072599"><ele>18.0</ele><time>2026-04-23T03:04:07Z</time></trkpt><trkpt lat="-20.709009577961584" lon="117.13704282069396"><ele>17.0</ele><time>2026-04-23T03:04:08Z</time></trkpt><trkpt lat="-20.70926059496196" lon="117.13694559146717"><ele>17.5</ele><time>2026-04-23T03:04:09Z</time></trkpt><trkpt lat="-20.709517150775245" lon="117.13685198168722"><ele>18.0</ele><time>2026-04-23T03:04:10Z</time></trkpt><trkpt lat="-20.709776717629513" lon="117.13676035171287"><ele>18.0</ele><time>2026-04-23T03:04:11Z</time></trkpt><trkpt lat="-20.7100381769941" lon="117.13666712349539"><ele>18.0</ele><time>2026-04-23T03:04:12Z</time></trkpt><trkpt lat="-20.71030410387863" lon="117.13657742540582"><ele>18.0</ele><time>2026-04-23T03:04:13Z</time></trkpt><trkpt lat="-20.710575171048788" lon="117.13649690764503"><ele>18.0</ele><time>2026-04-23T03:04:14Z</time></trkpt><trkpt lat="-20.710847085003333" lon="117.13642914205452"><ele>19.0</ele><time>2026-04-23T03:04:15Z</time></trkpt><trkpt lat="-20.711119763722063" lon="117.13636782722426"><ele>20.0</ele><time>2026-04-23T03:04:16Z</time></trkpt><trkpt lat="-20.711393715837016" lon="117.13631014191625"><ele>20.0</ele><time>2026-04-23T03:04:17Z</time></trkpt><trkpt lat="-20.71166467305146" lon="117.1362605368352"><ele>20.0</ele><time>2026-04-23T03:04:18Z</time></trkpt><trkpt lat="-20.71193698720489" lon="117.1362182909949"><ele>20.5</ele><time>2026-04-23T03:04:19Z</time></trkpt><trkpt lat="-20.712211779153467" lon="117.13618524364855"><ele>21.0</ele><time>2026-04-23T03:04:20Z</time></trkpt><trkpt lat="-20.71248721673666" lon="117.13616419532717"><ele>19.5</ele><time>2026-04-23T03:04:21Z</time></trkpt><trkpt lat="-20.71276394890089" lon="117.13615179168569"><ele>18.0</ele><time>2026-04-23T03:04:22Z</time></trkpt><trkpt lat="-20.71304101297474" lon="117.13614231986021"><ele>18.0</ele><time>2026-04-23T03:04:23Z</time></trkpt><trkpt lat="-20.713316294816252" lon="117.13614010686847"><ele>18.0</ele><time>2026-04-23T03:04:24Z</time></trkpt><trkpt lat="-20.713595763205646" lon="117.13614362744742"><ele>18.0</ele><time>2026-04-23T03:04:25Z</time></trkpt><trkpt lat="-20.71387770365001" lon="117.1361525877527"><ele>18.0</ele><time>2026-04-23T03:04:26Z</time></trkpt><trkpt lat="-20.7141569735764" lon="117.13616918263504"><ele>18.0</ele><time>2026-04-23T03:04:27Z</time></trkpt><trkpt lat="-20.71443998841432" lon="117.1361952418832"><ele>18.0</ele><time>2026-04-23T03:04:28Z</time></trkpt><trkpt lat="-20.714718513645526" lon="117.1362322383695"><ele>18.0</ele><time>2026-04-23T03:04:29Z</time></trkpt><trkpt lat="-20.714997810800785" lon="117.13627834400661"><ele>18.0</ele><time>2026-04-23T03:04:30Z</time></trkpt><trkpt lat="-20.71527812961153" lon="117.1363310081658"><ele>18.0</ele><time>2026-04-23T03:04:31Z</time></trkpt><trkpt lat="-20.715562850457317" lon="117.13638425381818"><ele>18.0</ele><time>2026-04-23T03:04:32Z</time></trkpt><trkpt lat="-20.715845080387794" lon="117.13643839720042"><ele>17.5</ele><time>2026-04-23T03:04:33Z</time></trkpt><trkpt lat="-20.716128848754003" lon="117.13649488989998"><ele>17.0</ele><time>2026-04-23T03:04:34Z</time></trkpt><trkpt lat="-20.716413478373987" lon="117.13655082000528"><ele>17.0</ele><time>2026-04-23T03:04:35Z</time></trkpt><trkpt lat="-20.716694490800677" lon="117.13660667214151"><ele>17.0</ele><time>2026-04-23T03:04:36Z</time></trkpt><trkpt lat="-20.71697447563556" lon="117.13666094589061"><ele>16.5</ele><time>2026-04-23T03:04:37Z</time></trkpt><trkpt lat="-20.717254201812064" lon="117.13671597578796"><ele>16.0</ele><time>2026-04-23T03:04:38Z</time></trkpt><trkpt lat="-20.717528197291415" lon="117.13677043021947"><ele>16.0</ele><time>2026-04-23T03:04:39Z</time></trkpt><trkpt lat="-20.717800360358375" lon="117.13682226707168"><ele>16.0</ele><time>2026-04-23T03:04:40Z</time></trkpt><trkpt lat="-20.718070164425754" lon="117.1368771011076"><ele>16.0</ele><time>2026-04-23T03:04:41Z</time></trkpt><trkpt lat="-20.718338217970796" lon="117.13693046882726"><ele>16.0</ele><time>2026-04-23T03:04:42Z</time></trkpt><trkpt lat="-20.71860512006517" lon="117.136981953292"><ele>16.5</ele><time>2026-04-23T03:04:43Z</time></trkpt><trkpt lat="-20.71887287426431" lon="117.13703437294558"><ele>17.0</ele><time>2026-04-23T03:04:44Z</time></trkpt><trkpt lat="-20.719138501692075" lon="117.13708930913944"><ele>16.0</ele><time>2026-04-23T03:04:45Z</time></trkpt><trkpt lat="-20.719405461958072" lon="117.13714611021358"><ele>15.0</ele><time>2026-04-23T03:04:46Z</time></trkpt><trkpt lat="-20.719666427276415" lon="117.13720148279961"><ele>15.0</ele><time>2026-04-23T03:04:47Z</time></trkpt><trkpt lat="-20.719927183750368" lon="117.13725745550038"><ele>15.0</ele><time>2026-04-23T03:04:48Z</time></trkpt><trkpt lat="-20.7201867178106" lon="117.1373076347916"><ele>14.5</ele><time>2026-04-23T03:04:49Z</time></trkpt><trkpt lat="-20.720446850679707" lon="117.13735854251416"><ele>14.0</ele><time>2026-04-23T03:04:50Z</time></trkpt><trkpt lat="-20.7207073821465" lon="117.13741004855765"><ele>14.0</ele><time>2026-04-23T03:04:51Z</time></trkpt><trkpt lat="-20.720970043556218" lon="117.13746390549464"><ele>14.0</ele><time>2026-04-23T03:04:52Z</time></trkpt><trkpt lat="-20.721234039026356" lon="117.13751887860376"><ele>14.5</ele><time>2026-04-23T03:04:53Z</time></trkpt><trkpt lat="-20.721500874336694" lon="117.13757378854254"><ele>15.0</ele><time>2026-04-23T03:04:54Z</time></trkpt><trkpt lat="-20.72175885407085" lon="117.13762476447855"><ele>14.0</ele><time>2026-04-23T03:04:55Z</time></trkpt><trkpt lat="-20.72202433794502" lon="117.13767641260559"><ele>13.0</ele><time>2026-04-23T03:04:56Z</time></trkpt><trkpt lat="-20.72228731934846" lon="117.13772514001664"><ele>13.0</ele><time>2026-04-23T03:04:57Z</time></trkpt><trkpt lat="-20.722552882343738" lon="117.13776755393371"><ele>13.0</ele><time>2026-04-23T03:04:58Z</time></trkpt><trkpt lat="-20.722816407263828" lon="117.13780773966211"><ele>13.5</ele><time>2026-04-23T03:04:59Z</time></trkpt><trkpt lat="-20.72307728773684" lon="117.13784654327502"><ele>14.0</ele><time>2026-04-23T03:05:00Z</time></trkpt><trkpt lat="-20.723326974316873" lon="117.13788141493812"><ele>13.5</ele><time>2026-04-23T03:05:01Z</time></trkpt><trkpt lat="-20.723564818286242" lon="117.13791125172239"><ele>13.0</ele><time>2026-04-23T03:05:02Z</time></trkpt><trkpt lat="-20.72380723607665" lon="117.13793384965606"><ele>13.0</ele><time>2026-04-23T03:05:03Z</time></trkpt><trkpt lat="-20.724058409696493" lon="117.13795313745479"><ele>13.0</ele><time>2026-04-23T03:05:04Z</time></trkpt><trkpt lat="-20.72431230125218" lon="117.13796976653003"><ele>13.5</ele><time>2026-04-23T03:05:05Z</time></trkpt><trkpt lat="-20.72457337670146" lon="117.13798239173833"><ele>14.0</ele><time>2026-04-23T03:05:06Z</time></trkpt><trkpt lat="-20.7248378794023" lon="117.13798749642349"><ele>14.0</ele><time>2026-04-23T03:05:07Z</time></trkpt><trkpt lat="-20.72510345894969" lon="117.13799336777788"><ele>14.0</ele><time>2026-04-23T03:05:08Z</time></trkpt><trkpt lat="-20.725371649509654" lon="117.1379948541957"><ele>13.5</ele><time>2026-04-23T03:05:09Z</time></trkpt><trkpt lat="-20.72563980672819" lon="117.13799655463595"><ele>13.0</ele><time>2026-04-23T03:05:10Z</time></trkpt><trkpt lat="-20.725910879954906" lon="117.1379979197262"><ele>12.5</ele><time>2026-04-23T03:05:11Z</time></trkpt><trkpt lat="-20.7261809351838" lon="117.13799913396684"><ele>12.0</ele><time>2026-04-23T03:05:12Z</time></trkpt><trkpt lat="-20.726453430011436" lon="117.13799965596247"><ele>12.0</ele><time>2026-04-23T03:05:13Z</time></trkpt><trkpt lat="-20.726726966059335" lon="117.13799846932437"><ele>12.0</ele><time>2026-04-23T03:05:14Z</time></trkpt><trkpt lat="-20.72700149988995" lon="117.1379978701713"><ele>11.5</ele><time>2026-04-23T03:05:15Z</time></trkpt><trkpt lat="-20.727276294407737" lon="117.13799893251867"><ele>11.0</ele><time>2026-04-23T03:05:16.001Z</time></trkpt><trkpt lat="-20.727551542905136" lon="117.13800083451487"><ele>10.5</ele><time>2026-04-23T03:05:17.001Z</time></trkpt><trkpt lat="-20.727828647089467" lon="117.13800152008305"><ele>10.0</ele><time>2026-04-23T03:05:18.001Z</time></trkpt><trkpt lat="-20.728105671066004" lon="117.13800265711298"><ele>10.0</ele><time>2026-04-23T03:05:19.001Z</time></trkpt><trkpt lat="-20.728380307856753" lon="117.13800422546223"><ele>10.0</ele><time>2026-04-23T03:05:20.001Z</time></trkpt><trkpt lat="-20.72865664358149" lon="117.1380047926896"><ele>10.0</ele><time>2026-04-23T03:05:21.001Z</time></trkpt><trkpt lat="-20.728932667449826" lon="117.13800515239906"><ele>10.0</ele><time>2026-04-23T03:05:22.001Z</time></trkpt><trkpt lat="-20.729206154313633" lon="117.13800659140307"><ele>8.5</ele><time>2026-04-23T03:05:23.001Z</time></trkpt><trkpt lat="-20.7294800544464" lon="117.13800689946078"><ele>7.0</ele><time>2026-04-23T03:05:24.001Z</time></trkpt><trkpt lat="-20.729748717409407" lon="117.13800893182255"><ele>7.0</ele><time>2026-04-23T03:05:25.001Z</time></trkpt><trkpt lat="-20.73001424306808" lon="117.13801229905778"><ele>7.0</ele><time>2026-04-23T03:05:26.001Z</time></trkpt><trkpt lat="-20.730279081722255" lon="117.13801814872049"><ele>7.0</ele><time>2026-04-23T03:05:27.001Z</time></trkpt><trkpt lat="-20.730545036659297" lon="117.13802259380275"><ele>7.0</ele><time>2026-04-23T03:05:28.001Z</time></trkpt><trkpt lat="-20.73081062848793" lon="117.13802431684944"><ele>8.0</ele><time>2026-04-23T03:05:29.001Z</time></trkpt><trkpt lat="-20.73107770576907" lon="117.13802457231854"><ele>9.0</ele><time>2026-04-23T03:05:30.001Z</time></trkpt><trkpt lat="-20.73134270552909" lon="117.13802425080533"><ele>9.0</ele><time>2026-04-23T03:05:31.001Z</time></trkpt><trkpt lat="-20.731605823783134" lon="117.1380251667682"><ele>9.0</ele><time>2026-04-23T03:05:32.001Z</time></trkpt><trkpt lat="-20.73186918455273" lon="117.13802487314604"><ele>8.0</ele><time>2026-04-23T03:05:33.001Z</time></trkpt><trkpt lat="-20.732128695007653" lon="117.13802466628742"><ele>7.0</ele><time>2026-04-23T03:05:34.001Z</time></trkpt><trkpt lat="-20.732390173762575" lon="117.13802503890139"><ele>7.0</ele><time>2026-04-23T03:05:35.001Z</time></trkpt><trkpt lat="-20.732648413107505" lon="117.13802743689048"><ele>7.0</ele><time>2026-04-23T03:05:36.001Z</time></trkpt><trkpt lat="-20.732913771544695" lon="117.13803324923958"><ele>7.5</ele><time>2026-04-23T03:05:37Z</time></trkpt><trkpt lat="-20.733176944814822" lon="117.13803788784213"><ele>8.0</ele><time>2026-04-23T03:05:38Z</time></trkpt><trkpt lat="-20.733442129088825" lon="117.13803837446468"><ele>9.0</ele><time>2026-04-23T03:05:39Z</time></trkpt><trkpt lat="-20.73370970943208" lon="117.13803696280839"><ele>10.0</ele><time>2026-04-23T03:05:40Z</time></trkpt><trkpt lat="-20.733979978109407" lon="117.1380368645094"><ele>10.0</ele><time>2026-04-23T03:05:41Z</time></trkpt><trkpt lat="-20.73425606338206" lon="117.13803780098218"><ele>10.0</ele><time>2026-04-23T03:05:42Z</time></trkpt><trkpt lat="-20.734533625939797" lon="117.13803808400368"><ele>9.5</ele><time>2026-04-23T03:05:43Z</time></trkpt><trkpt lat="-20.734812928484615" lon="117.13804064837701"><ele>9.0</ele><time>2026-04-23T03:05:44Z</time></trkpt><trkpt lat="-20.735091339813223" lon="117.13804299467684"><ele>8.0</ele><time>2026-04-23T03:05:45Z</time></trkpt><trkpt lat="-20.73537073787042" lon="117.13804444623212"><ele>7.0</ele><time>2026-04-23T03:05:46Z</time></trkpt><trkpt lat="-20.735646757817005" lon="117.13804593123643"><ele>7.0</ele><time>2026-04-23T03:05:47Z</time></trkpt><trkpt lat="-20.73592418464055" lon="117.13804554798939"><ele>7.0</ele><time>2026-04-23T03:05:48Z</time></trkpt><trkpt lat="-20.736196426826965" lon="117.13804867287777"><ele>7.0</ele><time>2026-04-23T03:05:49Z</time></trkpt><trkpt lat="-20.736469338562383" lon="117.13805267150062"><ele>7.0</ele><time>2026-04-23T03:05:50Z</time></trkpt><trkpt lat="-20.736737012622218" lon="117.13805723038472"><ele>7.5</ele><time>2026-04-23T03:05:51Z</time></trkpt><trkpt lat="-20.737006553986554" lon="117.13805998100075"><ele>8.0</ele><time>2026-04-23T03:05:52Z</time></trkpt><trkpt lat="-20.737276461365408" lon="117.13806182308382"><ele>8.0</ele><time>2026-04-23T03:05:53Z</time></trkpt><trkpt lat="-20.737544266808058" lon="117.13806233149707"><ele>8.0</ele><time>2026-04-23T03:05:54Z</time></trkpt><trkpt lat="-20.737812800445738" lon="117.1380622405915"><ele>9.0</ele><time>2026-04-23T03:05:55Z</time></trkpt><trkpt lat="-20.738085570041303" lon="117.138061148645"><ele>10.0</ele><time>2026-04-23T03:05:56Z</time></trkpt><trkpt lat="-20.73835408513649" lon="117.13806158294382"><ele>9.5</ele><time>2026-04-23T03:05:57Z</time></trkpt><trkpt lat="-20.738628431172412" lon="117.13806910340341"><ele>9.0</ele><time>2026-04-23T03:05:58Z</time></trkpt><trkpt lat="-20.7389066880195" lon="117.13807927489478"><ele>9.0</ele><time>2026-04-23T03:05:59Z</time></trkpt><trkpt lat="-20.73918214693698" lon="117.13809372891895"><ele>9.0</ele><time>2026-04-23T03:06:00Z</time></trkpt><trkpt lat="-20.739455924823144" lon="117.13812102886301"><ele>9.5</ele><time>2026-04-23T03:06:01Z</time></trkpt><trkpt lat="-20.739731585895314" lon="117.13816269754882"><ele>10.0</ele><time>2026-04-23T03:06:02Z</time></trkpt><trkpt lat="-20.740004075977094" lon="117.1382167813467"><ele>9.0</ele><time>2026-04-23T03:06:03Z</time></trkpt><trkpt lat="-20.740275219479862" lon="117.1382777860989"><ele>8.0</ele><time>2026-04-23T03:06:04Z</time></trkpt><trkpt lat="-20.740542354107163" lon="117.13834681263835"><ele>8.0</ele><time>2026-04-23T03:06:05Z</time></trkpt><trkpt lat="-20.740809242366968" lon="117.13842235026274"><ele>8.0</ele><time>2026-04-23T03:06:06Z</time></trkpt><trkpt lat="-20.74107045202767" lon="117.13850480043756"><ele>9.5</ele><time>2026-04-23T03:06:07Z</time></trkpt><trkpt lat="-20.741332918413367" lon="117.13860065324566"><ele>11.0</ele><time>2026-04-23T03:06:08Z</time></trkpt><trkpt lat="-20.741592216677706" lon="117.13871199612244"><ele>11.0</ele><time>2026-04-23T03:06:09Z</time></trkpt><trkpt lat="-20.741847670646838" lon="117.13883395332158"><ele>11.0</ele><time>2026-04-23T03:06:10Z</time></trkpt><trkpt lat="-20.74209958162658" lon="117.13895693146046"><ele>9.5</ele><time>2026-04-23T03:06:11Z</time></trkpt><trkpt lat="-20.74235671894998" lon="117.13907447790072"><ele>8.0</ele><time>2026-04-23T03:06:12Z</time></trkpt><trkpt lat="-20.742614070149106" lon="117.13918854679417"><ele>7.5</ele><time>2026-04-23T03:06:13Z</time></trkpt><trkpt lat="-20.742868994110445" lon="117.1393018837961"><ele>7.0</ele><time>2026-04-23T03:06:14Z</time></trkpt><trkpt lat="-20.743120620742406" lon="117.13941312282583"><ele>7.0</ele><time>2026-04-23T03:06:15Z</time></trkpt><trkpt lat="-20.743368101260355" lon="117.13952577389159"><ele>7.0</ele><time>2026-04-23T03:06:16Z</time></trkpt><trkpt lat="-20.743615675774823" lon="117.13963696999507"><ele>7.5</ele><time>2026-04-23T03:06:17Z</time></trkpt><trkpt lat="-20.743861779803385" lon="117.13974966292344"><ele>8.0</ele><time>2026-04-23T03:06:18Z</time></trkpt><trkpt lat="-20.74410814928819" lon="117.13986357009105"><ele>8.0</ele><time>2026-04-23T03:06:19Z</time></trkpt><trkpt lat="-20.74435240046073" lon="117.13997575010073"><ele>8.0</ele><time>2026-04-23T03:06:20Z</time></trkpt><trkpt lat="-20.744598878085217" lon="117.14008773546425"><ele>7.0</ele><time>2026-04-23T03:06:21Z</time></trkpt><trkpt lat="-20.744844752641544" lon="117.14020136320174"><ele>6.0</ele><time>2026-04-23T03:06:22Z</time></trkpt><trkpt lat="-20.745091611414022" lon="117.14031363483663"><ele>5.5</ele><time>2026-04-23T03:06:23Z</time></trkpt><trkpt lat="-20.745337045071025" lon="117.14042375140752"><ele>5.0</ele><time>2026-04-23T03:06:24Z</time></trkpt><trkpt lat="-20.74558637613004" lon="117.140535027777"><ele>5.0</ele><time>2026-04-23T03:06:25Z</time></trkpt><trkpt lat="-20.745831021549456" lon="117.14064589613311"><ele>5.0</ele><time>2026-04-23T03:06:26Z</time></trkpt><trkpt lat="-20.746077578220287" lon="117.14075784455855"><ele>6.0</ele><time>2026-04-23T03:06:27Z</time></trkpt><trkpt lat="-20.74632596984365" lon="117.14087043470231"><ele>7.0</ele><time>2026-04-23T03:06:28Z</time></trkpt><trkpt lat="-20.74657371519044" lon="117.14098362606086"><ele>7.0</ele><time>2026-04-23T03:06:29Z</time></trkpt><trkpt lat="-20.74682634682745" lon="117.14109744836757"><ele>7.0</ele><time>2026-04-23T03:06:30Z</time></trkpt><trkpt lat="-20.74708070727958" lon="117.14121172083063"><ele>8.0</ele><time>2026-04-23T03:06:31Z</time></trkpt><trkpt lat="-20.747327621558004" lon="117.14132349007714"><ele>9.0</ele><time>2026-04-23T03:06:32Z</time></trkpt><trkpt lat="-20.747557420363858" lon="117.14142781057132"><ele>9.5</ele><time>2026-04-23T03:06:33Z</time></trkpt><trkpt lat="-20.747788972271813" lon="117.14153308183793"><ele>10.0</ele><time>2026-04-23T03:06:34Z</time></trkpt><trkpt lat="-20.748029201047544" lon="117.14164040406294"><ele>10.5</ele><time>2026-04-23T03:06:35Z</time></trkpt><trkpt lat="-20.748272674735894" lon="117.14175127750354"><ele>11.0</ele><time>2026-04-23T03:06:36Z</time></trkpt><trkpt lat="-20.74852157027479" lon="117.14186750257237"><ele>11.5</ele><time>2026-04-23T03:06:37Z</time></trkpt><trkpt lat="-20.748774824063474" lon="117.14198472078712"><ele>12.0</ele><time>2026-04-23T03:06:38Z</time></trkpt><trkpt lat="-20.749027891820084" lon="117.14209932393076"><ele>12.0</ele><time>2026-04-23T03:06:39Z</time></trkpt><trkpt lat="-20.749285231283555" lon="117.14221539375623"><ele>12.0</ele><time>2026-04-23T03:06:40Z</time></trkpt><trkpt lat="-20.74954325075747" lon="117.14233349172025"><ele>11.5</ele><time>2026-04-23T03:06:41Z</time></trkpt><trkpt lat="-20.7497986330911" lon="117.1424492000179"><ele>11.0</ele><time>2026-04-23T03:06:42Z</time></trkpt><trkpt lat="-20.75005475261247" lon="117.14256494092211"><ele>10.0</ele><time>2026-04-23T03:06:43Z</time></trkpt><trkpt lat="-20.750309682048933" lon="117.14268048241003"><ele>9.0</ele><time>2026-04-23T03:06:44Z</time></trkpt><trkpt lat="-20.750564755250423" lon="117.14279534415286"><ele>9.0</ele><time>2026-04-23T03:06:45Z</time></trkpt><trkpt lat="-20.750822401615938" lon="117.14290896363251"><ele>9.0</ele><time>2026-04-23T03:06:46Z</time></trkpt><trkpt lat="-20.751080525653528" lon="117.14302308259872"><ele>10.5</ele><time>2026-04-23T03:06:47Z</time></trkpt><trkpt lat="-20.751335156229633" lon="117.14314002609527"><ele>12.0</ele><time>2026-04-23T03:06:48Z</time></trkpt><trkpt lat="-20.75159085631565" lon="117.1432534675473"><ele>12.0</ele><time>2026-04-23T03:06:49Z</time></trkpt><trkpt lat="-20.751843551447532" lon="117.14336029239361"><ele>12.0</ele><time>2026-04-23T03:06:50Z</time></trkpt><trkpt lat="-20.752100039815037" lon="117.14345870321202"><ele>12.0</ele><time>2026-04-23T03:06:51Z</time></trkpt><trkpt lat="-20.752356427847364" lon="117.14354960083368"><ele>12.0</ele><time>2026-04-23T03:06:52Z</time></trkpt><trkpt lat="-20.75260967549331" lon="117.14363009753082"><ele>12.0</ele><time>2026-04-23T03:06:53Z</time></trkpt><trkpt lat="-20.752869692961276" lon="117.1437081334939"><ele>12.0</ele><time>2026-04-23T03:06:54Z</time></trkpt><trkpt lat="-20.753130063771252" lon="117.14377717036434"><ele>12.0</ele><time>2026-04-23T03:06:55Z</time></trkpt><trkpt lat="-20.753390964776134" lon="117.14383877187747"><ele>12.0</ele><time>2026-04-23T03:06:56Z</time></trkpt><trkpt lat="-20.753655976756328" lon="117.1438941056296"><ele>12.5</ele><time>2026-04-23T03:06:57Z</time></trkpt><trkpt lat="-20.75392268096994" lon="117.14394589572363"><ele>13.0</ele><time>2026-04-23T03:06:58Z</time></trkpt><trkpt lat="-20.754191543702756" lon="117.1439900636035"><ele>12.0</ele><time>2026-04-23T03:06:59Z</time></trkpt><trkpt lat="-20.754465755754413" lon="117.14402767666083"><ele>11.0</ele><time>2026-04-23T03:07:00Z</time></trkpt><trkpt lat="-20.754739603510327" lon="117.14405094410174"><ele>11.0</ele><time>2026-04-23T03:07:01Z</time></trkpt><trkpt lat="-20.755016337618414" lon="117.14406374065643"><ele>11.0</ele><time>2026-04-23T03:07:02Z</time></trkpt><trkpt lat="-20.755291713214746" lon="117.14406997670244"><ele>11.5</ele><time>2026-04-23T03:07:03Z</time></trkpt><trkpt lat="-20.755568113179354" lon="117.14407169885958"><ele>12.0</ele><time>2026-04-23T03:07:04.001Z</time></trkpt><trkpt lat="-20.755843378303457" lon="117.14407117680175"><ele>12.0</ele><time>2026-04-23T03:07:05.001Z</time></trkpt><trkpt lat="-20.756120620319557" lon="117.14406208112213"><ele>12.0</ele><time>2026-04-23T03:07:06.001Z</time></trkpt><trkpt lat="-20.756396192696485" lon="117.14404164369327"><ele>12.5</ele><time>2026-04-23T03:07:07.001Z</time></trkpt><trkpt lat="-20.756671954398303" lon="117.14401075917422"><ele>13.0</ele><time>2026-04-23T03:07:08.001Z</time></trkpt><trkpt lat="-20.75695134182555" lon="117.14397034240805"><ele>13.0</ele><time>2026-04-23T03:07:09.001Z</time></trkpt><trkpt lat="-20.757229773364017" lon="117.14392608716844"><ele>13.0</ele><time>2026-04-23T03:07:10.001Z</time></trkpt><trkpt lat="-20.75750830042467" lon="117.14387488748709"><ele>12.0</ele><time>2026-04-23T03:07:11.001Z</time></trkpt><trkpt lat="-20.757789149004022" lon="117.14381394964725"><ele>11.0</ele><time>2026-04-23T03:07:12.001Z</time></trkpt><trkpt lat="-20.758062748611316" lon="117.14374028614554"><ele>11.0</ele><time>2026-04-23T03:07:13.001Z</time></trkpt><trkpt lat="-20.75834546046602" lon="117.14366353468239"><ele>11.0</ele><time>2026-04-23T03:07:14.001Z</time></trkpt><trkpt lat="-20.75862665592816" lon="117.1435854795149"><ele>10.5</ele><time>2026-04-23T03:07:15.001Z</time></trkpt><trkpt lat="-20.758904475516257" lon="117.14350582931104"><ele>10.0</ele><time>2026-04-23T03:07:16.001Z</time></trkpt><trkpt lat="-20.759175868898954" lon="117.14342561050096"><ele>11.5</ele><time>2026-04-23T03:07:17.001Z</time></trkpt><trkpt lat="-20.75944187359411" lon="117.14334520473878"><ele>13.0</ele><time>2026-04-23T03:07:18.001Z</time></trkpt><trkpt lat="-20.75971028724506" lon="117.14326130998796"><ele>12.5</ele><time>2026-04-23T03:07:19.001Z</time></trkpt><trkpt lat="-20.759974176197428" lon="117.1431748552028"><ele>12.0</ele><time>2026-04-23T03:07:20.001Z</time></trkpt><trkpt lat="-20.760236403647614" lon="117.14308463371424"><ele>12.0</ele><time>2026-04-23T03:07:21.001Z</time></trkpt><trkpt lat="-20.76049720874403" lon="117.14299180449188"><ele>12.0</ele><time>2026-04-23T03:07:22.001Z</time></trkpt><trkpt lat="-20.76075442155932" lon="117.1429037167715"><ele>12.0</ele><time>2026-04-23T03:07:23.001Z</time></trkpt><trkpt lat="-20.761012693986725" lon="117.14281473399693"><ele>12.0</ele><time>2026-04-23T03:07:24.001Z</time></trkpt><trkpt lat="-20.761268500392173" lon="117.14272376740756"><ele>11.5</ele><time>2026-04-23T03:07:25.001Z</time></trkpt><trkpt lat="-20.761523842154975" lon="117.14263123178965"><ele>11.0</ele><time>2026-04-23T03:07:26.001Z</time></trkpt><trkpt lat="-20.7617721896183" lon="117.14253959972433"><ele>10.5</ele><time>2026-04-23T03:07:27.001Z</time></trkpt><trkpt lat="-20.76201375590949" lon="117.14245395371576"><ele>10.0</ele><time>2026-04-23T03:07:28.001Z</time></trkpt><trkpt lat="-20.762239198890892" lon="117.14237875361239"><ele>10.0</ele><time>2026-04-23T03:07:29.001Z</time></trkpt><trkpt lat="-20.762453876596133" lon="117.14231028517392"><ele>10.0</ele><time>2026-04-23T03:07:30.001Z</time></trkpt><trkpt lat="-20.762655630478736" lon="117.14224637288899"><ele>10.0</ele><time>2026-04-23T03:07:31.001Z</time></trkpt><trkpt lat="-20.76284266213305" lon="117.14218309316196"><ele>11.0</ele><time>2026-04-23T03:07:32.001Z</time></trkpt><trkpt lat="-20.763018842703154" lon="117.142125493873"><ele>12.0</ele><time>2026-04-23T03:07:33.001Z</time></trkpt><trkpt lat="-20.763187656833676" lon="117.14207015471074"><ele>13.0</ele><time>2026-04-23T03:07:34.001Z</time></trkpt><trkpt lat="-20.76333847732807" lon="117.14201833416793"><ele>13.0</ele><time>2026-04-23T03:07:35.001Z</time></trkpt><trkpt lat="-20.763479625469415" lon="117.14196804821037"><ele>13.0</ele><time>2026-04-23T03:07:36.001Z</time></trkpt><trkpt lat="-20.763605271865483" lon="117.14192716942365"><ele>13.0</ele><time>2026-04-23T03:07:37.001Z</time></trkpt><trkpt lat="-20.763712623040842" lon="117.14189376441311"><ele>13.0</ele><time>2026-04-23T03:07:38.001Z</time></trkpt><trkpt lat="-20.763806439668866" lon="117.1418736187721"><ele>13.0</ele><time>2026-04-23T03:07:39.001Z</time></trkpt><trkpt lat="-20.76387864066611" lon="117.14182891124683"><ele>13.0</ele><time>2026-04-23T03:07:40.001Z</time></trkpt><trkpt lat="-20.764011292326533" lon="117.14191512441218"><ele>13.0</ele><time>2026-04-23T03:07:41.001Z</time></trkpt><trkpt lat="-20.76410090811029" lon="117.14200629477686"><ele>13.0</ele><time>2026-04-23T03:07:42.001Z</time></trkpt><trkpt lat="-20.76420761044388" lon="117.14209958798436"><ele>13.0</ele><time>2026-04-23T03:07:43Z</time></trkpt><trkpt lat="-20.764328551103397" lon="117.1421903029191"><ele>13.0</ele><time>2026-04-23T03:07:44Z</time></trkpt><trkpt lat="-20.764449497403557" lon="117.14229494119478"><ele>13.0</ele><time>2026-04-23T03:07:45Z</time></trkpt><trkpt lat="-20.76458172611801" lon="117.14240256589024"><ele>13.0</ele><time>2026-04-23T03:07:46Z</time></trkpt><trkpt lat="-20.76472101365389" lon="117.14251437383597"><ele>13.0</ele><time>2026-04-23T03:07:47Z</time></trkpt><trkpt lat="-20.76486605601117" lon="117.1426297560595"><ele>13.0</ele><time>2026-04-23T03:07:48Z</time></trkpt><trkpt lat="-20.76500995645814" lon="117.142748187311"><ele>13.0</ele><time>2026-04-23T03:07:49Z</time></trkpt><trkpt lat="-20.76515788945298" lon="117.14287187607417"><ele>13.0</ele><time>2026-04-23T03:07:50Z</time></trkpt><trkpt lat="-20.765300926759917" lon="117.14299786009447"><ele>13.0</ele><time>2026-04-23T03:07:51Z</time></trkpt><trkpt lat="-20.765438901838554" lon="117.143134168377"><ele>12.666666666666666</ele><time>2026-04-23T03:07:52Z</time></trkpt><trkpt lat="-20.765566938916198" lon="117.14328384374502"><ele>12.333333333333332</ele><time>2026-04-23T03:07:53Z</time></trkpt><trkpt lat="-20.765686612682618" lon="117.14344735914038"><ele>12.0</ele><time>2026-04-23T03:07:54Z</time></trkpt><trkpt lat="-20.765798926506612" lon="117.14362555645758"><ele>12.0</ele><time>2026-04-23T03:07:55Z</time></trkpt><trkpt lat="-20.765905442925305" lon="117.14381204592627"><ele>12.0</ele><time>2026-04-23T03:07:56Z</time></trkpt><trkpt lat="-20.766011256512744" lon="117.14400691554577"><ele>12.0</ele><time>2026-04-23T03:07:57Z</time></trkpt><trkpt lat="-20.766111429928475" lon="117.14419179598815"><ele>12.0</ele><time>2026-04-23T03:07:58Z</time></trkpt><trkpt lat="-20.766209357477717" lon="117.14437117784885"><ele>12.0</ele><time>2026-04-23T03:07:59Z</time></trkpt><trkpt lat="-20.7662989934015" lon="117.14453609977068"><ele>12.0</ele><time>2026-04-23T03:08:00Z</time></trkpt><trkpt lat="-20.76638104490031" lon="117.14469121091084"><ele>12.0</ele><time>2026-04-23T03:08:01Z</time></trkpt><trkpt lat="-20.766463842743114" lon="117.14484724989009"><ele>12.0</ele><time>2026-04-23T03:08:02Z</time></trkpt><trkpt lat="-20.766552610864952" lon="117.14500262608625"><ele>12.0</ele><time>2026-04-23T03:08:03Z</time></trkpt><trkpt lat="-20.766647931583652" lon="117.14516416504313"><ele>12.333333333333332</ele><time>2026-04-23T03:08:04Z</time></trkpt><trkpt lat="-20.766744273782734" lon="117.14532712247119"><ele>12.666666666666666</ele><time>2026-04-23T03:08:05Z</time></trkpt><trkpt lat="-20.76684282035711" lon="117.14548853961351"><ele>13.0</ele><time>2026-04-23T03:08:06Z</time></trkpt><trkpt lat="-20.766941895977162" lon="117.14563747188708"><ele>12.666666666666666</ele><time>2026-04-23T03:08:07Z</time></trkpt><trkpt lat="-20.767045238211644" lon="117.14576561007999"><ele>12.333333333333332</ele><time>2026-04-23T03:08:08Z</time></trkpt><trkpt lat="-20.76715564064735" lon="117.14588126137309"><ele>12.0</ele><time>2026-04-23T03:08:09Z</time></trkpt><trkpt lat="-20.767266579499065" lon="117.14598346803446"><ele>12.0</ele><time>2026-04-23T03:08:10Z</time></trkpt><trkpt lat="-20.767374489600076" lon="117.14607208280265"><ele>12.0</ele><time>2026-04-23T03:08:11Z</time></trkpt><trkpt lat="-20.7674802501076" lon="117.14615372555386"><ele>12.0</ele><time>2026-04-23T03:08:12Z</time></trkpt><trkpt lat="-20.767574645092115" lon="117.14622439984608"><ele>12.0</ele><time>2026-04-23T03:08:13Z</time></trkpt><trkpt lat="-20.767657040978847" lon="117.14626996685074"><ele>11.833333333333334</ele><time>2026-04-23T03:08:14Z</time></trkpt><trkpt lat="-20.767742587522427" lon="117.14628340336685"><ele>11.666666666666666</ele><time>2026-04-23T03:08:15Z</time></trkpt><trkpt lat="-20.76782418796379" lon="117.14626319214678"><ele>11.5</ele><time>2026-04-23T03:08:16Z</time></trkpt><trkpt lat="-20.767890870109472" lon="117.1462190790137"><ele>11.333333333333332</ele><time>2026-04-23T03:08:17Z</time></trkpt><trkpt lat="-20.767938488047793" lon="117.14616672825395"><ele>11.166666666666666</ele><time>2026-04-23T03:08:18Z</time></trkpt><trkpt lat="-20.76802053953452" lon="117.14611513342805"><ele>11.0</ele><time>2026-04-23T03:08:20Z</time></trkpt><trkpt lat="-20.768079748727406" lon="117.14607551346907"><ele>11.0</ele><time>2026-04-23T03:08:24Z</time></trkpt></trkseg><trkseg><trkpt lat="-20.768183727641397" lon="117.14614796551909"><ele>11.0</ele><time>2026-04-23T03:22:38Z</time></trkpt><trkpt lat="-20.768204605110586" lon="117.1462492996629"><ele>11.0</ele><time>2026-04-23T03:22:40Z</time></trkpt><trkpt lat="-20.768188634364034" lon="117.1463551332214"><ele>11.0</ele><time>2026-04-23T03:22:42Z</time></trkpt><trkpt lat="-20.768209719304778" lon="117.1464494921719"><ele>11.0</ele><time>2026-04-23T03:22:44Z</time></trkpt><trkpt lat="-20.768256024204554" lon="117.14650122108844"><ele>11.0</ele><time>2026-04-23T03:22:45Z</time></trkpt><trkpt lat="-20.768337537864145" lon="117.1465443671597"><ele>11.0</ele><time>2026-04-23T03:22:46Z</time></trkpt><trkpt lat="-20.768455474092608" lon="117.14656996568596"><ele>10.666666666666666</ele><time>2026-04-23T03:22:47Z</time></trkpt><trkpt lat="-20.76859742304174" lon="117.14658687290672"><ele>10.333333333333334</ele><time>2026-04-23T03:22:48Z</time></trkpt><trkpt lat="-20.768747235223707" lon="117.14660042542218"><ele>10.0</ele><time>2026-04-23T03:22:49Z</time></trkpt><trkpt lat="-20.768910995993778" lon="117.14661551199093"><ele>10.0</ele><time>2026-04-23T03:22:50Z</time></trkpt><trkpt lat="-20.76907148786086" lon="117.14663057455239"><ele>10.0</ele><time>2026-04-23T03:22:51Z</time></trkpt><trkpt lat="-20.769226930817336" lon="117.1466404962022"><ele>10.0</ele><time>2026-04-23T03:22:52Z</time></trkpt><trkpt lat="-20.769368898581583" lon="117.14664977936073"><ele>9.75</ele><time>2026-04-23T03:22:53Z</time></trkpt><trkpt lat="-20.769509314629026" lon="117.14665674856631"><ele>9.5</ele><time>2026-04-23T03:22:54Z</time></trkpt><trkpt lat="-20.76964690394495" lon="117.14666434881032"><ele>9.25</ele><time>2026-04-23T03:22:55Z</time></trkpt><trkpt lat="-20.769774834208093" lon="117.14667201867752"><ele>9.0</ele><time>2026-04-23T03:22:56Z</time></trkpt><trkpt lat="-20.7698929590116" lon="117.1466804068514"><ele>9.0</ele><time>2026-04-23T03:22:57Z</time></trkpt><trkpt lat="-20.77000510469092" lon="117.14668629257054"><ele>9.0</ele><time>2026-04-23T03:22:58Z</time></trkpt><trkpt lat="-20.770109887396018" lon="117.14669239622347"><ele>9.0</ele><time>2026-04-23T03:22:59Z</time></trkpt><trkpt lat="-20.770215044647546" lon="117.1467018543197"><ele>9.0</ele><time>2026-04-23T03:23:00Z</time></trkpt><trkpt lat="-20.770326770690748" lon="117.14671174124825"><ele>9.0</ele><time>2026-04-23T03:23:01Z</time></trkpt><trkpt lat="-20.77045568100849" lon="117.14671921831095"><ele>10.0</ele><time>2026-04-23T03:23:02Z</time></trkpt><trkpt lat="-20.770601275140347" lon="117.14673168889684"><ele>11.0</ele><time>2026-04-23T03:23:03Z</time></trkpt><trkpt lat="-20.780505305256934" lon="117.14431361216779"><ele>11.0</ele><time>2026-04-23T03:24:04Z</time></trkpt><trkpt lat="-20.78062884728811" lon="117.14428426343436"><ele>11.0</ele><time>2026-04-23T03:24:05Z</time></trkpt><trkpt lat="-20.780733623856197" lon="117.14426271337122"><ele>11.0</ele><time>2026-04-23T03:24:06Z</time></trkpt><trkpt lat="-20.780823656146236" lon="117.14425762367489"><ele>11.0</ele><time>2026-04-23T03:24:07Z</time></trkpt><trkpt lat="-20.7809089097453" lon="117.14427975867615"><ele>11.0</ele><time>2026-04-23T03:24:08Z</time></trkpt><trkpt lat="-20.78098495879317" lon="117.14433150871788"><ele>11.0</ele><time>2026-04-23T03:24:09Z</time></trkpt><trkpt lat="-20.781043915843625" lon="117.1444091496686"><ele>11.0</ele><time>2026-04-23T03:24:10Z</time></trkpt><trkpt lat="-20.7811195666221" lon="117.14448492841095"><ele>11.0</ele><time>2026-04-23T03:24:11Z</time></trkpt><trkpt lat="-20.781126659412248" lon="117.14463989750698"><ele>11.0</ele><time>2026-04-23T03:24:12Z</time></trkpt><trkpt lat="-20.781157296918714" lon="117.14478350568272"><ele>11.333333333333332</ele><time>2026-04-23T03:24:13Z</time></trkpt><trkpt lat="-20.78118878398912" lon="117.14493989058231"><ele>11.666666666666666</ele><time>2026-04-23T03:24:14Z</time></trkpt><trkpt lat="-20.781227320285133" lon="117.14511196400126"><ele>12.0</ele><time>2026-04-23T03:24:15Z</time></trkpt><trkpt lat="-20.781271442145112" lon="117.14530161884443"><ele>12.0</ele><time>2026-04-23T03:24:16Z</time></trkpt><trkpt lat="-20.781317660162358" lon="117.14549817865367"><ele>12.0</ele><time>2026-04-23T03:24:17Z</time></trkpt><trkpt lat="-20.78136427976389" lon="117.1456980569404"><ele>12.0</ele><time>2026-04-23T03:24:18Z</time></trkpt><trkpt lat="-20.781414901278612" lon="117.14590383450577"><ele>11.666666666666666</ele><time>2026-04-23T03:24:19Z</time></trkpt><trkpt lat="-20.781469401528952" lon="117.14611380739633"><ele>11.333333333333332</ele><time>2026-04-23T03:24:20Z</time></trkpt><trkpt lat="-20.78153241840888" lon="117.14633132958858"><ele>11.0</ele><time>2026-04-23T03:24:21Z</time></trkpt><trkpt lat="-20.78159217344035" lon="117.14655701726295"><ele>10.0</ele><time>2026-04-23T03:24:22Z</time></trkpt><trkpt lat="-20.781646354212814" lon="117.14678897726749"><ele>9.0</ele><time>2026-04-23T03:24:23Z</time></trkpt><trkpt lat="-20.781704473745666" lon="117.1470204404451"><ele>8.0</ele><time>2026-04-23T03:24:24Z</time></trkpt><trkpt lat="-20.78176455771354" lon="117.147256660167"><ele>8.0</ele><time>2026-04-23T03:24:25Z</time></trkpt><trkpt lat="-20.781821181374" lon="117.14749534182776"><ele>8.0</ele><time>2026-04-23T03:24:26Z</time></trkpt><trkpt lat="-20.781876517334535" lon="117.14772516768785"><ele>8.5</ele><time>2026-04-23T03:24:27Z</time></trkpt><trkpt lat="-20.781935567988302" lon="117.14796225773816"><ele>9.0</ele><time>2026-04-23T03:24:28Z</time></trkpt><trkpt lat="-20.781997763491567" lon="117.14820792674998"><ele>9.5</ele><time>2026-04-23T03:24:29Z</time></trkpt><trkpt lat="-20.782061103477137" lon="117.14846121313919"><ele>10.0</ele><time>2026-04-23T03:24:30Z</time></trkpt><trkpt lat="-20.782128766034024" lon="117.14871940668566"><ele>10.0</ele><time>2026-04-23T03:24:31Z</time></trkpt><trkpt lat="-20.782197275725878" lon="117.14898462334179"><ele>10.0</ele><time>2026-04-23T03:24:32Z</time></trkpt><trkpt lat="-20.7822626732363" lon="117.14924329008493"><ele>10.0</ele><time>2026-04-23T03:24:33Z</time></trkpt><trkpt lat="-20.782323852784963" lon="117.14949605197442"><ele>10.0</ele><time>2026-04-23T03:24:34Z</time></trkpt><trkpt lat="-20.782385269230534" lon="117.14975087294906"><ele>10.5</ele><time>2026-04-23T03:24:35Z</time></trkpt><trkpt lat="-20.782445889947205" lon="117.15000615603353"><ele>11.0</ele><time>2026-04-23T03:24:36Z</time></trkpt><trkpt lat="-20.782508441177498" lon="117.15026334488593"><ele>11.0</ele><time>2026-04-23T03:24:37Z</time></trkpt><trkpt lat="-20.78256971124471" lon="117.15052363639026"><ele>11.0</ele><time>2026-04-23T03:24:38Z</time></trkpt><trkpt lat="-20.782632086177774" lon="117.15078818915201"><ele>11.5</ele><time>2026-04-23T03:24:39Z</time></trkpt><trkpt lat="-20.782693329065665" lon="117.15105144173035"><ele>12.0</ele><time>2026-04-23T03:24:40Z</time></trkpt><trkpt lat="-20.782743690541814" lon="117.1513195130211"><ele>12.5</ele><time>2026-04-23T03:24:41Z</time></trkpt><trkpt lat="-20.782776936211427" lon="117.15158634005158"><ele>13.0</ele><time>2026-04-23T03:24:42Z</time></trkpt><trkpt lat="-20.7828000095725" lon="117.15185819042522"><ele>13.0</ele><time>2026-04-23T03:24:43Z</time></trkpt><trkpt lat="-20.782823388675048" lon="117.1521293667924"><ele>13.0</ele><time>2026-04-23T03:24:44Z</time></trkpt><trkpt lat="-20.782848701628367" lon="117.15239619291647"><ele>14.0</ele><time>2026-04-23T03:24:45Z</time></trkpt><trkpt lat="-20.782874488217455" lon="117.15266696824987"><ele>15.0</ele><time>2026-04-23T03:24:46Z</time></trkpt><trkpt lat="-20.782898362674757" lon="117.15293338734864"><ele>15.0</ele><time>2026-04-23T03:24:47Z</time></trkpt><trkpt lat="-20.782924275874386" lon="117.15319970853109"><ele>15.0</ele><time>2026-04-23T03:24:48Z</time></trkpt><trkpt lat="-20.78295004094676" lon="117.15346319514896"><ele>14.0</ele><time>2026-04-23T03:24:49Z</time></trkpt><trkpt lat="-20.78297645881802" lon="117.15372659334157"><ele>13.0</ele><time>2026-04-23T03:24:50Z</time></trkpt><trkpt lat="-20.78300094354333" lon="117.153987594582"><ele>13.0</ele><time>2026-04-23T03:24:51Z</time></trkpt><trkpt lat="-20.78302738835137" lon="117.15424642133914"><ele>13.0</ele><time>2026-04-23T03:24:52Z</time></trkpt><trkpt lat="-20.783052457815906" lon="117.15450378631735"><ele>13.0</ele><time>2026-04-23T03:24:53Z</time></trkpt><trkpt lat="-20.783078077599274" lon="117.15476020280026"><ele>13.0</ele><time>2026-04-23T03:24:54Z</time></trkpt><trkpt lat="-20.7831039635472" lon="117.15501456752231"><ele>14.0</ele><time>2026-04-23T03:24:55Z</time></trkpt><trkpt lat="-20.78312846029171" lon="117.15526635228647"><ele>15.0</ele><time>2026-04-23T03:24:56Z</time></trkpt><trkpt lat="-20.783154281873276" lon="117.15552022662253"><ele>15.0</ele><time>2026-04-23T03:24:57Z</time></trkpt><trkpt lat="-20.783181505045118" lon="117.15577782870501"><ele>15.0</ele><time>2026-04-23T03:24:58Z</time></trkpt><trkpt lat="-20.783206387753026" lon="117.15602848980426"><ele>15.0</ele><time>2026-04-23T03:24:59Z</time></trkpt><trkpt lat="-20.783230729917808" lon="117.15628173131803"><ele>15.0</ele><time>2026-04-23T03:25:00Z</time></trkpt><trkpt lat="-20.78325502237203" lon="117.15653591397661"><ele>13.5</ele><time>2026-04-23T03:25:01Z</time></trkpt><trkpt lat="-20.78328080254764" lon="117.15679046255211"><ele>12.0</ele><time>2026-04-23T03:25:02Z</time></trkpt><trkpt lat="-20.783305273923585" lon="117.1570440960824"><ele>13.0</ele><time>2026-04-23T03:25:03Z</time></trkpt><trkpt lat="-20.78492739161818" lon="117.17335175283986"><ele>13.0</ele><time>2026-04-23T03:26:01.999Z</time></trkpt><trkpt lat="-20.784951685917612" lon="117.1736154274474"><ele>13.0</ele><time>2026-04-23T03:26:02.999Z</time></trkpt><trkpt lat="-20.784979687070354" lon="117.17387608256936"><ele>12.5</ele><time>2026-04-23T03:26:03.999Z</time></trkpt><trkpt lat="-20.785002596664672" lon="117.1741401404064"><ele>12.0</ele><time>2026-04-23T03:26:04.999Z</time></trkpt><trkpt lat="-20.785027737409003" lon="117.17440970404616"><ele>12.0</ele><time>2026-04-23T03:26:05.999Z</time></trkpt><trkpt lat="-20.7850550872173" lon="117.17468221158234"><ele>12.0</ele><time>2026-04-23T03:26:06.999Z</time></trkpt><trkpt lat="-20.785083345530037" lon="117.17495758735873"><ele>12.5</ele><time>2026-04-23T03:26:07.999Z</time></trkpt><trkpt lat="-20.785112012461127" lon="117.17523599554902"><ele>13.0</ele><time>2026-04-23T03:26:08.999Z</time></trkpt><trkpt lat="-20.785139281043367" lon="117.17551960028429"><ele>13.0</ele><time>2026-04-23T03:26:09.999Z</time></trkpt><trkpt lat="-20.785168093088693" lon="117.17580488674339"><ele>13.0</ele><time>2026-04-23T03:26:10.999Z</time></trkpt><trkpt lat="-20.78519676700007" lon="117.17608870326633"><ele>12.5</ele><time>2026-04-23T03:26:11.999Z</time></trkpt><trkpt lat="-20.785223161043834" lon="117.17637043916667"><ele>12.0</ele><time>2026-04-23T03:26:12.999Z</time></trkpt><trkpt lat="-20.78525005508813" lon="117.17665674074352"><ele>13.0</ele><time>2026-04-23T03:26:13.999Z</time></trkpt><trkpt lat="-20.785275768553387" lon="117.17694234378253"><ele>14.0</ele><time>2026-04-23T03:26:14.999Z</time></trkpt><trkpt lat="-20.78530374932042" lon="117.17722889605263"><ele>13.0</ele><time>2026-04-23T03:26:15.999Z</time></trkpt><trkpt lat="-20.785333560467844" lon="117.17751905181998"><ele>12.0</ele><time>2026-04-23T03:26:16.999Z</time></trkpt><trkpt lat="-20.78536111189725" lon="117.17781077283878"><ele>12.0</ele><time>2026-04-23T03:26:17.999Z</time></trkpt><trkpt lat="-20.78539100737197" lon="117.17810474081405"><ele>12.0</ele><time>2026-04-23T03:26:18.999Z</time></trkpt><trkpt lat="-20.785422212513037" lon="117.17839891041675"><ele>11.5</ele><time>2026-04-23T03:26:19.999Z</time></trkpt><trkpt lat="-20.785452766506776" lon="117.17869306087805"><ele>11.0</ele><time>2026-04-23T03:26:20.999Z</time></trkpt><trkpt lat="-20.785481556668373" lon="117.17898461779185"><ele>11.5</ele><time>2026-04-23T03:26:21.999Z</time></trkpt><trkpt lat="-20.785508387303675" lon="117.1792745954449"><ele>12.0</ele><time>2026-04-23T03:26:22.999Z</time></trkpt><trkpt lat="-20.785533574806138" lon="117.17956600928089"><ele>11.5</ele><time>2026-04-23T03:26:24Z</time></trkpt><trkpt lat="-20.785562130657382" lon="117.17985414608613"><ele>11.0</ele><time>2026-04-23T03:26:25Z</time></trkpt><trkpt lat="-20.78559794048054" lon="117.1801426574099"><ele>11.0</ele><time>2026-04-23T03:26:26Z</time></trkpt><trkpt lat="-20.785631096502794" lon="117.18043135663396"><ele>11.0</ele><time>2026-04-23T03:26:27Z</time></trkpt><trkpt lat="-20.785657013020643" lon="117.18071960174011"><ele>11.0</ele><time>2026-04-23T03:26:28Z</time></trkpt><trkpt lat="-20.785680931151386" lon="117.18100802474741"><ele>11.0</ele><time>2026-04-23T03:26:29Z</time></trkpt><trkpt lat="-20.785709921812025" lon="117.1812949422063"><ele>10.5</ele><time>2026-04-23T03:26:30Z</time></trkpt><trkpt lat="-20.78574040805675" lon="117.18158047719328"><ele>10.0</ele><time>2026-04-23T03:26:31Z</time></trkpt><trkpt lat="-20.785767140941502" lon="117.18186570558017"><ele>10.0</ele><time>2026-04-23T03:26:32Z</time></trkpt><trkpt lat="-20.785792305049842" lon="117.18214911546931"><ele>10.0</ele><time>2026-04-23T03:26:33Z</time></trkpt><trkpt lat="-20.78582122176001" lon="117.18243229897126"><ele>9.5</ele><time>2026-04-23T03:26:34Z</time></trkpt><trkpt lat="-20.785849648380083" lon="117.1827184841329"><ele>9.0</ele><time>2026-04-23T03:26:35Z</time></trkpt><trkpt lat="-20.785876508756726" lon="117.1830024251882"><ele>10.5</ele><time>2026-04-23T03:26:36Z</time></trkpt><trkpt lat="-20.785903876636308" lon="117.18328847663466"><ele>12.0</ele><time>2026-04-23T03:26:37Z</time></trkpt><trkpt lat="-20.785932397256666" lon="117.18357350465898"><ele>12.0</ele><time>2026-04-23T03:26:38Z</time></trkpt><trkpt lat="-20.785960560187984" lon="117.18385168852643"><ele>12.0</ele><time>2026-04-23T03:26:39Z</time></trkpt><trkpt lat="-20.78598877400095" lon="117.18413151587738"><ele>12.5</ele><time>2026-04-23T03:26:40Z</time></trkpt><trkpt lat="-20.786019589227667" lon="117.1844015915241"><ele>13.0</ele><time>2026-04-23T03:26:41Z</time></trkpt><trkpt lat="-20.786049542188163" lon="117.18467210910994"><ele>13.5</ele><time>2026-04-23T03:26:42Z</time></trkpt><trkpt lat="-20.786076314964607" lon="117.18494300625301"><ele>14.0</ele><time>2026-04-23T03:26:43Z</time></trkpt><trkpt lat="-20.78610131535174" lon="117.18521195628095"><ele>14.0</ele><time>2026-04-23T03:26:44Z</time></trkpt><trkpt lat="-20.786127695871222" lon="117.18548080693807"><ele>14.0</ele><time>2026-04-23T03:26:45Z</time></trkpt><trkpt lat="-20.78615175339847" lon="117.18574829013744"><ele>13.0</ele><time>2026-04-23T03:26:46Z</time></trkpt><trkpt lat="-20.786175619050024" lon="117.18601797189613"><ele>12.0</ele><time>2026-04-23T03:26:47Z</time></trkpt><trkpt lat="-20.786198694099387" lon="117.18629096225331"><ele>12.0</ele><time>2026-04-23T03:26:48Z</time></trkpt><trkpt lat="-20.786227577812678" lon="117.1865627936903"><ele>12.0</ele><time>2026-04-23T03:26:49Z</time></trkpt><trkpt lat="-20.78625640489778" lon="117.18683475674283"><ele>12.0</ele><time>2026-04-23T03:26:50Z</time></trkpt><trkpt lat="-20.786281162211502" lon="117.18710562405299"><ele>12.0</ele><time>2026-04-23T03:26:51Z</time></trkpt><trkpt lat="-20.786306724496832" lon="117.18737589913609"><ele>12.5</ele><time>2026-04-23T03:26:52Z</time></trkpt><trkpt lat="-20.78633462216141" lon="117.18764747437886"><ele>13.0</ele><time>2026-04-23T03:26:53Z</time></trkpt><trkpt lat="-20.786359303007416" lon="117.18791399417336"><ele>13.5</ele><time>2026-04-23T03:26:54Z</time></trkpt><trkpt lat="-20.78638110696898" lon="117.18818232020402"><ele>14.0</ele><time>2026-04-23T03:26:55Z</time></trkpt><trkpt lat="-20.786403245765584" lon="117.18844631437274"><ele>14.0</ele><time>2026-04-23T03:26:56Z</time></trkpt><trkpt lat="-20.78642656712114" lon="117.1887101947735"><ele>14.0</ele><time>2026-04-23T03:26:57Z</time></trkpt><trkpt lat="-20.78644558643091" lon="117.18897307964704"><ele>14.0</ele><time>2026-04-23T03:26:58Z</time></trkpt><trkpt lat="-20.786464843303296" lon="117.18924113196306"><ele>14.0</ele><time>2026-04-23T03:26:59Z</time></trkpt><trkpt lat="-20.786481309051812" lon="117.1895129801095"><ele>14.0</ele><time>2026-04-23T03:27:00Z</time></trkpt><trkpt lat="-20.786497950905122" lon="117.1897907706657"><ele>14.0</ele><time>2026-04-23T03:27:01Z</time></trkpt><trkpt lat="-20.78651438075656" lon="117.19007128183537"><ele>14.0</ele><time>2026-04-23T03:27:02Z</time></trkpt><trkpt lat="-20.78653116176494" lon="117.19035334174616"><ele>14.0</ele><time>2026-04-23T03:27:03Z</time></trkpt><trkpt lat="-20.79098358792885" lon="117.20633941545728"><ele>13.5</ele><time>2026-04-23T03:28:03.999Z</time></trkpt><trkpt lat="-20.791137598545717" lon="117.20657333502275"><ele>13.0</ele><time>2026-04-23T03:28:04.999Z</time></trkpt><trkpt lat="-20.79129550013599" lon="117.20680867008095"><ele>13.0</ele><time>2026-04-23T03:28:05.999Z</time></trkpt><trkpt lat="-20.791453699523274" lon="117.2070449415108"><ele>13.0</ele><time>2026-04-23T03:28:06.999Z</time></trkpt><trkpt lat="-20.791611904079833" lon="117.20728113819268"><ele>13.0</ele><time>2026-04-23T03:28:07.999Z</time></trkpt><trkpt lat="-20.791770073428577" lon="117.20752076053643"><ele>13.0</ele><time>2026-04-23T03:28:08.999Z</time></trkpt><trkpt lat="-20.791928627644474" lon="117.20776266702437"><ele>13.0</ele><time>2026-04-23T03:28:09.999Z</time></trkpt><trkpt lat="-20.79208722315581" lon="117.20800565773159"><ele>13.0</ele><time>2026-04-23T03:28:10.999Z</time></trkpt><trkpt lat="-20.792246367415302" lon="117.20824753089946"><ele>13.0</ele><time>2026-04-23T03:28:11.999Z</time></trkpt><trkpt lat="-20.792404705860857" lon="117.20848825363241"><ele>13.0</ele><time>2026-04-23T03:28:12.999Z</time></trkpt><trkpt lat="-20.79256424919178" lon="117.20873119550134"><ele>13.5</ele><time>2026-04-23T03:28:13.999Z</time></trkpt><trkpt lat="-20.792722942749798" lon="117.2089739296772"><ele>14.0</ele><time>2026-04-23T03:28:14.999Z</time></trkpt><trkpt lat="-20.792883369397735" lon="117.20921139024307"><ele>14.0</ele><time>2026-04-23T03:28:15.999Z</time></trkpt><trkpt lat="-20.79304372384866" lon="117.20944841804823"><ele>14.0</ele><time>2026-04-23T03:28:16.999Z</time></trkpt><trkpt lat="-20.79320472479794" lon="117.20968709357999"><ele>13.0</ele><time>2026-04-23T03:28:17.999Z</time></trkpt><trkpt lat="-20.793364677052722" lon="117.20992835493468"><ele>12.0</ele><time>2026-04-23T03:28:18.999Z</time></trkpt><trkpt lat="-20.79352303191908" lon="117.21016975259829"><ele>12.0</ele><time>2026-04-23T03:28:19.999Z</time></trkpt><trkpt lat="-20.79367850544116" lon="117.21041022521493"><ele>12.0</ele><time>2026-04-23T03:28:20.999Z</time></trkpt><trkpt lat="-20.79383682884742" lon="117.21065131614296"><ele>12.0</ele><time>2026-04-23T03:28:21.999Z</time></trkpt><trkpt lat="-20.793996426982268" lon="117.21089216739891"><ele>12.0</ele><time>2026-04-23T03:28:22.999Z</time></trkpt><trkpt lat="-20.79415748097576" lon="117.2111368053123"><ele>12.0</ele><time>2026-04-23T03:28:23.999Z</time></trkpt><trkpt lat="-20.794319883814044" lon="117.2113811967783"><ele>12.0</ele><time>2026-04-23T03:28:24.999Z</time></trkpt><trkpt lat="-20.794483281406915" lon="117.21162705324569"><ele>12.5</ele><time>2026-04-23T03:28:25.999Z</time></trkpt><trkpt lat="-20.794647312477537" lon="117.21187328461016"><ele>13.0</ele><time>2026-04-23T03:28:26.999Z</time></trkpt><trkpt lat="-20.794811635019162" lon="117.21211823106414"><ele>12.5</ele><time>2026-04-23T03:28:27.999Z</time></trkpt><trkpt lat="-20.794976535715087" lon="117.21236560975959"><ele>12.0</ele><time>2026-04-23T03:28:28.999Z</time></trkpt><trkpt lat="-20.795140704112374" lon="117.21261182945207"><ele>12.5</ele><time>2026-04-23T03:28:29.999Z</time></trkpt><trkpt lat="-20.795303931838774" lon="117.2128556879477"><ele>13.0</ele><time>2026-04-23T03:28:30.999Z</time></trkpt><trkpt lat="-20.795466367046544" lon="117.21310203153863"><ele>14.0</ele><time>2026-04-23T03:28:31.999Z</time></trkpt><trkpt lat="-20.79562726018637" lon="117.21334527382986"><ele>15.0</ele><time>2026-04-23T03:28:32.999Z</time></trkpt><trkpt lat="-20.795791130585737" lon="117.21358939437543"><ele>15.0</ele><time>2026-04-23T03:28:33.999Z</time></trkpt><trkpt lat="-20.795952610530954" lon="117.21383138965433"><ele>15.0</ele><time>2026-04-23T03:28:34.999Z</time></trkpt><trkpt lat="-20.79611263871701" lon="117.21407340996394"><ele>15.5</ele><time>2026-04-23T03:28:35.999Z</time></trkpt><trkpt lat="-20.79627320323169" lon="117.2143163549357"><ele>16.0</ele><time>2026-04-23T03:28:36.999Z</time></trkpt><trkpt lat="-20.79643102469503" lon="117.21455949237269"><ele>16.0</ele><time>2026-04-23T03:28:37.999Z</time></trkpt><trkpt lat="-20.796590771107006" lon="117.21479911229417"><ele>16.0</ele><time>2026-04-23T03:28:38.999Z</time></trkpt><trkpt lat="-20.79675216149462" lon="117.21503876964361"><ele>14.5</ele><time>2026-04-23T03:28:39.999Z</time></trkpt><trkpt lat="-20.796911362795615" lon="117.21527652661231"><ele>13.0</ele><time>2026-04-23T03:28:40.999Z</time></trkpt><trkpt lat="-20.797069932879324" lon="117.21551554663708"><ele>12.0</ele><time>2026-04-23T03:28:41.999Z</time></trkpt><trkpt lat="-20.7972275839842" lon="117.215752202854"><ele>11.0</ele><time>2026-04-23T03:28:42.999Z</time></trkpt><trkpt lat="-20.797383896459525" lon="117.21598952725964"><ele>11.0</ele><time>2026-04-23T03:28:43.999Z</time></trkpt><trkpt lat="-20.79754090837008" lon="117.21622871153541"><ele>11.0</ele><time>2026-04-23T03:28:44.999Z</time></trkpt><trkpt lat="-20.797698983210573" lon="117.21646869524024"><ele>12.0</ele><time>2026-04-23T03:28:45.999Z</time></trkpt><trkpt lat="-20.797858253837834" lon="117.21670873700373"><ele>13.0</ele><time>2026-04-23T03:28:46.999Z</time></trkpt><trkpt lat="-20.798016831274452" lon="117.21695004548097"><ele>13.0</ele><time>2026-04-23T03:28:47.999Z</time></trkpt><trkpt lat="-20.798175013054443" lon="117.21719220659924"><ele>13.0</ele><time>2026-04-23T03:28:48.999Z</time></trkpt><trkpt lat="-20.79833510000173" lon="117.21743386860877"><ele>13.0</ele><time>2026-04-23T03:28:49.999Z</time></trkpt><trkpt lat="-20.79849308626431" lon="117.21767356227527"><ele>13.0</ele><time>2026-04-23T03:28:50.999Z</time></trkpt><trkpt lat="-20.7986528795218" lon="117.21791028105403"><ele>13.0</ele><time>2026-04-23T03:28:51.999Z</time></trkpt><trkpt lat="-20.798813723134135" lon="117.21814594512226"><ele>13.0</ele><time>2026-04-23T03:28:52.999Z</time></trkpt><trkpt lat="-20.7989758125243" lon="117.21838381865282"><ele>13.0</ele><time>2026-04-23T03:28:53.999Z</time></trkpt><trkpt lat="-20.79913472565176" lon="117.21862237057722"><ele>13.0</ele><time>2026-04-23T03:28:54.999Z</time></trkpt><trkpt lat="-20.79929098561804" lon="117.21886081245795"><ele>13.0</ele><time>2026-04-23T03:28:55.999Z</time></trkpt><trkpt lat="-20.79944491136085" lon="117.21909576162174"><ele>13.0</ele><time>2026-04-23T03:28:56.999Z</time></trkpt><trkpt lat="-20.799592722659394" lon="117.21932129684434"><ele>13.0</ele><time>2026-04-23T03:28:57.999Z</time></trkpt><trkpt lat="-20.799737741664142" lon="117.21953915809641"><ele>13.0</ele><time>2026-04-23T03:28:58.999Z</time></trkpt><trkpt lat="-20.79988828326438" lon="117.21976114571437"><ele>13.0</ele><time>2026-04-23T03:28:59.999Z</time></trkpt><trkpt lat="-20.800041281799192" lon="117.21998836409188"><ele>13.0</ele><time>2026-04-23T03:29:00.999Z</time></trkpt><trkpt lat="-20.80019672469422" lon="117.2202158133397"><ele>12.5</ele><time>2026-04-23T03:29:01.999Z</time></trkpt><trkpt lat="-20.800351277255114" lon="117.2204486026571"><ele>12.0</ele><time>2026-04-23T03:29:02.999Z</time></trkpt><trkpt lat="-20.81117095392098" lon="117.2354624245812"><ele>13.0</ele><time>2026-04-23T03:30:03.999Z</time></trkpt><trkpt lat="-20.81135975330794" lon="117.23569571194827"><ele>14.0</ele><time>2026-04-23T03:30:04.999Z</time></trkpt><trkpt lat="-20.81155239305141" lon="117.2359297867283"><ele>14.0</ele><time>2026-04-23T03:30:05.999Z</time></trkpt><trkpt lat="-20.811748054075895" lon="117.23616234325912"><ele>14.0</ele><time>2026-04-23T03:30:06.999Z</time></trkpt><trkpt lat="-20.811950185685426" lon="117.23639201164907"><ele>14.5</ele><time>2026-04-23T03:30:07.999Z</time></trkpt><trkpt lat="-20.812155425964512" lon="117.2366167234117"><ele>15.0</ele><time>2026-04-23T03:30:08.999Z</time></trkpt><trkpt lat="-20.812365692967965" lon="117.23683791530622"><ele>15.0</ele><time>2026-04-23T03:30:09.999Z</time></trkpt><trkpt lat="-20.81258268041477" lon="117.23705241920034"><ele>15.0</ele><time>2026-04-23T03:30:10.999Z</time></trkpt><trkpt lat="-20.812807007297174" lon="117.23725847792507"><ele>15.0</ele><time>2026-04-23T03:30:11.999Z</time></trkpt><trkpt lat="-20.813036407724404" lon="117.23745921409646"><ele>15.0</ele><time>2026-04-23T03:30:12.999Z</time></trkpt><trkpt lat="-20.81327174852451" lon="117.2376530478763"><ele>15.0</ele><time>2026-04-23T03:30:13.999Z</time></trkpt><trkpt lat="-20.813509631334817" lon="117.23783923400065"><ele>15.0</ele><time>2026-04-23T03:30:14.999Z</time></trkpt><trkpt lat="-20.813755354408574" lon="117.23801879096132"><ele>14.0</ele><time>2026-04-23T03:30:15.999Z</time></trkpt><trkpt lat="-20.8140007038624" lon="117.23819488150627"><ele>13.0</ele><time>2026-04-23T03:30:16.999Z</time></trkpt><trkpt lat="-20.814250827629365" lon="117.23836847843107"><ele>13.5</ele><time>2026-04-23T03:30:17.999Z</time></trkpt><trkpt lat="-20.814503469781233" lon="117.23854183783637"><ele>14.0</ele><time>2026-04-23T03:30:18.999Z</time></trkpt><trkpt lat="-20.814759208258575" lon="117.23871501599251"><ele>14.0</ele><time>2026-04-23T03:30:19.999Z</time></trkpt><trkpt lat="-20.815014805940905" lon="117.23888908380319"><ele>14.0</ele><time>2026-04-23T03:30:20.999Z</time></trkpt><trkpt lat="-20.815268235708615" lon="117.2390646575194"><ele>13.5</ele><time>2026-04-23T03:30:21.999Z</time></trkpt><trkpt lat="-20.81552070514056" lon="117.23923710989159"><ele>13.0</ele><time>2026-04-23T03:30:22.999Z</time></trkpt><trkpt lat="-20.815771164864042" lon="117.23941027325053"><ele>13.0</ele><time>2026-04-23T03:30:23.999Z</time></trkpt><trkpt lat="-20.81601424882934" lon="117.23957733371074"><ele>13.0</ele><time>2026-04-23T03:30:24.999Z</time></trkpt><trkpt lat="-20.81625826090119" lon="117.23974227257851"><ele>13.0</ele><time>2026-04-23T03:30:25.999Z</time></trkpt><trkpt lat="-20.816501077924784" lon="117.23990422249538"><ele>13.0</ele><time>2026-04-23T03:30:26.999Z</time></trkpt><trkpt lat="-20.81673795233132" lon="117.24006626408524"><ele>13.0</ele><time>2026-04-23T03:30:27.999Z</time></trkpt><trkpt lat="-20.816975440532552" lon="117.24022913429175"><ele>13.0</ele><time>2026-04-23T03:30:28.999Z</time></trkpt><trkpt lat="-20.817211475687415" lon="117.24039169630194"><ele>13.0</ele><time>2026-04-23T03:30:29.999Z</time></trkpt><trkpt lat="-20.81744823328407" lon="117.24055480637729"><ele>13.0</ele><time>2026-04-23T03:30:30.999Z</time></trkpt><trkpt lat="-20.817685039466838" lon="117.24072045255245"><ele>13.5</ele><time>2026-04-23T03:30:31.999Z</time></trkpt><trkpt lat="-20.81792573298742" lon="117.2408881925999"><ele>14.0</ele><time>2026-04-23T03:30:32.999Z</time></trkpt><trkpt lat="-20.818169126520196" lon="117.24105697999015"><ele>14.0</ele><time>2026-04-23T03:30:33.999Z</time></trkpt><trkpt lat="-20.818414108583198" lon="117.24122548980388"><ele>14.0</ele><time>2026-04-23T03:30:34.999Z</time></trkpt><trkpt lat="-20.818663491336352" lon="117.24140031324163"><ele>15.0</ele><time>2026-04-23T03:30:35.999Z</time></trkpt><trkpt lat="-20.818918810687034" lon="117.24157691736441"><ele>16.0</ele><time>2026-04-23T03:30:36.999Z</time></trkpt><trkpt lat="-20.8191688104215" lon="117.24174845385717"><ele>15.0</ele><time>2026-04-23T03:30:37.999Z</time></trkpt><trkpt lat="-20.81942005848256" lon="117.24192352400931"><ele>14.0</ele><time>2026-04-23T03:30:38.999Z</time></trkpt><trkpt lat="-20.819673735278883" lon="117.24209859477354"><ele>14.0</ele><time>2026-04-23T03:30:39.999Z</time></trkpt><trkpt lat="-20.819927149658884" lon="117.24226995499869"><ele>14.0</ele><time>2026-04-23T03:30:40.999Z</time></trkpt><trkpt lat="-20.820180865930006" lon="117.24244503771101"><ele>15.0</ele><time>2026-04-23T03:30:41.999Z</time></trkpt><trkpt lat="-20.82042982671048" lon="117.24261965099824"><ele>16.0</ele><time>2026-04-23T03:30:42.999Z</time></trkpt><trkpt lat="-20.820677769714226" lon="117.24279097614126"><ele>16.0</ele><time>2026-04-23T03:30:43.999Z</time></trkpt><trkpt lat="-20.82092359911551" lon="117.24295923878819"><ele>16.0</ele><time>2026-04-23T03:30:44.999Z</time></trkpt><trkpt lat="-20.8211665766383" lon="117.24312363645063"><ele>15.0</ele><time>2026-04-23T03:30:45.999Z</time></trkpt><trkpt lat="-20.821408634693416" lon="117.2432910240358"><ele>14.0</ele><time>2026-04-23T03:30:46.999Z</time></trkpt><trkpt lat="-20.82165118121519" lon="117.24345782911321"><ele>14.5</ele><time>2026-04-23T03:30:47.999Z</time></trkpt><trkpt lat="-20.82189488654233" lon="117.24362739957003"><ele>15.0</ele><time>2026-04-23T03:30:48.999Z</time></trkpt><trkpt lat="-20.822139550233736" lon="117.24379903773168"><ele>14.5</ele><time>2026-04-23T03:30:49.999Z</time></trkpt><trkpt lat="-20.822385995147723" lon="117.24396738887991"><ele>14.0</ele><time>2026-04-23T03:30:50.999Z</time></trkpt><trkpt lat="-20.822630017892987" lon="117.24413523859462"><ele>14.0</ele><time>2026-04-23T03:30:51.999Z</time></trkpt><trkpt lat="-20.822872851861163" lon="117.24430549265136"><ele>14.0</ele><time>2026-04-23T03:30:52.999Z</time></trkpt><trkpt lat="-20.82311921814841" lon="117.24447579563888"><ele>14.0</ele><time>2026-04-23T03:30:53.999Z</time></trkpt><trkpt lat="-20.82336876228551" lon="117.24464708069692"><ele>14.0</ele><time>2026-04-23T03:30:54.999Z</time></trkpt><trkpt lat="-20.82361725975421" lon="117.24481817096965"><ele>14.5</ele><time>2026-04-23T03:30:55.999Z</time></trkpt><trkpt lat="-20.82386621656242" lon="117.24499054192239"><ele>15.0</ele><time>2026-04-23T03:30:56.999Z</time></trkpt><trkpt lat="-20.824114461592476" lon="117.24516363379323"><ele>14.0</ele><time>2026-04-23T03:30:57.999Z</time></trkpt><trkpt lat="-20.8243597469262" lon="117.24533472278858"><ele>13.0</ele><time>2026-04-23T03:30:58.999Z</time></trkpt><trkpt lat="-20.824605298412955" lon="117.24550379875485"><ele>14.0</ele><time>2026-04-23T03:30:59.999Z</time></trkpt><trkpt lat="-20.82484346372479" lon="117.24566685137003"><ele>15.0</ele><time>2026-04-23T03:31:00.999Z</time></trkpt><trkpt lat="-20.825079562071053" lon="117.245826518434"><ele>15.0</ele><time>2026-04-23T03:31:01.999Z</time></trkpt><trkpt lat="-20.825313895001145" lon="117.24598522933466"><ele>15.0</ele><time>2026-04-23T03:31:02.999Z</time></trkpt><trkpt lat="-20.839729008818725" lon="117.25593530523757"><ele>13.5</ele><time>2026-04-23T03:32:04Z</time></trkpt><trkpt lat="-20.839962818950152" lon="117.25609469489869"><ele>12.0</ele><time>2026-04-23T03:32:05Z</time></trkpt><trkpt lat="-20.840200448815615" lon="117.25625583254917"><ele>12.0</ele><time>2026-04-23T03:32:06Z</time></trkpt><trkpt lat="-20.840440431353397" lon="117.25641933259323"><ele>12.0</ele><time>2026-04-23T03:32:07Z</time></trkpt><trkpt lat="-20.840678924035103" lon="117.25658284301821"><ele>12.5</ele><time>2026-04-23T03:32:08Z</time></trkpt><trkpt lat="-20.840917748419372" lon="117.25674737188271"><ele>13.0</ele><time>2026-04-23T03:32:09Z</time></trkpt><trkpt lat="-20.841152490218388" lon="117.25690985691242"><ele>13.5</ele><time>2026-04-23T03:32:10Z</time></trkpt><trkpt lat="-20.841388982117955" lon="117.25707657739507"><ele>14.0</ele><time>2026-04-23T03:32:11Z</time></trkpt><trkpt lat="-20.841622816279234" lon="117.2572426928924"><ele>14.0</ele><time>2026-04-23T03:32:12Z</time></trkpt><trkpt lat="-20.841855645759782" lon="117.25740407467944"><ele>14.0</ele><time>2026-04-23T03:32:13Z</time></trkpt><trkpt lat="-20.842090873419213" lon="117.25756300784197"><ele>14.0</ele><time>2026-04-23T03:32:14Z</time></trkpt><trkpt lat="-20.842323888723886" lon="117.25772332131626"><ele>14.0</ele><time>2026-04-23T03:32:15Z</time></trkpt><trkpt lat="-20.84255446112461" lon="117.25788455501515"><ele>14.5</ele><time>2026-04-23T03:32:16Z</time></trkpt><trkpt lat="-20.842784886680317" lon="117.25804497890243"><ele>15.0</ele><time>2026-04-23T03:32:17Z</time></trkpt><trkpt lat="-20.843014863892126" lon="117.25820386990773"><ele>15.5</ele><time>2026-04-23T03:32:18Z</time></trkpt><trkpt lat="-20.843243255885366" lon="117.25836205670666"><ele>16.0</ele><time>2026-04-23T03:32:19Z</time></trkpt><trkpt lat="-20.843473721647566" lon="117.25852130414842"><ele>16.0</ele><time>2026-04-23T03:32:20Z</time></trkpt><trkpt lat="-20.84370128236493" lon="117.25867730457833"><ele>16.0</ele><time>2026-04-23T03:32:21Z</time></trkpt><trkpt lat="-20.843934149887748" lon="117.25883696236741"><ele>15.5</ele><time>2026-04-23T03:32:22Z</time></trkpt><trkpt lat="-20.84416830689291" lon="117.25900107395238"><ele>15.0</ele><time>2026-04-23T03:32:23Z</time></trkpt><trkpt lat="-20.8443992031647" lon="117.25916743279889"><ele>16.0</ele><time>2026-04-23T03:32:24Z</time></trkpt><trkpt lat="-20.844626844930097" lon="117.25933852193135"><ele>17.0</ele><time>2026-04-23T03:32:25Z</time></trkpt><trkpt lat="-20.844848270949758" lon="117.25951952003985"><ele>17.0</ele><time>2026-04-23T03:32:26Z</time></trkpt><trkpt lat="-20.845060771000316" lon="117.25971003967882"><ele>17.0</ele><time>2026-04-23T03:32:27Z</time></trkpt><trkpt lat="-20.84526657754548" lon="117.25990723198309"><ele>16.5</ele><time>2026-04-23T03:32:28Z</time></trkpt><trkpt lat="-20.8454694936796" lon="117.26011170729741"><ele>16.0</ele><time>2026-04-23T03:32:29Z</time></trkpt><trkpt lat="-20.845665870341726" lon="117.26032424220709"><ele>16.0</ele><time>2026-04-23T03:32:30Z</time></trkpt><trkpt lat="-20.845852620866687" lon="117.26054388993421"><ele>16.0</ele><time>2026-04-23T03:32:31Z</time></trkpt><trkpt lat="-20.84603558715773" lon="117.26077335866324"><ele>15.5</ele><time>2026-04-23T03:32:32Z</time></trkpt><trkpt lat="-20.846213569726974" lon="117.26100864625158"><ele>15.0</ele><time>2026-04-23T03:32:33Z</time></trkpt><trkpt lat="-20.84638209622723" lon="117.26124785746039"><ele>15.0</ele><time>2026-04-23T03:32:34Z</time></trkpt><trkpt lat="-20.846542811699955" lon="117.26149856762275"><ele>15.0</ele><time>2026-04-23T03:32:35Z</time></trkpt><trkpt lat="-20.846692133458365" lon="117.26175211541847"><ele>14.0</ele><time>2026-04-23T03:32:36Z</time></trkpt><trkpt lat="-20.84683770560577" lon="117.26200970227603"><ele>13.0</ele><time>2026-04-23T03:32:37Z</time></trkpt><trkpt lat="-20.84697502274289" lon="117.26227045902542"><ele>12.0</ele><time>2026-04-23T03:32:38Z</time></trkpt><trkpt lat="-20.847103681939217" lon="117.26253330226872"><ele>11.0</ele><time>2026-04-23T03:32:39Z</time></trkpt><trkpt lat="-20.847225308302917" lon="117.26280177437945"><ele>11.0</ele><time>2026-04-23T03:32:40Z</time></trkpt><trkpt lat="-20.847343207404627" lon="117.26306779443352"><ele>11.0</ele><time>2026-04-23T03:32:41Z</time></trkpt><trkpt lat="-20.847464450564797" lon="117.26333817070564"><ele>11.5</ele><time>2026-04-23T03:32:42Z</time></trkpt><trkpt lat="-20.8475873715995" lon="117.26360632305753"><ele>12.0</ele><time>2026-04-23T03:32:43Z</time></trkpt><trkpt lat="-20.847713713194356" lon="117.2638703634737"><ele>12.5</ele><time>2026-04-23T03:32:44Z</time></trkpt><trkpt lat="-20.847840899346437" lon="117.26414035643926"><ele>13.0</ele><time>2026-04-23T03:32:45Z</time></trkpt><trkpt lat="-20.84796758135721" lon="117.2644062877796"><ele>13.0</ele><time>2026-04-23T03:32:46Z</time></trkpt><trkpt lat="-20.848092086302504" lon="117.26467149990349"><ele>13.0</ele><time>2026-04-23T03:32:47Z</time></trkpt><trkpt lat="-20.84821632343334" lon="117.26493984641219"><ele>13.5</ele><time>2026-04-23T03:32:48Z</time></trkpt><trkpt lat="-20.84834262685731" lon="117.26520678978484"><ele>14.0</ele><time>2026-04-23T03:32:49Z</time></trkpt><trkpt lat="-20.84846907121015" lon="117.26547484239642"><ele>14.5</ele><time>2026-04-23T03:32:50Z</time></trkpt><trkpt lat="-20.84859433873337" lon="117.26574306271367"><ele>15.0</ele><time>2026-04-23T03:32:51Z</time></trkpt><trkpt lat="-20.84872170087814" lon="117.26601241446127"><ele>15.0</ele><time>2026-04-23T03:32:52Z</time></trkpt><trkpt lat="-20.848849892956363" lon="117.266280321302"><ele>15.0</ele><time>2026-04-23T03:32:53Z</time></trkpt><trkpt lat="-20.84898193866201" lon="117.2665482878174"><ele>15.5</ele><time>2026-04-23T03:32:54Z</time></trkpt><trkpt lat="-20.849117671143983" lon="117.26681241196697"><ele>16.0</ele><time>2026-04-23T03:32:55Z</time></trkpt><trkpt lat="-20.849259792322616" lon="117.26707954032042"><ele>15.5</ele><time>2026-04-23T03:32:56Z</time></trkpt><trkpt lat="-20.849403470207406" lon="117.26734665704954"><ele>15.0</ele><time>2026-04-23T03:32:57Z</time></trkpt><trkpt lat="-20.849546395317933" lon="117.26761454867598"><ele>15.0</ele><time>2026-04-23T03:32:58Z</time></trkpt><trkpt lat="-20.849687489747144" lon="117.26788131927647"><ele>15.0</ele><time>2026-04-23T03:32:59Z</time></trkpt><trkpt lat="-20.84982901694414" lon="117.2681498572951"><ele>15.0</ele><time>2026-04-23T03:33:00Z</time></trkpt><trkpt lat="-20.849971051690375" lon="117.26841861765156"><ele>15.0</ele><time>2026-04-23T03:33:01Z</time></trkpt><trkpt lat="-20.850114272824936" lon="117.26868953364506"><ele>15.0</ele><time>2026-04-23T03:33:02Z</time></trkpt><trkpt lat="-20.850258896759293" lon="117.26896547476584"><ele>15.0</ele><time>2026-04-23T03:33:03Z</time></trkpt><trkpt lat="-20.858710408909335" lon="117.28500895247277"><ele>14.5</ele><time>2026-04-23T03:34:04Z</time></trkpt><trkpt lat="-20.858844611331364" lon="117.28525363347254"><ele>14.0</ele><time>2026-04-23T03:34:05Z</time></trkpt><trkpt lat="-20.858979884880245" lon="117.28549753195297"><ele>14.5</ele><time>2026-04-23T03:34:06Z</time></trkpt><trkpt lat="-20.85912087805039" lon="117.28573719445208"><ele>15.0</ele><time>2026-04-23T03:34:07Z</time></trkpt><trkpt lat="-20.859273377619516" lon="117.2859715505107"><ele>15.0</ele><time>2026-04-23T03:34:08Z</time></trkpt><trkpt lat="-20.85943505530142" lon="117.28620539847402"><ele>15.0</ele><time>2026-04-23T03:34:09Z</time></trkpt><trkpt lat="-20.859602825559243" lon="117.28643806150389"><ele>14.0</ele><time>2026-04-23T03:34:10Z</time></trkpt><trkpt lat="-20.859775199853154" lon="117.2866745116019"><ele>13.0</ele><time>2026-04-23T03:34:11Z</time></trkpt><trkpt lat="-20.859953187494924" lon="117.2869100201808"><ele>13.5</ele><time>2026-04-23T03:34:12Z</time></trkpt><trkpt lat="-20.860134268969723" lon="117.2871411439131"><ele>14.0</ele><time>2026-04-23T03:34:13Z</time></trkpt><trkpt lat="-20.860318697686296" lon="117.28736905195608"><ele>14.0</ele><time>2026-04-23T03:34:14Z</time></trkpt><trkpt lat="-20.86050154777463" lon="117.2875933344903"><ele>14.0</ele><time>2026-04-23T03:34:15Z</time></trkpt><trkpt lat="-20.860685055806883" lon="117.28782192730114"><ele>14.0</ele><time>2026-04-23T03:34:16Z</time></trkpt><trkpt lat="-20.860865139460394" lon="117.28804789961055"><ele>14.0</ele><time>2026-04-23T03:34:17Z</time></trkpt><trkpt lat="-20.86104766067464" lon="117.28827588865289"><ele>16.0</ele><time>2026-04-23T03:34:18Z</time></trkpt><trkpt lat="-20.861230345015066" lon="117.28850376658932"><ele>18.0</ele><time>2026-04-23T03:34:19Z</time></trkpt><trkpt lat="-20.861413504837085" lon="117.28873237082477"><ele>15.5</ele><time>2026-04-23T03:34:20Z</time></trkpt><trkpt lat="-20.86159394358995" lon="117.28895727811259"><ele>13.0</ele><time>2026-04-23T03:34:21Z</time></trkpt><trkpt lat="-20.861776498780465" lon="117.28918478606344"><ele>12.5</ele><time>2026-04-23T03:34:22Z</time></trkpt><trkpt lat="-20.86195717614451" lon="117.28941091868796"><ele>12.0</ele><time>2026-04-23T03:34:23Z</time></trkpt><trkpt lat="-20.862137985516032" lon="117.28963976911764"><ele>12.5</ele><time>2026-04-23T03:34:24Z</time></trkpt><trkpt lat="-20.862319810894384" lon="117.28986652317953"><ele>13.0</ele><time>2026-04-23T03:34:25Z</time></trkpt><trkpt lat="-20.862499752976905" lon="117.29009239385026"><ele>14.5</ele><time>2026-04-23T03:34:26Z</time></trkpt><trkpt lat="-20.86267863885025" lon="117.29031845512617"><ele>16.0</ele><time>2026-04-23T03:34:27Z</time></trkpt><trkpt lat="-20.86285704054761" lon="117.29054153790521"><ele>15.0</ele><time>2026-04-23T03:34:28Z</time></trkpt><trkpt lat="-20.86303633084694" lon="117.29076658794065"><ele>14.0</ele><time>2026-04-23T03:34:29Z</time></trkpt><trkpt lat="-20.863214551146957" lon="117.29098986480788"><ele>14.0</ele><time>2026-04-23T03:34:30Z</time></trkpt><trkpt lat="-20.863392304348142" lon="117.29121071496867"><ele>14.0</ele><time>2026-04-23T03:34:31Z</time></trkpt><trkpt lat="-20.863565698939993" lon="117.29142530805778"><ele>13.5</ele><time>2026-04-23T03:34:32Z</time></trkpt><trkpt lat="-20.8637392139484" lon="117.29163797804674"><ele>13.0</ele><time>2026-04-23T03:34:33Z</time></trkpt><trkpt lat="-20.863913858317844" lon="117.29185050756276"><ele>13.0</ele><time>2026-04-23T03:34:34Z</time></trkpt><trkpt lat="-20.864084742670553" lon="117.29206136336076"><ele>13.0</ele><time>2026-04-23T03:34:35Z</time></trkpt><trkpt lat="-20.864255302715826" lon="117.29227431987371"><ele>14.5</ele><time>2026-04-23T03:34:36Z</time></trkpt><trkpt lat="-20.864428645578226" lon="117.29249092978463"><ele>16.0</ele><time>2026-04-23T03:34:37Z</time></trkpt><trkpt lat="-20.86460158651506" lon="117.29270587750663"><ele>16.0</ele><time>2026-04-23T03:34:38Z</time></trkpt><trkpt lat="-20.864773543679643" lon="117.29292403281451"><ele>16.0</ele><time>2026-04-23T03:34:39Z</time></trkpt><trkpt lat="-20.86494687024126" lon="117.29314340839304"><ele>15.5</ele><time>2026-04-23T03:34:40Z</time></trkpt><trkpt lat="-20.865121334642197" lon="117.29336727848965"><ele>15.0</ele><time>2026-04-23T03:34:41Z</time></trkpt><trkpt lat="-20.86529887998823" lon="117.29359098889142"><ele>15.0</ele><time>2026-04-23T03:34:42Z</time></trkpt><trkpt lat="-20.865482748771207" lon="117.29381621737453"><ele>15.0</ele><time>2026-04-23T03:34:43Z</time></trkpt><trkpt lat="-20.865665546892252" lon="117.29404271448523"><ele>14.5</ele><time>2026-04-23T03:34:44Z</time></trkpt><trkpt lat="-20.865846579223945" lon="117.29426875753175"><ele>14.0</ele><time>2026-04-23T03:34:45Z</time></trkpt><trkpt lat="-20.86602386309374" lon="117.29449328161635"><ele>13.5</ele><time>2026-04-23T03:34:46Z</time></trkpt><trkpt lat="-20.866205857695036" lon="117.2947207932761"><ele>13.0</ele><time>2026-04-23T03:34:47Z</time></trkpt><trkpt lat="-20.866388311935996" lon="117.29494998990906"><ele>13.0</ele><time>2026-04-23T03:34:48Z</time></trkpt><trkpt lat="-20.8665679051514" lon="117.29517767698816"><ele>13.0</ele><time>2026-04-23T03:34:49Z</time></trkpt><trkpt lat="-20.866750692307736" lon="117.29540792464616"><ele>13.0</ele><time>2026-04-23T03:34:50Z</time></trkpt><trkpt lat="-20.8669340678138" lon="117.29563618150002"><ele>13.0</ele><time>2026-04-23T03:34:51Z</time></trkpt><trkpt lat="-20.867116324121863" lon="117.29586199051717"><ele>13.0</ele><time>2026-04-23T03:34:52Z</time></trkpt><trkpt lat="-20.867297090741076" lon="117.29608672319236"><ele>13.0</ele><time>2026-04-23T03:34:53Z</time></trkpt><trkpt lat="-20.867478284162573" lon="117.29631346510966"><ele>13.0</ele><time>2026-04-23T03:34:54Z</time></trkpt><trkpt lat="-20.867658247148885" lon="117.29654023813221"><ele>13.0</ele><time>2026-04-23T03:34:55Z</time></trkpt><trkpt lat="-20.867840582387778" lon="117.29676715309556"><ele>13.0</ele><time>2026-04-23T03:34:56Z</time></trkpt><trkpt lat="-20.868021471532423" lon="117.29699358611798"><ele>13.0</ele><time>2026-04-23T03:34:57Z</time></trkpt><trkpt lat="-20.86819958411409" lon="117.29721589588418"><ele>14.0</ele><time>2026-04-23T03:34:58Z</time></trkpt><trkpt lat="-20.868368495226672" lon="117.29742731526972"><ele>15.0</ele><time>2026-04-23T03:34:59Z</time></trkpt><trkpt lat="-20.86853886019408" lon="117.29764209734489"><ele>15.0</ele><time>2026-04-23T03:35:00Z</time></trkpt><trkpt lat="-20.868717209966977" lon="117.29786375039455"><ele>15.0</ele><time>2026-04-23T03:35:01Z</time></trkpt><trkpt lat="-20.868897005745268" lon="117.29808951123255"><ele>14.5</ele><time>2026-04-23T03:35:02Z</time></trkpt><trkpt lat="-20.86907926050168" lon="117.29831551013899"><ele>14.0</ele><time>2026-04-23T03:35:03Z</time></trkpt><trkpt lat="-20.87945847740561" lon="117.31240884397965"><ele>14.0</ele><time>2026-04-23T03:36:03.999Z</time></trkpt><trkpt lat="-20.879575644041573" lon="117.31267108381765"><ele>14.0</ele><time>2026-04-23T03:36:04.999Z</time></trkpt><trkpt lat="-20.879696633822764" lon="117.31293374815596"><ele>14.0</ele><time>2026-04-23T03:36:05.999Z</time></trkpt><trkpt lat="-20.87981451078713" lon="117.31319401345155"><ele>14.0</ele><time>2026-04-23T03:36:07Z</time></trkpt><trkpt lat="-20.87993188514096" lon="117.31345339177906"><ele>14.0</ele><time>2026-04-23T03:36:08Z</time></trkpt><trkpt lat="-20.880047984709435" lon="117.31370914103582"><ele>14.0</ele><time>2026-04-23T03:36:09Z</time></trkpt><trkpt lat="-20.88016315711667" lon="117.31396328600133"><ele>12.5</ele><time>2026-04-23T03:36:10Z</time></trkpt><trkpt lat="-20.880278135950835" lon="117.3142177632779"><ele>11.0</ele><time>2026-04-23T03:36:11Z</time></trkpt><trkpt lat="-20.88039209102189" lon="117.3144713737633"><ele>11.0</ele><time>2026-04-23T03:36:12Z</time></trkpt><trkpt lat="-20.880506955944085" lon="117.31472578620978"><ele>11.0</ele><time>2026-04-23T03:36:13Z</time></trkpt><trkpt lat="-20.8806232061881" lon="117.31497961112768"><ele>11.5</ele><time>2026-04-23T03:36:14Z</time></trkpt><trkpt lat="-20.880740692071022" lon="117.31523825477773"><ele>12.0</ele><time>2026-04-23T03:36:15Z</time></trkpt><trkpt lat="-20.880859603012308" lon="117.31550215929295"><ele>12.5</ele><time>2026-04-23T03:36:16Z</time></trkpt><trkpt lat="-20.880978647674873" lon="117.31576813059074"><ele>13.0</ele><time>2026-04-23T03:36:17Z</time></trkpt><trkpt lat="-20.881098831135635" lon="117.31603786299722"><ele>13.0</ele><time>2026-04-23T03:36:18Z</time></trkpt><trkpt lat="-20.88122011204426" lon="117.31631077047898"><ele>13.0</ele><time>2026-04-23T03:36:19Z</time></trkpt><trkpt lat="-20.881343256256095" lon="117.31658507441637"><ele>14.5</ele><time>2026-04-23T03:36:20Z</time></trkpt><trkpt lat="-20.88146826380535" lon="117.31685631417625"><ele>16.0</ele><time>2026-04-23T03:36:21Z</time></trkpt><trkpt lat="-20.881591840578018" lon="117.3171292039089"><ele>15.5</ele><time>2026-04-23T03:36:22Z</time></trkpt><trkpt lat="-20.88171484464805" lon="117.3174026726257"><ele>15.0</ele><time>2026-04-23T03:36:23Z</time></trkpt><trkpt lat="-20.88183888784723" lon="117.3176752047636"><ele>15.0</ele><time>2026-04-23T03:36:24Z</time></trkpt><trkpt lat="-20.881960631811577" lon="117.3179466130663"><ele>15.0</ele><time>2026-04-23T03:36:25Z</time></trkpt><trkpt lat="-20.88208197137513" lon="117.3182177874824"><ele>14.5</ele><time>2026-04-23T03:36:26Z</time></trkpt><trkpt lat="-20.882207036315446" lon="117.31849105312867"><ele>14.0</ele><time>2026-04-23T03:36:27Z</time></trkpt><trkpt lat="-20.88233186132464" lon="117.3187644975131"><ele>14.0</ele><time>2026-04-23T03:36:28Z</time></trkpt><trkpt lat="-20.882454965087685" lon="117.31903629292401"><ele>14.0</ele><time>2026-04-23T03:36:29Z</time></trkpt><trkpt lat="-20.882565643983344" lon="117.31928634565"><ele>14.0</ele><time>2026-04-23T03:36:30Z</time></trkpt><trkpt lat="-20.882673496596443" lon="117.31952938700012"><ele>14.0</ele><time>2026-04-23T03:36:31Z</time></trkpt><trkpt lat="-20.882787393197876" lon="117.31977926257511"><ele>14.0</ele><time>2026-04-23T03:36:32Z</time></trkpt><trkpt lat="-20.88290334508987" lon="117.32003500403474"><ele>14.0</ele><time>2026-04-23T03:36:33Z</time></trkpt><trkpt lat="-20.883021149394924" lon="117.32029615149666"><ele>14.0</ele><time>2026-04-23T03:36:34Z</time></trkpt><trkpt lat="-20.883140461641627" lon="117.32056016996926"><ele>14.0</ele><time>2026-04-23T03:36:35Z</time></trkpt><trkpt lat="-20.883262196048857" lon="117.32082777880278"><ele>14.0</ele><time>2026-04-23T03:36:36Z</time></trkpt><trkpt lat="-20.883384173042373" lon="117.32109627263569"><ele>14.0</ele><time>2026-04-23T03:36:37Z</time></trkpt><trkpt lat="-20.883506762717758" lon="117.32136639714773"><ele>13.0</ele><time>2026-04-23T03:36:38Z</time></trkpt><trkpt lat="-20.88362835573099" lon="117.32163309267118"><ele>12.0</ele><time>2026-04-23T03:36:39Z</time></trkpt><trkpt lat="-20.883749554229407" lon="117.32190136347221"><ele>12.0</ele><time>2026-04-23T03:36:40Z</time></trkpt><trkpt lat="-20.88387122805681" lon="117.32217086436762"><ele>12.0</ele><time>2026-04-23T03:36:41Z</time></trkpt><trkpt lat="-20.883992986434755" lon="117.32244202002747"><ele>12.5</ele><time>2026-04-23T03:36:42Z</time></trkpt><trkpt lat="-20.884112054160003" lon="117.32270950608529"><ele>13.0</ele><time>2026-04-23T03:36:43Z</time></trkpt><trkpt lat="-20.884229359874013" lon="117.32297468239688"><ele>13.0</ele><time>2026-04-23T03:36:44Z</time></trkpt><trkpt lat="-20.884348738201407" lon="117.32324395690421"><ele>13.0</ele><time>2026-04-23T03:36:45Z</time></trkpt><trkpt lat="-20.88447039516369" lon="117.32351281623707"><ele>13.0</ele><time>2026-04-23T03:36:46Z</time></trkpt><trkpt lat="-20.88459046594938" lon="117.32377730443308"><ele>13.0</ele><time>2026-04-23T03:36:47Z</time></trkpt><trkpt lat="-20.884711495466007" lon="117.32404455542367"><ele>13.0</ele><time>2026-04-23T03:36:48Z</time></trkpt><trkpt lat="-20.884832047711942" lon="117.32430956224181"><ele>13.0</ele><time>2026-04-23T03:36:49Z</time></trkpt><trkpt lat="-20.884952239848033" lon="117.32457386205766"><ele>13.0</ele><time>2026-04-23T03:36:50Z</time></trkpt><trkpt lat="-20.885073428607488" lon="117.32484169350344"><ele>13.0</ele><time>2026-04-23T03:36:51Z</time></trkpt><trkpt lat="-20.885192826716427" lon="117.32510603838612"><ele>13.0</ele><time>2026-04-23T03:36:52Z</time></trkpt><trkpt lat="-20.88531237331446" lon="117.32536990397996"><ele>13.0</ele><time>2026-04-23T03:36:53Z</time></trkpt><trkpt lat="-20.885432068767212" lon="117.32563319152094"><ele>13.0</ele><time>2026-04-23T03:36:54Z</time></trkpt><trkpt lat="-20.885550448136996" lon="117.32589291919949"><ele>13.0</ele><time>2026-04-23T03:36:55Z</time></trkpt><trkpt lat="-20.885669235371946" lon="117.326151793255"><ele>13.0</ele><time>2026-04-23T03:36:56Z</time></trkpt><trkpt lat="-20.885787335962096" lon="117.32641324812005"><ele>13.0</ele><time>2026-04-23T03:36:57Z</time></trkpt><trkpt lat="-20.8859029099693" lon="117.32667319043887"><ele>12.5</ele><time>2026-04-23T03:36:58Z</time></trkpt><trkpt lat="-20.88601732768543" lon="117.32693476304793"><ele>12.0</ele><time>2026-04-23T03:36:59Z</time></trkpt><trkpt lat="-20.88613320364606" lon="117.32719973660056"><ele>12.5</ele><time>2026-04-23T03:37:00Z</time></trkpt><trkpt lat="-20.886250310916783" lon="117.32746460543555"><ele>13.0</ele><time>2026-04-23T03:37:01Z</time></trkpt><trkpt lat="-20.886370201496362" lon="117.32772926379941"><ele>13.0</ele><time>2026-04-23T03:37:02Z</time></trkpt><trkpt lat="-20.886495187893335" lon="117.32799886317447"><ele>13.0</ele><time>2026-04-23T03:37:03Z</time></trkpt><trkpt lat="-20.89407845628144" lon="117.34367339788194"><ele>14.5</ele><time>2026-04-23T03:38:04.001Z</time></trkpt><trkpt lat="-20.894240147948405" lon="117.34389994762726"><ele>16.0</ele><time>2026-04-23T03:38:05Z</time></trkpt><trkpt lat="-20.89440305646324" lon="117.3441258529935"><ele>17.0</ele><time>2026-04-23T03:38:06Z</time></trkpt><trkpt lat="-20.894566805035033" lon="117.34435155964722"><ele>18.0</ele><time>2026-04-23T03:38:07Z</time></trkpt><trkpt lat="-20.89473071878831" lon="117.3445733362115"><ele>18.5</ele><time>2026-04-23T03:38:08Z</time></trkpt><trkpt lat="-20.894897794445104" lon="117.34479943115973"><ele>19.0</ele><time>2026-04-23T03:38:09Z</time></trkpt><trkpt lat="-20.895066650017654" lon="117.34502530972927"><ele>18.5</ele><time>2026-04-23T03:38:10Z</time></trkpt><trkpt lat="-20.895234873297245" lon="117.34525557340255"><ele>18.0</ele><time>2026-04-23T03:38:11Z</time></trkpt><trkpt lat="-20.89540431801387" lon="117.34548579449753"><ele>17.5</ele><time>2026-04-23T03:38:12Z</time></trkpt><trkpt lat="-20.89557396273425" lon="117.34572192820018"><ele>17.0</ele><time>2026-04-23T03:38:13Z</time></trkpt><trkpt lat="-20.8957497785725" lon="117.34596470022159"><ele>17.5</ele><time>2026-04-23T03:38:14Z</time></trkpt><trkpt lat="-20.895929061482263" lon="117.34620712768326"><ele>18.0</ele><time>2026-04-23T03:38:15Z</time></trkpt><trkpt lat="-20.896108275225206" lon="117.34644504866624"><ele>18.0</ele><time>2026-04-23T03:38:16Z</time></trkpt><trkpt lat="-20.896284331085283" lon="117.34668254355249"><ele>18.0</ele><time>2026-04-23T03:38:17Z</time></trkpt><trkpt lat="-20.896457546334357" lon="117.34691888579985"><ele>18.0</ele><time>2026-04-23T03:38:18Z</time></trkpt><trkpt lat="-20.896629142407377" lon="117.34715533501134"><ele>18.0</ele><time>2026-04-23T03:38:19Z</time></trkpt><trkpt lat="-20.896797361710668" lon="117.34738797620037"><ele>19.0</ele><time>2026-04-23T03:38:20Z</time></trkpt><trkpt lat="-20.896964569438172" lon="117.34761738645133"><ele>20.0</ele><time>2026-04-23T03:38:21Z</time></trkpt><trkpt lat="-20.897134634068998" lon="117.34784490223471"><ele>19.0</ele><time>2026-04-23T03:38:22Z</time></trkpt><trkpt lat="-20.89730082968638" lon="117.34807454263422"><ele>18.0</ele><time>2026-04-23T03:38:23Z</time></trkpt><trkpt lat="-20.897465399089473" lon="117.34830530990835"><ele>19.5</ele><time>2026-04-23T03:38:24Z</time></trkpt><trkpt lat="-20.897629719995876" lon="117.34853298086128"><ele>21.0</ele><time>2026-04-23T03:38:25Z</time></trkpt><trkpt lat="-20.897795301265578" lon="117.34876020595027"><ele>19.0</ele><time>2026-04-23T03:38:26Z</time></trkpt><trkpt lat="-20.897962886304995" lon="117.34898737955818"><ele>17.0</ele><time>2026-04-23T03:38:27Z</time></trkpt><trkpt lat="-20.898130396964568" lon="117.34921304218324"><ele>17.0</ele><time>2026-04-23T03:38:28Z</time></trkpt><trkpt lat="-20.8982979359468" lon="117.34944025523777"><ele>17.0</ele><time>2026-04-23T03:38:29Z</time></trkpt><trkpt lat="-20.898464806779785" lon="117.34966862528816"><ele>17.0</ele><time>2026-04-23T03:38:30Z</time></trkpt><trkpt lat="-20.89862908259253" lon="117.34989536308977"><ele>17.0</ele><time>2026-04-23T03:38:31Z</time></trkpt><trkpt lat="-20.89879439274782" lon="117.35012171819088"><ele>17.0</ele><time>2026-04-23T03:38:32Z</time></trkpt><trkpt lat="-20.898957678416494" lon="117.35034950009636"><ele>17.0</ele><time>2026-04-23T03:38:33Z</time></trkpt><trkpt lat="-20.899119263695905" lon="117.35057554755407"><ele>17.0</ele><time>2026-04-23T03:38:34Z</time></trkpt><trkpt lat="-20.89928606190891" lon="117.35080501429556"><ele>17.0</ele><time>2026-04-23T03:38:35Z</time></trkpt><trkpt lat="-20.899457056125584" lon="117.35103863610003"><ele>17.0</ele><time>2026-04-23T03:38:36Z</time></trkpt><trkpt lat="-20.899631297184737" lon="117.35127448826326"><ele>17.0</ele><time>2026-04-23T03:38:37Z</time></trkpt><trkpt lat="-20.899809449988812" lon="117.35151389938945"><ele>17.0</ele><time>2026-04-23T03:38:38Z</time></trkpt><trkpt lat="-20.89998732643805" lon="117.35175455872414"><ele>17.0</ele><time>2026-04-23T03:38:39Z</time></trkpt><trkpt lat="-20.900162726053175" lon="117.3519949078246"><ele>18.0</ele><time>2026-04-23T03:38:40Z</time></trkpt><trkpt lat="-20.900336696268802" lon="117.35223243112212"><ele>19.0</ele><time>2026-04-23T03:38:41Z</time></trkpt><trkpt lat="-20.900509844513643" lon="117.3524692435079"><ele>19.0</ele><time>2026-04-23T03:38:42Z</time></trkpt><trkpt lat="-20.900682266256453" lon="117.35270379536539"><ele>19.0</ele><time>2026-04-23T03:38:43Z</time></trkpt><trkpt lat="-20.900853070868994" lon="117.35293786707693"><ele>18.5</ele><time>2026-04-23T03:38:44Z</time></trkpt><trkpt lat="-20.901021056398992" lon="117.35316728654027"><ele>18.0</ele><time>2026-04-23T03:38:45Z</time></trkpt><trkpt lat="-20.90118998537963" lon="117.35339775708422"><ele>18.0</ele><time>2026-04-23T03:38:46.001Z</time></trkpt><trkpt lat="-20.90135728979198" lon="117.35362808193042"><ele>18.0</ele><time>2026-04-23T03:38:47.001Z</time></trkpt><trkpt lat="-20.901526229866192" lon="117.35385944424502"><ele>18.0</ele><time>2026-04-23T03:38:48.001Z</time></trkpt><trkpt lat="-20.901694993482398" lon="117.35409053523188"><ele>18.0</ele><time>2026-04-23T03:38:49.001Z</time></trkpt><trkpt lat="-20.90186220019149" lon="117.35432133760969"><ele>18.0</ele><time>2026-04-23T03:38:50.001Z</time></trkpt><trkpt lat="-20.902029292023734" lon="117.35454898214638"><ele>18.0</ele><time>2026-04-23T03:38:51.001Z</time></trkpt><trkpt lat="-20.902194235528675" lon="117.35478008728192"><ele>18.0</ele><time>2026-04-23T03:38:52.001Z</time></trkpt><trkpt lat="-20.902352898403326" lon="117.35501392090723"><ele>18.0</ele><time>2026-04-23T03:38:53.001Z</time></trkpt><trkpt lat="-20.902501131015274" lon="117.35525043834546"><ele>18.0</ele><time>2026-04-23T03:38:54.001Z</time></trkpt><trkpt lat="-20.902643611600222" lon="117.35550025880593"><ele>18.0</ele><time>2026-04-23T03:38:55.001Z</time></trkpt><trkpt lat="-20.902779732364007" lon="117.35575353163026"><ele>18.0</ele><time>2026-04-23T03:38:56.001Z</time></trkpt><trkpt lat="-20.90291106085754" lon="117.3560175077295"><ele>18.0</ele><time>2026-04-23T03:38:57.001Z</time></trkpt><trkpt lat="-20.90303351318047" lon="117.35628667019763"><ele>18.0</ele><time>2026-04-23T03:38:58.001Z</time></trkpt><trkpt lat="-20.903148236260318" lon="117.35656026246191"><ele>18.0</ele><time>2026-04-23T03:38:59.001Z</time></trkpt><trkpt lat="-20.903255508928662" lon="117.35684174496522"><ele>18.0</ele><time>2026-04-23T03:39:00.001Z</time></trkpt><trkpt lat="-20.9033516144929" lon="117.35712611213512"><ele>18.0</ele><time>2026-04-23T03:39:01.001Z</time></trkpt><trkpt lat="-20.903438800016385" lon="117.35741450903942"><ele>18.0</ele><time>2026-04-23T03:39:02.001Z</time></trkpt><trkpt lat="-20.90351981987442" lon="117.35770637869284"><ele>18.0</ele><time>2026-04-23T03:39:03.001Z</time></trkpt><trkpt lat="-20.900819768053253" lon="117.37470553405215"><ele>16.5</ele><time>2026-04-23T03:40:04.001Z</time></trkpt><trkpt lat="-20.900820675198702" lon="117.37500342535844"><ele>15.0</ele><time>2026-04-23T03:40:05.001Z</time></trkpt><trkpt lat="-20.900832765576435" lon="117.37530296057652"><ele>15.0</ele><time>2026-04-23T03:40:06.001Z</time></trkpt><trkpt lat="-20.900852982710887" lon="117.37560402446516"><ele>15.0</ele><time>2026-04-23T03:40:07.001Z</time></trkpt><trkpt lat="-20.90087796020775" lon="117.37590574620275"><ele>15.0</ele><time>2026-04-23T03:40:08.001Z</time></trkpt><trkpt lat="-20.9009148007819" lon="117.37620782345641"><ele>15.0</ele><time>2026-04-23T03:40:09.001Z</time></trkpt><trkpt lat="-20.900961290581023" lon="117.37650696717617"><ele>16.5</ele><time>2026-04-23T03:40:10.001Z</time></trkpt><trkpt lat="-20.9010215834901" lon="117.3768046528431"><ele>18.0</ele><time>2026-04-23T03:40:11.001Z</time></trkpt><trkpt lat="-20.901091620486618" lon="117.37709899850447"><ele>17.5</ele><time>2026-04-23T03:40:12.001Z</time></trkpt><trkpt lat="-20.901169396814822" lon="117.37739075934714"><ele>17.0</ele><time>2026-04-23T03:40:13.001Z</time></trkpt><trkpt lat="-20.901257175618564" lon="117.37767972554471"><ele>17.0</ele><time>2026-04-23T03:40:14.001Z</time></trkpt><trkpt lat="-20.901352159569473" lon="117.37796577360778"><ele>17.0</ele><time>2026-04-23T03:40:15.001Z</time></trkpt><trkpt lat="-20.901456056510998" lon="117.3782426931027"><ele>17.0</ele><time>2026-04-23T03:40:16.001Z</time></trkpt><trkpt lat="-20.901547660628292" lon="117.37852960154711"><ele>17.0</ele><time>2026-04-23T03:40:17.001Z</time></trkpt><trkpt lat="-20.90164407394707" lon="117.3788118371653"><ele>17.0</ele><time>2026-04-23T03:40:18.001Z</time></trkpt><trkpt lat="-20.901820050019257" lon="117.37906467119741"><ele>17.0</ele><time>2026-04-23T03:40:19.001Z</time></trkpt><trkpt lat="-20.901951277062874" lon="117.37933140122763"><ele>17.0</ele><time>2026-04-23T03:40:20.001Z</time></trkpt><trkpt lat="-20.902081748592327" lon="117.37960202184662"><ele>17.0</ele><time>2026-04-23T03:40:21.001Z</time></trkpt><trkpt lat="-20.90220824930017" lon="117.37987511929161"><ele>17.0</ele><time>2026-04-23T03:40:22.001Z</time></trkpt><trkpt lat="-20.9023344361127" lon="117.38015026640129"><ele>17.0</ele><time>2026-04-23T03:40:23.001Z</time></trkpt><trkpt lat="-20.902465483854236" lon="117.38042957700117"><ele>16.5</ele><time>2026-04-23T03:40:24.001Z</time></trkpt><trkpt lat="-20.902595644228576" lon="117.380705956284"><ele>16.0</ele><time>2026-04-23T03:40:25.001Z</time></trkpt><trkpt lat="-20.90272719868384" lon="117.38098412630929"><ele>16.0</ele><time>2026-04-23T03:40:26.001Z</time></trkpt><trkpt lat="-20.902855620341175" lon="117.38125874347493"><ele>16.0</ele><time>2026-04-23T03:40:27.001Z</time></trkpt><trkpt lat="-20.902984807706854" lon="117.38153161307974"><ele>16.0</ele><time>2026-04-23T03:40:28.001Z</time></trkpt><trkpt lat="-20.903112122710773" lon="117.3818031928006"><ele>16.0</ele><time>2026-04-23T03:40:29.001Z</time></trkpt><trkpt lat="-20.903243533350008" lon="117.38207984621192"><ele>16.0</ele><time>2026-04-23T03:40:30.001Z</time></trkpt><trkpt lat="-20.90337204899058" lon="117.38235547126747"><ele>16.0</ele><time>2026-04-23T03:40:31.001Z</time></trkpt><trkpt lat="-20.903501167041934" lon="117.38263064684986"><ele>16.5</ele><time>2026-04-23T03:40:32.001Z</time></trkpt><trkpt lat="-20.903630560222393" lon="117.38290298101006"><ele>17.0</ele><time>2026-04-23T03:40:33.001Z</time></trkpt><trkpt lat="-20.903761279619243" lon="117.38317708334142"><ele>17.0</ele><time>2026-04-23T03:40:34.001Z</time></trkpt><trkpt lat="-20.903889322239955" lon="117.38344803440388"><ele>17.0</ele><time>2026-04-23T03:40:35.001Z</time></trkpt><trkpt lat="-20.904016075421644" lon="117.3837222896171"><ele>17.0</ele><time>2026-04-23T03:40:36.001Z</time></trkpt><trkpt lat="-20.904141835866326" lon="117.38399623033841"><ele>17.0</ele><time>2026-04-23T03:40:37.001Z</time></trkpt><trkpt lat="-20.90426795822229" lon="117.38426966949208"><ele>17.0</ele><time>2026-04-23T03:40:38.001Z</time></trkpt><trkpt lat="-20.904393234415103" lon="117.38454010457393"><ele>17.0</ele><time>2026-04-23T03:40:39.001Z</time></trkpt><trkpt lat="-20.904520682236253" lon="117.38480862194122"><ele>17.0</ele><time>2026-04-23T03:40:40.001Z</time></trkpt><trkpt lat="-20.904647020318254" lon="117.38507309847547"><ele>17.0</ele><time>2026-04-23T03:40:41.001Z</time></trkpt><trkpt lat="-20.904765560924947" lon="117.3853216804158"><ele>16.5</ele><time>2026-04-23T03:40:42.001Z</time></trkpt><trkpt lat="-20.904879217770926" lon="117.38556362506016"><ele>16.0</ele><time>2026-04-23T03:40:43.001Z</time></trkpt><trkpt lat="-20.904993857444047" lon="117.38581279656621"><ele>15.5</ele><time>2026-04-23T03:40:44.001Z</time></trkpt><trkpt lat="-20.90511387913795" lon="117.38606930549109"><ele>15.0</ele><time>2026-04-23T03:40:45.001Z</time></trkpt><trkpt lat="-20.90523566705352" lon="117.38633167552864"><ele>16.0</ele><time>2026-04-23T03:40:46.001Z</time></trkpt><trkpt lat="-20.905358576035106" lon="117.38659727562407"><ele>17.0</ele><time>2026-04-23T03:40:47.001Z</time></trkpt><trkpt lat="-20.905483430052463" lon="117.38686651859743"><ele>17.0</ele><time>2026-04-23T03:40:48.001Z</time></trkpt><trkpt lat="-20.905611518904504" lon="117.38713646611515"><ele>17.0</ele><time>2026-04-23T03:40:49.001Z</time></trkpt><trkpt lat="-20.905736159939195" lon="117.3873987040331"><ele>16.0</ele><time>2026-04-23T03:40:50.001Z</time></trkpt><trkpt lat="-20.90586133958255" lon="117.38766086054358"><ele>15.0</ele><time>2026-04-23T03:40:51.001Z</time></trkpt><trkpt lat="-20.905983519660335" lon="117.3879196943776"><ele>15.0</ele><time>2026-04-23T03:40:52.001Z</time></trkpt><trkpt lat="-20.906104944772256" lon="117.38817743020543"><ele>15.0</ele><time>2026-04-23T03:40:53.001Z</time></trkpt><trkpt lat="-20.90622568200324" lon="117.3884355936417"><ele>15.0</ele><time>2026-04-23T03:40:54.001Z</time></trkpt><trkpt lat="-20.9063474184944" lon="117.38869423068428"><ele>15.0</ele><time>2026-04-23T03:40:55.001Z</time></trkpt><trkpt lat="-20.90646826797621" lon="117.38895680130166"><ele>15.5</ele><time>2026-04-23T03:40:56.001Z</time></trkpt><trkpt lat="-20.9065924630869" lon="117.38921789692508"><ele>16.0</ele><time>2026-04-23T03:40:57.001Z</time></trkpt><trkpt lat="-20.906714603514686" lon="117.38947807654061"><ele>16.5</ele><time>2026-04-23T03:40:58.001Z</time></trkpt><trkpt lat="-20.90683678070913" lon="117.38973664060295"><ele>17.0</ele><time>2026-04-23T03:40:59.001Z</time></trkpt><trkpt lat="-20.906961256012746" lon="117.38999800666997"><ele>17.0</ele><time>2026-04-23T03:41:00.001Z</time></trkpt><trkpt lat="-20.907082804702124" lon="117.39025289893854"><ele>17.0</ele><time>2026-04-23T03:41:01.001Z</time></trkpt><trkpt lat="-20.90720426651462" lon="117.39050363195777"><ele>17.0</ele><time>2026-04-23T03:41:02.001Z</time></trkpt><trkpt lat="-20.90732397390902" lon="117.39075538491569"><ele>17.0</ele><time>2026-04-23T03:41:03.001Z</time></trkpt><trkpt lat="-20.914689121616938" lon="117.40644705673185"><ele>17.5</ele><time>2026-04-23T03:42:04.001Z</time></trkpt><trkpt lat="-20.914811400567928" lon="117.40670469699133"><ele>18.0</ele><time>2026-04-23T03:42:05.001Z</time></trkpt><trkpt lat="-20.91493458514824" lon="117.4069676300652"><ele>18.0</ele><time>2026-04-23T03:42:06.001Z</time></trkpt><trkpt lat="-20.91506021900531" lon="117.40723263324217"><ele>18.0</ele><time>2026-04-23T03:42:07.001Z</time></trkpt><trkpt lat="-20.915186223021447" lon="117.40750100334337"><ele>17.5</ele><time>2026-04-23T03:42:08.001Z</time></trkpt><trkpt lat="-20.91531284590512" lon="117.40777417167234"><ele>17.0</ele><time>2026-04-23T03:42:09.001Z</time></trkpt><trkpt lat="-20.91544031941499" lon="117.40804850520517"><ele>18.0</ele><time>2026-04-23T03:42:10.001Z</time></trkpt><trkpt lat="-20.91557121712551" lon="117.40832472065375"><ele>19.0</ele><time>2026-04-23T03:42:11.001Z</time></trkpt><trkpt lat="-20.915706220849213" lon="117.4086029500487"><ele>19.0</ele><time>2026-04-23T03:42:12.001Z</time></trkpt><trkpt lat="-20.915839786998752" lon="117.40888202752626"><ele>19.0</ele><time>2026-04-23T03:42:13.001Z</time></trkpt><trkpt lat="-20.915972580728308" lon="117.40916346955039"><ele>19.0</ele><time>2026-04-23T03:42:14.001Z</time></trkpt><trkpt lat="-20.916104623182548" lon="117.40944728543616"><ele>19.0</ele><time>2026-04-23T03:42:15.001Z</time></trkpt><trkpt lat="-20.91623479864234" lon="117.40973046970731"><ele>19.0</ele><time>2026-04-23T03:42:16.001Z</time></trkpt><trkpt lat="-20.91636333845845" lon="117.41001021991387"><ele>19.0</ele><time>2026-04-23T03:42:17.001Z</time></trkpt><trkpt lat="-20.916490210181117" lon="117.41028440092444"><ele>19.5</ele><time>2026-04-23T03:42:18.001Z</time></trkpt><trkpt lat="-20.916616132643565" lon="117.41055423876371"><ele>20.0</ele><time>2026-04-23T03:42:19.001Z</time></trkpt><trkpt lat="-20.91674061062268" lon="117.41081825614376"><ele>20.0</ele><time>2026-04-23T03:42:20.001Z</time></trkpt><trkpt lat="-20.916863082807936" lon="117.41108004830465"><ele>20.0</ele><time>2026-04-23T03:42:21.001Z</time></trkpt><trkpt lat="-20.91698605106344" lon="117.41133823450963"><ele>20.0</ele><time>2026-04-23T03:42:22.001Z</time></trkpt><trkpt lat="-20.91710862788437" lon="117.4115979124138"><ele>20.0</ele><time>2026-04-23T03:42:23.001Z</time></trkpt><trkpt lat="-20.917233132259476" lon="117.4118593783312"><ele>20.0</ele><time>2026-04-23T03:42:24.001Z</time></trkpt><trkpt lat="-20.917357052400302" lon="117.41211813459131"><ele>20.0</ele><time>2026-04-23T03:42:25.001Z</time></trkpt><trkpt lat="-20.917479766639076" lon="117.41237873865809"><ele>19.5</ele><time>2026-04-23T03:42:26.001Z</time></trkpt><trkpt lat="-20.917603090109285" lon="117.41264549165045"><ele>19.0</ele><time>2026-04-23T03:42:27.001Z</time></trkpt><trkpt lat="-20.917728000080672" lon="117.41291414532542"><ele>19.0</ele><time>2026-04-23T03:42:28.001Z</time></trkpt><trkpt lat="-20.91785511411218" lon="117.41318189038054"><ele>19.0</ele><time>2026-04-23T03:42:29.001Z</time></trkpt><trkpt lat="-20.91797650929072" lon="117.41344976158221"><ele>19.0</ele><time>2026-04-23T03:42:30.001Z</time></trkpt><trkpt lat="-20.9180960924772" lon="117.41371192528482"><ele>19.0</ele><time>2026-04-23T03:42:31.001Z</time></trkpt><trkpt lat="-20.918217821671767" lon="117.4139710422103"><ele>19.0</ele><time>2026-04-23T03:42:32.001Z</time></trkpt><trkpt lat="-20.918341247274146" lon="117.4142282883095"><ele>19.0</ele><time>2026-04-23T03:42:33.001Z</time></trkpt><trkpt lat="-20.91846472030702" lon="117.41448969037022"><ele>18.5</ele><time>2026-04-23T03:42:34.001Z</time></trkpt><trkpt lat="-20.91858861044393" lon="117.41475242138043"><ele>18.0</ele><time>2026-04-23T03:42:35.001Z</time></trkpt><trkpt lat="-20.91871550698938" lon="117.41502222695385"><ele>18.0</ele><time>2026-04-23T03:42:36.001Z</time></trkpt><trkpt lat="-20.918844800742026" lon="117.41529837081643"><ele>18.0</ele><time>2026-04-23T03:42:37.001Z</time></trkpt><trkpt lat="-20.91897302369388" lon="117.41557331515043"><ele>18.5</ele><time>2026-04-23T03:42:38.001Z</time></trkpt><trkpt lat="-20.919100138017654" lon="117.41584499532006"><ele>19.0</ele><time>2026-04-23T03:42:39.001Z</time></trkpt><trkpt lat="-20.919227107128275" lon="117.41611383451763"><ele>19.0</ele><time>2026-04-23T03:42:40.001Z</time></trkpt><trkpt lat="-20.919356116212708" lon="117.416378217144"><ele>19.0</ele><time>2026-04-23T03:42:41.001Z</time></trkpt><trkpt lat="-20.919483410244133" lon="117.41664154496277"><ele>19.0</ele><time>2026-04-23T03:42:42.001Z</time></trkpt><trkpt lat="-20.919608229865833" lon="117.41690683954985"><ele>19.0</ele><time>2026-04-23T03:42:43.001Z</time></trkpt><trkpt lat="-20.91972994268052" lon="117.41716969563954"><ele>19.0</ele><time>2026-04-23T03:42:44.001Z</time></trkpt><trkpt lat="-20.91985525257491" lon="117.4174366757401"><ele>19.0</ele><time>2026-04-23T03:42:45.001Z</time></trkpt><trkpt lat="-20.919981412460526" lon="117.41770500505457"><ele>19.5</ele><time>2026-04-23T03:42:46.001Z</time></trkpt><trkpt lat="-20.920107734791497" lon="117.41797182139187"><ele>20.0</ele><time>2026-04-23T03:42:47.001Z</time></trkpt><trkpt lat="-20.92023669986686" lon="117.41824540789385"><ele>20.0</ele><time>2026-04-23T03:42:48.001Z</time></trkpt><trkpt lat="-20.920362311749983" lon="117.41851579472335"><ele>20.0</ele><time>2026-04-23T03:42:49.001Z</time></trkpt><trkpt lat="-20.920489599392173" lon="117.41878901594102"><ele>20.5</ele><time>2026-04-23T03:42:50.001Z</time></trkpt><trkpt lat="-20.920616298607072" lon="117.41906489298249"><ele>21.0</ele><time>2026-04-23T03:42:51.001Z</time></trkpt><trkpt lat="-20.92074340690705" lon="117.41934062807529"><ele>21.0</ele><time>2026-04-23T03:42:52.001Z</time></trkpt><trkpt lat="-20.920875298237785" lon="117.41961929429262"><ele>21.0</ele><time>2026-04-23T03:42:53.001Z</time></trkpt><trkpt lat="-20.92100631662743" lon="117.41989666843129"><ele>20.5</ele><time>2026-04-23T03:42:54.001Z</time></trkpt><trkpt lat="-20.921138231590913" lon="117.42017180767664"><ele>20.0</ele><time>2026-04-23T03:42:55.001Z</time></trkpt><trkpt lat="-20.9212716981105" lon="117.4204506411473"><ele>20.0</ele><time>2026-04-23T03:42:56.001Z</time></trkpt><trkpt lat="-20.921406011301972" lon="117.4207328174874"><ele>20.0</ele><time>2026-04-23T03:42:57.001Z</time></trkpt><trkpt lat="-20.921537057990808" lon="117.42101528292517"><ele>20.0</ele><time>2026-04-23T03:42:58.001Z</time></trkpt><trkpt lat="-20.921669163422713" lon="117.4213001470044"><ele>20.0</ele><time>2026-04-23T03:42:59.001Z</time></trkpt><trkpt lat="-20.921798697939593" lon="117.42157867095908"><ele>20.0</ele><time>2026-04-23T03:43:00.001Z</time></trkpt><trkpt lat="-20.921929855094383" lon="117.42185797663998"><ele>20.0</ele><time>2026-04-23T03:43:01.001Z</time></trkpt><trkpt lat="-20.922058708026327" lon="117.4221355867643"><ele>20.0</ele><time>2026-04-23T03:43:02.001Z</time></trkpt><trkpt lat="-20.922185355535415" lon="117.42240944855149"><ele>20.0</ele><time>2026-04-23T03:43:03.001Z</time></trkpt><trkpt lat="-20.92921800521333" lon="117.43872082035205"><ele>20.0</ele><time>2026-04-23T03:44:04.001Z</time></trkpt><trkpt lat="-20.929256935426753" lon="117.43902654630782"><ele>20.0</ele><time>2026-04-23T03:44:05.001Z</time></trkpt><trkpt lat="-20.92928553306917" lon="117.43933437267029"><ele>21.0</ele><time>2026-04-23T03:44:06.001Z</time></trkpt><trkpt lat="-20.92930474339889" lon="117.43964126259438"><ele>22.0</ele><time>2026-04-23T03:44:07.001Z</time></trkpt><trkpt lat="-20.929319104700276" lon="117.4399506915004"><ele>22.0</ele><time>2026-04-23T03:44:08.001Z</time></trkpt><trkpt lat="-20.929328462024525" lon="117.44026185346051"><ele>22.0</ele><time>2026-04-23T03:44:09.001Z</time></trkpt><trkpt lat="-20.929337676832983" lon="117.44057156681964"><ele>22.5</ele><time>2026-04-23T03:44:10.001Z</time></trkpt><trkpt lat="-20.92934900166186" lon="117.44088082317057"><ele>23.0</ele><time>2026-04-23T03:44:11.001Z</time></trkpt><trkpt lat="-20.929363284509353" lon="117.44119036976647"><ele>22.0</ele><time>2026-04-23T03:44:12.001Z</time></trkpt><trkpt lat="-20.92937888046604" lon="117.4414969849903"><ele>21.0</ele><time>2026-04-23T03:44:13.001Z</time></trkpt><trkpt lat="-20.92939456894749" lon="117.44180423277847"><ele>21.0</ele><time>2026-04-23T03:44:14.001Z</time></trkpt><trkpt lat="-20.9294080496108" lon="117.44210721401126"><ele>21.0</ele><time>2026-04-23T03:44:15.001Z</time></trkpt><trkpt lat="-20.929420465072628" lon="117.44241309777587"><ele>20.0</ele><time>2026-04-23T03:44:16.001Z</time></trkpt><trkpt lat="-20.929432382578558" lon="117.4427214708103"><ele>19.0</ele><time>2026-04-23T03:44:17.001Z</time></trkpt><trkpt lat="-20.929441841914052" lon="117.44302519744828"><ele>19.0</ele><time>2026-04-23T03:44:18.001Z</time></trkpt><trkpt lat="-20.929451749421535" lon="117.44332328409251"><ele>19.0</ele><time>2026-04-23T03:44:19.001Z</time></trkpt><trkpt lat="-20.929461848088074" lon="117.44362150968433"><ele>20.0</ele><time>2026-04-23T03:44:20.001Z</time></trkpt><trkpt lat="-20.929472459147245" lon="117.4439216129304"><ele>21.0</ele><time>2026-04-23T03:44:21.001Z</time></trkpt><trkpt lat="-20.929484034395085" lon="117.44421625477555"><ele>21.0</ele><time>2026-04-23T03:44:22.001Z</time></trkpt><trkpt lat="-20.929497129066572" lon="117.44451956581847"><ele>21.0</ele><time>2026-04-23T03:44:23Z</time></trkpt><trkpt lat="-20.929510866992118" lon="117.44482376548291"><ele>22.0</ele><time>2026-04-23T03:44:24Z</time></trkpt><trkpt lat="-20.929524034947644" lon="117.44512979436885"><ele>23.0</ele><time>2026-04-23T03:44:25Z</time></trkpt><trkpt lat="-20.929535019326313" lon="117.44543548176057"><ele>23.5</ele><time>2026-04-23T03:44:26Z</time></trkpt><trkpt lat="-20.92954815996835" lon="117.44574057555089"><ele>24.0</ele><time>2026-04-23T03:44:27Z</time></trkpt><trkpt lat="-20.92956025084421" lon="117.44604374561334"><ele>22.5</ele><time>2026-04-23T03:44:28Z</time></trkpt><trkpt lat="-20.929574245450073" lon="117.4463470965008"><ele>21.0</ele><time>2026-04-23T03:44:29Z</time></trkpt><trkpt lat="-20.929586855099586" lon="117.44665153092436"><ele>21.0</ele><time>2026-04-23T03:44:30Z</time></trkpt><trkpt lat="-20.92959685708666" lon="117.44695389465132"><ele>21.0</ele><time>2026-04-23T03:44:31Z</time></trkpt><trkpt lat="-20.929604668668958" lon="117.44725288617782"><ele>21.5</ele><time>2026-04-23T03:44:32Z</time></trkpt><trkpt lat="-20.929612607165993" lon="117.44755311283676"><ele>22.0</ele><time>2026-04-23T03:44:33Z</time></trkpt><trkpt lat="-20.92962341460922" lon="117.44784972897406"><ele>21.5</ele><time>2026-04-23T03:44:34Z</time></trkpt><trkpt lat="-20.92963549729586" lon="117.4481547996878"><ele>21.0</ele><time>2026-04-23T03:44:35Z</time></trkpt><trkpt lat="-20.92964784978169" lon="117.44845684865092"><ele>21.0</ele><time>2026-04-23T03:44:36Z</time></trkpt><trkpt lat="-20.92965999184567" lon="117.44874522327208"><ele>21.0</ele><time>2026-04-23T03:44:37Z</time></trkpt><trkpt lat="-20.929673729536074" lon="117.4490421870161"><ele>21.0</ele><time>2026-04-23T03:44:38Z</time></trkpt><trkpt lat="-20.92968941262693" lon="117.44933147465166"><ele>21.0</ele><time>2026-04-23T03:44:39Z</time></trkpt><trkpt lat="-20.9297011646848" lon="117.44963181996734"><ele>21.0</ele><time>2026-04-23T03:44:40Z</time></trkpt><trkpt lat="-20.929712475492416" lon="117.44993215529739"><ele>21.0</ele><time>2026-04-23T03:44:41Z</time></trkpt><trkpt lat="-20.92972575383289" lon="117.45023588025056"><ele>20.5</ele><time>2026-04-23T03:44:42Z</time></trkpt><trkpt lat="-20.929740321093185" lon="117.4505399217655"><ele>20.0</ele><time>2026-04-23T03:44:43Z</time></trkpt><trkpt lat="-20.929754281801998" lon="117.45082730868253"><ele>20.0</ele><time>2026-04-23T03:44:44Z</time></trkpt><trkpt lat="-20.92977092362271" lon="117.4510930437568"><ele>20.0</ele><time>2026-04-23T03:44:45Z</time></trkpt><trkpt lat="-20.92979465936094" lon="117.45136711724635"><ele>20.0</ele><time>2026-04-23T03:44:46Z</time></trkpt><trkpt lat="-20.929825716794003" lon="117.4516489178997"><ele>20.0</ele><time>2026-04-23T03:44:47Z</time></trkpt><trkpt lat="-20.929864489630756" lon="117.45193828722974"><ele>20.5</ele><time>2026-04-23T03:44:48Z</time></trkpt><trkpt lat="-20.929902912393313" lon="117.4522298985392"><ele>21.0</ele><time>2026-04-23T03:44:49Z</time></trkpt><trkpt lat="-20.929942200290203" lon="117.45252380937896"><ele>21.0</ele><time>2026-04-23T03:44:50Z</time></trkpt><trkpt lat="-20.929981194427867" lon="117.45281586085535"><ele>21.0</ele><time>2026-04-23T03:44:51Z</time></trkpt><trkpt lat="-20.93002350949841" lon="117.45310722296522"><ele>22.0</ele><time>2026-04-23T03:44:52Z</time></trkpt><trkpt lat="-20.930067515691494" lon="117.45339572101967"><ele>23.0</ele><time>2026-04-23T03:44:53.001Z</time></trkpt><trkpt lat="-20.93011592836254" lon="117.45368503714357"><ele>22.5</ele><time>2026-04-23T03:44:54.001Z</time></trkpt><trkpt lat="-20.93016515009154" lon="117.45397558982881"><ele>22.0</ele><time>2026-04-23T03:44:55.001Z</time></trkpt><trkpt lat="-20.930215647886637" lon="117.4542656277791"><ele>22.0</ele><time>2026-04-23T03:44:56.001Z</time></trkpt><trkpt lat="-20.930265904697706" lon="117.4545535352349"><ele>22.0</ele><time>2026-04-23T03:44:57.001Z</time></trkpt><trkpt lat="-20.930313342764073" lon="117.45483682966444"><ele>22.0</ele><time>2026-04-23T03:44:58.001Z</time></trkpt><trkpt lat="-20.930361718508053" lon="117.45512098364863"><ele>22.0</ele><time>2026-04-23T03:44:59.001Z</time></trkpt><trkpt lat="-20.930410356444394" lon="117.45540773392608"><ele>22.5</ele><time>2026-04-23T03:45:00.001Z</time></trkpt><trkpt lat="-20.930459265904325" lon="117.45569306828256"><ele>23.0</ele><time>2026-04-23T03:45:01.001Z</time></trkpt><trkpt lat="-20.930508512082323" lon="117.45597813313428"><ele>23.0</ele><time>2026-04-23T03:45:02.001Z</time></trkpt><trkpt lat="-20.930557675567098" lon="117.45626319884936"><ele>23.0</ele><time>2026-04-23T03:45:03.001Z</time></trkpt><trkpt lat="-20.933676495100293" lon="117.4746521273322"><ele>21.5</ele><time>2026-04-23T03:46:04.001Z</time></trkpt><trkpt lat="-20.933727196923623" lon="117.47493885156626"><ele>20.0</ele><time>2026-04-23T03:46:05.001Z</time></trkpt><trkpt lat="-20.93377478450899" lon="117.47523182468119"><ele>19.5</ele><time>2026-04-23T03:46:06.001Z</time></trkpt><trkpt lat="-20.933823348803017" lon="117.47552737161574"><ele>19.0</ele><time>2026-04-23T03:46:07.001Z</time></trkpt><trkpt lat="-20.933873318884793" lon="117.47582355741277"><ele>19.0</ele><time>2026-04-23T03:46:08.001Z</time></trkpt><trkpt lat="-20.933923705424654" lon="117.47612714663889"><ele>19.0</ele><time>2026-04-23T03:46:09.001Z</time></trkpt><trkpt lat="-20.93397595518804" lon="117.47643321917796"><ele>19.5</ele><time>2026-04-23T03:46:10.001Z</time></trkpt><trkpt lat="-20.934027702302355" lon="117.47674016899282"><ele>20.0</ele><time>2026-04-23T03:46:11.001Z</time></trkpt><trkpt lat="-20.934078018016514" lon="117.47705002313577"><ele>19.5</ele><time>2026-04-23T03:46:12.001Z</time></trkpt><trkpt lat="-20.934127133804566" lon="117.47735371294638"><ele>19.0</ele><time>2026-04-23T03:46:13.001Z</time></trkpt><trkpt lat="-20.934178887973708" lon="117.47765459115378"><ele>20.5</ele><time>2026-04-23T03:46:14.001Z</time></trkpt><trkpt lat="-20.934232238108482" lon="117.4779534658966"><ele>22.0</ele><time>2026-04-23T03:46:15.001Z</time></trkpt><trkpt lat="-20.934286241735744" lon="117.47825508407253"><ele>22.0</ele><time>2026-04-23T03:46:16.001Z</time></trkpt><trkpt lat="-20.934338750896305" lon="117.47856270348339"><ele>22.0</ele><time>2026-04-23T03:46:17.001Z</time></trkpt><trkpt lat="-20.934391337523913" lon="117.47886803024787"><ele>21.0</ele><time>2026-04-23T03:46:18.001Z</time></trkpt><trkpt lat="-20.93444344439003" lon="117.47917405544771"><ele>20.0</ele><time>2026-04-23T03:46:19.001Z</time></trkpt><trkpt lat="-20.93449219889218" lon="117.4794746280867"><ele>21.5</ele><time>2026-04-23T03:46:20.001Z</time></trkpt><trkpt lat="-20.93454170408879" lon="117.47977953471882"><ele>23.0</ele><time>2026-04-23T03:46:21.001Z</time></trkpt><trkpt lat="-20.93459333656521" lon="117.48008354795647"><ele>23.0</ele><time>2026-04-23T03:46:22.001Z</time></trkpt><trkpt lat="-20.93464408492507" lon="117.48039261036445"><ele>23.0</ele><time>2026-04-23T03:46:23.001Z</time></trkpt><trkpt lat="-20.9346945834106" lon="117.48069901444688"><ele>23.5</ele><time>2026-04-23T03:46:24.001Z</time></trkpt><trkpt lat="-20.934745441393563" lon="117.4810023594203"><ele>24.0</ele><time>2026-04-23T03:46:25.001Z</time></trkpt><trkpt lat="-20.934798733685945" lon="117.48130631069743"><ele>22.5</ele><time>2026-04-23T03:46:26.001Z</time></trkpt><trkpt lat="-20.934849538373225" lon="117.48160387472329"><ele>21.0</ele><time>2026-04-23T03:46:27.001Z</time></trkpt><trkpt lat="-20.934899020681037" lon="117.48190033176328"><ele>20.5</ele><time>2026-04-23T03:46:28.001Z</time></trkpt><trkpt lat="-20.934948765339463" lon="117.48219598030342"><ele>20.0</ele><time>2026-04-23T03:46:29Z</time></trkpt><trkpt lat="-20.934999084814184" lon="117.48248901128193"><ele>20.0</ele><time>2026-04-23T03:46:30Z</time></trkpt><trkpt lat="-20.935050667422328" lon="117.48277954149754"><ele>20.0</ele><time>2026-04-23T03:46:31Z</time></trkpt><trkpt lat="-20.935102107306456" lon="117.48306515516937"><ele>21.5</ele><time>2026-04-23T03:46:32Z</time></trkpt><trkpt lat="-20.935152418740508" lon="117.48335544228422"><ele>23.0</ele><time>2026-04-23T03:46:33Z</time></trkpt><trkpt lat="-20.9352009219666" lon="117.48364547715677"><ele>22.0</ele><time>2026-04-23T03:46:34Z</time></trkpt><trkpt lat="-20.93524708214055" lon="117.48393646328871"><ele>21.0</ele><time>2026-04-23T03:46:35Z</time></trkpt><trkpt lat="-20.935293815701815" lon="117.48422833421304"><ele>21.0</ele><time>2026-04-23T03:46:36Z</time></trkpt><trkpt lat="-20.9353435677744" lon="117.48451943662205"><ele>21.0</ele><time>2026-04-23T03:46:37Z</time></trkpt><trkpt lat="-20.93539603460369" lon="117.48481365467876"><ele>20.5</ele><time>2026-04-23T03:46:38Z</time></trkpt><trkpt lat="-20.935447878164926" lon="117.4851127921761"><ele>20.0</ele><time>2026-04-23T03:46:39Z</time></trkpt><trkpt lat="-20.935500015932664" lon="117.48541389731776"><ele>20.5</ele><time>2026-04-23T03:46:40Z</time></trkpt><trkpt lat="-20.935551377675832" lon="117.48571366221877"><ele>21.0</ele><time>2026-04-23T03:46:41Z</time></trkpt><trkpt lat="-20.935601426803768" lon="117.48601773261555"><ele>21.0</ele><time>2026-04-23T03:46:42Z</time></trkpt><trkpt lat="-20.935652328484892" lon="117.48631752694854"><ele>21.0</ele><time>2026-04-23T03:46:43Z</time></trkpt><trkpt lat="-20.935702505694138" lon="117.48661573454386"><ele>21.0</ele><time>2026-04-23T03:46:44Z</time></trkpt><trkpt lat="-20.935751826086864" lon="117.48691408714855"><ele>21.0</ele><time>2026-04-23T03:46:45Z</time></trkpt><trkpt lat="-20.935801978581868" lon="117.48721106261343"><ele>21.0</ele><time>2026-04-23T03:46:46Z</time></trkpt><trkpt lat="-20.935852191303763" lon="117.48750674613811"><ele>21.0</ele><time>2026-04-23T03:46:47Z</time></trkpt><trkpt lat="-20.935902340615602" lon="117.48780196415096"><ele>21.5</ele><time>2026-04-23T03:46:48Z</time></trkpt><trkpt lat="-20.93595063418066" lon="117.48809436964261"><ele>22.0</ele><time>2026-04-23T03:46:49Z</time></trkpt><trkpt lat="-20.936001563546736" lon="117.48839222690405"><ele>22.0</ele><time>2026-04-23T03:46:50Z</time></trkpt><trkpt lat="-20.936054064636437" lon="117.48869059380348"><ele>22.0</ele><time>2026-04-23T03:46:51.001Z</time></trkpt><trkpt lat="-20.9361028378808" lon="117.48898834785717"><ele>22.5</ele><time>2026-04-23T03:46:52.001Z</time></trkpt><trkpt lat="-20.936152842700672" lon="117.48929004833431"><ele>23.0</ele><time>2026-04-23T03:46:53.001Z</time></trkpt><trkpt lat="-20.936203968023957" lon="117.48960060733586"><ele>24.0</ele><time>2026-04-23T03:46:54.001Z</time></trkpt><trkpt lat="-20.936256441177918" lon="117.48991773099135"><ele>25.0</ele><time>2026-04-23T03:46:55.001Z</time></trkpt><trkpt lat="-20.93631151136916" lon="117.49023642900445"><ele>25.0</ele><time>2026-04-23T03:46:56.001Z</time></trkpt><trkpt lat="-20.93636766084023" lon="117.49055552687189"><ele>25.0</ele><time>2026-04-23T03:46:57.001Z</time></trkpt><trkpt lat="-20.936423122647334" lon="117.49087173641281"><ele>25.0</ele><time>2026-04-23T03:46:58.001Z</time></trkpt><trkpt lat="-20.936477727841968" lon="117.49118847331702"><ele>25.0</ele><time>2026-04-23T03:46:59.001Z</time></trkpt><trkpt lat="-20.93652983392869" lon="117.49150721695368"><ele>24.5</ele><time>2026-04-23T03:47:00.001Z</time></trkpt><trkpt lat="-20.93658020392031" lon="117.49182356441726"><ele>24.0</ele><time>2026-04-23T03:47:01.001Z</time></trkpt><trkpt lat="-20.936630298241248" lon="117.492136537136"><ele>25.0</ele><time>2026-04-23T03:47:02.001Z</time></trkpt><trkpt lat="-20.936682651362474" lon="117.492448257716"><ele>26.0</ele><time>2026-04-23T03:47:03.001Z</time></trkpt><trkpt lat="-20.939695690179114" lon="117.51011253984835"><ele>27.0</ele><time>2026-04-23T03:48:04.001Z</time></trkpt><trkpt lat="-20.93974401035463" lon="117.51041390818742"><ele>28.0</ele><time>2026-04-23T03:48:05.001Z</time></trkpt><trkpt lat="-20.93979022504308" lon="117.51071369761212"><ele>28.0</ele><time>2026-04-23T03:48:06.001Z</time></trkpt><trkpt lat="-20.939837448941955" lon="117.51101478752499"><ele>28.0</ele><time>2026-04-23T03:48:07.001Z</time></trkpt><trkpt lat="-20.939887040743955" lon="117.51131455824614"><ele>27.0</ele><time>2026-04-23T03:48:08.001Z</time></trkpt><trkpt lat="-20.939940585216977" lon="117.51161435230703"><ele>26.0</ele><time>2026-04-23T03:48:09.001Z</time></trkpt><trkpt lat="-20.939994358520227" lon="117.51191650077924"><ele>26.5</ele><time>2026-04-23T03:48:10.001Z</time></trkpt><trkpt lat="-20.940046324853384" lon="117.51222038005788"><ele>27.0</ele><time>2026-04-23T03:48:11.001Z</time></trkpt><trkpt lat="-20.940098730272144" lon="117.51252412965182"><ele>27.5</ele><time>2026-04-23T03:48:12.001Z</time></trkpt><trkpt lat="-20.940149924542975" lon="117.51282774456803"><ele>28.0</ele><time>2026-04-23T03:48:13.001Z</time></trkpt><trkpt lat="-20.940202383483626" lon="117.5131335573647"><ele>28.0</ele><time>2026-04-23T03:48:14.001Z</time></trkpt><trkpt lat="-20.940254718049644" lon="117.51343817334626"><ele>28.0</ele><time>2026-04-23T03:48:15.001Z</time></trkpt><trkpt lat="-20.940304840786958" lon="117.51374301521977"><ele>28.5</ele><time>2026-04-23T03:48:16.001Z</time></trkpt><trkpt lat="-20.94035617856538" lon="117.51405012603622"><ele>29.0</ele><time>2026-04-23T03:48:17.001Z</time></trkpt><trkpt lat="-20.940407060032026" lon="117.5143561021545"><ele>29.0</ele><time>2026-04-23T03:48:18.001Z</time></trkpt><trkpt lat="-20.940458742458333" lon="117.51466229890228"><ele>29.0</ele><time>2026-04-23T03:48:19.001Z</time></trkpt><trkpt lat="-20.940510114880023" lon="117.51496561752276"><ele>29.0</ele><time>2026-04-23T03:48:20.001Z</time></trkpt><trkpt lat="-20.94056042932146" lon="117.51526909347547"><ele>29.0</ele><time>2026-04-23T03:48:21.001Z</time></trkpt><trkpt lat="-20.94061095873014" lon="117.51557281188525"><ele>28.5</ele><time>2026-04-23T03:48:22.001Z</time></trkpt><trkpt lat="-20.940659818177185" lon="117.51587319651023"><ele>28.0</ele><time>2026-04-23T03:48:23.001Z</time></trkpt><trkpt lat="-20.940708270233635" lon="117.51617080961209"><ele>28.5</ele><time>2026-04-23T03:48:24.001Z</time></trkpt><trkpt lat="-20.940760325100495" lon="117.5164676797786"><ele>29.0</ele><time>2026-04-23T03:48:25.001Z</time></trkpt><trkpt lat="-20.940810019400377" lon="117.51676100867827"><ele>29.0</ele><time>2026-04-23T03:48:26.001Z</time></trkpt><trkpt lat="-20.940857603581588" lon="117.51705396173729"><ele>29.0</ele><time>2026-04-23T03:48:27.001Z</time></trkpt><trkpt lat="-20.940905152527563" lon="117.51734867193964"><ele>30.0</ele><time>2026-04-23T03:48:28.001Z</time></trkpt><trkpt lat="-20.940956179955645" lon="117.5176458731123"><ele>31.0</ele><time>2026-04-23T03:48:29.001Z</time></trkpt><trkpt lat="-20.941008857539806" lon="117.51794261059868"><ele>31.0</ele><time>2026-04-23T03:48:30.001Z</time></trkpt><trkpt lat="-20.9410618151883" lon="117.51823834367063"><ele>31.0</ele><time>2026-04-23T03:48:31.001Z</time></trkpt><trkpt lat="-20.94111211524593" lon="117.51853357019063"><ele>31.0</ele><time>2026-04-23T03:48:32.001Z</time></trkpt><trkpt lat="-20.941162726488468" lon="117.5188285330938"><ele>31.0</ele><time>2026-04-23T03:48:33.001Z</time></trkpt><trkpt lat="-20.941213782160876" lon="117.51912311675062"><ele>31.0</ele><time>2026-04-23T03:48:34.001Z</time></trkpt><trkpt lat="-20.941264221517095" lon="117.51941591625709"><ele>31.0</ele><time>2026-04-23T03:48:35.001Z</time></trkpt><trkpt lat="-20.941313375278202" lon="117.51971013798726"><ele>31.5</ele><time>2026-04-23T03:48:36.001Z</time></trkpt><trkpt lat="-20.94136035931782" lon="117.52000756187833"><ele>32.0</ele><time>2026-04-23T03:48:37.001Z</time></trkpt><trkpt lat="-20.94140080034097" lon="117.52030445237556"><ele>32.0</ele><time>2026-04-23T03:48:38.001Z</time></trkpt><trkpt lat="-20.941435645388406" lon="117.5206002212489"><ele>32.0</ele><time>2026-04-23T03:48:39.001Z</time></trkpt><trkpt lat="-20.941458066089496" lon="117.52089353613"><ele>32.0</ele><time>2026-04-23T03:48:40.001Z</time></trkpt><trkpt lat="-20.94147276580107" lon="117.5211854606771"><ele>32.0</ele><time>2026-04-23T03:48:41.001Z</time></trkpt><trkpt lat="-20.941480690408145" lon="117.52148288885738"><ele>30.5</ele><time>2026-04-23T03:48:42.001Z</time></trkpt><trkpt lat="-20.94148182417513" lon="117.52178294576724"><ele>29.0</ele><time>2026-04-23T03:48:43.001Z</time></trkpt><trkpt lat="-20.941476124966393" lon="117.52209214286914"><ele>29.0</ele><time>2026-04-23T03:48:44.001Z</time></trkpt><trkpt lat="-20.941467413981048" lon="117.52240431703991"><ele>29.0</ele><time>2026-04-23T03:48:45.001Z</time></trkpt><trkpt lat="-20.94145163051518" lon="117.52271312348702"><ele>29.5</ele><time>2026-04-23T03:48:46.001Z</time></trkpt><trkpt lat="-20.941425895010408" lon="117.52301448805841"><ele>30.0</ele><time>2026-04-23T03:48:47.001Z</time></trkpt><trkpt lat="-20.9413945503396" lon="117.52331474151438"><ele>30.0</ele><time>2026-04-23T03:48:48.001Z</time></trkpt><trkpt lat="-20.941356642188595" lon="117.52361820621444"><ele>30.0</ele><time>2026-04-23T03:48:49.001Z</time></trkpt><trkpt lat="-20.9413104535175" lon="117.5239195133773"><ele>31.0</ele><time>2026-04-23T03:48:50.001Z</time></trkpt><trkpt lat="-20.94125496882675" lon="117.52421851599375"><ele>32.0</ele><time>2026-04-23T03:48:51.001Z</time></trkpt><trkpt lat="-20.94119119827301" lon="117.52451729054519"><ele>30.5</ele><time>2026-04-23T03:48:52.001Z</time></trkpt><trkpt lat="-20.941120564748694" lon="117.52481398463786"><ele>29.0</ele><time>2026-04-23T03:48:53.001Z</time></trkpt><trkpt lat="-20.94103952825936" lon="117.52511112057417"><ele>29.5</ele><time>2026-04-23T03:48:54.001Z</time></trkpt><trkpt lat="-20.94095436717461" lon="117.52540595026058"><ele>30.0</ele><time>2026-04-23T03:48:55.001Z</time></trkpt><trkpt lat="-20.940865263702843" lon="117.52570210465075"><ele>30.5</ele><time>2026-04-23T03:48:56.001Z</time></trkpt><trkpt lat="-20.940775352436106" lon="117.52599805334818"><ele>31.0</ele><time>2026-04-23T03:48:57.001Z</time></trkpt><trkpt lat="-20.940686104808023" lon="117.52629522096593"><ele>31.0</ele><time>2026-04-23T03:48:58.001Z</time></trkpt><trkpt lat="-20.940600989252385" lon="117.52659106630207"><ele>31.0</ele><time>2026-04-23T03:48:59.001Z</time></trkpt><trkpt lat="-20.94051598692686" lon="117.52688911950487"><ele>29.5</ele><time>2026-04-23T03:49:00.001Z</time></trkpt><trkpt lat="-20.940431015653303" lon="117.52718472650226"><ele>28.0</ele><time>2026-04-23T03:49:01.001Z</time></trkpt><trkpt lat="-20.940345957651914" lon="117.52748072120161"><ele>28.0</ele><time>2026-04-23T03:49:02.001Z</time></trkpt><trkpt lat="-20.940257901781415" lon="117.52778020512923"><ele>28.0</ele><time>2026-04-23T03:49:03.001Z</time></trkpt><trkpt lat="-20.936680946919306" lon="117.54480078528744"><ele>27.0</ele><time>2026-04-23T03:50:04.001Z</time></trkpt><trkpt lat="-20.936683341897744" lon="117.54509167974196"><ele>26.0</ele><time>2026-04-23T03:50:05.001Z</time></trkpt><trkpt lat="-20.936685383094854" lon="117.54537820219062"><ele>25.0</ele><time>2026-04-23T03:50:06.001Z</time></trkpt><trkpt lat="-20.936688636618346" lon="117.54567184528752"><ele>24.0</ele><time>2026-04-23T03:50:07.001Z</time></trkpt><trkpt lat="-20.936693638662845" lon="117.545962892225"><ele>24.0</ele><time>2026-04-23T03:50:08.001Z</time></trkpt><trkpt lat="-20.936696179404603" lon="117.5462538184157"><ele>24.0</ele><time>2026-04-23T03:50:09.001Z</time></trkpt><trkpt lat="-20.9366998309418" lon="117.54655228067087"><ele>24.0</ele><time>2026-04-23T03:50:10.001Z</time></trkpt><trkpt lat="-20.936704234175235" lon="117.54685181898826"><ele>24.0</ele><time>2026-04-23T03:50:11.001Z</time></trkpt><trkpt lat="-20.936709369788087" lon="117.54714930258537"><ele>25.0</ele><time>2026-04-23T03:50:12.001Z</time></trkpt><trkpt lat="-20.936712667007225" lon="117.54744348255247"><ele>26.0</ele><time>2026-04-23T03:50:13.001Z</time></trkpt><trkpt lat="-20.936717101501102" lon="117.54774003659801"><ele>26.5</ele><time>2026-04-23T03:50:14.001Z</time></trkpt><trkpt lat="-20.93672373203126" lon="117.54803732070803"><ele>27.0</ele><time>2026-04-23T03:50:15.001Z</time></trkpt><trkpt lat="-20.93673066422711" lon="117.54833183356327"><ele>27.0</ele><time>2026-04-23T03:50:16.001Z</time></trkpt><trkpt lat="-20.93673424658526" lon="117.54862515135707"><ele>27.0</ele><time>2026-04-23T03:50:17.001Z</time></trkpt><trkpt lat="-20.936735155213004" lon="117.54891771422344"><ele>27.5</ele><time>2026-04-23T03:50:18.001Z</time></trkpt><trkpt lat="-20.936735102973003" lon="117.54921234654881"><ele>28.0</ele><time>2026-04-23T03:50:19.001Z</time></trkpt><trkpt lat="-20.93673515549761" lon="117.54950617832161"><ele>28.5</ele><time>2026-04-23T03:50:20.001Z</time></trkpt><trkpt lat="-20.93673731012927" lon="117.54980005000745"><ele>29.0</ele><time>2026-04-23T03:50:21.001Z</time></trkpt><trkpt lat="-20.936741402981802" lon="117.55009410217568"><ele>29.5</ele><time>2026-04-23T03:50:22.001Z</time></trkpt><trkpt lat="-20.936748843392976" lon="117.55038850929846"><ele>30.0</ele><time>2026-04-23T03:50:23.001Z</time></trkpt><trkpt lat="-20.93675377313382" lon="117.5506875608341"><ele>30.0</ele><time>2026-04-23T03:50:24.001Z</time></trkpt><trkpt lat="-20.936758861453963" lon="117.55098805409503"><ele>30.0</ele><time>2026-04-23T03:50:25.001Z</time></trkpt><trkpt lat="-20.936763298347234" lon="117.55128852977145"><ele>28.5</ele><time>2026-04-23T03:50:26.001Z</time></trkpt><trkpt lat="-20.936765328626375" lon="117.55159291820121"><ele>27.0</ele><time>2026-04-23T03:50:27.001Z</time></trkpt><trkpt lat="-20.93676963625149" lon="117.55189678651485"><ele>27.0</ele><time>2026-04-23T03:50:28.001Z</time></trkpt><trkpt lat="-20.93677269503609" lon="117.55220130538665"><ele>27.0</ele><time>2026-04-23T03:50:29.001Z</time></trkpt><trkpt lat="-20.93677600044164" lon="117.55250658826213"><ele>27.0</ele><time>2026-04-23T03:50:30.001Z</time></trkpt><trkpt lat="-20.936780043818853" lon="117.55280990433607"><ele>27.0</ele><time>2026-04-23T03:50:31.001Z</time></trkpt><trkpt lat="-20.93678400196661" lon="117.55311279526666"><ele>27.0</ele><time>2026-04-23T03:50:32.001Z</time></trkpt><trkpt lat="-20.936787106872043" lon="117.55341430604852"><ele>27.0</ele><time>2026-04-23T03:50:33.001Z</time></trkpt><trkpt lat="-20.936791549936586" lon="117.55371439156573"><ele>27.0</ele><time>2026-04-23T03:50:34.001Z</time></trkpt><trkpt lat="-20.93679616979956" lon="117.5540180705745"><ele>27.0</ele><time>2026-04-23T03:50:35.001Z</time></trkpt><trkpt lat="-20.936800083763128" lon="117.55432246092894"><ele>26.0</ele><time>2026-04-23T03:50:36.001Z</time></trkpt><trkpt lat="-20.93680538290464" lon="117.5546281598446"><ele>25.0</ele><time>2026-04-23T03:50:37.001Z</time></trkpt><trkpt lat="-20.936810770157553" lon="117.55493306737267"><ele>25.0</ele><time>2026-04-23T03:50:38.001Z</time></trkpt><trkpt lat="-20.936816011726126" lon="117.55523997915508"><ele>25.0</ele><time>2026-04-23T03:50:39.001Z</time></trkpt><trkpt lat="-20.936819175828372" lon="117.55554728340708"><ele>25.5</ele><time>2026-04-23T03:50:40.001Z</time></trkpt><trkpt lat="-20.936819873120438" lon="117.5558498919108"><ele>26.0</ele><time>2026-04-23T03:50:41Z</time></trkpt><trkpt lat="-20.936820100311206" lon="117.55615222635251"><ele>27.0</ele><time>2026-04-23T03:50:42Z</time></trkpt><trkpt lat="-20.93682179194674" lon="117.55645898770177"><ele>28.0</ele><time>2026-04-23T03:50:43Z</time></trkpt><trkpt lat="-20.936826485071915" lon="117.5567679084825"><ele>28.0</ele><time>2026-04-23T03:50:44Z</time></trkpt><trkpt lat="-20.936832533748756" lon="117.55707247400177"><ele>28.0</ele><time>2026-04-23T03:50:45Z</time></trkpt><trkpt lat="-20.936838871387305" lon="117.55738140246169"><ele>28.0</ele><time>2026-04-23T03:50:46Z</time></trkpt><trkpt lat="-20.936843366735115" lon="117.55768816698122"><ele>28.0</ele><time>2026-04-23T03:50:47Z</time></trkpt><trkpt lat="-20.936846415551578" lon="117.55799379228579"><ele>28.0</ele><time>2026-04-23T03:50:48Z</time></trkpt><trkpt lat="-20.936847893778406" lon="117.55830453535964"><ele>28.0</ele><time>2026-04-23T03:50:49Z</time></trkpt><trkpt lat="-20.93684832906893" lon="117.55861557533423"><ele>26.5</ele><time>2026-04-23T03:50:50Z</time></trkpt><trkpt lat="-20.936850581912303" lon="117.55892500911864"><ele>25.0</ele><time>2026-04-23T03:50:51Z</time></trkpt><trkpt lat="-20.936855290808264" lon="117.55923334431323"><ele>24.5</ele><time>2026-04-23T03:50:52Z</time></trkpt><trkpt lat="-20.936862689837845" lon="117.55954455250323"><ele>24.0</ele><time>2026-04-23T03:50:53Z</time></trkpt><trkpt lat="-20.93686803569929" lon="117.55985219356832"><ele>24.0</ele><time>2026-04-23T03:50:54Z</time></trkpt><trkpt lat="-20.936871666513934" lon="117.56015892966532"><ele>24.0</ele><time>2026-04-23T03:50:55Z</time></trkpt><trkpt lat="-20.936876984616724" lon="117.56046464933878"><ele>23.5</ele><time>2026-04-23T03:50:56Z</time></trkpt><trkpt lat="-20.936881700830153" lon="117.56077062330186"><ele>23.0</ele><time>2026-04-23T03:50:57Z</time></trkpt><trkpt lat="-20.936885096329913" lon="117.56107475107265"><ele>22.5</ele><time>2026-04-23T03:50:58Z</time></trkpt><trkpt lat="-20.936888086453642" lon="117.56137460230126"><ele>22.0</ele><time>2026-04-23T03:50:59Z</time></trkpt><trkpt lat="-20.93689106998802" lon="117.56167331066852"><ele>22.0</ele><time>2026-04-23T03:51:00Z</time></trkpt><trkpt lat="-20.93689287226607" lon="117.561969291914"><ele>22.0</ele><time>2026-04-23T03:51:01Z</time></trkpt><trkpt lat="-20.936895798157114" lon="117.56226159729654"><ele>23.0</ele><time>2026-04-23T03:51:02Z</time></trkpt><trkpt lat="-20.93689821156164" lon="117.56255851584811"><ele>24.0</ele><time>2026-04-23T03:51:03Z</time></trkpt><trkpt lat="-20.93712225052589" lon="117.58062187284634"><ele>25.5</ele><time>2026-04-23T03:52:04.001Z</time></trkpt><trkpt lat="-20.937126288325207" lon="117.58091071852886"><ele>27.0</ele><time>2026-04-23T03:52:05.001Z</time></trkpt><trkpt lat="-20.937127875257296" lon="117.58120031964745"><ele>27.5</ele><time>2026-04-23T03:52:06.001Z</time></trkpt><trkpt lat="-20.937130267089607" lon="117.58148851928883"><ele>28.0</ele><time>2026-04-23T03:52:07.001Z</time></trkpt><trkpt lat="-20.93713274210326" lon="117.58177959036657"><ele>28.0</ele><time>2026-04-23T03:52:08.001Z</time></trkpt><trkpt lat="-20.93713527047356" lon="117.58207197822533"><ele>28.0</ele><time>2026-04-23T03:52:09.001Z</time></trkpt><trkpt lat="-20.93713802806565" lon="117.5823636913976"><ele>28.0</ele><time>2026-04-23T03:52:10.001Z</time></trkpt><trkpt lat="-20.937143511680937" lon="117.5826583975408"><ele>28.0</ele><time>2026-04-23T03:52:11.001Z</time></trkpt><trkpt lat="-20.937149663969347" lon="117.58295560570015"><ele>27.5</ele><time>2026-04-23T03:52:12.001Z</time></trkpt><trkpt lat="-20.937156065909726" lon="117.58325789405067"><ele>27.0</ele><time>2026-04-23T03:52:13.001Z</time></trkpt><trkpt lat="-20.937165498893048" lon="117.58356025295826"><ele>27.5</ele><time>2026-04-23T03:52:14.001Z</time></trkpt><trkpt lat="-20.937179971743063" lon="117.58386054774898"><ele>28.0</ele><time>2026-04-23T03:52:15.001Z</time></trkpt><trkpt lat="-20.93719998449352" lon="117.5841622974314"><ele>28.0</ele><time>2026-04-23T03:52:16.001Z</time></trkpt><trkpt lat="-20.93722612401689" lon="117.58446482675896"><ele>28.0</ele><time>2026-04-23T03:52:17.001Z</time></trkpt><trkpt lat="-20.937262580053766" lon="117.58476377369371"><ele>27.5</ele><time>2026-04-23T03:52:18.001Z</time></trkpt><trkpt lat="-20.93731030369761" lon="117.58506206037457"><ele>27.0</ele><time>2026-04-23T03:52:19.001Z</time></trkpt><trkpt lat="-20.937363856351723" lon="117.58536170055105"><ele>26.5</ele><time>2026-04-23T03:52:20.001Z</time></trkpt><trkpt lat="-20.937420898441957" lon="117.5856586209589"><ele>26.0</ele><time>2026-04-23T03:52:21.001Z</time></trkpt><trkpt lat="-20.93748314654799" lon="117.58595173650038"><ele>26.5</ele><time>2026-04-23T03:52:22.001Z</time></trkpt><trkpt lat="-20.93755456335621" lon="117.58624050098386"><ele>27.0</ele><time>2026-04-23T03:52:23.001Z</time></trkpt><trkpt lat="-20.937634330214696" lon="117.58652590703264"><ele>27.0</ele><time>2026-04-23T03:52:24.001Z</time></trkpt><trkpt lat="-20.937716329983118" lon="117.58681186695964"><ele>27.0</ele><time>2026-04-23T03:52:25.001Z</time></trkpt><trkpt lat="-20.9377976264477" lon="117.58709777672459"><ele>27.5</ele><time>2026-04-23T03:52:26.001Z</time></trkpt><trkpt lat="-20.937876243174617" lon="117.58738353420802"><ele>28.0</ele><time>2026-04-23T03:52:27.001Z</time></trkpt><trkpt lat="-20.937955763418863" lon="117.58767090701744"><ele>26.5</ele><time>2026-04-23T03:52:28.001Z</time></trkpt><trkpt lat="-20.938037022242014" lon="117.58795844353247"><ele>25.0</ele><time>2026-04-23T03:52:29.001Z</time></trkpt><trkpt lat="-20.938116381082157" lon="117.5882456848515"><ele>25.0</ele><time>2026-04-23T03:52:30.001Z</time></trkpt><trkpt lat="-20.938194652418197" lon="117.58853222702291"><ele>25.0</ele><time>2026-04-23T03:52:31.001Z</time></trkpt><trkpt lat="-20.938273781207812" lon="117.58881570095416"><ele>25.0</ele><time>2026-04-23T03:52:32.001Z</time></trkpt><trkpt lat="-20.93835418016333" lon="117.58909839022442"><ele>25.0</ele><time>2026-04-23T03:52:33.001Z</time></trkpt><trkpt lat="-20.93843447376221" lon="117.5893826854412"><ele>26.0</ele><time>2026-04-23T03:52:34.001Z</time></trkpt><trkpt lat="-20.93851426923869" lon="117.58966754061805"><ele>27.0</ele><time>2026-04-23T03:52:35.001Z</time></trkpt><trkpt lat="-20.938593081020027" lon="117.58995354492052"><ele>27.0</ele><time>2026-04-23T03:52:36.001Z</time></trkpt><trkpt lat="-20.938673039412087" lon="117.59023817220474"><ele>27.0</ele><time>2026-04-23T03:52:37.001Z</time></trkpt><trkpt lat="-20.938749623833353" lon="117.59052350536925"><ele>27.5</ele><time>2026-04-23T03:52:38.001Z</time></trkpt><trkpt lat="-20.93882421139279" lon="117.59080505937993"><ele>28.0</ele><time>2026-04-23T03:52:39.001Z</time></trkpt><trkpt lat="-20.938900037988496" lon="117.59108561159972"><ele>28.0</ele><time>2026-04-23T03:52:40.001Z</time></trkpt><trkpt lat="-20.938979502192343" lon="117.59136471917758"><ele>28.0</ele><time>2026-04-23T03:52:41.001Z</time></trkpt><trkpt lat="-20.939056419154706" lon="117.591641201783"><ele>28.0</ele><time>2026-04-23T03:52:42.001Z</time></trkpt><trkpt lat="-20.939135778552778" lon="117.59191660484274"><ele>28.0</ele><time>2026-04-23T03:52:43.001Z</time></trkpt><trkpt lat="-20.93921719532513" lon="117.59219866413653"><ele>27.0</ele><time>2026-04-23T03:52:44.001Z</time></trkpt><trkpt lat="-20.93929711316491" lon="117.5924813010085"><ele>26.0</ele><time>2026-04-23T03:52:45.001Z</time></trkpt><trkpt lat="-20.939373456996478" lon="117.59276243016566"><ele>27.0</ele><time>2026-04-23T03:52:46.001Z</time></trkpt><trkpt lat="-20.93945138940296" lon="117.59304564975744"><ele>28.0</ele><time>2026-04-23T03:52:47Z</time></trkpt><trkpt lat="-20.9395319047856" lon="117.59333208191896"><ele>28.0</ele><time>2026-04-23T03:52:48Z</time></trkpt><trkpt lat="-20.939612383003016" lon="117.59362203146374"><ele>28.0</ele><time>2026-04-23T03:52:49Z</time></trkpt><trkpt lat="-20.939695061663535" lon="117.59391736752745"><ele>27.5</ele><time>2026-04-23T03:52:50Z</time></trkpt><trkpt lat="-20.939773759037568" lon="117.59421284291106"><ele>27.0</ele><time>2026-04-23T03:52:51Z</time></trkpt><trkpt lat="-20.939855501076416" lon="117.59451167996846"><ele>25.5</ele><time>2026-04-23T03:52:52Z</time></trkpt><trkpt lat="-20.939939945446227" lon="117.59481422642699"><ele>24.0</ele><time>2026-04-23T03:52:53Z</time></trkpt><trkpt lat="-20.94002461263163" lon="117.5951131073308"><ele>26.5</ele><time>2026-04-23T03:52:54Z</time></trkpt><trkpt lat="-20.940108671641305" lon="117.59541139253865"><ele>29.0</ele><time>2026-04-23T03:52:55Z</time></trkpt><trkpt lat="-20.940192134445184" lon="117.595709261149"><ele>29.0</ele><time>2026-04-23T03:52:56Z</time></trkpt><trkpt lat="-20.94027346494034" lon="117.59600808080424"><ele>29.0</ele><time>2026-04-23T03:52:57Z</time></trkpt><trkpt lat="-20.940355421172256" lon="117.59630778175784"><ele>29.5</ele><time>2026-04-23T03:52:58Z</time></trkpt><trkpt lat="-20.94044133946434" lon="117.59660582723606"><ele>30.0</ele><time>2026-04-23T03:52:59Z</time></trkpt><trkpt lat="-20.940525332156167" lon="117.59690485372755"><ele>29.5</ele><time>2026-04-23T03:53:00Z</time></trkpt><trkpt lat="-20.94060891401716" lon="117.59720522128771"><ele>29.0</ele><time>2026-04-23T03:53:01Z</time></trkpt><trkpt lat="-20.940693411540654" lon="117.59750529741945"><ele>29.0</ele><time>2026-04-23T03:53:02Z</time></trkpt><trkpt lat="-20.94077835663075" lon="117.5978042264083"><ele>29.0</ele><time>2026-04-23T03:53:03Z</time></trkpt><trkpt lat="-20.945579428855165" lon="117.61513996303644"><ele>28.0</ele><time>2026-04-23T03:54:04.001Z</time></trkpt><trkpt lat="-20.945651767276324" lon="117.61541455937315"><ele>27.0</ele><time>2026-04-23T03:54:05.001Z</time></trkpt><trkpt lat="-20.945725580788295" lon="117.61568460273777"><ele>27.0</ele><time>2026-04-23T03:54:06.001Z</time></trkpt><trkpt lat="-20.945800711504734" lon="117.61595223326209"><ele>27.0</ele><time>2026-04-23T03:54:07.001Z</time></trkpt><trkpt lat="-20.94587393904998" lon="117.61621844571992"><ele>27.0</ele><time>2026-04-23T03:54:08.001Z</time></trkpt><trkpt lat="-20.945946152777218" lon="117.61648491646123"><ele>27.0</ele><time>2026-04-23T03:54:09.001Z</time></trkpt><trkpt lat="-20.946019341506126" lon="117.61675046888502"><ele>27.0</ele><time>2026-04-23T03:54:10.001Z</time></trkpt><trkpt lat="-20.94608732147644" lon="117.61701555772824"><ele>27.0</ele><time>2026-04-23T03:54:11.001Z</time></trkpt><trkpt lat="-20.946145220840943" lon="117.61728527990272"><ele>27.0</ele><time>2026-04-23T03:54:12.001Z</time></trkpt><trkpt lat="-20.946190611227284" lon="117.61756014689057"><ele>27.0</ele><time>2026-04-23T03:54:13.001Z</time></trkpt><trkpt lat="-20.946224066537457" lon="117.61783912731975"><ele>27.0</ele><time>2026-04-23T03:54:14.001Z</time></trkpt><trkpt lat="-20.94624980581137" lon="117.61812354328382"><ele>27.0</ele><time>2026-04-23T03:54:15.001Z</time></trkpt><trkpt lat="-20.946266121220734" lon="117.61840782464452"><ele>27.5</ele><time>2026-04-23T03:54:16.001Z</time></trkpt><trkpt lat="-20.94627443979787" lon="117.61869360613501"><ele>28.0</ele><time>2026-04-23T03:54:17.001Z</time></trkpt><trkpt lat="-20.94627249530867" lon="117.61897914308405"><ele>28.0</ele><time>2026-04-23T03:54:18.001Z</time></trkpt><trkpt lat="-20.946266806419995" lon="117.61926330333299"><ele>28.0</ele><time>2026-04-23T03:54:19.001Z</time></trkpt><trkpt lat="-20.946256336924932" lon="117.61954748169455"><ele>28.0</ele><time>2026-04-23T03:54:20.001Z</time></trkpt><trkpt lat="-20.946236745101405" lon="117.6198314395763"><ele>28.0</ele><time>2026-04-23T03:54:21.001Z</time></trkpt><trkpt lat="-20.946209746967124" lon="117.62011168669905"><ele>28.0</ele><time>2026-04-23T03:54:22.001Z</time></trkpt><trkpt lat="-20.946182007276498" lon="117.62039259090348"><ele>28.0</ele><time>2026-04-23T03:54:23.001Z</time></trkpt><trkpt lat="-20.946160474494622" lon="117.62067380423804"><ele>28.0</ele><time>2026-04-23T03:54:24.001Z</time></trkpt><trkpt lat="-20.94613958864939" lon="117.62095450504101"><ele>28.0</ele><time>2026-04-23T03:54:25.001Z</time></trkpt><trkpt lat="-20.94611892369255" lon="117.6212381987014"><ele>27.5</ele><time>2026-04-23T03:54:26.001Z</time></trkpt><trkpt lat="-20.946099225525536" lon="117.62152760511411"><ele>27.0</ele><time>2026-04-23T03:54:27.001Z</time></trkpt><trkpt lat="-20.94607861683752" lon="117.62181267346352"><ele>28.0</ele><time>2026-04-23T03:54:28.001Z</time></trkpt><trkpt lat="-20.946057314986096" lon="117.6220979256091"><ele>29.0</ele><time>2026-04-23T03:54:29.001Z</time></trkpt><trkpt lat="-20.94603439270294" lon="117.62239021657615"><ele>29.0</ele><time>2026-04-23T03:54:30.001Z</time></trkpt><trkpt lat="-20.94601158773974" lon="117.62268328349407"><ele>29.0</ele><time>2026-04-23T03:54:31.001Z</time></trkpt><trkpt lat="-20.94599061385319" lon="117.6229763897746"><ele>30.0</ele><time>2026-04-23T03:54:32.001Z</time></trkpt><trkpt lat="-20.94597153063785" lon="117.62326692240121"><ele>31.0</ele><time>2026-04-23T03:54:33.001Z</time></trkpt><trkpt lat="-20.945948649919828" lon="117.62355366186112"><ele>31.5</ele><time>2026-04-23T03:54:34.001Z</time></trkpt><trkpt lat="-20.94592455168187" lon="117.62384203018574"><ele>32.0</ele><time>2026-04-23T03:54:35.001Z</time></trkpt><trkpt lat="-20.945903404850394" lon="117.6241294791908"><ele>32.0</ele><time>2026-04-23T03:54:36.001Z</time></trkpt><trkpt lat="-20.945885381524555" lon="117.62442035746886"><ele>32.0</ele><time>2026-04-23T03:54:37.001Z</time></trkpt><trkpt lat="-20.945877304573703" lon="117.62471404342386"><ele>31.0</ele><time>2026-04-23T03:54:38.001Z</time></trkpt><trkpt lat="-20.945881969922834" lon="117.62501145812405"><ele>30.0</ele><time>2026-04-23T03:54:39.001Z</time></trkpt><trkpt lat="-20.94589728755428" lon="117.62530965020657"><ele>30.5</ele><time>2026-04-23T03:54:40.001Z</time></trkpt><trkpt lat="-20.945918134474585" lon="117.62560370749735"><ele>31.0</ele><time>2026-04-23T03:54:41.001Z</time></trkpt><trkpt lat="-20.94594558587624" lon="117.62589500955008"><ele>32.0</ele><time>2026-04-23T03:54:42.001Z</time></trkpt><trkpt lat="-20.945984975240986" lon="117.62617855886347"><ele>33.0</ele><time>2026-04-23T03:54:43.001Z</time></trkpt><trkpt lat="-20.946033766021504" lon="117.62645847913326"><ele>33.0</ele><time>2026-04-23T03:54:44.001Z</time></trkpt><trkpt lat="-20.946088182290115" lon="117.62673726904461"><ele>33.0</ele><time>2026-04-23T03:54:45.001Z</time></trkpt><trkpt lat="-20.94614567868759" lon="117.62701165125198"><ele>32.0</ele><time>2026-04-23T03:54:46.001Z</time></trkpt><trkpt lat="-20.94621290860832" lon="117.62728878310818"><ele>31.0</ele><time>2026-04-23T03:54:47.001Z</time></trkpt><trkpt lat="-20.946292583640275" lon="117.6275650575684"><ele>31.5</ele><time>2026-04-23T03:54:48.001Z</time></trkpt><trkpt lat="-20.94637806256645" lon="117.6278445695568"><ele>32.0</ele><time>2026-04-23T03:54:49.001Z</time></trkpt><trkpt lat="-20.946461866254598" lon="117.62812294519298"><ele>32.0</ele><time>2026-04-23T03:54:50.001Z</time></trkpt><trkpt lat="-20.946544233986913" lon="117.62840068168731"><ele>32.0</ele><time>2026-04-23T03:54:51.001Z</time></trkpt><trkpt lat="-20.946622321787192" lon="117.62866896584562"><ele>33.0</ele><time>2026-04-23T03:54:52.001Z</time></trkpt><trkpt lat="-20.94669594622248" lon="117.62891532200742"><ele>34.0</ele><time>2026-04-23T03:54:53Z</time></trkpt><trkpt lat="-20.946771765248982" lon="117.62916276310781"><ele>32.0</ele><time>2026-04-23T03:54:54Z</time></trkpt><trkpt lat="-20.94684944789839" lon="117.62941545882744"><ele>30.0</ele><time>2026-04-23T03:54:55Z</time></trkpt><trkpt lat="-20.946928018106288" lon="117.62967463512521"><ele>30.0</ele><time>2026-04-23T03:54:56Z</time></trkpt><trkpt lat="-20.947004562561048" lon="117.62993300103065"><ele>30.0</ele><time>2026-04-23T03:54:57Z</time></trkpt><trkpt lat="-20.947080224432945" lon="117.63019622193096"><ele>30.0</ele><time>2026-04-23T03:54:58Z</time></trkpt><trkpt lat="-20.94715729254839" lon="117.6304617857439"><ele>30.0</ele><time>2026-04-23T03:54:59Z</time></trkpt><trkpt lat="-20.947236255833594" lon="117.63073229721067"><ele>30.0</ele><time>2026-04-23T03:55:00Z</time></trkpt><trkpt lat="-20.947317621423974" lon="117.63100578257654"><ele>30.0</ele><time>2026-04-23T03:55:01Z</time></trkpt><trkpt lat="-20.947399683441482" lon="117.63128174448052"><ele>30.5</ele><time>2026-04-23T03:55:02Z</time></trkpt><trkpt lat="-20.947481083166945" lon="117.63155780131521"><ele>31.0</ele><time>2026-04-23T03:55:03Z</time></trkpt><trkpt lat="-20.947991616295514" lon="117.64910624267348"><ele>34.5</ele><time>2026-04-23T03:56:04Z</time></trkpt><trkpt lat="-20.947932624480085" lon="117.64941018098475"><ele>38.0</ele><time>2026-04-23T03:56:05.001Z</time></trkpt><trkpt lat="-20.94787485842153" lon="117.64971633663808"><ele>38.0</ele><time>2026-04-23T03:56:06.001Z</time></trkpt><trkpt lat="-20.94781810169488" lon="117.65001733462168"><ele>38.0</ele><time>2026-04-23T03:56:07.001Z</time></trkpt><trkpt lat="-20.947760573221473" lon="117.65032074092647"><ele>38.0</ele><time>2026-04-23T03:56:08.001Z</time></trkpt><trkpt lat="-20.94769951613679" lon="117.65063072264071"><ele>38.0</ele><time>2026-04-23T03:56:09.001Z</time></trkpt><trkpt lat="-20.94764152661843" lon="117.65091983615905"><ele>39.0</ele><time>2026-04-23T03:56:10.001Z</time></trkpt><trkpt lat="-20.947586687034914" lon="117.651197959628"><ele>40.0</ele><time>2026-04-23T03:56:11.001Z</time></trkpt><trkpt lat="-20.947534742003747" lon="117.65148058619972"><ele>40.0</ele><time>2026-04-23T03:56:12.001Z</time></trkpt><trkpt lat="-20.947480598425233" lon="117.65176993485167"><ele>40.0</ele><time>2026-04-23T03:56:13.001Z</time></trkpt><trkpt lat="-20.947424662714763" lon="117.65205945267115"><ele>40.0</ele><time>2026-04-23T03:56:14.001Z</time></trkpt><trkpt lat="-20.947363306061657" lon="117.65235414561742"><ele>40.0</ele><time>2026-04-23T03:56:15.001Z</time></trkpt><trkpt lat="-20.947304585110196" lon="117.65264731562142"><ele>39.5</ele><time>2026-04-23T03:56:16.001Z</time></trkpt><trkpt lat="-20.947246887748786" lon="117.65294544902498"><ele>39.0</ele><time>2026-04-23T03:56:17.001Z</time></trkpt><trkpt lat="-20.94719377511235" lon="117.65324439973269"><ele>39.0</ele><time>2026-04-23T03:56:18.001Z</time></trkpt><trkpt lat="-20.947140359273728" lon="117.65354410770381"><ele>39.0</ele><time>2026-04-23T03:56:19.001Z</time></trkpt><trkpt lat="-20.947082895185847" lon="117.65384307389058"><ele>39.5</ele><time>2026-04-23T03:56:20.001Z</time></trkpt><trkpt lat="-20.947026292302777" lon="117.65414419980884"><ele>40.0</ele><time>2026-04-23T03:56:21.001Z</time></trkpt><trkpt lat="-20.946967854084896" lon="117.65444363083307"><ele>40.0</ele><time>2026-04-23T03:56:22.001Z</time></trkpt><trkpt lat="-20.94691039610701" lon="117.6547370442515"><ele>40.0</ele><time>2026-04-23T03:56:23.001Z</time></trkpt><trkpt lat="-20.946852574572237" lon="117.65502726885838"><ele>40.0</ele><time>2026-04-23T03:56:24.001Z</time></trkpt><trkpt lat="-20.946795315730146" lon="117.65531466067083"><ele>40.0</ele><time>2026-04-23T03:56:25.001Z</time></trkpt><trkpt lat="-20.94673710933626" lon="117.65560237283984"><ele>41.0</ele><time>2026-04-23T03:56:26.001Z</time></trkpt><trkpt lat="-20.946679709780916" lon="117.65589229753338"><ele>42.0</ele><time>2026-04-23T03:56:27.001Z</time></trkpt><trkpt lat="-20.946622340951816" lon="117.65618742520994"><ele>43.0</ele><time>2026-04-23T03:56:28.001Z</time></trkpt><trkpt lat="-20.946567013447734" lon="117.65648103459384"><ele>44.0</ele><time>2026-04-23T03:56:29.001Z</time></trkpt><trkpt lat="-20.946510117071394" lon="117.65677432386323"><ele>43.5</ele><time>2026-04-23T03:56:30.001Z</time></trkpt><trkpt lat="-20.946455384248182" lon="117.65706643758179"><ele>43.0</ele><time>2026-04-23T03:56:31.001Z</time></trkpt><trkpt lat="-20.946398579247937" lon="117.65735942580892"><ele>43.0</ele><time>2026-04-23T03:56:32.001Z</time></trkpt><trkpt lat="-20.946343422060945" lon="117.65765032842609"><ele>43.0</ele><time>2026-04-23T03:56:33.001Z</time></trkpt><trkpt lat="-20.9462891446907" lon="117.65794313289865"><ele>45.0</ele><time>2026-04-23T03:56:34.001Z</time></trkpt><trkpt lat="-20.946234330839015" lon="117.65823607395737"><ele>47.0</ele><time>2026-04-23T03:56:35.001Z</time></trkpt><trkpt lat="-20.946176485152556" lon="117.65852702396363"><ele>46.5</ele><time>2026-04-23T03:56:36.001Z</time></trkpt><trkpt lat="-20.94611757409547" lon="117.65881409923313"><ele>46.0</ele><time>2026-04-23T03:56:37.001Z</time></trkpt><trkpt lat="-20.94606119701743" lon="117.65909752093779"><ele>46.0</ele><time>2026-04-23T03:56:38.001Z</time></trkpt><trkpt lat="-20.946006511517425" lon="117.65937803897998"><ele>46.0</ele><time>2026-04-23T03:56:39.001Z</time></trkpt><trkpt lat="-20.945951369906382" lon="117.65965800700143"><ele>45.5</ele><time>2026-04-23T03:56:40.001Z</time></trkpt><trkpt lat="-20.94590235698526" lon="117.65993535648039"><ele>45.0</ele><time>2026-04-23T03:56:41.001Z</time></trkpt><trkpt lat="-20.945850488924897" lon="117.66021780398445"><ele>45.0</ele><time>2026-04-23T03:56:42.001Z</time></trkpt><trkpt lat="-20.945793029543864" lon="117.66050131918628"><ele>45.0</ele><time>2026-04-23T03:56:43.001Z</time></trkpt><trkpt lat="-20.945737904064405" lon="117.66078248142831"><ele>45.0</ele><time>2026-04-23T03:56:44.001Z</time></trkpt><trkpt lat="-20.94568335832985" lon="117.66106616612971"><ele>45.0</ele><time>2026-04-23T03:56:45.001Z</time></trkpt><trkpt lat="-20.94562883294314" lon="117.66134838591553"><ele>45.0</ele><time>2026-04-23T03:56:46.001Z</time></trkpt><trkpt lat="-20.94557331465012" lon="117.66163439148362"><ele>45.0</ele><time>2026-04-23T03:56:47.001Z</time></trkpt><trkpt lat="-20.945518414308406" lon="117.6619186723898"><ele>45.5</ele><time>2026-04-23T03:56:48.001Z</time></trkpt><trkpt lat="-20.945461500424877" lon="117.66220852390907"><ele>46.0</ele><time>2026-04-23T03:56:49.001Z</time></trkpt><trkpt lat="-20.945406479372444" lon="117.66249773891457"><ele>45.5</ele><time>2026-04-23T03:56:50.001Z</time></trkpt><trkpt lat="-20.94534960483336" lon="117.66279152483685"><ele>45.0</ele><time>2026-04-23T03:56:51.001Z</time></trkpt><trkpt lat="-20.945292715536553" lon="117.66308937070755"><ele>45.0</ele><time>2026-04-23T03:56:52.001Z</time></trkpt><trkpt lat="-20.94523559796348" lon="117.66338455716146"><ele>45.0</ele><time>2026-04-23T03:56:53.001Z</time></trkpt><trkpt lat="-20.94517725068119" lon="117.6636811097866"><ele>45.5</ele><time>2026-04-23T03:56:54.001Z</time></trkpt><trkpt lat="-20.945117497009267" lon="117.66397678288048"><ele>46.0</ele><time>2026-04-23T03:56:55.001Z</time></trkpt><trkpt lat="-20.94505781607787" lon="117.6642720649812"><ele>45.5</ele><time>2026-04-23T03:56:56.001Z</time></trkpt><trkpt lat="-20.94499971354658" lon="117.66457156333813"><ele>45.0</ele><time>2026-04-23T03:56:57.001Z</time></trkpt><trkpt lat="-20.944946558884705" lon="117.66486844507602"><ele>45.0</ele><time>2026-04-23T03:56:58.001Z</time></trkpt><trkpt lat="-20.944892860577685" lon="117.66516538185729"><ele>45.0</ele><time>2026-04-23T03:56:59Z</time></trkpt><trkpt lat="-20.94483671269472" lon="117.66546391816574"><ele>45.0</ele><time>2026-04-23T03:57:00Z</time></trkpt><trkpt lat="-20.94477805677108" lon="117.6657618219405"><ele>45.0</ele><time>2026-04-23T03:57:01Z</time></trkpt><trkpt lat="-20.944711423874452" lon="117.66606205164034"><ele>45.5</ele><time>2026-04-23T03:57:02Z</time></trkpt><trkpt lat="-20.94463286590858" lon="117.66635975085346"><ele>46.0</ele><time>2026-04-23T03:57:03Z</time></trkpt><trkpt lat="-20.937352391900458" lon="117.68294774455386"><ele>46.0</ele><time>2026-04-23T03:58:04Z</time></trkpt><trkpt lat="-20.93725023856499" lon="117.6831794900086"><ele>46.0</ele><time>2026-04-23T03:58:05Z</time></trkpt><trkpt lat="-20.937137813259067" lon="117.68342115161546"><ele>46.5</ele><time>2026-04-23T03:58:06Z</time></trkpt><trkpt lat="-20.93702323135936" lon="117.68367047226918"><ele>47.0</ele><time>2026-04-23T03:58:07Z</time></trkpt><trkpt lat="-20.93691002753882" lon="117.68392395063492"><ele>47.0</ele><time>2026-04-23T03:58:08Z</time></trkpt><trkpt lat="-20.936794675198424" lon="117.68418382241465"><ele>47.0</ele><time>2026-04-23T03:58:09Z</time></trkpt><trkpt lat="-20.93668205538928" lon="117.68444543233375"><ele>48.0</ele><time>2026-04-23T03:58:10Z</time></trkpt><trkpt lat="-20.936565345947226" lon="117.68471417390201"><ele>49.0</ele><time>2026-04-23T03:58:11Z</time></trkpt><trkpt lat="-20.936444453420368" lon="117.68498357859197"><ele>49.0</ele><time>2026-04-23T03:58:12Z</time></trkpt><trkpt lat="-20.936319581809602" lon="117.68525775801417"><ele>49.0</ele><time>2026-04-23T03:58:13.001Z</time></trkpt><trkpt lat="-20.936195403870688" lon="117.68552822133152"><ele>48.5</ele><time>2026-04-23T03:58:14.001Z</time></trkpt><trkpt lat="-20.936072309867285" lon="117.68580087942908"><ele>48.0</ele><time>2026-04-23T03:58:15.001Z</time></trkpt><trkpt lat="-20.93595220915928" lon="117.6860726416565"><ele>48.0</ele><time>2026-04-23T03:58:16.001Z</time></trkpt><trkpt lat="-20.935836341934095" lon="117.68634544075229"><ele>48.0</ele><time>2026-04-23T03:58:17.001Z</time></trkpt><trkpt lat="-20.93572580004305" lon="117.68661790523379"><ele>48.0</ele><time>2026-04-23T03:58:18.001Z</time></trkpt><trkpt lat="-20.93561874027331" lon="117.6868927475505"><ele>48.0</ele><time>2026-04-23T03:58:19.001Z</time></trkpt><trkpt lat="-20.935511631747154" lon="117.68716450212034"><ele>48.5</ele><time>2026-04-23T03:58:20.001Z</time></trkpt><trkpt lat="-20.93540308359188" lon="117.68743395689457"><ele>49.0</ele><time>2026-04-23T03:58:21.001Z</time></trkpt><trkpt lat="-20.935295790672026" lon="117.68770245816224"><ele>48.0</ele><time>2026-04-23T03:58:22.001Z</time></trkpt><trkpt lat="-20.93518812184398" lon="117.68797463919843"><ele>47.0</ele><time>2026-04-23T03:58:23.001Z</time></trkpt><trkpt lat="-20.93507674294433" lon="117.68825055742687"><ele>47.0</ele><time>2026-04-23T03:58:24.001Z</time></trkpt><trkpt lat="-20.934963240684684" lon="117.68853009616144"><ele>47.0</ele><time>2026-04-23T03:58:25.001Z</time></trkpt><trkpt lat="-20.934848179709444" lon="117.68881542353628"><ele>47.0</ele><time>2026-04-23T03:58:26.001Z</time></trkpt><trkpt lat="-20.934734016241944" lon="117.68910497160658"><ele>47.0</ele><time>2026-04-23T03:58:27.001Z</time></trkpt><trkpt lat="-20.934620768757096" lon="117.68939379806888"><ele>46.5</ele><time>2026-04-23T03:58:28.001Z</time></trkpt><trkpt lat="-20.93450532429362" lon="117.6896839363343"><ele>46.0</ele><time>2026-04-23T03:58:29.001Z</time></trkpt><trkpt lat="-20.934388797654005" lon="117.6899750176872"><ele>46.0</ele><time>2026-04-23T03:58:30.001Z</time></trkpt><trkpt lat="-20.93427096240356" lon="117.69026371711888"><ele>46.0</ele><time>2026-04-23T03:58:31.001Z</time></trkpt><trkpt lat="-20.93415442438343" lon="117.69055348741915"><ele>46.0</ele><time>2026-04-23T03:58:32.001Z</time></trkpt><trkpt lat="-20.93403705337827" lon="117.69084482518315"><ele>46.0</ele><time>2026-04-23T03:58:33.001Z</time></trkpt><trkpt lat="-20.933921886726864" lon="117.69113427702548"><ele>47.0</ele><time>2026-04-23T03:58:34.001Z</time></trkpt><trkpt lat="-20.933805480382194" lon="117.69141995226023"><ele>48.0</ele><time>2026-04-23T03:58:35.001Z</time></trkpt><trkpt lat="-20.933691210897813" lon="117.69170588974062"><ele>49.0</ele><time>2026-04-23T03:58:36.001Z</time></trkpt><trkpt lat="-20.933576889150125" lon="117.69199373709623"><ele>50.0</ele><time>2026-04-23T03:58:37.001Z</time></trkpt><trkpt lat="-20.93346262624054" lon="117.6922810625166"><ele>49.0</ele><time>2026-04-23T03:58:38.001Z</time></trkpt><trkpt lat="-20.933347645520705" lon="117.69257105870024"><ele>48.0</ele><time>2026-04-23T03:58:39.001Z</time></trkpt><trkpt lat="-20.933233782856302" lon="117.69285912302833"><ele>48.0</ele><time>2026-04-23T03:58:40.001Z</time></trkpt><trkpt lat="-20.933119642048563" lon="117.6931473440007"><ele>48.0</ele><time>2026-04-23T03:58:41.001Z</time></trkpt><trkpt lat="-20.93300683522069" lon="117.69343416616658"><ele>48.0</ele><time>2026-04-23T03:58:42.001Z</time></trkpt><trkpt lat="-20.93289211104457" lon="117.69371837595024"><ele>48.0</ele><time>2026-04-23T03:58:43.001Z</time></trkpt><trkpt lat="-20.93277691320933" lon="117.69400171095876"><ele>48.0</ele><time>2026-04-23T03:58:44.001Z</time></trkpt><trkpt lat="-20.932663985827134" lon="117.694284557004"><ele>48.0</ele><time>2026-04-23T03:58:45.001Z</time></trkpt><trkpt lat="-20.93255237770307" lon="117.69456895977027"><ele>48.5</ele><time>2026-04-23T03:58:46.001Z</time></trkpt><trkpt lat="-20.932437046370097" lon="117.69485751428452"><ele>49.0</ele><time>2026-04-23T03:58:47.001Z</time></trkpt><trkpt lat="-20.932321763160814" lon="117.69514395817959"><ele>49.5</ele><time>2026-04-23T03:58:48.001Z</time></trkpt><trkpt lat="-20.932206577270243" lon="117.69542861655013"><ele>50.0</ele><time>2026-04-23T03:58:49.001Z</time></trkpt><trkpt lat="-20.932091343615483" lon="117.69571354606981"><ele>50.0</ele><time>2026-04-23T03:58:50.001Z</time></trkpt><trkpt lat="-20.93197587977592" lon="117.69599551346788"><ele>50.0</ele><time>2026-04-23T03:58:51.001Z</time></trkpt><trkpt lat="-20.93186132041706" lon="117.69627857191674"><ele>50.5</ele><time>2026-04-23T03:58:52.001Z</time></trkpt><trkpt lat="-20.931748969049483" lon="117.69655900210208"><ele>51.0</ele><time>2026-04-23T03:58:53.001Z</time></trkpt><trkpt lat="-20.931637871161122" lon="117.69684064068652"><ele>50.5</ele><time>2026-04-23T03:58:54.001Z</time></trkpt><trkpt lat="-20.931526811105787" lon="117.69712276807785"><ele>50.0</ele><time>2026-04-23T03:58:55.001Z</time></trkpt><trkpt lat="-20.931412924128477" lon="117.69740808041588"><ele>50.0</ele><time>2026-04-23T03:58:56.001Z</time></trkpt><trkpt lat="-20.931300185215278" lon="117.69769001239753"><ele>50.0</ele><time>2026-04-23T03:58:57.001Z</time></trkpt><trkpt lat="-20.931186758795377" lon="117.69797700110189"><ele>51.0</ele><time>2026-04-23T03:58:58.001Z</time></trkpt><trkpt lat="-20.931074559600823" lon="117.69826579815451"><ele>52.0</ele><time>2026-04-23T03:58:59.001Z</time></trkpt><trkpt lat="-20.930961749141975" lon="117.6985573320138"><ele>53.0</ele><time>2026-04-23T03:59:00.001Z</time></trkpt><trkpt lat="-20.93084813034647" lon="117.69884268873228"><ele>54.0</ele><time>2026-04-23T03:59:01.001Z</time></trkpt><trkpt lat="-20.93073367515905" lon="117.6991261019785"><ele>54.0</ele><time>2026-04-23T03:59:02.001Z</time></trkpt><trkpt lat="-20.930619816250875" lon="117.69941133702396"><ele>54.0</ele><time>2026-04-23T03:59:03.001Z</time></trkpt><trkpt lat="-20.923266350159736" lon="117.71662447597262"><ele>53.0</ele><time>2026-04-23T04:00:04Z</time></trkpt><trkpt lat="-20.923101168924163" lon="117.71688339744445"><ele>52.0</ele><time>2026-04-23T04:00:05Z</time></trkpt><trkpt lat="-20.92293599840837" lon="117.71714372332205"><ele>52.0</ele><time>2026-04-23T04:00:06Z</time></trkpt><trkpt lat="-20.92276961161718" lon="117.7174009943772"><ele>52.0</ele><time>2026-04-23T04:00:07Z</time></trkpt><trkpt lat="-20.922599485103532" lon="117.71766153678516"><ele>52.0</ele><time>2026-04-23T04:00:08Z</time></trkpt><trkpt lat="-20.92242576617425" lon="117.71792604501668"><ele>52.0</ele><time>2026-04-23T04:00:09Z</time></trkpt><trkpt lat="-20.922255305156327" lon="117.71818651370994"><ele>52.0</ele><time>2026-04-23T04:00:10Z</time></trkpt><trkpt lat="-20.922087177465762" lon="117.7184459171043"><ele>52.0</ele><time>2026-04-23T04:00:11Z</time></trkpt><trkpt lat="-20.921923791084556" lon="117.71870287864623"><ele>52.5</ele><time>2026-04-23T04:00:12Z</time></trkpt><trkpt lat="-20.921767481064226" lon="117.71895414511651"><ele>53.0</ele><time>2026-04-23T04:00:13Z</time></trkpt><trkpt lat="-20.921609405705127" lon="117.71920527100386"><ele>53.0</ele><time>2026-04-23T04:00:14Z</time></trkpt><trkpt lat="-20.92144897883228" lon="117.71945325061351"><ele>53.0</ele><time>2026-04-23T04:00:15.001Z</time></trkpt><trkpt lat="-20.921287183232074" lon="117.71969997836341"><ele>53.0</ele><time>2026-04-23T04:00:16.001Z</time></trkpt><trkpt lat="-20.92112589251582" lon="117.71994515528561"><ele>53.0</ele><time>2026-04-23T04:00:17.001Z</time></trkpt><trkpt lat="-20.920966292794574" lon="117.72018908389073"><ele>52.5</ele><time>2026-04-23T04:00:18.001Z</time></trkpt><trkpt lat="-20.920809921496243" lon="117.72043392730833"><ele>52.0</ele><time>2026-04-23T04:00:19.001Z</time></trkpt><trkpt lat="-20.92065482339804" lon="117.72067804250057"><ele>52.0</ele><time>2026-04-23T04:00:20.001Z</time></trkpt><trkpt lat="-20.92049962346902" lon="117.72092373785505"><ele>52.0</ele><time>2026-04-23T04:00:21.001Z</time></trkpt><trkpt lat="-20.920340606664045" lon="117.72116929349782"><ele>52.0</ele><time>2026-04-23T04:00:22.001Z</time></trkpt><trkpt lat="-20.920180725065677" lon="117.72141575569707"><ele>52.0</ele><time>2026-04-23T04:00:23.001Z</time></trkpt><trkpt lat="-20.920020657977293" lon="117.72166424299847"><ele>51.5</ele><time>2026-04-23T04:00:24.001Z</time></trkpt><trkpt lat="-20.91986255083878" lon="117.7219139061818"><ele>51.0</ele><time>2026-04-23T04:00:25.001Z</time></trkpt><trkpt lat="-20.91970293520795" lon="117.7221604476519"><ele>51.0</ele><time>2026-04-23T04:00:26.001Z</time></trkpt><trkpt lat="-20.91954097769584" lon="117.72240741032344"><ele>51.0</ele><time>2026-04-23T04:00:27.001Z</time></trkpt><trkpt lat="-20.919380814539938" lon="117.72265345563791"><ele>50.5</ele><time>2026-04-23T04:00:28.001Z</time></trkpt><trkpt lat="-20.919221761128778" lon="117.72290018516817"><ele>50.0</ele><time>2026-04-23T04:00:29.001Z</time></trkpt><trkpt lat="-20.919063481718467" lon="117.72314666896906"><ele>50.0</ele><time>2026-04-23T04:00:30.001Z</time></trkpt><trkpt lat="-20.918909046827583" lon="117.72338952908777"><ele>50.0</ele><time>2026-04-23T04:00:31.001Z</time></trkpt><trkpt lat="-20.918755919870854" lon="117.72363284404577"><ele>50.0</ele><time>2026-04-23T04:00:32.001Z</time></trkpt><trkpt lat="-20.918603675347125" lon="117.72387393642568"><ele>50.0</ele><time>2026-04-23T04:00:33.001Z</time></trkpt><trkpt lat="-20.918448519923146" lon="117.72411295814062"><ele>49.5</ele><time>2026-04-23T04:00:34.001Z</time></trkpt><trkpt lat="-20.918291935929666" lon="117.72434974891458"><ele>49.0</ele><time>2026-04-23T04:00:35.001Z</time></trkpt><trkpt lat="-20.91813441614883" lon="117.72458838845621"><ele>51.5</ele><time>2026-04-23T04:00:36.001Z</time></trkpt><trkpt lat="-20.917981579748762" lon="117.72482218712568"><ele>54.0</ele><time>2026-04-23T04:00:37.001Z</time></trkpt><trkpt lat="-20.917828421864062" lon="117.72506093819658"><ele>53.5</ele><time>2026-04-23T04:00:38.001Z</time></trkpt><trkpt lat="-20.91767592213618" lon="117.72530155762828"><ele>53.0</ele><time>2026-04-23T04:00:39.001Z</time></trkpt><trkpt lat="-20.917522519652323" lon="117.72554322728054"><ele>52.5</ele><time>2026-04-23T04:00:40.001Z</time></trkpt><trkpt lat="-20.91737256307249" lon="117.7257799813128"><ele>52.0</ele><time>2026-04-23T04:00:41.001Z</time></trkpt><trkpt lat="-20.91722301673075" lon="117.72601519926083"><ele>53.0</ele><time>2026-04-23T04:00:42.001Z</time></trkpt><trkpt lat="-20.917072109538505" lon="117.72624620746849"><ele>54.0</ele><time>2026-04-23T04:00:43.001Z</time></trkpt><trkpt lat="-20.916924865378412" lon="117.72647310985535"><ele>54.0</ele><time>2026-04-23T04:00:44.001Z</time></trkpt><trkpt lat="-20.91677467162622" lon="117.72669767604661"><ele>54.0</ele><time>2026-04-23T04:00:45.001Z</time></trkpt><trkpt lat="-20.916624943477988" lon="117.72692350402359"><ele>53.5</ele><time>2026-04-23T04:00:46.001Z</time></trkpt><trkpt lat="-20.91647965738315" lon="117.72715009653544"><ele>53.0</ele><time>2026-04-23T04:00:47.001Z</time></trkpt><trkpt lat="-20.91633656901566" lon="117.72737426257419"><ele>53.0</ele><time>2026-04-23T04:00:48.001Z</time></trkpt><trkpt lat="-20.91619260021977" lon="117.7275991253776"><ele>53.0</ele><time>2026-04-23T04:00:49.001Z</time></trkpt><trkpt lat="-20.916048729083897" lon="117.72782615932354"><ele>51.5</ele><time>2026-04-23T04:00:50.001Z</time></trkpt><trkpt lat="-20.915902743192426" lon="117.72805522086362"><ele>50.0</ele><time>2026-04-23T04:00:51.001Z</time></trkpt><trkpt lat="-20.915751088724228" lon="117.72828687168393"><ele>50.0</ele><time>2026-04-23T04:00:52.001Z</time></trkpt><trkpt lat="-20.915598028823737" lon="117.72851637418837"><ele>50.0</ele><time>2026-04-23T04:00:53.001Z</time></trkpt><trkpt lat="-20.915442698338385" lon="117.72875240690534"><ele>52.0</ele><time>2026-04-23T04:00:54.001Z</time></trkpt><trkpt lat="-20.915288655600627" lon="117.7289882655858"><ele>54.0</ele><time>2026-04-23T04:00:55.001Z</time></trkpt><trkpt lat="-20.915132454035543" lon="117.72922667568919"><ele>53.0</ele><time>2026-04-23T04:00:56.001Z</time></trkpt><trkpt lat="-20.9149740787544" lon="117.72946452260284"><ele>52.0</ele><time>2026-04-23T04:00:57.001Z</time></trkpt><trkpt lat="-20.91481735114534" lon="117.72968901273735"><ele>52.0</ele><time>2026-04-23T04:00:58.001Z</time></trkpt><trkpt lat="-20.914661613312955" lon="117.7299029507469"><ele>52.0</ele><time>2026-04-23T04:00:59.001Z</time></trkpt><trkpt lat="-20.91449357807751" lon="117.73011875847905"><ele>52.5</ele><time>2026-04-23T04:01:00.001Z</time></trkpt><trkpt lat="-20.914317944739597" lon="117.73033398306268"><ele>53.0</ele><time>2026-04-23T04:01:01.001Z</time></trkpt><trkpt lat="-20.914133896009613" lon="117.73054524256918"><ele>53.0</ele><time>2026-04-23T04:01:02.001Z</time></trkpt><trkpt lat="-20.91394601850269" lon="117.73074999984142"><ele>53.0</ele><time>2026-04-23T04:01:03.001Z</time></trkpt><trkpt lat="-20.899636458117126" lon="117.74098928279395"><ele>52.5</ele><time>2026-04-23T04:02:04Z</time></trkpt><trkpt lat="-20.899398864831955" lon="117.74115255512412"><ele>52.0</ele><time>2026-04-23T04:02:05Z</time></trkpt><trkpt lat="-20.899161485097263" lon="117.74131856977331"><ele>52.0</ele><time>2026-04-23T04:02:06Z</time></trkpt><trkpt lat="-20.89892455585715" lon="117.74148719247097"><ele>52.0</ele><time>2026-04-23T04:02:07Z</time></trkpt><trkpt lat="-20.898687156225037" lon="117.7416585407109"><ele>52.0</ele><time>2026-04-23T04:02:08Z</time></trkpt><trkpt lat="-20.898447238393956" lon="117.74182810538092"><ele>52.0</ele><time>2026-04-23T04:02:09Z</time></trkpt><trkpt lat="-20.89820883374343" lon="117.74199410061794"><ele>52.0</ele><time>2026-04-23T04:02:10Z</time></trkpt><trkpt lat="-20.89796681406742" lon="117.74215932395659"><ele>52.0</ele><time>2026-04-23T04:02:11Z</time></trkpt><trkpt lat="-20.89772543792751" lon="117.74232393631212"><ele>51.5</ele><time>2026-04-23T04:02:12Z</time></trkpt><trkpt lat="-20.897482715765328" lon="117.74248922970165"><ele>51.0</ele><time>2026-04-23T04:02:13Z</time></trkpt><trkpt lat="-20.897236348572026" lon="117.7426582646964"><ele>51.5</ele><time>2026-04-23T04:02:14Z</time></trkpt><trkpt lat="-20.896992922589465" lon="117.7428292106338"><ele>52.0</ele><time>2026-04-23T04:02:15Z</time></trkpt><trkpt lat="-20.89674932165336" lon="117.74300367406467"><ele>52.5</ele><time>2026-04-23T04:02:16Z</time></trkpt><trkpt lat="-20.896508901213345" lon="117.74317759376798"><ele>53.0</ele><time>2026-04-23T04:02:17Z</time></trkpt><trkpt lat="-20.89627336149894" lon="117.74336293022763"><ele>52.5</ele><time>2026-04-23T04:02:18Z</time></trkpt><trkpt lat="-20.896043939986722" lon="117.74355590364468"><ele>52.0</ele><time>2026-04-23T04:02:19Z</time></trkpt><trkpt lat="-20.89581907806101" lon="117.74375696996188"><ele>52.0</ele><time>2026-04-23T04:02:20.001Z</time></trkpt><trkpt lat="-20.895597930411096" lon="117.74396154359457"><ele>52.0</ele><time>2026-04-23T04:02:21.001Z</time></trkpt><trkpt lat="-20.89537638396076" lon="117.74417143443681"><ele>52.0</ele><time>2026-04-23T04:02:22.001Z</time></trkpt><trkpt lat="-20.895158777072044" lon="117.74438216384104"><ele>52.0</ele><time>2026-04-23T04:02:23.001Z</time></trkpt><trkpt lat="-20.894942883018924" lon="117.74459770799014"><ele>51.5</ele><time>2026-04-23T04:02:24.001Z</time></trkpt><trkpt lat="-20.89472468915735" lon="117.74481294047045"><ele>51.0</ele><time>2026-04-23T04:02:25.001Z</time></trkpt><trkpt lat="-20.894513330493012" lon="117.745017966495"><ele>51.0</ele><time>2026-04-23T04:02:26.001Z</time></trkpt><trkpt lat="-20.894311694353682" lon="117.7452122523802"><ele>51.0</ele><time>2026-04-23T04:02:27.001Z</time></trkpt><trkpt lat="-20.89411153983187" lon="117.74540365060754"><ele>49.5</ele><time>2026-04-23T04:02:28.001Z</time></trkpt><trkpt lat="-20.893905230049427" lon="117.74559952328488"><ele>48.0</ele><time>2026-04-23T04:02:29.001Z</time></trkpt><trkpt lat="-20.893696760923756" lon="117.74579998089422"><ele>48.0</ele><time>2026-04-23T04:02:30.001Z</time></trkpt><trkpt lat="-20.89348847755041" lon="117.74600345270356"><ele>48.0</ele><time>2026-04-23T04:02:31.001Z</time></trkpt><trkpt lat="-20.893277435100906" lon="117.74620755981339"><ele>48.5</ele><time>2026-04-23T04:02:32.001Z</time></trkpt><trkpt lat="-20.893065187998" lon="117.74641315726134"><ele>49.0</ele><time>2026-04-23T04:02:33.001Z</time></trkpt><trkpt lat="-20.892853057066752" lon="117.74662269461002"><ele>49.0</ele><time>2026-04-23T04:02:34.001Z</time></trkpt><trkpt lat="-20.892635559341425" lon="117.74683237772669"><ele>49.0</ele><time>2026-04-23T04:02:35.001Z</time></trkpt><trkpt lat="-20.892417621146677" lon="117.74704217872151"><ele>51.0</ele><time>2026-04-23T04:02:36.001Z</time></trkpt><trkpt lat="-20.892197757529086" lon="117.74725717245502"><ele>53.0</ele><time>2026-04-23T04:02:37.001Z</time></trkpt><trkpt lat="-20.891977637797247" lon="117.74746963625246"><ele>51.5</ele><time>2026-04-23T04:02:38.001Z</time></trkpt><trkpt lat="-20.89175360761815" lon="117.74768426718676"><ele>50.0</ele><time>2026-04-23T04:02:39.001Z</time></trkpt><trkpt lat="-20.891532083040296" lon="117.74789697492082"><ele>49.5</ele><time>2026-04-23T04:02:40.001Z</time></trkpt><trkpt lat="-20.89131203977945" lon="117.74810991826945"><ele>49.0</ele><time>2026-04-23T04:02:41.001Z</time></trkpt><trkpt lat="-20.891093699953966" lon="117.74832415126362"><ele>49.0</ele><time>2026-04-23T04:02:42.001Z</time></trkpt><trkpt lat="-20.890874882958418" lon="117.74853695470739"><ele>49.0</ele><time>2026-04-23T04:02:43.001Z</time></trkpt><trkpt lat="-20.890658754413145" lon="117.7487480817987"><ele>49.0</ele><time>2026-04-23T04:02:44.001Z</time></trkpt><trkpt lat="-20.890445666274402" lon="117.74895918053588"><ele>49.0</ele><time>2026-04-23T04:02:45.001Z</time></trkpt><trkpt lat="-20.890235994519344" lon="117.74916765421081"><ele>48.5</ele><time>2026-04-23T04:02:46.001Z</time></trkpt><trkpt lat="-20.89002654129823" lon="117.74937516685083"><ele>48.0</ele><time>2026-04-23T04:02:47.001Z</time></trkpt><trkpt lat="-20.889818172155596" lon="117.74957966324583"><ele>49.0</ele><time>2026-04-23T04:02:48.001Z</time></trkpt><trkpt lat="-20.889606440353067" lon="117.7497845079233"><ele>50.0</ele><time>2026-04-23T04:02:49.001Z</time></trkpt><trkpt lat="-20.889395143406087" lon="117.74998835416976"><ele>49.0</ele><time>2026-04-23T04:02:50.001Z</time></trkpt><trkpt lat="-20.889180796498586" lon="117.75019367221357"><ele>48.0</ele><time>2026-04-23T04:02:51.001Z</time></trkpt><trkpt lat="-20.888967143125154" lon="117.75039847489188"><ele>48.0</ele><time>2026-04-23T04:02:52.001Z</time></trkpt><trkpt lat="-20.888751095019067" lon="117.75060649260513"><ele>48.0</ele><time>2026-04-23T04:02:53.001Z</time></trkpt><trkpt lat="-20.888535983790742" lon="117.75081509141731"><ele>48.5</ele><time>2026-04-23T04:02:54.001Z</time></trkpt><trkpt lat="-20.88832223568322" lon="117.75102743263304"><ele>49.0</ele><time>2026-04-23T04:02:55.001Z</time></trkpt><trkpt lat="-20.88810808505501" lon="117.7512417532009"><ele>49.0</ele><time>2026-04-23T04:02:56.001Z</time></trkpt><trkpt lat="-20.88789175808364" lon="117.75145261365347"><ele>49.0</ele><time>2026-04-23T04:02:57.001Z</time></trkpt><trkpt lat="-20.887671286982098" lon="117.75165997749987"><ele>49.5</ele><time>2026-04-23T04:02:58.001Z</time></trkpt><trkpt lat="-20.88744624088941" lon="117.75187189577376"><ele>50.0</ele><time>2026-04-23T04:02:59.001Z</time></trkpt><trkpt lat="-20.887224798027688" lon="117.75208284109205"><ele>48.5</ele><time>2026-04-23T04:03:00.001Z</time></trkpt><trkpt lat="-20.887002781893177" lon="117.75229811746634"><ele>47.0</ele><time>2026-04-23T04:03:01.001Z</time></trkpt><trkpt lat="-20.886780109307498" lon="117.7525143209016"><ele>48.5</ele><time>2026-04-23T04:03:02.001Z</time></trkpt><trkpt lat="-20.88656071485326" lon="117.75272973750577"><ele>50.0</ele><time>2026-04-23T04:03:03.001Z</time></trkpt><trkpt lat="-20.87359639658692" lon="117.76532103951864"><ele>49.5</ele><time>2026-04-23T04:04:04Z</time></trkpt><trkpt lat="-20.873384893524634" lon="117.76552146932102"><ele>49.0</ele><time>2026-04-23T04:04:05Z</time></trkpt><trkpt lat="-20.87317363211989" lon="117.76572354875468"><ele>49.0</ele><time>2026-04-23T04:04:06Z</time></trkpt><trkpt lat="-20.872961655307744" lon="117.76592631349989"><ele>49.0</ele><time>2026-04-23T04:04:07Z</time></trkpt><trkpt lat="-20.872754247795385" lon="117.76612537017117"><ele>48.5</ele><time>2026-04-23T04:04:08Z</time></trkpt><trkpt lat="-20.872552428287285" lon="117.76632270626096"><ele>48.0</ele><time>2026-04-23T04:04:09Z</time></trkpt><trkpt lat="-20.87234910087246" lon="117.7665209924241"><ele>48.0</ele><time>2026-04-23T04:04:10Z</time></trkpt><trkpt lat="-20.872145829826565" lon="117.7667207421399"><ele>48.0</ele><time>2026-04-23T04:04:11Z</time></trkpt><trkpt lat="-20.871941047890125" lon="117.76691851965704"><ele>49.0</ele><time>2026-04-23T04:04:12Z</time></trkpt><trkpt lat="-20.87173928337512" lon="117.76711573170881"><ele>50.0</ele><time>2026-04-23T04:04:13Z</time></trkpt><trkpt lat="-20.871538295349755" lon="117.76730904798096"><ele>50.0</ele><time>2026-04-23T04:04:14Z</time></trkpt><trkpt lat="-20.871337669716752" lon="117.76750291147039"><ele>50.0</ele><time>2026-04-23T04:04:15Z</time></trkpt><trkpt lat="-20.871137236459184" lon="117.76769609137028"><ele>50.0</ele><time>2026-04-23T04:04:16Z</time></trkpt><trkpt lat="-20.870939796143" lon="117.76788956580666"><ele>50.0</ele><time>2026-04-23T04:04:17Z</time></trkpt><trkpt lat="-20.870740033801027" lon="117.7680810283051"><ele>50.0</ele><time>2026-04-23T04:04:18Z</time></trkpt><trkpt lat="-20.87054024618215" lon="117.76827363960611"><ele>50.0</ele><time>2026-04-23T04:04:19Z</time></trkpt><trkpt lat="-20.87034432771669" lon="117.76846159107191"><ele>50.5</ele><time>2026-04-23T04:04:20Z</time></trkpt><trkpt lat="-20.870146124426807" lon="117.76865481033707"><ele>51.0</ele><time>2026-04-23T04:04:21Z</time></trkpt><trkpt lat="-20.869949232641428" lon="117.76885412013904"><ele>51.0</ele><time>2026-04-23T04:04:22.001Z</time></trkpt><trkpt lat="-20.869758303418145" lon="117.76905542765566"><ele>51.0</ele><time>2026-04-23T04:04:23.001Z</time></trkpt><trkpt lat="-20.86956183970167" lon="117.76925220914951"><ele>51.0</ele><time>2026-04-23T04:04:24.001Z</time></trkpt><trkpt lat="-20.869356172643226" lon="117.76944199439801"><ele>51.0</ele><time>2026-04-23T04:04:25.001Z</time></trkpt><trkpt lat="-20.86915829074876" lon="117.76962428761307"><ele>49.5</ele><time>2026-04-23T04:04:26.001Z</time></trkpt><trkpt lat="-20.868972593268655" lon="117.76979684623016"><ele>48.0</ele><time>2026-04-23T04:04:27.001Z</time></trkpt><trkpt lat="-20.86879433846376" lon="117.76996157182083"><ele>48.0</ele><time>2026-04-23T04:04:28.001Z</time></trkpt><trkpt lat="-20.868626369205394" lon="117.77012052604742"><ele>48.0</ele><time>2026-04-23T04:04:29.001Z</time></trkpt><trkpt lat="-20.86848030811475" lon="117.77026183808594"><ele>48.0</ele><time>2026-04-23T04:04:30.001Z</time></trkpt><trkpt lat="-20.868342561447342" lon="117.77039536183436"><ele>48.0</ele><time>2026-04-23T04:04:31.001Z</time></trkpt><trkpt lat="-20.868217750376083" lon="117.77051677407246"><ele>48.0</ele><time>2026-04-23T04:04:32.001Z</time></trkpt><trkpt lat="-20.868098753254138" lon="117.77062438634994"><ele>48.0</ele><time>2026-04-23T04:04:33.001Z</time></trkpt><trkpt lat="-20.867998052868895" lon="117.77071262088816"><ele>48.0</ele><time>2026-04-23T04:04:34.001Z</time></trkpt><trkpt lat="-20.867916451407382" lon="117.77078731550506"><ele>48.0</ele><time>2026-04-23T04:04:35.001Z</time></trkpt><trkpt lat="-20.867857186456636" lon="117.77085041082907"><ele>48.0</ele><time>2026-04-23T04:04:36.001Z</time></trkpt><trkpt lat="-20.867781549052033" lon="117.77092811120487"><ele>48.0</ele><time>2026-04-23T04:04:38.001Z</time></trkpt><trkpt lat="-20.867719149610387" lon="117.77098398023769"><ele>48.0</ele><time>2026-04-23T04:04:41.001Z</time></trkpt><trkpt lat="-20.867660645715436" lon="117.77104511700904"><ele>48.0</ele><time>2026-04-23T04:04:44.001Z</time></trkpt><trkpt lat="-20.867754624749935" lon="117.77099070838455"><ele>48.0</ele><time>2026-04-23T04:04:56.001Z</time></trkpt><trkpt lat="-20.867821882862646" lon="117.77092338381813"><ele>48.0</ele><time>2026-04-23T04:04:57.001Z</time></trkpt><trkpt lat="-20.867881328295926" lon="117.77086340450836"><ele>48.0</ele><time>2026-04-23T04:04:58.001Z</time></trkpt><trkpt lat="-20.86795731244074" lon="117.77079191303974"><ele>48.0</ele><time>2026-04-23T04:04:59.001Z</time></trkpt><trkpt lat="-20.868035461759284" lon="117.77071552997849"><ele>48.0</ele><time>2026-04-23T04:05:00.001Z</time></trkpt><trkpt lat="-20.868111513160816" lon="117.77064132298105"><ele>48.0</ele><time>2026-04-23T04:05:01.001Z</time></trkpt><trkpt lat="-20.868182366880287" lon="117.77057218763491"><ele>48.0</ele><time>2026-04-23T04:05:02.001Z</time></trkpt><trkpt lat="-20.868245170077763" lon="117.77051090744318"><ele>48.0</ele><time>2026-04-23T04:05:03.001Z</time></trkpt><trkpt lat="-20.868437694660095" lon="117.76968886266795"><ele>48.0</ele><time>2026-04-23T04:06:04Z</time></trkpt><trkpt lat="-20.86847625476685" lon="117.76979261065988"><ele>48.0</ele><time>2026-04-23T04:06:06Z</time></trkpt><trkpt lat="-20.868500986273258" lon="117.76988905722855"><ele>48.0</ele><time>2026-04-23T04:06:08Z</time></trkpt><trkpt lat="-20.86852348398672" lon="117.76997723781554"><ele>48.0</ele><time>2026-04-23T04:06:10Z</time></trkpt><trkpt lat="-20.86853154078124" lon="117.7700793905681"><ele>48.0</ele><time>2026-04-23T04:06:12Z</time></trkpt><trkpt lat="-20.868548195627927" lon="117.77015274001477"><ele>48.0</ele><time>2026-04-23T04:06:14Z</time></trkpt><trkpt lat="-20.86852254941885" lon="117.77026654686556"><ele>48.0</ele><time>2026-04-23T04:06:17Z</time></trkpt><trkpt lat="-20.86846471021499" lon="117.77032086653688"><ele>48.0</ele><time>2026-04-23T04:06:18Z</time></trkpt><trkpt lat="-20.868383587038224" lon="117.77037901648481"><ele>48.0</ele><time>2026-04-23T04:06:19Z</time></trkpt><trkpt lat="-20.8683018853209" lon="117.77044910821866"><ele>48.0</ele><time>2026-04-23T04:06:20Z</time></trkpt><trkpt lat="-20.868215131791857" lon="117.77053504554"><ele>48.0</ele><time>2026-04-23T04:06:21Z</time></trkpt><trkpt lat="-20.868115060926314" lon="117.770632199859"><ele>48.0</ele><time>2026-04-23T04:06:22Z</time></trkpt><trkpt lat="-20.868000740502975" lon="117.77074117106761"><ele>48.0</ele><time>2026-04-23T04:06:23Z</time></trkpt><trkpt lat="-20.86787484033972" lon="117.77086079917234"><ele>48.0</ele><time>2026-04-23T04:06:24Z</time></trkpt><trkpt lat="-20.867741034108924" lon="117.77098642427951"><ele>48.33333333333333</ele><time>2026-04-23T04:06:25Z</time></trkpt><trkpt lat="-20.867611858823086" lon="117.77111636099598"><ele>48.666666666666664</ele><time>2026-04-23T04:06:26Z</time></trkpt><trkpt lat="-20.867474278636656" lon="117.77124954676394"><ele>49.0</ele><time>2026-04-23T04:06:27Z</time></trkpt><trkpt lat="-20.867326534463842" lon="117.77139104151719"><ele>49.0</ele><time>2026-04-23T04:06:28Z</time></trkpt><trkpt lat="-20.867172516064194" lon="117.77153635118104"><ele>49.0</ele><time>2026-04-23T04:06:29Z</time></trkpt><trkpt lat="-20.867019841851175" lon="117.77168132963624"><ele>49.0</ele><time>2026-04-23T04:06:30Z</time></trkpt><trkpt lat="-20.866870963071317" lon="117.77182753345785"><ele>48.33333333333333</ele><time>2026-04-23T04:06:31Z</time></trkpt><trkpt lat="-20.866717122131156" lon="117.77197891797081"><ele>47.666666666666664</ele><time>2026-04-23T04:06:32.001Z</time></trkpt><trkpt lat="-20.866554159775653" lon="117.77213398968016"><ele>47.0</ele><time>2026-04-23T04:06:33.001Z</time></trkpt><trkpt lat="-20.866379201109975" lon="117.7722972936536"><ele>47.0</ele><time>2026-04-23T04:06:34.001Z</time></trkpt><trkpt lat="-20.866199886328594" lon="117.77245993354873"><ele>47.0</ele><time>2026-04-23T04:06:35.001Z</time></trkpt><trkpt lat="-20.866013100466226" lon="117.77262036385251"><ele>47.0</ele><time>2026-04-23T04:06:36.001Z</time></trkpt><trkpt lat="-20.86581724221867" lon="117.77278808211783"><ele>47.0</ele><time>2026-04-23T04:06:37.001Z</time></trkpt><trkpt lat="-20.865620501339734" lon="117.77295299622402"><ele>47.0</ele><time>2026-04-23T04:06:38.001Z</time></trkpt><trkpt lat="-20.865427511806125" lon="117.77311293841825"><ele>47.0</ele><time>2026-04-23T04:06:39.001Z</time></trkpt><trkpt lat="-20.86522793044557" lon="117.77327814168297"><ele>46.5</ele><time>2026-04-23T04:06:40.001Z</time></trkpt><trkpt lat="-20.86502477993546" lon="117.77344405300917"><ele>46.0</ele><time>2026-04-23T04:06:41.001Z</time></trkpt><trkpt lat="-20.864819959787013" lon="117.77360974682406"><ele>46.0</ele><time>2026-04-23T04:06:42.001Z</time></trkpt><trkpt lat="-20.864614120180637" lon="117.77377655104911"><ele>46.0</ele><time>2026-04-23T04:06:43.001Z</time></trkpt><trkpt lat="-20.86441097880356" lon="117.77394363863634"><ele>45.5</ele><time>2026-04-23T04:06:44.001Z</time></trkpt><trkpt lat="-20.8642039553032" lon="117.77411524628265"><ele>45.0</ele><time>2026-04-23T04:06:45.001Z</time></trkpt><trkpt lat="-20.86399543304719" lon="117.77428868887381"><ele>46.0</ele><time>2026-04-23T04:06:46.001Z</time></trkpt><trkpt lat="-20.86378479471966" lon="117.77446025173592"><ele>47.0</ele><time>2026-04-23T04:06:47.001Z</time></trkpt><trkpt lat="-20.863572089580497" lon="117.77463030694366"><ele>46.5</ele><time>2026-04-23T04:06:48.001Z</time></trkpt><trkpt lat="-20.86336172837362" lon="117.77479809257088"><ele>46.0</ele><time>2026-04-23T04:06:49.001Z</time></trkpt><trkpt lat="-20.863152915096833" lon="117.77496776319796"><ele>46.0</ele><time>2026-04-23T04:06:50.001Z</time></trkpt><trkpt lat="-20.862947356642593" lon="117.77513561423065"><ele>46.0</ele><time>2026-04-23T04:06:51.001Z</time></trkpt><trkpt lat="-20.86274493374023" lon="117.77530181575968"><ele>46.0</ele><time>2026-04-23T04:06:52.001Z</time></trkpt><trkpt lat="-20.862543717356882" lon="117.77546766767671"><ele>46.0</ele><time>2026-04-23T04:06:53.001Z</time></trkpt><trkpt lat="-20.862343297433522" lon="117.77563108402616"><ele>46.0</ele><time>2026-04-23T04:06:54.001Z</time></trkpt><trkpt lat="-20.862140468989693" lon="117.77579500748394"><ele>46.0</ele><time>2026-04-23T04:06:55.001Z</time></trkpt><trkpt lat="-20.861938541598626" lon="117.7759559095933"><ele>47.0</ele><time>2026-04-23T04:06:56.001Z</time></trkpt><trkpt lat="-20.861737137692852" lon="117.7761214651836"><ele>48.0</ele><time>2026-04-23T04:06:57.001Z</time></trkpt><trkpt lat="-20.86153439283582" lon="117.77629127928559"><ele>48.0</ele><time>2026-04-23T04:06:58.001Z</time></trkpt><trkpt lat="-20.861329486962443" lon="117.77645923727633"><ele>48.0</ele><time>2026-04-23T04:06:59.001Z</time></trkpt><trkpt lat="-20.861123837081923" lon="117.77662597091481"><ele>48.0</ele><time>2026-04-23T04:07:00.001Z</time></trkpt><trkpt lat="-20.8609169307929" lon="117.77679431321476"><ele>48.0</ele><time>2026-04-23T04:07:01.001Z</time></trkpt><trkpt lat="-20.860710764659572" lon="117.77696698521044"><ele>47.5</ele><time>2026-04-23T04:07:02.001Z</time></trkpt><trkpt lat="-20.860498697452257" lon="117.77713936731077"><ele>47.0</ele><time>2026-04-23T04:07:03.001Z</time></trkpt><trkpt lat="-20.85025663106156" lon="117.78561003466369"><ele>47.0</ele><time>2026-04-23T04:07:51Z</time></trkpt><trkpt lat="-20.85005963966527" lon="117.7858183595406"><ele>47.0</ele><time>2026-04-23T04:07:52Z</time></trkpt><trkpt lat="-20.849693160167867" lon="117.78624378806998"><ele>46.5</ele><time>2026-04-23T04:07:54Z</time></trkpt><trkpt lat="-20.849521498768528" lon="117.78646546074425"><ele>46.0</ele><time>2026-04-23T04:07:55Z</time></trkpt><trkpt lat="-20.848185286631406" lon="117.78861423270617"><ele>46.0</ele><time>2026-04-23T04:08:04Z</time></trkpt><trkpt lat="-20.848063723084262" lon="117.78888026851833"><ele>46.0</ele><time>2026-04-23T04:08:05Z</time></trkpt><trkpt lat="-20.84794646410268" lon="117.78914660985495"><ele>48.0</ele><time>2026-04-23T04:08:06Z</time></trkpt><trkpt lat="-20.847831060067243" lon="117.7894108901154"><ele>50.0</ele><time>2026-04-23T04:08:07Z</time></trkpt><trkpt lat="-20.84771915089192" lon="117.789668081675"><ele>49.5</ele><time>2026-04-23T04:08:08Z</time></trkpt><trkpt lat="-20.847618006317237" lon="117.78990617952837"><ele>49.0</ele><time>2026-04-23T04:08:09Z</time></trkpt><trkpt lat="-20.847517400591094" lon="117.79014657488793"><ele>49.5</ele><time>2026-04-23T04:08:10Z</time></trkpt><trkpt lat="-20.847414305527934" lon="117.79039103405165"><ele>50.0</ele><time>2026-04-23T04:08:11Z</time></trkpt><trkpt lat="-20.8473026842975" lon="117.79064649505811"><ele>50.0</ele><time>2026-04-23T04:08:12Z</time></trkpt><trkpt lat="-20.847188191589265" lon="117.79090637536237"><ele>50.0</ele><time>2026-04-23T04:08:13Z</time></trkpt><trkpt lat="-20.847074615362704" lon="117.79117202397602"><ele>48.5</ele><time>2026-04-23T04:08:14Z</time></trkpt><trkpt lat="-20.846961408796464" lon="117.79144270172077"><ele>47.0</ele><time>2026-04-23T04:08:15Z</time></trkpt><trkpt lat="-20.84684818592028" lon="117.79171255117194"><ele>47.0</ele><time>2026-04-23T04:08:16Z</time></trkpt><trkpt lat="-20.846730557551115" lon="117.79198290981205"><ele>47.0</ele><time>2026-04-23T04:08:17Z</time></trkpt><trkpt lat="-20.846610592429748" lon="117.79225182095884"><ele>47.0</ele><time>2026-04-23T04:08:18Z</time></trkpt><trkpt lat="-20.84648965719671" lon="117.79252024542006"><ele>47.0</ele><time>2026-04-23T04:08:19Z</time></trkpt><trkpt lat="-20.84637073209061" lon="117.79279186622834"><ele>47.5</ele><time>2026-04-23T04:08:20Z</time></trkpt><trkpt lat="-20.846253086618194" lon="117.793065311945"><ele>48.0</ele><time>2026-04-23T04:08:21Z</time></trkpt><trkpt lat="-20.846135322886177" lon="117.79333784110413"><ele>48.0</ele><time>2026-04-23T04:08:22Z</time></trkpt><trkpt lat="-20.846019527710386" lon="117.79361030134366"><ele>48.0</ele><time>2026-04-23T04:08:23Z</time></trkpt><trkpt lat="-20.845903920968677" lon="117.79387966194567"><ele>48.0</ele><time>2026-04-23T04:08:24Z</time></trkpt><trkpt lat="-20.845791691675462" lon="117.79414636529569"><ele>48.0</ele><time>2026-04-23T04:08:25Z</time></trkpt><trkpt lat="-20.845680975699192" lon="117.79441510256238"><ele>48.5</ele><time>2026-04-23T04:08:26Z</time></trkpt><trkpt lat="-20.845577137942318" lon="117.79468486628409"><ele>49.0</ele><time>2026-04-23T04:08:27Z</time></trkpt><trkpt lat="-20.845480614297422" lon="117.79495797194653"><ele>48.5</ele><time>2026-04-23T04:08:28Z</time></trkpt><trkpt lat="-20.84538746039335" lon="117.79523347361653"><ele>48.0</ele><time>2026-04-23T04:08:29Z</time></trkpt><trkpt lat="-20.845307110646086" lon="117.79551232114663"><ele>48.0</ele><time>2026-04-23T04:08:30Z</time></trkpt><trkpt lat="-20.845230899338176" lon="117.79579591886855"><ele>48.0</ele><time>2026-04-23T04:08:31Z</time></trkpt><trkpt lat="-20.845154800401506" lon="117.7960840884179"><ele>47.5</ele><time>2026-04-23T04:08:32Z</time></trkpt><trkpt lat="-20.845075766342774" lon="117.79637130225694"><ele>47.0</ele><time>2026-04-23T04:08:33Z</time></trkpt><trkpt lat="-20.844996599950967" lon="117.79666002830206"><ele>46.0</ele><time>2026-04-23T04:08:34Z</time></trkpt><trkpt lat="-20.84491728560088" lon="117.79694742289483"><ele>45.0</ele><time>2026-04-23T04:08:35Z</time></trkpt><trkpt lat="-20.844840055997828" lon="117.79723468672773"><ele>45.0</ele><time>2026-04-23T04:08:36Z</time></trkpt><trkpt lat="-20.84476191754798" lon="117.79751955599924"><ele>45.0</ele><time>2026-04-23T04:08:37Z</time></trkpt><trkpt lat="-20.84468418041031" lon="117.79780607791527"><ele>45.5</ele><time>2026-04-23T04:08:38Z</time></trkpt><trkpt lat="-20.844605929979625" lon="117.79809284302448"><ele>46.0</ele><time>2026-04-23T04:08:39Z</time></trkpt><trkpt lat="-20.844527400813767" lon="117.79838149138195"><ele>45.5</ele><time>2026-04-23T04:08:40Z</time></trkpt><trkpt lat="-20.844447888027087" lon="117.79866705738056"><ele>45.0</ele><time>2026-04-23T04:08:41Z</time></trkpt><trkpt lat="-20.844371721577637" lon="117.79895190457795"><ele>45.0</ele><time>2026-04-23T04:08:42Z</time></trkpt><trkpt lat="-20.84429356497969" lon="117.79924110798217"><ele>45.0</ele><time>2026-04-23T04:08:43Z</time></trkpt><trkpt lat="-20.84421201029587" lon="117.79953807947825"><ele>45.0</ele><time>2026-04-23T04:08:44Z</time></trkpt><trkpt lat="-20.844129771345962" lon="117.79983884164768"><ele>45.0</ele><time>2026-04-23T04:08:45Z</time></trkpt><trkpt lat="-20.844048234107483" lon="117.8001331266625"><ele>44.5</ele><time>2026-04-23T04:08:46Z</time></trkpt><trkpt lat="-20.84396929455581" lon="117.80042416756979"><ele>44.0</ele><time>2026-04-23T04:08:47Z</time></trkpt><trkpt lat="-20.843892014567086" lon="117.80071255407658"><ele>43.0</ele><time>2026-04-23T04:08:48Z</time></trkpt><trkpt lat="-20.843814303434993" lon="117.80100136123892"><ele>42.0</ele><time>2026-04-23T04:08:49Z</time></trkpt><trkpt lat="-20.843736410231376" lon="117.80128889534946"><ele>42.0</ele><time>2026-04-23T04:08:50Z</time></trkpt><trkpt lat="-20.843658774715355" lon="117.80157924804068"><ele>42.0</ele><time>2026-04-23T04:08:51Z</time></trkpt><trkpt lat="-20.8435817762226" lon="117.80186181641913"><ele>42.5</ele><time>2026-04-23T04:08:52Z</time></trkpt><trkpt lat="-20.84350396244415" lon="117.80214717144217"><ele>43.0</ele><time>2026-04-23T04:08:53Z</time></trkpt><trkpt lat="-20.84342478516923" lon="117.80242846779245"><ele>43.0</ele><time>2026-04-23T04:08:54Z</time></trkpt><trkpt lat="-20.843346670860548" lon="117.80270816290933"><ele>43.0</ele><time>2026-04-23T04:08:55Z</time></trkpt><trkpt lat="-20.84326773207958" lon="117.80298627585775"><ele>43.0</ele><time>2026-04-23T04:08:56Z</time></trkpt><trkpt lat="-20.84319160330694" lon="117.80326358376878"><ele>43.0</ele><time>2026-04-23T04:08:57Z</time></trkpt><trkpt lat="-20.843117667506245" lon="117.80353753176131"><ele>42.0</ele><time>2026-04-23T04:08:58Z</time></trkpt><trkpt lat="-20.843043954593824" lon="117.80380754533981"><ele>41.0</ele><time>2026-04-23T04:08:59Z</time></trkpt><trkpt lat="-20.842971469870168" lon="117.80407830698296"><ele>41.5</ele><time>2026-04-23T04:09:00Z</time></trkpt><trkpt lat="-20.842899254048596" lon="117.8043446688686"><ele>42.0</ele><time>2026-04-23T04:09:01Z</time></trkpt><trkpt lat="-20.842826446692893" lon="117.80460564038117"><ele>42.0</ele><time>2026-04-23T04:09:02Z</time></trkpt><trkpt lat="-20.842754257346645" lon="117.80487302917682"><ele>42.0</ele><time>2026-04-23T04:09:03Z</time></trkpt><trkpt lat="-20.84072424904936" lon="117.81966717723138"><ele>45.0</ele><time>2026-04-23T04:10:04Z</time></trkpt><trkpt lat="-20.840701653642444" lon="117.81995051554293"><ele>48.0</ele><time>2026-04-23T04:10:05Z</time></trkpt><trkpt lat="-20.840679315016217" lon="117.82023287728438"><ele>48.0</ele><time>2026-04-23T04:10:06Z</time></trkpt><trkpt lat="-20.840653617601784" lon="117.82051023912922"><ele>48.0</ele><time>2026-04-23T04:10:07Z</time></trkpt><trkpt lat="-20.840629907101068" lon="117.82078768232988"><ele>46.0</ele><time>2026-04-23T04:10:08Z</time></trkpt><trkpt lat="-20.84060596501197" lon="117.82105770116328"><ele>44.0</ele><time>2026-04-23T04:10:09Z</time></trkpt><trkpt lat="-20.840580163582704" lon="117.82133045258055"><ele>44.0</ele><time>2026-04-23T04:10:10Z</time></trkpt><trkpt lat="-20.84055799286498" lon="117.82159256287125"><ele>44.0</ele><time>2026-04-23T04:10:11Z</time></trkpt><trkpt lat="-20.840537180458558" lon="117.8218502317847"><ele>44.0</ele><time>2026-04-23T04:10:12Z</time></trkpt><trkpt lat="-20.840515306183175" lon="117.82210296937245"><ele>44.0</ele><time>2026-04-23T04:10:13Z</time></trkpt><trkpt lat="-20.840488415349476" lon="117.82235166821488"><ele>44.0</ele><time>2026-04-23T04:10:14Z</time></trkpt><trkpt lat="-20.840465651963388" lon="117.82260206715047"><ele>44.0</ele><time>2026-04-23T04:10:15Z</time></trkpt><trkpt lat="-20.840444864766127" lon="117.8228465813548"><ele>44.0</ele><time>2026-04-23T04:10:16Z</time></trkpt><trkpt lat="-20.840425931471923" lon="117.82308231436834"><ele>44.0</ele><time>2026-04-23T04:10:17Z</time></trkpt><trkpt lat="-20.840406224553224" lon="117.82331629072634"><ele>44.0</ele><time>2026-04-23T04:10:18Z</time></trkpt><trkpt lat="-20.84038815486179" lon="117.82354764574929"><ele>44.33333333333333</ele><time>2026-04-23T04:10:19Z</time></trkpt><trkpt lat="-20.840368829549025" lon="117.82378032289623"><ele>44.666666666666664</ele><time>2026-04-23T04:10:20Z</time></trkpt><trkpt lat="-20.840346774399155" lon="117.82400735072352"><ele>45.0</ele><time>2026-04-23T04:10:21Z</time></trkpt><trkpt lat="-20.84032723940243" lon="117.82423516012764"><ele>45.666666666666664</ele><time>2026-04-23T04:10:22Z</time></trkpt><trkpt lat="-20.840306232739042" lon="117.82446208740353"><ele>46.33333333333333</ele><time>2026-04-23T04:10:23Z</time></trkpt><trkpt lat="-20.84028845731304" lon="117.82468927215695"><ele>47.0</ele><time>2026-04-23T04:10:24Z</time></trkpt><trkpt lat="-20.840268770647178" lon="117.82491920719212"><ele>47.33333333333333</ele><time>2026-04-23T04:10:25Z</time></trkpt><trkpt lat="-20.84024743269352" lon="117.82514616268404"><ele>47.666666666666664</ele><time>2026-04-23T04:10:26Z</time></trkpt><trkpt lat="-20.840228546088117" lon="117.8253680714862"><ele>48.0</ele><time>2026-04-23T04:10:27Z</time></trkpt><trkpt lat="-20.84020958553113" lon="117.82558710662532"><ele>48.0</ele><time>2026-04-23T04:10:28Z</time></trkpt><trkpt lat="-20.84019147288785" lon="117.82580121469778"><ele>48.0</ele><time>2026-04-23T04:10:29Z</time></trkpt><trkpt lat="-20.840175033336784" lon="117.82601587843065"><ele>48.0</ele><time>2026-04-23T04:10:30Z</time></trkpt><trkpt lat="-20.840157917061113" lon="117.82623030029859"><ele>47.666666666666664</ele><time>2026-04-23T04:10:31Z</time></trkpt><trkpt lat="-20.840139238237477" lon="117.8264536438863"><ele>47.33333333333333</ele><time>2026-04-23T04:10:32Z</time></trkpt><trkpt lat="-20.84011989649559" lon="117.82668677886458"><ele>47.0</ele><time>2026-04-23T04:10:33Z</time></trkpt><trkpt lat="-20.840098272534096" lon="117.82692450247326"><ele>45.0</ele><time>2026-04-23T04:10:34Z</time></trkpt><trkpt lat="-20.840077488495066" lon="117.8271654090281"><ele>43.0</ele><time>2026-04-23T04:10:35Z</time></trkpt><trkpt lat="-20.840058398016097" lon="117.82740625851797"><ele>43.5</ele><time>2026-04-23T04:10:36Z</time></trkpt><trkpt lat="-20.840039112721872" lon="117.82765252773018"><ele>44.0</ele><time>2026-04-23T04:10:37Z</time></trkpt><trkpt lat="-20.840015463134442" lon="117.82789924666007"><ele>44.0</ele><time>2026-04-23T04:10:38Z</time></trkpt><trkpt lat="-20.83998909095059" lon="117.82814745679892"><ele>44.0</ele><time>2026-04-23T04:10:39Z</time></trkpt><trkpt lat="-20.839955751281007" lon="117.8283966513125"><ele>44.0</ele><time>2026-04-23T04:10:40Z</time></trkpt><trkpt lat="-20.83991692869555" lon="117.82864916724601"><ele>44.0</ele><time>2026-04-23T04:10:41Z</time></trkpt><trkpt lat="-20.83987310507075" lon="117.82890138306315"><ele>44.0</ele><time>2026-04-23T04:10:42Z</time></trkpt><trkpt lat="-20.839827614533093" lon="117.82914736916074"><ele>44.0</ele><time>2026-04-23T04:10:43Z</time></trkpt><trkpt lat="-20.83977782560559" lon="117.82939269460397"><ele>46.0</ele><time>2026-04-23T04:10:44Z</time></trkpt><trkpt lat="-20.839723163311376" lon="117.82963745771394"><ele>48.0</ele><time>2026-04-23T04:10:45Z</time></trkpt><trkpt lat="-20.839661369079113" lon="117.82987970524043"><ele>48.0</ele><time>2026-04-23T04:10:46Z</time></trkpt><trkpt lat="-20.83959507383407" lon="117.83012249754243"><ele>48.0</ele><time>2026-04-23T04:10:47Z</time></trkpt><trkpt lat="-20.83952656751509" lon="117.83036313368737"><ele>49.0</ele><time>2026-04-23T04:10:48Z</time></trkpt><trkpt lat="-20.83945360449184" lon="117.83060198206212"><ele>50.0</ele><time>2026-04-23T04:10:49Z</time></trkpt><trkpt lat="-20.839376766267545" lon="117.83083680419958"><ele>48.333333333333336</ele><time>2026-04-23T04:10:50Z</time></trkpt><trkpt lat="-20.83929566226011" lon="117.83105682408284"><ele>46.66666666666667</ele><time>2026-04-23T04:10:51Z</time></trkpt><trkpt lat="-20.839216785244574" lon="117.8312651333322"><ele>45.0</ele><time>2026-04-23T04:10:52Z</time></trkpt><trkpt lat="-20.839136623473287" lon="117.83145316518126"><ele>45.0</ele><time>2026-04-23T04:10:53Z</time></trkpt><trkpt lat="-20.839056576840168" lon="117.83162882970267"><ele>45.0</ele><time>2026-04-23T04:10:54Z</time></trkpt><trkpt lat="-20.838978719431204" lon="117.8317982125529"><ele>45.0</ele><time>2026-04-23T04:10:55Z</time></trkpt><trkpt lat="-20.838906156189243" lon="117.83195653702185"><ele>44.25</ele><time>2026-04-23T04:10:56Z</time></trkpt><trkpt lat="-20.838837378442275" lon="117.83210595810648"><ele>43.5</ele><time>2026-04-23T04:10:57Z</time></trkpt><trkpt lat="-20.838768212028334" lon="117.83224812141847"><ele>42.75</ele><time>2026-04-23T04:10:58Z</time></trkpt><trkpt lat="-20.83870009422741" lon="117.83237890844717"><ele>42.0</ele><time>2026-04-23T04:10:59Z</time></trkpt><trkpt lat="-20.838638899386897" lon="117.83250599905058"><ele>42.0</ele><time>2026-04-23T04:11:00Z</time></trkpt><trkpt lat="-20.83857839511032" lon="117.83262521811344"><ele>42.0</ele><time>2026-04-23T04:11:01Z</time></trkpt><trkpt lat="-20.838519018282316" lon="117.8327393411804"><ele>42.0</ele><time>2026-04-23T04:11:02Z</time></trkpt><trkpt lat="-20.838458112001298" lon="117.83285273017462"><ele>42.0</ele><time>2026-04-23T04:11:03Z</time></trkpt><trkpt lat="-20.83686637927436" lon="117.83297071026935"><ele>41.5</ele><time>2026-04-23T04:12:04Z</time></trkpt><trkpt lat="-20.836914177354995" lon="117.83301617672306"><ele>41.0</ele><time>2026-04-23T04:12:16Z</time></trkpt><trkpt lat="-20.83699080076716" lon="117.83306848673053"><ele>40.5</ele><time>2026-04-23T04:12:19Z</time></trkpt><trkpt lat="-20.837052214256737" lon="117.83312366452563"><ele>40.0</ele><time>2026-04-23T04:12:22Z</time></trkpt><trkpt lat="-20.83709864434354" lon="117.8331810164653"><ele>39.5</ele><time>2026-04-23T04:12:25Z</time></trkpt><trkpt lat="-20.83717696878674" lon="117.83323479935228"><ele>39.0</ele><time>2026-04-23T04:12:28Z</time></trkpt><trkpt lat="-20.837234206909052" lon="117.8332817228599"><ele>39.0</ele><time>2026-04-23T04:12:31Z</time></trkpt><trkpt lat="-20.83732259469485" lon="117.83329592177547"><ele>39.0</ele><time>2026-04-23T04:12:33Z</time></trkpt><trkpt lat="-20.837386677640318" lon="117.83493806281416"><ele>39.333333333333336</ele><time>2026-04-23T04:14:04Z</time></trkpt><trkpt lat="-20.837309555606172" lon="117.8350948668074"><ele>39.66666666666667</ele><time>2026-04-23T04:14:05Z</time></trkpt><trkpt lat="-20.83722824116321" lon="117.83526111645155"><ele>40.0</ele><time>2026-04-23T04:14:06Z</time></trkpt><trkpt lat="-20.83714019997668" lon="117.83542841156526"><ele>40.0</ele><time>2026-04-23T04:14:07Z</time></trkpt><trkpt lat="-20.83704730675005" lon="117.83560307590587"><ele>40.0</ele><time>2026-04-23T04:14:08Z</time></trkpt><trkpt lat="-20.836956316488074" lon="117.83578589132262"><ele>40.0</ele><time>2026-04-23T04:14:09Z</time></trkpt><trkpt lat="-20.83686638198566" lon="117.83596571360464"><ele>40.0</ele><time>2026-04-23T04:14:10Z</time></trkpt><trkpt lat="-20.836778095456722" lon="117.8361459827042"><ele>40.0</ele><time>2026-04-23T04:14:11Z</time></trkpt><trkpt lat="-20.8366855614217" lon="117.83632721230727"><ele>40.0</ele><time>2026-04-23T04:14:12Z</time></trkpt><trkpt lat="-20.83659225671414" lon="117.83650902931824"><ele>40.0</ele><time>2026-04-23T04:14:13Z</time></trkpt><trkpt lat="-20.83650346722388" lon="117.83668662045545"><ele>40.0</ele><time>2026-04-23T04:14:14Z</time></trkpt><trkpt lat="-20.836415128773808" lon="117.83686825776348"><ele>40.0</ele><time>2026-04-23T04:14:15Z</time></trkpt><trkpt lat="-20.836325691885182" lon="117.83704238467666"><ele>39.66666666666667</ele><time>2026-04-23T04:14:16Z</time></trkpt><trkpt lat="-20.836241420769493" lon="117.83720873542273"><ele>39.333333333333336</ele><time>2026-04-23T04:14:17Z</time></trkpt><trkpt lat="-20.836162025173188" lon="117.8373637216301"><ele>39.0</ele><time>2026-04-23T04:14:18Z</time></trkpt><trkpt lat="-20.83607841013523" lon="117.83751855199387"><ele>40.0</ele><time>2026-04-23T04:14:19Z</time></trkpt><trkpt lat="-20.835991011519575" lon="117.83768569029192"><ele>41.0</ele><time>2026-04-23T04:14:20Z</time></trkpt><trkpt lat="-20.835905321954115" lon="117.83785218489511"><ele>42.0</ele><time>2026-04-23T04:14:21Z</time></trkpt><trkpt lat="-20.835819698141055" lon="117.8380187419817"><ele>42.333333333333336</ele><time>2026-04-23T04:14:22Z</time></trkpt><trkpt lat="-20.835734669583932" lon="117.83818019080731"><ele>42.66666666666667</ele><time>2026-04-23T04:14:23Z</time></trkpt><trkpt lat="-20.83564880970645" lon="117.83834733738581"><ele>43.0</ele><time>2026-04-23T04:14:24Z</time></trkpt><trkpt lat="-20.835565465490212" lon="117.83851727426425"><ele>43.0</ele><time>2026-04-23T04:14:25Z</time></trkpt><trkpt lat="-20.83548055120791" lon="117.83869430733048"><ele>43.0</ele><time>2026-04-23T04:14:26Z</time></trkpt><trkpt lat="-20.835392596875366" lon="117.83887454812229"><ele>43.0</ele><time>2026-04-23T04:14:27Z</time></trkpt><trkpt lat="-20.835298481908186" lon="117.83905830921972"><ele>43.0</ele><time>2026-04-23T04:14:28Z</time></trkpt><trkpt lat="-20.83519969418149" lon="117.83924839705996"><ele>43.0</ele><time>2026-04-23T04:14:29Z</time></trkpt><trkpt lat="-20.835107070324657" lon="117.83943893741095"><ele>43.0</ele><time>2026-04-23T04:14:30Z</time></trkpt><trkpt lat="-20.83501708291577" lon="117.83963271052123"><ele>43.333333333333336</ele><time>2026-04-23T04:14:31Z</time></trkpt><trkpt lat="-20.834928371948457" lon="117.83983143413"><ele>43.666666666666664</ele><time>2026-04-23T04:14:32Z</time></trkpt><trkpt lat="-20.834846565845915" lon="117.8400281981405"><ele>44.0</ele><time>2026-04-23T04:14:33Z</time></trkpt><trkpt lat="-20.83477040772339" lon="117.84022999007416"><ele>44.666666666666664</ele><time>2026-04-23T04:14:34Z</time></trkpt><trkpt lat="-20.834696596337295" lon="117.84043425025551"><ele>45.333333333333336</ele><time>2026-04-23T04:14:35Z</time></trkpt><trkpt lat="-20.834629368607096" lon="117.84064118462065"><ele>46.0</ele><time>2026-04-23T04:14:36Z</time></trkpt><trkpt lat="-20.834552356898403" lon="117.84084765494433"><ele>45.66666666666667</ele><time>2026-04-23T04:14:37Z</time></trkpt><trkpt lat="-20.834506679605177" lon="117.84106819736245"><ele>45.333333333333336</ele><time>2026-04-23T04:14:38Z</time></trkpt><trkpt lat="-20.83444814521513" lon="117.8412868273654"><ele>45.0</ele><time>2026-04-23T04:14:39Z</time></trkpt><trkpt lat="-20.83439667062441" lon="117.84150863310951"><ele>45.0</ele><time>2026-04-23T04:14:40Z</time></trkpt><trkpt lat="-20.834351303897403" lon="117.84173576543685"><ele>45.0</ele><time>2026-04-23T04:14:41Z</time></trkpt><trkpt lat="-20.834313250162506" lon="117.84197244608748"><ele>45.0</ele><time>2026-04-23T04:14:42Z</time></trkpt><trkpt lat="-20.83427959801629" lon="117.84221245736673"><ele>46.0</ele><time>2026-04-23T04:14:43Z</time></trkpt><trkpt lat="-20.834252370720222" lon="117.84245694659239"><ele>47.0</ele><time>2026-04-23T04:14:44Z</time></trkpt><trkpt lat="-20.834228761547536" lon="117.84270515355429"><ele>47.5</ele><time>2026-04-23T04:14:45Z</time></trkpt><trkpt lat="-20.834210740924703" lon="117.84295917653553"><ele>48.0</ele><time>2026-04-23T04:14:46Z</time></trkpt><trkpt lat="-20.83420236823204" lon="117.84322368537843"><ele>47.0</ele><time>2026-04-23T04:14:47Z</time></trkpt><trkpt lat="-20.834204811078436" lon="117.84349307302357"><ele>46.0</ele><time>2026-04-23T04:14:48Z</time></trkpt><trkpt lat="-20.83421004826276" lon="117.84376149555854"><ele>46.0</ele><time>2026-04-23T04:14:49Z</time></trkpt><trkpt lat="-20.834221836107492" lon="117.8440192805277"><ele>46.0</ele><time>2026-04-23T04:14:50Z</time></trkpt><trkpt lat="-20.834241124185453" lon="117.84427631792366"><ele>45.5</ele><time>2026-04-23T04:14:51Z</time></trkpt><trkpt lat="-20.83427033572976" lon="117.84453405008655"><ele>45.0</ele><time>2026-04-23T04:14:52Z</time></trkpt><trkpt lat="-20.834300411981346" lon="117.8447915887079"><ele>45.0</ele><time>2026-04-23T04:14:53Z</time></trkpt><trkpt lat="-20.834335282035777" lon="117.84504827959965"><ele>45.0</ele><time>2026-04-23T04:14:54Z</time></trkpt><trkpt lat="-20.834380468950616" lon="117.84530334091686"><ele>45.0</ele><time>2026-04-23T04:14:55Z</time></trkpt><trkpt lat="-20.834441200380702" lon="117.84556307781351"><ele>45.0</ele><time>2026-04-23T04:14:56Z</time></trkpt><trkpt lat="-20.83451143420365" lon="117.84582618722084"><ele>46.0</ele><time>2026-04-23T04:14:57Z</time></trkpt><trkpt lat="-20.834586584734776" lon="117.84608450969183"><ele>47.0</ele><time>2026-04-23T04:14:58Z</time></trkpt><trkpt lat="-20.834665095848862" lon="117.84633614385612"><ele>47.0</ele><time>2026-04-23T04:14:59Z</time></trkpt><trkpt lat="-20.83474761569022" lon="117.84659030866186"><ele>47.0</ele><time>2026-04-23T04:15:00Z</time></trkpt><trkpt lat="-20.834831147224858" lon="117.84684044632083"><ele>46.0</ele><time>2026-04-23T04:15:01Z</time></trkpt><trkpt lat="-20.834921031634956" lon="117.84708377935463"><ele>45.0</ele><time>2026-04-23T04:15:02Z</time></trkpt><trkpt lat="-20.83501934503313" lon="117.84731875395642"><ele>53.0</ele><time>2026-04-23T04:15:03Z</time></trkpt><trkpt lat="-20.840289865712375" lon="117.86282508663773"><ele>53.0</ele><time>2026-04-23T04:16:03.999Z</time></trkpt><trkpt lat="-20.84029943358135" lon="117.8630906862734"><ele>53.0</ele><time>2026-04-23T04:16:04.999Z</time></trkpt><trkpt lat="-20.840310532684477" lon="117.86335865234791"><ele>53.0</ele><time>2026-04-23T04:16:06Z</time></trkpt><trkpt lat="-20.840323797000668" lon="117.86362696193514"><ele>53.0</ele><time>2026-04-23T04:16:07Z</time></trkpt><trkpt lat="-20.840336118629068" lon="117.86389757949216"><ele>53.0</ele><time>2026-04-23T04:16:08Z</time></trkpt><trkpt lat="-20.840354055244013" lon="117.86416922592493"><ele>53.0</ele><time>2026-04-23T04:16:09Z</time></trkpt><trkpt lat="-20.84036351347203" lon="117.86443709756098"><ele>53.5</ele><time>2026-04-23T04:16:10Z</time></trkpt><trkpt lat="-20.840378088870384" lon="117.86470716631644"><ele>54.0</ele><time>2026-04-23T04:16:11Z</time></trkpt><trkpt lat="-20.840389619088754" lon="117.86498059347237"><ele>54.0</ele><time>2026-04-23T04:16:12Z</time></trkpt><trkpt lat="-20.840399778978338" lon="117.86525699304491"><ele>54.0</ele><time>2026-04-23T04:16:13Z</time></trkpt><trkpt lat="-20.840410487122544" lon="117.86553441976307"><ele>54.0</ele><time>2026-04-23T04:16:14Z</time></trkpt><trkpt lat="-20.840420899570024" lon="117.86581680819457"><ele>54.0</ele><time>2026-04-23T04:16:15Z</time></trkpt><trkpt lat="-20.84042973113705" lon="117.86609951453185"><ele>54.0</ele><time>2026-04-23T04:16:16Z</time></trkpt><trkpt lat="-20.840438758457818" lon="117.86638270264658"><ele>54.0</ele><time>2026-04-23T04:16:17Z</time></trkpt><trkpt lat="-20.840452133445094" lon="117.86666388858367"><ele>54.0</ele><time>2026-04-23T04:16:18Z</time></trkpt><trkpt lat="-20.840466686119466" lon="117.86694495138653"><ele>54.0</ele><time>2026-04-23T04:16:19Z</time></trkpt><trkpt lat="-20.840481380997" lon="117.86722698528317"><ele>54.0</ele><time>2026-04-23T04:16:20Z</time></trkpt><trkpt lat="-20.84049602995408" lon="117.8675123828624"><ele>54.0</ele><time>2026-04-23T04:16:21Z</time></trkpt><trkpt lat="-20.840507660736474" lon="117.86778378181602"><ele>53.5</ele><time>2026-04-23T04:16:22Z</time></trkpt><trkpt lat="-20.84051739679093" lon="117.86804357681208"><ele>53.0</ele><time>2026-04-23T04:16:23Z</time></trkpt><trkpt lat="-20.84052735027678" lon="117.86831092664698"><ele>53.5</ele><time>2026-04-23T04:16:24Z</time></trkpt><trkpt lat="-20.84053830087517" lon="117.86858806470327"><ele>54.0</ele><time>2026-04-23T04:16:25Z</time></trkpt><trkpt lat="-20.840547376645226" lon="117.86886865543126"><ele>54.0</ele><time>2026-04-23T04:16:26Z</time></trkpt><trkpt lat="-20.840555058195935" lon="117.86915946229391"><ele>54.0</ele><time>2026-04-23T04:16:27Z</time></trkpt><trkpt lat="-20.84055579240542" lon="117.86944858898053"><ele>55.5</ele><time>2026-04-23T04:16:28Z</time></trkpt><trkpt lat="-20.840524360282448" lon="117.86973937663673"><ele>57.0</ele><time>2026-04-23T04:16:29Z</time></trkpt><trkpt lat="-20.840515196962233" lon="117.87003026978029"><ele>58.0</ele><time>2026-04-23T04:16:30Z</time></trkpt><trkpt lat="-20.840476369072107" lon="117.87031748340475"><ele>59.0</ele><time>2026-04-23T04:16:31Z</time></trkpt><trkpt lat="-20.840430025817465" lon="117.87060309374971"><ele>59.0</ele><time>2026-04-23T04:16:32Z</time></trkpt><trkpt lat="-20.840379328053526" lon="117.87088415915679"><ele>59.0</ele><time>2026-04-23T04:16:33Z</time></trkpt><trkpt lat="-20.840316455137216" lon="117.87115886116912"><ele>60.0</ele><time>2026-04-23T04:16:34Z</time></trkpt><trkpt lat="-20.84024608754826" lon="117.87143387750444"><ele>61.0</ele><time>2026-04-23T04:16:35Z</time></trkpt><trkpt lat="-20.84017133830721" lon="117.87171133620208"><ele>60.5</ele><time>2026-04-23T04:16:36Z</time></trkpt><trkpt lat="-20.84008746630239" lon="117.87198298340496"><ele>60.0</ele><time>2026-04-23T04:16:37Z</time></trkpt><trkpt lat="-20.839998404315512" lon="117.87225037436545"><ele>60.0</ele><time>2026-04-23T04:16:38Z</time></trkpt><trkpt lat="-20.839898532871416" lon="117.87250945771865"><ele>60.0</ele><time>2026-04-23T04:16:39Z</time></trkpt><trkpt lat="-20.839789190726638" lon="117.87276458140167"><ele>61.5</ele><time>2026-04-23T04:16:40Z</time></trkpt><trkpt lat="-20.839675128750066" lon="117.87301259784606"><ele>63.0</ele><time>2026-04-23T04:16:41Z</time></trkpt><trkpt lat="-20.83955588310429" lon="117.87325153646002"><ele>64.5</ele><time>2026-04-23T04:16:42Z</time></trkpt><trkpt lat="-20.839432761901815" lon="117.8734863861105"><ele>66.0</ele><time>2026-04-23T04:16:43Z</time></trkpt><trkpt lat="-20.839305278564296" lon="117.87371485397799"><ele>64.5</ele><time>2026-04-23T04:16:44Z</time></trkpt><trkpt lat="-20.839169815885626" lon="117.87393913605852"><ele>63.0</ele><time>2026-04-23T04:16:45Z</time></trkpt><trkpt lat="-20.8390269551158" lon="117.87415675595794"><ele>64.0</ele><time>2026-04-23T04:16:46Z</time></trkpt><trkpt lat="-20.83887435573443" lon="117.87437221683908"><ele>65.0</ele><time>2026-04-23T04:16:47Z</time></trkpt><trkpt lat="-20.838715767416506" lon="117.87458707131536"><ele>65.0</ele><time>2026-04-23T04:16:48Z</time></trkpt><trkpt lat="-20.838555250052522" lon="117.87479864663759"><ele>65.0</ele><time>2026-04-23T04:16:49Z</time></trkpt><trkpt lat="-20.838389311269427" lon="117.87501113463325"><ele>64.5</ele><time>2026-04-23T04:16:50Z</time></trkpt><trkpt lat="-20.838221026325023" lon="117.87522115808265"><ele>64.0</ele><time>2026-04-23T04:16:51Z</time></trkpt><trkpt lat="-20.838055855669566" lon="117.87543185261111"><ele>64.0</ele><time>2026-04-23T04:16:52Z</time></trkpt><trkpt lat="-20.837891112149936" lon="117.87564491765806"><ele>64.0</ele><time>2026-04-23T04:16:53Z</time></trkpt><trkpt lat="-20.83772571776262" lon="117.875862734511"><ele>63.5</ele><time>2026-04-23T04:16:54Z</time></trkpt><trkpt lat="-20.837560937991746" lon="117.87608251500646"><ele>63.0</ele><time>2026-04-23T04:16:55Z</time></trkpt><trkpt lat="-20.837392844942077" lon="117.87630337763184"><ele>63.0</ele><time>2026-04-23T04:16:56Z</time></trkpt><trkpt lat="-20.837222756269263" lon="117.87652185394543"><ele>63.0</ele><time>2026-04-23T04:16:57Z</time></trkpt><trkpt lat="-20.83705708314686" lon="117.87674137999727"><ele>63.5</ele><time>2026-04-23T04:16:58Z</time></trkpt><trkpt lat="-20.836895990365136" lon="117.87696542998981"><ele>64.0</ele><time>2026-04-23T04:16:59Z</time></trkpt><trkpt lat="-20.836743688171225" lon="117.87719545665287"><ele>62.0</ele><time>2026-04-23T04:17:00Z</time></trkpt><trkpt lat="-20.836604285598142" lon="117.87742783562555"><ele>60.0</ele><time>2026-04-23T04:17:01Z</time></trkpt><trkpt lat="-20.83647941806866" lon="117.87766853792671"><ele>60.0</ele><time>2026-04-23T04:17:02Z</time></trkpt><trkpt lat="-20.836369217986814" lon="117.87791284207397"><ele>60.0</ele><time>2026-04-23T04:17:03Z</time></trkpt><trkpt lat="-20.839003078936766" lon="117.89424174717952"><ele>56.5</ele><time>2026-04-23T04:18:03.999Z</time></trkpt><trkpt lat="-20.838972962052914" lon="117.89452405342807"><ele>53.0</ele><time>2026-04-23T04:18:04.999Z</time></trkpt><trkpt lat="-20.838881896862226" lon="117.89507850322123"><ele>52.0</ele><time>2026-04-23T04:18:06.999Z</time></trkpt><trkpt lat="-20.838828544850195" lon="117.89535271505105"><ele>51.0</ele><time>2026-04-23T04:18:07.999Z</time></trkpt><trkpt lat="-20.838768542107704" lon="117.8956209801679"><ele>51.0</ele><time>2026-04-23T04:18:08.999Z</time></trkpt><trkpt lat="-20.838700586366215" lon="117.89588496683565"><ele>51.0</ele><time>2026-04-23T04:18:09.999Z</time></trkpt><trkpt lat="-20.838622239120635" lon="117.89614833434426"><ele>51.0</ele><time>2026-04-23T04:18:10.999Z</time></trkpt><trkpt lat="-20.838540704275992" lon="117.89641414363781"><ele>51.0</ele><time>2026-04-23T04:18:11.999Z</time></trkpt><trkpt lat="-20.83845802876356" lon="117.89667796273625"><ele>52.0</ele><time>2026-04-23T04:18:12.999Z</time></trkpt><trkpt lat="-20.838376792882123" lon="117.89694655270192"><ele>53.0</ele><time>2026-04-23T04:18:13.999Z</time></trkpt><trkpt lat="-20.838295843952164" lon="117.89721428515013"><ele>53.0</ele><time>2026-04-23T04:18:14.999Z</time></trkpt><trkpt lat="-20.83821473593935" lon="117.89748193505079"><ele>53.0</ele><time>2026-04-23T04:18:15.999Z</time></trkpt><trkpt lat="-20.838134666047615" lon="117.89775113913917"><ele>53.0</ele><time>2026-04-23T04:18:17Z</time></trkpt><trkpt lat="-20.838055902193066" lon="117.89801729593057"><ele>53.0</ele><time>2026-04-23T04:18:18Z</time></trkpt><trkpt lat="-20.83798018831808" lon="117.89828170271606"><ele>54.5</ele><time>2026-04-23T04:18:19Z</time></trkpt><trkpt lat="-20.8379018229863" lon="117.89854733802238"><ele>56.0</ele><time>2026-04-23T04:18:20Z</time></trkpt><trkpt lat="-20.837823929045516" lon="117.89881371777929"><ele>56.0</ele><time>2026-04-23T04:18:21Z</time></trkpt><trkpt lat="-20.837747350716356" lon="117.89907766108038"><ele>56.0</ele><time>2026-04-23T04:18:22Z</time></trkpt><trkpt lat="-20.837667598719207" lon="117.89934543398715"><ele>54.0</ele><time>2026-04-23T04:18:23Z</time></trkpt><trkpt lat="-20.83758476021381" lon="117.89961648057958"><ele>52.0</ele><time>2026-04-23T04:18:24Z</time></trkpt><trkpt lat="-20.83750086683206" lon="117.89988836748638"><ele>52.0</ele><time>2026-04-23T04:18:25Z</time></trkpt><trkpt lat="-20.83741825964004" lon="117.90016388580743"><ele>52.0</ele><time>2026-04-23T04:18:26Z</time></trkpt><trkpt lat="-20.837336441534248" lon="117.90043919154188"><ele>52.0</ele><time>2026-04-23T04:18:27Z</time></trkpt><trkpt lat="-20.837257115876735" lon="117.90071320644338"><ele>52.0</ele><time>2026-04-23T04:18:28Z</time></trkpt><trkpt lat="-20.83717950911164" lon="117.90098512876564"><ele>53.0</ele><time>2026-04-23T04:18:29Z</time></trkpt><trkpt lat="-20.83710018959734" lon="117.90125801893645"><ele>54.0</ele><time>2026-04-23T04:18:30Z</time></trkpt><trkpt lat="-20.83702098425495" lon="117.90152656059774"><ele>54.5</ele><time>2026-04-23T04:18:31Z</time></trkpt><trkpt lat="-20.83694012118115" lon="117.90179570167128"><ele>55.0</ele><time>2026-04-23T04:18:32Z</time></trkpt><trkpt lat="-20.836860514567576" lon="117.90206565233252"><ele>54.5</ele><time>2026-04-23T04:18:33Z</time></trkpt><trkpt lat="-20.836780934921926" lon="117.90233585029851"><ele>54.0</ele><time>2026-04-23T04:18:34Z</time></trkpt><trkpt lat="-20.836699614579" lon="117.90261208569976"><ele>54.0</ele><time>2026-04-23T04:18:35Z</time></trkpt><trkpt lat="-20.836618885661743" lon="117.90288861662066"><ele>54.0</ele><time>2026-04-23T04:18:36Z</time></trkpt><trkpt lat="-20.83653787916114" lon="117.90316322869023"><ele>55.5</ele><time>2026-04-23T04:18:37Z</time></trkpt><trkpt lat="-20.83645749870452" lon="117.90343557645662"><ele>57.0</ele><time>2026-04-23T04:18:38Z</time></trkpt><trkpt lat="-20.83637448735199" lon="117.90370740878801"><ele>57.0</ele><time>2026-04-23T04:18:39Z</time></trkpt><trkpt lat="-20.836295212403996" lon="117.9039796577243"><ele>57.0</ele><time>2026-04-23T04:18:40Z</time></trkpt><trkpt lat="-20.836212238374287" lon="117.9042546126546"><ele>56.0</ele><time>2026-04-23T04:18:41Z</time></trkpt><trkpt lat="-20.836129942871082" lon="117.90452955347835"><ele>55.0</ele><time>2026-04-23T04:18:42Z</time></trkpt><trkpt lat="-20.836048354888646" lon="117.90480186156513"><ele>55.0</ele><time>2026-04-23T04:18:43Z</time></trkpt><trkpt lat="-20.83596969754581" lon="117.90507070550244"><ele>55.0</ele><time>2026-04-23T04:18:44Z</time></trkpt><trkpt lat="-20.835889768418507" lon="117.90534136274742"><ele>55.0</ele><time>2026-04-23T04:18:45Z</time></trkpt><trkpt lat="-20.835808806159356" lon="117.90560840095834"><ele>55.0</ele><time>2026-04-23T04:18:46Z</time></trkpt><trkpt lat="-20.835729395431116" lon="117.90587284627479"><ele>55.5</ele><time>2026-04-23T04:18:47Z</time></trkpt><trkpt lat="-20.835650857435038" lon="117.90613452021503"><ele>56.0</ele><time>2026-04-23T04:18:48Z</time></trkpt><trkpt lat="-20.83557386931927" lon="117.9063982278726"><ele>56.0</ele><time>2026-04-23T04:18:49Z</time></trkpt><trkpt lat="-20.835498481524937" lon="117.90665909554428"><ele>56.0</ele><time>2026-04-23T04:18:50Z</time></trkpt><trkpt lat="-20.835421186114992" lon="117.90692252671701"><ele>55.5</ele><time>2026-04-23T04:18:51Z</time></trkpt><trkpt lat="-20.83534581967053" lon="117.90718334141766"><ele>55.0</ele><time>2026-04-23T04:18:52Z</time></trkpt><trkpt lat="-20.835271059669562" lon="117.90744224263183"><ele>55.0</ele><time>2026-04-23T04:18:53Z</time></trkpt><trkpt lat="-20.835195127114712" lon="117.90769700014971"><ele>55.0</ele><time>2026-04-23T04:18:54Z</time></trkpt><trkpt lat="-20.835121039623374" lon="117.9079466743434"><ele>55.0</ele><time>2026-04-23T04:18:55Z</time></trkpt><trkpt lat="-20.83504547352093" lon="117.90819712612567"><ele>55.0</ele><time>2026-04-23T04:18:56Z</time></trkpt><trkpt lat="-20.83497366550696" lon="117.90844082156697"><ele>54.0</ele><time>2026-04-23T04:18:57Z</time></trkpt><trkpt lat="-20.834903382538116" lon="117.90868465018255"><ele>53.0</ele><time>2026-04-23T04:18:58Z</time></trkpt><trkpt lat="-20.834834203796436" lon="117.90893004752623"><ele>53.0</ele><time>2026-04-23T04:18:59Z</time></trkpt><trkpt lat="-20.834761506316703" lon="117.90917489216888"><ele>53.0</ele><time>2026-04-23T04:19:00Z</time></trkpt><trkpt lat="-20.834687435868766" lon="117.90942230169645"><ele>54.0</ele><time>2026-04-23T04:19:01Z</time></trkpt><trkpt lat="-20.834612266236153" lon="117.90967610743009"><ele>55.0</ele><time>2026-04-23T04:19:02Z</time></trkpt><trkpt lat="-20.834535937446194" lon="117.90992884476732"><ele>49.0</ele><time>2026-04-23T04:19:03Z</time></trkpt><trkpt lat="-20.835299259456928" lon="117.92593655772299"><ele>49.0</ele><time>2026-04-23T04:20:04Z</time></trkpt><trkpt lat="-20.83545484671883" lon="117.92616983231471"><ele>49.0</ele><time>2026-04-23T04:20:05Z</time></trkpt><trkpt lat="-20.835608497363364" lon="117.92640247084987"><ele>49.0</ele><time>2026-04-23T04:20:06Z</time></trkpt><trkpt lat="-20.835761119816897" lon="117.92663447130964"><ele>49.0</ele><time>2026-04-23T04:20:07Z</time></trkpt><trkpt lat="-20.83591468979956" lon="117.92686366148503"><ele>49.0</ele><time>2026-04-23T04:20:08Z</time></trkpt><trkpt lat="-20.836069543434366" lon="117.9270927952641"><ele>49.0</ele><time>2026-04-23T04:20:09Z</time></trkpt><trkpt lat="-20.83622640429094" lon="117.92733084529617"><ele>48.5</ele><time>2026-04-23T04:20:10Z</time></trkpt><trkpt lat="-20.836387352052192" lon="117.92756828001521"><ele>48.0</ele><time>2026-04-23T04:20:11Z</time></trkpt><trkpt lat="-20.836549786724394" lon="117.92781268632001"><ele>48.0</ele><time>2026-04-23T04:20:12Z</time></trkpt><trkpt lat="-20.83671417327179" lon="117.92805978781156"><ele>48.0</ele><time>2026-04-23T04:20:13Z</time></trkpt><trkpt lat="-20.83687743937849" lon="117.92830807067794"><ele>50.0</ele><time>2026-04-23T04:20:14Z</time></trkpt><trkpt lat="-20.83704276827263" lon="117.9285552319117"><ele>52.0</ele><time>2026-04-23T04:20:15Z</time></trkpt><trkpt lat="-20.83720865941305" lon="117.92880280750008"><ele>52.0</ele><time>2026-04-23T04:20:16Z</time></trkpt><trkpt lat="-20.837374646385886" lon="117.92905087055102"><ele>52.0</ele><time>2026-04-23T04:20:17Z</time></trkpt><trkpt lat="-20.837542203723874" lon="117.92929788895907"><ele>52.5</ele><time>2026-04-23T04:20:18Z</time></trkpt><trkpt lat="-20.837705915303182" lon="117.9295426846609"><ele>53.0</ele><time>2026-04-23T04:20:19Z</time></trkpt><trkpt lat="-20.83786875054029" lon="117.9297875799822"><ele>53.0</ele><time>2026-04-23T04:20:20Z</time></trkpt><trkpt lat="-20.838031531524955" lon="117.93002996063016"><ele>53.0</ele><time>2026-04-23T04:20:21Z</time></trkpt><trkpt lat="-20.838191293601582" lon="117.93027208839888"><ele>52.0</ele><time>2026-04-23T04:20:22Z</time></trkpt><trkpt lat="-20.838350171252795" lon="117.93051459446701"><ele>51.0</ele><time>2026-04-23T04:20:23Z</time></trkpt><trkpt lat="-20.838509153192888" lon="117.93075404654499"><ele>51.5</ele><time>2026-04-23T04:20:24Z</time></trkpt><trkpt lat="-20.83866967666175" lon="117.93099432585412"><ele>52.0</ele><time>2026-04-23T04:20:25Z</time></trkpt><trkpt lat="-20.838829655329718" lon="117.93123304284643"><ele>52.0</ele><time>2026-04-23T04:20:26Z</time></trkpt><trkpt lat="-20.83899155080347" lon="117.93147016572105"><ele>52.0</ele><time>2026-04-23T04:20:27Z</time></trkpt><trkpt lat="-20.839154189272623" lon="117.93170706882165"><ele>52.0</ele><time>2026-04-23T04:20:28Z</time></trkpt><trkpt lat="-20.839314509445877" lon="117.93194381431361"><ele>52.0</ele><time>2026-04-23T04:20:29Z</time></trkpt><trkpt lat="-20.839474901966028" lon="117.93218537585508"><ele>52.0</ele><time>2026-04-23T04:20:30Z</time></trkpt><trkpt lat="-20.839634918445075" lon="117.93242466877916"><ele>52.0</ele><time>2026-04-23T04:20:31Z</time></trkpt><trkpt lat="-20.839799677684343" lon="117.93266297317372"><ele>51.5</ele><time>2026-04-23T04:20:32Z</time></trkpt><trkpt lat="-20.839967476352335" lon="117.9329028220619"><ele>51.0</ele><time>2026-04-23T04:20:33Z</time></trkpt><trkpt lat="-20.840139856019213" lon="117.93314757675097"><ele>49.5</ele><time>2026-04-23T04:20:34Z</time></trkpt><trkpt lat="-20.84031018987742" lon="117.93339346745172"><ele>48.0</ele><time>2026-04-23T04:20:35Z</time></trkpt><trkpt lat="-20.840475136017258" lon="117.93363690732932"><ele>48.0</ele><time>2026-04-23T04:20:36Z</time></trkpt><trkpt lat="-20.840638718235073" lon="117.93387832346359"><ele>48.0</ele><time>2026-04-23T04:20:37Z</time></trkpt><trkpt lat="-20.840800615632997" lon="117.93411515473399"><ele>48.0</ele><time>2026-04-23T04:20:38Z</time></trkpt><trkpt lat="-20.840964646815877" lon="117.93435218934651"><ele>48.0</ele><time>2026-04-23T04:20:39Z</time></trkpt><trkpt lat="-20.841129059575987" lon="117.93458716833753"><ele>48.5</ele><time>2026-04-23T04:20:40Z</time></trkpt><trkpt lat="-20.841293313964606" lon="117.93482115910938"><ele>49.0</ele><time>2026-04-23T04:20:41Z</time></trkpt><trkpt lat="-20.841453219537588" lon="117.93505368324591"><ele>47.5</ele><time>2026-04-23T04:20:42Z</time></trkpt><trkpt lat="-20.84160839734279" lon="117.9352873695269"><ele>46.0</ele><time>2026-04-23T04:20:43Z</time></trkpt><trkpt lat="-20.84176725082808" lon="117.93552708404953"><ele>47.0</ele><time>2026-04-23T04:20:44Z</time></trkpt><trkpt lat="-20.841927938181797" lon="117.93576989565341"><ele>48.0</ele><time>2026-04-23T04:20:45Z</time></trkpt><trkpt lat="-20.84209216497442" lon="117.93601152981915"><ele>48.0</ele><time>2026-04-23T04:20:46Z</time></trkpt><trkpt lat="-20.842263621325653" lon="117.9362539125854"><ele>48.0</ele><time>2026-04-23T04:20:47Z</time></trkpt><trkpt lat="-20.842433736057366" lon="117.9364965004213"><ele>48.0</ele><time>2026-04-23T04:20:48Z</time></trkpt><trkpt lat="-20.842603747312715" lon="117.93674447306712"><ele>48.0</ele><time>2026-04-23T04:20:49Z</time></trkpt><trkpt lat="-20.84277137885691" lon="117.93698920823175"><ele>48.0</ele><time>2026-04-23T04:20:50Z</time></trkpt><trkpt lat="-20.842937384204912" lon="117.93723435757462"><ele>48.0</ele><time>2026-04-23T04:20:51Z</time></trkpt><trkpt lat="-20.84310270856283" lon="117.93747607870965"><ele>47.5</ele><time>2026-04-23T04:20:52Z</time></trkpt><trkpt lat="-20.843268833590614" lon="117.93771608013863"><ele>47.0</ele><time>2026-04-23T04:20:53Z</time></trkpt><trkpt lat="-20.843435470311544" lon="117.93795822366924"><ele>47.0</ele><time>2026-04-23T04:20:54Z</time></trkpt><trkpt lat="-20.843600968709243" lon="117.93819834844716"><ele>47.0</ele><time>2026-04-23T04:20:55Z</time></trkpt><trkpt lat="-20.843764033328263" lon="117.9384348837898"><ele>46.0</ele><time>2026-04-23T04:20:56Z</time></trkpt><trkpt lat="-20.84392811337886" lon="117.93867181429378"><ele>45.0</ele><time>2026-04-23T04:20:57Z</time></trkpt><trkpt lat="-20.84409288077577" lon="117.93890837247109"><ele>45.0</ele><time>2026-04-23T04:20:58Z</time></trkpt><trkpt lat="-20.844254442551872" lon="117.93914423807522"><ele>45.0</ele><time>2026-04-23T04:20:59Z</time></trkpt><trkpt lat="-20.844417890999324" lon="117.93938279175353"><ele>45.5</ele><time>2026-04-23T04:21:00Z</time></trkpt><trkpt lat="-20.84458130005857" lon="117.93962350903976"><ele>46.0</ele><time>2026-04-23T04:21:01Z</time></trkpt><trkpt lat="-20.844747848245156" lon="117.93986503975135"><ele>44.5</ele><time>2026-04-23T04:21:02Z</time></trkpt><trkpt lat="-20.844916045919724" lon="117.94010670366106"><ele>43.0</ele><time>2026-04-23T04:21:03Z</time></trkpt><trkpt lat="-20.85472619604494" lon="117.95438010751647"><ele>43.0</ele><time>2026-04-23T04:22:04.001Z</time></trkpt><trkpt lat="-20.854892151191354" lon="117.95462619356944"><ele>43.0</ele><time>2026-04-23T04:22:05.001Z</time></trkpt><trkpt lat="-20.85505180923832" lon="117.95487602479531"><ele>43.0</ele><time>2026-04-23T04:22:06.001Z</time></trkpt><trkpt lat="-20.855199492298755" lon="117.95512987354783"><ele>43.0</ele><time>2026-04-23T04:22:07.001Z</time></trkpt><trkpt lat="-20.855342226230032" lon="117.95539192727882"><ele>43.0</ele><time>2026-04-23T04:22:08.001Z</time></trkpt><trkpt lat="-20.85547356591541" lon="117.95565712492322"><ele>43.0</ele><time>2026-04-23T04:22:09.001Z</time></trkpt><trkpt lat="-20.855595536521204" lon="117.95592631151041"><ele>42.5</ele><time>2026-04-23T04:22:10Z</time></trkpt><trkpt lat="-20.855708398111613" lon="117.95619741710027"><ele>42.0</ele><time>2026-04-23T04:22:11Z</time></trkpt><trkpt lat="-20.855814142900627" lon="117.95647143487506"><ele>43.0</ele><time>2026-04-23T04:22:12Z</time></trkpt><trkpt lat="-20.855911288706643" lon="117.95674910484425"><ele>44.0</ele><time>2026-04-23T04:22:13Z</time></trkpt><trkpt lat="-20.855997698984034" lon="117.95702874144783"><ele>44.0</ele><time>2026-04-23T04:22:14Z</time></trkpt><trkpt lat="-20.85607569720794" lon="117.95731082169179"><ele>44.0</ele><time>2026-04-23T04:22:15Z</time></trkpt><trkpt lat="-20.856142116035837" lon="117.95759393876195"><ele>43.5</ele><time>2026-04-23T04:22:16Z</time></trkpt><trkpt lat="-20.8561985534993" lon="117.95788542446485"><ele>43.0</ele><time>2026-04-23T04:22:17Z</time></trkpt><trkpt lat="-20.856252459058414" lon="117.9581760527576"><ele>43.0</ele><time>2026-04-23T04:22:18Z</time></trkpt><trkpt lat="-20.85629760420172" lon="117.95846518045244"><ele>43.0</ele><time>2026-04-23T04:22:19Z</time></trkpt><trkpt lat="-20.856333461763683" lon="117.95875613226261"><ele>43.0</ele><time>2026-04-23T04:22:20Z</time></trkpt><trkpt lat="-20.856361111146573" lon="117.95905035758827"><ele>43.0</ele><time>2026-04-23T04:22:21Z</time></trkpt><trkpt lat="-20.85637878996524" lon="117.95934606248802"><ele>43.0</ele><time>2026-04-23T04:22:22Z</time></trkpt><trkpt lat="-20.856398322078594" lon="117.95964317862662"><ele>43.0</ele><time>2026-04-23T04:22:23Z</time></trkpt><trkpt lat="-20.856418539937792" lon="117.95994030284983"><ele>42.5</ele><time>2026-04-23T04:22:24Z</time></trkpt><trkpt lat="-20.8564413042725" lon="117.96023406032509"><ele>42.0</ele><time>2026-04-23T04:22:25Z</time></trkpt><trkpt lat="-20.856464832482178" lon="117.96053108171176"><ele>42.0</ele><time>2026-04-23T04:22:26Z</time></trkpt><trkpt lat="-20.85648548003998" lon="117.96082504200751"><ele>42.0</ele><time>2026-04-23T04:22:27Z</time></trkpt><trkpt lat="-20.856506397884502" lon="117.96111998345172"><ele>42.0</ele><time>2026-04-23T04:22:28Z</time></trkpt><trkpt lat="-20.856529260833696" lon="117.96141609813738"><ele>42.0</ele><time>2026-04-23T04:22:29Z</time></trkpt><trkpt lat="-20.856549950478257" lon="117.96171318888008"><ele>42.0</ele><time>2026-04-23T04:22:30Z</time></trkpt><trkpt lat="-20.85657246677929" lon="117.96200859662403"><ele>42.0</ele><time>2026-04-23T04:22:31Z</time></trkpt><trkpt lat="-20.85659426663259" lon="117.96230327269136"><ele>41.5</ele><time>2026-04-23T04:22:32Z</time></trkpt><trkpt lat="-20.8566156470663" lon="117.96259663011274"><ele>41.0</ele><time>2026-04-23T04:22:33Z</time></trkpt><trkpt lat="-20.856636916665217" lon="117.96289136852484"><ele>41.0</ele><time>2026-04-23T04:22:34Z</time></trkpt><trkpt lat="-20.856660004371893" lon="117.96318303488583"><ele>41.0</ele><time>2026-04-23T04:22:35Z</time></trkpt><trkpt lat="-20.856685801631386" lon="117.96347900039414"><ele>42.0</ele><time>2026-04-23T04:22:36Z</time></trkpt><trkpt lat="-20.856709045140157" lon="117.96377472915889"><ele>43.0</ele><time>2026-04-23T04:22:37Z</time></trkpt><trkpt lat="-20.85673113087614" lon="117.96407427982507"><ele>43.0</ele><time>2026-04-23T04:22:38Z</time></trkpt><trkpt lat="-20.856753587067764" lon="117.9643733161122"><ele>43.0</ele><time>2026-04-23T04:22:39Z</time></trkpt><trkpt lat="-20.856775701952312" lon="117.9646772252275"><ele>43.0</ele><time>2026-04-23T04:22:40Z</time></trkpt><trkpt lat="-20.856796795729945" lon="117.96498045424086"><ele>43.0</ele><time>2026-04-23T04:22:41Z</time></trkpt><trkpt lat="-20.856819816992996" lon="117.9652890254159"><ele>42.0</ele><time>2026-04-23T04:22:42Z</time></trkpt><trkpt lat="-20.856844045694363" lon="117.96559599790717"><ele>41.0</ele><time>2026-04-23T04:22:43Z</time></trkpt><trkpt lat="-20.856868844631244" lon="117.9659045032935"><ele>41.0</ele><time>2026-04-23T04:22:44Z</time></trkpt><trkpt lat="-20.856892725159675" lon="117.96621029423402"><ele>41.0</ele><time>2026-04-23T04:22:45Z</time></trkpt><trkpt lat="-20.85691530690202" lon="117.96651435597208"><ele>40.5</ele><time>2026-04-23T04:22:46Z</time></trkpt><trkpt lat="-20.856935421069863" lon="117.96681337730875"><ele>40.0</ele><time>2026-04-23T04:22:47Z</time></trkpt><trkpt lat="-20.85695883697437" lon="117.96711288795127"><ele>40.0</ele><time>2026-04-23T04:22:48Z</time></trkpt><trkpt lat="-20.85698338278964" lon="117.96740906951881"><ele>40.0</ele><time>2026-04-23T04:22:49Z</time></trkpt><trkpt lat="-20.857010494653952" lon="117.96770663193047"><ele>40.0</ele><time>2026-04-23T04:22:50Z</time></trkpt><trkpt lat="-20.857033756402256" lon="117.9679935794296"><ele>40.0</ele><time>2026-04-23T04:22:51Z</time></trkpt><trkpt lat="-20.85705629048007" lon="117.96828967089694"><ele>41.0</ele><time>2026-04-23T04:22:52Z</time></trkpt><trkpt lat="-20.857075246264202" lon="117.9685856090926"><ele>42.0</ele><time>2026-04-23T04:22:53Z</time></trkpt><trkpt lat="-20.857095155234028" lon="117.96887814220577"><ele>42.0</ele><time>2026-04-23T04:22:54Z</time></trkpt><trkpt lat="-20.857115816261928" lon="117.96917157677056"><ele>42.0</ele><time>2026-04-23T04:22:55Z</time></trkpt><trkpt lat="-20.857138222453315" lon="117.96946266752789"><ele>42.5</ele><time>2026-04-23T04:22:56Z</time></trkpt><trkpt lat="-20.85716256674889" lon="117.96975319914338"><ele>43.0</ele><time>2026-04-23T04:22:57Z</time></trkpt><trkpt lat="-20.857185773001845" lon="117.97004278522512"><ele>42.0</ele><time>2026-04-23T04:22:58Z</time></trkpt><trkpt lat="-20.857207735632233" lon="117.97032925066333"><ele>41.0</ele><time>2026-04-23T04:22:59Z</time></trkpt><trkpt lat="-20.857230025352056" lon="117.9706178271101"><ele>41.0</ele><time>2026-04-23T04:23:00Z</time></trkpt><trkpt lat="-20.857269855260597" lon="117.97118804353353"><ele>41.0</ele><time>2026-04-23T04:23:02Z</time></trkpt><trkpt lat="-20.857289384886954" lon="117.97146419920796"><ele>41.0</ele><time>2026-04-23T04:23:03Z</time></trkpt><trkpt lat="-20.858596814996613" lon="117.98877378369531"><ele>41.5</ele><time>2026-04-23T04:24:04.001Z</time></trkpt><trkpt lat="-20.858618879093232" lon="117.98907274343948"><ele>42.0</ele><time>2026-04-23T04:24:05.001Z</time></trkpt><trkpt lat="-20.858642082607087" lon="117.98936813352071"><ele>42.0</ele><time>2026-04-23T04:24:06.001Z</time></trkpt><trkpt lat="-20.858666331647846" lon="117.98966596330511"><ele>42.0</ele><time>2026-04-23T04:24:07.001Z</time></trkpt><trkpt lat="-20.858687845400656" lon="117.98996124336125"><ele>43.0</ele><time>2026-04-23T04:24:08.001Z</time></trkpt><trkpt lat="-20.858708715178253" lon="117.9902594896566"><ele>44.0</ele><time>2026-04-23T04:24:09.001Z</time></trkpt><trkpt lat="-20.85873083315228" lon="117.99055826994824"><ele>43.5</ele><time>2026-04-23T04:24:10.001Z</time></trkpt><trkpt lat="-20.858752180033473" lon="117.99085406245158"><ele>43.0</ele><time>2026-04-23T04:24:11.001Z</time></trkpt><trkpt lat="-20.858774957717184" lon="117.99114971657221"><ele>43.0</ele><time>2026-04-23T04:24:12.001Z</time></trkpt><trkpt lat="-20.858798129921322" lon="117.9914440995823"><ele>43.0</ele><time>2026-04-23T04:24:13.001Z</time></trkpt><trkpt lat="-20.858820621322497" lon="117.99174328395192"><ele>43.5</ele><time>2026-04-23T04:24:14.001Z</time></trkpt><trkpt lat="-20.858842692504346" lon="117.99203832264921"><ele>44.0</ele><time>2026-04-23T04:24:15.001Z</time></trkpt><trkpt lat="-20.85886622240627" lon="117.99233663618945"><ele>44.5</ele><time>2026-04-23T04:24:16Z</time></trkpt><trkpt lat="-20.85888693240668" lon="117.99263685772517"><ele>45.0</ele><time>2026-04-23T04:24:17Z</time></trkpt><trkpt lat="-20.858907999251436" lon="117.99293666039507"><ele>45.0</ele><time>2026-04-23T04:24:18Z</time></trkpt><trkpt lat="-20.858931528413592" lon="117.9932364803084"><ele>45.0</ele><time>2026-04-23T04:24:19Z</time></trkpt><trkpt lat="-20.858954484634364" lon="117.99353298014928"><ele>44.0</ele><time>2026-04-23T04:24:20Z</time></trkpt><trkpt lat="-20.858977275470846" lon="117.99382816201177"><ele>43.0</ele><time>2026-04-23T04:24:21Z</time></trkpt><trkpt lat="-20.859000813595337" lon="117.99412452812842"><ele>43.0</ele><time>2026-04-23T04:24:22Z</time></trkpt><trkpt lat="-20.859022186754185" lon="117.99441496978991"><ele>43.0</ele><time>2026-04-23T04:24:23Z</time></trkpt><trkpt lat="-20.85904136316932" lon="117.99470439181609"><ele>43.0</ele><time>2026-04-23T04:24:24Z</time></trkpt><trkpt lat="-20.85906005767844" lon="117.99500116725142"><ele>43.0</ele><time>2026-04-23T04:24:25Z</time></trkpt><trkpt lat="-20.859079354673295" lon="117.99529224724118"><ele>43.5</ele><time>2026-04-23T04:24:26Z</time></trkpt><trkpt lat="-20.859102867153496" lon="117.99558584881906"><ele>44.0</ele><time>2026-04-23T04:24:27Z</time></trkpt><trkpt lat="-20.85912884160441" lon="117.99587320440838"><ele>44.0</ele><time>2026-04-23T04:24:28Z</time></trkpt><trkpt lat="-20.85915529121205" lon="117.99616297592644"><ele>44.0</ele><time>2026-04-23T04:24:29Z</time></trkpt><trkpt lat="-20.859177562143618" lon="117.99645832808126"><ele>43.5</ele><time>2026-04-23T04:24:30Z</time></trkpt><trkpt lat="-20.859197159089142" lon="117.99676285083643"><ele>43.0</ele><time>2026-04-23T04:24:31Z</time></trkpt><trkpt lat="-20.859217217755997" lon="117.99707383027057"><ele>43.0</ele><time>2026-04-23T04:24:32Z</time></trkpt><trkpt lat="-20.85924054157705" lon="117.99738207375644"><ele>43.0</ele><time>2026-04-23T04:24:33Z</time></trkpt><trkpt lat="-20.859264224826646" lon="117.99769056879032"><ele>44.0</ele><time>2026-04-23T04:24:34Z</time></trkpt><trkpt lat="-20.85928660639747" lon="117.99799764975484"><ele>45.0</ele><time>2026-04-23T04:24:35Z</time></trkpt><trkpt lat="-20.85931027730163" lon="117.99830616569773"><ele>45.0</ele><time>2026-04-23T04:24:36Z</time></trkpt><trkpt lat="-20.859332650957317" lon="117.99861332065866"><ele>45.0</ele><time>2026-04-23T04:24:37Z</time></trkpt><trkpt lat="-20.859356173319753" lon="117.99892075987262"><ele>45.0</ele><time>2026-04-23T04:24:38Z</time></trkpt><trkpt lat="-20.859383983681496" lon="117.99921930569253"><ele>45.0</ele><time>2026-04-23T04:24:39Z</time></trkpt><trkpt lat="-20.859410296909882" lon="117.9995166904023"><ele>45.0</ele><time>2026-04-23T04:24:40Z</time></trkpt><trkpt lat="-20.859432474191514" lon="117.99981162657686"><ele>45.0</ele><time>2026-04-23T04:24:41Z</time></trkpt><trkpt lat="-20.859450412447856" lon="118.00010562683862"><ele>45.0</ele><time>2026-04-23T04:24:42Z</time></trkpt><trkpt lat="-20.859467377461584" lon="118.00040354859478"><ele>45.0</ele><time>2026-04-23T04:24:43Z</time></trkpt><trkpt lat="-20.85948666487889" lon="118.00070157533584"><ele>44.5</ele><time>2026-04-23T04:24:44Z</time></trkpt><trkpt lat="-20.859509813430044" lon="118.00100068592816"><ele>44.0</ele><time>2026-04-23T04:24:45Z</time></trkpt><trkpt lat="-20.859534039622325" lon="118.0013034639454"><ele>44.0</ele><time>2026-04-23T04:24:46Z</time></trkpt><trkpt lat="-20.859559217051242" lon="118.0016074464477"><ele>44.0</ele><time>2026-04-23T04:24:47Z</time></trkpt><trkpt lat="-20.85958473407549" lon="118.00191596803052"><ele>44.5</ele><time>2026-04-23T04:24:48Z</time></trkpt><trkpt lat="-20.85961142094688" lon="118.00222662329601"><ele>45.0</ele><time>2026-04-23T04:24:49Z</time></trkpt><trkpt lat="-20.859636910966945" lon="118.00254053492371"><ele>45.0</ele><time>2026-04-23T04:24:50Z</time></trkpt><trkpt lat="-20.85966153673668" lon="118.0028550478568"><ele>45.0</ele><time>2026-04-23T04:24:51Z</time></trkpt><trkpt lat="-20.85968609758307" lon="118.00316970311331"><ele>44.0</ele><time>2026-04-23T04:24:52Z</time></trkpt><trkpt lat="-20.859708585828184" lon="118.00348218349403"><ele>43.0</ele><time>2026-04-23T04:24:53Z</time></trkpt><trkpt lat="-20.859729292176677" lon="118.00379005292788"><ele>43.0</ele><time>2026-04-23T04:24:54Z</time></trkpt><trkpt lat="-20.85975277915735" lon="118.00409683582558"><ele>43.0</ele><time>2026-04-23T04:24:55Z</time></trkpt><trkpt lat="-20.859775922985335" lon="118.00440161679971"><ele>44.0</ele><time>2026-04-23T04:24:56Z</time></trkpt><trkpt lat="-20.8597966801813" lon="118.00470696603078"><ele>45.0</ele><time>2026-04-23T04:24:57Z</time></trkpt><trkpt lat="-20.859818501177216" lon="118.00501070773784"><ele>45.0</ele><time>2026-04-23T04:24:58Z</time></trkpt><trkpt lat="-20.85984395437237" lon="118.00531210940306"><ele>45.0</ele><time>2026-04-23T04:24:59Z</time></trkpt><trkpt lat="-20.85987244318619" lon="118.00561062680544"><ele>45.0</ele><time>2026-04-23T04:25:00Z</time></trkpt><trkpt lat="-20.85989513557971" lon="118.00590765363023"><ele>45.0</ele><time>2026-04-23T04:25:01Z</time></trkpt><trkpt lat="-20.859914755688983" lon="118.00620703645349"><ele>45.0</ele><time>2026-04-23T04:25:02Z</time></trkpt><trkpt lat="-20.85993476638316" lon="118.0065056452441"><ele>45.0</ele><time>2026-04-23T04:25:03Z</time></trkpt><trkpt lat="-20.860735213572735" lon="118.01714962911436"><ele>45.5</ele><time>2026-04-23T04:25:37.001Z</time></trkpt><trkpt lat="-20.860761116450913" lon="118.01745534656548"><ele>46.0</ele><time>2026-04-23T04:25:38.001Z</time></trkpt><trkpt lat="-20.86133976043793" lon="118.02515333510381"><ele>46.0</ele><time>2026-04-23T04:26:04.001Z</time></trkpt><trkpt lat="-20.861361571808573" lon="118.02544774037679"><ele>46.0</ele><time>2026-04-23T04:26:05.001Z</time></trkpt><trkpt lat="-20.86138046228773" lon="118.02573802367326"><ele>46.0</ele><time>2026-04-23T04:26:06.001Z</time></trkpt><trkpt lat="-20.861398660303173" lon="118.02603065899791"><ele>46.0</ele><time>2026-04-23T04:26:07.001Z</time></trkpt><trkpt lat="-20.861420780009514" lon="118.0263234641496"><ele>46.0</ele><time>2026-04-23T04:26:08.001Z</time></trkpt><trkpt lat="-20.861443271256455" lon="118.02661401040899"><ele>46.0</ele><time>2026-04-23T04:26:09.001Z</time></trkpt><trkpt lat="-20.861464866627525" lon="118.02690143165822"><ele>46.0</ele><time>2026-04-23T04:26:10.001Z</time></trkpt><trkpt lat="-20.86148695498765" lon="118.02719093154958"><ele>46.0</ele><time>2026-04-23T04:26:11.001Z</time></trkpt><trkpt lat="-20.861511290674226" lon="118.02748155156986"><ele>47.0</ele><time>2026-04-23T04:26:12.001Z</time></trkpt><trkpt lat="-20.861533678056553" lon="118.02777606404668"><ele>48.0</ele><time>2026-04-23T04:26:13.001Z</time></trkpt><trkpt lat="-20.861553667982193" lon="118.02807182342526"><ele>47.5</ele><time>2026-04-23T04:26:14.001Z</time></trkpt><trkpt lat="-20.861573652567515" lon="118.0283715393146"><ele>47.0</ele><time>2026-04-23T04:26:15.001Z</time></trkpt><trkpt lat="-20.86159699771138" lon="118.0286689981356"><ele>47.0</ele><time>2026-04-23T04:26:16.001Z</time></trkpt><trkpt lat="-20.86162033183944" lon="118.02896578825752"><ele>47.0</ele><time>2026-04-23T04:26:17.001Z</time></trkpt><trkpt lat="-20.86164503732521" lon="118.02926004938823"><ele>47.5</ele><time>2026-04-23T04:26:18.001Z</time></trkpt><trkpt lat="-20.861668904356012" lon="118.02955199775946"><ele>48.0</ele><time>2026-04-23T04:26:19.001Z</time></trkpt><trkpt lat="-20.861691980359097" lon="118.02984456574424"><ele>47.5</ele><time>2026-04-23T04:26:20.001Z</time></trkpt><trkpt lat="-20.861713881496932" lon="118.03013580798512"><ele>47.0</ele><time>2026-04-23T04:26:21.001Z</time></trkpt><trkpt lat="-20.861736302421896" lon="118.03042635231932"><ele>47.0</ele><time>2026-04-23T04:26:21.999Z</time></trkpt><trkpt lat="-20.86175833394127" lon="118.0307122992802"><ele>47.0</ele><time>2026-04-23T04:26:22.999Z</time></trkpt><trkpt lat="-20.861776076811246" lon="118.03099738814248"><ele>47.5</ele><time>2026-04-23T04:26:23.999Z</time></trkpt><trkpt lat="-20.861794747847053" lon="118.03128610147193"><ele>48.0</ele><time>2026-04-23T04:26:24.999Z</time></trkpt><trkpt lat="-20.86181868837494" lon="118.03157690801726"><ele>48.0</ele><time>2026-04-23T04:26:25.999Z</time></trkpt><trkpt lat="-20.861843079254808" lon="118.03187173713317"><ele>48.0</ele><time>2026-04-23T04:26:26.999Z</time></trkpt><trkpt lat="-20.861865955912815" lon="118.0321670128279"><ele>48.0</ele><time>2026-04-23T04:26:27.999Z</time></trkpt><trkpt lat="-20.861888517172712" lon="118.03246175603644"><ele>48.0</ele><time>2026-04-23T04:26:28.999Z</time></trkpt><trkpt lat="-20.86191132885076" lon="118.03275417656641"><ele>48.0</ele><time>2026-04-23T04:26:29.999Z</time></trkpt><trkpt lat="-20.861933481236207" lon="118.0330475217273"><ele>48.0</ele><time>2026-04-23T04:26:30.999Z</time></trkpt><trkpt lat="-20.861951070077847" lon="118.033340755449"><ele>48.0</ele><time>2026-04-23T04:26:31.999Z</time></trkpt><trkpt lat="-20.861971445127846" lon="118.03363032913717"><ele>48.0</ele><time>2026-04-23T04:26:32.999Z</time></trkpt><trkpt lat="-20.861992923870794" lon="118.03392186253558"><ele>48.0</ele><time>2026-04-23T04:26:33.999Z</time></trkpt><trkpt lat="-20.862016504146805" lon="118.03421420735683"><ele>48.0</ele><time>2026-04-23T04:26:34.999Z</time></trkpt><trkpt lat="-20.862038538435918" lon="118.03450702298085"><ele>48.0</ele><time>2026-04-23T04:26:35.999Z</time></trkpt><trkpt lat="-20.862056492796427" lon="118.03479799089665"><ele>48.0</ele><time>2026-04-23T04:26:36.999Z</time></trkpt><trkpt lat="-20.862067133936655" lon="118.03508532032286"><ele>48.5</ele><time>2026-04-23T04:26:37.999Z</time></trkpt><trkpt lat="-20.862067491386767" lon="118.03537290248542"><ele>49.0</ele><time>2026-04-23T04:26:39Z</time></trkpt><trkpt lat="-20.862054626816686" lon="118.03566088668337"><ele>49.5</ele><time>2026-04-23T04:26:40Z</time></trkpt><trkpt lat="-20.862031950497645" lon="118.03594833425686"><ele>50.0</ele><time>2026-04-23T04:26:41Z</time></trkpt><trkpt lat="-20.861999886198852" lon="118.03624554723189"><ele>50.0</ele><time>2026-04-23T04:26:42Z</time></trkpt><trkpt lat="-20.86196012725292" lon="118.0365474607121"><ele>50.0</ele><time>2026-04-23T04:26:43Z</time></trkpt><trkpt lat="-20.861913008100185" lon="118.03685097826076"><ele>51.0</ele><time>2026-04-23T04:26:44Z</time></trkpt><trkpt lat="-20.861860208334015" lon="118.03714946688025"><ele>52.0</ele><time>2026-04-23T04:26:45Z</time></trkpt><trkpt lat="-20.861802217770915" lon="118.03744207101954"><ele>50.0</ele><time>2026-04-23T04:26:46Z</time></trkpt><trkpt lat="-20.86173633362316" lon="118.03773307417516"><ele>48.0</ele><time>2026-04-23T04:26:47Z</time></trkpt><trkpt lat="-20.861655327480495" lon="118.0380205021004"><ele>48.0</ele><time>2026-04-23T04:26:48Z</time></trkpt><trkpt lat="-20.861567625936146" lon="118.03830614245346"><ele>48.0</ele><time>2026-04-23T04:26:49Z</time></trkpt><trkpt lat="-20.861483381995296" lon="118.03859406168912"><ele>48.0</ele><time>2026-04-23T04:26:50Z</time></trkpt><trkpt lat="-20.861404818860013" lon="118.03887744904534"><ele>48.0</ele><time>2026-04-23T04:26:51Z</time></trkpt><trkpt lat="-20.861325504549395" lon="118.03916281120391"><ele>48.0</ele><time>2026-04-23T04:26:52Z</time></trkpt><trkpt lat="-20.861251546026104" lon="118.03944445752869"><ele>48.0</ele><time>2026-04-23T04:26:53Z</time></trkpt><trkpt lat="-20.86117853043061" lon="118.03972370666051"><ele>48.5</ele><time>2026-04-23T04:26:54Z</time></trkpt><trkpt lat="-20.861106562658527" lon="118.0400015002567"><ele>49.0</ele><time>2026-04-23T04:26:55Z</time></trkpt><trkpt lat="-20.861035945940074" lon="118.04027939409274"><ele>49.0</ele><time>2026-04-23T04:26:56Z</time></trkpt><trkpt lat="-20.86096367189961" lon="118.0405532679208"><ele>49.0</ele><time>2026-04-23T04:26:57Z</time></trkpt><trkpt lat="-20.860892183415032" lon="118.04082693145723"><ele>48.0</ele><time>2026-04-23T04:26:58Z</time></trkpt><trkpt lat="-20.860818304531122" lon="118.0410978816686"><ele>47.0</ele><time>2026-04-23T04:26:59Z</time></trkpt><trkpt lat="-20.860743486902347" lon="118.04137116288744"><ele>47.0</ele><time>2026-04-23T04:27:00Z</time></trkpt><trkpt lat="-20.860668505433576" lon="118.0416473859774"><ele>47.0</ele><time>2026-04-23T04:27:01Z</time></trkpt><trkpt lat="-20.86059525604798" lon="118.04192813386913"><ele>47.0</ele><time>2026-04-23T04:27:02Z</time></trkpt><trkpt lat="-20.86052242270373" lon="118.04220869781562"><ele>47.0</ele><time>2026-04-23T04:27:03Z</time></trkpt><trkpt lat="-20.856961483010597" lon="118.0556680239976"><ele>47.5</ele><time>2026-04-23T04:27:50Z</time></trkpt><trkpt lat="-20.856875587350487" lon="118.05597603982459"><ele>48.0</ele><time>2026-04-23T04:27:51Z</time></trkpt><trkpt lat="-20.856790587064037" lon="118.05628711132823"><ele>47.5</ele><time>2026-04-23T04:27:52Z</time></trkpt><trkpt lat="-20.85670870749495" lon="118.05659660220441"><ele>47.0</ele><time>2026-04-23T04:27:53Z</time></trkpt><trkpt lat="-20.85662587958377" lon="118.05690493652087"><ele>49.0</ele><time>2026-04-23T04:27:54Z</time></trkpt><trkpt lat="-20.855836439892435" lon="118.05981549488003"><ele>50.5</ele><time>2026-04-23T04:28:04.001Z</time></trkpt><trkpt lat="-20.855740847062453" lon="118.06007954796053"><ele>52.0</ele><time>2026-04-23T04:28:05.001Z</time></trkpt><trkpt lat="-20.855615335512425" lon="118.06033799121136"><ele>52.0</ele><time>2026-04-23T04:28:06.001Z</time></trkpt><trkpt lat="-20.85548023260711" lon="118.06059364088135"><ele>52.0</ele><time>2026-04-23T04:28:07.001Z</time></trkpt><trkpt lat="-20.855339702880674" lon="118.06084549148744"><ele>52.5</ele><time>2026-04-23T04:28:08.001Z</time></trkpt><trkpt lat="-20.855198417845905" lon="118.06109119122762"><ele>53.0</ele><time>2026-04-23T04:28:09.001Z</time></trkpt><trkpt lat="-20.85505042527708" lon="118.06134086792127"><ele>50.0</ele><time>2026-04-23T04:28:10.001Z</time></trkpt><trkpt lat="-20.85489625080285" lon="118.06159092022666"><ele>47.0</ele><time>2026-04-23T04:28:11.001Z</time></trkpt><trkpt lat="-20.85473465174443" lon="118.0618360644975"><ele>47.0</ele><time>2026-04-23T04:28:12.001Z</time></trkpt><trkpt lat="-20.854563044269348" lon="118.0620695502789"><ele>47.0</ele><time>2026-04-23T04:28:13.001Z</time></trkpt><trkpt lat="-20.854380723895723" lon="118.06229337680712"><ele>46.5</ele><time>2026-04-23T04:28:14.001Z</time></trkpt><trkpt lat="-20.85419197646243" lon="118.06250992832385"><ele>46.0</ele><time>2026-04-23T04:28:15.001Z</time></trkpt><trkpt lat="-20.854001087407205" lon="118.06271943645619"><ele>46.0</ele><time>2026-04-23T04:28:16.001Z</time></trkpt><trkpt lat="-20.85380413727456" lon="118.06292399685354"><ele>46.0</ele><time>2026-04-23T04:28:17.001Z</time></trkpt><trkpt lat="-20.8535989364389" lon="118.06312209739204"><ele>47.0</ele><time>2026-04-23T04:28:18.001Z</time></trkpt><trkpt lat="-20.853392490337203" lon="118.06331462492531"><ele>48.0</ele><time>2026-04-23T04:28:19.001Z</time></trkpt><trkpt lat="-20.853185026416067" lon="118.0635117954572"><ele>48.0</ele><time>2026-04-23T04:28:20.001Z</time></trkpt><trkpt lat="-20.852982200076777" lon="118.06370786444434"><ele>48.0</ele><time>2026-04-23T04:28:21.001Z</time></trkpt><trkpt lat="-20.852780660572286" lon="118.06390751572141"><ele>47.5</ele><time>2026-04-23T04:28:22.001Z</time></trkpt><trkpt lat="-20.85258252635087" lon="118.0641055540951"><ele>47.0</ele><time>2026-04-23T04:28:23.001Z</time></trkpt><trkpt lat="-20.852383148663662" lon="118.0643012522113"><ele>47.0</ele><time>2026-04-23T04:28:24.001Z</time></trkpt><trkpt lat="-20.852184618709934" lon="118.06449598068933"><ele>47.0</ele><time>2026-04-23T04:28:25.001Z</time></trkpt><trkpt lat="-20.851983188023485" lon="118.06469165741234"><ele>47.0</ele><time>2026-04-23T04:28:26.001Z</time></trkpt><trkpt lat="-20.851784781622584" lon="118.06488547485988"><ele>47.0</ele><time>2026-04-23T04:28:27.001Z</time></trkpt><trkpt lat="-20.851586129772326" lon="118.06507925799636"><ele>47.0</ele><time>2026-04-23T04:28:27.999Z</time></trkpt><trkpt lat="-20.851390143684892" lon="118.06527240629848"><ele>47.0</ele><time>2026-04-23T04:28:28.999Z</time></trkpt><trkpt lat="-20.851194507371545" lon="118.06546585890649"><ele>47.0</ele><time>2026-04-23T04:28:29.999Z</time></trkpt><trkpt lat="-20.85099525740439" lon="118.06566063648596"><ele>47.0</ele><time>2026-04-23T04:28:30.999Z</time></trkpt><trkpt lat="-20.850793464327186" lon="118.06585353124275"><ele>47.0</ele><time>2026-04-23T04:28:31.999Z</time></trkpt><trkpt lat="-20.850584773994736" lon="118.06604755068824"><ele>47.0</ele><time>2026-04-23T04:28:32.999Z</time></trkpt><trkpt lat="-20.85037876309026" lon="118.06624330529189"><ele>47.0</ele><time>2026-04-23T04:28:33.999Z</time></trkpt><trkpt lat="-20.85017461494309" lon="118.06644167128147"><ele>47.0</ele><time>2026-04-23T04:28:34.999Z</time></trkpt><trkpt lat="-20.84997321184891" lon="118.06664526354699"><ele>47.5</ele><time>2026-04-23T04:28:35.999Z</time></trkpt><trkpt lat="-20.849772290427506" lon="118.06685082565635"><ele>48.0</ele><time>2026-04-23T04:28:36.999Z</time></trkpt><trkpt lat="-20.84956574616482" lon="118.06705555323825"><ele>48.0</ele><time>2026-04-23T04:28:37.999Z</time></trkpt><trkpt lat="-20.849355926229563" lon="118.06725542267063"><ele>48.0</ele><time>2026-04-23T04:28:38.999Z</time></trkpt><trkpt lat="-20.84914789870564" lon="118.0674560810122"><ele>47.5</ele><time>2026-04-23T04:28:39.999Z</time></trkpt><trkpt lat="-20.8489392415708" lon="118.06766104958736"><ele>47.0</ele><time>2026-04-23T04:28:40.999Z</time></trkpt><trkpt lat="-20.84873476716018" lon="118.06786121145493"><ele>47.0</ele><time>2026-04-23T04:28:41.999Z</time></trkpt><trkpt lat="-20.84853350521849" lon="118.06805555482056"><ele>47.0</ele><time>2026-04-23T04:28:42.999Z</time></trkpt><trkpt lat="-20.84833730944576" lon="118.06824923981455"><ele>46.5</ele><time>2026-04-23T04:28:43.999Z</time></trkpt><trkpt lat="-20.848145189941143" lon="118.06844339749703"><ele>46.0</ele><time>2026-04-23T04:28:44.999Z</time></trkpt><trkpt lat="-20.84795397936241" lon="118.06863043949193"><ele>46.0</ele><time>2026-04-23T04:28:46Z</time></trkpt><trkpt lat="-20.84775974499704" lon="118.06881667251598"><ele>46.0</ele><time>2026-04-23T04:28:47Z</time></trkpt><trkpt lat="-20.847571519211645" lon="118.06899973587369"><ele>46.0</ele><time>2026-04-23T04:28:48Z</time></trkpt><trkpt lat="-20.847382890420207" lon="118.06918744811387"><ele>46.0</ele><time>2026-04-23T04:28:49Z</time></trkpt><trkpt lat="-20.8471909837032" lon="118.06937085542549"><ele>46.0</ele><time>2026-04-23T04:28:50Z</time></trkpt><trkpt lat="-20.84699783798586" lon="118.06955268918662"><ele>46.0</ele><time>2026-04-23T04:28:51Z</time></trkpt><trkpt lat="-20.846812329649325" lon="118.06973736649154"><ele>46.0</ele><time>2026-04-23T04:28:52Z</time></trkpt><trkpt lat="-20.84662795579438" lon="118.06992389982315"><ele>46.0</ele><time>2026-04-23T04:28:53Z</time></trkpt><trkpt lat="-20.846443883882486" lon="118.07011425736766"><ele>46.5</ele><time>2026-04-23T04:28:54Z</time></trkpt><trkpt lat="-20.846265364888872" lon="118.07030875133776"><ele>47.0</ele><time>2026-04-23T04:28:55Z</time></trkpt><trkpt lat="-20.846097939648498" lon="118.07051173620512"><ele>47.0</ele><time>2026-04-23T04:28:56Z</time></trkpt><trkpt lat="-20.84593913008735" lon="118.0707224013804"><ele>47.0</ele><time>2026-04-23T04:28:57Z</time></trkpt><trkpt lat="-20.84578696075329" lon="118.07094498873596"><ele>47.0</ele><time>2026-04-23T04:28:58Z</time></trkpt><trkpt lat="-20.845638236023593" lon="118.07116954834312"><ele>47.0</ele><time>2026-04-23T04:28:59Z</time></trkpt><trkpt lat="-20.84549969531267" lon="118.07138862496802"><ele>47.0</ele><time>2026-04-23T04:29:00Z</time></trkpt><trkpt lat="-20.845373170034055" lon="118.07159943158598"><ele>47.0</ele><time>2026-04-23T04:29:01Z</time></trkpt><trkpt lat="-20.84524679193835" lon="118.0718268687948"><ele>47.0</ele><time>2026-04-23T04:29:02Z</time></trkpt><trkpt lat="-20.84512344557023" lon="118.07206387386826"><ele>47.0</ele><time>2026-04-23T04:29:03Z</time></trkpt><trkpt lat="-20.83705582479724" lon="118.08690334607574"><ele>46.5</ele><time>2026-04-23T04:30:04.001Z</time></trkpt><trkpt lat="-20.83692653940867" lon="118.08713640781508"><ele>46.0</ele><time>2026-04-23T04:30:05.001Z</time></trkpt><trkpt lat="-20.83679508953243" lon="118.08737743060746"><ele>45.5</ele><time>2026-04-23T04:30:06.001Z</time></trkpt><trkpt lat="-20.83666421508868" lon="118.08761454028638"><ele>45.0</ele><time>2026-04-23T04:30:07.001Z</time></trkpt><trkpt lat="-20.83653414631411" lon="118.08784978066585"><ele>45.0</ele><time>2026-04-23T04:30:08.001Z</time></trkpt><trkpt lat="-20.836403414254725" lon="118.08808593337743"><ele>45.0</ele><time>2026-04-23T04:30:09.001Z</time></trkpt><trkpt lat="-20.83627279301712" lon="118.08832713175602"><ele>45.5</ele><time>2026-04-23T04:30:10.001Z</time></trkpt><trkpt lat="-20.836144863598843" lon="118.0885701179165"><ele>46.0</ele><time>2026-04-23T04:30:11.001Z</time></trkpt><trkpt lat="-20.83601709514217" lon="118.0888158652798"><ele>45.5</ele><time>2026-04-23T04:30:12.001Z</time></trkpt><trkpt lat="-20.83587187923577" lon="118.08905039960766"><ele>45.0</ele><time>2026-04-23T04:30:13.001Z</time></trkpt><trkpt lat="-20.83573997108672" lon="118.0892889009959"><ele>45.0</ele><time>2026-04-23T04:30:14.001Z</time></trkpt><trkpt lat="-20.83560661901983" lon="118.0895288863434"><ele>45.0</ele><time>2026-04-23T04:30:15.001Z</time></trkpt><trkpt lat="-20.83547589559537" lon="118.0897670542179"><ele>45.5</ele><time>2026-04-23T04:30:16.001Z</time></trkpt><trkpt lat="-20.835344795074576" lon="118.09000748786518"><ele>46.0</ele><time>2026-04-23T04:30:17.001Z</time></trkpt><trkpt lat="-20.83521447242591" lon="118.09024586494738"><ele>46.0</ele><time>2026-04-23T04:30:18.001Z</time></trkpt><trkpt lat="-20.835080711607656" lon="118.09049070015317"><ele>46.0</ele><time>2026-04-23T04:30:19.001Z</time></trkpt><trkpt lat="-20.83494739330205" lon="118.09073833268819"><ele>45.5</ele><time>2026-04-23T04:30:20.001Z</time></trkpt><trkpt lat="-20.834814010099866" lon="118.09098867198466"><ele>45.0</ele><time>2026-04-23T04:30:21.001Z</time></trkpt><trkpt lat="-20.83469343884606" lon="118.0912454892592"><ele>45.0</ele><time>2026-04-23T04:30:22.001Z</time></trkpt><trkpt lat="-20.83455764832908" lon="118.09149034197512"><ele>45.0</ele><time>2026-04-23T04:30:23.001Z</time></trkpt><trkpt lat="-20.834423042568382" lon="118.09173581518422"><ele>45.0</ele><time>2026-04-23T04:30:24.001Z</time></trkpt><trkpt lat="-20.834286810495573" lon="118.0919846732438"><ele>45.0</ele><time>2026-04-23T04:30:25.001Z</time></trkpt><trkpt lat="-20.834149338126004" lon="118.09223929779549"><ele>45.0</ele><time>2026-04-23T04:30:26.001Z</time></trkpt><trkpt lat="-20.834008554683113" lon="118.09249720785097"><ele>45.0</ele><time>2026-04-23T04:30:27.001Z</time></trkpt><trkpt lat="-20.8338624499715" lon="118.092762022069"><ele>45.0</ele><time>2026-04-23T04:30:28.001Z</time></trkpt><trkpt lat="-20.833721211727468" lon="118.09301955191148"><ele>45.0</ele><time>2026-04-23T04:30:29.001Z</time></trkpt><trkpt lat="-20.833574621422464" lon="118.09328276232121"><ele>45.0</ele><time>2026-04-23T04:30:30.001Z</time></trkpt><trkpt lat="-20.833435061328128" lon="118.09354092863178"><ele>45.0</ele><time>2026-04-23T04:30:31.001Z</time></trkpt><trkpt lat="-20.833298433285005" lon="118.09379911170609"><ele>45.0</ele><time>2026-04-23T04:30:32.001Z</time></trkpt><trkpt lat="-20.83315991847377" lon="118.09405625357343"><ele>45.0</ele><time>2026-04-23T04:30:33.001Z</time></trkpt><trkpt lat="-20.83301826738928" lon="118.09431088840678"><ele>45.5</ele><time>2026-04-23T04:30:34Z</time></trkpt><trkpt lat="-20.832876509694138" lon="118.0945656265588"><ele>46.0</ele><time>2026-04-23T04:30:35Z</time></trkpt><trkpt lat="-20.832736278931925" lon="118.09482107708654"><ele>45.0</ele><time>2026-04-23T04:30:36Z</time></trkpt><trkpt lat="-20.83259632279011" lon="118.09507605921875"><ele>44.0</ele><time>2026-04-23T04:30:37Z</time></trkpt><trkpt lat="-20.832457731476843" lon="118.09533016541776"><ele>44.0</ele><time>2026-04-23T04:30:38Z</time></trkpt><trkpt lat="-20.832321873329327" lon="118.09558267197733"><ele>44.0</ele><time>2026-04-23T04:30:39Z</time></trkpt><trkpt lat="-20.832184156256638" lon="118.09583514036414"><ele>44.5</ele><time>2026-04-23T04:30:40Z</time></trkpt><trkpt lat="-20.83204591904053" lon="118.09608777346648"><ele>45.0</ele><time>2026-04-23T04:30:41Z</time></trkpt><trkpt lat="-20.831901635441387" lon="118.09634186483284"><ele>45.0</ele><time>2026-04-23T04:30:42Z</time></trkpt><trkpt lat="-20.831763017307615" lon="118.09659600755083"><ele>45.0</ele><time>2026-04-23T04:30:43Z</time></trkpt><trkpt lat="-20.831626323574827" lon="118.09685093130416"><ele>45.0</ele><time>2026-04-23T04:30:44Z</time></trkpt><trkpt lat="-20.831488267847433" lon="118.09710449106515"><ele>45.0</ele><time>2026-04-23T04:30:45Z</time></trkpt><trkpt lat="-20.8313541745575" lon="118.09735485958872"><ele>45.0</ele><time>2026-04-23T04:30:46Z</time></trkpt><trkpt lat="-20.831230696440404" lon="118.09759018493992"><ele>45.0</ele><time>2026-04-23T04:30:47Z</time></trkpt><trkpt lat="-20.831112598309524" lon="118.09780773535662"><ele>45.0</ele><time>2026-04-23T04:30:48Z</time></trkpt><trkpt lat="-20.830995750254246" lon="118.09802147920249"><ele>45.0</ele><time>2026-04-23T04:30:49Z</time></trkpt><trkpt lat="-20.830873614821698" lon="118.0982411435967"><ele>45.5</ele><time>2026-04-23T04:30:50Z</time></trkpt><trkpt lat="-20.830744902297727" lon="118.09846946097181"><ele>46.0</ele><time>2026-04-23T04:30:51Z</time></trkpt><trkpt lat="-20.830611018825984" lon="118.09870693789125"><ele>46.0</ele><time>2026-04-23T04:30:52Z</time></trkpt><trkpt lat="-20.830471386165808" lon="118.09895076576208"><ele>46.0</ele><time>2026-04-23T04:30:53Z</time></trkpt><trkpt lat="-20.83032705587385" lon="118.09919925892737"><ele>46.0</ele><time>2026-04-23T04:30:54Z</time></trkpt><trkpt lat="-20.830182687082385" lon="118.09945165880613"><ele>46.0</ele><time>2026-04-23T04:30:55Z</time></trkpt><trkpt lat="-20.83004139484266" lon="118.0997073549604"><ele>45.5</ele><time>2026-04-23T04:30:56Z</time></trkpt><trkpt lat="-20.829901274887504" lon="118.09996462479775"><ele>45.0</ele><time>2026-04-23T04:30:57Z</time></trkpt><trkpt lat="-20.829759670883305" lon="118.10021884547433"><ele>45.0</ele><time>2026-04-23T04:30:58Z</time></trkpt><trkpt lat="-20.829614612824358" lon="118.10047233134544"><ele>45.0</ele><time>2026-04-23T04:30:59Z</time></trkpt><trkpt lat="-20.82947089397054" lon="118.10072701235374"><ele>45.0</ele><time>2026-04-23T04:31:00Z</time></trkpt><trkpt lat="-20.829328319843658" lon="118.10098357167593"><ele>45.0</ele><time>2026-04-23T04:31:01Z</time></trkpt><trkpt lat="-20.829184775628523" lon="118.10123868222136"><ele>45.0</ele><time>2026-04-23T04:31:02Z</time></trkpt><trkpt lat="-20.82904418347888" lon="118.10149358460404"><ele>45.0</ele><time>2026-04-23T04:31:03Z</time></trkpt><trkpt lat="-20.820933447260785" lon="118.11538323553918"><ele>45.0</ele><time>2026-04-23T04:31:57.001Z</time></trkpt><trkpt lat="-20.820748775320503" lon="118.11560639305512"><ele>45.0</ele><time>2026-04-23T04:31:58.001Z</time></trkpt><trkpt lat="-20.820382705330555" lon="118.11605264403445"><ele>43.0</ele><time>2026-04-23T04:32:00.001Z</time></trkpt><trkpt lat="-20.81966376232868" lon="118.1169440875677"><ele>43.0</ele><time>2026-04-23T04:32:04.001Z</time></trkpt><trkpt lat="-20.819480700851553" lon="118.11716967512093"><ele>43.0</ele><time>2026-04-23T04:32:05.001Z</time></trkpt><trkpt lat="-20.81929765382885" lon="118.11739836361215"><ele>43.0</ele><time>2026-04-23T04:32:06.001Z</time></trkpt><trkpt lat="-20.81911302705353" lon="118.1176293565374"><ele>43.0</ele><time>2026-04-23T04:32:07.001Z</time></trkpt><trkpt lat="-20.818926345142614" lon="118.11786153164314"><ele>43.0</ele><time>2026-04-23T04:32:08.001Z</time></trkpt><trkpt lat="-20.818737134770863" lon="118.11809512622652"><ele>43.0</ele><time>2026-04-23T04:32:09.001Z</time></trkpt><trkpt lat="-20.818548022003917" lon="118.11832910299462"><ele>43.0</ele><time>2026-04-23T04:32:10.001Z</time></trkpt><trkpt lat="-20.818357924494478" lon="118.11856410224676"><ele>43.0</ele><time>2026-04-23T04:32:11.001Z</time></trkpt><trkpt lat="-20.818168436696897" lon="118.11880003870442"><ele>43.0</ele><time>2026-04-23T04:32:12.001Z</time></trkpt><trkpt lat="-20.817974900152677" lon="118.11903338582779"><ele>43.0</ele><time>2026-04-23T04:32:13.001Z</time></trkpt><trkpt lat="-20.817784814035882" lon="118.11926272045501"><ele>44.0</ele><time>2026-04-23T04:32:14.001Z</time></trkpt><trkpt lat="-20.817597699148383" lon="118.11949452056713"><ele>45.0</ele><time>2026-04-23T04:32:15.001Z</time></trkpt><trkpt lat="-20.817414272791336" lon="118.11972336843054"><ele>44.0</ele><time>2026-04-23T04:32:16.001Z</time></trkpt><trkpt lat="-20.817233437912552" lon="118.119950546605"><ele>43.0</ele><time>2026-04-23T04:32:17.001Z</time></trkpt><trkpt lat="-20.817051207546513" lon="118.1201790589931"><ele>43.0</ele><time>2026-04-23T04:32:18.001Z</time></trkpt><trkpt lat="-20.8168703950543" lon="118.12040487304725"><ele>43.0</ele><time>2026-04-23T04:32:19.001Z</time></trkpt><trkpt lat="-20.81668953963293" lon="118.12062747435203"><ele>43.0</ele><time>2026-04-23T04:32:20.001Z</time></trkpt><trkpt lat="-20.816512625974706" lon="118.12084602599097"><ele>43.0</ele><time>2026-04-23T04:32:21.001Z</time></trkpt><trkpt lat="-20.81633498959355" lon="118.12106268069067"><ele>43.0</ele><time>2026-04-23T04:32:22.001Z</time></trkpt><trkpt lat="-20.8161580328578" lon="118.12127783634028"><ele>43.0</ele><time>2026-04-23T04:32:23.001Z</time></trkpt><trkpt lat="-20.8159818030948" lon="118.1214961586417"><ele>42.5</ele><time>2026-04-23T04:32:24.001Z</time></trkpt><trkpt lat="-20.815808218871442" lon="118.12171585694162"><ele>42.0</ele><time>2026-04-23T04:32:25.001Z</time></trkpt><trkpt lat="-20.815632425116657" lon="118.12193789757187"><ele>42.0</ele><time>2026-04-23T04:32:26.001Z</time></trkpt><trkpt lat="-20.815440306995942" lon="118.12214902213046"><ele>42.0</ele><time>2026-04-23T04:32:27.001Z</time></trkpt><trkpt lat="-20.815268858994315" lon="118.12238355983288"><ele>42.5</ele><time>2026-04-23T04:32:28.001Z</time></trkpt><trkpt lat="-20.815086286718067" lon="118.12260756317286"><ele>43.0</ele><time>2026-04-23T04:32:29.001Z</time></trkpt><trkpt lat="-20.81489863482585" lon="118.12283822270739"><ele>43.0</ele><time>2026-04-23T04:32:30.001Z</time></trkpt><trkpt lat="-20.814713639652485" lon="118.12306727983812"><ele>43.0</ele><time>2026-04-23T04:32:31.001Z</time></trkpt><trkpt lat="-20.81452709499614" lon="118.12329702961024"><ele>42.5</ele><time>2026-04-23T04:32:32.001Z</time></trkpt><trkpt lat="-20.814339764109164" lon="118.1235291954595"><ele>42.0</ele><time>2026-04-23T04:32:33.001Z</time></trkpt><trkpt lat="-20.814154537072838" lon="118.12376149980011"><ele>42.0</ele><time>2026-04-23T04:32:34.001Z</time></trkpt><trkpt lat="-20.813964885179335" lon="118.12399551444386"><ele>42.0</ele><time>2026-04-23T04:32:35.001Z</time></trkpt><trkpt lat="-20.813772642103153" lon="118.12423105337562"><ele>41.5</ele><time>2026-04-23T04:32:36.001Z</time></trkpt><trkpt lat="-20.813581660251444" lon="118.12446552605238"><ele>41.0</ele><time>2026-04-23T04:32:37.001Z</time></trkpt><trkpt lat="-20.81339228016757" lon="118.12469989057894"><ele>41.5</ele><time>2026-04-23T04:32:38.001Z</time></trkpt><trkpt lat="-20.813205478704873" lon="118.12493165864498"><ele>42.0</ele><time>2026-04-23T04:32:39.001Z</time></trkpt><trkpt lat="-20.81301887973079" lon="118.12516262863268"><ele>42.0</ele><time>2026-04-23T04:32:40Z</time></trkpt><trkpt lat="-20.812834323312725" lon="118.12539075014544"><ele>42.0</ele><time>2026-04-23T04:32:41Z</time></trkpt><trkpt lat="-20.812650537615657" lon="118.12561764371068"><ele>42.0</ele><time>2026-04-23T04:32:42Z</time></trkpt><trkpt lat="-20.812471363823324" lon="118.12584167200347"><ele>42.0</ele><time>2026-04-23T04:32:43Z</time></trkpt><trkpt lat="-20.81229408202628" lon="118.12606694148022"><ele>42.0</ele><time>2026-04-23T04:32:44Z</time></trkpt><trkpt lat="-20.812114608325963" lon="118.12629372181435"><ele>42.0</ele><time>2026-04-23T04:32:45Z</time></trkpt><trkpt lat="-20.811933998870597" lon="118.12652045424264"><ele>41.5</ele><time>2026-04-23T04:32:46Z</time></trkpt><trkpt lat="-20.811752243771334" lon="118.12674645095942"><ele>41.0</ele><time>2026-04-23T04:32:47Z</time></trkpt><trkpt lat="-20.81156801335056" lon="118.1269723162543"><ele>41.0</ele><time>2026-04-23T04:32:48Z</time></trkpt><trkpt lat="-20.81138263210104" lon="118.12719722548236"><ele>41.0</ele><time>2026-04-23T04:32:49Z</time></trkpt><trkpt lat="-20.81119341848222" lon="118.12742837262871"><ele>41.5</ele><time>2026-04-23T04:32:50Z</time></trkpt><trkpt lat="-20.811003923733146" lon="118.12766158196924"><ele>42.0</ele><time>2026-04-23T04:32:51Z</time></trkpt><trkpt lat="-20.810815251346867" lon="118.12789991956201"><ele>42.0</ele><time>2026-04-23T04:32:52Z</time></trkpt><trkpt lat="-20.810633099821576" lon="118.12814245075216"><ele>42.0</ele><time>2026-04-23T04:32:53Z</time></trkpt><trkpt lat="-20.81045808555203" lon="118.12839119839744"><ele>42.0</ele><time>2026-04-23T04:32:54Z</time></trkpt><trkpt lat="-20.81029072010686" lon="118.12864607381373"><ele>42.0</ele><time>2026-04-23T04:32:55Z</time></trkpt><trkpt lat="-20.810132968353415" lon="118.12890369586533"><ele>43.0</ele><time>2026-04-23T04:32:56Z</time></trkpt><trkpt lat="-20.80998040478829" lon="118.12916522086569"><ele>44.0</ele><time>2026-04-23T04:32:57Z</time></trkpt><trkpt lat="-20.809827319388834" lon="118.12942778292194"><ele>44.0</ele><time>2026-04-23T04:32:58Z</time></trkpt><trkpt lat="-20.80966886659602" lon="118.12968361094397"><ele>44.0</ele><time>2026-04-23T04:32:59Z</time></trkpt><trkpt lat="-20.80951102314472" lon="118.12994014420518"><ele>43.0</ele><time>2026-04-23T04:33:00Z</time></trkpt><trkpt lat="-20.809354328190047" lon="118.13020014634039"><ele>42.0</ele><time>2026-04-23T04:33:01Z</time></trkpt><trkpt lat="-20.809197533343227" lon="118.1304652622442"><ele>41.5</ele><time>2026-04-23T04:33:02Z</time></trkpt><trkpt lat="-20.809043685677857" lon="118.1307265810249"><ele>41.0</ele><time>2026-04-23T04:33:03Z</time></trkpt><trkpt lat="-20.799388526998754" lon="118.14661096285482"><ele>42.5</ele><time>2026-04-23T04:34:04.001Z</time></trkpt><trkpt lat="-20.79923487498155" lon="118.14686148640331"><ele>44.0</ele><time>2026-04-23T04:34:05.001Z</time></trkpt><trkpt lat="-20.799080622384896" lon="118.14711179173538"><ele>44.0</ele><time>2026-04-23T04:34:06.001Z</time></trkpt><trkpt lat="-20.79893040189336" lon="118.14736213832167"><ele>44.0</ele><time>2026-04-23T04:34:07.001Z</time></trkpt><trkpt lat="-20.798782309297888" lon="118.14761158693365"><ele>44.0</ele><time>2026-04-23T04:34:08.001Z</time></trkpt><trkpt lat="-20.79863284218768" lon="118.14786260861852"><ele>44.0</ele><time>2026-04-23T04:34:09.001Z</time></trkpt><trkpt lat="-20.798483754741095" lon="118.14811397843582"><ele>44.5</ele><time>2026-04-23T04:34:10.001Z</time></trkpt><trkpt lat="-20.79831814753086" lon="118.14835415874052"><ele>45.0</ele><time>2026-04-23T04:34:11.001Z</time></trkpt><trkpt lat="-20.798181194661776" lon="118.14861196404038"><ele>45.0</ele><time>2026-04-23T04:34:12.001Z</time></trkpt><trkpt lat="-20.798026693260617" lon="118.14886134388239"><ele>45.0</ele><time>2026-04-23T04:34:13.001Z</time></trkpt><trkpt lat="-20.797874072753135" lon="118.14910971641979"><ele>44.5</ele><time>2026-04-23T04:34:14.001Z</time></trkpt><trkpt lat="-20.797724945324024" lon="118.14935771696952"><ele>44.0</ele><time>2026-04-23T04:34:15.001Z</time></trkpt><trkpt lat="-20.79757151556092" lon="118.14960738805684"><ele>44.0</ele><time>2026-04-23T04:34:16.001Z</time></trkpt><trkpt lat="-20.797417712770937" lon="118.14985913613923"><ele>44.0</ele><time>2026-04-23T04:34:17.001Z</time></trkpt><trkpt lat="-20.797263475846776" lon="118.15011259228555"><ele>44.5</ele><time>2026-04-23T04:34:18.001Z</time></trkpt><trkpt lat="-20.797110792539698" lon="118.15036939873858"><ele>45.0</ele><time>2026-04-23T04:34:19.001Z</time></trkpt><trkpt lat="-20.79695418737694" lon="118.15062976138711"><ele>44.0</ele><time>2026-04-23T04:34:20.001Z</time></trkpt><trkpt lat="-20.796794030041667" lon="118.15089310591641"><ele>43.0</ele><time>2026-04-23T04:34:21.001Z</time></trkpt><trkpt lat="-20.7966307266388" lon="118.15116110601251"><ele>43.0</ele><time>2026-04-23T04:34:22.001Z</time></trkpt><trkpt lat="-20.79646956963623" lon="118.15142806929182"><ele>43.0</ele><time>2026-04-23T04:34:23.001Z</time></trkpt><trkpt lat="-20.796308701251526" lon="118.1516971412475"><ele>44.0</ele><time>2026-04-23T04:34:24.001Z</time></trkpt><trkpt lat="-20.796131471387206" lon="118.15195300758604"><ele>45.0</ele><time>2026-04-23T04:34:25.001Z</time></trkpt><trkpt lat="-20.79596791267621" lon="118.1522161135756"><ele>44.5</ele><time>2026-04-23T04:34:26.001Z</time></trkpt><trkpt lat="-20.795806234410858" lon="118.15248326296962"><ele>44.0</ele><time>2026-04-23T04:34:27.001Z</time></trkpt><trkpt lat="-20.795642990819523" lon="118.15275368143328"><ele>44.0</ele><time>2026-04-23T04:34:28.001Z</time></trkpt><trkpt lat="-20.795491248890073" lon="118.1530325037338"><ele>44.0</ele><time>2026-04-23T04:34:29.001Z</time></trkpt><trkpt lat="-20.795327051535427" lon="118.1533038894502"><ele>44.0</ele><time>2026-04-23T04:34:30.001Z</time></trkpt><trkpt lat="-20.7951628463146" lon="118.15357443995907"><ele>44.0</ele><time>2026-04-23T04:34:31.001Z</time></trkpt><trkpt lat="-20.79499834660834" lon="118.153841750053"><ele>44.5</ele><time>2026-04-23T04:34:32.001Z</time></trkpt><trkpt lat="-20.79483594961233" lon="118.15410587171768"><ele>45.0</ele><time>2026-04-23T04:34:33.001Z</time></trkpt><trkpt lat="-20.79467525562548" lon="118.15437008877636"><ele>45.0</ele><time>2026-04-23T04:34:34.001Z</time></trkpt><trkpt lat="-20.79451429217436" lon="118.15463643512791"><ele>45.0</ele><time>2026-04-23T04:34:35.001Z</time></trkpt><trkpt lat="-20.794353066829114" lon="118.15490223798844"><ele>45.0</ele><time>2026-04-23T04:34:36.001Z</time></trkpt><trkpt lat="-20.794191039946483" lon="118.1551685348054"><ele>45.0</ele><time>2026-04-23T04:34:37.001Z</time></trkpt><trkpt lat="-20.794027494303002" lon="118.1554403701362"><ele>44.0</ele><time>2026-04-23T04:34:38.001Z</time></trkpt><trkpt lat="-20.793863086302217" lon="118.15571024047671"><ele>43.0</ele><time>2026-04-23T04:34:39.001Z</time></trkpt><trkpt lat="-20.793698749623424" lon="118.15598174827352"><ele>43.0</ele><time>2026-04-23T04:34:40.001Z</time></trkpt><trkpt lat="-20.793538035145968" lon="118.15625576858666"><ele>43.0</ele><time>2026-04-23T04:34:41.001Z</time></trkpt><trkpt lat="-20.79336236868368" lon="118.15651935740308"><ele>43.5</ele><time>2026-04-23T04:34:42.001Z</time></trkpt><trkpt lat="-20.79319880725893" lon="118.15678722575312"><ele>44.0</ele><time>2026-04-23T04:34:43.001Z</time></trkpt><trkpt lat="-20.793036911965707" lon="118.15705281063542"><ele>44.0</ele><time>2026-04-23T04:34:44.001Z</time></trkpt><trkpt lat="-20.792888555181616" lon="118.15732630260943"><ele>44.0</ele><time>2026-04-23T04:34:45.001Z</time></trkpt><trkpt lat="-20.79272812027123" lon="118.15759053796636"><ele>44.5</ele><time>2026-04-23T04:34:46Z</time></trkpt><trkpt lat="-20.792554265224183" lon="118.15784981883891"><ele>45.0</ele><time>2026-04-23T04:34:47Z</time></trkpt><trkpt lat="-20.79239438096796" lon="118.15811418324276"><ele>44.5</ele><time>2026-04-23T04:34:48Z</time></trkpt><trkpt lat="-20.792234540327765" lon="118.15837847801667"><ele>44.0</ele><time>2026-04-23T04:34:49Z</time></trkpt><trkpt lat="-20.792087789339178" lon="118.15865027201993"><ele>44.0</ele><time>2026-04-23T04:34:50Z</time></trkpt><trkpt lat="-20.791923559253593" lon="118.1589105379622"><ele>44.0</ele><time>2026-04-23T04:34:51Z</time></trkpt><trkpt lat="-20.79175904729445" lon="118.15917488469331"><ele>43.5</ele><time>2026-04-23T04:34:52Z</time></trkpt><trkpt lat="-20.791595443054828" lon="118.15944496752282"><ele>43.0</ele><time>2026-04-23T04:34:53Z</time></trkpt><trkpt lat="-20.79143186313476" lon="118.15971745724033"><ele>43.5</ele><time>2026-04-23T04:34:54Z</time></trkpt><trkpt lat="-20.791269893249293" lon="118.15999019843593"><ele>44.0</ele><time>2026-04-23T04:34:55Z</time></trkpt><trkpt lat="-20.79110638827116" lon="118.16026407514595"><ele>44.5</ele><time>2026-04-23T04:34:56Z</time></trkpt><trkpt lat="-20.790940158397" lon="118.16053959112428"><ele>45.0</ele><time>2026-04-23T04:34:57Z</time></trkpt><trkpt lat="-20.7907695463804" lon="118.1608150528913"><ele>46.0</ele><time>2026-04-23T04:34:58Z</time></trkpt><trkpt lat="-20.79059988196628" lon="118.16108725765702"><ele>47.0</ele><time>2026-04-23T04:34:59Z</time></trkpt><trkpt lat="-20.79043200902358" lon="118.16136188747403"><ele>46.5</ele><time>2026-04-23T04:35:00Z</time></trkpt><trkpt lat="-20.790267700045636" lon="118.16163527279254"><ele>46.0</ele><time>2026-04-23T04:35:01Z</time></trkpt><trkpt lat="-20.790102988837365" lon="118.16190843700747"><ele>46.0</ele><time>2026-04-23T04:35:02Z</time></trkpt><trkpt lat="-20.789938747150877" lon="118.16217772641333"><ele>46.0</ele><time>2026-04-23T04:35:03Z</time></trkpt><trkpt lat="-20.780824375808873" lon="118.1783023694871"><ele>46.5</ele><time>2026-04-23T04:36:04.001Z</time></trkpt><trkpt lat="-20.780682310564252" lon="118.17857651285601"><ele>47.0</ele><time>2026-04-23T04:36:05.001Z</time></trkpt><trkpt lat="-20.780541072746637" lon="118.17885462973479"><ele>47.0</ele><time>2026-04-23T04:36:06.001Z</time></trkpt><trkpt lat="-20.780385390044426" lon="118.17912206314821"><ele>47.0</ele><time>2026-04-23T04:36:07.001Z</time></trkpt><trkpt lat="-20.780241087065278" lon="118.1793955293129"><ele>47.0</ele><time>2026-04-23T04:36:08.001Z</time></trkpt><trkpt lat="-20.78010999368877" lon="118.17967479521332"><ele>47.0</ele><time>2026-04-23T04:36:09.001Z</time></trkpt><trkpt lat="-20.779965020974025" lon="118.1799451429489"><ele>47.0</ele><time>2026-04-23T04:36:10.001Z</time></trkpt><trkpt lat="-20.779822211565854" lon="118.18021950387482"><ele>47.0</ele><time>2026-04-23T04:36:11.001Z</time></trkpt><trkpt lat="-20.779679498777607" lon="118.18049437729836"><ele>47.0</ele><time>2026-04-23T04:36:12.001Z</time></trkpt><trkpt lat="-20.779533800964863" lon="118.1807716946065"><ele>47.0</ele><time>2026-04-23T04:36:13.001Z</time></trkpt><trkpt lat="-20.779387595741312" lon="118.18104648699627"><ele>47.0</ele><time>2026-04-23T04:36:14.001Z</time></trkpt><trkpt lat="-20.779240727157973" lon="118.18132129489454"><ele>47.0</ele><time>2026-04-23T04:36:15.001Z</time></trkpt><trkpt lat="-20.779096734251755" lon="118.18159565282772"><ele>47.0</ele><time>2026-04-23T04:36:16.001Z</time></trkpt><trkpt lat="-20.778950129423748" lon="118.18187361334081"><ele>47.0</ele><time>2026-04-23T04:36:17.001Z</time></trkpt><trkpt lat="-20.778803512095962" lon="118.18215097746433"><ele>47.5</ele><time>2026-04-23T04:36:18.001Z</time></trkpt><trkpt lat="-20.7786588895529" lon="118.18242600812331"><ele>48.0</ele><time>2026-04-23T04:36:19.001Z</time></trkpt><trkpt lat="-20.778512797332976" lon="118.18270255895908"><ele>47.5</ele><time>2026-04-23T04:36:20.001Z</time></trkpt><trkpt lat="-20.77836837242998" lon="118.18297691522442"><ele>47.0</ele><time>2026-04-23T04:36:21.001Z</time></trkpt><trkpt lat="-20.77822624431504" lon="118.18325368133107"><ele>47.0</ele><time>2026-04-23T04:36:22.001Z</time></trkpt><trkpt lat="-20.778085030709036" lon="118.18352709650642"><ele>47.0</ele><time>2026-04-23T04:36:23.001Z</time></trkpt><trkpt lat="-20.77794357993478" lon="118.18380067414773"><ele>47.0</ele><time>2026-04-23T04:36:24.001Z</time></trkpt><trkpt lat="-20.777788752242348" lon="118.18406243261964"><ele>47.0</ele><time>2026-04-23T04:36:25.001Z</time></trkpt><trkpt lat="-20.77764911663498" lon="118.1843290929194"><ele>46.5</ele><time>2026-04-23T04:36:26.001Z</time></trkpt><trkpt lat="-20.777522360479267" lon="118.18460674624835"><ele>46.0</ele><time>2026-04-23T04:36:27.001Z</time></trkpt><trkpt lat="-20.777378210605224" lon="118.18487774128394"><ele>46.0</ele><time>2026-04-23T04:36:28.001Z</time></trkpt><trkpt lat="-20.77723500490088" lon="118.1851507092532"><ele>46.0</ele><time>2026-04-23T04:36:29.001Z</time></trkpt><trkpt lat="-20.77709327238996" lon="118.1854258633447"><ele>46.0</ele><time>2026-04-23T04:36:30.001Z</time></trkpt><trkpt lat="-20.776950414048123" lon="118.18570120910786"><ele>46.0</ele><time>2026-04-23T04:36:31.001Z</time></trkpt><trkpt lat="-20.77680786464597" lon="118.1859719238261"><ele>46.0</ele><time>2026-04-23T04:36:32.001Z</time></trkpt><trkpt lat="-20.776663034997643" lon="118.18624330636912"><ele>46.0</ele><time>2026-04-23T04:36:33.001Z</time></trkpt><trkpt lat="-20.77651377258054" lon="118.18651416244022"><ele>45.5</ele><time>2026-04-23T04:36:34.001Z</time></trkpt><trkpt lat="-20.77636876313497" lon="118.18678030167344"><ele>45.0</ele><time>2026-04-23T04:36:35.001Z</time></trkpt><trkpt lat="-20.77622739942879" lon="118.18705022189113"><ele>45.0</ele><time>2026-04-23T04:36:36.001Z</time></trkpt><trkpt lat="-20.776089862239736" lon="118.18732288036418"><ele>45.0</ele><time>2026-04-23T04:36:37.001Z</time></trkpt><trkpt lat="-20.775953261255825" lon="118.18759396725365"><ele>46.0</ele><time>2026-04-23T04:36:38.001Z</time></trkpt><trkpt lat="-20.775812711143963" lon="118.18786426548138"><ele>47.0</ele><time>2026-04-23T04:36:39.001Z</time></trkpt><trkpt lat="-20.77567235566471" lon="118.18813112912339"><ele>46.5</ele><time>2026-04-23T04:36:40.001Z</time></trkpt><trkpt lat="-20.775530229534464" lon="118.18839863227713"><ele>46.0</ele><time>2026-04-23T04:36:41.001Z</time></trkpt><trkpt lat="-20.7753866108611" lon="118.18866859110372"><ele>46.0</ele><time>2026-04-23T04:36:42.001Z</time></trkpt><trkpt lat="-20.77524446766877" lon="118.18894010902235"><ele>46.0</ele><time>2026-04-23T04:36:43.001Z</time></trkpt><trkpt lat="-20.775102214282853" lon="118.18920879307268"><ele>46.0</ele><time>2026-04-23T04:36:44.001Z</time></trkpt><trkpt lat="-20.77495992031742" lon="118.18947532089972"><ele>46.0</ele><time>2026-04-23T04:36:45.001Z</time></trkpt><trkpt lat="-20.77481992208521" lon="118.1897420480257"><ele>46.5</ele><time>2026-04-23T04:36:46.001Z</time></trkpt><trkpt lat="-20.774681845297106" lon="118.19001005221314"><ele>47.0</ele><time>2026-04-23T04:36:47.001Z</time></trkpt><trkpt lat="-20.774542345325806" lon="118.19027725663194"><ele>47.0</ele><time>2026-04-23T04:36:48.001Z</time></trkpt><trkpt lat="-20.774401809344255" lon="118.19054426694684"><ele>47.0</ele><time>2026-04-23T04:36:49.001Z</time></trkpt><trkpt lat="-20.774261727808973" lon="118.19081465675819"><ele>47.0</ele><time>2026-04-23T04:36:50.001Z</time></trkpt><trkpt lat="-20.774106830900976" lon="118.19107319517428"><ele>47.0</ele><time>2026-04-23T04:36:51.001Z</time></trkpt><trkpt lat="-20.773986397430683" lon="118.19134870321415"><ele>46.5</ele><time>2026-04-23T04:36:52.001Z</time></trkpt><trkpt lat="-20.77384690022088" lon="118.1916098198884"><ele>46.0</ele><time>2026-04-23T04:36:53.001Z</time></trkpt><trkpt lat="-20.773708183894275" lon="118.1918677938994"><ele>46.0</ele><time>2026-04-23T04:36:54.001Z</time></trkpt><trkpt lat="-20.773567640159666" lon="118.19212948265888"><ele>46.0</ele><time>2026-04-23T04:36:55.001Z</time></trkpt><trkpt lat="-20.773425781643876" lon="118.1923951403419"><ele>46.0</ele><time>2026-04-23T04:36:56Z</time></trkpt><trkpt lat="-20.77328399092735" lon="118.19266578381084"><ele>46.0</ele><time>2026-04-23T04:36:57Z</time></trkpt><trkpt lat="-20.773139791815836" lon="118.19294138708518"><ele>47.0</ele><time>2026-04-23T04:36:58Z</time></trkpt><trkpt lat="-20.77299738932603" lon="118.19321889156772"><ele>48.0</ele><time>2026-04-23T04:36:59Z</time></trkpt><trkpt lat="-20.77285384035758" lon="118.19349885427907"><ele>48.0</ele><time>2026-04-23T04:37:00Z</time></trkpt><trkpt lat="-20.77270743959503" lon="118.1937789602212"><ele>48.0</ele><time>2026-04-23T04:37:01Z</time></trkpt><trkpt lat="-20.772559986684616" lon="118.19405689154742"><ele>47.0</ele><time>2026-04-23T04:37:02Z</time></trkpt><trkpt lat="-20.77241310898711" lon="118.19433304833859"><ele>46.0</ele><time>2026-04-23T04:37:03Z</time></trkpt><trkpt lat="-20.764028798218355" lon="118.21028102943244"><ele>46.0</ele><time>2026-04-23T04:38:04.001Z</time></trkpt><trkpt lat="-20.76388833655994" lon="118.21054778758104"><ele>46.0</ele><time>2026-04-23T04:38:05.001Z</time></trkpt><trkpt lat="-20.763749977320867" lon="118.21081664908208"><ele>46.0</ele><time>2026-04-23T04:38:06.001Z</time></trkpt><trkpt lat="-20.763610802494114" lon="118.21108302927925"><ele>46.0</ele><time>2026-04-23T04:38:07.001Z</time></trkpt><trkpt lat="-20.763471514465845" lon="118.21134957338268"><ele>46.0</ele><time>2026-04-23T04:38:08.001Z</time></trkpt><trkpt lat="-20.76333201908745" lon="118.21161322282799"><ele>46.0</ele><time>2026-04-23T04:38:09.001Z</time></trkpt><trkpt lat="-20.76319226620259" lon="118.21187763025718"><ele>46.0</ele><time>2026-04-23T04:38:10.001Z</time></trkpt><trkpt lat="-20.763037406929403" lon="118.21213412867726"><ele>46.0</ele><time>2026-04-23T04:38:11.001Z</time></trkpt><trkpt lat="-20.76291162462446" lon="118.2124104380013"><ele>46.0</ele><time>2026-04-23T04:38:12.001Z</time></trkpt><trkpt lat="-20.762771386298766" lon="118.21268033223897"><ele>46.0</ele><time>2026-04-23T04:38:13.001Z</time></trkpt><trkpt lat="-20.762618048568036" lon="118.21293751603959"><ele>45.5</ele><time>2026-04-23T04:38:14.001Z</time></trkpt><trkpt lat="-20.762479992946943" lon="118.21320421507447"><ele>45.0</ele><time>2026-04-23T04:38:15.001Z</time></trkpt><trkpt lat="-20.76234153074757" lon="118.21346926939395"><ele>45.0</ele><time>2026-04-23T04:38:16.001Z</time></trkpt><trkpt lat="-20.762201748912275" lon="118.2137357781482"><ele>45.0</ele><time>2026-04-23T04:38:17.001Z</time></trkpt><trkpt lat="-20.762060099338353" lon="118.21400436715905"><ele>45.5</ele><time>2026-04-23T04:38:18.001Z</time></trkpt><trkpt lat="-20.76193033320474" lon="118.21428398278489"><ele>46.0</ele><time>2026-04-23T04:38:19.001Z</time></trkpt><trkpt lat="-20.761789934806284" lon="118.2145534230948"><ele>45.5</ele><time>2026-04-23T04:38:20.001Z</time></trkpt><trkpt lat="-20.761636838299932" lon="118.21480994838497"><ele>45.0</ele><time>2026-04-23T04:38:21.001Z</time></trkpt><trkpt lat="-20.761497757101175" lon="118.21507452688772"><ele>45.0</ele><time>2026-04-23T04:38:22.001Z</time></trkpt><trkpt lat="-20.761360127103767" lon="118.21533646167262"><ele>45.0</ele><time>2026-04-23T04:38:23.001Z</time></trkpt><trkpt lat="-20.761222999262475" lon="118.2155965475356"><ele>45.0</ele><time>2026-04-23T04:38:24.001Z</time></trkpt><trkpt lat="-20.7610848233526" lon="118.21585587233095"><ele>45.0</ele><time>2026-04-23T04:38:25.001Z</time></trkpt><trkpt lat="-20.760944944107344" lon="118.21611839389263"><ele>44.5</ele><time>2026-04-23T04:38:26.001Z</time></trkpt><trkpt lat="-20.760806221404604" lon="118.21638011112272"><ele>44.0</ele><time>2026-04-23T04:38:27.001Z</time></trkpt><trkpt lat="-20.760667587106546" lon="118.21664208494866"><ele>43.5</ele><time>2026-04-23T04:38:28.001Z</time></trkpt><trkpt lat="-20.76053068421875" lon="118.21690357760939"><ele>43.0</ele><time>2026-04-23T04:38:29.001Z</time></trkpt><trkpt lat="-20.76039363007945" lon="118.21716562249797"><ele>43.5</ele><time>2026-04-23T04:38:30.001Z</time></trkpt><trkpt lat="-20.760256458422536" lon="118.21742610073517"><ele>44.0</ele><time>2026-04-23T04:38:31.001Z</time></trkpt><trkpt lat="-20.760118472514634" lon="118.21768947413129"><ele>44.5</ele><time>2026-04-23T04:38:32.001Z</time></trkpt><trkpt lat="-20.759980667882804" lon="118.2179528615549"><ele>45.0</ele><time>2026-04-23T04:38:33.001Z</time></trkpt><trkpt lat="-20.75984519292646" lon="118.21821635469253"><ele>45.0</ele><time>2026-04-23T04:38:34.001Z</time></trkpt><trkpt lat="-20.75971928164879" lon="118.21848866363835"><ele>45.0</ele><time>2026-04-23T04:38:35.001Z</time></trkpt><trkpt lat="-20.7595804820682" lon="118.21875293400403"><ele>45.0</ele><time>2026-04-23T04:38:36.001Z</time></trkpt><trkpt lat="-20.75944127639787" lon="118.21901913921849"><ele>45.0</ele><time>2026-04-23T04:38:37.001Z</time></trkpt><trkpt lat="-20.759301956211264" lon="118.21928773507604"><ele>45.0</ele><time>2026-04-23T04:38:38.001Z</time></trkpt><trkpt lat="-20.759161874853735" lon="118.21955554816279"><ele>45.0</ele><time>2026-04-23T04:38:39.001Z</time></trkpt><trkpt lat="-20.759003588261848" lon="118.21981432027498"><ele>45.0</ele><time>2026-04-23T04:38:40.001Z</time></trkpt><trkpt lat="-20.758861851033977" lon="118.22008295716715"><ele>45.0</ele><time>2026-04-23T04:38:41.001Z</time></trkpt><trkpt lat="-20.75872498389787" lon="118.22034541571975"><ele>45.0</ele><time>2026-04-23T04:38:42.001Z</time></trkpt><trkpt lat="-20.758588782932453" lon="118.22060731326192"><ele>45.0</ele><time>2026-04-23T04:38:43.001Z</time></trkpt><trkpt lat="-20.758452712242033" lon="118.22086934170666"><ele>44.5</ele><time>2026-04-23T04:38:44.001Z</time></trkpt><trkpt lat="-20.7583159926387" lon="118.22113272415181"><ele>44.0</ele><time>2026-04-23T04:38:45.001Z</time></trkpt><trkpt lat="-20.7581784212234" lon="118.2213944957446"><ele>44.5</ele><time>2026-04-23T04:38:46.001Z</time></trkpt><trkpt lat="-20.75805463884601" lon="118.2216622336961"><ele>45.0</ele><time>2026-04-23T04:38:47.001Z</time></trkpt><trkpt lat="-20.757915523199472" lon="118.22192149432989"><ele>45.0</ele><time>2026-04-23T04:38:48.001Z</time></trkpt><trkpt lat="-20.757777013408077" lon="118.22218211816929"><ele>45.0</ele><time>2026-04-23T04:38:49.001Z</time></trkpt><trkpt lat="-20.757638780898706" lon="118.2224466969617"><ele>44.5</ele><time>2026-04-23T04:38:50.001Z</time></trkpt><trkpt lat="-20.757504095893747" lon="118.22271205074514"><ele>44.0</ele><time>2026-04-23T04:38:51.001Z</time></trkpt><trkpt lat="-20.7573512161844" lon="118.2229720661268"><ele>45.0</ele><time>2026-04-23T04:38:52.001Z</time></trkpt><trkpt lat="-20.757211324050033" lon="118.22324158034583"><ele>46.0</ele><time>2026-04-23T04:38:53.001Z</time></trkpt><trkpt lat="-20.757080917825984" lon="118.22351626146921"><ele>46.0</ele><time>2026-04-23T04:38:54.001Z</time></trkpt><trkpt lat="-20.756936915629293" lon="118.22378016454476"><ele>46.0</ele><time>2026-04-23T04:38:55.001Z</time></trkpt><trkpt lat="-20.75679243046414" lon="118.2240418052651"><ele>46.0</ele><time>2026-04-23T04:38:56.001Z</time></trkpt><trkpt lat="-20.756643405790452" lon="118.22430127620666"><ele>46.0</ele><time>2026-04-23T04:38:57.001Z</time></trkpt><trkpt lat="-20.756486210944402" lon="118.22455819435882"><ele>46.0</ele><time>2026-04-23T04:38:58Z</time></trkpt><trkpt lat="-20.756320046663095" lon="118.22480828621146"><ele>46.0</ele><time>2026-04-23T04:38:59Z</time></trkpt><trkpt lat="-20.756145792150537" lon="118.22505038474961"><ele>45.5</ele><time>2026-04-23T04:39:00Z</time></trkpt><trkpt lat="-20.75596276248277" lon="118.22528192290348"><ele>45.0</ele><time>2026-04-23T04:39:01Z</time></trkpt><trkpt lat="-20.755775736000096" lon="118.2255079157696"><ele>44.5</ele><time>2026-04-23T04:39:02Z</time></trkpt><trkpt lat="-20.75559093728781" lon="118.22573480809643"><ele>44.0</ele><time>2026-04-23T04:39:03Z</time></trkpt><trkpt lat="-20.744802638509835" lon="118.23960688158296"><ele>44.0</ele><time>2026-04-23T04:40:04Z</time></trkpt><trkpt lat="-20.744618636062906" lon="118.23983972551162"><ele>44.0</ele><time>2026-04-23T04:40:05Z</time></trkpt><trkpt lat="-20.744436133542138" lon="118.24007473887075"><ele>44.5</ele><time>2026-04-23T04:40:06Z</time></trkpt><trkpt lat="-20.74425583349979" lon="118.24030850593581"><ele>45.0</ele><time>2026-04-23T04:40:07Z</time></trkpt><trkpt lat="-20.74407295342475" lon="118.24054145215676"><ele>45.0</ele><time>2026-04-23T04:40:08Z</time></trkpt><trkpt lat="-20.743888473038965" lon="118.24077654819513"><ele>45.0</ele><time>2026-04-23T04:40:09Z</time></trkpt><trkpt lat="-20.74370400544511" lon="118.24101273939648"><ele>44.5</ele><time>2026-04-23T04:40:10Z</time></trkpt><trkpt lat="-20.743521135212102" lon="118.24124902433242"><ele>44.0</ele><time>2026-04-23T04:40:11Z</time></trkpt><trkpt lat="-20.743339889899772" lon="118.2414853871799"><ele>45.0</ele><time>2026-04-23T04:40:12Z</time></trkpt><trkpt lat="-20.74315905757623" lon="118.24172042068876"><ele>46.0</ele><time>2026-04-23T04:40:13Z</time></trkpt><trkpt lat="-20.742977986441563" lon="118.24195341619378"><ele>46.0</ele><time>2026-04-23T04:40:14Z</time></trkpt><trkpt lat="-20.742793333599682" lon="118.24218875141104"><ele>46.0</ele><time>2026-04-23T04:40:15Z</time></trkpt><trkpt lat="-20.742610442583242" lon="118.24242303040808"><ele>46.0</ele><time>2026-04-23T04:40:16Z</time></trkpt><trkpt lat="-20.742426722294802" lon="118.24265599869543"><ele>46.0</ele><time>2026-04-23T04:40:17Z</time></trkpt><trkpt lat="-20.74224589838745" lon="118.24288536358738"><ele>46.0</ele><time>2026-04-23T04:40:18Z</time></trkpt><trkpt lat="-20.742069320287865" lon="118.24311511824732"><ele>46.0</ele><time>2026-04-23T04:40:19Z</time></trkpt><trkpt lat="-20.741891784426933" lon="118.24334281225876"><ele>45.5</ele><time>2026-04-23T04:40:20Z</time></trkpt><trkpt lat="-20.741714684903627" lon="118.24356832137546"><ele>45.0</ele><time>2026-04-23T04:40:21Z</time></trkpt><trkpt lat="-20.74154133369597" lon="118.24379205342818"><ele>45.0</ele><time>2026-04-23T04:40:22Z</time></trkpt><trkpt lat="-20.741371738186423" lon="118.24401310187562"><ele>45.0</ele><time>2026-04-23T04:40:23Z</time></trkpt><trkpt lat="-20.74120314745376" lon="118.24423012621136"><ele>44.5</ele><time>2026-04-23T04:40:24Z</time></trkpt><trkpt lat="-20.741032798955747" lon="118.24444368266765"><ele>44.0</ele><time>2026-04-23T04:40:25Z</time></trkpt><trkpt lat="-20.740861212656" lon="118.24465894935389"><ele>44.0</ele><time>2026-04-23T04:40:26Z</time></trkpt><trkpt lat="-20.74068916051337" lon="118.24487723830825"><ele>44.0</ele><time>2026-04-23T04:40:27Z</time></trkpt><trkpt lat="-20.740515068971654" lon="118.24510277483314"><ele>44.0</ele><time>2026-04-23T04:40:28Z</time></trkpt><trkpt lat="-20.740345052360205" lon="118.2453298793765"><ele>44.0</ele><time>2026-04-23T04:40:29Z</time></trkpt><trkpt lat="-20.74017446179106" lon="118.24555637569637"><ele>44.0</ele><time>2026-04-23T04:40:30Z</time></trkpt><trkpt lat="-20.740004756945105" lon="118.24578447579093"><ele>44.0</ele><time>2026-04-23T04:40:31Z</time></trkpt><trkpt lat="-20.73983090123549" lon="118.24600874729019"><ele>44.0</ele><time>2026-04-23T04:40:32Z</time></trkpt><trkpt lat="-20.739656432684797" lon="118.24622482291484"><ele>44.0</ele><time>2026-04-23T04:40:33Z</time></trkpt><trkpt lat="-20.73948304088988" lon="118.24644009064285"><ele>45.0</ele><time>2026-04-23T04:40:34Z</time></trkpt><trkpt lat="-20.739313692800906" lon="118.2466533749961"><ele>46.0</ele><time>2026-04-23T04:40:35Z</time></trkpt><trkpt lat="-20.739145636545732" lon="118.2468687774489"><ele>46.0</ele><time>2026-04-23T04:40:36Z</time></trkpt><trkpt lat="-20.73897632645767" lon="118.24708737573854"><ele>46.0</ele><time>2026-04-23T04:40:37Z</time></trkpt><trkpt lat="-20.73880367319661" lon="118.24731214327745"><ele>46.0</ele><time>2026-04-23T04:40:38Z</time></trkpt><trkpt lat="-20.73862907000505" lon="118.24753909010518"><ele>46.0</ele><time>2026-04-23T04:40:39Z</time></trkpt><trkpt lat="-20.738453425538736" lon="118.2477668117082"><ele>45.5</ele><time>2026-04-23T04:40:40Z</time></trkpt><trkpt lat="-20.738276402508017" lon="118.24799110001874"><ele>45.0</ele><time>2026-04-23T04:40:41Z</time></trkpt><trkpt lat="-20.738099812270566" lon="118.24821649625198"><ele>45.0</ele><time>2026-04-23T04:40:42.001Z</time></trkpt><trkpt lat="-20.73792401323854" lon="118.24844304864435"><ele>45.0</ele><time>2026-04-23T04:40:43.001Z</time></trkpt><trkpt lat="-20.737746804925244" lon="118.24867225560058"><ele>45.0</ele><time>2026-04-23T04:40:44.001Z</time></trkpt><trkpt lat="-20.737569333350077" lon="118.24890153654225"><ele>45.0</ele><time>2026-04-23T04:40:45.001Z</time></trkpt><trkpt lat="-20.737390454831594" lon="118.24913212496598"><ele>45.0</ele><time>2026-04-23T04:40:46.001Z</time></trkpt><trkpt lat="-20.73721457265293" lon="118.24936059869574"><ele>45.0</ele><time>2026-04-23T04:40:47.001Z</time></trkpt><trkpt lat="-20.737038354351593" lon="118.2495887488924"><ele>44.5</ele><time>2026-04-23T04:40:48.001Z</time></trkpt><trkpt lat="-20.736860758204177" lon="118.24981643038907"><ele>44.0</ele><time>2026-04-23T04:40:49.001Z</time></trkpt><trkpt lat="-20.73668332021446" lon="118.25004271806425"><ele>44.0</ele><time>2026-04-23T04:40:50.001Z</time></trkpt><trkpt lat="-20.736506475604664" lon="118.25026742511002"><ele>44.0</ele><time>2026-04-23T04:40:51.001Z</time></trkpt><trkpt lat="-20.736331693895842" lon="118.25049134514757"><ele>44.5</ele><time>2026-04-23T04:40:52.001Z</time></trkpt><trkpt lat="-20.736157814542533" lon="118.2507130145647"><ele>45.0</ele><time>2026-04-23T04:40:53.001Z</time></trkpt><trkpt lat="-20.735984890309897" lon="118.2509345594896"><ele>45.0</ele><time>2026-04-23T04:40:54.001Z</time></trkpt><trkpt lat="-20.735821856806275" lon="118.25114651729695"><ele>45.0</ele><time>2026-04-23T04:40:55.001Z</time></trkpt><trkpt lat="-20.735666358179408" lon="118.25135067694727"><ele>44.5</ele><time>2026-04-23T04:40:56.001Z</time></trkpt><trkpt lat="-20.73550353680251" lon="118.25156522569313"><ele>44.0</ele><time>2026-04-23T04:40:57.001Z</time></trkpt><trkpt lat="-20.735339441936976" lon="118.25178344937602"><ele>44.0</ele><time>2026-04-23T04:40:58.001Z</time></trkpt><trkpt lat="-20.735172978292344" lon="118.25200349769396"><ele>44.0</ele><time>2026-04-23T04:40:59.001Z</time></trkpt><trkpt lat="-20.73500356836297" lon="118.25222237437318"><ele>44.5</ele><time>2026-04-23T04:41:00.001Z</time></trkpt><trkpt lat="-20.734827613952408" lon="118.25244161938764"><ele>45.0</ele><time>2026-04-23T04:41:01.001Z</time></trkpt><trkpt lat="-20.734651383496853" lon="118.25266408205452"><ele>45.0</ele><time>2026-04-23T04:41:02.001Z</time></trkpt><trkpt lat="-20.73447507887658" lon="118.25288833327097"><ele>45.0</ele><time>2026-04-23T04:41:03.001Z</time></trkpt><trkpt lat="-20.725476329368195" lon="118.26392889453099"><ele>45.0</ele><time>2026-04-23T04:42:04Z</time></trkpt><trkpt lat="-20.725330527855927" lon="118.26408704422842"><ele>45.0</ele><time>2026-04-23T04:42:05Z</time></trkpt><trkpt lat="-20.725187146058403" lon="118.26423805682637"><ele>45.0</ele><time>2026-04-23T04:42:06Z</time></trkpt><trkpt lat="-20.725041353718666" lon="118.2643940082797"><ele>45.0</ele><time>2026-04-23T04:42:07Z</time></trkpt><trkpt lat="-20.72490380812608" lon="118.26454463842333"><ele>45.0</ele><time>2026-04-23T04:42:08Z</time></trkpt><trkpt lat="-20.724766324863644" lon="118.2646951420417"><ele>45.0</ele><time>2026-04-23T04:42:09Z</time></trkpt><trkpt lat="-20.724630195811525" lon="118.26484653123454"><ele>45.333333333333336</ele><time>2026-04-23T04:42:10Z</time></trkpt><trkpt lat="-20.724487963719497" lon="118.26500441867289"><ele>45.66666666666667</ele><time>2026-04-23T04:42:11Z</time></trkpt><trkpt lat="-20.724346711207527" lon="118.2651664402481"><ele>46.0</ele><time>2026-04-23T04:42:12Z</time></trkpt><trkpt lat="-20.72420326582967" lon="118.26532670139751"><ele>46.0</ele><time>2026-04-23T04:42:13Z</time></trkpt><trkpt lat="-20.72406746872869" lon="118.26547520682658"><ele>46.0</ele><time>2026-04-23T04:42:14Z</time></trkpt><trkpt lat="-20.723933749894744" lon="118.26561778386854"><ele>46.0</ele><time>2026-04-23T04:42:15Z</time></trkpt><trkpt lat="-20.72380918985027" lon="118.26574743319313"><ele>45.66666666666667</ele><time>2026-04-23T04:42:16Z</time></trkpt><trkpt lat="-20.723692058695075" lon="118.26587151155327"><ele>45.333333333333336</ele><time>2026-04-23T04:42:17Z</time></trkpt><trkpt lat="-20.723588320855384" lon="118.26598730718194"><ele>45.0</ele><time>2026-04-23T04:42:18Z</time></trkpt><trkpt lat="-20.7234865634035" lon="118.26609984344508"><ele>45.0</ele><time>2026-04-23T04:42:19Z</time></trkpt><trkpt lat="-20.723387978086112" lon="118.26620555468706"><ele>45.0</ele><time>2026-04-23T04:42:20Z</time></trkpt><trkpt lat="-20.723289923259888" lon="118.26630743970344"><ele>45.0</ele><time>2026-04-23T04:42:21Z</time></trkpt><trkpt lat="-20.723193868343962" lon="118.26640800343026"><ele>45.0</ele><time>2026-04-23T04:42:22Z</time></trkpt><trkpt lat="-20.723107687638763" lon="118.26649880072956"><ele>45.0</ele><time>2026-04-23T04:42:23Z</time></trkpt><trkpt lat="-20.723029845601996" lon="118.26658358374229"><ele>45.0</ele><time>2026-04-23T04:42:24Z</time></trkpt><trkpt lat="-20.722956136887344" lon="118.26666454178758"><ele>45.0</ele><time>2026-04-23T04:42:25Z</time></trkpt><trkpt lat="-20.722889874114603" lon="118.26673905005265"><ele>45.0</ele><time>2026-04-23T04:42:26Z</time></trkpt><trkpt lat="-20.72283104183714" lon="118.26680273325258"><ele>45.0</ele><time>2026-04-23T04:42:27Z</time></trkpt><trkpt lat="-20.72278229101213" lon="118.26685097365734"><ele>45.0</ele><time>2026-04-23T04:42:28Z</time></trkpt><trkpt lat="-20.722731239992864" lon="118.26689224072527"><ele>45.0</ele><time>2026-04-23T04:42:29Z</time></trkpt><trkpt lat="-20.72266912190176" lon="118.26690519114516"><ele>45.0</ele><time>2026-04-23T04:42:30Z</time></trkpt><trkpt lat="-20.722563116294452" lon="118.26679213634124"><ele>45.0</ele><time>2026-04-23T04:42:32Z</time></trkpt><trkpt lat="-20.722498201160967" lon="118.2667300379066"><ele>45.0</ele><time>2026-04-23T04:42:33Z</time></trkpt><trkpt lat="-20.722428132272594" lon="118.26666300419623"><ele>45.0</ele><time>2026-04-23T04:42:34Z</time></trkpt><trkpt lat="-20.7223591323255" lon="118.2665969778334"><ele>45.0</ele><time>2026-04-23T04:42:35Z</time></trkpt><trkpt lat="-20.722295775594013" lon="118.26653635148931"><ele>45.0</ele><time>2026-04-23T04:42:36Z</time></trkpt><trkpt lat="-20.722240041957438" lon="118.26648301971915"><ele>45.0</ele><time>2026-04-23T04:42:37Z</time></trkpt><trkpt lat="-20.72215286184354" lon="118.26641454987418"><ele>45.0</ele><time>2026-04-23T04:42:39Z</time></trkpt><trkpt lat="-20.722103623929783" lon="118.26635433539931"><ele>45.0</ele><time>2026-04-23T04:42:41Z</time></trkpt><trkpt lat="-20.71963291718533" lon="118.27034640741272"><ele>45.0</ele><time>2026-04-23T04:43:48Z</time></trkpt><trkpt lat="-20.719463688714008" lon="118.2705293247228"><ele>45.0</ele><time>2026-04-23T04:43:49Z</time></trkpt><trkpt lat="-20.716913605185926" lon="118.27331549633915"><ele>45.0</ele><time>2026-04-23T04:44:04Z</time></trkpt><trkpt lat="-20.716741773295702" lon="118.27350371342457"><ele>45.0</ele><time>2026-04-23T04:44:05Z</time></trkpt><trkpt lat="-20.716573323693268" lon="118.27369223122865"><ele>45.0</ele><time>2026-04-23T04:44:06Z</time></trkpt><trkpt lat="-20.716399802701417" lon="118.27388408381162"><ele>45.0</ele><time>2026-04-23T04:44:07Z</time></trkpt><trkpt lat="-20.716231605741818" lon="118.2740737084595"><ele>44.5</ele><time>2026-04-23T04:44:08Z</time></trkpt><trkpt lat="-20.716062198835537" lon="118.27426600720273"><ele>44.0</ele><time>2026-04-23T04:44:09Z</time></trkpt><trkpt lat="-20.715891224052616" lon="118.2744557251405"><ele>44.0</ele><time>2026-04-23T04:44:10Z</time></trkpt><trkpt lat="-20.71571397265475" lon="118.27464555392179"><ele>44.0</ele><time>2026-04-23T04:44:11Z</time></trkpt><trkpt lat="-20.715537962173983" lon="118.27483542867824"><ele>43.5</ele><time>2026-04-23T04:44:12Z</time></trkpt><trkpt lat="-20.715363048295647" lon="118.2750312532552"><ele>43.0</ele><time>2026-04-23T04:44:13Z</time></trkpt><trkpt lat="-20.715188234314883" lon="118.27523095730784"><ele>43.5</ele><time>2026-04-23T04:44:14Z</time></trkpt><trkpt lat="-20.715006620231197" lon="118.2754337691166"><ele>44.0</ele><time>2026-04-23T04:44:15Z</time></trkpt><trkpt lat="-20.714816459733264" lon="118.27563997275298"><ele>44.0</ele><time>2026-04-23T04:44:16Z</time></trkpt><trkpt lat="-20.71462267532924" lon="118.27585013171435"><ele>44.0</ele><time>2026-04-23T04:44:17Z</time></trkpt><trkpt lat="-20.71442694535251" lon="118.27606123809494"><ele>44.0</ele><time>2026-04-23T04:44:18Z</time></trkpt><trkpt lat="-20.71423315891444" lon="118.27627397598732"><ele>44.0</ele><time>2026-04-23T04:44:19Z</time></trkpt><trkpt lat="-20.714041550087973" lon="118.27648604571739"><ele>44.5</ele><time>2026-04-23T04:44:20Z</time></trkpt><trkpt lat="-20.71384860201222" lon="118.2766958946706"><ele>45.0</ele><time>2026-04-23T04:44:21Z</time></trkpt><trkpt lat="-20.713655123933567" lon="118.27690720770848"><ele>44.5</ele><time>2026-04-23T04:44:22Z</time></trkpt><trkpt lat="-20.713460397203217" lon="118.27712014553234"><ele>44.0</ele><time>2026-04-23T04:44:23Z</time></trkpt><trkpt lat="-20.713264025211124" lon="118.27733555913613"><ele>44.0</ele><time>2026-04-23T04:44:24Z</time></trkpt><trkpt lat="-20.71306735573582" lon="118.27755324899834"><ele>44.0</ele><time>2026-04-23T04:44:25Z</time></trkpt><trkpt lat="-20.712869248421967" lon="118.27776893140674"><ele>44.0</ele><time>2026-04-23T04:44:26Z</time></trkpt><trkpt lat="-20.71267058079503" lon="118.27798287651767"><ele>44.0</ele><time>2026-04-23T04:44:27Z</time></trkpt><trkpt lat="-20.712473287620515" lon="118.27819720408567"><ele>44.0</ele><time>2026-04-23T04:44:28Z</time></trkpt><trkpt lat="-20.712277523288403" lon="118.27841368154097"><ele>44.0</ele><time>2026-04-23T04:44:29Z</time></trkpt><trkpt lat="-20.712081781778437" lon="118.27862733509157"><ele>44.5</ele><time>2026-04-23T04:44:30Z</time></trkpt><trkpt lat="-20.71188680400819" lon="118.27884091386072"><ele>45.0</ele><time>2026-04-23T04:44:31Z</time></trkpt><trkpt lat="-20.711691089025095" lon="118.27905536731916"><ele>45.0</ele><time>2026-04-23T04:44:32Z</time></trkpt><trkpt lat="-20.711497507267946" lon="118.27926822045997"><ele>45.0</ele><time>2026-04-23T04:44:33Z</time></trkpt><trkpt lat="-20.711303612213705" lon="118.2794797318938"><ele>45.0</ele><time>2026-04-23T04:44:34Z</time></trkpt><trkpt lat="-20.711108573974844" lon="118.27969083324018"><ele>45.0</ele><time>2026-04-23T04:44:35Z</time></trkpt><trkpt lat="-20.710919461167443" lon="118.27989973540019"><ele>45.0</ele><time>2026-04-23T04:44:36Z</time></trkpt><trkpt lat="-20.71073086991807" lon="118.28010975728266"><ele>45.0</ele><time>2026-04-23T04:44:37Z</time></trkpt><trkpt lat="-20.710544304448046" lon="118.28031608762471"><ele>45.0</ele><time>2026-04-23T04:44:38Z</time></trkpt><trkpt lat="-20.710355196481093" lon="118.28052335623717"><ele>45.0</ele><time>2026-04-23T04:44:39Z</time></trkpt><trkpt lat="-20.710161049843645" lon="118.28073604282174"><ele>45.0</ele><time>2026-04-23T04:44:40Z</time></trkpt><trkpt lat="-20.709964342158397" lon="118.28094991454148"><ele>45.0</ele><time>2026-04-23T04:44:41Z</time></trkpt><trkpt lat="-20.709771136116856" lon="118.28116030288588"><ele>45.0</ele><time>2026-04-23T04:44:42Z</time></trkpt><trkpt lat="-20.70957721358907" lon="118.28137448934743"><ele>45.0</ele><time>2026-04-23T04:44:43Z</time></trkpt><trkpt lat="-20.709387307178396" lon="118.28158810005263"><ele>44.5</ele><time>2026-04-23T04:44:44Z</time></trkpt><trkpt lat="-20.709196660835207" lon="118.28180145292825"><ele>44.0</ele><time>2026-04-23T04:44:45Z</time></trkpt><trkpt lat="-20.70900737320198" lon="118.28201585915494"><ele>44.0</ele><time>2026-04-23T04:44:46Z</time></trkpt><trkpt lat="-20.70882770761226" lon="118.28223490129399"><ele>44.0</ele><time>2026-04-23T04:44:47Z</time></trkpt><trkpt lat="-20.70865594428751" lon="118.2824613895622"><ele>45.0</ele><time>2026-04-23T04:44:48Z</time></trkpt><trkpt lat="-20.708494569582847" lon="118.28269224309038"><ele>46.0</ele><time>2026-04-23T04:44:49Z</time></trkpt><trkpt lat="-20.70834018420317" lon="118.2829304534951"><ele>45.0</ele><time>2026-04-23T04:44:50Z</time></trkpt><trkpt lat="-20.708195956505456" lon="118.28317571501208"><ele>44.0</ele><time>2026-04-23T04:44:51Z</time></trkpt><trkpt lat="-20.708054684211714" lon="118.28342926504574"><ele>44.0</ele><time>2026-04-23T04:44:52Z</time></trkpt><trkpt lat="-20.707919979406782" lon="118.2836832219469"><ele>44.0</ele><time>2026-04-23T04:44:53Z</time></trkpt><trkpt lat="-20.707792969813617" lon="118.28394139877516"><ele>44.5</ele><time>2026-04-23T04:44:54Z</time></trkpt><trkpt lat="-20.707675523809584" lon="118.28420733478126"><ele>45.0</ele><time>2026-04-23T04:44:55Z</time></trkpt><trkpt lat="-20.70756149966088" lon="118.28447266218258"><ele>45.0</ele><time>2026-04-23T04:44:56Z</time></trkpt><trkpt lat="-20.70744484911163" lon="118.28473590468765"><ele>45.0</ele><time>2026-04-23T04:44:57Z</time></trkpt><trkpt lat="-20.707325855705314" lon="118.28499587137402"><ele>45.5</ele><time>2026-04-23T04:44:58Z</time></trkpt><trkpt lat="-20.707205667489514" lon="118.28525538245599"><ele>46.0</ele><time>2026-04-23T04:44:59Z</time></trkpt><trkpt lat="-20.707088156412702" lon="118.28551031917874"><ele>46.0</ele><time>2026-04-23T04:45:00Z</time></trkpt><trkpt lat="-20.706969760611663" lon="118.28576521969269"><ele>46.0</ele><time>2026-04-23T04:45:01Z</time></trkpt><trkpt lat="-20.706852361698413" lon="118.28602290079407"><ele>47.0</ele><time>2026-04-23T04:45:02Z</time></trkpt><trkpt lat="-20.706736325231105" lon="118.28628311752647"><ele>48.0</ele><time>2026-04-23T04:45:03Z</time></trkpt><trkpt lat="-20.69958123892958" lon="118.3020073311111"><ele>46.5</ele><time>2026-04-23T04:46:04Z</time></trkpt><trkpt lat="-20.699461389142545" lon="118.3022742204316"><ele>45.0</ele><time>2026-04-23T04:46:05Z</time></trkpt><trkpt lat="-20.699341026733286" lon="118.30254175563803"><ele>45.0</ele><time>2026-04-23T04:46:06Z</time></trkpt><trkpt lat="-20.699216639251446" lon="118.30281004670107"><ele>45.0</ele><time>2026-04-23T04:46:07Z</time></trkpt><trkpt lat="-20.699093442123573" lon="118.30307635823773"><ele>46.0</ele><time>2026-04-23T04:46:08Z</time></trkpt><trkpt lat="-20.69897005688161" lon="118.30334414173937"><ele>47.0</ele><time>2026-04-23T04:46:09Z</time></trkpt><trkpt lat="-20.698848046454305" lon="118.30360788807629"><ele>47.0</ele><time>2026-04-23T04:46:10Z</time></trkpt><trkpt lat="-20.698727811877664" lon="118.30387108588812"><ele>47.0</ele><time>2026-04-23T04:46:11Z</time></trkpt><trkpt lat="-20.698607907070226" lon="118.30413448804306"><ele>46.0</ele><time>2026-04-23T04:46:12Z</time></trkpt><trkpt lat="-20.698489944303113" lon="118.30439482028639"><ele>45.0</ele><time>2026-04-23T04:46:13Z</time></trkpt><trkpt lat="-20.698375566112144" lon="118.30465183009208"><ele>44.0</ele><time>2026-04-23T04:46:14Z</time></trkpt><trkpt lat="-20.69825482273362" lon="118.30491947877088"><ele>43.0</ele><time>2026-04-23T04:46:15Z</time></trkpt><trkpt lat="-20.698134947551296" lon="118.30518314941857"><ele>43.0</ele><time>2026-04-23T04:46:16Z</time></trkpt><trkpt lat="-20.698012303104058" lon="118.30544536601103"><ele>43.0</ele><time>2026-04-23T04:46:17Z</time></trkpt><trkpt lat="-20.697882065213605" lon="118.30571302168352"><ele>43.5</ele><time>2026-04-23T04:46:18Z</time></trkpt><trkpt lat="-20.697758745103656" lon="118.30598086949648"><ele>44.0</ele><time>2026-04-23T04:46:19Z</time></trkpt><trkpt lat="-20.697634922240876" lon="118.30625462470195"><ele>45.0</ele><time>2026-04-23T04:46:20Z</time></trkpt><trkpt lat="-20.69750936471947" lon="118.30653301919129"><ele>46.0</ele><time>2026-04-23T04:46:21Z</time></trkpt><trkpt lat="-20.69737952856455" lon="118.30681365995504"><ele>46.0</ele><time>2026-04-23T04:46:22Z</time></trkpt><trkpt lat="-20.697249841451374" lon="118.30709503890702"><ele>46.0</ele><time>2026-04-23T04:46:23Z</time></trkpt><trkpt lat="-20.697123216834843" lon="118.30737822520844"><ele>46.0</ele><time>2026-04-23T04:46:24Z</time></trkpt><trkpt lat="-20.696996637603775" lon="118.30766156710044"><ele>46.0</ele><time>2026-04-23T04:46:25Z</time></trkpt><trkpt lat="-20.696872203974856" lon="118.30794264672566"><ele>46.0</ele><time>2026-04-23T04:46:26Z</time></trkpt><trkpt lat="-20.696745106627084" lon="118.30822077388575"><ele>46.0</ele><time>2026-04-23T04:46:27Z</time></trkpt><trkpt lat="-20.696621954850173" lon="118.30849520722043"><ele>46.0</ele><time>2026-04-23T04:46:28Z</time></trkpt><trkpt lat="-20.6964954958615" lon="118.30876880429639"><ele>46.0</ele><time>2026-04-23T04:46:29Z</time></trkpt><trkpt lat="-20.696370725125117" lon="118.30904258385137"><ele>45.5</ele><time>2026-04-23T04:46:30Z</time></trkpt><trkpt lat="-20.69624799510527" lon="118.30931780739105"><ele>45.0</ele><time>2026-04-23T04:46:31Z</time></trkpt><trkpt lat="-20.696130169407887" lon="118.30959002892747"><ele>46.5</ele><time>2026-04-23T04:46:32Z</time></trkpt><trkpt lat="-20.69600713429633" lon="118.30986342409874"><ele>48.0</ele><time>2026-04-23T04:46:33Z</time></trkpt><trkpt lat="-20.695878249688278" lon="118.31013485502854"><ele>48.0</ele><time>2026-04-23T04:46:34Z</time></trkpt><trkpt lat="-20.69574886394621" lon="118.31040598959152"><ele>48.0</ele><time>2026-04-23T04:46:35Z</time></trkpt><trkpt lat="-20.695619985101224" lon="118.31067764233131"><ele>46.0</ele><time>2026-04-23T04:46:36Z</time></trkpt><trkpt lat="-20.69549465614217" lon="118.31095437253285"><ele>44.0</ele><time>2026-04-23T04:46:37Z</time></trkpt><trkpt lat="-20.695369169518333" lon="118.31123642581217"><ele>43.5</ele><time>2026-04-23T04:46:38Z</time></trkpt><trkpt lat="-20.69524115097621" lon="118.31151962320136"><ele>43.0</ele><time>2026-04-23T04:46:39Z</time></trkpt><trkpt lat="-20.695117951879396" lon="118.31178940798866"><ele>43.0</ele><time>2026-04-23T04:46:40Z</time></trkpt><trkpt lat="-20.695001743016743" lon="118.31204273252735"><ele>43.0</ele><time>2026-04-23T04:46:41Z</time></trkpt><trkpt lat="-20.69488665085365" lon="118.31230045216513"><ele>43.0</ele><time>2026-04-23T04:46:42Z</time></trkpt><trkpt lat="-20.69477450551851" lon="118.31256049937473"><ele>43.0</ele><time>2026-04-23T04:46:43Z</time></trkpt><trkpt lat="-20.694658128577107" lon="118.31282198779385"><ele>43.5</ele><time>2026-04-23T04:46:44Z</time></trkpt><trkpt lat="-20.69453867431564" lon="118.31308383825271"><ele>44.0</ele><time>2026-04-23T04:46:45Z</time></trkpt><trkpt lat="-20.694413859885167" lon="118.31334863365278"><ele>44.0</ele><time>2026-04-23T04:46:46Z</time></trkpt><trkpt lat="-20.69428705524158" lon="118.3136142093442"><ele>44.0</ele><time>2026-04-23T04:46:47Z</time></trkpt><trkpt lat="-20.69416247246061" lon="118.31388611170408"><ele>44.0</ele><time>2026-04-23T04:46:48Z</time></trkpt><trkpt lat="-20.69403966093616" lon="118.31415866742948"><ele>44.0</ele><time>2026-04-23T04:46:49Z</time></trkpt><trkpt lat="-20.693912609261236" lon="118.31443156102164"><ele>44.0</ele><time>2026-04-23T04:46:50Z</time></trkpt><trkpt lat="-20.69379039301198" lon="118.3147014993011"><ele>44.0</ele><time>2026-04-23T04:46:51Z</time></trkpt><trkpt lat="-20.693663742583514" lon="118.31497657503031"><ele>44.5</ele><time>2026-04-23T04:46:52Z</time></trkpt><trkpt lat="-20.693537411938774" lon="118.3152520449202"><ele>45.0</ele><time>2026-04-23T04:46:53Z</time></trkpt><trkpt lat="-20.6934121314643" lon="118.3155276431585"><ele>45.0</ele><time>2026-04-23T04:46:54Z</time></trkpt><trkpt lat="-20.693285767372732" lon="118.31580697986294"><ele>45.0</ele><time>2026-04-23T04:46:55Z</time></trkpt><trkpt lat="-20.69315611894492" lon="118.31609375073567"><ele>45.0</ele><time>2026-04-23T04:46:56Z</time></trkpt><trkpt lat="-20.69302383994483" lon="118.3163827213042"><ele>45.0</ele><time>2026-04-23T04:46:57Z</time></trkpt><trkpt lat="-20.692891133330274" lon="118.3166742759668"><ele>45.5</ele><time>2026-04-23T04:46:58Z</time></trkpt><trkpt lat="-20.692761370085442" lon="118.31696393576213"><ele>46.0</ele><time>2026-04-23T04:46:59Z</time></trkpt><trkpt lat="-20.692632989413987" lon="118.31725164950686"><ele>46.0</ele><time>2026-04-23T04:47:00Z</time></trkpt><trkpt lat="-20.69250233918153" lon="118.317536968392"><ele>46.0</ele><time>2026-04-23T04:47:01Z</time></trkpt><trkpt lat="-20.69237160943293" lon="118.3178236878526"><ele>44.5</ele><time>2026-04-23T04:47:02Z</time></trkpt><trkpt lat="-20.692240144679257" lon="118.31810615570781"><ele>43.0</ele><time>2026-04-23T04:47:03Z</time></trkpt><trkpt lat="-20.682020377961695" lon="118.33318681786785"><ele>43.0</ele><time>2026-04-23T04:48:04.001Z</time></trkpt><trkpt lat="-20.68185003190795" lon="118.33340953989813"><ele>43.0</ele><time>2026-04-23T04:48:05.001Z</time></trkpt><trkpt lat="-20.681681636280526" lon="118.3336301627875"><ele>43.0</ele><time>2026-04-23T04:48:06.001Z</time></trkpt><trkpt lat="-20.6815138665165" lon="118.3338501913709"><ele>43.0</ele><time>2026-04-23T04:48:07.001Z</time></trkpt><trkpt lat="-20.68134776984229" lon="118.33407094719306"><ele>42.5</ele><time>2026-04-23T04:48:08.001Z</time></trkpt><trkpt lat="-20.681179552427334" lon="118.33429607572944"><ele>42.0</ele><time>2026-04-23T04:48:09.001Z</time></trkpt><trkpt lat="-20.681010361447367" lon="118.33452324471403"><ele>42.0</ele><time>2026-04-23T04:48:10.001Z</time></trkpt><trkpt lat="-20.680839805045387" lon="118.33475247169815"><ele>42.0</ele><time>2026-04-23T04:48:11.001Z</time></trkpt><trkpt lat="-20.680667164566326" lon="118.3349853262265"><ele>42.0</ele><time>2026-04-23T04:48:12.001Z</time></trkpt><trkpt lat="-20.68049321782833" lon="118.33522418274983"><ele>42.0</ele><time>2026-04-23T04:48:13.001Z</time></trkpt><trkpt lat="-20.680318559187164" lon="118.33546110245595"><ele>42.0</ele><time>2026-04-23T04:48:14.001Z</time></trkpt><trkpt lat="-20.68014081537331" lon="118.33569756620695"><ele>42.0</ele><time>2026-04-23T04:48:15.001Z</time></trkpt><trkpt lat="-20.67996343080488" lon="118.33593449381699"><ele>42.0</ele><time>2026-04-23T04:48:16.001Z</time></trkpt><trkpt lat="-20.67978633040749" lon="118.33617160506884"><ele>42.0</ele><time>2026-04-23T04:48:17.001Z</time></trkpt><trkpt lat="-20.679607543369162" lon="118.33641319916438"><ele>41.5</ele><time>2026-04-23T04:48:18.001Z</time></trkpt><trkpt lat="-20.679426504330053" lon="118.3366574583056"><ele>41.0</ele><time>2026-04-23T04:48:19.001Z</time></trkpt><trkpt lat="-20.679246785469054" lon="118.33689868560465"><ele>41.0</ele><time>2026-04-23T04:48:20.001Z</time></trkpt><trkpt lat="-20.67907291557804" lon="118.33713482658118"><ele>41.0</ele><time>2026-04-23T04:48:21.001Z</time></trkpt><trkpt lat="-20.678903419472935" lon="118.33736390548468"><ele>41.0</ele><time>2026-04-23T04:48:22.001Z</time></trkpt><trkpt lat="-20.678737140314873" lon="118.33758844370053"><ele>41.0</ele><time>2026-04-23T04:48:23.001Z</time></trkpt><trkpt lat="-20.678574259815687" lon="118.33780661686568"><ele>41.0</ele><time>2026-04-23T04:48:24.001Z</time></trkpt><trkpt lat="-20.67841872150936" lon="118.33801931607327"><ele>41.0</ele><time>2026-04-23T04:48:25.001Z</time></trkpt><trkpt lat="-20.67826077375101" lon="118.33823145189"><ele>41.5</ele><time>2026-04-23T04:48:26.001Z</time></trkpt><trkpt lat="-20.67810119119391" lon="118.33844115171686"><ele>42.0</ele><time>2026-04-23T04:48:27.001Z</time></trkpt><trkpt lat="-20.67793950976544" lon="118.33865350254068"><ele>42.0</ele><time>2026-04-23T04:48:28.001Z</time></trkpt><trkpt lat="-20.677777055328797" lon="118.33887052631877"><ele>42.0</ele><time>2026-04-23T04:48:29.001Z</time></trkpt><trkpt lat="-20.67761451296368" lon="118.33909174985386"><ele>41.0</ele><time>2026-04-23T04:48:30.001Z</time></trkpt><trkpt lat="-20.677449400794625" lon="118.3393120054708"><ele>40.0</ele><time>2026-04-23T04:48:31.001Z</time></trkpt><trkpt lat="-20.67728550147471" lon="118.3395305675469"><ele>41.0</ele><time>2026-04-23T04:48:32.001Z</time></trkpt><trkpt lat="-20.677123885904717" lon="118.3397512472427"><ele>42.0</ele><time>2026-04-23T04:48:33.001Z</time></trkpt><trkpt lat="-20.676958333479597" lon="118.3399750038268"><ele>42.5</ele><time>2026-04-23T04:48:34.001Z</time></trkpt><trkpt lat="-20.676790831197295" lon="118.34020146315369"><ele>43.0</ele><time>2026-04-23T04:48:35.001Z</time></trkpt><trkpt lat="-20.676619618317343" lon="118.34042929510763"><ele>42.5</ele><time>2026-04-23T04:48:36.001Z</time></trkpt><trkpt lat="-20.676448378686256" lon="118.34065707420814"><ele>42.0</ele><time>2026-04-23T04:48:37.001Z</time></trkpt><trkpt lat="-20.676275860197386" lon="118.34088651066209"><ele>42.0</ele><time>2026-04-23T04:48:38.001Z</time></trkpt><trkpt lat="-20.676111782493415" lon="118.34110652633187"><ele>42.0</ele><time>2026-04-23T04:48:39.001Z</time></trkpt><trkpt lat="-20.675958142246035" lon="118.34131236269113"><ele>42.0</ele><time>2026-04-23T04:48:40.001Z</time></trkpt><trkpt lat="-20.675806282821743" lon="118.34151546950096"><ele>42.0</ele><time>2026-04-23T04:48:41.001Z</time></trkpt><trkpt lat="-20.675652127019774" lon="118.3417252990731"><ele>42.0</ele><time>2026-04-23T04:48:42.001Z</time></trkpt><trkpt lat="-20.675496189547932" lon="118.3419354903266"><ele>42.0</ele><time>2026-04-23T04:48:43.001Z</time></trkpt><trkpt lat="-20.67533483035424" lon="118.3421508500841"><ele>41.5</ele><time>2026-04-23T04:48:44.001Z</time></trkpt><trkpt lat="-20.67517012066886" lon="118.34236607597644"><ele>41.0</ele><time>2026-04-23T04:48:45.001Z</time></trkpt><trkpt lat="-20.675004435937815" lon="118.34258545112696"><ele>41.0</ele><time>2026-04-23T04:48:46.001Z</time></trkpt><trkpt lat="-20.67483851095288" lon="118.34280897626066"><ele>41.0</ele><time>2026-04-23T04:48:47.001Z</time></trkpt><trkpt lat="-20.674671496787674" lon="118.34303418742238"><ele>41.5</ele><time>2026-04-23T04:48:48.001Z</time></trkpt><trkpt lat="-20.67450409413826" lon="118.34326080726575"><ele>42.0</ele><time>2026-04-23T04:48:49.001Z</time></trkpt><trkpt lat="-20.67433859608148" lon="118.343484291313"><ele>42.0</ele><time>2026-04-23T04:48:50.001Z</time></trkpt><trkpt lat="-20.674171840693095" lon="118.34370980536873"><ele>42.0</ele><time>2026-04-23T04:48:51.001Z</time></trkpt><trkpt lat="-20.674006562653165" lon="118.34393350791494"><ele>41.5</ele><time>2026-04-23T04:48:52.001Z</time></trkpt><trkpt lat="-20.673838985043673" lon="118.34416064668977"><ele>41.0</ele><time>2026-04-23T04:48:53.001Z</time></trkpt><trkpt lat="-20.673669812132175" lon="118.34438811983051"><ele>41.0</ele><time>2026-04-23T04:48:54.001Z</time></trkpt><trkpt lat="-20.673502303207833" lon="118.34461652876152"><ele>41.0</ele><time>2026-04-23T04:48:55.001Z</time></trkpt><trkpt lat="-20.673333399023758" lon="118.34484369579647"><ele>41.0</ele><time>2026-04-23T04:48:56.001Z</time></trkpt><trkpt lat="-20.673160245179325" lon="118.34507373617164"><ele>41.0</ele><time>2026-04-23T04:48:57.001Z</time></trkpt><trkpt lat="-20.67298707835076" lon="118.34530448912382"><ele>41.0</ele><time>2026-04-23T04:48:58.001Z</time></trkpt><trkpt lat="-20.67280892927947" lon="118.34554044353355"><ele>41.0</ele><time>2026-04-23T04:48:59.001Z</time></trkpt><trkpt lat="-20.672631675781986" lon="118.34577873520846"><ele>41.5</ele><time>2026-04-23T04:49:00.001Z</time></trkpt><trkpt lat="-20.67245356175754" lon="118.34601643743592"><ele>42.0</ele><time>2026-04-23T04:49:01.001Z</time></trkpt><trkpt lat="-20.67226559908825" lon="118.3462600196544"><ele>41.5</ele><time>2026-04-23T04:49:02.001Z</time></trkpt><trkpt lat="-20.672076182388807" lon="118.34650411321738"><ele>41.0</ele><time>2026-04-23T04:49:03.001Z</time></trkpt><trkpt lat="-20.661206116516617" lon="118.36109510169742"><ele>40.0</ele><time>2026-04-23T04:50:04.001Z</time></trkpt><trkpt lat="-20.661041399473792" lon="118.36132169687727"><ele>39.0</ele><time>2026-04-23T04:50:05.001Z</time></trkpt><trkpt lat="-20.66087369150003" lon="118.36155031709475"><ele>39.0</ele><time>2026-04-23T04:50:06.001Z</time></trkpt><trkpt lat="-20.660704776336903" lon="118.36177655106185"><ele>39.0</ele><time>2026-04-23T04:50:07.001Z</time></trkpt><trkpt lat="-20.66053151813116" lon="118.36200764477246"><ele>39.0</ele><time>2026-04-23T04:50:08.001Z</time></trkpt><trkpt lat="-20.66035697948736" lon="118.36223444531203"><ele>39.0</ele><time>2026-04-23T04:50:09.001Z</time></trkpt><trkpt lat="-20.660184788608976" lon="118.36246392562956"><ele>39.0</ele><time>2026-04-23T04:50:10.001Z</time></trkpt><trkpt lat="-20.66001357463241" lon="118.36269588763652"><ele>39.0</ele><time>2026-04-23T04:50:11.001Z</time></trkpt><trkpt lat="-20.6598405307617" lon="118.36292539730708"><ele>39.5</ele><time>2026-04-23T04:50:12.001Z</time></trkpt><trkpt lat="-20.65966492977609" lon="118.3631577169627"><ele>40.0</ele><time>2026-04-23T04:50:13.001Z</time></trkpt><trkpt lat="-20.659490316180445" lon="118.36339158439607"><ele>39.5</ele><time>2026-04-23T04:50:14.001Z</time></trkpt><trkpt lat="-20.659319963212955" lon="118.36362064475615"><ele>39.0</ele><time>2026-04-23T04:50:15.001Z</time></trkpt><trkpt lat="-20.659147286177184" lon="118.36385011094283"><ele>40.0</ele><time>2026-04-23T04:50:16.001Z</time></trkpt><trkpt lat="-20.658979527156024" lon="118.36407537014924"><ele>41.0</ele><time>2026-04-23T04:50:17.001Z</time></trkpt><trkpt lat="-20.6588110498787" lon="118.36430589233748"><ele>41.0</ele><time>2026-04-23T04:50:18.001Z</time></trkpt><trkpt lat="-20.658640390776593" lon="118.36453675336143"><ele>41.0</ele><time>2026-04-23T04:50:19.001Z</time></trkpt><trkpt lat="-20.65846265687115" lon="118.3647659139804"><ele>40.5</ele><time>2026-04-23T04:50:20.001Z</time></trkpt><trkpt lat="-20.65828073812854" lon="118.36499176426524"><ele>40.0</ele><time>2026-04-23T04:50:21.001Z</time></trkpt><trkpt lat="-20.658092940100985" lon="118.36521271506716"><ele>40.0</ele><time>2026-04-23T04:50:22.001Z</time></trkpt><trkpt lat="-20.65789775407333" lon="118.36542506772246"><ele>40.0</ele><time>2026-04-23T04:50:23.001Z</time></trkpt><trkpt lat="-20.657698635820456" lon="118.36563443636949"><ele>40.5</ele><time>2026-04-23T04:50:24.001Z</time></trkpt><trkpt lat="-20.657496304839867" lon="118.36584122479421"><ele>41.0</ele><time>2026-04-23T04:50:25.001Z</time></trkpt><trkpt lat="-20.65728988195542" lon="118.36604926879495"><ele>41.0</ele><time>2026-04-23T04:50:26.001Z</time></trkpt><trkpt lat="-20.65707902675733" lon="118.36625708647883"><ele>41.0</ele><time>2026-04-23T04:50:27.001Z</time></trkpt><trkpt lat="-20.65686463986125" lon="118.36646245732773"><ele>40.5</ele><time>2026-04-23T04:50:28.001Z</time></trkpt><trkpt lat="-20.6566471818235" lon="118.3666712342991"><ele>40.0</ele><time>2026-04-23T04:50:29.001Z</time></trkpt><trkpt lat="-20.656431088668008" lon="118.36688164428647"><ele>40.0</ele><time>2026-04-23T04:50:30.001Z</time></trkpt><trkpt lat="-20.65621656734112" lon="118.36709237481874"><ele>40.0</ele><time>2026-04-23T04:50:31.001Z</time></trkpt><trkpt lat="-20.655999234012523" lon="118.36730661735146"><ele>39.0</ele><time>2026-04-23T04:50:32.001Z</time></trkpt><trkpt lat="-20.655782893532837" lon="118.36751861859891"><ele>38.0</ele><time>2026-04-23T04:50:33.001Z</time></trkpt><trkpt lat="-20.655567629567802" lon="118.36773209110733"><ele>38.0</ele><time>2026-04-23T04:50:34.001Z</time></trkpt><trkpt lat="-20.65535351078826" lon="118.3679476449442"><ele>38.0</ele><time>2026-04-23T04:50:35.001Z</time></trkpt><trkpt lat="-20.655150916453206" lon="118.36815163406537"><ele>39.0</ele><time>2026-04-23T04:50:36.001Z</time></trkpt><trkpt lat="-20.654958064620264" lon="118.36834504272291"><ele>40.0</ele><time>2026-04-23T04:50:37.001Z</time></trkpt><trkpt lat="-20.654756426030985" lon="118.36854652605808"><ele>40.0</ele><time>2026-04-23T04:50:38.001Z</time></trkpt><trkpt lat="-20.654548378849665" lon="118.36875166841139"><ele>40.0</ele><time>2026-04-23T04:50:39.001Z</time></trkpt><trkpt lat="-20.654337508704323" lon="118.36895764428579"><ele>39.5</ele><time>2026-04-23T04:50:40.001Z</time></trkpt><trkpt lat="-20.654123963703054" lon="118.36916912877166"><ele>39.0</ele><time>2026-04-23T04:50:41.001Z</time></trkpt><trkpt lat="-20.65390926553502" lon="118.36938143424165"><ele>39.0</ele><time>2026-04-23T04:50:42.001Z</time></trkpt><trkpt lat="-20.65369915324695" lon="118.36959059931128"><ele>39.0</ele><time>2026-04-23T04:50:43.001Z</time></trkpt><trkpt lat="-20.653488070759096" lon="118.36980208184745"><ele>38.5</ele><time>2026-04-23T04:50:44.001Z</time></trkpt><trkpt lat="-20.653276678644787" lon="118.37001604380161"><ele>38.0</ele><time>2026-04-23T04:50:45.001Z</time></trkpt><trkpt lat="-20.65306514463906" lon="118.37023138544302"><ele>38.0</ele><time>2026-04-23T04:50:46.001Z</time></trkpt><trkpt lat="-20.652854965177994" lon="118.3704477839989"><ele>38.0</ele><time>2026-04-23T04:50:47.001Z</time></trkpt><trkpt lat="-20.652645706973104" lon="118.37065774220548"><ele>37.5</ele><time>2026-04-23T04:50:48.001Z</time></trkpt><trkpt lat="-20.65244368534177" lon="118.37086974872669"><ele>37.0</ele><time>2026-04-23T04:50:49.001Z</time></trkpt><trkpt lat="-20.65224505083276" lon="118.37108170943867"><ele>37.0</ele><time>2026-04-23T04:50:50.001Z</time></trkpt><trkpt lat="-20.65203657483468" lon="118.37129246751135"><ele>37.0</ele><time>2026-04-23T04:50:51.001Z</time></trkpt><trkpt lat="-20.651813497952432" lon="118.37150426064362"><ele>37.0</ele><time>2026-04-23T04:50:52.001Z</time></trkpt><trkpt lat="-20.651576499066906" lon="118.3717248210337"><ele>37.0</ele><time>2026-04-23T04:50:53.001Z</time></trkpt><trkpt lat="-20.65132677254619" lon="118.37195094836315"><ele>37.5</ele><time>2026-04-23T04:50:54.001Z</time></trkpt><trkpt lat="-20.651075916924224" lon="118.37218142868561"><ele>38.0</ele><time>2026-04-23T04:50:55.001Z</time></trkpt><trkpt lat="-20.650832420275766" lon="118.37241156999062"><ele>38.0</ele><time>2026-04-23T04:50:56.001Z</time></trkpt><trkpt lat="-20.650591523916592" lon="118.37263370093214"><ele>38.0</ele><time>2026-04-23T04:50:57.001Z</time></trkpt><trkpt lat="-20.650349835174918" lon="118.37284479116852"><ele>37.5</ele><time>2026-04-23T04:50:58.001Z</time></trkpt><trkpt lat="-20.650109970496512" lon="118.37305426916338"><ele>37.0</ele><time>2026-04-23T04:50:59.001Z</time></trkpt><trkpt lat="-20.64987579500361" lon="118.37326684248673"><ele>37.0</ele><time>2026-04-23T04:51:00.001Z</time></trkpt><trkpt lat="-20.649646588968785" lon="118.37347595690373"><ele>37.0</ele><time>2026-04-23T04:51:01.001Z</time></trkpt><trkpt lat="-20.649425375294523" lon="118.37367963578538"><ele>37.0</ele><time>2026-04-23T04:51:02.001Z</time></trkpt><trkpt lat="-20.64920876760649" lon="118.37388100559387"><ele>37.0</ele><time>2026-04-23T04:51:03.001Z</time></trkpt><trkpt lat="-20.63600221544108" lon="118.38622626793935"><ele>35.5</ele><time>2026-04-23T04:52:04.001Z</time></trkpt><trkpt lat="-20.635788428776493" lon="118.38642296360628"><ele>34.0</ele><time>2026-04-23T04:52:05.001Z</time></trkpt><trkpt lat="-20.635574184543408" lon="118.38662100787455"><ele>34.0</ele><time>2026-04-23T04:52:06.001Z</time></trkpt><trkpt lat="-20.635361744201017" lon="118.3868207565243"><ele>34.0</ele><time>2026-04-23T04:52:07.001Z</time></trkpt><trkpt lat="-20.635147150343517" lon="118.38702277362854"><ele>34.5</ele><time>2026-04-23T04:52:08.001Z</time></trkpt><trkpt lat="-20.63493188905923" lon="118.38722551175212"><ele>35.0</ele><time>2026-04-23T04:52:09.001Z</time></trkpt><trkpt lat="-20.63471360390431" lon="118.38742944976146"><ele>35.0</ele><time>2026-04-23T04:52:10.001Z</time></trkpt><trkpt lat="-20.634494202336086" lon="118.38763253620881"><ele>35.0</ele><time>2026-04-23T04:52:11.001Z</time></trkpt><trkpt lat="-20.634276808016526" lon="118.38783730409448"><ele>33.0</ele><time>2026-04-23T04:52:12.001Z</time></trkpt><trkpt lat="-20.634061686700786" lon="118.38804172645519"><ele>31.0</ele><time>2026-04-23T04:52:13.001Z</time></trkpt><trkpt lat="-20.633847092581874" lon="118.38824317765808"><ele>33.0</ele><time>2026-04-23T04:52:14.001Z</time></trkpt><trkpt lat="-20.63362989593846" lon="118.38844474532395"><ele>35.0</ele><time>2026-04-23T04:52:15.001Z</time></trkpt><trkpt lat="-20.633412545316826" lon="118.38864455570315"><ele>34.5</ele><time>2026-04-23T04:52:16.001Z</time></trkpt><trkpt lat="-20.63319411093368" lon="118.38884557363995"><ele>34.0</ele><time>2026-04-23T04:52:17.001Z</time></trkpt><trkpt lat="-20.632977838494188" lon="118.38904753898412"><ele>35.5</ele><time>2026-04-23T04:52:18.001Z</time></trkpt><trkpt lat="-20.632763355905087" lon="118.38925140054043"><ele>37.0</ele><time>2026-04-23T04:52:19.001Z</time></trkpt><trkpt lat="-20.632546780923406" lon="118.3894591833352"><ele>37.0</ele><time>2026-04-23T04:52:20.001Z</time></trkpt><trkpt lat="-20.6323303037754" lon="118.38966606364643"><ele>37.0</ele><time>2026-04-23T04:52:21.001Z</time></trkpt><trkpt lat="-20.63211006129855" lon="118.38987559386473"><ele>37.0</ele><time>2026-04-23T04:52:22.001Z</time></trkpt><trkpt lat="-20.631891332460253" lon="118.39008179890769"><ele>37.0</ele><time>2026-04-23T04:52:23.001Z</time></trkpt><trkpt lat="-20.631671835049858" lon="118.3902876161827"><ele>37.0</ele><time>2026-04-23T04:52:24.001Z</time></trkpt><trkpt lat="-20.631454412487255" lon="118.39048992652567"><ele>37.0</ele><time>2026-04-23T04:52:25.001Z</time></trkpt><trkpt lat="-20.631243613041693" lon="118.39068260696595"><ele>36.5</ele><time>2026-04-23T04:52:26.001Z</time></trkpt><trkpt lat="-20.631038097786153" lon="118.39087312181299"><ele>36.0</ele><time>2026-04-23T04:52:27.001Z</time></trkpt><trkpt lat="-20.63082663283141" lon="118.39107188119863"><ele>36.0</ele><time>2026-04-23T04:52:28.001Z</time></trkpt><trkpt lat="-20.63061089681893" lon="118.39127582540034"><ele>36.0</ele><time>2026-04-23T04:52:29.001Z</time></trkpt><trkpt lat="-20.63039049551411" lon="118.39148183896826"><ele>36.0</ele><time>2026-04-23T04:52:30.001Z</time></trkpt><trkpt lat="-20.630165038996843" lon="118.39168964268941"><ele>36.0</ele><time>2026-04-23T04:52:31.001Z</time></trkpt><trkpt lat="-20.629939606904685" lon="118.3918985799419"><ele>36.0</ele><time>2026-04-23T04:52:32.001Z</time></trkpt><trkpt lat="-20.62971646613481" lon="118.39210840819553"><ele>36.0</ele><time>2026-04-23T04:52:33.001Z</time></trkpt><trkpt lat="-20.629492651131397" lon="118.39231903609983"><ele>34.5</ele><time>2026-04-23T04:52:34.001Z</time></trkpt><trkpt lat="-20.62926570904641" lon="118.39252870587184"><ele>33.0</ele><time>2026-04-23T04:52:35.001Z</time></trkpt><trkpt lat="-20.62903610737114" lon="118.39273747651411"><ele>33.0</ele><time>2026-04-23T04:52:36.001Z</time></trkpt><trkpt lat="-20.62880486970809" lon="118.3929474553246"><ele>33.0</ele><time>2026-04-23T04:52:37.001Z</time></trkpt><trkpt lat="-20.62857622763254" lon="118.39315881255176"><ele>34.0</ele><time>2026-04-23T04:52:38.001Z</time></trkpt><trkpt lat="-20.628352348445766" lon="118.39337163943982"><ele>35.0</ele><time>2026-04-23T04:52:39.001Z</time></trkpt><trkpt lat="-20.628128977600625" lon="118.39358268496319"><ele>35.0</ele><time>2026-04-23T04:52:40.001Z</time></trkpt><trkpt lat="-20.62790990638067" lon="118.39378698346941"><ele>35.0</ele><time>2026-04-23T04:52:41.001Z</time></trkpt><trkpt lat="-20.627688598351195" lon="118.39399315581151"><ele>34.5</ele><time>2026-04-23T04:52:42.001Z</time></trkpt><trkpt lat="-20.627470593110534" lon="118.39419832736735"><ele>34.0</ele><time>2026-04-23T04:52:43.001Z</time></trkpt><trkpt lat="-20.627253309313534" lon="118.39440316994306"><ele>34.0</ele><time>2026-04-23T04:52:44.001Z</time></trkpt><trkpt lat="-20.627032744361017" lon="118.39460667316133"><ele>34.0</ele><time>2026-04-23T04:52:45.001Z</time></trkpt><trkpt lat="-20.626810106377604" lon="118.39481120991911"><ele>33.5</ele><time>2026-04-23T04:52:46.001Z</time></trkpt><trkpt lat="-20.62658756596451" lon="118.39501546976693"><ele>33.0</ele><time>2026-04-23T04:52:47.001Z</time></trkpt><trkpt lat="-20.626360862504782" lon="118.39522234115859"><ele>33.5</ele><time>2026-04-23T04:52:48.001Z</time></trkpt><trkpt lat="-20.626133426185987" lon="118.39543356456446"><ele>34.0</ele><time>2026-04-23T04:52:49.001Z</time></trkpt><trkpt lat="-20.62590881619772" lon="118.39564737279257"><ele>34.5</ele><time>2026-04-23T04:52:50.001Z</time></trkpt><trkpt lat="-20.625682006677735" lon="118.39586156594261"><ele>35.0</ele><time>2026-04-23T04:52:51.001Z</time></trkpt><trkpt lat="-20.62545410036696" lon="118.39607280949204"><ele>34.5</ele><time>2026-04-23T04:52:52.001Z</time></trkpt><trkpt lat="-20.625228755616334" lon="118.39628498755633"><ele>34.0</ele><time>2026-04-23T04:52:53.001Z</time></trkpt><trkpt lat="-20.625003021329718" lon="118.39649845643996"><ele>34.0</ele><time>2026-04-23T04:52:54.001Z</time></trkpt><trkpt lat="-20.624779155107326" lon="118.39671117416164"><ele>34.0</ele><time>2026-04-23T04:52:55.001Z</time></trkpt><trkpt lat="-20.62455588484734" lon="118.39692427947162"><ele>34.5</ele><time>2026-04-23T04:52:56.001Z</time></trkpt><trkpt lat="-20.624334356734693" lon="118.39713313307594"><ele>35.0</ele><time>2026-04-23T04:52:57.001Z</time></trkpt><trkpt lat="-20.62411142205961" lon="118.39733878178542"><ele>35.0</ele><time>2026-04-23T04:52:58.001Z</time></trkpt><trkpt lat="-20.623886167531975" lon="118.39754369566292"><ele>35.0</ele><time>2026-04-23T04:52:59.001Z</time></trkpt><trkpt lat="-20.623660870336103" lon="118.397749926673"><ele>35.0</ele><time>2026-04-23T04:53:00.001Z</time></trkpt><trkpt lat="-20.623436926701814" lon="118.39795682398197"><ele>35.0</ele><time>2026-04-23T04:53:01.001Z</time></trkpt><trkpt lat="-20.623213165568753" lon="118.3981676265145"><ele>35.0</ele><time>2026-04-23T04:53:02.001Z</time></trkpt><trkpt lat="-20.62298874345539" lon="118.39837814929932"><ele>35.0</ele><time>2026-04-23T04:53:03.001Z</time></trkpt><trkpt lat="-20.61355816655757" lon="118.40718507520913"><ele>34.0</ele><time>2026-04-23T04:53:45.001Z</time></trkpt><trkpt lat="-20.613147017041513" lon="118.40757666727637"><ele>34.0</ele><time>2026-04-23T04:53:47.001Z</time></trkpt><trkpt lat="-20.612934667391873" lon="118.40777634947845"><ele>34.0</ele><time>2026-04-23T04:53:48.001Z</time></trkpt><trkpt lat="-20.6095062580362" lon="118.41096597060032"><ele>32.5</ele><time>2026-04-23T04:54:04.001Z</time></trkpt><trkpt lat="-20.609285856989004" lon="118.41117127723929"><ele>31.0</ele><time>2026-04-23T04:54:05.001Z</time></trkpt><trkpt lat="-20.609070888943705" lon="118.41137599471186"><ele>31.0</ele><time>2026-04-23T04:54:06.001Z</time></trkpt><trkpt lat="-20.60885397441351" lon="118.41158103742941"><ele>31.0</ele><time>2026-04-23T04:54:07.001Z</time></trkpt><trkpt lat="-20.608633504698766" lon="118.41178784033991"><ele>31.0</ele><time>2026-04-23T04:54:08.001Z</time></trkpt><trkpt lat="-20.608407690905185" lon="118.41199904065637"><ele>31.0</ele><time>2026-04-23T04:54:09.001Z</time></trkpt><trkpt lat="-20.608180054022785" lon="118.41220791944667"><ele>31.0</ele><time>2026-04-23T04:54:10.001Z</time></trkpt><trkpt lat="-20.607952193304364" lon="118.41241598941048"><ele>31.0</ele><time>2026-04-23T04:54:11.001Z</time></trkpt><trkpt lat="-20.607726496153465" lon="118.41262583262724"><ele>31.0</ele><time>2026-04-23T04:54:12.001Z</time></trkpt><trkpt lat="-20.607507563909092" lon="118.41283368099313"><ele>31.0</ele><time>2026-04-23T04:54:13.001Z</time></trkpt><trkpt lat="-20.607293758785396" lon="118.4130382711148"><ele>31.0</ele><time>2026-04-23T04:54:14.001Z</time></trkpt><trkpt lat="-20.607084113551032" lon="118.41324176592441"><ele>31.0</ele><time>2026-04-23T04:54:15.001Z</time></trkpt><trkpt lat="-20.606876044761822" lon="118.41344187113424"><ele>31.5</ele><time>2026-04-23T04:54:16.001Z</time></trkpt><trkpt lat="-20.60666838793789" lon="118.41363894385545"><ele>32.0</ele><time>2026-04-23T04:54:17.001Z</time></trkpt><trkpt lat="-20.6064578238801" lon="118.41383281033335"><ele>32.0</ele><time>2026-04-23T04:54:18.001Z</time></trkpt><trkpt lat="-20.606242799657853" lon="118.41402859798694"><ele>32.0</ele><time>2026-04-23T04:54:19.001Z</time></trkpt><trkpt lat="-20.606026810357182" lon="118.41422587000791"><ele>31.0</ele><time>2026-04-23T04:54:20.001Z</time></trkpt><trkpt lat="-20.6058105734884" lon="118.41442660040634"><ele>30.0</ele><time>2026-04-23T04:54:21.001Z</time></trkpt><trkpt lat="-20.60559851947287" lon="118.41462591677325"><ele>30.5</ele><time>2026-04-23T04:54:22.001Z</time></trkpt><trkpt lat="-20.605387546674386" lon="118.41482311152636"><ele>31.0</ele><time>2026-04-23T04:54:23.001Z</time></trkpt><trkpt lat="-20.605179717122258" lon="118.41502094293512"><ele>31.0</ele><time>2026-04-23T04:54:24.001Z</time></trkpt><trkpt lat="-20.604974713953844" lon="118.4152163562318"><ele>31.0</ele><time>2026-04-23T04:54:25.001Z</time></trkpt><trkpt lat="-20.60477040436679" lon="118.41540757450511"><ele>31.5</ele><time>2026-04-23T04:54:26.001Z</time></trkpt><trkpt lat="-20.60456437737904" lon="118.4155976486003"><ele>32.0</ele><time>2026-04-23T04:54:27.001Z</time></trkpt><trkpt lat="-20.60435751704248" lon="118.41578884829403"><ele>33.0</ele><time>2026-04-23T04:54:28.001Z</time></trkpt><trkpt lat="-20.604149964451473" lon="118.4159827107244"><ele>34.0</ele><time>2026-04-23T04:54:29.001Z</time></trkpt><trkpt lat="-20.603940201481343" lon="118.41617827783458"><ele>33.5</ele><time>2026-04-23T04:54:30.001Z</time></trkpt><trkpt lat="-20.603726121242808" lon="118.41637332356731"><ele>33.0</ele><time>2026-04-23T04:54:31.001Z</time></trkpt><trkpt lat="-20.603510894991675" lon="118.41656469817406"><ele>33.0</ele><time>2026-04-23T04:54:32.001Z</time></trkpt><trkpt lat="-20.6032836357105" lon="118.41672950700502"><ele>33.0</ele><time>2026-04-23T04:54:33.001Z</time></trkpt><trkpt lat="-20.60305563505207" lon="118.4168980193015"><ele>33.0</ele><time>2026-04-23T04:54:34.001Z</time></trkpt><trkpt lat="-20.602830292644907" lon="118.41706804132451"><ele>33.0</ele><time>2026-04-23T04:54:35.001Z</time></trkpt><trkpt lat="-20.60258432033666" lon="118.41721774620444"><ele>33.0</ele><time>2026-04-23T04:54:36.001Z</time></trkpt><trkpt lat="-20.602339137435173" lon="118.41736521388823"><ele>33.0</ele><time>2026-04-23T04:54:37.001Z</time></trkpt><trkpt lat="-20.602101147808664" lon="118.41750891990914"><ele>32.5</ele><time>2026-04-23T04:54:38.001Z</time></trkpt><trkpt lat="-20.60187940957835" lon="118.41764393986982"><ele>32.0</ele><time>2026-04-23T04:54:39.001Z</time></trkpt><trkpt lat="-20.601650643513043" lon="118.41778376007072"><ele>32.0</ele><time>2026-04-23T04:54:40.001Z</time></trkpt><trkpt lat="-20.601419210344545" lon="118.41792817788111"><ele>32.0</ele><time>2026-04-23T04:54:41.001Z</time></trkpt><trkpt lat="-20.60118073843899" lon="118.41807833078066"><ele>31.5</ele><time>2026-04-23T04:54:42.001Z</time></trkpt><trkpt lat="-20.6009365723606" lon="118.4182293677897"><ele>31.0</ele><time>2026-04-23T04:54:43.001Z</time></trkpt><trkpt lat="-20.60068649728735" lon="118.41838298167785"><ele>31.0</ele><time>2026-04-23T04:54:44.001Z</time></trkpt><trkpt lat="-20.600434946566057" lon="118.41853709144246"><ele>31.0</ele><time>2026-04-23T04:54:45.001Z</time></trkpt><trkpt lat="-20.600180246630885" lon="118.41869232705392"><ele>31.5</ele><time>2026-04-23T04:54:46.001Z</time></trkpt><trkpt lat="-20.599923413511057" lon="118.41885317678513"><ele>32.0</ele><time>2026-04-23T04:54:47.001Z</time></trkpt><trkpt lat="-20.599416248585804" lon="118.41917221766339"><ele>32.5</ele><time>2026-04-23T04:54:49.001Z</time></trkpt><trkpt lat="-20.599161997885727" lon="118.41932710682704"><ele>33.0</ele><time>2026-04-23T04:54:50.001Z</time></trkpt><trkpt lat="-20.598904189822026" lon="118.41948050737844"><ele>33.0</ele><time>2026-04-23T04:54:51.001Z</time></trkpt><trkpt lat="-20.598650348244572" lon="118.41963165928173"><ele>33.0</ele><time>2026-04-23T04:54:52.001Z</time></trkpt><trkpt lat="-20.598399662356783" lon="118.41978308027679"><ele>33.0</ele><time>2026-04-23T04:54:53.001Z</time></trkpt><trkpt lat="-20.59815407917993" lon="118.41993455337347"><ele>33.0</ele><time>2026-04-23T04:54:54.001Z</time></trkpt><trkpt lat="-20.597909536426048" lon="118.42008607043387"><ele>31.0</ele><time>2026-04-23T04:54:55.001Z</time></trkpt><trkpt lat="-20.59766674205571" lon="118.42023830018027"><ele>29.0</ele><time>2026-04-23T04:54:56.001Z</time></trkpt><trkpt lat="-20.597422199830635" lon="118.42039098077325"><ele>29.5</ele><time>2026-04-23T04:54:57.001Z</time></trkpt><trkpt lat="-20.597175660962105" lon="118.42054328867162"><ele>30.0</ele><time>2026-04-23T04:54:58.001Z</time></trkpt><trkpt lat="-20.596923230188104" lon="118.42069899256909"><ele>30.5</ele><time>2026-04-23T04:54:59.001Z</time></trkpt><trkpt lat="-20.596671594051813" lon="118.42085625091268"><ele>31.0</ele><time>2026-04-23T04:55:00.001Z</time></trkpt><trkpt lat="-20.59641865909271" lon="118.4210136244348"><ele>31.0</ele><time>2026-04-23T04:55:01.001Z</time></trkpt><trkpt lat="-20.59616903421338" lon="118.42116948073044"><ele>31.0</ele><time>2026-04-23T04:55:02.001Z</time></trkpt><trkpt lat="-20.595918063869494" lon="118.42132353249264"><ele>31.0</ele><time>2026-04-23T04:55:03.001Z</time></trkpt><trkpt lat="-20.581553937222882" lon="118.43016554617714"><ele>31.0</ele><time>2026-04-23T04:56:04Z</time></trkpt><trkpt lat="-20.58131589032016" lon="118.43031226614029"><ele>31.0</ele><time>2026-04-23T04:56:05Z</time></trkpt><trkpt lat="-20.581076828771778" lon="118.43045938833639"><ele>31.0</ele><time>2026-04-23T04:56:06Z</time></trkpt><trkpt lat="-20.580839174936315" lon="118.43060750426226"><ele>31.0</ele><time>2026-04-23T04:56:07Z</time></trkpt><trkpt lat="-20.58060197653891" lon="118.43075722426549"><ele>31.0</ele><time>2026-04-23T04:56:08Z</time></trkpt><trkpt lat="-20.580363062420915" lon="118.43090671666732"><ele>31.0</ele><time>2026-04-23T04:56:09Z</time></trkpt><trkpt lat="-20.580128190400767" lon="118.43105134827616"><ele>31.0</ele><time>2026-04-23T04:56:10Z</time></trkpt><trkpt lat="-20.579890138533006" lon="118.43119699521674"><ele>31.0</ele><time>2026-04-23T04:56:11Z</time></trkpt><trkpt lat="-20.579650305721437" lon="118.43134418411995"><ele>30.0</ele><time>2026-04-23T04:56:12Z</time></trkpt><trkpt lat="-20.579410960529877" lon="118.43149469968932"><ele>29.0</ele><time>2026-04-23T04:56:13Z</time></trkpt><trkpt lat="-20.57917186156476" lon="118.43164232890983"><ele>29.0</ele><time>2026-04-23T04:56:14.001Z</time></trkpt><trkpt lat="-20.578931637455668" lon="118.43179020709756"><ele>29.0</ele><time>2026-04-23T04:56:15.001Z</time></trkpt><trkpt lat="-20.57868732009732" lon="118.4319369692172"><ele>29.5</ele><time>2026-04-23T04:56:16.001Z</time></trkpt><trkpt lat="-20.578439665596118" lon="118.43208503710457"><ele>30.0</ele><time>2026-04-23T04:56:17.001Z</time></trkpt><trkpt lat="-20.578192662608796" lon="118.43223547080179"><ele>30.0</ele><time>2026-04-23T04:56:18.001Z</time></trkpt><trkpt lat="-20.577944018857192" lon="118.43238926084614"><ele>30.0</ele><time>2026-04-23T04:56:19.001Z</time></trkpt><trkpt lat="-20.577690181559127" lon="118.43254629772603"><ele>30.0</ele><time>2026-04-23T04:56:20.001Z</time></trkpt><trkpt lat="-20.577434797736608" lon="118.43270427001491"><ele>30.0</ele><time>2026-04-23T04:56:21.001Z</time></trkpt><trkpt lat="-20.577175158571976" lon="118.43286265150559"><ele>30.0</ele><time>2026-04-23T04:56:22.001Z</time></trkpt><trkpt lat="-20.57691421943314" lon="118.4330197625505"><ele>30.0</ele><time>2026-04-23T04:56:23.001Z</time></trkpt><trkpt lat="-20.576657077952213" lon="118.43317614998409"><ele>30.0</ele><time>2026-04-23T04:56:24.001Z</time></trkpt><trkpt lat="-20.57640171100318" lon="118.43333340440324"><ele>30.0</ele><time>2026-04-23T04:56:25.001Z</time></trkpt><trkpt lat="-20.576146283443872" lon="118.43349504335922"><ele>31.0</ele><time>2026-04-23T04:56:26.001Z</time></trkpt><trkpt lat="-20.57589795523068" lon="118.43364949194152"><ele>32.0</ele><time>2026-04-23T04:56:27.001Z</time></trkpt><trkpt lat="-20.575653672016188" lon="118.43380216329705"><ele>32.5</ele><time>2026-04-23T04:56:28.001Z</time></trkpt><trkpt lat="-20.575409338599883" lon="118.4339548211623"><ele>33.0</ele><time>2026-04-23T04:56:29.001Z</time></trkpt><trkpt lat="-20.575161100143134" lon="118.4341063302995"><ele>33.0</ele><time>2026-04-23T04:56:30.001Z</time></trkpt><trkpt lat="-20.57491296567481" lon="118.43425943373022"><ele>33.0</ele><time>2026-04-23T04:56:31.001Z</time></trkpt><trkpt lat="-20.574661841258205" lon="118.43441983972076"><ele>32.5</ele><time>2026-04-23T04:56:32.001Z</time></trkpt><trkpt lat="-20.574404676337874" lon="118.43457889586931"><ele>32.0</ele><time>2026-04-23T04:56:33.001Z</time></trkpt><trkpt lat="-20.57414933364281" lon="118.4347354616307"><ele>31.5</ele><time>2026-04-23T04:56:34.001Z</time></trkpt><trkpt lat="-20.573892390769732" lon="118.43489129832416"><ele>31.0</ele><time>2026-04-23T04:56:35.001Z</time></trkpt><trkpt lat="-20.573637168407636" lon="118.4350442813693"><ele>31.0</ele><time>2026-04-23T04:56:36.001Z</time></trkpt><trkpt lat="-20.573386420895215" lon="118.43519377182865"><ele>31.0</ele><time>2026-04-23T04:56:37.001Z</time></trkpt><trkpt lat="-20.573137554893894" lon="118.43534523855051"><ele>31.0</ele><time>2026-04-23T04:56:38.001Z</time></trkpt><trkpt lat="-20.572894068939643" lon="118.4354968015947"><ele>31.0</ele><time>2026-04-23T04:56:39.001Z</time></trkpt><trkpt lat="-20.57265222266613" lon="118.43564685686914"><ele>30.5</ele><time>2026-04-23T04:56:40.001Z</time></trkpt><trkpt lat="-20.57241233991445" lon="118.435796190804"><ele>30.0</ele><time>2026-04-23T04:56:41.001Z</time></trkpt><trkpt lat="-20.572173719644656" lon="118.43594369660735"><ele>29.5</ele><time>2026-04-23T04:56:42.001Z</time></trkpt><trkpt lat="-20.571936814979043" lon="118.43609001352965"><ele>29.0</ele><time>2026-04-23T04:56:43.001Z</time></trkpt><trkpt lat="-20.571459302217722" lon="118.43638432726537"><ele>30.0</ele><time>2026-04-23T04:56:45.001Z</time></trkpt><trkpt lat="-20.571219319565873" lon="118.43653278515235"><ele>31.0</ele><time>2026-04-23T04:56:46.001Z</time></trkpt><trkpt lat="-20.570982904286712" lon="118.43667809073757"><ele>31.5</ele><time>2026-04-23T04:56:47.001Z</time></trkpt><trkpt lat="-20.570745246475852" lon="118.43682529858063"><ele>32.0</ele><time>2026-04-23T04:56:48.001Z</time></trkpt><trkpt lat="-20.570510898584775" lon="118.43697398055124"><ele>31.5</ele><time>2026-04-23T04:56:49.001Z</time></trkpt><trkpt lat="-20.570270359798425" lon="118.4371234177719"><ele>31.0</ele><time>2026-04-23T04:56:50.001Z</time></trkpt><trkpt lat="-20.57003237487577" lon="118.43727371054402"><ele>30.0</ele><time>2026-04-23T04:56:51.001Z</time></trkpt><trkpt lat="-20.56979300892502" lon="118.43742405293085"><ele>29.0</ele><time>2026-04-23T04:56:52.001Z</time></trkpt><trkpt lat="-20.569554043691202" lon="118.43757252106462"><ele>29.5</ele><time>2026-04-23T04:56:53.001Z</time></trkpt><trkpt lat="-20.56931105461804" lon="118.43771936729537"><ele>30.0</ele><time>2026-04-23T04:56:54.001Z</time></trkpt><trkpt lat="-20.56906935548621" lon="118.43786575974464"><ele>30.0</ele><time>2026-04-23T04:56:55.001Z</time></trkpt><trkpt lat="-20.56882771809812" lon="118.43801156223725"><ele>30.0</ele><time>2026-04-23T04:56:56.001Z</time></trkpt><trkpt lat="-20.56858526400988" lon="118.43815492659284"><ele>29.5</ele><time>2026-04-23T04:56:57.001Z</time></trkpt><trkpt lat="-20.568336000206696" lon="118.43829923356068"><ele>29.0</ele><time>2026-04-23T04:56:58.001Z</time></trkpt><trkpt lat="-20.568088951154767" lon="118.4384441725016"><ele>29.0</ele><time>2026-04-23T04:56:59.001Z</time></trkpt><trkpt lat="-20.567848572434364" lon="118.4385875429515"><ele>29.0</ele><time>2026-04-23T04:57:00.001Z</time></trkpt><trkpt lat="-20.567617380739396" lon="118.43872695673407"><ele>29.0</ele><time>2026-04-23T04:57:01.001Z</time></trkpt><trkpt lat="-20.5673850275345" lon="118.43886498224406"><ele>29.0</ele><time>2026-04-23T04:57:02.001Z</time></trkpt><trkpt lat="-20.56715092650123" lon="118.43900711714355"><ele>27.0</ele><time>2026-04-23T04:57:03.001Z</time></trkpt><trkpt lat="-20.55468697393818" lon="118.44671407884714"><ele>27.5</ele><time>2026-04-23T04:57:55Z</time></trkpt><trkpt lat="-20.554450048517058" lon="118.44686209074055"><ele>28.0</ele><time>2026-04-23T04:57:56Z</time></trkpt><trkpt lat="-20.55421572226265" lon="118.44700836987366"><ele>28.0</ele><time>2026-04-23T04:57:57Z</time></trkpt><trkpt lat="-20.553973678001846" lon="118.44715697004173"><ele>28.0</ele><time>2026-04-23T04:57:58Z</time></trkpt><trkpt lat="-20.55373248629158" lon="118.4473029470575"><ele>29.0</ele><time>2026-04-23T04:57:59Z</time></trkpt><trkpt lat="-20.55251934592548" lon="118.44804536219219"><ele>29.0</ele><time>2026-04-23T04:58:04Z</time></trkpt><trkpt lat="-20.55227741664666" lon="118.4481926814944"><ele>29.0</ele><time>2026-04-23T04:58:05Z</time></trkpt><trkpt lat="-20.552033140280546" lon="118.44834466220426"><ele>29.5</ele><time>2026-04-23T04:58:06Z</time></trkpt><trkpt lat="-20.551791856908018" lon="118.44849512470063"><ele>30.0</ele><time>2026-04-23T04:58:07Z</time></trkpt><trkpt lat="-20.551546964758383" lon="118.4486434934245"><ele>30.0</ele><time>2026-04-23T04:58:08Z</time></trkpt><trkpt lat="-20.55129917852902" lon="118.44878912533012"><ele>30.0</ele><time>2026-04-23T04:58:09Z</time></trkpt><trkpt lat="-20.551048332857455" lon="118.44893292429101"><ele>29.5</ele><time>2026-04-23T04:58:10Z</time></trkpt><trkpt lat="-20.55079027198283" lon="118.44906840753609"><ele>29.0</ele><time>2026-04-23T04:58:11Z</time></trkpt><trkpt lat="-20.550530251345446" lon="118.44919948687387"><ele>29.0</ele><time>2026-04-23T04:58:12Z</time></trkpt><trkpt lat="-20.55026718178961" lon="118.44932425988955"><ele>29.0</ele><time>2026-04-23T04:58:13Z</time></trkpt><trkpt lat="-20.549998719027634" lon="118.44944076594734"><ele>29.0</ele><time>2026-04-23T04:58:14Z</time></trkpt><trkpt lat="-20.549732908848814" lon="118.44955436441784"><ele>29.0</ele><time>2026-04-23T04:58:15Z</time></trkpt><trkpt lat="-20.54946442449915" lon="118.44966491196371"><ele>29.5</ele><time>2026-04-23T04:58:16Z</time></trkpt><trkpt lat="-20.54919420217689" lon="118.44977542633184"><ele>30.0</ele><time>2026-04-23T04:58:17Z</time></trkpt><trkpt lat="-20.54892428397193" lon="118.44988692308169"><ele>29.5</ele><time>2026-04-23T04:58:18Z</time></trkpt><trkpt lat="-20.54865345974676" lon="118.45000057251178"><ele>29.0</ele><time>2026-04-23T04:58:19Z</time></trkpt><trkpt lat="-20.548379475559518" lon="118.45011722192278"><ele>29.0</ele><time>2026-04-23T04:58:20Z</time></trkpt><trkpt lat="-20.548106340206633" lon="118.45023388651225"><ele>29.0</ele><time>2026-04-23T04:58:21Z</time></trkpt><trkpt lat="-20.54783479005118" lon="118.45034897589207"><ele>29.0</ele><time>2026-04-23T04:58:22Z</time></trkpt><trkpt lat="-20.547566165185746" lon="118.45046284386292"><ele>29.0</ele><time>2026-04-23T04:58:23Z</time></trkpt><trkpt lat="-20.547301015922006" lon="118.45057325004719"><ele>29.0</ele><time>2026-04-23T04:58:24Z</time></trkpt><trkpt lat="-20.547037387439243" lon="118.45068298501181"><ele>29.0</ele><time>2026-04-23T04:58:25Z</time></trkpt><trkpt lat="-20.54677961800149" lon="118.45079068564897"><ele>29.0</ele><time>2026-04-23T04:58:26Z</time></trkpt><trkpt lat="-20.546522560629185" lon="118.45089718082446"><ele>29.0</ele><time>2026-04-23T04:58:27Z</time></trkpt><trkpt lat="-20.546258903297176" lon="118.45100788985594"><ele>28.5</ele><time>2026-04-23T04:58:28Z</time></trkpt><trkpt lat="-20.545991592219234" lon="118.45112222038307"><ele>28.0</ele><time>2026-04-23T04:58:29Z</time></trkpt><trkpt lat="-20.545720400504226" lon="118.45123532274687"><ele>28.0</ele><time>2026-04-23T04:58:30Z</time></trkpt><trkpt lat="-20.5454493494341" lon="118.45134678156413"><ele>28.0</ele><time>2026-04-23T04:58:31Z</time></trkpt><trkpt lat="-20.54518118503701" lon="118.45145690638324"><ele>28.0</ele><time>2026-04-23T04:58:32Z</time></trkpt><trkpt lat="-20.54491089464359" lon="118.4515709502387"><ele>28.0</ele><time>2026-04-23T04:58:33Z</time></trkpt><trkpt lat="-20.544642245223834" lon="118.4516859707626"><ele>27.5</ele><time>2026-04-23T04:58:34Z</time></trkpt><trkpt lat="-20.544372304703945" lon="118.4517999335269"><ele>27.0</ele><time>2026-04-23T04:58:35Z</time></trkpt><trkpt lat="-20.54410351121555" lon="118.45191386453403"><ele>27.0</ele><time>2026-04-23T04:58:36Z</time></trkpt><trkpt lat="-20.543834898144397" lon="118.45202891767538"><ele>27.0</ele><time>2026-04-23T04:58:37Z</time></trkpt><trkpt lat="-20.54356644983255" lon="118.45214191020791"><ele>28.0</ele><time>2026-04-23T04:58:38.001Z</time></trkpt><trkpt lat="-20.543296836059856" lon="118.45225582444036"><ele>29.0</ele><time>2026-04-23T04:58:39.001Z</time></trkpt><trkpt lat="-20.54302627981416" lon="118.45236621273594"><ele>28.5</ele><time>2026-04-23T04:58:40.001Z</time></trkpt><trkpt lat="-20.54275417225511" lon="118.45247479811465"><ele>28.0</ele><time>2026-04-23T04:58:41.001Z</time></trkpt><trkpt lat="-20.54248497613022" lon="118.45258419971023"><ele>28.0</ele><time>2026-04-23T04:58:42.001Z</time></trkpt><trkpt lat="-20.542218201976148" lon="118.45269479199872"><ele>28.0</ele><time>2026-04-23T04:58:43.001Z</time></trkpt><trkpt lat="-20.54195237677812" lon="118.45280485030216"><ele>28.0</ele><time>2026-04-23T04:58:44.001Z</time></trkpt><trkpt lat="-20.541689448261994" lon="118.45291528182301"><ele>28.0</ele><time>2026-04-23T04:58:45.001Z</time></trkpt><trkpt lat="-20.541428577194125" lon="118.45302649914609"><ele>28.0</ele><time>2026-04-23T04:58:46.001Z</time></trkpt><trkpt lat="-20.541167242614765" lon="118.45313706057178"><ele>28.0</ele><time>2026-04-23T04:58:47.001Z</time></trkpt><trkpt lat="-20.540908415689696" lon="118.45324283004989"><ele>28.0</ele><time>2026-04-23T04:58:48.001Z</time></trkpt><trkpt lat="-20.540647733860364" lon="118.45334915968537"><ele>28.0</ele><time>2026-04-23T04:58:49.001Z</time></trkpt><trkpt lat="-20.540389389499285" lon="118.4534581530436"><ele>28.5</ele><time>2026-04-23T04:58:50.001Z</time></trkpt><trkpt lat="-20.54013616033995" lon="118.45356811593427"><ele>29.0</ele><time>2026-04-23T04:58:51.001Z</time></trkpt><trkpt lat="-20.539885035377026" lon="118.45367685426604"><ele>29.0</ele><time>2026-04-23T04:58:52.001Z</time></trkpt><trkpt lat="-20.539636852372603" lon="118.45378319652556"><ele>29.0</ele><time>2026-04-23T04:58:53.001Z</time></trkpt><trkpt lat="-20.53939139689066" lon="118.45388741599908"><ele>28.0</ele><time>2026-04-23T04:58:54.001Z</time></trkpt><trkpt lat="-20.539146319205273" lon="118.45399230625125"><ele>27.0</ele><time>2026-04-23T04:58:55.001Z</time></trkpt><trkpt lat="-20.538905624680194" lon="118.45409410475594"><ele>27.5</ele><time>2026-04-23T04:58:56.001Z</time></trkpt><trkpt lat="-20.53867935210027" lon="118.45419525881363"><ele>28.0</ele><time>2026-04-23T04:58:57.001Z</time></trkpt><trkpt lat="-20.538461499218506" lon="118.45430350852276"><ele>28.0</ele><time>2026-04-23T04:58:58.001Z</time></trkpt><trkpt lat="-20.538236898360687" lon="118.45442776993049"><ele>28.0</ele><time>2026-04-23T04:58:59.001Z</time></trkpt><trkpt lat="-20.538007001709886" lon="118.45456723003217"><ele>28.0</ele><time>2026-04-23T04:59:00.001Z</time></trkpt><trkpt lat="-20.537778618928737" lon="118.45471235651114"><ele>28.0</ele><time>2026-04-23T04:59:01.001Z</time></trkpt><trkpt lat="-20.537551552234714" lon="118.45486446988205"><ele>28.0</ele><time>2026-04-23T04:59:02.001Z</time></trkpt><trkpt lat="-20.53732396983861" lon="118.45503018607891"><ele>28.0</ele><time>2026-04-23T04:59:03.001Z</time></trkpt><trkpt lat="-20.526844048307176" lon="118.46838052763839"><ele>28.0</ele><time>2026-04-23T05:00:04Z</time></trkpt><trkpt lat="-20.526709570275223" lon="118.46859222873015"><ele>28.0</ele><time>2026-04-23T05:00:05Z</time></trkpt><trkpt lat="-20.526580274381338" lon="118.46881172390147"><ele>27.5</ele><time>2026-04-23T05:00:06Z</time></trkpt><trkpt lat="-20.526456518593722" lon="118.46903711746864"><ele>27.0</ele><time>2026-04-23T05:00:07Z</time></trkpt><trkpt lat="-20.52634044052749" lon="118.46926563489325"><ele>27.0</ele><time>2026-04-23T05:00:08Z</time></trkpt><trkpt lat="-20.526227203924268" lon="118.46950000086862"><ele>27.0</ele><time>2026-04-23T05:00:09Z</time></trkpt><trkpt lat="-20.526121674349916" lon="118.46972797802151"><ele>27.0</ele><time>2026-04-23T05:00:10Z</time></trkpt><trkpt lat="-20.526024075493357" lon="118.46995423471492"><ele>27.0</ele><time>2026-04-23T05:00:11Z</time></trkpt><trkpt lat="-20.525936190130306" lon="118.470185821791"><ele>27.0</ele><time>2026-04-23T05:00:12Z</time></trkpt><trkpt lat="-20.525854748546028" lon="118.47042057925118"><ele>27.0</ele><time>2026-04-23T05:00:13Z</time></trkpt><trkpt lat="-20.525774640842094" lon="118.4706600161978"><ele>28.5</ele><time>2026-04-23T05:00:14Z</time></trkpt><trkpt lat="-20.52570103028978" lon="118.47090150424907"><ele>30.0</ele><time>2026-04-23T05:00:15Z</time></trkpt><trkpt lat="-20.525637864354838" lon="118.47114702838641"><ele>29.0</ele><time>2026-04-23T05:00:16Z</time></trkpt><trkpt lat="-20.525580231157495" lon="118.47138803120514"><ele>28.0</ele><time>2026-04-23T05:00:17Z</time></trkpt><trkpt lat="-20.525523608624873" lon="118.47161428850123"><ele>28.0</ele><time>2026-04-23T05:00:18Z</time></trkpt><trkpt lat="-20.525471106920666" lon="118.4718300322755"><ele>28.0</ele><time>2026-04-23T05:00:19Z</time></trkpt><trkpt lat="-20.525417317753597" lon="118.47204171998709"><ele>28.0</ele><time>2026-04-23T05:00:20Z</time></trkpt><trkpt lat="-20.52536407519131" lon="118.4722561054682"><ele>28.666666666666668</ele><time>2026-04-23T05:00:21Z</time></trkpt><trkpt lat="-20.52531502677828" lon="118.4724623123564"><ele>29.333333333333336</ele><time>2026-04-23T05:00:22Z</time></trkpt><trkpt lat="-20.52526950107237" lon="118.47266565724162"><ele>30.0</ele><time>2026-04-23T05:00:23Z</time></trkpt><trkpt lat="-20.52522214362813" lon="118.47286416488338"><ele>30.0</ele><time>2026-04-23T05:00:24Z</time></trkpt><trkpt lat="-20.525169890338223" lon="118.47306204905098"><ele>30.0</ele><time>2026-04-23T05:00:25Z</time></trkpt><trkpt lat="-20.52512112217707" lon="118.47324407498176"><ele>30.0</ele><time>2026-04-23T05:00:26Z</time></trkpt><trkpt lat="-20.5250759318097" lon="118.47341696026807"><ele>30.0</ele><time>2026-04-23T05:00:27Z</time></trkpt><trkpt lat="-20.52503197224396" lon="118.47358262573762"><ele>30.0</ele><time>2026-04-23T05:00:28Z</time></trkpt><trkpt lat="-20.52499362278798" lon="118.47373646378342"><ele>30.0</ele><time>2026-04-23T05:00:29Z</time></trkpt><trkpt lat="-20.52496058114981" lon="118.47387250907994"><ele>30.0</ele><time>2026-04-23T05:00:30Z</time></trkpt><trkpt lat="-20.52492959894034" lon="118.47399628431204"><ele>30.4</ele><time>2026-04-23T05:00:31Z</time></trkpt><trkpt lat="-20.52490288445396" lon="118.4741055400495"><ele>30.8</ele><time>2026-04-23T05:00:32Z</time></trkpt><trkpt lat="-20.524879671194373" lon="118.47420458336843"><ele>31.200000000000003</ele><time>2026-04-23T05:00:33Z</time></trkpt><trkpt lat="-20.524860140697257" lon="118.4742914149379"><ele>31.6</ele><time>2026-04-23T05:00:34Z</time></trkpt><trkpt lat="-20.52484548695477" lon="118.47436361994573"><ele>32.0</ele><time>2026-04-23T05:00:35Z</time></trkpt><trkpt lat="-20.52482885519684" lon="118.47446772334023"><ele>32.0</ele><time>2026-04-23T05:00:37.001Z</time></trkpt><trkpt lat="-20.52487298319033" lon="118.47454577749157"><ele>32.0</ele><time>2026-04-23T05:00:39.001Z</time></trkpt><trkpt lat="-20.525004469811773" lon="118.47457227777878"><ele>32.0</ele><time>2026-04-23T05:00:41.001Z</time></trkpt><trkpt lat="-20.52509892572155" lon="118.47457888695797"><ele>32.0</ele><time>2026-04-23T05:00:42.001Z</time></trkpt><trkpt lat="-20.525209828646798" lon="118.47458105801543"><ele>32.0</ele><time>2026-04-23T05:00:43.001Z</time></trkpt><trkpt lat="-20.52533600533259" lon="118.47458866673536"><ele>32.0</ele><time>2026-04-23T05:00:44.001Z</time></trkpt><trkpt lat="-20.525481014085777" lon="118.47459965888605"><ele>32.0</ele><time>2026-04-23T05:00:45.001Z</time></trkpt><trkpt lat="-20.52562969851164" lon="118.47460982435821"><ele>32.0</ele><time>2026-04-23T05:00:46.001Z</time></trkpt><trkpt lat="-20.525785984371822" lon="118.47462341300904"><ele>32.0</ele><time>2026-04-23T05:00:47.001Z</time></trkpt><trkpt lat="-20.52596067886328" lon="118.47463457968496"><ele>32.0</ele><time>2026-04-23T05:00:48.001Z</time></trkpt><trkpt lat="-20.526143171757276" lon="118.47464336609846"><ele>32.0</ele><time>2026-04-23T05:00:49.001Z</time></trkpt><trkpt lat="-20.52632664251527" lon="118.47465186951631"><ele>32.0</ele><time>2026-04-23T05:00:50.001Z</time></trkpt><trkpt lat="-20.526505231664938" lon="118.47466206728404"><ele>32.0</ele><time>2026-04-23T05:00:51.001Z</time></trkpt><trkpt lat="-20.526671191304455" lon="118.47467208994541"><ele>32.0</ele><time>2026-04-23T05:00:52.001Z</time></trkpt><trkpt lat="-20.526850435308454" lon="118.47468347206888"><ele>32.0</ele><time>2026-04-23T05:00:53.001Z</time></trkpt><trkpt lat="-20.52703775851028" lon="118.47469783807566"><ele>32.0</ele><time>2026-04-23T05:00:54.001Z</time></trkpt><trkpt lat="-20.52723583842085" lon="118.4747161860696"><ele>32.0</ele><time>2026-04-23T05:00:55.001Z</time></trkpt><trkpt lat="-20.527446912530316" lon="118.47473284207126"><ele>32.0</ele><time>2026-04-23T05:00:56.001Z</time></trkpt><trkpt lat="-20.527662680263678" lon="118.47474338876425"><ele>32.0</ele><time>2026-04-23T05:00:57.001Z</time></trkpt><trkpt lat="-20.527881301403685" lon="118.4747556028289"><ele>32.0</ele><time>2026-04-23T05:00:58.001Z</time></trkpt><trkpt lat="-20.52810848482838" lon="118.47477035297986"><ele>32.0</ele><time>2026-04-23T05:00:59.001Z</time></trkpt><trkpt lat="-20.528341822090052" lon="118.4747831507025"><ele>32.0</ele><time>2026-04-23T05:01:00.001Z</time></trkpt><trkpt lat="-20.528579405454344" lon="118.47479602836245"><ele>32.0</ele><time>2026-04-23T05:01:01.001Z</time></trkpt><trkpt lat="-20.52881919740796" lon="118.47481007306291"><ele>32.0</ele><time>2026-04-23T05:01:02.001Z</time></trkpt><trkpt lat="-20.52906453732837" lon="118.47482642610905"><ele>33.0</ele><time>2026-04-23T05:01:03.001Z</time></trkpt><trkpt lat="-20.543178388591002" lon="118.47790493730004"><ele>33.0</ele><time>2026-04-23T05:02:04Z</time></trkpt><trkpt lat="-20.543345214131445" lon="118.47800263262286"><ele>33.0</ele><time>2026-04-23T05:02:05Z</time></trkpt><trkpt lat="-20.543505720504363" lon="118.47809379926062"><ele>33.0</ele><time>2026-04-23T05:02:06Z</time></trkpt><trkpt lat="-20.54365517884724" lon="118.47818430388203"><ele>33.0</ele><time>2026-04-23T05:02:07Z</time></trkpt><trkpt lat="-20.54379697232086" lon="118.47827203070037"><ele>33.0</ele><time>2026-04-23T05:02:08Z</time></trkpt><trkpt lat="-20.54392968737453" lon="118.47835609647036"><ele>33.0</ele><time>2026-04-23T05:02:09Z</time></trkpt><trkpt lat="-20.54405364531382" lon="118.47843873760792"><ele>33.0</ele><time>2026-04-23T05:02:10Z</time></trkpt><trkpt lat="-20.544172587307422" lon="118.47851296729159"><ele>33.0</ele><time>2026-04-23T05:02:11Z</time></trkpt><trkpt lat="-20.544286305377266" lon="118.47857873432265"><ele>33.0</ele><time>2026-04-23T05:02:12Z</time></trkpt><trkpt lat="-20.54439763798836" lon="118.47863506925826"><ele>33.0</ele><time>2026-04-23T05:02:13Z</time></trkpt><trkpt lat="-20.544502124728286" lon="118.47868708608098"><ele>32.833333333333336</ele><time>2026-04-23T05:02:14Z</time></trkpt><trkpt lat="-20.544593102762363" lon="118.47873581800606"><ele>32.666666666666664</ele><time>2026-04-23T05:02:15Z</time></trkpt><trkpt lat="-20.54467381221413" lon="118.47877814889863"><ele>32.5</ele><time>2026-04-23T05:02:16Z</time></trkpt><trkpt lat="-20.54474150198966" lon="118.47881196450294"><ele>32.33333333333333</ele><time>2026-04-23T05:02:17Z</time></trkpt><trkpt lat="-20.54483224728722" lon="118.4788478936732"><ele>32.166666666666664</ele><time>2026-04-23T05:02:19Z</time></trkpt><trkpt lat="-20.544893040661066" lon="118.47888204883598"><ele>32.0</ele><time>2026-04-23T05:02:22Z</time></trkpt><trkpt lat="-20.544867444682794" lon="118.47895496589634"><ele>31.999999999999996</ele><time>2026-04-23T05:02:26Z</time></trkpt><trkpt lat="-20.5447855730777" lon="118.47892003002269"><ele>32.0</ele><time>2026-04-23T05:02:28Z</time></trkpt><trkpt lat="-20.544727480934483" lon="118.4788544197602"><ele>32.0</ele><time>2026-04-23T05:02:29Z</time></trkpt><trkpt lat="-20.544669148232106" lon="118.47880668644876"><ele>32.0</ele><time>2026-04-23T05:02:30Z</time></trkpt><trkpt lat="-20.54459058673215" lon="118.47875797667436"><ele>31.999999999999996</ele><time>2026-04-23T05:02:31Z</time></trkpt><trkpt lat="-20.544509323350663" lon="118.47870733481935"><ele>32.0</ele><time>2026-04-23T05:02:32Z</time></trkpt><trkpt lat="-20.544430653344648" lon="118.47865199803502"><ele>32.2</ele><time>2026-04-23T05:02:33Z</time></trkpt><trkpt lat="-20.54434656653794" lon="118.47858980558496"><ele>32.400000000000006</ele><time>2026-04-23T05:02:34Z</time></trkpt><trkpt lat="-20.544263061139883" lon="118.47854057091278"><ele>32.599999999999994</ele><time>2026-04-23T05:02:35Z</time></trkpt><trkpt lat="-20.54418797361422" lon="118.47850782379987"><ele>32.8</ele><time>2026-04-23T05:02:36.001Z</time></trkpt><trkpt lat="-20.54408172442625" lon="118.47849112753084"><ele>33.0</ele><time>2026-04-23T05:02:38.001Z</time></trkpt><trkpt lat="-20.544030634462263" lon="118.47855604958518"><ele>33.0</ele><time>2026-04-23T05:02:41.001Z</time></trkpt><trkpt lat="-20.54400927386955" lon="118.47863578162648"><ele>33.0</ele><time>2026-04-23T05:02:43.001Z</time></trkpt><trkpt lat="-20.544007596456524" lon="118.47870527506613"><ele>33.0</ele><time>2026-04-23T05:02:44.001Z</time></trkpt><trkpt lat="-20.544016444403354" lon="118.4787868999888"><ele>33.0</ele><time>2026-04-23T05:02:45.001Z</time></trkpt><trkpt lat="-20.544030095388596" lon="118.47887716195588"><ele>33.0</ele><time>2026-04-23T05:02:46.001Z</time></trkpt><trkpt lat="-20.54403363767207" lon="118.47895862017255"><ele>33.0</ele><time>2026-04-23T05:02:47.001Z</time></trkpt><trkpt lat="-20.544026055707985" lon="118.47905947183733"><ele>33.4</ele><time>2026-04-23T05:02:48.001Z</time></trkpt><trkpt lat="-20.544021821247608" lon="118.47915205663686"><ele>33.8</ele><time>2026-04-23T05:02:49.001Z</time></trkpt><trkpt lat="-20.54402144602108" lon="118.47924578354056"><ele>34.2</ele><time>2026-04-23T05:02:50.001Z</time></trkpt><trkpt lat="-20.544017592574683" lon="118.47935230604965"><ele>34.6</ele><time>2026-04-23T05:02:51.001Z</time></trkpt><trkpt lat="-20.544013645512777" lon="118.47946200811036"><ele>35.0</ele><time>2026-04-23T05:02:52.001Z</time></trkpt><trkpt lat="-20.54401069599609" lon="118.47956452852478"><ele>34.25</ele><time>2026-04-23T05:02:53.001Z</time></trkpt><trkpt lat="-20.544011307896103" lon="118.47967276710855"><ele>33.5</ele><time>2026-04-23T05:02:54.001Z</time></trkpt><trkpt lat="-20.54401619616894" lon="118.47979709847168"><ele>32.75</ele><time>2026-04-23T05:02:55.001Z</time></trkpt><trkpt lat="-20.544022054645474" lon="118.47992784776046"><ele>32.0</ele><time>2026-04-23T05:02:56.001Z</time></trkpt><trkpt lat="-20.54403065282884" lon="118.48006723756372"><ele>32.0</ele><time>2026-04-23T05:02:57.001Z</time></trkpt><trkpt lat="-20.54403734311068" lon="118.48020246054675"><ele>32.0</ele><time>2026-04-23T05:02:58.001Z</time></trkpt><trkpt lat="-20.544038658823084" lon="118.48033628643392"><ele>32.0</ele><time>2026-04-23T05:02:59.001Z</time></trkpt><trkpt lat="-20.544039611602276" lon="118.4804625318884"><ele>32.0</ele><time>2026-04-23T05:03:00.001Z</time></trkpt><trkpt lat="-20.54404417679353" lon="118.48059013231936"><ele>32.0</ele><time>2026-04-23T05:03:01.001Z</time></trkpt><trkpt lat="-20.544044971582714" lon="118.48071575833237"><ele>32.0</ele><time>2026-04-23T05:03:02.001Z</time></trkpt><trkpt lat="-20.54404423905558" lon="118.48083884679535"><ele>32.0</ele><time>2026-04-23T05:03:03.001Z</time></trkpt><trkpt lat="-20.540166339809097" lon="118.48688234550062"><ele>31.999999999999996</ele><time>2026-04-23T05:04:04.001Z</time></trkpt><trkpt lat="-20.54012465298136" lon="118.48694018224226"><ele>32.0</ele><time>2026-04-23T05:04:06.001Z</time></trkpt><trkpt lat="-20.540095290859636" lon="118.48686795109785"><ele>32.0</ele><time>2026-04-23T05:04:29Z</time></trkpt><trkpt lat="-20.54009135733837" lon="118.48678687362018"><ele>32.0</ele><time>2026-04-23T05:04:32Z</time></trkpt><trkpt lat="-20.540044609003527" lon="118.48674057772544"><ele>31.999999999999996</ele><time>2026-04-23T05:04:34Z</time></trkpt><trkpt lat="-20.539954622450413" lon="118.48668910069779"><ele>32.0</ele><time>2026-04-23T05:04:36Z</time></trkpt><trkpt lat="-20.539892863776704" lon="118.4866649630588"><ele>32.0</ele><time>2026-04-23T05:04:37.001Z</time></trkpt><trkpt lat="-20.539837044861336" lon="118.48662321949261"><ele>32.0</ele><time>2026-04-23T05:04:38Z</time></trkpt><trkpt lat="-20.539772452012667" lon="118.48656337650499"><ele>32.0</ele><time>2026-04-23T05:04:39Z</time></trkpt><trkpt lat="-20.539693637914045" lon="118.4864947526039"><ele>32.0</ele><time>2026-04-23T05:04:40Z</time></trkpt><trkpt lat="-20.53961164368876" lon="118.48642723296504"><ele>32.0</ele><time>2026-04-23T05:04:41.001Z</time></trkpt><trkpt lat="-20.539517101432708" lon="118.48633600558205"><ele>30.75</ele><time>2026-04-23T05:04:42.001Z</time></trkpt><trkpt lat="-20.539413906513495" lon="118.48624593459675"><ele>29.5</ele><time>2026-04-23T05:04:43.001Z</time></trkpt><trkpt lat="-20.53930120011955" lon="118.48614897140132"><ele>28.25</ele><time>2026-04-23T05:04:44.001Z</time></trkpt><trkpt lat="-20.539193482526052" lon="118.48605864388914"><ele>27.0</ele><time>2026-04-23T05:04:45.001Z</time></trkpt><trkpt lat="-20.539084734141223" lon="118.48596481030661"><ele>27.0</ele><time>2026-04-23T05:04:46.001Z</time></trkpt><trkpt lat="-20.538976140839416" lon="118.48586557226712"><ele>27.0</ele><time>2026-04-23T05:04:47.001Z</time></trkpt><trkpt lat="-20.538865211076747" lon="118.48576495530598"><ele>27.0</ele><time>2026-04-23T05:04:48.001Z</time></trkpt><trkpt lat="-20.53874751326107" lon="118.48565800347565"><ele>27.0</ele><time>2026-04-23T05:04:49.001Z</time></trkpt><trkpt lat="-20.53862706485002" lon="118.48555206676807"><ele>27.0</ele><time>2026-04-23T05:04:50.001Z</time></trkpt><trkpt lat="-20.538520506780124" lon="118.48545855474188"><ele>27.0</ele><time>2026-04-23T05:04:51.001Z</time></trkpt><trkpt lat="-20.538417930205433" lon="118.48536771191712"><ele>27.0</ele><time>2026-04-23T05:04:52.001Z</time></trkpt><trkpt lat="-20.538315280548844" lon="118.48527118330533"><ele>27.0</ele><time>2026-04-23T05:04:53.001Z</time></trkpt><trkpt lat="-20.538214859060968" lon="118.4851786553269"><ele>27.25</ele><time>2026-04-23T05:04:54.001Z</time></trkpt><trkpt lat="-20.538112736053794" lon="118.48508947126595"><ele>27.5</ele><time>2026-04-23T05:04:55.001Z</time></trkpt><trkpt lat="-20.53801504884785" lon="118.48499737165463"><ele>27.75</ele><time>2026-04-23T05:04:56.001Z</time></trkpt><trkpt lat="-20.537918511248858" lon="118.48490910399175"><ele>28.0</ele><time>2026-04-23T05:04:57.001Z</time></trkpt><trkpt lat="-20.537817674159395" lon="118.4848211164958"><ele>28.0</ele><time>2026-04-23T05:04:58.001Z</time></trkpt><trkpt lat="-20.537717168633034" lon="118.48473445704653"><ele>28.0</ele><time>2026-04-23T05:04:59.001Z</time></trkpt><trkpt lat="-20.537614516739406" lon="118.48464335389232"><ele>28.0</ele><time>2026-04-23T05:05:00.001Z</time></trkpt><trkpt lat="-20.537511496461008" lon="118.48455812391471"><ele>28.0</ele><time>2026-04-23T05:05:01.001Z</time></trkpt><trkpt lat="-20.53741122651899" lon="118.48447082102255"><ele>28.0</ele><time>2026-04-23T05:05:02.001Z</time></trkpt><trkpt lat="-20.537310126937307" lon="118.48438383592604"><ele>28.0</ele><time>2026-04-23T05:05:03.001Z</time></trkpt><trkpt lat="-20.536321238371283" lon="118.48412698466038"><ele>28.142857142857142</ele><time>2026-04-23T05:06:04.001Z</time></trkpt><trkpt lat="-20.536381594944" lon="118.48409647298782"><ele>28.285714285714285</ele><time>2026-04-23T05:06:54.001Z</time></trkpt><trkpt lat="-20.536452576510477" lon="118.48410798079868"><ele>28.42857142857143</ele><time>2026-04-23T05:06:55.001Z</time></trkpt><trkpt lat="-20.53652132527133" lon="118.48412978636698"><ele>28.571428571428573</ele><time>2026-04-23T05:06:56.001Z</time></trkpt><trkpt lat="-20.53658682673917" lon="118.48414678790516"><ele>28.714285714285715</ele><time>2026-04-23T05:06:57.001Z</time></trkpt><trkpt lat="-20.5366640050965" lon="118.48415553530387"><ele>28.85714285714286</ele><time>2026-04-23T05:06:58.001Z</time></trkpt><trkpt lat="-20.53674490351641" lon="118.4841578031808"><ele>29.000000000000004</ele><time>2026-04-23T05:06:59.001Z</time></trkpt><trkpt lat="-20.536822618032584" lon="118.48416169896562"><ele>29.0</ele><time>2026-04-23T05:07:00.001Z</time></trkpt><trkpt lat="-20.536894658616525" lon="118.4841713659287"><ele>29.0</ele><time>2026-04-23T05:07:01.001Z</time></trkpt><trkpt lat="-20.536972413458233" lon="118.48419078715297"><ele>29.0</ele><time>2026-04-23T05:07:02.001Z</time></trkpt><trkpt lat="-20.53705917817893" lon="118.48422334921754"><ele>29.0</ele><time>2026-04-23T05:07:03.001Z</time></trkpt><trkpt lat="-20.543501960574574" lon="118.48250129771765"><ele>29.0</ele><time>2026-04-23T05:08:04.001Z</time></trkpt><trkpt lat="-20.543604273480913" lon="118.48235791703428"><ele>29.0</ele><time>2026-04-23T05:08:05.001Z</time></trkpt><trkpt lat="-20.54370650032137" lon="118.48221471946601"><ele>29.0</ele><time>2026-04-23T05:08:06.001Z</time></trkpt><trkpt lat="-20.54379492674782" lon="118.4820872843996"><ele>29.2</ele><time>2026-04-23T05:08:07.001Z</time></trkpt><trkpt lat="-20.54386953929645" lon="118.48197650414859"><ele>29.4</ele><time>2026-04-23T05:08:08.001Z</time></trkpt><trkpt lat="-20.543923552395466" lon="118.48188726645884"><ele>29.6</ele><time>2026-04-23T05:08:09.001Z</time></trkpt><trkpt lat="-20.54397156283016" lon="118.48179719189876"><ele>29.8</ele><time>2026-04-23T05:08:10.001Z</time></trkpt><trkpt lat="-20.544009721271674" lon="118.48169780713562"><ele>30.0</ele><time>2026-04-23T05:08:11.001Z</time></trkpt><trkpt lat="-20.544038645316075" lon="118.48158389583473"><ele>30.0</ele><time>2026-04-23T05:08:12.001Z</time></trkpt><trkpt lat="-20.544054920992583" lon="118.48145562538596"><ele>30.0</ele><time>2026-04-23T05:08:13.001Z</time></trkpt><trkpt lat="-20.54406320997934" lon="118.48131957383241"><ele>30.0</ele><time>2026-04-23T05:08:14.001Z</time></trkpt><trkpt lat="-20.544060062813376" lon="118.48116966644035"><ele>30.0</ele><time>2026-04-23T05:08:15.001Z</time></trkpt><trkpt lat="-20.544053667821952" lon="118.48099774020422"><ele>29.333333333333336</ele><time>2026-04-23T05:08:16.001Z</time></trkpt><trkpt lat="-20.544047083532263" lon="118.48081675983624"><ele>28.666666666666668</ele><time>2026-04-23T05:08:17.001Z</time></trkpt><trkpt lat="-20.544043364016805" lon="118.480624996105"><ele>28.0</ele><time>2026-04-23T05:08:18.001Z</time></trkpt><trkpt lat="-20.54404072132254" lon="118.48042770264404"><ele>29.333333333333336</ele><time>2026-04-23T05:08:19.001Z</time></trkpt><trkpt lat="-20.544035652391997" lon="118.48023419348412"><ele>30.666666666666664</ele><time>2026-04-23T05:08:20Z</time></trkpt><trkpt lat="-20.544029890245813" lon="118.48004358647405"><ele>32.0</ele><time>2026-04-23T05:08:21Z</time></trkpt><trkpt lat="-20.54402352823679" lon="118.47986497863327"><ele>32.0</ele><time>2026-04-23T05:08:22Z</time></trkpt><trkpt lat="-20.544015217065066" lon="118.47969142267422"><ele>32.0</ele><time>2026-04-23T05:08:23Z</time></trkpt><trkpt lat="-20.544010562601272" lon="118.47951738447836"><ele>32.0</ele><time>2026-04-23T05:08:24Z</time></trkpt><trkpt lat="-20.5440120526129" lon="118.47934895582561"><ele>32.75</ele><time>2026-04-23T05:08:25Z</time></trkpt><trkpt lat="-20.544014804013816" lon="118.47918968067"><ele>33.5</ele><time>2026-04-23T05:08:26Z</time></trkpt><trkpt lat="-20.544023550033355" lon="118.4790497564448"><ele>34.25</ele><time>2026-04-23T05:08:27Z</time></trkpt><trkpt lat="-20.544024894526274" lon="118.47891703252219"><ele>35.0</ele><time>2026-04-23T05:08:28Z</time></trkpt><trkpt lat="-20.544021167474035" lon="118.47879633211134"><ele>34.666666666666664</ele><time>2026-04-23T05:08:29Z</time></trkpt><trkpt lat="-20.544019490036128" lon="118.47869191584296"><ele>34.33333333333333</ele><time>2026-04-23T05:08:30Z</time></trkpt><trkpt lat="-20.544020248723662" lon="118.4786103891725"><ele>34.0</ele><time>2026-04-23T05:08:31Z</time></trkpt><trkpt lat="-20.54403722165089" lon="118.47850717842968"><ele>33.666666666666664</ele><time>2026-04-23T05:08:33Z</time></trkpt><trkpt lat="-20.544056610954097" lon="118.47842848607857"><ele>33.333333333333336</ele><time>2026-04-23T05:08:36Z</time></trkpt><trkpt lat="-20.544001308632435" lon="118.47835700836764"><ele>33.0</ele><time>2026-04-23T05:08:38Z</time></trkpt><trkpt lat="-20.543936263150144" lon="118.47830621044525"><ele>33.0</ele><time>2026-04-23T05:08:39Z</time></trkpt><trkpt lat="-20.543852473700824" lon="118.47825547389387"><ele>33.0</ele><time>2026-04-23T05:08:40Z</time></trkpt><trkpt lat="-20.543754124765606" lon="118.478197634518"><ele>33.0</ele><time>2026-04-23T05:08:41Z</time></trkpt><trkpt lat="-20.54363953461262" lon="118.47813024361353"><ele>33.0</ele><time>2026-04-23T05:08:42Z</time></trkpt><trkpt lat="-20.54351045723437" lon="118.47805310453491"><ele>33.0</ele><time>2026-04-23T05:08:43Z</time></trkpt><trkpt lat="-20.543373995358394" lon="118.47796978174816"><ele>33.0</ele><time>2026-04-23T05:08:44Z</time></trkpt><trkpt lat="-20.543233240753395" lon="118.47788646705098"><ele>33.0</ele><time>2026-04-23T05:08:45Z</time></trkpt><trkpt lat="-20.54307308222272" lon="118.47779232294585"><ele>33.0</ele><time>2026-04-23T05:08:46Z</time></trkpt><trkpt lat="-20.54289781534968" lon="118.47770483406308"><ele>33.0</ele><time>2026-04-23T05:08:47Z</time></trkpt><trkpt lat="-20.542726105929084" lon="118.4775962979665"><ele>33.0</ele><time>2026-04-23T05:08:48Z</time></trkpt><trkpt lat="-20.542541297840906" lon="118.4774867631857"><ele>33.333333333333336</ele><time>2026-04-23T05:08:49Z</time></trkpt><trkpt lat="-20.54234752414652" lon="118.47737171948586"><ele>33.66666666666667</ele><time>2026-04-23T05:08:50Z</time></trkpt><trkpt lat="-20.542153927654418" lon="118.47726353344657"><ele>34.0</ele><time>2026-04-23T05:08:51Z</time></trkpt><trkpt lat="-20.54196884347529" lon="118.47713772196035"><ele>32.5</ele><time>2026-04-23T05:08:52Z</time></trkpt><trkpt lat="-20.541747058164773" lon="118.47706398254003"><ele>31.0</ele><time>2026-04-23T05:08:53Z</time></trkpt><trkpt lat="-20.541522654843593" lon="118.47698621224134"><ele>31.0</ele><time>2026-04-23T05:08:54Z</time></trkpt><trkpt lat="-20.54127838544317" lon="118.47691654945052"><ele>31.0</ele><time>2026-04-23T05:08:55Z</time></trkpt><trkpt lat="-20.541027365902572" lon="118.47684956024742"><ele>32.0</ele><time>2026-04-23T05:08:56Z</time></trkpt><trkpt lat="-20.54079064346878" lon="118.47678888803581"><ele>33.0</ele><time>2026-04-23T05:08:57Z</time></trkpt><trkpt lat="-20.54055897532043" lon="118.47672792140584"><ele>32.5</ele><time>2026-04-23T05:08:58Z</time></trkpt><trkpt lat="-20.540329109884986" lon="118.47666283681609"><ele>32.0</ele><time>2026-04-23T05:08:59Z</time></trkpt><trkpt lat="-20.540100655379685" lon="118.47659705034216"><ele>32.0</ele><time>2026-04-23T05:09:00Z</time></trkpt><trkpt lat="-20.539871941898376" lon="118.47652892248212"><ele>32.0</ele><time>2026-04-23T05:09:01Z</time></trkpt><trkpt lat="-20.539638638702108" lon="118.47645962784122"><ele>32.0</ele><time>2026-04-23T05:09:02Z</time></trkpt><trkpt lat="-20.539402787184034" lon="118.47639147682851"><ele>32.0</ele><time>2026-04-23T05:09:03Z</time></trkpt><trkpt lat="-20.52795486034235" lon="118.47472148168123"><ele>30.0</ele><time>2026-04-23T05:09:50.001Z</time></trkpt><trkpt lat="-20.525568147581012" lon="118.47458586860768"><ele>30.0</ele><time>2026-04-23T05:10:04.001Z</time></trkpt><trkpt lat="-20.525435152500485" lon="118.47457649214024"><ele>30.0</ele><time>2026-04-23T05:10:05.001Z</time></trkpt><trkpt lat="-20.52531486937881" lon="118.47456900662928"><ele>30.0</ele><time>2026-04-23T05:10:06.001Z</time></trkpt><trkpt lat="-20.52520328619294" lon="118.47455424553699"><ele>30.0</ele><time>2026-04-23T05:10:07.001Z</time></trkpt><trkpt lat="-20.525103142515338" lon="118.47454348991619"><ele>30.0</ele><time>2026-04-23T05:10:08.001Z</time></trkpt><trkpt lat="-20.52501272941714" lon="118.47453437879969"><ele>30.0</ele><time>2026-04-23T05:10:09.001Z</time></trkpt><trkpt lat="-20.52494085346081" lon="118.47451765441066"><ele>30.0</ele><time>2026-04-23T05:10:10.001Z</time></trkpt><trkpt lat="-20.524848851031507" lon="118.47451089649448"><ele>30.0</ele><time>2026-04-23T05:10:12.001Z</time></trkpt><trkpt lat="-20.524768726936834" lon="118.47451090099413"><ele>30.0</ele><time>2026-04-23T05:10:14.001Z</time></trkpt><trkpt lat="-20.524734003972085" lon="118.4746675573677"><ele>30.0</ele><time>2026-04-23T05:10:15.001Z</time></trkpt><trkpt lat="-20.52471611258456" lon="118.47477579191045"><ele>30.0</ele><time>2026-04-23T05:10:16.001Z</time></trkpt><trkpt lat="-20.524696350994017" lon="118.47490115479332"><ele>30.0</ele><time>2026-04-23T05:10:17.001Z</time></trkpt><trkpt lat="-20.524666615092194" lon="118.4750418199694"><ele>30.0</ele><time>2026-04-23T05:10:18.001Z</time></trkpt><trkpt lat="-20.524626587499416" lon="118.47518772957943"><ele>30.0</ele><time>2026-04-23T05:10:19.001Z</time></trkpt><trkpt lat="-20.52458417410224" lon="118.4753362443916"><ele>30.0</ele><time>2026-04-23T05:10:20.001Z</time></trkpt><trkpt lat="-20.52454447920792" lon="118.47549715628794"><ele>30.0</ele><time>2026-04-23T05:10:21.001Z</time></trkpt><trkpt lat="-20.524502763648915" lon="118.47567390704532"><ele>29.333333333333336</ele><time>2026-04-23T05:10:22.001Z</time></trkpt><trkpt lat="-20.524458937471756" lon="118.47586241035145"><ele>28.666666666666668</ele><time>2026-04-23T05:10:23.001Z</time></trkpt><trkpt lat="-20.524412992480137" lon="118.47605213516965"><ele>28.0</ele><time>2026-04-23T05:10:24.001Z</time></trkpt><trkpt lat="-20.524361573375824" lon="118.476253491814"><ele>28.0</ele><time>2026-04-23T05:10:25.001Z</time></trkpt><trkpt lat="-20.524307258291394" lon="118.47648165325666"><ele>28.0</ele><time>2026-04-23T05:10:26Z</time></trkpt><trkpt lat="-20.524248487438477" lon="118.47672418180451"><ele>28.0</ele><time>2026-04-23T05:10:27Z</time></trkpt><trkpt lat="-20.52418786255601" lon="118.47697786020271"><ele>28.0</ele><time>2026-04-23T05:10:28Z</time></trkpt><trkpt lat="-20.524123711897357" lon="118.47724207593602"><ele>28.0</ele><time>2026-04-23T05:10:29Z</time></trkpt><trkpt lat="-20.5240541110331" lon="118.47751016163944"><ele>28.0</ele><time>2026-04-23T05:10:30Z</time></trkpt><trkpt lat="-20.523981233278523" lon="118.47778568625104"><ele>27.5</ele><time>2026-04-23T05:10:31Z</time></trkpt><trkpt lat="-20.523911285163372" lon="118.4780732933635"><ele>27.0</ele><time>2026-04-23T05:10:32Z</time></trkpt><trkpt lat="-20.523843199641796" lon="118.47835508355685"><ele>27.0</ele><time>2026-04-23T05:10:33Z</time></trkpt><trkpt lat="-20.523773542639802" lon="118.47862668218878"><ele>27.0</ele><time>2026-04-23T05:10:34Z</time></trkpt><trkpt lat="-20.523704803217573" lon="118.47890046722644"><ele>27.5</ele><time>2026-04-23T05:10:35Z</time></trkpt><trkpt lat="-20.523639061788742" lon="118.47918004279983"><ele>28.0</ele><time>2026-04-23T05:10:36Z</time></trkpt><trkpt lat="-20.523572002041945" lon="118.47946035872516"><ele>27.0</ele><time>2026-04-23T05:10:37Z</time></trkpt><trkpt lat="-20.523500911430784" lon="118.4797413033366"><ele>26.0</ele><time>2026-04-23T05:10:38Z</time></trkpt><trkpt lat="-20.523430554343218" lon="118.48002112145143"><ele>26.0</ele><time>2026-04-23T05:10:39Z</time></trkpt><trkpt lat="-20.523364325267693" lon="118.48030108693968"><ele>26.0</ele><time>2026-04-23T05:10:40Z</time></trkpt><trkpt lat="-20.52329504572503" lon="118.48058336549843"><ele>25.0</ele><time>2026-04-23T05:10:41Z</time></trkpt><trkpt lat="-20.523226122240533" lon="118.48085922446116"><ele>24.0</ele><time>2026-04-23T05:10:42Z</time></trkpt><trkpt lat="-20.523156928720603" lon="118.48114511554542"><ele>24.0</ele><time>2026-04-23T05:10:43Z</time></trkpt><trkpt lat="-20.523088031817693" lon="118.48143143562613"><ele>24.0</ele><time>2026-04-23T05:10:44Z</time></trkpt><trkpt lat="-20.523014687700382" lon="118.48171902503525"><ele>24.0</ele><time>2026-04-23T05:10:45Z</time></trkpt><trkpt lat="-20.52293663313011" lon="118.48200760482227"><ele>24.0</ele><time>2026-04-23T05:10:46Z</time></trkpt><trkpt lat="-20.522857675369682" lon="118.48229978638791"><ele>24.0</ele><time>2026-04-23T05:10:47Z</time></trkpt><trkpt lat="-20.522783730935874" lon="118.48259425073302"><ele>24.0</ele><time>2026-04-23T05:10:48Z</time></trkpt><trkpt lat="-20.52271399857373" lon="118.48288269242865"><ele>26.0</ele><time>2026-04-23T05:10:49Z</time></trkpt><trkpt lat="-20.52264570887248" lon="118.4831723067556"><ele>28.0</ele><time>2026-04-23T05:10:50Z</time></trkpt><trkpt lat="-20.522572612357" lon="118.48345422389406"><ele>28.0</ele><time>2026-04-23T05:10:51Z</time></trkpt><trkpt lat="-20.522499594368245" lon="118.48373818714082"><ele>28.0</ele><time>2026-04-23T05:10:52Z</time></trkpt><trkpt lat="-20.522429375877074" lon="118.48401741488613"><ele>29.0</ele><time>2026-04-23T05:10:53Z</time></trkpt><trkpt lat="-20.522357164298587" lon="118.48430091659287"><ele>30.0</ele><time>2026-04-23T05:10:54Z</time></trkpt><trkpt lat="-20.52228682593681" lon="118.48457902703272"><ele>30.5</ele><time>2026-04-23T05:10:55Z</time></trkpt><trkpt lat="-20.522221023155357" lon="118.48485460237626"><ele>31.0</ele><time>2026-04-23T05:10:56Z</time></trkpt><trkpt lat="-20.522154446634577" lon="118.4851304868549"><ele>31.0</ele><time>2026-04-23T05:10:57Z</time></trkpt><trkpt lat="-20.522088244534924" lon="118.48540912103026"><ele>31.0</ele><time>2026-04-23T05:10:58Z</time></trkpt><trkpt lat="-20.522017336054205" lon="118.48568760110713"><ele>29.5</ele><time>2026-04-23T05:10:59Z</time></trkpt><trkpt lat="-20.52194490203738" lon="118.48596524525647"><ele>28.0</ele><time>2026-04-23T05:11:00Z</time></trkpt><trkpt lat="-20.521873915541647" lon="118.48624148926298"><ele>29.5</ele><time>2026-04-23T05:11:01Z</time></trkpt><trkpt lat="-20.52179724605815" lon="118.48651971790552"><ele>31.0</ele><time>2026-04-23T05:11:02Z</time></trkpt><trkpt lat="-20.521715831086308" lon="118.48679453641286"><ele>26.0</ele><time>2026-04-23T05:11:03Z</time></trkpt><trkpt lat="-20.515458427917594" lon="118.49809939478104"><ele>27.0</ele><time>2026-04-23T05:11:48.001Z</time></trkpt><trkpt lat="-20.515163102160518" lon="118.49861038610828"><ele>35.0</ele><time>2026-04-23T05:11:50.001Z</time></trkpt><trkpt lat="-20.51313787752075" lon="118.50214339647411"><ele>35.0</ele><time>2026-04-23T05:12:04.001Z</time></trkpt><trkpt lat="-20.512995238540228" lon="118.50239273040181"><ele>35.0</ele><time>2026-04-23T05:12:05.001Z</time></trkpt><trkpt lat="-20.51285102392438" lon="118.50264634220335"><ele>35.0</ele><time>2026-04-23T05:12:06.001Z</time></trkpt><trkpt lat="-20.512705763864314" lon="118.50290157766884"><ele>35.0</ele><time>2026-04-23T05:12:07.001Z</time></trkpt><trkpt lat="-20.512556473692424" lon="118.50315557474492"><ele>33.0</ele><time>2026-04-23T05:12:08.001Z</time></trkpt><trkpt lat="-20.512403967513198" lon="118.50340641296322"><ele>31.0</ele><time>2026-04-23T05:12:09.001Z</time></trkpt><trkpt lat="-20.51224434910156" lon="118.50365188792416"><ele>32.5</ele><time>2026-04-23T05:12:10.001Z</time></trkpt><trkpt lat="-20.512073219476363" lon="118.50389402672995"><ele>34.0</ele><time>2026-04-23T05:12:11.001Z</time></trkpt><trkpt lat="-20.511893399641103" lon="118.5041371757958"><ele>34.0</ele><time>2026-04-23T05:12:12.001Z</time></trkpt><trkpt lat="-20.511706169561393" lon="118.50437298049572"><ele>34.0</ele><time>2026-04-23T05:12:13.001Z</time></trkpt><trkpt lat="-20.511510588229967" lon="118.504600649176"><ele>33.0</ele><time>2026-04-23T05:12:14.001Z</time></trkpt><trkpt lat="-20.511305899328566" lon="118.5048206405391"><ele>32.0</ele><time>2026-04-23T05:12:15.001Z</time></trkpt><trkpt lat="-20.511096098678223" lon="118.50503295762807"><ele>31.5</ele><time>2026-04-23T05:12:16.001Z</time></trkpt><trkpt lat="-20.510881285802956" lon="118.50524067848828"><ele>31.0</ele><time>2026-04-23T05:12:17.001Z</time></trkpt><trkpt lat="-20.51066370583248" lon="118.50543926317631"><ele>30.0</ele><time>2026-04-23T05:12:18.001Z</time></trkpt><trkpt lat="-20.510438408686298" lon="118.50563311371765"><ele>29.0</ele><time>2026-04-23T05:12:19.001Z</time></trkpt><trkpt lat="-20.5102111086293" lon="118.50582194552936"><ele>28.5</ele><time>2026-04-23T05:12:20.001Z</time></trkpt><trkpt lat="-20.50998714912569" lon="118.50601328672208"><ele>28.0</ele><time>2026-04-23T05:12:21.001Z</time></trkpt><trkpt lat="-20.509762232076262" lon="118.50620618436626"><ele>28.0</ele><time>2026-04-23T05:12:22.001Z</time></trkpt><trkpt lat="-20.50954137248824" lon="118.50639299825677"><ele>28.0</ele><time>2026-04-23T05:12:23.001Z</time></trkpt><trkpt lat="-20.509318525238978" lon="118.50657972798746"><ele>28.0</ele><time>2026-04-23T05:12:24.001Z</time></trkpt><trkpt lat="-20.50909708220288" lon="118.50676667420115"><ele>28.0</ele><time>2026-04-23T05:12:25.001Z</time></trkpt><trkpt lat="-20.50887397629176" lon="118.50695429748629"><ele>28.5</ele><time>2026-04-23T05:12:26.001Z</time></trkpt><trkpt lat="-20.508651843961786" lon="118.50714234802813"><ele>29.0</ele><time>2026-04-23T05:12:27.001Z</time></trkpt><trkpt lat="-20.508432471039182" lon="118.50732957895325"><ele>29.0</ele><time>2026-04-23T05:12:28.001Z</time></trkpt><trkpt lat="-20.50821458093814" lon="118.5075166873246"><ele>29.0</ele><time>2026-04-23T05:12:29.001Z</time></trkpt><trkpt lat="-20.508000984377162" lon="118.50769996256867"><ele>28.5</ele><time>2026-04-23T05:12:30.001Z</time></trkpt><trkpt lat="-20.507789504660252" lon="118.50788209656628"><ele>28.0</ele><time>2026-04-23T05:12:31Z</time></trkpt><trkpt lat="-20.507580033856335" lon="118.50806492515251"><ele>28.0</ele><time>2026-04-23T05:12:32Z</time></trkpt><trkpt lat="-20.507372940617227" lon="118.50824516687875"><ele>28.0</ele><time>2026-04-23T05:12:33Z</time></trkpt><trkpt lat="-20.50716579556751" lon="118.50842111746424"><ele>28.0</ele><time>2026-04-23T05:12:34Z</time></trkpt><trkpt lat="-20.506955426636612" lon="118.50860032234603"><ele>28.0</ele><time>2026-04-23T05:12:35Z</time></trkpt><trkpt lat="-20.506749740071832" lon="118.50877499982761"><ele>28.0</ele><time>2026-04-23T05:12:36Z</time></trkpt><trkpt lat="-20.506543118441062" lon="118.50894994121501"><ele>28.0</ele><time>2026-04-23T05:12:37Z</time></trkpt><trkpt lat="-20.506339744880755" lon="118.50912450938475"><ele>28.5</ele><time>2026-04-23T05:12:38Z</time></trkpt><trkpt lat="-20.506134330583695" lon="118.50929875465772"><ele>29.0</ele><time>2026-04-23T05:12:39Z</time></trkpt><trkpt lat="-20.505927834182515" lon="118.50947542237364"><ele>29.0</ele><time>2026-04-23T05:12:40Z</time></trkpt><trkpt lat="-20.50571858266961" lon="118.50965537905417"><ele>29.0</ele><time>2026-04-23T05:12:41Z</time></trkpt><trkpt lat="-20.505509399107368" lon="118.50983739436433"><ele>28.5</ele><time>2026-04-23T05:12:42Z</time></trkpt><trkpt lat="-20.50529894922021" lon="118.5100177828459"><ele>28.0</ele><time>2026-04-23T05:12:43Z</time></trkpt><trkpt lat="-20.505086184114568" lon="118.51020086582137"><ele>28.0</ele><time>2026-04-23T05:12:44Z</time></trkpt><trkpt lat="-20.5048730036983" lon="118.51038410639225"><ele>28.0</ele><time>2026-04-23T05:12:45Z</time></trkpt><trkpt lat="-20.504658552171414" lon="118.51056443951039"><ele>28.0</ele><time>2026-04-23T05:12:46Z</time></trkpt><trkpt lat="-20.504443518490646" lon="118.51074312567327"><ele>28.0</ele><time>2026-04-23T05:12:47Z</time></trkpt><trkpt lat="-20.504226522894744" lon="118.51092467614724"><ele>28.0</ele><time>2026-04-23T05:12:48Z</time></trkpt><trkpt lat="-20.504006359245526" lon="118.5111100856287"><ele>28.0</ele><time>2026-04-23T05:12:49Z</time></trkpt><trkpt lat="-20.50378669374702" lon="118.51129877114248"><ele>28.0</ele><time>2026-04-23T05:12:50Z</time></trkpt><trkpt lat="-20.503569594274982" lon="118.511486619106"><ele>28.0</ele><time>2026-04-23T05:12:51Z</time></trkpt><trkpt lat="-20.503352421253627" lon="118.5116725613886"><ele>28.0</ele><time>2026-04-23T05:12:52Z</time></trkpt><trkpt lat="-20.503134645095457" lon="118.51185749418987"><ele>28.0</ele><time>2026-04-23T05:12:53Z</time></trkpt><trkpt lat="-20.502923036086504" lon="118.51203971545978"><ele>27.5</ele><time>2026-04-23T05:12:54Z</time></trkpt><trkpt lat="-20.502706130528566" lon="118.51222683039698"><ele>27.0</ele><time>2026-04-23T05:12:55Z</time></trkpt><trkpt lat="-20.502492811166245" lon="118.51241429858482"><ele>27.0</ele><time>2026-04-23T05:12:56Z</time></trkpt><trkpt lat="-20.50227966759622" lon="118.51259971949213"><ele>27.0</ele><time>2026-04-23T05:12:57Z</time></trkpt><trkpt lat="-20.50206996173309" lon="118.51278179299766"><ele>27.5</ele><time>2026-04-23T05:12:58Z</time></trkpt><trkpt lat="-20.501852678236784" lon="118.51296410739586"><ele>28.0</ele><time>2026-04-23T05:12:59Z</time></trkpt><trkpt lat="-20.501634637498626" lon="118.51314548534313"><ele>28.0</ele><time>2026-04-23T05:13:00Z</time></trkpt><trkpt lat="-20.50141840035109" lon="118.51333211028312"><ele>28.0</ele><time>2026-04-23T05:13:01Z</time></trkpt><trkpt lat="-20.5011999596852" lon="118.51352272198672"><ele>27.5</ele><time>2026-04-23T05:13:02Z</time></trkpt><trkpt lat="-20.500978797927875" lon="118.51371122726506"><ele>27.0</ele><time>2026-04-23T05:13:03Z</time></trkpt><trkpt lat="-20.487306596804956" lon="118.52416171261711"><ele>26.5</ele><time>2026-04-23T05:14:04.001Z</time></trkpt><trkpt lat="-20.48710911898084" lon="118.52436217103786"><ele>26.0</ele><time>2026-04-23T05:14:05.001Z</time></trkpt><trkpt lat="-20.48691583147123" lon="118.52456810688051"><ele>25.0</ele><time>2026-04-23T05:14:06.001Z</time></trkpt><trkpt lat="-20.48672693690375" lon="118.52477936935614"><ele>24.0</ele><time>2026-04-23T05:14:07.001Z</time></trkpt><trkpt lat="-20.48654699733565" lon="118.52499471516803"><ele>24.0</ele><time>2026-04-23T05:14:08.001Z</time></trkpt><trkpt lat="-20.486371585268156" lon="118.52522029747745"><ele>24.0</ele><time>2026-04-23T05:14:09.001Z</time></trkpt><trkpt lat="-20.486202964999357" lon="118.52544704852183"><ele>24.0</ele><time>2026-04-23T05:14:10.001Z</time></trkpt><trkpt lat="-20.486032587014726" lon="118.52567827707462"><ele>24.0</ele><time>2026-04-23T05:14:11.001Z</time></trkpt><trkpt lat="-20.48586315213786" lon="118.52590487237106"><ele>24.0</ele><time>2026-04-23T05:14:12.001Z</time></trkpt><trkpt lat="-20.485690555875735" lon="118.5261324258385"><ele>24.0</ele><time>2026-04-23T05:14:13.001Z</time></trkpt><trkpt lat="-20.485516798070964" lon="118.52636119249716"><ele>23.5</ele><time>2026-04-23T05:14:14.001Z</time></trkpt><trkpt lat="-20.48534245288798" lon="118.52658660115546"><ele>23.0</ele><time>2026-04-23T05:14:15.001Z</time></trkpt><trkpt lat="-20.4851716788916" lon="118.52681254579723"><ele>23.0</ele><time>2026-04-23T05:14:16.001Z</time></trkpt><trkpt lat="-20.485001946632465" lon="118.52703673411933"><ele>23.0</ele><time>2026-04-23T05:14:17.001Z</time></trkpt><trkpt lat="-20.48482826272494" lon="118.52725548146236"><ele>23.5</ele><time>2026-04-23T05:14:18.001Z</time></trkpt><trkpt lat="-20.484644921428703" lon="118.52746813697821"><ele>24.0</ele><time>2026-04-23T05:14:19.001Z</time></trkpt><trkpt lat="-20.48445608125314" lon="118.52767378726628"><ele>24.0</ele><time>2026-04-23T05:14:20.001Z</time></trkpt><trkpt lat="-20.4842647813924" lon="118.5278747118719"><ele>24.0</ele><time>2026-04-23T05:14:21.001Z</time></trkpt><trkpt lat="-20.484067438720917" lon="118.52807607086228"><ele>24.0</ele><time>2026-04-23T05:14:22.001Z</time></trkpt><trkpt lat="-20.48386476699058" lon="118.52827395823846"><ele>24.0</ele><time>2026-04-23T05:14:23.001Z</time></trkpt><trkpt lat="-20.483658169930575" lon="118.52846515348438"><ele>24.0</ele><time>2026-04-23T05:14:24.001Z</time></trkpt><trkpt lat="-20.48344737950836" lon="118.52865504328211"><ele>24.0</ele><time>2026-04-23T05:14:25.001Z</time></trkpt><trkpt lat="-20.483235093865844" lon="118.52884343311932"><ele>23.5</ele><time>2026-04-23T05:14:26.001Z</time></trkpt><trkpt lat="-20.483020821210648" lon="118.52903086501297"><ele>23.0</ele><time>2026-04-23T05:14:27.001Z</time></trkpt><trkpt lat="-20.48280508011762" lon="118.5292119590287"><ele>23.0</ele><time>2026-04-23T05:14:28.001Z</time></trkpt><trkpt lat="-20.482588028209456" lon="118.52939043948936"><ele>23.0</ele><time>2026-04-23T05:14:29.001Z</time></trkpt><trkpt lat="-20.482371492849257" lon="118.52957215210378"><ele>23.0</ele><time>2026-04-23T05:14:30.001Z</time></trkpt><trkpt lat="-20.482158919499703" lon="118.52975705589877"><ele>23.0</ele><time>2026-04-23T05:14:31.001Z</time></trkpt><trkpt lat="-20.48194934445044" lon="118.52994184596804"><ele>23.0</ele><time>2026-04-23T05:14:32.001Z</time></trkpt><trkpt lat="-20.481735505937287" lon="118.53013146810642"><ele>23.0</ele><time>2026-04-23T05:14:33.001Z</time></trkpt><trkpt lat="-20.481528698349244" lon="118.53031570056257"><ele>22.5</ele><time>2026-04-23T05:14:34.001Z</time></trkpt><trkpt lat="-20.481311740146815" lon="118.53049785520953"><ele>22.0</ele><time>2026-04-23T05:14:35.001Z</time></trkpt><trkpt lat="-20.4810959571268" lon="118.53067586395755"><ele>22.0</ele><time>2026-04-23T05:14:36.001Z</time></trkpt><trkpt lat="-20.480882643118314" lon="118.53085272412552"><ele>22.0</ele><time>2026-04-23T05:14:37Z</time></trkpt><trkpt lat="-20.48067046373921" lon="118.53103070260902"><ele>22.0</ele><time>2026-04-23T05:14:38Z</time></trkpt><trkpt lat="-20.48046076172275" lon="118.53121166369488"><ele>22.0</ele><time>2026-04-23T05:14:39Z</time></trkpt><trkpt lat="-20.480245595534573" lon="118.53139653044622"><ele>22.0</ele><time>2026-04-23T05:14:40Z</time></trkpt><trkpt lat="-20.480031220631282" lon="118.53158147549824"><ele>22.0</ele><time>2026-04-23T05:14:41Z</time></trkpt><trkpt lat="-20.479813378248146" lon="118.5317697163872"><ele>21.5</ele><time>2026-04-23T05:14:42Z</time></trkpt><trkpt lat="-20.479596447274012" lon="118.53196063350845"><ele>21.0</ele><time>2026-04-23T05:14:43Z</time></trkpt><trkpt lat="-20.479378205470574" lon="118.53214931780084"><ele>22.0</ele><time>2026-04-23T05:14:44Z</time></trkpt><trkpt lat="-20.479160954243095" lon="118.53233519904384"><ele>23.0</ele><time>2026-04-23T05:14:45Z</time></trkpt><trkpt lat="-20.47895104109101" lon="118.53251473829259"><ele>23.5</ele><time>2026-04-23T05:14:46Z</time></trkpt><trkpt lat="-20.478746036980183" lon="118.53268410842148"><ele>24.0</ele><time>2026-04-23T05:14:47Z</time></trkpt><trkpt lat="-20.47853859675227" lon="118.53286332074622"><ele>24.0</ele><time>2026-04-23T05:14:48Z</time></trkpt><trkpt lat="-20.478325270433807" lon="118.53304902519962"><ele>24.0</ele><time>2026-04-23T05:14:49Z</time></trkpt><trkpt lat="-20.478110181373058" lon="118.53323399372351"><ele>23.0</ele><time>2026-04-23T05:14:50Z</time></trkpt><trkpt lat="-20.47788807046767" lon="118.53342375368037"><ele>22.0</ele><time>2026-04-23T05:14:51Z</time></trkpt><trkpt lat="-20.47766693787419" lon="118.53361120369817"><ele>22.0</ele><time>2026-04-23T05:14:52Z</time></trkpt><trkpt lat="-20.47744362962431" lon="118.53380098343989"><ele>22.0</ele><time>2026-04-23T05:14:53Z</time></trkpt><trkpt lat="-20.477222296500535" lon="118.53399088849386"><ele>21.5</ele><time>2026-04-23T05:14:54Z</time></trkpt><trkpt lat="-20.4770013031758" lon="118.53418238647734"><ele>21.0</ele><time>2026-04-23T05:14:55Z</time></trkpt><trkpt lat="-20.476782341280988" lon="118.53436878856427"><ele>20.5</ele><time>2026-04-23T05:14:56Z</time></trkpt><trkpt lat="-20.476560353684317" lon="118.53455735343238"><ele>20.0</ele><time>2026-04-23T05:14:57Z</time></trkpt><trkpt lat="-20.476339991212356" lon="118.53474660073151"><ele>21.5</ele><time>2026-04-23T05:14:58Z</time></trkpt><trkpt lat="-20.476120766442968" lon="118.53493441202079"><ele>23.0</ele><time>2026-04-23T05:14:59Z</time></trkpt><trkpt lat="-20.47590395897451" lon="118.53512230183742"><ele>23.0</ele><time>2026-04-23T05:15:00Z</time></trkpt><trkpt lat="-20.475685647745426" lon="118.53530922754538"><ele>23.0</ele><time>2026-04-23T05:15:01Z</time></trkpt><trkpt lat="-20.475465943571255" lon="118.53549735943925"><ele>21.5</ele><time>2026-04-23T05:15:02Z</time></trkpt><trkpt lat="-20.475245588265835" lon="118.53568405250354"><ele>20.0</ele><time>2026-04-23T05:15:03Z</time></trkpt><trkpt lat="-20.459490786914035" lon="118.5432445745637"><ele>20.0</ele><time>2026-04-23T05:16:04.001Z</time></trkpt><trkpt lat="-20.459213813711692" lon="118.54335425245287"><ele>20.0</ele><time>2026-04-23T05:16:05.001Z</time></trkpt><trkpt lat="-20.458939319619418" lon="118.54346263769595"><ele>20.0</ele><time>2026-04-23T05:16:06.001Z</time></trkpt><trkpt lat="-20.458667785075406" lon="118.54357012523636"><ele>20.0</ele><time>2026-04-23T05:16:07.001Z</time></trkpt><trkpt lat="-20.458393445130984" lon="118.5436796375044"><ele>20.0</ele><time>2026-04-23T05:16:08.001Z</time></trkpt><trkpt lat="-20.458120502863814" lon="118.5437894526893"><ele>20.0</ele><time>2026-04-23T05:16:09.001Z</time></trkpt><trkpt lat="-20.45784720417586" lon="118.54389909969699"><ele>20.0</ele><time>2026-04-23T05:16:10.001Z</time></trkpt><trkpt lat="-20.457575487382098" lon="118.54400740504526"><ele>20.0</ele><time>2026-04-23T05:16:11.001Z</time></trkpt><trkpt lat="-20.457300657258962" lon="118.5441182566886"><ele>20.0</ele><time>2026-04-23T05:16:12.001Z</time></trkpt><trkpt lat="-20.45702378824447" lon="118.54422991008566"><ele>20.0</ele><time>2026-04-23T05:16:13.001Z</time></trkpt><trkpt lat="-20.456746488419505" lon="118.54434056131394"><ele>20.0</ele><time>2026-04-23T05:16:14.001Z</time></trkpt><trkpt lat="-20.45646514519924" lon="118.54445070322878"><ele>20.0</ele><time>2026-04-23T05:16:15.001Z</time></trkpt><trkpt lat="-20.45618569772347" lon="118.54456033274535"><ele>20.0</ele><time>2026-04-23T05:16:16.001Z</time></trkpt><trkpt lat="-20.45590965134425" lon="118.5446684613398"><ele>20.0</ele><time>2026-04-23T05:16:17.001Z</time></trkpt><trkpt lat="-20.455637726433867" lon="118.54477552369431"><ele>20.0</ele><time>2026-04-23T05:16:18.001Z</time></trkpt><trkpt lat="-20.455365029584396" lon="118.54488427165762"><ele>20.0</ele><time>2026-04-23T05:16:19.001Z</time></trkpt><trkpt lat="-20.45509588734084" lon="118.54499266979067"><ele>20.0</ele><time>2026-04-23T05:16:20.001Z</time></trkpt><trkpt lat="-20.45482425385633" lon="118.54510286012895"><ele>20.0</ele><time>2026-04-23T05:16:21.001Z</time></trkpt><trkpt lat="-20.454549620230384" lon="118.54521434331656"><ele>19.5</ele><time>2026-04-23T05:16:22.001Z</time></trkpt><trkpt lat="-20.454275555065188" lon="118.54532564368864"><ele>19.0</ele><time>2026-04-23T05:16:23.001Z</time></trkpt><trkpt lat="-20.454001169102412" lon="118.54543654744765"><ele>20.0</ele><time>2026-04-23T05:16:24.001Z</time></trkpt><trkpt lat="-20.453725159839752" lon="118.54554439890217"><ele>21.0</ele><time>2026-04-23T05:16:25.001Z</time></trkpt><trkpt lat="-20.453443862128882" lon="118.54565245423203"><ele>21.0</ele><time>2026-04-23T05:16:26.001Z</time></trkpt><trkpt lat="-20.453160524883955" lon="118.54576246883126"><ele>21.0</ele><time>2026-04-23T05:16:27.001Z</time></trkpt><trkpt lat="-20.45288445735586" lon="118.54587193831647"><ele>21.0</ele><time>2026-04-23T05:16:28.001Z</time></trkpt><trkpt lat="-20.452626199265538" lon="118.54597459867992"><ele>21.0</ele><time>2026-04-23T05:16:29.001Z</time></trkpt><trkpt lat="-20.452371669514452" lon="118.54607906140699"><ele>20.0</ele><time>2026-04-23T05:16:30.001Z</time></trkpt><trkpt lat="-20.452115724454703" lon="118.54618441500219"><ele>19.0</ele><time>2026-04-23T05:16:31.001Z</time></trkpt><trkpt lat="-20.451856483025335" lon="118.54629034133526"><ele>19.0</ele><time>2026-04-23T05:16:32.001Z</time></trkpt><trkpt lat="-20.451593398164345" lon="118.54639530700673"><ele>19.0</ele><time>2026-04-23T05:16:33.001Z</time></trkpt><trkpt lat="-20.4513277810897" lon="118.54650196841118"><ele>19.5</ele><time>2026-04-23T05:16:34.001Z</time></trkpt><trkpt lat="-20.451058599758028" lon="118.54660907020067"><ele>20.0</ele><time>2026-04-23T05:16:35.001Z</time></trkpt><trkpt lat="-20.450788381919114" lon="118.54671796379539"><ele>20.0</ele><time>2026-04-23T05:16:36.001Z</time></trkpt><trkpt lat="-20.450517615296196" lon="118.5468270129746"><ele>20.0</ele><time>2026-04-23T05:16:37.001Z</time></trkpt><trkpt lat="-20.45024331589603" lon="118.54693435175466"><ele>19.5</ele><time>2026-04-23T05:16:38.001Z</time></trkpt><trkpt lat="-20.449968807313603" lon="118.54704182546621"><ele>19.0</ele><time>2026-04-23T05:16:39.001Z</time></trkpt><trkpt lat="-20.449694334368516" lon="118.54714970538238"><ele>19.0</ele><time>2026-04-23T05:16:40.001Z</time></trkpt><trkpt lat="-20.449417944715854" lon="118.54726204355563"><ele>19.0</ele><time>2026-04-23T05:16:41.001Z</time></trkpt><trkpt lat="-20.449142956320866" lon="118.54737480808762"><ele>19.0</ele><time>2026-04-23T05:16:42.001Z</time></trkpt><trkpt lat="-20.448866072643266" lon="118.54748904127044"><ele>19.0</ele><time>2026-04-23T05:16:43.001Z</time></trkpt><trkpt lat="-20.448590900657187" lon="118.54760478268665"><ele>19.0</ele><time>2026-04-23T05:16:44.001Z</time></trkpt><trkpt lat="-20.448311160350748" lon="118.54771698945179"><ele>19.0</ele><time>2026-04-23T05:16:45.001Z</time></trkpt><trkpt lat="-20.448029436531023" lon="118.54782664071212"><ele>19.0</ele><time>2026-04-23T05:16:46.001Z</time></trkpt><trkpt lat="-20.44774581691829" lon="118.54793659151426"><ele>19.0</ele><time>2026-04-23T05:16:47.001Z</time></trkpt><trkpt lat="-20.44746214713644" lon="118.54804971479686"><ele>19.0</ele><time>2026-04-23T05:16:48.001Z</time></trkpt><trkpt lat="-20.447181201835946" lon="118.54816454271092"><ele>19.0</ele><time>2026-04-23T05:16:49.001Z</time></trkpt><trkpt lat="-20.446905251778436" lon="118.54827529528878"><ele>18.5</ele><time>2026-04-23T05:16:50.001Z</time></trkpt><trkpt lat="-20.446633231986475" lon="118.54838336126991"><ele>18.0</ele><time>2026-04-23T05:16:51.001Z</time></trkpt><trkpt lat="-20.446358338788052" lon="118.54849043963354"><ele>17.5</ele><time>2026-04-23T05:16:52.001Z</time></trkpt><trkpt lat="-20.446082138455377" lon="118.5485990866728"><ele>17.0</ele><time>2026-04-23T05:16:53.001Z</time></trkpt><trkpt lat="-20.445806025289457" lon="118.54870870306233"><ele>17.0</ele><time>2026-04-23T05:16:54.001Z</time></trkpt><trkpt lat="-20.445527851387006" lon="118.54882176919733"><ele>17.0</ele><time>2026-04-23T05:16:55Z</time></trkpt><trkpt lat="-20.44524780720188" lon="118.54893471807637"><ele>17.0</ele><time>2026-04-23T05:16:56Z</time></trkpt><trkpt lat="-20.444965970422796" lon="118.54904500718054"><ele>17.0</ele><time>2026-04-23T05:16:57Z</time></trkpt><trkpt lat="-20.444684742081602" lon="118.54915806010366"><ele>16.5</ele><time>2026-04-23T05:16:58Z</time></trkpt><trkpt lat="-20.444402687330882" lon="118.54927066271588"><ele>16.0</ele><time>2026-04-23T05:16:59Z</time></trkpt><trkpt lat="-20.4441208106124" lon="118.54938371351734"><ele>16.0</ele><time>2026-04-23T05:17:00Z</time></trkpt><trkpt lat="-20.443838112907976" lon="118.54949971981966"><ele>16.0</ele><time>2026-04-23T05:17:01Z</time></trkpt><trkpt lat="-20.443554565682696" lon="118.54961494355402"><ele>16.0</ele><time>2026-04-23T05:17:02Z</time></trkpt><trkpt lat="-20.443271487911602" lon="118.5497280408847"><ele>16.0</ele><time>2026-04-23T05:17:03Z</time></trkpt><trkpt lat="-20.42687185523374" lon="118.5562736421976"><ele>16.0</ele><time>2026-04-23T05:18:04.001Z</time></trkpt><trkpt lat="-20.426607518520285" lon="118.55637927644881"><ele>16.0</ele><time>2026-04-23T05:18:05.001Z</time></trkpt><trkpt lat="-20.42634262317869" lon="118.55648487989757"><ele>14.5</ele><time>2026-04-23T05:18:06.001Z</time></trkpt><trkpt lat="-20.42607623697394" lon="118.55659052789642"><ele>13.0</ele><time>2026-04-23T05:18:07.001Z</time></trkpt><trkpt lat="-20.42580753562853" lon="118.55669564825256"><ele>13.0</ele><time>2026-04-23T05:18:08.001Z</time></trkpt><trkpt lat="-20.42552907059353" lon="118.55680671840699"><ele>13.0</ele><time>2026-04-23T05:18:09.001Z</time></trkpt><trkpt lat="-20.42525260752459" lon="118.55691788509407"><ele>14.0</ele><time>2026-04-23T05:18:10.001Z</time></trkpt><trkpt lat="-20.42497519273647" lon="118.55702876391551"><ele>15.0</ele><time>2026-04-23T05:18:11.001Z</time></trkpt><trkpt lat="-20.424701924909012" lon="118.55713768330683"><ele>14.0</ele><time>2026-04-23T05:18:12.001Z</time></trkpt><trkpt lat="-20.42443203855911" lon="118.55724446774197"><ele>13.0</ele><time>2026-04-23T05:18:13.001Z</time></trkpt><trkpt lat="-20.424166052201237" lon="118.55735240844255"><ele>13.0</ele><time>2026-04-23T05:18:14.001Z</time></trkpt><trkpt lat="-20.423906069596395" lon="118.55746002985803"><ele>13.0</ele><time>2026-04-23T05:18:15.001Z</time></trkpt><trkpt lat="-20.42364613024725" lon="118.5575645128653"><ele>13.5</ele><time>2026-04-23T05:18:16.001Z</time></trkpt><trkpt lat="-20.423387519957526" lon="118.55766689068832"><ele>14.0</ele><time>2026-04-23T05:18:17.001Z</time></trkpt><trkpt lat="-20.42312602644023" lon="118.55776904023942"><ele>14.5</ele><time>2026-04-23T05:18:18.001Z</time></trkpt><trkpt lat="-20.42286893819476" lon="118.5578730911872"><ele>15.0</ele><time>2026-04-23T05:18:19.001Z</time></trkpt><trkpt lat="-20.422615661193408" lon="118.55797460753656"><ele>15.0</ele><time>2026-04-23T05:18:20.001Z</time></trkpt><trkpt lat="-20.42237640498057" lon="118.55806636344076"><ele>15.0</ele><time>2026-04-23T05:18:21.001Z</time></trkpt><trkpt lat="-20.422133593375992" lon="118.55815722839371"><ele>14.5</ele><time>2026-04-23T05:18:22.001Z</time></trkpt><trkpt lat="-20.42189268951035" lon="118.55825275235657"><ele>14.0</ele><time>2026-04-23T05:18:23.001Z</time></trkpt><trkpt lat="-20.42164709531904" lon="118.5583533171982"><ele>14.0</ele><time>2026-04-23T05:18:24.001Z</time></trkpt><trkpt lat="-20.421414099128302" lon="118.55845042318599"><ele>14.0</ele><time>2026-04-23T05:18:25.001Z</time></trkpt><trkpt lat="-20.421193525779486" lon="118.55853937841135"><ele>14.0</ele><time>2026-04-23T05:18:26.001Z</time></trkpt><trkpt lat="-20.42097422044648" lon="118.55862398168269"><ele>14.0</ele><time>2026-04-23T05:18:27.001Z</time></trkpt><trkpt lat="-20.42075801024521" lon="118.55870814065136"><ele>14.5</ele><time>2026-04-23T05:18:28.001Z</time></trkpt><trkpt lat="-20.42054967644514" lon="118.5587888986259"><ele>15.0</ele><time>2026-04-23T05:18:29.001Z</time></trkpt><trkpt lat="-20.420331453586382" lon="118.5588726945471"><ele>15.0</ele><time>2026-04-23T05:18:30.001Z</time></trkpt><trkpt lat="-20.420113397153678" lon="118.55895982707598"><ele>15.0</ele><time>2026-04-23T05:18:31.001Z</time></trkpt><trkpt lat="-20.419895255293024" lon="118.5590497145375"><ele>15.0</ele><time>2026-04-23T05:18:32.001Z</time></trkpt><trkpt lat="-20.419676152184156" lon="118.55913586882198"><ele>15.0</ele><time>2026-04-23T05:18:33.001Z</time></trkpt><trkpt lat="-20.419457023937873" lon="118.55922666028127"><ele>15.0</ele><time>2026-04-23T05:18:34.001Z</time></trkpt><trkpt lat="-20.419229467042033" lon="118.55930361453339"><ele>15.0</ele><time>2026-04-23T05:18:35.001Z</time></trkpt><trkpt lat="-20.41900646100629" lon="118.55939566307093"><ele>15.0</ele><time>2026-04-23T05:18:36.001Z</time></trkpt><trkpt lat="-20.41879528234851" lon="118.5595009582763"><ele>15.0</ele><time>2026-04-23T05:18:37.001Z</time></trkpt><trkpt lat="-20.41857158239121" lon="118.55958744032044"><ele>15.0</ele><time>2026-04-23T05:18:38.001Z</time></trkpt><trkpt lat="-20.418346011597787" lon="118.55967463532082"><ele>15.0</ele><time>2026-04-23T05:18:39.001Z</time></trkpt><trkpt lat="-20.418127623111456" lon="118.55976503358696"><ele>14.5</ele><time>2026-04-23T05:18:40.001Z</time></trkpt><trkpt lat="-20.417911662883057" lon="118.5598591585118"><ele>14.0</ele><time>2026-04-23T05:18:41.001Z</time></trkpt><trkpt lat="-20.41770252489102" lon="118.55995702669273"><ele>14.0</ele><time>2026-04-23T05:18:42.001Z</time></trkpt><trkpt lat="-20.417509112527853" lon="118.56005425015822"><ele>14.0</ele><time>2026-04-23T05:18:43.001Z</time></trkpt><trkpt lat="-20.41731607404062" lon="118.56015079627358"><ele>14.0</ele><time>2026-04-23T05:18:44.001Z</time></trkpt><trkpt lat="-20.41712374712889" lon="118.56024434970311"><ele>14.333333333333334</ele><time>2026-04-23T05:18:45.001Z</time></trkpt><trkpt lat="-20.41692415575603" lon="118.56034227814335"><ele>14.666666666666668</ele><time>2026-04-23T05:18:46.001Z</time></trkpt><trkpt lat="-20.41672501960094" lon="118.5604442152244"><ele>15.0</ele><time>2026-04-23T05:18:47.001Z</time></trkpt><trkpt lat="-20.41652371107219" lon="118.56054929088856"><ele>15.0</ele><time>2026-04-23T05:18:48.001Z</time></trkpt><trkpt lat="-20.41631991473127" lon="118.56065390363871"><ele>15.0</ele><time>2026-04-23T05:18:49Z</time></trkpt><trkpt lat="-20.416113330962336" lon="118.56076195430163"><ele>15.0</ele><time>2026-04-23T05:18:50Z</time></trkpt><trkpt lat="-20.415914175778838" lon="118.5608699806229"><ele>15.0</ele><time>2026-04-23T05:18:51Z</time></trkpt><trkpt lat="-20.41572271655659" lon="118.56097982313871"><ele>15.0</ele><time>2026-04-23T05:18:52Z</time></trkpt><trkpt lat="-20.415538717544433" lon="118.56108957543901"><ele>14.666666666666668</ele><time>2026-04-23T05:18:53Z</time></trkpt><trkpt lat="-20.415365457891454" lon="118.56119132587371"><ele>14.333333333333334</ele><time>2026-04-23T05:18:54Z</time></trkpt><trkpt lat="-20.41519834410646" lon="118.56128523469758"><ele>14.0</ele><time>2026-04-23T05:18:55Z</time></trkpt><trkpt lat="-20.41504101260317" lon="118.56137369397518"><ele>14.0</ele><time>2026-04-23T05:18:56Z</time></trkpt><trkpt lat="-20.41488920261381" lon="118.56146217645622"><ele>14.0</ele><time>2026-04-23T05:18:57Z</time></trkpt><trkpt lat="-20.414734802081146" lon="118.56155196099779"><ele>14.0</ele><time>2026-04-23T05:18:58Z</time></trkpt><trkpt lat="-20.414565820951175" lon="118.56164585467513"><ele>14.333333333333334</ele><time>2026-04-23T05:18:59Z</time></trkpt><trkpt lat="-20.414395507662938" lon="118.56174304855696"><ele>14.666666666666668</ele><time>2026-04-23T05:19:00Z</time></trkpt><trkpt lat="-20.414221986314452" lon="118.5618461606852"><ele>15.0</ele><time>2026-04-23T05:19:01Z</time></trkpt><trkpt lat="-20.41403610418678" lon="118.56193695897211"><ele>14.5</ele><time>2026-04-23T05:19:02Z</time></trkpt><trkpt lat="-20.413851126727288" lon="118.56204345206285"><ele>14.0</ele><time>2026-04-23T05:19:03Z</time></trkpt><trkpt lat="-20.402357873922522" lon="118.56898416930457"><ele>13.666666666666668</ele><time>2026-04-23T05:20:04.001Z</time></trkpt><trkpt lat="-20.402178113233543" lon="118.5691051876369"><ele>13.333333333333332</ele><time>2026-04-23T05:20:05.001Z</time></trkpt><trkpt lat="-20.401995046067686" lon="118.56922847634182"><ele>13.0</ele><time>2026-04-23T05:20:06.001Z</time></trkpt><trkpt lat="-20.401807074665435" lon="118.56935541151077"><ele>13.0</ele><time>2026-04-23T05:20:07.001Z</time></trkpt><trkpt lat="-20.401620222296323" lon="118.56948252699355"><ele>13.0</ele><time>2026-04-23T05:20:08.001Z</time></trkpt><trkpt lat="-20.40143004012808" lon="118.56961034105578"><ele>13.0</ele><time>2026-04-23T05:20:09.001Z</time></trkpt><trkpt lat="-20.40123501228944" lon="118.56974211534369"><ele>13.0</ele><time>2026-04-23T05:20:10.001Z</time></trkpt><trkpt lat="-20.401045328857737" lon="118.56987040931762"><ele>13.0</ele><time>2026-04-23T05:20:11.001Z</time></trkpt><trkpt lat="-20.4008639692807" lon="118.57001154858003"><ele>13.0</ele><time>2026-04-23T05:20:12.001Z</time></trkpt><trkpt lat="-20.400670420488396" lon="118.5701251025532"><ele>13.0</ele><time>2026-04-23T05:20:13.001Z</time></trkpt><trkpt lat="-20.400485545989824" lon="118.57024856800957"><ele>13.0</ele><time>2026-04-23T05:20:14.001Z</time></trkpt><trkpt lat="-20.4002996178931" lon="118.57037330356924"><ele>13.0</ele><time>2026-04-23T05:20:15.001Z</time></trkpt><trkpt lat="-20.400110374251778" lon="118.57050228942576"><ele>13.0</ele><time>2026-04-23T05:20:16.001Z</time></trkpt><trkpt lat="-20.399925328166386" lon="118.57063410877319"><ele>13.0</ele><time>2026-04-23T05:20:17.001Z</time></trkpt><trkpt lat="-20.399734540517304" lon="118.5707640829277"><ele>13.0</ele><time>2026-04-23T05:20:18.001Z</time></trkpt><trkpt lat="-20.39955460704816" lon="118.57090620917685"><ele>13.0</ele><time>2026-04-23T05:20:19.001Z</time></trkpt><trkpt lat="-20.399363996088077" lon="118.57103511574522"><ele>13.0</ele><time>2026-04-23T05:20:20.001Z</time></trkpt><trkpt lat="-20.399171914526093" lon="118.57114460073848"><ele>13.0</ele><time>2026-04-23T05:20:21.001Z</time></trkpt><trkpt lat="-20.398991578374094" lon="118.57126675887034"><ele>13.0</ele><time>2026-04-23T05:20:22.001Z</time></trkpt><trkpt lat="-20.39881897708772" lon="118.57140358173585"><ele>13.0</ele><time>2026-04-23T05:20:23.001Z</time></trkpt><trkpt lat="-20.398638175496682" lon="118.5715255635651"><ele>13.0</ele><time>2026-04-23T05:20:24.001Z</time></trkpt><trkpt lat="-20.398449255785916" lon="118.57163438053588"><ele>13.0</ele><time>2026-04-23T05:20:25.001Z</time></trkpt><trkpt lat="-20.398269496397035" lon="118.57175245409422"><ele>13.0</ele><time>2026-04-23T05:20:26.001Z</time></trkpt><trkpt lat="-20.398086783695263" lon="118.5718752721486"><ele>13.0</ele><time>2026-04-23T05:20:27.001Z</time></trkpt><trkpt lat="-20.397905512267176" lon="118.57199897038588"><ele>14.0</ele><time>2026-04-23T05:20:28.001Z</time></trkpt><trkpt lat="-20.397717822273194" lon="118.57212563546861"><ele>15.0</ele><time>2026-04-23T05:20:29.001Z</time></trkpt><trkpt lat="-20.397527712554446" lon="118.57225263574989"><ele>16.0</ele><time>2026-04-23T05:20:30.001Z</time></trkpt><trkpt lat="-20.397337297884015" lon="118.57237988079247"><ele>15.333333333333332</ele><time>2026-04-23T05:20:31.001Z</time></trkpt><trkpt lat="-20.397150975522344" lon="118.57250613357127"><ele>14.666666666666668</ele><time>2026-04-23T05:20:32.001Z</time></trkpt><trkpt lat="-20.396968613028058" lon="118.57262911767874"><ele>14.0</ele><time>2026-04-23T05:20:33.001Z</time></trkpt><trkpt lat="-20.39678187960178" lon="118.5727549094315"><ele>13.666666666666668</ele><time>2026-04-23T05:20:34.001Z</time></trkpt><trkpt lat="-20.396602788242667" lon="118.57287547275301"><ele>13.333333333333332</ele><time>2026-04-23T05:20:35.001Z</time></trkpt><trkpt lat="-20.39642344429528" lon="118.57299620691927"><ele>13.0</ele><time>2026-04-23T05:20:36.001Z</time></trkpt><trkpt lat="-20.396240522872798" lon="118.57311934960107"><ele>13.0</ele><time>2026-04-23T05:20:37.001Z</time></trkpt><trkpt lat="-20.39605962531166" lon="118.57324112981924"><ele>13.0</ele><time>2026-04-23T05:20:38.001Z</time></trkpt><trkpt lat="-20.395874416698046" lon="118.57336721592445"><ele>13.0</ele><time>2026-04-23T05:20:39.001Z</time></trkpt><trkpt lat="-20.395704720199195" lon="118.57351062073093"><ele>13.0</ele><time>2026-04-23T05:20:40.001Z</time></trkpt><trkpt lat="-20.3955139861409" lon="118.57363783172279"><ele>13.0</ele><time>2026-04-23T05:20:41.001Z</time></trkpt><trkpt lat="-20.395326166713872" lon="118.5737703060704"><ele>13.0</ele><time>2026-04-23T05:20:42.001Z</time></trkpt><trkpt lat="-20.395127929380536" lon="118.57390579455698"><ele>13.0</ele><time>2026-04-23T05:20:43.001Z</time></trkpt><trkpt lat="-20.39492451548651" lon="118.5740438854518"><ele>13.0</ele><time>2026-04-23T05:20:44.001Z</time></trkpt><trkpt lat="-20.39472504623828" lon="118.5741777234825"><ele>13.0</ele><time>2026-04-23T05:20:45.001Z</time></trkpt><trkpt lat="-20.394535459288743" lon="118.57430271940927"><ele>13.333333333333332</ele><time>2026-04-23T05:20:46.001Z</time></trkpt><trkpt lat="-20.394345972180876" lon="118.57442687877308"><ele>13.666666666666668</ele><time>2026-04-23T05:20:47.001Z</time></trkpt><trkpt lat="-20.39415584355671" lon="118.57455014645264"><ele>14.0</ele><time>2026-04-23T05:20:48.001Z</time></trkpt><trkpt lat="-20.393969634256464" lon="118.57467521402303"><ele>13.666666666666668</ele><time>2026-04-23T05:20:49.001Z</time></trkpt><trkpt lat="-20.393781702296604" lon="118.57479481181308"><ele>13.333333333333332</ele><time>2026-04-23T05:20:50.001Z</time></trkpt><trkpt lat="-20.393591450973094" lon="118.57491289340237"><ele>13.0</ele><time>2026-04-23T05:20:51.001Z</time></trkpt><trkpt lat="-20.393402306595977" lon="118.57503200303817"><ele>13.0</ele><time>2026-04-23T05:20:52.001Z</time></trkpt><trkpt lat="-20.393216609641577" lon="118.5751436872517"><ele>13.0</ele><time>2026-04-23T05:20:53.001Z</time></trkpt><trkpt lat="-20.393029529069466" lon="118.57524950531523"><ele>13.0</ele><time>2026-04-23T05:20:54.001Z</time></trkpt><trkpt lat="-20.39284414048176" lon="118.57534866315417"><ele>13.0</ele><time>2026-04-23T05:20:55Z</time></trkpt><trkpt lat="-20.392656977416006" lon="118.57544886979824"><ele>13.0</ele><time>2026-04-23T05:20:56Z</time></trkpt><trkpt lat="-20.39247591115287" lon="118.57555054603642"><ele>13.0</ele><time>2026-04-23T05:20:57Z</time></trkpt><trkpt lat="-20.392295293528754" lon="118.57565655641947"><ele>13.333333333333332</ele><time>2026-04-23T05:20:58Z</time></trkpt><trkpt lat="-20.392110277168534" lon="118.57576797094333"><ele>13.666666666666668</ele><time>2026-04-23T05:20:59Z</time></trkpt><trkpt lat="-20.391918364039277" lon="118.57588060021749"><ele>14.0</ele><time>2026-04-23T05:21:00Z</time></trkpt><trkpt lat="-20.39172259245873" lon="118.57599809040276"><ele>14.0</ele><time>2026-04-23T05:21:01Z</time></trkpt><trkpt lat="-20.391535416779565" lon="118.57611440937106"><ele>14.0</ele><time>2026-04-23T05:21:02Z</time></trkpt><trkpt lat="-20.39136128194322" lon="118.57623029704911"><ele>14.0</ele><time>2026-04-23T05:21:03Z</time></trkpt><trkpt lat="-20.38611570720925" lon="118.58537704453555"><ele>13.6</ele><time>2026-04-23T05:22:04.001Z</time></trkpt><trkpt lat="-20.38605399614887" lon="118.58546982872255"><ele>13.2</ele><time>2026-04-23T05:22:05.001Z</time></trkpt><trkpt lat="-20.38597847237314" lon="118.58553529557989"><ele>12.799999999999999</ele><time>2026-04-23T05:22:06.001Z</time></trkpt><trkpt lat="-20.38589544355925" lon="118.58558001098473"><ele>12.399999999999999</ele><time>2026-04-23T05:22:07.001Z</time></trkpt><trkpt lat="-20.38582094337754" lon="118.58563013827933"><ele>12.0</ele><time>2026-04-23T05:22:08.001Z</time></trkpt><trkpt lat="-20.385767002202286" lon="118.58569005148578"><ele>11.999999999999998</ele><time>2026-04-23T05:22:09.001Z</time></trkpt><trkpt lat="-20.385737608811652" lon="118.58575915919529"><ele>12.0</ele><time>2026-04-23T05:22:10.001Z</time></trkpt><trkpt lat="-20.385730317131905" lon="118.58583682408874"><ele>12.0</ele><time>2026-04-23T05:22:11.001Z</time></trkpt><trkpt lat="-20.385744021994373" lon="118.58591068283643"><ele>12.0</ele><time>2026-04-23T05:22:12.001Z</time></trkpt><trkpt lat="-20.385771819186083" lon="118.58597456679536"><ele>12.0</ele><time>2026-04-23T05:22:13.001Z</time></trkpt><trkpt lat="-20.385831789989176" lon="118.5860087263809"><ele>11.999999999999998</ele><time>2026-04-23T05:22:14.001Z</time></trkpt><trkpt lat="-20.385920948987874" lon="118.58604885821303"><ele>12.0</ele><time>2026-04-23T05:22:16.001Z</time></trkpt><trkpt lat="-20.386068230307995" lon="118.58604199670751"><ele>12.0</ele><time>2026-04-23T05:22:18.001Z</time></trkpt><trkpt lat="-20.386193352279847" lon="118.58608676932106"><ele>12.0</ele><time>2026-04-23T05:22:19.001Z</time></trkpt><trkpt lat="-20.386318003392557" lon="118.58610467972714"><ele>12.0</ele><time>2026-04-23T05:22:20.001Z</time></trkpt><trkpt lat="-20.38646090123618" lon="118.5861184704196"><ele>12.0</ele><time>2026-04-23T05:22:21.001Z</time></trkpt><trkpt lat="-20.386600089616838" lon="118.58620610496004"><ele>11.666666666666666</ele><time>2026-04-23T05:22:22.001Z</time></trkpt><trkpt lat="-20.386736282824906" lon="118.58628972274086"><ele>11.333333333333332</ele><time>2026-04-23T05:22:23.001Z</time></trkpt><trkpt lat="-20.38688609459139" lon="118.58639362635701"><ele>11.0</ele><time>2026-04-23T05:22:24.001Z</time></trkpt><trkpt lat="-20.387050680361117" lon="118.58650041957438"><ele>12.333333333333332</ele><time>2026-04-23T05:22:25.001Z</time></trkpt><trkpt lat="-20.387212925328555" lon="118.58660476456708"><ele>13.666666666666666</ele><time>2026-04-23T05:22:26.001Z</time></trkpt><trkpt lat="-20.38738535658286" lon="118.58671354081878"><ele>15.0</ele><time>2026-04-23T05:22:27.001Z</time></trkpt><trkpt lat="-20.38756054720918" lon="118.58682258369275"><ele>15.0</ele><time>2026-04-23T05:22:28.001Z</time></trkpt><trkpt lat="-20.38774664397564" lon="118.58693905238576"><ele>15.0</ele><time>2026-04-23T05:22:29.001Z</time></trkpt><trkpt lat="-20.387939952809823" lon="118.5870641828165"><ele>15.0</ele><time>2026-04-23T05:22:30.001Z</time></trkpt><trkpt lat="-20.38814186366169" lon="118.58719730102054"><ele>13.5</ele><time>2026-04-23T05:22:31.001Z</time></trkpt><trkpt lat="-20.388340335789277" lon="118.58732600542668"><ele>12.0</ele><time>2026-04-23T05:22:32.001Z</time></trkpt><trkpt lat="-20.388534011762836" lon="118.58744683875658"><ele>12.0</ele><time>2026-04-23T05:22:33.001Z</time></trkpt><trkpt lat="-20.388727312695913" lon="118.58756433003579"><ele>12.0</ele><time>2026-04-23T05:22:34.001Z</time></trkpt><trkpt lat="-20.38891622407589" lon="118.5876883060138"><ele>12.0</ele><time>2026-04-23T05:22:35.001Z</time></trkpt><trkpt lat="-20.389106734519405" lon="118.587812345313"><ele>12.5</ele><time>2026-04-23T05:22:36.001Z</time></trkpt><trkpt lat="-20.389304303495745" lon="118.58793776118112"><ele>13.0</ele><time>2026-04-23T05:22:37.001Z</time></trkpt><trkpt lat="-20.389506809124285" lon="118.58806464167839"><ele>13.0</ele><time>2026-04-23T05:22:38.001Z</time></trkpt><trkpt lat="-20.389715409227804" lon="118.5881954739265"><ele>13.0</ele><time>2026-04-23T05:22:39.001Z</time></trkpt><trkpt lat="-20.389931157650167" lon="118.58833478092643"><ele>13.0</ele><time>2026-04-23T05:22:40.001Z</time></trkpt><trkpt lat="-20.390148770054502" lon="118.58847857948649"><ele>13.0</ele><time>2026-04-23T05:22:41.001Z</time></trkpt><trkpt lat="-20.39037105459467" lon="118.58862130647888"><ele>13.5</ele><time>2026-04-23T05:22:42.001Z</time></trkpt><trkpt lat="-20.390596566557967" lon="118.5887605283651"><ele>14.0</ele><time>2026-04-23T05:22:43.001Z</time></trkpt><trkpt lat="-20.390818446664984" lon="118.58889605231273"><ele>14.0</ele><time>2026-04-23T05:22:44.001Z</time></trkpt><trkpt lat="-20.39103852625064" lon="118.58903347329401"><ele>14.0</ele><time>2026-04-23T05:22:45.001Z</time></trkpt><trkpt lat="-20.39125520444016" lon="118.58917491174198"><ele>13.5</ele><time>2026-04-23T05:22:46.001Z</time></trkpt><trkpt lat="-20.39146665515912" lon="118.58931689491068"><ele>13.0</ele><time>2026-04-23T05:22:47.001Z</time></trkpt><trkpt lat="-20.391687353086336" lon="118.58946729299856"><ele>12.5</ele><time>2026-04-23T05:22:48.001Z</time></trkpt><trkpt lat="-20.391905126425204" lon="118.58961207527838"><ele>12.0</ele><time>2026-04-23T05:22:49.001Z</time></trkpt><trkpt lat="-20.39211869859032" lon="118.58975265677824"><ele>14.0</ele><time>2026-04-23T05:22:50.001Z</time></trkpt><trkpt lat="-20.392330218104824" lon="118.58988971271225"><ele>16.0</ele><time>2026-04-23T05:22:51.001Z</time></trkpt><trkpt lat="-20.392539718399643" lon="118.59002465457675"><ele>16.0</ele><time>2026-04-23T05:22:52.001Z</time></trkpt><trkpt lat="-20.392739024405753" lon="118.59015115484529"><ele>16.0</ele><time>2026-04-23T05:22:53.001Z</time></trkpt><trkpt lat="-20.392926051350237" lon="118.59026963076941"><ele>16.0</ele><time>2026-04-23T05:22:54.001Z</time></trkpt><trkpt lat="-20.393101943688322" lon="118.5903813624065"><ele>15.666666666666666</ele><time>2026-04-23T05:22:55.001Z</time></trkpt><trkpt lat="-20.393271718302984" lon="118.59048955471292"><ele>15.333333333333332</ele><time>2026-04-23T05:22:56.001Z</time></trkpt><trkpt lat="-20.39344550275197" lon="118.59060477646159"><ele>15.0</ele><time>2026-04-23T05:22:57.001Z</time></trkpt><trkpt lat="-20.393628746761177" lon="118.59072659308904"><ele>15.0</ele><time>2026-04-23T05:22:58.001Z</time></trkpt><trkpt lat="-20.393817296275763" lon="118.59085169422387"><ele>15.0</ele><time>2026-04-23T05:22:59.001Z</time></trkpt><trkpt lat="-20.394007215448372" lon="118.59097558665356"><ele>15.0</ele><time>2026-04-23T05:23:00.001Z</time></trkpt><trkpt lat="-20.394189644670316" lon="118.59109423379118"><ele>15.0</ele><time>2026-04-23T05:23:01Z</time></trkpt><trkpt lat="-20.394362117508425" lon="118.59120870906621"><ele>15.0</ele><time>2026-04-23T05:23:02Z</time></trkpt><trkpt lat="-20.394532697299034" lon="118.59132279867138"><ele>15.0</ele><time>2026-04-23T05:23:03Z</time></trkpt><trkpt lat="-20.40408154192082" lon="118.59650607133257"><ele>15.0</ele><time>2026-04-23T05:24:04Z</time></trkpt><trkpt lat="-20.404230520130515" lon="118.59651843817848"><ele>15.0</ele><time>2026-04-23T05:24:05Z</time></trkpt><trkpt lat="-20.4043724705629" lon="118.59653014606195"><ele>15.0</ele><time>2026-04-23T05:24:06Z</time></trkpt><trkpt lat="-20.404496824573656" lon="118.59653815406953"><ele>15.0</ele><time>2026-04-23T05:24:07Z</time></trkpt><trkpt lat="-20.404594087328643" lon="118.59653988444585"><ele>15.0</ele><time>2026-04-23T05:24:08.001Z</time></trkpt><trkpt lat="-20.404665087369917" lon="118.59653048825018"><ele>15.0</ele><time>2026-04-23T05:24:09.001Z</time></trkpt><trkpt lat="-20.40472383376701" lon="118.59647650717584"><ele>15.0</ele><time>2026-04-23T05:24:11.001Z</time></trkpt><trkpt lat="-20.404757955435873" lon="118.59638126008029"><ele>15.0</ele><time>2026-04-23T05:24:14.001Z</time></trkpt><trkpt lat="-20.404589854229215" lon="118.5963716995842"><ele>15.0</ele><time>2026-04-23T05:24:15.001Z</time></trkpt><trkpt lat="-20.404505184539246" lon="118.59637887141797"><ele>15.0</ele><time>2026-04-23T05:24:16.001Z</time></trkpt><trkpt lat="-20.40440895284354" lon="118.59636264347772"><ele>15.0</ele><time>2026-04-23T05:24:17.001Z</time></trkpt><trkpt lat="-20.404285525794435" lon="118.5963562550897"><ele>15.0</ele><time>2026-04-23T05:24:18.001Z</time></trkpt><trkpt lat="-20.404145113850753" lon="118.59634572137884"><ele>15.0</ele><time>2026-04-23T05:24:19.001Z</time></trkpt><trkpt lat="-20.403993089768626" lon="118.59632975735603"><ele>15.0</ele><time>2026-04-23T05:24:20.001Z</time></trkpt><trkpt lat="-20.403831485976323" lon="118.59630550984014"><ele>15.0</ele><time>2026-04-23T05:24:21.001Z</time></trkpt><trkpt lat="-20.403650192375743" lon="118.59627786792016"><ele>15.0</ele><time>2026-04-23T05:24:22.001Z</time></trkpt><trkpt lat="-20.403456557123363" lon="118.59624710227459"><ele>15.0</ele><time>2026-04-23T05:24:23.001Z</time></trkpt><trkpt lat="-20.403260297242948" lon="118.59623073903198"><ele>15.0</ele><time>2026-04-23T05:24:24.001Z</time></trkpt><trkpt lat="-20.403067655214233" lon="118.59618571830559"><ele>15.0</ele><time>2026-04-23T05:24:25.001Z</time></trkpt><trkpt lat="-20.402890178733323" lon="118.59614124100031"><ele>15.333333333333332</ele><time>2026-04-23T05:24:26.001Z</time></trkpt><trkpt lat="-20.402721771984783" lon="118.59609532229722"><ele>15.666666666666666</ele><time>2026-04-23T05:24:27.001Z</time></trkpt><trkpt lat="-20.40255815421358" lon="118.59605147603095"><ele>16.0</ele><time>2026-04-23T05:24:28.001Z</time></trkpt><trkpt lat="-20.402403434950074" lon="118.59600846653119"><ele>16.0</ele><time>2026-04-23T05:24:29.001Z</time></trkpt><trkpt lat="-20.40225897314539" lon="118.59596415148333"><ele>16.0</ele><time>2026-04-23T05:24:30.001Z</time></trkpt><trkpt lat="-20.402110640819174" lon="118.5959135720253"><ele>16.0</ele><time>2026-04-23T05:24:31.001Z</time></trkpt><trkpt lat="-20.401954809224403" lon="118.59586233780315"><ele>16.333333333333332</ele><time>2026-04-23T05:24:32.001Z</time></trkpt><trkpt lat="-20.401789696006965" lon="118.59580717368125"><ele>16.666666666666668</ele><time>2026-04-23T05:24:33.001Z</time></trkpt><trkpt lat="-20.40161310030781" lon="118.59573871470835"><ele>17.0</ele><time>2026-04-23T05:24:34.001Z</time></trkpt><trkpt lat="-20.401427291640378" lon="118.59565741378556"><ele>17.0</ele><time>2026-04-23T05:24:35.001Z</time></trkpt><trkpt lat="-20.401234489381395" lon="118.59556898116024"><ele>17.0</ele><time>2026-04-23T05:24:36.001Z</time></trkpt><trkpt lat="-20.40104462068124" lon="118.59547595720164"><ele>17.0</ele><time>2026-04-23T05:24:37.001Z</time></trkpt><trkpt lat="-20.400865118426633" lon="118.5953854468774"><ele>17.333333333333336</ele><time>2026-04-23T05:24:38.001Z</time></trkpt><trkpt lat="-20.400691833265952" lon="118.59529538417961"><ele>17.666666666666668</ele><time>2026-04-23T05:24:39.001Z</time></trkpt><trkpt lat="-20.400523280550626" lon="118.59520500086659"><ele>18.0</ele><time>2026-04-23T05:24:40.001Z</time></trkpt><trkpt lat="-20.400356674070707" lon="118.59511043177298"><ele>17.333333333333332</ele><time>2026-04-23T05:24:41.001Z</time></trkpt><trkpt lat="-20.400192814775007" lon="118.59501386388733"><ele>16.666666666666664</ele><time>2026-04-23T05:24:42.001Z</time></trkpt><trkpt lat="-20.40002917187561" lon="118.59490983446307"><ele>16.0</ele><time>2026-04-23T05:24:43.001Z</time></trkpt><trkpt lat="-20.39986347238104" lon="118.59479782482069"><ele>16.0</ele><time>2026-04-23T05:24:44.001Z</time></trkpt><trkpt lat="-20.39970446576685" lon="118.59468469924258"><ele>16.0</ele><time>2026-04-23T05:24:45.001Z</time></trkpt><trkpt lat="-20.399560423199773" lon="118.59457660061989"><ele>16.0</ele><time>2026-04-23T05:24:46.001Z</time></trkpt><trkpt lat="-20.39943125395477" lon="118.594476037148"><ele>16.0</ele><time>2026-04-23T05:24:47.001Z</time></trkpt><trkpt lat="-20.39931134741973" lon="118.59437714073067"><ele>16.0</ele><time>2026-04-23T05:24:48.001Z</time></trkpt><trkpt lat="-20.399191066904127" lon="118.59429612880706"><ele>16.0</ele><time>2026-04-23T05:24:49.001Z</time></trkpt><trkpt lat="-20.399080273912393" lon="118.59420670018368"><ele>16.0</ele><time>2026-04-23T05:24:50.001Z</time></trkpt><trkpt lat="-20.398964548401633" lon="118.59412738018824"><ele>16.0</ele><time>2026-04-23T05:24:51.001Z</time></trkpt><trkpt lat="-20.39884358343019" lon="118.59404995971178"><ele>16.0</ele><time>2026-04-23T05:24:52.001Z</time></trkpt><trkpt lat="-20.398721468284986" lon="118.59396753638387"><ele>16.0</ele><time>2026-04-23T05:24:53.001Z</time></trkpt><trkpt lat="-20.39860387463266" lon="118.59388639742406"><ele>16.0</ele><time>2026-04-23T05:24:54.001Z</time></trkpt><trkpt lat="-20.398489536546208" lon="118.59380750478924"><ele>15.600000000000001</ele><time>2026-04-23T05:24:55.001Z</time></trkpt><trkpt lat="-20.398387720890494" lon="118.59373750358537"><ele>15.200000000000001</ele><time>2026-04-23T05:24:56.001Z</time></trkpt><trkpt lat="-20.398295376363084" lon="118.59367475035243"><ele>14.799999999999999</ele><time>2026-04-23T05:24:57.001Z</time></trkpt><trkpt lat="-20.39821476185082" lon="118.59361996830475"><ele>14.399999999999999</ele><time>2026-04-23T05:24:58.001Z</time></trkpt><trkpt lat="-20.398147209950313" lon="118.59357487266392"><ele>14.0</ele><time>2026-04-23T05:24:59.001Z</time></trkpt><trkpt lat="-20.398092394924703" lon="118.5935387426388"><ele>13.666666666666668</ele><time>2026-04-23T05:25:00.001Z</time></trkpt><trkpt lat="-20.397898545542926" lon="118.5937071057794"><ele>13.333333333333332</ele><time>2026-04-23T05:25:02.001Z</time></trkpt><trkpt lat="-20.39783382180548" lon="118.59379832387182"><ele>13.0</ele><time>2026-04-23T05:25:03.001Z</time></trkpt><trkpt lat="-20.388830420824867" lon="118.60191442449008"><ele>13.0</ele><time>2026-04-23T05:26:04Z</time></trkpt><trkpt lat="-20.388578222217255" lon="118.60193841984933"><ele>13.0</ele><time>2026-04-23T05:26:05Z</time></trkpt><trkpt lat="-20.388330047474216" lon="118.6019567616848"><ele>13.0</ele><time>2026-04-23T05:26:06Z</time></trkpt><trkpt lat="-20.3880759107014" lon="118.60196967013867"><ele>13.0</ele><time>2026-04-23T05:26:07Z</time></trkpt><trkpt lat="-20.38782098321933" lon="118.60197712189013"><ele>13.0</ele><time>2026-04-23T05:26:08Z</time></trkpt><trkpt lat="-20.38756701212093" lon="118.60197942059949"><ele>13.0</ele><time>2026-04-23T05:26:09Z</time></trkpt><trkpt lat="-20.387320848193568" lon="118.6019833019994"><ele>12.5</ele><time>2026-04-23T05:26:10Z</time></trkpt><trkpt lat="-20.38708074826907" lon="118.60198443761868"><ele>12.0</ele><time>2026-04-23T05:26:11Z</time></trkpt><trkpt lat="-20.386827989463224" lon="118.60198341010594"><ele>12.0</ele><time>2026-04-23T05:26:12Z</time></trkpt><trkpt lat="-20.386569735427475" lon="118.60198020718748"><ele>12.0</ele><time>2026-04-23T05:26:13Z</time></trkpt><trkpt lat="-20.386302190601608" lon="118.60197668613542"><ele>12.0</ele><time>2026-04-23T05:26:14Z</time></trkpt><trkpt lat="-20.386017789895483" lon="118.60197986310162"><ele>12.0</ele><time>2026-04-23T05:26:15Z</time></trkpt><trkpt lat="-20.385740764135107" lon="118.60198728615035"><ele>13.0</ele><time>2026-04-23T05:26:16Z</time></trkpt><trkpt lat="-20.38546528814501" lon="118.60196766680411"><ele>14.0</ele><time>2026-04-23T05:26:17Z</time></trkpt><trkpt lat="-20.385217631063053" lon="118.601963818748"><ele>14.0</ele><time>2026-04-23T05:26:18Z</time></trkpt><trkpt lat="-20.384982536266225" lon="118.60198272726869"><ele>14.0</ele><time>2026-04-23T05:26:19Z</time></trkpt><trkpt lat="-20.384731876179835" lon="118.60196943927117"><ele>13.0</ele><time>2026-04-23T05:26:20Z</time></trkpt><trkpt lat="-20.384479749667534" lon="118.6019491144191"><ele>12.0</ele><time>2026-04-23T05:26:21Z</time></trkpt><trkpt lat="-20.384231773860098" lon="118.6019362295957"><ele>12.0</ele><time>2026-04-23T05:26:22Z</time></trkpt><trkpt lat="-20.383968770371535" lon="118.60194174138209"><ele>12.0</ele><time>2026-04-23T05:26:23Z</time></trkpt><trkpt lat="-20.38371104269452" lon="118.60196361104155"><ele>11.0</ele><time>2026-04-23T05:26:24Z</time></trkpt><trkpt lat="-20.38346369373326" lon="118.60200721399438"><ele>10.0</ele><time>2026-04-23T05:26:25Z</time></trkpt><trkpt lat="-20.383228297992595" lon="118.60206953780006"><ele>11.0</ele><time>2026-04-23T05:26:26Z</time></trkpt><trkpt lat="-20.3829994519029" lon="118.6021426739618"><ele>12.0</ele><time>2026-04-23T05:26:27Z</time></trkpt><trkpt lat="-20.382776514623973" lon="118.60221959873982"><ele>12.0</ele><time>2026-04-23T05:26:28.001Z</time></trkpt><trkpt lat="-20.382554117637252" lon="118.60230418641012"><ele>12.0</ele><time>2026-04-23T05:26:29.001Z</time></trkpt><trkpt lat="-20.382334411710634" lon="118.60240416868669"><ele>11.0</ele><time>2026-04-23T05:26:30.001Z</time></trkpt><trkpt lat="-20.382118575287414" lon="118.60251814455022"><ele>10.0</ele><time>2026-04-23T05:26:31.001Z</time></trkpt><trkpt lat="-20.381903987964673" lon="118.6026508940079"><ele>10.0</ele><time>2026-04-23T05:26:32.001Z</time></trkpt><trkpt lat="-20.381694404722204" lon="118.60279544027814"><ele>10.0</ele><time>2026-04-23T05:26:33.001Z</time></trkpt><trkpt lat="-20.38148710859927" lon="118.60294931583316"><ele>11.5</ele><time>2026-04-23T05:26:34.001Z</time></trkpt><trkpt lat="-20.38127738630779" lon="118.6031049238319"><ele>13.0</ele><time>2026-04-23T05:26:35.001Z</time></trkpt><trkpt lat="-20.38106816463209" lon="118.60326062029434"><ele>13.0</ele><time>2026-04-23T05:26:36.001Z</time></trkpt><trkpt lat="-20.380856466031723" lon="118.60341850576255"><ele>13.0</ele><time>2026-04-23T05:26:37.001Z</time></trkpt><trkpt lat="-20.380649237500542" lon="118.6035809593794"><ele>11.5</ele><time>2026-04-23T05:26:38.001Z</time></trkpt><trkpt lat="-20.38044399008601" lon="118.60375030688775"><ele>10.0</ele><time>2026-04-23T05:26:39.001Z</time></trkpt><trkpt lat="-20.38024050006219" lon="118.60392505679185"><ele>10.0</ele><time>2026-04-23T05:26:40.001Z</time></trkpt><trkpt lat="-20.38003640442304" lon="118.60409615815519"><ele>10.0</ele><time>2026-04-23T05:26:41.001Z</time></trkpt><trkpt lat="-20.37962584027438" lon="118.60443237994099"><ele>10.5</ele><time>2026-04-23T05:26:43.001Z</time></trkpt><trkpt lat="-20.379424748832623" lon="118.60460083483578"><ele>11.0</ele><time>2026-04-23T05:26:44.001Z</time></trkpt><trkpt lat="-20.37922588153596" lon="118.60476984602124"><ele>11.0</ele><time>2026-04-23T05:26:45.001Z</time></trkpt><trkpt lat="-20.37903014580881" lon="118.60493292281734"><ele>11.0</ele><time>2026-04-23T05:26:46.001Z</time></trkpt><trkpt lat="-20.378834566271845" lon="118.6050974129609"><ele>11.0</ele><time>2026-04-23T05:26:47.001Z</time></trkpt><trkpt lat="-20.3786351060377" lon="118.60526065795153"><ele>11.0</ele><time>2026-04-23T05:26:48.001Z</time></trkpt><trkpt lat="-20.378428307943928" lon="118.60542466364518"><ele>10.5</ele><time>2026-04-23T05:26:49.001Z</time></trkpt><trkpt lat="-20.378219332982454" lon="118.60559146393476"><ele>10.0</ele><time>2026-04-23T05:26:50.001Z</time></trkpt><trkpt lat="-20.378012395663298" lon="118.60575946900128"><ele>10.0</ele><time>2026-04-23T05:26:51.001Z</time></trkpt><trkpt lat="-20.37780185021574" lon="118.60593071014146"><ele>10.0</ele><time>2026-04-23T05:26:52.001Z</time></trkpt><trkpt lat="-20.377596466838387" lon="118.60610541017684"><ele>10.5</ele><time>2026-04-23T05:26:53.001Z</time></trkpt><trkpt lat="-20.377387479660868" lon="118.60628145769867"><ele>11.0</ele><time>2026-04-23T05:26:54.001Z</time></trkpt><trkpt lat="-20.377176978552814" lon="118.6064530710183"><ele>12.0</ele><time>2026-04-23T05:26:55.001Z</time></trkpt><trkpt lat="-20.376966306825974" lon="118.6066254532944"><ele>13.0</ele><time>2026-04-23T05:26:56.001Z</time></trkpt><trkpt lat="-20.37675943557145" lon="118.60679577140445"><ele>13.0</ele><time>2026-04-23T05:26:57.001Z</time></trkpt><trkpt lat="-20.376559192436986" lon="118.60696181109404"><ele>13.0</ele><time>2026-04-23T05:26:58.001Z</time></trkpt><trkpt lat="-20.376359215496105" lon="118.60712572063352"><ele>11.5</ele><time>2026-04-23T05:26:59.001Z</time></trkpt><trkpt lat="-20.37615514611587" lon="118.6072911606824"><ele>10.0</ele><time>2026-04-23T05:27:00.001Z</time></trkpt><trkpt lat="-20.375951542560706" lon="118.60745763083882"><ele>10.0</ele><time>2026-04-23T05:27:01.001Z</time></trkpt><trkpt lat="-20.375746183258006" lon="118.60762775432931"><ele>10.0</ele><time>2026-04-23T05:27:02.001Z</time></trkpt><trkpt lat="-20.375538261729446" lon="118.60780131558388"><ele>9.0</ele><time>2026-04-23T05:27:03.001Z</time></trkpt><trkpt lat="-20.36266812931887" lon="118.61844788268475"><ele>9.0</ele><time>2026-04-23T05:28:04Z</time></trkpt><trkpt lat="-20.362443950814292" lon="118.61862858230928"><ele>9.0</ele><time>2026-04-23T05:28:05Z</time></trkpt><trkpt lat="-20.362223056689153" lon="118.61880881463966"><ele>8.5</ele><time>2026-04-23T05:28:06Z</time></trkpt><trkpt lat="-20.362001967629862" lon="118.6189887828736"><ele>8.0</ele><time>2026-04-23T05:28:07Z</time></trkpt><trkpt lat="-20.361769525841193" lon="118.61914325125204"><ele>8.0</ele><time>2026-04-23T05:28:08Z</time></trkpt><trkpt lat="-20.36154574565753" lon="118.61930803153105"><ele>8.0</ele><time>2026-04-23T05:28:09Z</time></trkpt><trkpt lat="-20.361318801111263" lon="118.61946635075589"><ele>8.5</ele><time>2026-04-23T05:28:10Z</time></trkpt><trkpt lat="-20.361098043417915" lon="118.61963617241402"><ele>9.0</ele><time>2026-04-23T05:28:11Z</time></trkpt><trkpt lat="-20.360866288857054" lon="118.61978802283053"><ele>9.0</ele><time>2026-04-23T05:28:12Z</time></trkpt><trkpt lat="-20.360634261590874" lon="118.61993458874234"><ele>9.0</ele><time>2026-04-23T05:28:13Z</time></trkpt><trkpt lat="-20.360395670849595" lon="118.62007991234947"><ele>9.0</ele><time>2026-04-23T05:28:14Z</time></trkpt><trkpt lat="-20.360153536912232" lon="118.62022515041069"><ele>9.0</ele><time>2026-04-23T05:28:15Z</time></trkpt><trkpt lat="-20.359914529816834" lon="118.62036548071514"><ele>9.0</ele><time>2026-04-23T05:28:16Z</time></trkpt><trkpt lat="-20.35967806895025" lon="118.62050792836384"><ele>9.0</ele><time>2026-04-23T05:28:17Z</time></trkpt><trkpt lat="-20.35943639722969" lon="118.62063642245053"><ele>9.0</ele><time>2026-04-23T05:28:18Z</time></trkpt><trkpt lat="-20.359207154417508" lon="118.62078268840332"><ele>9.0</ele><time>2026-04-23T05:28:19Z</time></trkpt><trkpt lat="-20.358980581905726" lon="118.62093669550102"><ele>9.0</ele><time>2026-04-23T05:28:20Z</time></trkpt><trkpt lat="-20.35875903517162" lon="118.62108909944622"><ele>9.0</ele><time>2026-04-23T05:28:21Z</time></trkpt><trkpt lat="-20.358538378667514" lon="118.62124413041363"><ele>9.0</ele><time>2026-04-23T05:28:22Z</time></trkpt><trkpt lat="-20.358321234503414" lon="118.62140031272307"><ele>9.0</ele><time>2026-04-23T05:28:23Z</time></trkpt><trkpt lat="-20.358104466592817" lon="118.62155917361706"><ele>10.0</ele><time>2026-04-23T05:28:24Z</time></trkpt><trkpt lat="-20.357899226705225" lon="118.62173608898074"><ele>11.0</ele><time>2026-04-23T05:28:25Z</time></trkpt><trkpt lat="-20.357685506849453" lon="118.6218989430347"><ele>9.0</ele><time>2026-04-23T05:28:26Z</time></trkpt><trkpt lat="-20.357475912379122" lon="118.62206734726047"><ele>7.0</ele><time>2026-04-23T05:28:27Z</time></trkpt><trkpt lat="-20.357275042920456" lon="118.62223870365673"><ele>7.5</ele><time>2026-04-23T05:28:28Z</time></trkpt><trkpt lat="-20.35706536785029" lon="118.62241667109353"><ele>8.0</ele><time>2026-04-23T05:28:29Z</time></trkpt><trkpt lat="-20.356871030442417" lon="118.62259681652432"><ele>8.0</ele><time>2026-04-23T05:28:30Z</time></trkpt><trkpt lat="-20.35667233012654" lon="118.62277667490117"><ele>8.0</ele><time>2026-04-23T05:28:31Z</time></trkpt><trkpt lat="-20.356472676366895" lon="118.62295853162475"><ele>8.5</ele><time>2026-04-23T05:28:32Z</time></trkpt><trkpt lat="-20.35627269683421" lon="118.62313851108652"><ele>9.0</ele><time>2026-04-23T05:28:33Z</time></trkpt><trkpt lat="-20.35607321265157" lon="118.62332340647691"><ele>9.0</ele><time>2026-04-23T05:28:34Z</time></trkpt><trkpt lat="-20.355878684984766" lon="118.6235148712081"><ele>9.0</ele><time>2026-04-23T05:28:35Z</time></trkpt><trkpt lat="-20.355689337558662" lon="118.62371060646619"><ele>8.5</ele><time>2026-04-23T05:28:36.001Z</time></trkpt><trkpt lat="-20.355501052185407" lon="118.62390964189615"><ele>8.0</ele><time>2026-04-23T05:28:37.001Z</time></trkpt><trkpt lat="-20.355300478367123" lon="118.62409380176838"><ele>8.0</ele><time>2026-04-23T05:28:38.001Z</time></trkpt><trkpt lat="-20.35511216024139" lon="118.62429051977021"><ele>8.0</ele><time>2026-04-23T05:28:39.001Z</time></trkpt><trkpt lat="-20.35492544278058" lon="118.62448836681614"><ele>8.0</ele><time>2026-04-23T05:28:40.001Z</time></trkpt><trkpt lat="-20.354738947307464" lon="118.62468727886264"><ele>8.0</ele><time>2026-04-23T05:28:41.001Z</time></trkpt><trkpt lat="-20.354556363625687" lon="118.62488201867704"><ele>8.0</ele><time>2026-04-23T05:28:42.001Z</time></trkpt><trkpt lat="-20.354375353544253" lon="118.62508501507665"><ele>8.0</ele><time>2026-04-23T05:28:43.001Z</time></trkpt><trkpt lat="-20.35419172251657" lon="118.62528352446591"><ele>7.5</ele><time>2026-04-23T05:28:44.001Z</time></trkpt><trkpt lat="-20.354007916694187" lon="118.62547570304828"><ele>7.0</ele><time>2026-04-23T05:28:45.001Z</time></trkpt><trkpt lat="-20.35382109435021" lon="118.62566515831472"><ele>8.0</ele><time>2026-04-23T05:28:46.001Z</time></trkpt><trkpt lat="-20.353635957459385" lon="118.6258550674616"><ele>9.0</ele><time>2026-04-23T05:28:47.001Z</time></trkpt><trkpt lat="-20.353446752263743" lon="118.62604598823906"><ele>8.0</ele><time>2026-04-23T05:28:48.001Z</time></trkpt><trkpt lat="-20.35324694984548" lon="118.62623083951028"><ele>7.0</ele><time>2026-04-23T05:28:49.001Z</time></trkpt><trkpt lat="-20.353039600682536" lon="118.62640976145344"><ele>8.0</ele><time>2026-04-23T05:28:50.001Z</time></trkpt><trkpt lat="-20.35283150539794" lon="118.62658094498029"><ele>9.0</ele><time>2026-04-23T05:28:51.001Z</time></trkpt><trkpt lat="-20.35262115390961" lon="118.62674954003914"><ele>9.0</ele><time>2026-04-23T05:28:52.001Z</time></trkpt><trkpt lat="-20.352407687197243" lon="118.62691499399288"><ele>9.0</ele><time>2026-04-23T05:28:53.001Z</time></trkpt><trkpt lat="-20.35219050866466" lon="118.6270752245826"><ele>7.0</ele><time>2026-04-23T05:28:54.001Z</time></trkpt><trkpt lat="-20.351969302736585" lon="118.62722828572167"><ele>5.0</ele><time>2026-04-23T05:28:55.001Z</time></trkpt><trkpt lat="-20.351744606376197" lon="118.62737539590132"><ele>5.0</ele><time>2026-04-23T05:28:56.001Z</time></trkpt><trkpt lat="-20.351518030548228" lon="118.62751924768138"><ele>5.0</ele><time>2026-04-23T05:28:57.001Z</time></trkpt><trkpt lat="-20.351289136165" lon="118.62766280088381"><ele>6.5</ele><time>2026-04-23T05:28:58.001Z</time></trkpt><trkpt lat="-20.351056221327962" lon="118.62780164560304"><ele>8.0</ele><time>2026-04-23T05:28:59.001Z</time></trkpt><trkpt lat="-20.350821437590923" lon="118.62793296978401"><ele>8.0</ele><time>2026-04-23T05:29:00.001Z</time></trkpt><trkpt lat="-20.350602898656525" lon="118.62804948946871"><ele>8.0</ele><time>2026-04-23T05:29:01.001Z</time></trkpt><trkpt lat="-20.350406909524605" lon="118.62814608829288"><ele>8.5</ele><time>2026-04-23T05:29:02.001Z</time></trkpt><trkpt lat="-20.350213455995505" lon="118.62824020448441"><ele>9.0</ele><time>2026-04-23T05:29:03.001Z</time></trkpt><trkpt lat="-20.33606825604383" lon="118.63484415479141"><ele>9.0</ele><time>2026-04-23T05:30:04Z</time></trkpt><trkpt lat="-20.335829970112673" lon="118.6349406936774"><ele>9.0</ele><time>2026-04-23T05:30:05Z</time></trkpt><trkpt lat="-20.335595608633533" lon="118.63504212014254"><ele>8.5</ele><time>2026-04-23T05:30:06Z</time></trkpt><trkpt lat="-20.335362341288242" lon="118.63514858454073"><ele>8.0</ele><time>2026-04-23T05:30:07Z</time></trkpt><trkpt lat="-20.33513167136676" lon="118.63525534297004"><ele>9.0</ele><time>2026-04-23T05:30:08Z</time></trkpt><trkpt lat="-20.334900833414498" lon="118.63536193023133"><ele>10.0</ele><time>2026-04-23T05:30:09Z</time></trkpt><trkpt lat="-20.334672404480585" lon="118.63546843581415"><ele>10.0</ele><time>2026-04-23T05:30:10Z</time></trkpt><trkpt lat="-20.334443411997356" lon="118.63557568023323"><ele>10.0</ele><time>2026-04-23T05:30:11Z</time></trkpt><trkpt lat="-20.334213594452706" lon="118.63568237498144"><ele>10.0</ele><time>2026-04-23T05:30:12Z</time></trkpt><trkpt lat="-20.333984091829286" lon="118.63578272046358"><ele>10.0</ele><time>2026-04-23T05:30:13Z</time></trkpt><trkpt lat="-20.33375230802876" lon="118.63588405367567"><ele>8.5</ele><time>2026-04-23T05:30:14Z</time></trkpt><trkpt lat="-20.333522557194403" lon="118.63598942094356"><ele>7.0</ele><time>2026-04-23T05:30:15Z</time></trkpt><trkpt lat="-20.33329299526814" lon="118.63609542064452"><ele>8.5</ele><time>2026-04-23T05:30:16Z</time></trkpt><trkpt lat="-20.333061630287315" lon="118.63620101086164"><ele>10.0</ele><time>2026-04-23T05:30:17Z</time></trkpt><trkpt lat="-20.332827841650236" lon="118.63630518654456"><ele>10.0</ele><time>2026-04-23T05:30:18Z</time></trkpt><trkpt lat="-20.332593701572783" lon="118.63641155549561"><ele>10.0</ele><time>2026-04-23T05:30:19Z</time></trkpt><trkpt lat="-20.33235882466215" lon="118.6365169059793"><ele>8.5</ele><time>2026-04-23T05:30:20Z</time></trkpt><trkpt lat="-20.332123384190538" lon="118.6366224784533"><ele>7.0</ele><time>2026-04-23T05:30:21Z</time></trkpt><trkpt lat="-20.331885119566845" lon="118.63672908416609"><ele>7.0</ele><time>2026-04-23T05:30:22Z</time></trkpt><trkpt lat="-20.331647473242043" lon="118.63683662839685"><ele>7.0</ele><time>2026-04-23T05:30:23Z</time></trkpt><trkpt lat="-20.331408810378612" lon="118.63693664556642"><ele>8.0</ele><time>2026-04-23T05:30:24Z</time></trkpt><trkpt lat="-20.331160818134595" lon="118.63702385885763"><ele>9.0</ele><time>2026-04-23T05:30:25Z</time></trkpt><trkpt lat="-20.33091731760106" lon="118.63709025734272"><ele>9.0</ele><time>2026-04-23T05:30:26.001Z</time></trkpt><trkpt lat="-20.33066562566151" lon="118.63713195593118"><ele>9.0</ele><time>2026-04-23T05:30:27.001Z</time></trkpt><trkpt lat="-20.330409587194673" lon="118.63715746618617"><ele>7.0</ele><time>2026-04-23T05:30:28.001Z</time></trkpt><trkpt lat="-20.33015101326745" lon="118.6371728580369"><ele>5.0</ele><time>2026-04-23T05:30:29.001Z</time></trkpt><trkpt lat="-20.32990645897492" lon="118.63717384038883"><ele>6.0</ele><time>2026-04-23T05:30:30.001Z</time></trkpt><trkpt lat="-20.329672592028242" lon="118.63715849272205"><ele>7.0</ele><time>2026-04-23T05:30:31.001Z</time></trkpt><trkpt lat="-20.32943761061744" lon="118.63712593359348"><ele>7.0</ele><time>2026-04-23T05:30:32.001Z</time></trkpt><trkpt lat="-20.32919734342459" lon="118.63707478376422"><ele>7.0</ele><time>2026-04-23T05:30:33.001Z</time></trkpt><trkpt lat="-20.328954421241203" lon="118.63701319196565"><ele>7.5</ele><time>2026-04-23T05:30:34.001Z</time></trkpt><trkpt lat="-20.328706244767886" lon="118.63694330144412"><ele>8.0</ele><time>2026-04-23T05:30:35.001Z</time></trkpt><trkpt lat="-20.328461451891936" lon="118.63686100585564"><ele>8.0</ele><time>2026-04-23T05:30:36.001Z</time></trkpt><trkpt lat="-20.32821801982385" lon="118.63676603352735"><ele>8.0</ele><time>2026-04-23T05:30:37.001Z</time></trkpt><trkpt lat="-20.327972612952262" lon="118.63666896442355"><ele>7.5</ele><time>2026-04-23T05:30:38.001Z</time></trkpt><trkpt lat="-20.327727520626443" lon="118.63657327843978"><ele>7.0</ele><time>2026-04-23T05:30:39.001Z</time></trkpt><trkpt lat="-20.327482410981933" lon="118.63648131264341"><ele>7.0</ele><time>2026-04-23T05:30:40.001Z</time></trkpt><trkpt lat="-20.32723941125539" lon="118.63639483078265"><ele>7.0</ele><time>2026-04-23T05:30:41.001Z</time></trkpt><trkpt lat="-20.32699508993915" lon="118.63631438321242"><ele>7.5</ele><time>2026-04-23T05:30:42.001Z</time></trkpt><trkpt lat="-20.326756448326073" lon="118.63623035943131"><ele>8.0</ele><time>2026-04-23T05:30:43.001Z</time></trkpt><trkpt lat="-20.32651951627551" lon="118.63614301526808"><ele>8.0</ele><time>2026-04-23T05:30:44.001Z</time></trkpt><trkpt lat="-20.326287785247235" lon="118.6360513405876"><ele>8.0</ele><time>2026-04-23T05:30:45.001Z</time></trkpt><trkpt lat="-20.326058847874886" lon="118.63595607082608"><ele>8.0</ele><time>2026-04-23T05:30:46.001Z</time></trkpt><trkpt lat="-20.32583146026904" lon="118.6358510328837"><ele>8.0</ele><time>2026-04-23T05:30:47.001Z</time></trkpt><trkpt lat="-20.325609031936974" lon="118.63572712841413"><ele>8.0</ele><time>2026-04-23T05:30:48.001Z</time></trkpt><trkpt lat="-20.32539355797589" lon="118.63558386230294"><ele>8.0</ele><time>2026-04-23T05:30:49.001Z</time></trkpt><trkpt lat="-20.32518771884651" lon="118.63542261467279"><ele>8.5</ele><time>2026-04-23T05:30:50.001Z</time></trkpt><trkpt lat="-20.32499241404291" lon="118.63524642925995"><ele>9.0</ele><time>2026-04-23T05:30:51.001Z</time></trkpt><trkpt lat="-20.324803725220512" lon="118.63505866796284"><ele>8.0</ele><time>2026-04-23T05:30:52.001Z</time></trkpt><trkpt lat="-20.3246177781101" lon="118.6348630842553"><ele>7.0</ele><time>2026-04-23T05:30:53.001Z</time></trkpt><trkpt lat="-20.324432445890373" lon="118.63466369376538"><ele>7.5</ele><time>2026-04-23T05:30:54.001Z</time></trkpt><trkpt lat="-20.324250371871436" lon="118.63446190761576"><ele>8.0</ele><time>2026-04-23T05:30:55.001Z</time></trkpt><trkpt lat="-20.32406633686372" lon="118.63425998281116"><ele>9.5</ele><time>2026-04-23T05:30:56.001Z</time></trkpt><trkpt lat="-20.323878716658452" lon="118.63406160720044"><ele>11.0</ele><time>2026-04-23T05:30:57.001Z</time></trkpt><trkpt lat="-20.323690664044264" lon="118.63386623242035"><ele>11.0</ele><time>2026-04-23T05:30:58.001Z</time></trkpt><trkpt lat="-20.32350765826608" lon="118.63367245917071"><ele>11.0</ele><time>2026-04-23T05:30:59.001Z</time></trkpt><trkpt lat="-20.32332525331784" lon="118.63347711944218"><ele>10.0</ele><time>2026-04-23T05:31:00.001Z</time></trkpt><trkpt lat="-20.323147403663125" lon="118.6332856634459"><ele>9.0</ele><time>2026-04-23T05:31:01.001Z</time></trkpt><trkpt lat="-20.32296677236824" lon="118.63309218236274"><ele>9.0</ele><time>2026-04-23T05:31:02.001Z</time></trkpt><trkpt lat="-20.322787425397614" lon="118.63290327886358"><ele>9.0</ele><time>2026-04-23T05:31:03.001Z</time></trkpt><trkpt lat="-20.314800834842977" lon="118.61891417104472"><ele>7.5</ele><time>2026-04-23T05:32:04Z</time></trkpt><trkpt lat="-20.314735634204943" lon="118.61865419984572"><ele>6.0</ele><time>2026-04-23T05:32:05Z</time></trkpt><trkpt lat="-20.31467188946304" lon="118.618390488354"><ele>6.0</ele><time>2026-04-23T05:32:06Z</time></trkpt><trkpt lat="-20.314607650359683" lon="118.6181253696912"><ele>6.0</ele><time>2026-04-23T05:32:07Z</time></trkpt><trkpt lat="-20.314542333410184" lon="118.61785642788655"><ele>7.0</ele><time>2026-04-23T05:32:08Z</time></trkpt><trkpt lat="-20.31447702089924" lon="118.61758882117881"><ele>8.0</ele><time>2026-04-23T05:32:09Z</time></trkpt><trkpt lat="-20.31441049762746" lon="118.61732127698038"><ele>8.0</ele><time>2026-04-23T05:32:10Z</time></trkpt><trkpt lat="-20.314344634853942" lon="118.61705534111496"><ele>8.0</ele><time>2026-04-23T05:32:11Z</time></trkpt><trkpt lat="-20.314280155819503" lon="118.61679455253713"><ele>7.5</ele><time>2026-04-23T05:32:12.001Z</time></trkpt><trkpt lat="-20.314212982591833" lon="118.61653436089023"><ele>7.0</ele><time>2026-04-23T05:32:13.001Z</time></trkpt><trkpt lat="-20.314146208662972" lon="118.61627105534988"><ele>7.5</ele><time>2026-04-23T05:32:14.001Z</time></trkpt><trkpt lat="-20.314083268852677" lon="118.61600765310654"><ele>8.0</ele><time>2026-04-23T05:32:15.001Z</time></trkpt><trkpt lat="-20.314020206706083" lon="118.61574340628636"><ele>8.0</ele><time>2026-04-23T05:32:16.001Z</time></trkpt><trkpt lat="-20.31395677900079" lon="118.61547956343156"><ele>8.0</ele><time>2026-04-23T05:32:17.001Z</time></trkpt><trkpt lat="-20.31389196609505" lon="118.615212133888"><ele>8.5</ele><time>2026-04-23T05:32:18.001Z</time></trkpt><trkpt lat="-20.31382575541463" lon="118.6149421758343"><ele>9.0</ele><time>2026-04-23T05:32:19.001Z</time></trkpt><trkpt lat="-20.31375620211117" lon="118.61466671504628"><ele>9.0</ele><time>2026-04-23T05:32:20.001Z</time></trkpt><trkpt lat="-20.313689877770898" lon="118.61439412695576"><ele>9.0</ele><time>2026-04-23T05:32:21.001Z</time></trkpt><trkpt lat="-20.313629536419118" lon="118.61412993935687"><ele>9.0</ele><time>2026-04-23T05:32:22.001Z</time></trkpt><trkpt lat="-20.31357281635643" lon="118.61388085275398"><ele>9.0</ele><time>2026-04-23T05:32:23.001Z</time></trkpt><trkpt lat="-20.313522862324962" lon="118.6136505920463"><ele>9.333333333333334</ele><time>2026-04-23T05:32:24.001Z</time></trkpt><trkpt lat="-20.313478463709686" lon="118.61342243731127"><ele>9.666666666666668</ele><time>2026-04-23T05:32:25.001Z</time></trkpt><trkpt lat="-20.313436555072368" lon="118.61318727973985"><ele>10.0</ele><time>2026-04-23T05:32:26.001Z</time></trkpt><trkpt lat="-20.313375527195188" lon="118.61295446965947"><ele>9.0</ele><time>2026-04-23T05:32:27.001Z</time></trkpt><trkpt lat="-20.313353108154583" lon="118.61270953713536"><ele>8.0</ele><time>2026-04-23T05:32:28.001Z</time></trkpt><trkpt lat="-20.31330775600596" lon="118.61246283314875"><ele>8.0</ele><time>2026-04-23T05:32:29.001Z</time></trkpt><trkpt lat="-20.3132552709343" lon="118.61221762566983"><ele>8.0</ele><time>2026-04-23T05:32:30.001Z</time></trkpt><trkpt lat="-20.313196291899953" lon="118.61197511931164"><ele>8.0</ele><time>2026-04-23T05:32:31.001Z</time></trkpt><trkpt lat="-20.31314020759571" lon="118.61174767058142"><ele>8.0</ele><time>2026-04-23T05:32:32.001Z</time></trkpt><trkpt lat="-20.313089839181682" lon="118.61153879427471"><ele>8.0</ele><time>2026-04-23T05:32:33.001Z</time></trkpt><trkpt lat="-20.31304302622054" lon="118.6113454741098"><ele>7.0</ele><time>2026-04-23T05:32:34.001Z</time></trkpt><trkpt lat="-20.312993004448856" lon="118.61115213366774"><ele>6.0</ele><time>2026-04-23T05:32:35.001Z</time></trkpt><trkpt lat="-20.312946502377873" lon="118.61097150802722"><ele>5.0</ele><time>2026-04-23T05:32:36.001Z</time></trkpt><trkpt lat="-20.31290184027765" lon="118.61080180114133"><ele>5.0</ele><time>2026-04-23T05:32:37.001Z</time></trkpt><trkpt lat="-20.312860068872233" lon="118.61064435389451"><ele>5.0</ele><time>2026-04-23T05:32:38.001Z</time></trkpt><trkpt lat="-20.312816196147267" lon="118.6104969595572"><ele>5.0</ele><time>2026-04-23T05:32:39.001Z</time></trkpt><trkpt lat="-20.312770148073483" lon="118.61035301236096"><ele>5.0</ele><time>2026-04-23T05:32:40.001Z</time></trkpt><trkpt lat="-20.312751698924156" lon="118.6102049409903"><ele>5.5</ele><time>2026-04-23T05:32:41.001Z</time></trkpt><trkpt lat="-20.312722007904632" lon="118.61006651398206"><ele>6.0</ele><time>2026-04-23T05:32:42.001Z</time></trkpt><trkpt lat="-20.312694402836577" lon="118.60993463959728"><ele>6.5</ele><time>2026-04-23T05:32:43.001Z</time></trkpt><trkpt lat="-20.312671522536952" lon="118.60981049145654"><ele>7.0</ele><time>2026-04-23T05:32:44.001Z</time></trkpt><trkpt lat="-20.31265197102088" lon="118.60969634367362"><ele>7.0</ele><time>2026-04-23T05:32:45.001Z</time></trkpt><trkpt lat="-20.312634932249747" lon="118.60959686607222"><ele>6.999999999999999</ele><time>2026-04-23T05:32:46.001Z</time></trkpt><trkpt lat="-20.31262237977785" lon="118.60951498547102"><ele>6.999999999999999</ele><time>2026-04-23T05:32:47.001Z</time></trkpt><trkpt lat="-20.312611871478637" lon="118.60944548574703"><ele>7.0</ele><time>2026-04-23T05:32:48.001Z</time></trkpt><trkpt lat="-20.31241569496615" lon="118.60937639884708"><ele>7.0</ele><time>2026-04-23T05:32:50.001Z</time></trkpt><trkpt lat="-20.312318558158072" lon="118.60936751449165"><ele>7.6</ele><time>2026-04-23T05:32:51.001Z</time></trkpt><trkpt lat="-20.31221800875154" lon="118.6093849840042"><ele>8.2</ele><time>2026-04-23T05:32:52.001Z</time></trkpt><trkpt lat="-20.312127143548896" lon="118.60938123423091"><ele>8.8</ele><time>2026-04-23T05:32:53.001Z</time></trkpt><trkpt lat="-20.312025530105057" lon="118.6093798877046"><ele>9.4</ele><time>2026-04-23T05:32:54.001Z</time></trkpt><trkpt lat="-20.311900465763063" lon="118.60937858607235"><ele>10.0</ele><time>2026-04-23T05:32:55.001Z</time></trkpt><trkpt lat="-20.31176547179312" lon="118.60937973155161"><ele>10.0</ele><time>2026-04-23T05:32:56.001Z</time></trkpt><trkpt lat="-20.31163970954891" lon="118.60938183639209"><ele>10.0</ele><time>2026-04-23T05:32:57.001Z</time></trkpt><trkpt lat="-20.31152281578707" lon="118.60938598373993"><ele>10.0</ele><time>2026-04-23T05:32:58.001Z</time></trkpt><trkpt lat="-20.31140814196086" lon="118.60939272796996"><ele>10.0</ele><time>2026-04-23T05:32:59.001Z</time></trkpt><trkpt lat="-20.311298981247113" lon="118.6094060538439"><ele>10.0</ele><time>2026-04-23T05:33:00.001Z</time></trkpt><trkpt lat="-20.31119390679128" lon="118.60944155338066"><ele>10.0</ele><time>2026-04-23T05:33:01.001Z</time></trkpt><trkpt lat="-20.31108808910847" lon="118.60946423753578"><ele>10.0</ele><time>2026-04-23T05:33:02.001Z</time></trkpt><trkpt lat="-20.310983733004104" lon="118.60950135872505"><ele>10.0</ele><time>2026-04-23T05:33:03.001Z</time></trkpt><trkpt lat="-20.308713793308524" lon="118.60767313377264"><ele>10.0</ele><time>2026-04-23T05:34:04.001Z</time></trkpt><trkpt lat="-20.30870217831564" lon="118.60755321578655"><ele>10.0</ele><time>2026-04-23T05:34:05.001Z</time></trkpt><trkpt lat="-20.308691559125336" lon="118.60742953365717"><ele>10.0</ele><time>2026-04-23T05:34:06.001Z</time></trkpt><trkpt lat="-20.308679676225182" lon="118.60730680236954"><ele>10.0</ele><time>2026-04-23T05:34:07.001Z</time></trkpt><trkpt lat="-20.308665494672866" lon="118.60718456855123"><ele>10.0</ele><time>2026-04-23T05:34:08.001Z</time></trkpt><trkpt lat="-20.308649496335264" lon="118.60706663616969"><ele>10.0</ele><time>2026-04-23T05:34:09.001Z</time></trkpt><trkpt lat="-20.30863230554081" lon="118.6069472177652"><ele>10.0</ele><time>2026-04-23T05:34:10.001Z</time></trkpt><trkpt lat="-20.308616668539862" lon="118.60683505897293"><ele>10.0</ele><time>2026-04-23T05:34:11.001Z</time></trkpt><trkpt lat="-20.30860661244014" lon="118.60673186443798"><ele>10.0</ele><time>2026-04-23T05:34:12.001Z</time></trkpt><trkpt lat="-20.308597434670116" lon="118.60663075265347"><ele>10.166666666666668</ele><time>2026-04-23T05:34:13.001Z</time></trkpt><trkpt lat="-20.308588517624873" lon="118.60653622477672"><ele>10.333333333333334</ele><time>2026-04-23T05:34:14.001Z</time></trkpt><trkpt lat="-20.308583202781964" lon="118.60644478249036"><ele>10.5</ele><time>2026-04-23T05:34:15.001Z</time></trkpt><trkpt lat="-20.308572967045908" lon="118.60637081995323"><ele>10.666666666666666</ele><time>2026-04-23T05:34:16.001Z</time></trkpt><trkpt lat="-20.308561436630256" lon="118.60630266246116"><ele>10.833333333333332</ele><time>2026-04-23T05:34:17.001Z</time></trkpt><trkpt lat="-20.30856051530652" lon="118.6062232003627"><ele>11.0</ele><time>2026-04-23T05:34:18.001Z</time></trkpt><trkpt lat="-20.308565309727896" lon="118.60613439957581"><ele>11.0</ele><time>2026-04-23T05:34:19.001Z</time></trkpt><trkpt lat="-20.308568802348677" lon="118.60604662918323"><ele>11.0</ele><time>2026-04-23T05:34:20.001Z</time></trkpt><trkpt lat="-20.30857233383321" lon="118.60596766506082"><ele>11.0</ele><time>2026-04-23T05:34:21.001Z</time></trkpt><trkpt lat="-20.308572652534064" lon="118.60589603984485"><ele>11.0</ele><time>2026-04-23T05:34:22.001Z</time></trkpt><trkpt lat="-20.308557069022207" lon="118.60582994141181"><ele>11.0</ele><time>2026-04-23T05:34:23.001Z</time></trkpt><trkpt lat="-20.308547610580373" lon="118.60573927914794"><ele>11.0</ele><time>2026-04-23T05:34:25.001Z</time></trkpt><trkpt lat="-20.308412776169877" lon="118.60569152825865"><ele>11.0</ele><time>2026-04-23T05:34:26.001Z</time></trkpt><trkpt lat="-20.308346671731407" lon="118.6056654411735"><ele>11.0</ele><time>2026-04-23T05:34:27.001Z</time></trkpt><trkpt lat="-20.308274225100284" lon="118.60560345746978"><ele>11.0</ele><time>2026-04-23T05:34:29.001Z</time></trkpt><trkpt lat="-20.308238523639876" lon="118.60551509497503"><ele>11.0</ele><time>2026-04-23T05:34:31.001Z</time></trkpt><trkpt lat="-20.30773530436146" lon="118.60529991235454"><ele>2.0</ele><time>2026-04-23T05:37:04.001Z</time></trkpt><trkpt lat="-20.307814560767092" lon="118.60528750222237"><ele>2.0</ele><time>2026-04-23T05:37:39.001Z</time></trkpt><trkpt lat="-20.30788100238209" lon="118.60528456775215"><ele>2.0</ele><time>2026-04-23T05:37:45Z</time></trkpt><trkpt lat="-20.307945211894662" lon="118.60526181353706"><ele>2.0</ele><time>2026-04-23T05:37:50.999Z</time></trkpt><trkpt lat="-20.30800898310823" lon="118.60525043259001"><ele>2.0</ele><time>2026-04-23T05:37:55.999Z</time></trkpt></trkseg><trkseg><trkpt lat="-20.31136444729302" lon="118.60804217601364"><ele>12.2</ele><time>2026-04-23T06:11:51.001Z</time></trkpt><trkpt lat="-20.311451874490842" lon="118.60798290859859"><ele>12.399999999999999</ele><time>2026-04-23T06:14:18.999Z</time></trkpt><trkpt lat="-20.311547192851933" lon="118.60794563264987"><ele>12.600000000000001</ele><time>2026-04-23T06:14:20.999Z</time></trkpt><trkpt lat="-20.311649402463413" lon="118.6079709529404"><ele>12.8</ele><time>2026-04-23T06:14:22.999Z</time></trkpt><trkpt lat="-20.311734692336067" lon="118.60797471102349"><ele>13.0</ele><time>2026-04-23T06:14:24.999Z</time></trkpt><trkpt lat="-20.311806255527724" lon="118.60798486269123"><ele>13.0</ele><time>2026-04-23T06:14:27.999Z</time></trkpt><trkpt lat="-20.311878718868645" lon="118.60795345049806"><ele>13.0</ele><time>2026-04-23T06:14:31.999Z</time></trkpt><trkpt lat="-20.311949191970434" lon="118.60792205472362"><ele>13.0</ele><time>2026-04-23T06:14:34Z</time></trkpt><trkpt lat="-20.311982360592058" lon="118.60783536368771"><ele>13.0</ele><time>2026-04-23T06:14:37Z</time></trkpt><trkpt lat="-20.31204449423852" lon="118.60779579673815"><ele>9.0</ele><time>2026-04-23T06:14:39Z</time></trkpt><trkpt lat="-20.31201830551142" lon="118.60772637326028"><ele>9.0</ele><time>2026-04-23T06:14:42Z</time></trkpt></trkseg><trkseg><trkpt lat="-20.311925857080404" lon="118.60773020265826"><ele>9.0</ele><time>2026-04-23T06:28:43Z</time></trkpt><trkpt lat="-20.311899038877822" lon="118.60779150770338"><ele>9.0</ele><time>2026-04-23T06:28:45Z</time></trkpt><trkpt lat="-20.311873977611597" lon="118.60788052767302"><ele>9.0</ele><time>2026-04-23T06:28:47Z</time></trkpt><trkpt lat="-20.311906912966432" lon="118.60795633199012"><ele>9.0</ele><time>2026-04-23T06:28:49Z</time></trkpt><trkpt lat="-20.311984955351583" lon="118.60802821138401"><ele>9.0</ele><time>2026-04-23T06:28:51Z</time></trkpt><trkpt lat="-20.31208945847459" lon="118.60805891839621"><ele>9.0</ele><time>2026-04-23T06:28:53Z</time></trkpt><trkpt lat="-20.312174064664607" lon="118.6080465368711"><ele>9.0</ele><time>2026-04-23T06:28:55Z</time></trkpt><trkpt lat="-20.31224036978802" lon="118.60805526538425"><ele>9.0</ele><time>2026-04-23T06:28:57Z</time></trkpt><trkpt lat="-20.31230081430809" lon="118.60811219897562"><ele>9.0</ele><time>2026-04-23T06:29:02Z</time></trkpt><trkpt lat="-20.312330650525944" lon="118.60818341150735"><ele>9.0</ele><time>2026-04-23T06:29:03Z</time></trkpt><trkpt lat="-20.31233789098773" lon="118.60827132947324"><ele>9.0</ele><time>2026-04-23T06:29:04Z</time></trkpt><trkpt lat="-20.312345714817027" lon="118.60837493866711"><ele>9.0</ele><time>2026-04-23T06:29:05Z</time></trkpt><trkpt lat="-20.31236136800582" lon="118.60849518172303"><ele>9.0</ele><time>2026-04-23T06:29:06Z</time></trkpt><trkpt lat="-20.312375999972215" lon="118.60862234141685"><ele>9.0</ele><time>2026-04-23T06:29:07Z</time></trkpt><trkpt lat="-20.31240045365075" lon="118.60876123573466"><ele>9.0</ele><time>2026-04-23T06:29:08Z</time></trkpt><trkpt lat="-20.312426589191517" lon="118.60890933416898"><ele>9.0</ele><time>2026-04-23T06:29:09Z</time></trkpt><trkpt lat="-20.312449477803174" lon="118.60906741557861"><ele>8.666666666666666</ele><time>2026-04-23T06:29:10Z</time></trkpt><trkpt lat="-20.3124723968332" lon="118.60923682257994"><ele>8.333333333333332</ele><time>2026-04-23T06:29:11Z</time></trkpt><trkpt lat="-20.31249666967414" lon="118.60941859887183"><ele>8.0</ele><time>2026-04-23T06:29:12Z</time></trkpt><trkpt lat="-20.312524661202154" lon="118.60960765519658"><ele>7.666666666666666</ele><time>2026-04-23T06:29:13Z</time></trkpt><trkpt lat="-20.312559877172376" lon="118.6098221275988"><ele>7.333333333333334</ele><time>2026-04-23T06:29:14Z</time></trkpt><trkpt lat="-20.312600736607582" lon="118.61003838502405"><ele>7.0</ele><time>2026-04-23T06:29:15Z</time></trkpt><trkpt lat="-20.312643844794223" lon="118.61025491881934"><ele>6.333333333333334</ele><time>2026-04-23T06:29:16Z</time></trkpt><trkpt lat="-20.312691982683244" lon="118.61046918222522"><ele>5.666666666666667</ele><time>2026-04-23T06:29:17Z</time></trkpt><trkpt lat="-20.31274244076808" lon="118.61068394164968"><ele>5.0</ele><time>2026-04-23T06:29:18Z</time></trkpt><trkpt lat="-20.312797167812473" lon="118.61090339685184"><ele>5.0</ele><time>2026-04-23T06:29:19Z</time></trkpt><trkpt lat="-20.312855681615673" lon="118.6111295190414"><ele>5.0</ele><time>2026-04-23T06:29:20Z</time></trkpt><trkpt lat="-20.31291134307212" lon="118.61136150033671"><ele>5.0</ele><time>2026-04-23T06:29:21Z</time></trkpt><trkpt lat="-20.31296580650788" lon="118.61158595138482"><ele>6.0</ele><time>2026-04-23T06:29:22Z</time></trkpt><trkpt lat="-20.313020412034437" lon="118.61181036808901"><ele>7.0</ele><time>2026-04-23T06:29:23Z</time></trkpt><trkpt lat="-20.31307590224252" lon="118.61204028790081"><ele>8.0</ele><time>2026-04-23T06:29:24Z</time></trkpt><trkpt lat="-20.313129942953754" lon="118.61227246767268"><ele>8.0</ele><time>2026-04-23T06:29:25Z</time></trkpt><trkpt lat="-20.313186519085505" lon="118.61250528637636"><ele>8.0</ele><time>2026-04-23T06:29:26Z</time></trkpt><trkpt lat="-20.313246242557632" lon="118.61273525146176"><ele>8.0</ele><time>2026-04-23T06:29:27Z</time></trkpt><trkpt lat="-20.313305336708435" lon="118.61296930461474"><ele>9.0</ele><time>2026-04-23T06:29:28Z</time></trkpt><trkpt lat="-20.31336208450914" lon="118.61320788030437"><ele>10.0</ele><time>2026-04-23T06:29:29Z</time></trkpt><trkpt lat="-20.31341897163867" lon="118.61344521047036"><ele>9.5</ele><time>2026-04-23T06:29:30Z</time></trkpt><trkpt lat="-20.313475751630904" lon="118.6136810969399"><ele>9.0</ele><time>2026-04-23T06:29:31Z</time></trkpt><trkpt lat="-20.313536373049672" lon="118.61391948873778"><ele>9.0</ele><time>2026-04-23T06:29:32Z</time></trkpt><trkpt lat="-20.31359698979889" lon="118.61416449589217"><ele>9.0</ele><time>2026-04-23T06:29:33Z</time></trkpt><trkpt lat="-20.3136557141963" lon="118.614408506211"><ele>9.0</ele><time>2026-04-23T06:29:34Z</time></trkpt><trkpt lat="-20.313713454041107" lon="118.61465368801795"><ele>9.0</ele><time>2026-04-23T06:29:35Z</time></trkpt><trkpt lat="-20.313772282214757" lon="118.61490122611748"><ele>9.0</ele><time>2026-04-23T06:29:36Z</time></trkpt><trkpt lat="-20.313833417091367" lon="118.61514846056849"><ele>9.0</ele><time>2026-04-23T06:29:37Z</time></trkpt><trkpt lat="-20.31389584260361" lon="118.61539604630815"><ele>8.5</ele><time>2026-04-23T06:29:38Z</time></trkpt><trkpt lat="-20.31395824181049" lon="118.61564525878013"><ele>8.0</ele><time>2026-04-23T06:29:39Z</time></trkpt><trkpt lat="-20.314004892421547" lon="118.61590451584183"><ele>7.5</ele><time>2026-04-23T06:29:40Z</time></trkpt><trkpt lat="-20.314068832836547" lon="118.61616410480283"><ele>7.0</ele><time>2026-04-23T06:29:41Z</time></trkpt><trkpt lat="-20.314133493521073" lon="118.61642703562443"><ele>7.0</ele><time>2026-04-23T06:29:42Z</time></trkpt><trkpt lat="-20.314197459464662" lon="118.61669023042242"><ele>7.0</ele><time>2026-04-23T06:29:43Z</time></trkpt><trkpt lat="-20.314261037150594" lon="118.6169513336847"><ele>7.5</ele><time>2026-04-23T06:29:44Z</time></trkpt><trkpt lat="-20.314325256371173" lon="118.6172152227263"><ele>8.0</ele><time>2026-04-23T06:29:45Z</time></trkpt><trkpt lat="-20.314390744059626" lon="118.61747654040494"><ele>8.0</ele><time>2026-04-23T06:29:46Z</time></trkpt><trkpt lat="-20.314454368267988" lon="118.61772964221633"><ele>8.0</ele><time>2026-04-23T06:29:47Z</time></trkpt><trkpt lat="-20.314516763837016" lon="118.61797433501755"><ele>7.0</ele><time>2026-04-23T06:29:48Z</time></trkpt><trkpt lat="-20.314595838526355" lon="118.61821760826663"><ele>6.0</ele><time>2026-04-23T06:29:49Z</time></trkpt><trkpt lat="-20.314639574756086" lon="118.61846785703581"><ele>5.5</ele><time>2026-04-23T06:29:50Z</time></trkpt><trkpt lat="-20.314697714951876" lon="118.61871207825645"><ele>5.0</ele><time>2026-04-23T06:29:51Z</time></trkpt><trkpt lat="-20.314756450296976" lon="118.6189577604304"><ele>6.5</ele><time>2026-04-23T06:29:52Z</time></trkpt><trkpt lat="-20.31481509217272" lon="118.61920006190911"><ele>8.0</ele><time>2026-04-23T06:29:53Z</time></trkpt><trkpt lat="-20.314874549610078" lon="118.61944586230462"><ele>8.5</ele><time>2026-04-23T06:29:54Z</time></trkpt><trkpt lat="-20.31493409910725" lon="118.61968876921718"><ele>9.0</ele><time>2026-04-23T06:29:55Z</time></trkpt><trkpt lat="-20.315008278544557" lon="118.6199292339759"><ele>9.0</ele><time>2026-04-23T06:29:56Z</time></trkpt><trkpt lat="-20.315051020509916" lon="118.6201704701704"><ele>9.0</ele><time>2026-04-23T06:29:57Z</time></trkpt><trkpt lat="-20.315105192773782" lon="118.6203921753415"><ele>9.0</ele><time>2026-04-23T06:29:58Z</time></trkpt><trkpt lat="-20.315158992717453" lon="118.62060471408502"><ele>9.0</ele><time>2026-04-23T06:29:59Z</time></trkpt><trkpt lat="-20.315220523113723" lon="118.62079944349556"><ele>9.0</ele><time>2026-04-23T06:30:00Z</time></trkpt><trkpt lat="-20.315266843733326" lon="118.62099262021992"><ele>9.0</ele><time>2026-04-23T06:30:01Z</time></trkpt><trkpt lat="-20.31531519683928" lon="118.62117041987507"><ele>9.0</ele><time>2026-04-23T06:30:02Z</time></trkpt><trkpt lat="-20.315344733625324" lon="118.62135720194964"><ele>9.0</ele><time>2026-04-23T06:30:03Z</time></trkpt><trkpt lat="-20.315404158285183" lon="118.62153451429296"><ele>9.0</ele><time>2026-04-23T06:30:04Z</time></trkpt><trkpt lat="-20.31544997764348" lon="118.62171867893169"><ele>9.0</ele><time>2026-04-23T06:30:05Z</time></trkpt><trkpt lat="-20.315501956584953" lon="118.62190349881384"><ele>9.0</ele><time>2026-04-23T06:30:06Z</time></trkpt><trkpt lat="-20.315561859332863" lon="118.62208954746013"><ele>9.0</ele><time>2026-04-23T06:30:07.001Z</time></trkpt><trkpt lat="-20.31562849488017" lon="118.6222699002375"><ele>8.666666666666666</ele><time>2026-04-23T06:30:08.001Z</time></trkpt><trkpt lat="-20.315695290537928" lon="118.62243876189925"><ele>8.333333333333332</ele><time>2026-04-23T06:30:09.001Z</time></trkpt><trkpt lat="-20.3157687029921" lon="118.6226013316684"><ele>8.0</ele><time>2026-04-23T06:30:10.001Z</time></trkpt><trkpt lat="-20.3158465913965" lon="118.6227631114383"><ele>6.666666666666666</ele><time>2026-04-23T06:30:11.001Z</time></trkpt><trkpt lat="-20.31592770361742" lon="118.62292384695665"><ele>5.333333333333333</ele><time>2026-04-23T06:30:12.001Z</time></trkpt><trkpt lat="-20.316014916803994" lon="118.62308790205581"><ele>4.0</ele><time>2026-04-23T06:30:13.001Z</time></trkpt><trkpt lat="-20.31610663511389" lon="118.62325268514492"><ele>4.0</ele><time>2026-04-23T06:30:14.001Z</time></trkpt><trkpt lat="-20.316202792716545" lon="118.62342906598607"><ele>4.0</ele><time>2026-04-23T06:30:15.001Z</time></trkpt><trkpt lat="-20.316296996714048" lon="118.62360644965166"><ele>4.0</ele><time>2026-04-23T06:30:16.001Z</time></trkpt><trkpt lat="-20.31639207918208" lon="118.62379044484487"><ele>5.0</ele><time>2026-04-23T06:30:17.001Z</time></trkpt><trkpt lat="-20.316491124714442" lon="118.62397098873875"><ele>6.0</ele><time>2026-04-23T06:30:18.001Z</time></trkpt><trkpt lat="-20.316595874947026" lon="118.62415917754122"><ele>7.0</ele><time>2026-04-23T06:30:19.001Z</time></trkpt><trkpt lat="-20.316698172845594" lon="118.62435210000703"><ele>6.333333333333334</ele><time>2026-04-23T06:30:20.001Z</time></trkpt><trkpt lat="-20.316798835944716" lon="118.62454451807298"><ele>5.666666666666667</ele><time>2026-04-23T06:30:21.001Z</time></trkpt><trkpt lat="-20.316895245120893" lon="118.62472796975827"><ele>5.0</ele><time>2026-04-23T06:30:22.001Z</time></trkpt><trkpt lat="-20.31699131716881" lon="118.62491185588203"><ele>5.0</ele><time>2026-04-23T06:30:23.001Z</time></trkpt><trkpt lat="-20.31709237632156" lon="118.62509394294499"><ele>5.0</ele><time>2026-04-23T06:30:24.001Z</time></trkpt><trkpt lat="-20.31719568282306" lon="118.62528110372584"><ele>5.0</ele><time>2026-04-23T06:30:25.001Z</time></trkpt><trkpt lat="-20.317298651655577" lon="118.62546776058626"><ele>6.0</ele><time>2026-04-23T06:30:26.001Z</time></trkpt><trkpt lat="-20.317405434125646" lon="118.62565791044045"><ele>7.0</ele><time>2026-04-23T06:30:27.001Z</time></trkpt><trkpt lat="-20.31751483930927" lon="118.62585604491213"><ele>8.0</ele><time>2026-04-23T06:30:28.001Z</time></trkpt><trkpt lat="-20.317623078020777" lon="118.62605847522431"><ele>8.5</ele><time>2026-04-23T06:30:29.001Z</time></trkpt><trkpt lat="-20.31773179537663" lon="118.62626386773695"><ele>9.0</ele><time>2026-04-23T06:30:29.999Z</time></trkpt><trkpt lat="-20.317846894567385" lon="118.62647894393615"><ele>9.0</ele><time>2026-04-23T06:30:30.999Z</time></trkpt><trkpt lat="-20.317963841833723" lon="118.62669938429995"><ele>9.0</ele><time>2026-04-23T06:30:31.999Z</time></trkpt><trkpt lat="-20.31808638355816" lon="118.62692429060367"><ele>8.0</ele><time>2026-04-23T06:30:32.999Z</time></trkpt><trkpt lat="-20.318205842132965" lon="118.62714619010161"><ele>7.0</ele><time>2026-04-23T06:30:33.999Z</time></trkpt><trkpt lat="-20.318318019786037" lon="118.62736011942117"><ele>7.0</ele><time>2026-04-23T06:30:34.999Z</time></trkpt><trkpt lat="-20.318428867077152" lon="118.6275701554163"><ele>7.0</ele><time>2026-04-23T06:30:35.999Z</time></trkpt><trkpt lat="-20.31854303790164" lon="118.6277863716256"><ele>7.0</ele><time>2026-04-23T06:30:36.999Z</time></trkpt><trkpt lat="-20.31865777758206" lon="118.6280026047874"><ele>7.0</ele><time>2026-04-23T06:30:37.999Z</time></trkpt><trkpt lat="-20.318773883172316" lon="118.62821908726204"><ele>7.0</ele><time>2026-04-23T06:30:38.999Z</time></trkpt><trkpt lat="-20.31889078078738" lon="118.62843099961324"><ele>7.0</ele><time>2026-04-23T06:30:39.999Z</time></trkpt><trkpt lat="-20.31900827109245" lon="118.62864079236316"><ele>5.666666666666667</ele><time>2026-04-23T06:30:40.999Z</time></trkpt><trkpt lat="-20.319121246491505" lon="118.62884428370452"><ele>4.333333333333334</ele><time>2026-04-23T06:30:41.999Z</time></trkpt><trkpt lat="-20.319230249995435" lon="118.62903680186446"><ele>3.0</ele><time>2026-04-23T06:30:42.999Z</time></trkpt><trkpt lat="-20.319347618463432" lon="118.62921477174248"><ele>3.0</ele><time>2026-04-23T06:30:43.999Z</time></trkpt><trkpt lat="-20.319482216072554" lon="118.62939218562614"><ele>3.0</ele><time>2026-04-23T06:30:44.999Z</time></trkpt><trkpt lat="-20.319618769893943" lon="118.62957820072532"><ele>3.0</ele><time>2026-04-23T06:30:45.999Z</time></trkpt><trkpt lat="-20.31976100996879" lon="118.62976198289701"><ele>4.333333333333334</ele><time>2026-04-23T06:30:46.999Z</time></trkpt><trkpt lat="-20.319910905427147" lon="118.6299441394503"><ele>5.666666666666667</ele><time>2026-04-23T06:30:47.999Z</time></trkpt><trkpt lat="-20.320065281604524" lon="118.63011333871573"><ele>7.0</ele><time>2026-04-23T06:30:48.999Z</time></trkpt><trkpt lat="-20.320224164374054" lon="118.63027912067433"><ele>7.0</ele><time>2026-04-23T06:30:49.999Z</time></trkpt><trkpt lat="-20.320379507145216" lon="118.63043958330175"><ele>7.0</ele><time>2026-04-23T06:30:50.999Z</time></trkpt><trkpt lat="-20.32053007035506" lon="118.6305930427979"><ele>7.0</ele><time>2026-04-23T06:30:51.999Z</time></trkpt><trkpt lat="-20.32067269762415" lon="118.63074040424203"><ele>7.0</ele><time>2026-04-23T06:30:52.999Z</time></trkpt><trkpt lat="-20.320812751665958" lon="118.63088970104764"><ele>7.0</ele><time>2026-04-23T06:30:53.999Z</time></trkpt><trkpt lat="-20.320958651488397" lon="118.63104250896772"><ele>7.0</ele><time>2026-04-23T06:30:55Z</time></trkpt><trkpt lat="-20.321107525221574" lon="118.6311998967505"><ele>7.333333333333334</ele><time>2026-04-23T06:30:56Z</time></trkpt><trkpt lat="-20.32125771743763" lon="118.63135551693571"><ele>7.666666666666666</ele><time>2026-04-23T06:30:57Z</time></trkpt><trkpt lat="-20.321402432470702" lon="118.63150630224608"><ele>8.0</ele><time>2026-04-23T06:30:58Z</time></trkpt><trkpt lat="-20.32154287790491" lon="118.63165288106025"><ele>8.0</ele><time>2026-04-23T06:30:59Z</time></trkpt><trkpt lat="-20.321681085283227" lon="118.63179466116291"><ele>8.0</ele><time>2026-04-23T06:31:00Z</time></trkpt><trkpt lat="-20.321818734249828" lon="118.6319368821607"><ele>8.0</ele><time>2026-04-23T06:31:01Z</time></trkpt><trkpt lat="-20.32195416137752" lon="118.6320790625189"><ele>8.0</ele><time>2026-04-23T06:31:02Z</time></trkpt><trkpt lat="-20.322090106876697" lon="118.63222395063984"><ele>8.0</ele><time>2026-04-23T06:31:03Z</time></trkpt><trkpt lat="-20.322223050190047" lon="118.63236865138137"><ele>8.0</ele><time>2026-04-23T06:31:04Z</time></trkpt><trkpt lat="-20.322355933849046" lon="118.63251233012008"><ele>8.333333333333332</ele><time>2026-04-23T06:31:05Z</time></trkpt><trkpt lat="-20.322488603386613" lon="118.6326541012979"><ele>8.666666666666666</ele><time>2026-04-23T06:31:06Z</time></trkpt><trkpt lat="-20.322624301455715" lon="118.63279496566622"><ele>9.0</ele><time>2026-04-23T06:31:07Z</time></trkpt><trkpt lat="-20.322761079109323" lon="118.63293840591444"><ele>9.0</ele><time>2026-04-23T06:31:08Z</time></trkpt><trkpt lat="-20.322898193025882" lon="118.63308264931005"><ele>9.0</ele><time>2026-04-23T06:31:09Z</time></trkpt><trkpt lat="-20.32302816089633" lon="118.6332228004508"><ele>9.0</ele><time>2026-04-23T06:31:10Z</time></trkpt><trkpt lat="-20.323154220952347" lon="118.63336041825819"><ele>9.0</ele><time>2026-04-23T06:31:11Z</time></trkpt><trkpt lat="-20.323279640011695" lon="118.63349368708725"><ele>9.0</ele><time>2026-04-23T06:31:12Z</time></trkpt><trkpt lat="-20.323409543494286" lon="118.6336293577327"><ele>9.0</ele><time>2026-04-23T06:31:13Z</time></trkpt><trkpt lat="-20.3235382836392" lon="118.6337647108454"><ele>8.666666666666666</ele><time>2026-04-23T06:31:14Z</time></trkpt><trkpt lat="-20.323668444143337" lon="118.63390226978865"><ele>8.333333333333332</ele><time>2026-04-23T06:31:15Z</time></trkpt><trkpt lat="-20.323800717918125" lon="118.63404503233447"><ele>8.0</ele><time>2026-04-23T06:31:16Z</time></trkpt><trkpt lat="-20.32393344843124" lon="118.63418897921187"><ele>8.0</ele><time>2026-04-23T06:31:17Z</time></trkpt><trkpt lat="-20.32406849147352" lon="118.63433614017971"><ele>8.0</ele><time>2026-04-23T06:31:18Z</time></trkpt><trkpt lat="-20.32420876926086" lon="118.63448719894193"><ele>8.0</ele><time>2026-04-23T06:31:19Z</time></trkpt><trkpt lat="-20.32435162325244" lon="118.63463591356256"><ele>7.666666666666666</ele><time>2026-04-23T06:31:20Z</time></trkpt><trkpt lat="-20.32449399974294" lon="118.63478377235563"><ele>7.333333333333334</ele><time>2026-04-23T06:31:21Z</time></trkpt><trkpt lat="-20.324637029676072" lon="118.63492974953078"><ele>7.0</ele><time>2026-04-23T06:31:22Z</time></trkpt><trkpt lat="-20.324774360971677" lon="118.63507296366207"><ele>7.333333333333334</ele><time>2026-04-23T06:31:23Z</time></trkpt><trkpt lat="-20.32491386579274" lon="118.63521539908841"><ele>7.666666666666666</ele><time>2026-04-23T06:31:24Z</time></trkpt><trkpt lat="-20.325064814580884" lon="118.6353544247329"><ele>8.0</ele><time>2026-04-23T06:31:25Z</time></trkpt><trkpt lat="-20.32523124830466" lon="118.63549357049003"><ele>8.0</ele><time>2026-04-23T06:31:26Z</time></trkpt><trkpt lat="-20.325404070060436" lon="118.63562883613082"><ele>8.0</ele><time>2026-04-23T06:31:27Z</time></trkpt><trkpt lat="-20.325581820125084" lon="118.63575026666919"><ele>8.0</ele><time>2026-04-23T06:31:28Z</time></trkpt><trkpt lat="-20.325754676201974" lon="118.63585373315604"><ele>8.0</ele><time>2026-04-23T06:31:29Z</time></trkpt><trkpt lat="-20.325933511175354" lon="118.63595279629962"><ele>8.0</ele><time>2026-04-23T06:31:30Z</time></trkpt><trkpt lat="-20.326117414308918" lon="118.63603835041222"><ele>8.0</ele><time>2026-04-23T06:31:31Z</time></trkpt><trkpt lat="-20.326307499039064" lon="118.63612056466319"><ele>8.0</ele><time>2026-04-23T06:31:32Z</time></trkpt><trkpt lat="-20.326498618031717" lon="118.63619781877372"><ele>8.0</ele><time>2026-04-23T06:31:33Z</time></trkpt><trkpt lat="-20.326691799298878" lon="118.6362688161993"><ele>8.0</ele><time>2026-04-23T06:31:34Z</time></trkpt><trkpt lat="-20.3268810506501" lon="118.63633191294568"><ele>8.0</ele><time>2026-04-23T06:31:35Z</time></trkpt><trkpt lat="-20.327066935823975" lon="118.63639604663224"><ele>8.0</ele><time>2026-04-23T06:31:36Z</time></trkpt><trkpt lat="-20.32725195478419" lon="118.63646620800043"><ele>8.0</ele><time>2026-04-23T06:31:37Z</time></trkpt><trkpt lat="-20.32743213253703" lon="118.63653597228695"><ele>7.666666666666666</ele><time>2026-04-23T06:31:38Z</time></trkpt><trkpt lat="-20.327611916707827" lon="118.63660534843987"><ele>7.333333333333334</ele><time>2026-04-23T06:31:39Z</time></trkpt><trkpt lat="-20.327788370588422" lon="118.63667292677047"><ele>7.0</ele><time>2026-04-23T06:31:40Z</time></trkpt><trkpt lat="-20.3279646858402" lon="118.63674006132759"><ele>7.333333333333334</ele><time>2026-04-23T06:31:41Z</time></trkpt><trkpt lat="-20.3281425664226" lon="118.63680881029244"><ele>7.666666666666666</ele><time>2026-04-23T06:31:42Z</time></trkpt><trkpt lat="-20.32831998842915" lon="118.63687562768143"><ele>8.0</ele><time>2026-04-23T06:31:43Z</time></trkpt><trkpt lat="-20.328498859537383" lon="118.63694213192701"><ele>7.666666666666666</ele><time>2026-04-23T06:31:44Z</time></trkpt><trkpt lat="-20.328683420649195" lon="118.63700737503986"><ele>7.333333333333334</ele><time>2026-04-23T06:31:45Z</time></trkpt><trkpt lat="-20.32886838730477" lon="118.63707001013688"><ele>7.0</ele><time>2026-04-23T06:31:46Z</time></trkpt><trkpt lat="-20.32905505785576" lon="118.63713336475259"><ele>7.0</ele><time>2026-04-23T06:31:47Z</time></trkpt><trkpt lat="-20.32923899249279" lon="118.63717102747235"><ele>7.0</ele><time>2026-04-23T06:31:48Z</time></trkpt><trkpt lat="-20.32941431601044" lon="118.63721082235917"><ele>7.0</ele><time>2026-04-23T06:31:49Z</time></trkpt><trkpt lat="-20.329590428851027" lon="118.63723930677004"><ele>6.333333333333334</ele><time>2026-04-23T06:31:50Z</time></trkpt><trkpt lat="-20.32977263291313" lon="118.63725626748091"><ele>5.666666666666667</ele><time>2026-04-23T06:31:51Z</time></trkpt><trkpt lat="-20.32995139238905" lon="118.63726183086021"><ele>5.0</ele><time>2026-04-23T06:31:52Z</time></trkpt><trkpt lat="-20.33012848543009" lon="118.63726367094732"><ele>5.0</ele><time>2026-04-23T06:31:53Z</time></trkpt><trkpt lat="-20.330305671254422" lon="118.63725802493386"><ele>5.0</ele><time>2026-04-23T06:31:54Z</time></trkpt><trkpt lat="-20.33048896671175" lon="118.63724380752959"><ele>5.0</ele><time>2026-04-23T06:31:55Z</time></trkpt><trkpt lat="-20.330672114741297" lon="118.63721775033837"><ele>6.333333333333334</ele><time>2026-04-23T06:31:56Z</time></trkpt><trkpt lat="-20.330862246075572" lon="118.63718233404092"><ele>7.666666666666667</ele><time>2026-04-23T06:31:57Z</time></trkpt><trkpt lat="-20.331058797491167" lon="118.63713830971737"><ele>9.0</ele><time>2026-04-23T06:31:58Z</time></trkpt><trkpt lat="-20.331260207203155" lon="118.63708218334125"><ele>9.0</ele><time>2026-04-23T06:31:59Z</time></trkpt><trkpt lat="-20.331460752356563" lon="118.63701539881184"><ele>9.0</ele><time>2026-04-23T06:32:00Z</time></trkpt><trkpt lat="-20.331657039625963" lon="118.63693205752513"><ele>9.0</ele><time>2026-04-23T06:32:01Z</time></trkpt><trkpt lat="-20.331859355377556" lon="118.63683992957593"><ele>9.333333333333334</ele><time>2026-04-23T06:32:02Z</time></trkpt><trkpt lat="-20.332058399941754" lon="118.63674566736826"><ele>9.666666666666668</ele><time>2026-04-23T06:32:03Z</time></trkpt><trkpt lat="-20.3322577267012" lon="118.63665136538354"><ele>10.0</ele><time>2026-04-23T06:32:04Z</time></trkpt><trkpt lat="-20.33246654930359" lon="118.6365675863457"><ele>10.0</ele><time>2026-04-23T06:32:05Z</time></trkpt><trkpt lat="-20.332671603306736" lon="118.63646538150277"><ele>10.0</ele><time>2026-04-23T06:32:06Z</time></trkpt><trkpt lat="-20.332883437145274" lon="118.63636663208472"><ele>10.5</ele><time>2026-04-23T06:32:07Z</time></trkpt><trkpt lat="-20.33309575545147" lon="118.63627315937859"><ele>11.0</ele><time>2026-04-23T06:32:08Z</time></trkpt><trkpt lat="-20.3333025990559" lon="118.63618185324933"><ele>10.666666666666666</ele><time>2026-04-23T06:32:09Z</time></trkpt><trkpt lat="-20.33350590918959" lon="118.6360928210487"><ele>10.333333333333334</ele><time>2026-04-23T06:32:10Z</time></trkpt><trkpt lat="-20.33370536342399" lon="118.63600447387718"><ele>10.0</ele><time>2026-04-23T06:32:11Z</time></trkpt><trkpt lat="-20.333901631273683" lon="118.63591605266163"><ele>10.0</ele><time>2026-04-23T06:32:12Z</time></trkpt><trkpt lat="-20.334086303602408" lon="118.63583054681004"><ele>10.0</ele><time>2026-04-23T06:32:13Z</time></trkpt><trkpt lat="-20.334270816463885" lon="118.63574570029668"><ele>10.0</ele><time>2026-04-23T06:32:14Z</time></trkpt><trkpt lat="-20.334451194816182" lon="118.63566399221291"><ele>10.0</ele><time>2026-04-23T06:32:15Z</time></trkpt><trkpt lat="-20.334635028292173" lon="118.63558287769047"><ele>10.0</ele><time>2026-04-23T06:32:16Z</time></trkpt><trkpt lat="-20.334811442589675" lon="118.63548390820459"><ele>10.0</ele><time>2026-04-23T06:32:17Z</time></trkpt><trkpt lat="-20.33498923319756" lon="118.63540476130702"><ele>10.333333333333334</ele><time>2026-04-23T06:32:18Z</time></trkpt><trkpt lat="-20.33517637183061" lon="118.63534275157541"><ele>10.666666666666666</ele><time>2026-04-23T06:32:19Z</time></trkpt><trkpt lat="-20.335348224648033" lon="118.63526565891657"><ele>11.0</ele><time>2026-04-23T06:32:20Z</time></trkpt><trkpt lat="-20.335523103151253" lon="118.63518689147054"><ele>10.0</ele><time>2026-04-23T06:32:21Z</time></trkpt><trkpt lat="-20.335867595698772" lon="118.63503938117955"><ele>9.0</ele><time>2026-04-23T06:32:23Z</time></trkpt><trkpt lat="-20.336032456758172" lon="118.63494880380189"><ele>9.0</ele><time>2026-04-23T06:32:24Z</time></trkpt><trkpt lat="-20.336201316688385" lon="118.63487264066463"><ele>9.0</ele><time>2026-04-23T06:32:25Z</time></trkpt><trkpt lat="-20.336375315282243" lon="118.63479415795607"><ele>9.0</ele><time>2026-04-23T06:32:26Z</time></trkpt><trkpt lat="-20.336548120074955" lon="118.63471624036337"><ele>7.666666666666667</ele><time>2026-04-23T06:32:27Z</time></trkpt><trkpt lat="-20.336723073672456" lon="118.63463750531132"><ele>6.333333333333334</ele><time>2026-04-23T06:32:28Z</time></trkpt><trkpt lat="-20.336895814374955" lon="118.63455906494568"><ele>5.0</ele><time>2026-04-23T06:32:29Z</time></trkpt><trkpt lat="-20.33706743922035" lon="118.63448059717577"><ele>5.0</ele><time>2026-04-23T06:32:30Z</time></trkpt><trkpt lat="-20.337241138661238" lon="118.63440118092153"><ele>5.0</ele><time>2026-04-23T06:32:31Z</time></trkpt><trkpt lat="-20.337411820051965" lon="118.63432314450638"><ele>5.0</ele><time>2026-04-23T06:32:32Z</time></trkpt><trkpt lat="-20.337581745183247" lon="118.63424755128867"><ele>5.0</ele><time>2026-04-23T06:32:33Z</time></trkpt><trkpt lat="-20.337740400647423" lon="118.63417836505576"><ele>5.0</ele><time>2026-04-23T06:32:34Z</time></trkpt><trkpt lat="-20.33789098884095" lon="118.63411520479505"><ele>5.0</ele><time>2026-04-23T06:32:35Z</time></trkpt><trkpt lat="-20.33802366556532" lon="118.63405991366061"><ele>4.8</ele><time>2026-04-23T06:32:35.999Z</time></trkpt><trkpt lat="-20.338137117342132" lon="118.63401638209537"><ele>4.6</ele><time>2026-04-23T06:32:36.999Z</time></trkpt><trkpt lat="-20.33823828788278" lon="118.6339797097659"><ele>4.4</ele><time>2026-04-23T06:32:37.999Z</time></trkpt><trkpt lat="-20.33833105287946" lon="118.63395052448942"><ele>4.2</ele><time>2026-04-23T06:32:38.999Z</time></trkpt><trkpt lat="-20.33841076700163" lon="118.63392722404377"><ele>4.0</ele><time>2026-04-23T06:32:39.999Z</time></trkpt><trkpt lat="-20.33848129845373" lon="118.63390815651745"><ele>4.0</ele><time>2026-04-23T06:32:40.999Z</time></trkpt><trkpt lat="-20.33859278261765" lon="118.6338798001541"><ele>4.0</ele><time>2026-04-23T06:32:42.999Z</time></trkpt><trkpt lat="-20.338683174812175" lon="118.63385796499126"><ele>4.0</ele><time>2026-04-23T06:32:44.999Z</time></trkpt><trkpt lat="-20.338795567093698" lon="118.63396769347275"><ele>4.0</ele><time>2026-04-23T06:32:46.999Z</time></trkpt><trkpt lat="-20.33885081873509" lon="118.63401876821246"><ele>4.0</ele><time>2026-04-23T06:32:48.999Z</time></trkpt><trkpt lat="-20.338887527774276" lon="118.63407530908921"><ele>4.6</ele><time>2026-04-23T06:32:50.999Z</time></trkpt><trkpt lat="-20.338940320318752" lon="118.63412156544706"><ele>5.2</ele><time>2026-04-23T06:32:52.999Z</time></trkpt><trkpt lat="-20.33897684054236" lon="118.63418492917204"><ele>5.799999999999999</ele><time>2026-04-23T06:32:55.999Z</time></trkpt><trkpt lat="-20.338952009046576" lon="118.63411812133141"><ele>6.3999999999999995</ele><time>2026-04-23T06:33:02Z</time></trkpt><trkpt lat="-20.339002370158333" lon="118.63391076440038"><ele>7.0</ele><time>2026-04-23T06:33:03Z</time></trkpt><trkpt lat="-20.339047023282912" lon="118.63379874661598"><ele>7.0</ele><time>2026-04-23T06:33:06Z</time></trkpt><trkpt lat="-20.339099882887936" lon="118.6337463768091"><ele>6.999999999999999</ele><time>2026-04-23T06:33:07Z</time></trkpt><trkpt lat="-20.339177608745683" lon="118.63371954092574"><ele>6.999999999999999</ele><time>2026-04-23T06:33:08Z</time></trkpt><trkpt lat="-20.33928190956187" lon="118.63370713237262"><ele>7.0</ele><time>2026-04-23T06:33:09Z</time></trkpt><trkpt lat="-20.339416216076675" lon="118.63380526415487"><ele>7.0</ele><time>2026-04-23T06:33:10Z</time></trkpt><trkpt lat="-20.339534355870015" lon="118.63378598610818"><ele>7.0</ele><time>2026-04-23T06:33:11Z</time></trkpt><trkpt lat="-20.339664190560352" lon="118.63376449360065"><ele>7.0</ele><time>2026-04-23T06:33:12Z</time></trkpt><trkpt lat="-20.3398034538974" lon="118.63373820573085"><ele>7.0</ele><time>2026-04-23T06:33:13Z</time></trkpt><trkpt lat="-20.339947476694846" lon="118.6337064127809"><ele>7.0</ele><time>2026-04-23T06:33:14Z</time></trkpt><trkpt lat="-20.34010319068118" lon="118.63367059337476"><ele>7.0</ele><time>2026-04-23T06:33:15Z</time></trkpt><trkpt lat="-20.340259501729225" lon="118.63362904970889"><ele>7.0</ele><time>2026-04-23T06:33:16Z</time></trkpt><trkpt lat="-20.34042101641585" lon="118.63358116445399"><ele>7.0</ele><time>2026-04-23T06:33:17Z</time></trkpt><trkpt lat="-20.34058136701416" lon="118.63353036450847"><ele>7.0</ele><time>2026-04-23T06:33:18Z</time></trkpt><trkpt lat="-20.340754237487985" lon="118.6334731390001"><ele>7.0</ele><time>2026-04-23T06:33:19Z</time></trkpt><trkpt lat="-20.340928478799697" lon="118.6334083405757"><ele>7.0</ele><time>2026-04-23T06:33:20Z</time></trkpt><trkpt lat="-20.341102388250945" lon="118.63333343890626"><ele>7.0</ele><time>2026-04-23T06:33:21Z</time></trkpt><trkpt lat="-20.341284911498725" lon="118.63324211439475"><ele>7.0</ele><time>2026-04-23T06:33:22Z</time></trkpt><trkpt lat="-20.341462861234497" lon="118.63314643007632"><ele>7.0</ele><time>2026-04-23T06:33:23Z</time></trkpt><trkpt lat="-20.341642834682776" lon="118.63304533961394"><ele>8.0</ele><time>2026-04-23T06:33:24Z</time></trkpt><trkpt lat="-20.34182122601846" lon="118.63294304427929"><ele>9.0</ele><time>2026-04-23T06:33:25Z</time></trkpt><trkpt lat="-20.341999123729746" lon="118.63284010184901"><ele>10.0</ele><time>2026-04-23T06:33:26Z</time></trkpt><trkpt lat="-20.34217564895839" lon="118.63274335650384"><ele>11.0</ele><time>2026-04-23T06:33:27Z</time></trkpt><trkpt lat="-20.34236909424273" lon="118.63263723386014"><ele>12.0</ele><time>2026-04-23T06:33:28Z</time></trkpt><trkpt lat="-20.342569050007572" lon="118.63252517579672"><ele>13.0</ele><time>2026-04-23T06:33:29Z</time></trkpt><trkpt lat="-20.342822117733164" lon="118.63231903583741"><ele>13.0</ele><time>2026-04-23T06:33:30Z</time></trkpt><trkpt lat="-20.342971050946634" lon="118.63215036358143"><ele>13.0</ele><time>2026-04-23T06:33:31Z</time></trkpt><trkpt lat="-20.343115913466708" lon="118.63198630151572"><ele>13.0</ele><time>2026-04-23T06:33:32Z</time></trkpt><trkpt lat="-20.343181945872306" lon="118.631726136572"><ele>12.0</ele><time>2026-04-23T06:33:33Z</time></trkpt><trkpt lat="-20.343375670500485" lon="118.63159809590894"><ele>11.0</ele><time>2026-04-23T06:33:34Z</time></trkpt><trkpt lat="-20.343578130206865" lon="118.63147213997664"><ele>11.0</ele><time>2026-04-23T06:33:35Z</time></trkpt><trkpt lat="-20.34378494698035" lon="118.63134821969327"><ele>11.0</ele><time>2026-04-23T06:33:36Z</time></trkpt><trkpt lat="-20.343989005633713" lon="118.6312304949555"><ele>10.5</ele><time>2026-04-23T06:33:37Z</time></trkpt><trkpt lat="-20.344201263432016" lon="118.63110983107441"><ele>10.0</ele><time>2026-04-23T06:33:38Z</time></trkpt><trkpt lat="-20.344407589720642" lon="118.63099078222824"><ele>10.0</ele><time>2026-04-23T06:33:39Z</time></trkpt><trkpt lat="-20.344620165703823" lon="118.63087307032559"><ele>10.0</ele><time>2026-04-23T06:33:40Z</time></trkpt><trkpt lat="-20.344835890822342" lon="118.63076108418787"><ele>9.5</ele><time>2026-04-23T06:33:41Z</time></trkpt><trkpt lat="-20.345053011612386" lon="118.63065064490667"><ele>9.0</ele><time>2026-04-23T06:33:42Z</time></trkpt><trkpt lat="-20.345273398024254" lon="118.63054172100107"><ele>9.0</ele><time>2026-04-23T06:33:43Z</time></trkpt><trkpt lat="-20.345492924259283" lon="118.63043342209662"><ele>9.0</ele><time>2026-04-23T06:33:44Z</time></trkpt><trkpt lat="-20.345714912046457" lon="118.6303257987452"><ele>9.5</ele><time>2026-04-23T06:33:45Z</time></trkpt><trkpt lat="-20.345941464228506" lon="118.63022541294828"><ele>10.0</ele><time>2026-04-23T06:33:46Z</time></trkpt><trkpt lat="-20.346165501170944" lon="118.63012800402744"><ele>8.5</ele><time>2026-04-23T06:33:47Z</time></trkpt><trkpt lat="-20.346391838165058" lon="118.63003272064554"><ele>7.0</ele><time>2026-04-23T06:33:48Z</time></trkpt><trkpt lat="-20.346620668785715" lon="118.62993729218631"><ele>7.0</ele><time>2026-04-23T06:33:49Z</time></trkpt><trkpt lat="-20.346844548063654" lon="118.62983740106947"><ele>7.0</ele><time>2026-04-23T06:33:50Z</time></trkpt><trkpt lat="-20.34706935885855" lon="118.62973256671121"><ele>7.0</ele><time>2026-04-23T06:33:51Z</time></trkpt><trkpt lat="-20.347288015438338" lon="118.6296297994936"><ele>7.0</ele><time>2026-04-23T06:33:52Z</time></trkpt><trkpt lat="-20.347494547224656" lon="118.62952985399434"><ele>7.333333333333334</ele><time>2026-04-23T06:33:53Z</time></trkpt><trkpt lat="-20.347699585170428" lon="118.62943099048069"><ele>7.666666666666666</ele><time>2026-04-23T06:33:54Z</time></trkpt><trkpt lat="-20.34790403009755" lon="118.6293359643091"><ele>8.0</ele><time>2026-04-23T06:33:55Z</time></trkpt><trkpt lat="-20.348106897271105" lon="118.62924595600082"><ele>7.333333333333333</ele><time>2026-04-23T06:33:56Z</time></trkpt><trkpt lat="-20.34830842720106" lon="118.62915931777012"><ele>6.666666666666666</ele><time>2026-04-23T06:33:57Z</time></trkpt><trkpt lat="-20.348505327046244" lon="118.62907519969956"><ele>6.0</ele><time>2026-04-23T06:33:58Z</time></trkpt><trkpt lat="-20.348698414196463" lon="118.62898856339437"><ele>5.666666666666667</ele><time>2026-04-23T06:33:59Z</time></trkpt><trkpt lat="-20.34888909870739" lon="118.62890013471133"><ele>5.333333333333334</ele><time>2026-04-23T06:34:00Z</time></trkpt><trkpt lat="-20.349077793802863" lon="118.62881248096828"><ele>5.0</ele><time>2026-04-23T06:34:01Z</time></trkpt><trkpt lat="-20.349272635530557" lon="118.62872212966857"><ele>5.0</ele><time>2026-04-23T06:34:02Z</time></trkpt><trkpt lat="-20.34947299333129" lon="118.62863224715083"><ele>5.0</ele><time>2026-04-23T06:34:03Z</time></trkpt><trkpt lat="-20.349662413888627" lon="118.62854448406279"><ele>5.0</ele><time>2026-04-23T06:34:04Z</time></trkpt><trkpt lat="-20.349846911743004" lon="118.62846295598729"><ele>5.0</ele><time>2026-04-23T06:34:05Z</time></trkpt><trkpt lat="-20.35002695749906" lon="118.62838297712334"><ele>5.0</ele><time>2026-04-23T06:34:06Z</time></trkpt><trkpt lat="-20.350214135200485" lon="118.62829620756023"><ele>5.0</ele><time>2026-04-23T06:34:07Z</time></trkpt><trkpt lat="-20.35039992386759" lon="118.6282118193833"><ele>6.5</ele><time>2026-04-23T06:34:08Z</time></trkpt><trkpt lat="-20.350587313355103" lon="118.62812462802142"><ele>8.0</ele><time>2026-04-23T06:34:09Z</time></trkpt><trkpt lat="-20.350957287074117" lon="118.62793809984363"><ele>8.0</ele><time>2026-04-23T06:34:11Z</time></trkpt><trkpt lat="-20.351138393831366" lon="118.62783799093725"><ele>8.0</ele><time>2026-04-23T06:34:12Z</time></trkpt><trkpt lat="-20.351312170382556" lon="118.62774010981111"><ele>8.0</ele><time>2026-04-23T06:34:13Z</time></trkpt><trkpt lat="-20.351470916416986" lon="118.62761115096319"><ele>7.0</ele><time>2026-04-23T06:34:14Z</time></trkpt><trkpt lat="-20.351642273815173" lon="118.62751386429716"><ele>6.0</ele><time>2026-04-23T06:34:15Z</time></trkpt><trkpt lat="-20.35180892162942" lon="118.62741322360344"><ele>5.0</ele><time>2026-04-23T06:34:16Z</time></trkpt><trkpt lat="-20.351968330194854" lon="118.62730796815113"><ele>5.0</ele><time>2026-04-23T06:34:17Z</time></trkpt><trkpt lat="-20.352131135697668" lon="118.6271953674319"><ele>5.0</ele><time>2026-04-23T06:34:18Z</time></trkpt><trkpt lat="-20.35230008905601" lon="118.62707603609782"><ele>5.0</ele><time>2026-04-23T06:34:19Z</time></trkpt><trkpt lat="-20.352468090676627" lon="118.62695635325385"><ele>6.333333333333334</ele><time>2026-04-23T06:34:20Z</time></trkpt><trkpt lat="-20.352637708979298" lon="118.62682527060501"><ele>7.666666666666667</ele><time>2026-04-23T06:34:21Z</time></trkpt><trkpt lat="-20.352808126890892" lon="118.62669125846189"><ele>9.0</ele><time>2026-04-23T06:34:22Z</time></trkpt><trkpt lat="-20.352980540124815" lon="118.6265510777124"><ele>9.0</ele><time>2026-04-23T06:34:23Z</time></trkpt><trkpt lat="-20.35315112527705" lon="118.62640443658802"><ele>9.0</ele><time>2026-04-23T06:34:24Z</time></trkpt><trkpt lat="-20.353324989686772" lon="118.62625189348297"><ele>9.0</ele><time>2026-04-23T06:34:25Z</time></trkpt><trkpt lat="-20.353501724095345" lon="118.62609209557753"><ele>9.0</ele><time>2026-04-23T06:34:26Z</time></trkpt><trkpt lat="-20.353682526895746" lon="118.62592052440695"><ele>9.0</ele><time>2026-04-23T06:34:27Z</time></trkpt><trkpt lat="-20.35386545053657" lon="118.62574506681153"><ele>8.0</ele><time>2026-04-23T06:34:28Z</time></trkpt><trkpt lat="-20.35404728079426" lon="118.62557065789252"><ele>7.0</ele><time>2026-04-23T06:34:29Z</time></trkpt><trkpt lat="-20.354235188961717" lon="118.62539689231201"><ele>7.5</ele><time>2026-04-23T06:34:30Z</time></trkpt><trkpt lat="-20.35438490909468" lon="118.62520260933152"><ele>8.0</ele><time>2026-04-23T06:34:31Z</time></trkpt><trkpt lat="-20.354650324054095" lon="118.62512831952793"><ele>7.666666666666666</ele><time>2026-04-23T06:34:32.001Z</time></trkpt><trkpt lat="-20.35481962889688" lon="118.62496609074613"><ele>7.333333333333334</ele><time>2026-04-23T06:34:33.001Z</time></trkpt><trkpt lat="-20.354983586341906" lon="118.62482102143763"><ele>7.0</ele><time>2026-04-23T06:34:34.001Z</time></trkpt><trkpt lat="-20.355153491803364" lon="118.62469499901574"><ele>7.0</ele><time>2026-04-23T06:34:35.001Z</time></trkpt><trkpt lat="-20.355329901113592" lon="118.6245545917588"><ele>7.0</ele><time>2026-04-23T06:34:36.001Z</time></trkpt><trkpt lat="-20.35553888548883" lon="118.6244593542651"><ele>7.0</ele><time>2026-04-23T06:34:37.001Z</time></trkpt><trkpt lat="-20.355759235519365" lon="118.6243816635686"><ele>6.5</ele><time>2026-04-23T06:34:38.001Z</time></trkpt><trkpt lat="-20.355985719406572" lon="118.6243417059213"><ele>6.0</ele><time>2026-04-23T06:34:39.001Z</time></trkpt><trkpt lat="-20.356220046461278" lon="118.62430788865895"><ele>7.5</ele><time>2026-04-23T06:34:40.001Z</time></trkpt><trkpt lat="-20.356458557924483" lon="118.62430001337279"><ele>9.0</ele><time>2026-04-23T06:34:40.999Z</time></trkpt><trkpt lat="-20.35669913148168" lon="118.62431683508012"><ele>9.0</ele><time>2026-04-23T06:34:41.999Z</time></trkpt><trkpt lat="-20.356939689154743" lon="118.62435842231726"><ele>9.0</ele><time>2026-04-23T06:34:42.999Z</time></trkpt><trkpt lat="-20.357178149054374" lon="118.6244277565604"><ele>10.0</ele><time>2026-04-23T06:34:43.999Z</time></trkpt><trkpt lat="-20.35740656126192" lon="118.62452212714363"><ele>11.0</ele><time>2026-04-23T06:34:44.999Z</time></trkpt><trkpt lat="-20.357627748460903" lon="118.62464050152182"><ele>11.0</ele><time>2026-04-23T06:34:45.999Z</time></trkpt><trkpt lat="-20.357839648979713" lon="118.62478460486764"><ele>11.0</ele><time>2026-04-23T06:34:46.999Z</time></trkpt><trkpt lat="-20.358038826721184" lon="118.62495173202291"><ele>10.0</ele><time>2026-04-23T06:34:47.999Z</time></trkpt><trkpt lat="-20.358217019903165" lon="118.62514227246191"><ele>9.0</ele><time>2026-04-23T06:34:48.999Z</time></trkpt><trkpt lat="-20.35837808528154" lon="118.62534285688314"><ele>8.5</ele><time>2026-04-23T06:34:49.999Z</time></trkpt><trkpt lat="-20.35851568098829" lon="118.62556076400216"><ele>8.0</ele><time>2026-04-23T06:34:50.999Z</time></trkpt><trkpt lat="-20.358616071504766" lon="118.62580289788639"><ele>8.0</ele><time>2026-04-23T06:34:51.999Z</time></trkpt><trkpt lat="-20.358732253852228" lon="118.62603852890602"><ele>8.0</ele><time>2026-04-23T06:34:52.999Z</time></trkpt><trkpt lat="-20.35883123194736" lon="118.62628983947528"><ele>7.5</ele><time>2026-04-23T06:34:53.999Z</time></trkpt><trkpt lat="-20.358935833457046" lon="118.62654143691731"><ele>7.0</ele><time>2026-04-23T06:34:54.999Z</time></trkpt><trkpt lat="-20.359054049386064" lon="118.62679351267701"><ele>8.0</ele><time>2026-04-23T06:34:55.999Z</time></trkpt><trkpt lat="-20.359187941955287" lon="118.62705178833711"><ele>9.0</ele><time>2026-04-23T06:34:56.999Z</time></trkpt><trkpt lat="-20.35933421666529" lon="118.62730706603173"><ele>9.0</ele><time>2026-04-23T06:34:57.999Z</time></trkpt><trkpt lat="-20.35947853757515" lon="118.62753688323805"><ele>9.0</ele><time>2026-04-23T06:34:58.999Z</time></trkpt><trkpt lat="-20.359627104502902" lon="118.6277589883515"><ele>8.5</ele><time>2026-04-23T06:34:59.999Z</time></trkpt><trkpt lat="-20.359777277456015" lon="118.62797302990747"><ele>8.0</ele><time>2026-04-23T06:35:00.999Z</time></trkpt><trkpt lat="-20.359928096512704" lon="118.62818196784224"><ele>8.0</ele><time>2026-04-23T06:35:01.999Z</time></trkpt><trkpt lat="-20.360084601968662" lon="118.62838621479311"><ele>8.0</ele><time>2026-04-23T06:35:02.999Z</time></trkpt><trkpt lat="-20.36024480266401" lon="118.62858385687488"><ele>8.0</ele><time>2026-04-23T06:35:03.999Z</time></trkpt><trkpt lat="-20.36040824207836" lon="118.6287781002447"><ele>8.0</ele><time>2026-04-23T06:35:04.999Z</time></trkpt><trkpt lat="-20.360576047515515" lon="118.62896481671835"><ele>8.0</ele><time>2026-04-23T06:35:05.999Z</time></trkpt><trkpt lat="-20.36074844000758" lon="118.62914701165252"><ele>8.0</ele><time>2026-04-23T06:35:06.999Z</time></trkpt><trkpt lat="-20.360925136230012" lon="118.62932384910238"><ele>8.0</ele><time>2026-04-23T06:35:07.999Z</time></trkpt><trkpt lat="-20.36113458801232" lon="118.62942368538124"><ele>8.0</ele><time>2026-04-23T06:35:09Z</time></trkpt><trkpt lat="-20.36134635180014" lon="118.6295150780182"><ele>8.0</ele><time>2026-04-23T06:35:10Z</time></trkpt><trkpt lat="-20.36156635237046" lon="118.62961002545512"><ele>8.0</ele><time>2026-04-23T06:35:11Z</time></trkpt><trkpt lat="-20.361771314888227" lon="118.62971408251826"><ele>8.0</ele><time>2026-04-23T06:35:12Z</time></trkpt><trkpt lat="-20.361876187495646" lon="118.63012180978285"><ele>8.0</ele><time>2026-04-23T06:35:13Z</time></trkpt><trkpt lat="-20.362090375631748" lon="118.63025833132663"><ele>9.0</ele><time>2026-04-23T06:35:14Z</time></trkpt><trkpt lat="-20.362312473566305" lon="118.63038473598078"><ele>10.0</ele><time>2026-04-23T06:35:15Z</time></trkpt><trkpt lat="-20.362534667114502" lon="118.63050464624001"><ele>10.0</ele><time>2026-04-23T06:35:16Z</time></trkpt><trkpt lat="-20.36276369684617" lon="118.63061775699305"><ele>10.0</ele><time>2026-04-23T06:35:17Z</time></trkpt><trkpt lat="-20.362997773037204" lon="118.63072361840484"><ele>10.5</ele><time>2026-04-23T06:35:18Z</time></trkpt><trkpt lat="-20.363232668688863" lon="118.6308228680237"><ele>11.0</ele><time>2026-04-23T06:35:19Z</time></trkpt><trkpt lat="-20.363470687238117" lon="118.63091397803478"><ele>11.0</ele><time>2026-04-23T06:35:20Z</time></trkpt><trkpt lat="-20.36371120609006" lon="118.63099512202932"><ele>11.0</ele><time>2026-04-23T06:35:21Z</time></trkpt><trkpt lat="-20.363951116883218" lon="118.63107230406638"><ele>10.5</ele><time>2026-04-23T06:35:22Z</time></trkpt><trkpt lat="-20.364192440978172" lon="118.63115504430786"><ele>10.0</ele><time>2026-04-23T06:35:23Z</time></trkpt><trkpt lat="-20.364432377326324" lon="118.63123992705016"><ele>10.0</ele><time>2026-04-23T06:35:24Z</time></trkpt><trkpt lat="-20.364671552060152" lon="118.63132483020424"><ele>10.0</ele><time>2026-04-23T06:35:25Z</time></trkpt><trkpt lat="-20.364909148491563" lon="118.63141989877403"><ele>9.5</ele><time>2026-04-23T06:35:26Z</time></trkpt><trkpt lat="-20.365140234831916" lon="118.63153203975085"><ele>9.0</ele><time>2026-04-23T06:35:27Z</time></trkpt><trkpt lat="-20.36536438506213" lon="118.63166128114023"><ele>9.0</ele><time>2026-04-23T06:35:28Z</time></trkpt><trkpt lat="-20.365584520689783" lon="118.6318038949138"><ele>9.0</ele><time>2026-04-23T06:35:29Z</time></trkpt><trkpt lat="-20.365800038717435" lon="118.63195424338838"><ele>9.5</ele><time>2026-04-23T06:35:30Z</time></trkpt><trkpt lat="-20.36601017490273" lon="118.63211520107002"><ele>10.0</ele><time>2026-04-23T06:35:31Z</time></trkpt><trkpt lat="-20.36621048917314" lon="118.63228723626466"><ele>10.0</ele><time>2026-04-23T06:35:32Z</time></trkpt><trkpt lat="-20.366406032386944" lon="118.63246749499304"><ele>10.0</ele><time>2026-04-23T06:35:33Z</time></trkpt><trkpt lat="-20.36660164075769" lon="118.63265143752791"><ele>10.0</ele><time>2026-04-23T06:35:34Z</time></trkpt><trkpt lat="-20.36679840224423" lon="118.63283503823331"><ele>10.0</ele><time>2026-04-23T06:35:35Z</time></trkpt><trkpt lat="-20.366995437759282" lon="118.6330176142808"><ele>10.0</ele><time>2026-04-23T06:35:36Z</time></trkpt><trkpt lat="-20.367195031530834" lon="118.63320420952618"><ele>10.0</ele><time>2026-04-23T06:35:37Z</time></trkpt><trkpt lat="-20.36739513999972" lon="118.63338784189659"><ele>10.0</ele><time>2026-04-23T06:35:38Z</time></trkpt><trkpt lat="-20.36759975374929" lon="118.633571809943"><ele>10.0</ele><time>2026-04-23T06:35:39Z</time></trkpt><trkpt lat="-20.367804286204418" lon="118.63375487758718"><ele>10.0</ele><time>2026-04-23T06:35:40Z</time></trkpt><trkpt lat="-20.368009908082357" lon="118.63393994414949"><ele>10.0</ele><time>2026-04-23T06:35:41Z</time></trkpt><trkpt lat="-20.368210984291974" lon="118.63413264219147"><ele>10.0</ele><time>2026-04-23T06:35:42Z</time></trkpt><trkpt lat="-20.36840893651429" lon="118.6343279912195"><ele>10.0</ele><time>2026-04-23T06:35:43Z</time></trkpt><trkpt lat="-20.368609323120616" lon="118.63451954219832"><ele>10.0</ele><time>2026-04-23T06:35:44Z</time></trkpt><trkpt lat="-20.36881324278956" lon="118.63470803407658"><ele>10.0</ele><time>2026-04-23T06:35:45Z</time></trkpt><trkpt lat="-20.369017080871213" lon="118.63489664113031"><ele>10.0</ele><time>2026-04-23T06:35:46Z</time></trkpt><trkpt lat="-20.36922055770101" lon="118.63508624442032"><ele>10.0</ele><time>2026-04-23T06:35:47Z</time></trkpt><trkpt lat="-20.369425742806538" lon="118.63527832345605"><ele>10.5</ele><time>2026-04-23T06:35:48Z</time></trkpt><trkpt lat="-20.369631532394447" lon="118.63547016769505"><ele>11.0</ele><time>2026-04-23T06:35:49Z</time></trkpt><trkpt lat="-20.369840015757763" lon="118.63566348677466"><ele>10.0</ele><time>2026-04-23T06:35:50Z</time></trkpt><trkpt lat="-20.37004727771133" lon="118.63585280629377"><ele>9.0</ele><time>2026-04-23T06:35:51Z</time></trkpt><trkpt lat="-20.370257960210225" lon="118.63604410950202"><ele>9.0</ele><time>2026-04-23T06:35:52Z</time></trkpt><trkpt lat="-20.370465011734115" lon="118.6362352500136"><ele>9.0</ele><time>2026-04-23T06:35:53Z</time></trkpt><trkpt lat="-20.37067261387575" lon="118.63643034339269"><ele>10.0</ele><time>2026-04-23T06:35:54Z</time></trkpt><trkpt lat="-20.37087987326713" lon="118.63662558554277"><ele>11.0</ele><time>2026-04-23T06:35:55Z</time></trkpt><trkpt lat="-20.371084065369963" lon="118.63681959047216"><ele>11.0</ele><time>2026-04-23T06:35:56Z</time></trkpt><trkpt lat="-20.37128966977861" lon="118.63701282085195"><ele>11.0</ele><time>2026-04-23T06:35:57Z</time></trkpt><trkpt lat="-20.371495085513523" lon="118.63720399068141"><ele>10.0</ele><time>2026-04-23T06:35:58Z</time></trkpt><trkpt lat="-20.371699164342314" lon="118.63739424060573"><ele>9.0</ele><time>2026-04-23T06:35:59Z</time></trkpt><trkpt lat="-20.371904489963015" lon="118.63758182521028"><ele>9.0</ele><time>2026-04-23T06:36:00Z</time></trkpt><trkpt lat="-20.372109943523018" lon="118.63776918061966"><ele>9.0</ele><time>2026-04-23T06:36:01Z</time></trkpt><trkpt lat="-20.372315476641198" lon="118.637958028967"><ele>8.5</ele><time>2026-04-23T06:36:02Z</time></trkpt><trkpt lat="-20.372519885483623" lon="118.63814514486769"><ele>8.0</ele><time>2026-04-23T06:36:03Z</time></trkpt><trkpt lat="-20.37272744676989" lon="118.63833549213018"><ele>8.0</ele><time>2026-04-23T06:36:04Z</time></trkpt><trkpt lat="-20.372937858086352" lon="118.63852929796607"><ele>8.0</ele><time>2026-04-23T06:36:05Z</time></trkpt><trkpt lat="-20.37315056054303" lon="118.63872543312107"><ele>8.5</ele><time>2026-04-23T06:36:06Z</time></trkpt><trkpt lat="-20.373367276606515" lon="118.63892270301875"><ele>9.0</ele><time>2026-04-23T06:36:07Z</time></trkpt><trkpt lat="-20.37357945472398" lon="118.63912136601417"><ele>9.0</ele><time>2026-04-23T06:36:08Z</time></trkpt><trkpt lat="-20.373786250374863" lon="118.63932176881404"><ele>9.0</ele><time>2026-04-23T06:36:09Z</time></trkpt><trkpt lat="-20.373985348216507" lon="118.63951513788619"><ele>9.5</ele><time>2026-04-23T06:36:10Z</time></trkpt><trkpt lat="-20.37418062810138" lon="118.63970393437701"><ele>10.0</ele><time>2026-04-23T06:36:11Z</time></trkpt><trkpt lat="-20.3743722555883" lon="118.63989184659204"><ele>10.0</ele><time>2026-04-23T06:36:12Z</time></trkpt><trkpt lat="-20.374565429051003" lon="118.64007806187902"><ele>10.0</ele><time>2026-04-23T06:36:13Z</time></trkpt><trkpt lat="-20.37475856453855" lon="118.64026289521077"><ele>10.0</ele><time>2026-04-23T06:36:14Z</time></trkpt><trkpt lat="-20.374952248150898" lon="118.64044587692648"><ele>10.0</ele><time>2026-04-23T06:36:15Z</time></trkpt><trkpt lat="-20.375150245565035" lon="118.64063202899358"><ele>10.0</ele><time>2026-04-23T06:36:16Z</time></trkpt><trkpt lat="-20.375350088924666" lon="118.64081655168489"><ele>10.0</ele><time>2026-04-23T06:36:17Z</time></trkpt><trkpt lat="-20.375547327218907" lon="118.64100186958595"><ele>9.5</ele><time>2026-04-23T06:36:18Z</time></trkpt><trkpt lat="-20.375746223994593" lon="118.64119124868735"><ele>9.0</ele><time>2026-04-23T06:36:19Z</time></trkpt><trkpt lat="-20.375939352564007" lon="118.64138246027872"><ele>9.0</ele><time>2026-04-23T06:36:20Z</time></trkpt><trkpt lat="-20.376133955403425" lon="118.64157665014838"><ele>9.0</ele><time>2026-04-23T06:36:21Z</time></trkpt><trkpt lat="-20.3763315701544" lon="118.6417680805825"><ele>9.0</ele><time>2026-04-23T06:36:22Z</time></trkpt><trkpt lat="-20.37653115351796" lon="118.64195435310181"><ele>9.0</ele><time>2026-04-23T06:36:23Z</time></trkpt><trkpt lat="-20.376731288198105" lon="118.64213701065425"><ele>9.0</ele><time>2026-04-23T06:36:24.001Z</time></trkpt><trkpt lat="-20.3769306659613" lon="118.64232227330444"><ele>9.0</ele><time>2026-04-23T06:36:25.001Z</time></trkpt><trkpt lat="-20.377127043372507" lon="118.64250725606067"><ele>9.5</ele><time>2026-04-23T06:36:26.001Z</time></trkpt><trkpt lat="-20.377323610075514" lon="118.64269149923216"><ele>10.0</ele><time>2026-04-23T06:36:27.001Z</time></trkpt><trkpt lat="-20.377518719497047" lon="118.6428758049819"><ele>9.0</ele><time>2026-04-23T06:36:28.001Z</time></trkpt><trkpt lat="-20.37771385801112" lon="118.64305890273035"><ele>8.0</ele><time>2026-04-23T06:36:29.001Z</time></trkpt><trkpt lat="-20.377909760122623" lon="118.64323944511591"><ele>8.0</ele><time>2026-04-23T06:36:30.001Z</time></trkpt><trkpt lat="-20.378103397025882" lon="118.64341943160792"><ele>8.0</ele><time>2026-04-23T06:36:31.001Z</time></trkpt><trkpt lat="-20.378300052084985" lon="118.64359620794069"><ele>7.5</ele><time>2026-04-23T06:36:32.001Z</time></trkpt><trkpt lat="-20.378500267106283" lon="118.64376568932727"><ele>7.0</ele><time>2026-04-23T06:36:33.001Z</time></trkpt><trkpt lat="-20.378703317772395" lon="118.6439320300335"><ele>8.0</ele><time>2026-04-23T06:36:34.001Z</time></trkpt><trkpt lat="-20.378908952066645" lon="118.64409454013332"><ele>9.0</ele><time>2026-04-23T06:36:35.001Z</time></trkpt><trkpt lat="-20.37911583325844" lon="118.64425197410696"><ele>9.0</ele><time>2026-04-23T06:36:36.001Z</time></trkpt><trkpt lat="-20.379324558612357" lon="118.64440789296833"><ele>9.0</ele><time>2026-04-23T06:36:37.001Z</time></trkpt><trkpt lat="-20.37954671806872" lon="118.64454733739075"><ele>9.0</ele><time>2026-04-23T06:36:38.001Z</time></trkpt><trkpt lat="-20.379979423169793" lon="118.64484616926225"><ele>9.0</ele><time>2026-04-23T06:36:40.001Z</time></trkpt><trkpt lat="-20.380186466329633" lon="118.64501055384613"><ele>9.0</ele><time>2026-04-23T06:36:41.001Z</time></trkpt><trkpt lat="-20.380409053848155" lon="118.6451597955801"><ele>9.0</ele><time>2026-04-23T06:36:42.001Z</time></trkpt><trkpt lat="-20.380635768535676" lon="118.64531383742946"><ele>9.0</ele><time>2026-04-23T06:36:43.001Z</time></trkpt><trkpt lat="-20.38086479443038" lon="118.6454719194549"><ele>9.0</ele><time>2026-04-23T06:36:44.001Z</time></trkpt><trkpt lat="-20.381094172940163" lon="118.64563128821617"><ele>9.0</ele><time>2026-04-23T06:36:45.001Z</time></trkpt><trkpt lat="-20.38132360815762" lon="118.64579767949144"><ele>8.5</ele><time>2026-04-23T06:36:46.001Z</time></trkpt><trkpt lat="-20.38154729480634" lon="118.64597273160888"><ele>8.0</ele><time>2026-04-23T06:36:46.999Z</time></trkpt><trkpt lat="-20.381765128346334" lon="118.64615944091936"><ele>8.0</ele><time>2026-04-23T06:36:47.999Z</time></trkpt><trkpt lat="-20.381976527335837" lon="118.64635358718503"><ele>8.0</ele><time>2026-04-23T06:36:48.999Z</time></trkpt><trkpt lat="-20.382181750373704" lon="118.64655390699612"><ele>8.0</ele><time>2026-04-23T06:36:49.999Z</time></trkpt><trkpt lat="-20.382383574120595" lon="118.64675378609812"><ele>8.0</ele><time>2026-04-23T06:36:50.999Z</time></trkpt><trkpt lat="-20.38257802573033" lon="118.64695585463862"><ele>9.0</ele><time>2026-04-23T06:36:51.999Z</time></trkpt><trkpt lat="-20.38276608653947" lon="118.64716498570779"><ele>10.0</ele><time>2026-04-23T06:36:52.999Z</time></trkpt><trkpt lat="-20.38295092149472" lon="118.64738000788039"><ele>10.5</ele><time>2026-04-23T06:36:53.999Z</time></trkpt><trkpt lat="-20.383130568009012" lon="118.64759987953278"><ele>11.0</ele><time>2026-04-23T06:36:54.999Z</time></trkpt><trkpt lat="-20.383303537673697" lon="118.647822969361"><ele>11.5</ele><time>2026-04-23T06:36:55.999Z</time></trkpt><trkpt lat="-20.383472093091633" lon="118.64804968859985"><ele>12.0</ele><time>2026-04-23T06:36:56.999Z</time></trkpt><trkpt lat="-20.38363753551891" lon="118.64828014648896"><ele>12.0</ele><time>2026-04-23T06:36:57.999Z</time></trkpt><trkpt lat="-20.383796331063202" lon="118.64851562589406"><ele>12.0</ele><time>2026-04-23T06:36:58.999Z</time></trkpt><trkpt lat="-20.38394864474506" lon="118.64875592766629"><ele>12.0</ele><time>2026-04-23T06:36:59.999Z</time></trkpt><trkpt lat="-20.384096887793312" lon="118.64899965560058"><ele>12.0</ele><time>2026-04-23T06:37:00.999Z</time></trkpt><trkpt lat="-20.384238640629167" lon="118.64924310753092"><ele>12.0</ele><time>2026-04-23T06:37:01.999Z</time></trkpt><trkpt lat="-20.384370210154763" lon="118.64948915621855"><ele>12.0</ele><time>2026-04-23T06:37:02.999Z</time></trkpt><trkpt lat="-20.38448455221919" lon="118.64974061515665"><ele>12.0</ele><time>2026-04-23T06:37:03.999Z</time></trkpt><trkpt lat="-20.38459284787463" lon="118.64998793853843"><ele>12.0</ele><time>2026-04-23T06:37:04.999Z</time></trkpt><trkpt lat="-20.384692515789354" lon="118.6502267152509"><ele>13.0</ele><time>2026-04-23T06:37:05.999Z</time></trkpt><trkpt lat="-20.3847890823826" lon="118.65046665281619"><ele>14.0</ele><time>2026-04-23T06:37:06.999Z</time></trkpt><trkpt lat="-20.38488183483822" lon="118.65070812407919"><ele>14.0</ele><time>2026-04-23T06:37:07.999Z</time></trkpt><trkpt lat="-20.384969468444247" lon="118.65095335526007"><ele>14.0</ele><time>2026-04-23T06:37:08.999Z</time></trkpt><trkpt lat="-20.385050352388866" lon="118.65120193744957"><ele>15.0</ele><time>2026-04-23T06:37:09.999Z</time></trkpt><trkpt lat="-20.38512845619403" lon="118.65145242119547"><ele>16.0</ele><time>2026-04-23T06:37:11Z</time></trkpt><trkpt lat="-20.385208306596564" lon="118.65170340973042"><ele>16.0</ele><time>2026-04-23T06:37:12Z</time></trkpt><trkpt lat="-20.385286993563568" lon="118.65195089889453"><ele>16.0</ele><time>2026-04-23T06:37:13Z</time></trkpt><trkpt lat="-20.385367345200297" lon="118.65219931806081"><ele>15.5</ele><time>2026-04-23T06:37:14Z</time></trkpt><trkpt lat="-20.385448203181536" lon="118.65244915325502"><ele>15.0</ele><time>2026-04-23T06:37:15Z</time></trkpt><trkpt lat="-20.385529597315468" lon="118.65269701242073"><ele>14.5</ele><time>2026-04-23T06:37:16Z</time></trkpt><trkpt lat="-20.38561232752055" lon="118.6529439991587"><ele>14.0</ele><time>2026-04-23T06:37:17Z</time></trkpt><trkpt lat="-20.38569580656937" lon="118.65319293850762"><ele>14.0</ele><time>2026-04-23T06:37:18Z</time></trkpt><trkpt lat="-20.385784206473666" lon="118.65344165380071"><ele>14.0</ele><time>2026-04-23T06:37:19Z</time></trkpt><trkpt lat="-20.38587974412293" lon="118.6536864533522"><ele>13.0</ele><time>2026-04-23T06:37:20Z</time></trkpt><trkpt lat="-20.385977726285706" lon="118.65393290168944"><ele>12.0</ele><time>2026-04-23T06:37:21Z</time></trkpt><trkpt lat="-20.386078407689862" lon="118.65417717388515"><ele>12.0</ele><time>2026-04-23T06:37:22Z</time></trkpt><trkpt lat="-20.386182178153597" lon="118.6544200033767"><ele>12.0</ele><time>2026-04-23T06:37:23Z</time></trkpt><trkpt lat="-20.386288337906024" lon="118.65466099891533"><ele>12.5</ele><time>2026-04-23T06:37:24Z</time></trkpt><trkpt lat="-20.386399039593872" lon="118.65490060773236"><ele>13.0</ele><time>2026-04-23T06:37:25Z</time></trkpt><trkpt lat="-20.386511196465605" lon="118.6551387597353"><ele>12.5</ele><time>2026-04-23T06:37:26Z</time></trkpt><trkpt lat="-20.386627603906067" lon="118.65537795000208"><ele>12.0</ele><time>2026-04-23T06:37:27Z</time></trkpt><trkpt lat="-20.386747465539163" lon="118.65561426815967"><ele>12.0</ele><time>2026-04-23T06:37:28Z</time></trkpt><trkpt lat="-20.386869487351404" lon="118.65584646091912"><ele>12.0</ele><time>2026-04-23T06:37:29Z</time></trkpt><trkpt lat="-20.386991679339104" lon="118.65607938732249"><ele>13.0</ele><time>2026-04-23T06:37:30Z</time></trkpt><trkpt lat="-20.387236764248144" lon="118.65654082219588"><ele>13.0</ele><time>2026-04-23T06:37:32Z</time></trkpt><trkpt lat="-20.387358483247322" lon="118.65677289736598"><ele>13.0</ele><time>2026-04-23T06:37:33Z</time></trkpt><trkpt lat="-20.387479122525043" lon="118.65700303552393"><ele>13.5</ele><time>2026-04-23T06:37:34Z</time></trkpt><trkpt lat="-20.3876015886726" lon="118.65723216329512"><ele>14.0</ele><time>2026-04-23T06:37:35Z</time></trkpt><trkpt lat="-20.38772850605313" lon="118.65746013062144"><ele>14.0</ele><time>2026-04-23T06:37:36Z</time></trkpt><trkpt lat="-20.38785547014823" lon="118.65767847655104"><ele>14.0</ele><time>2026-04-23T06:37:37Z</time></trkpt><trkpt lat="-20.3879848160914" lon="118.6579062261579"><ele>13.0</ele><time>2026-04-23T06:37:38Z</time></trkpt><trkpt lat="-20.38811174813836" lon="118.6581299336612"><ele>12.0</ele><time>2026-04-23T06:37:39Z</time></trkpt><trkpt lat="-20.388238636653828" lon="118.65835339476172"><ele>12.0</ele><time>2026-04-23T06:37:40Z</time></trkpt><trkpt lat="-20.38836390372223" lon="118.65857485441964"><ele>12.0</ele><time>2026-04-23T06:37:41Z</time></trkpt><trkpt lat="-20.388491310007282" lon="118.65879694458576"><ele>12.0</ele><time>2026-04-23T06:37:42Z</time></trkpt><trkpt lat="-20.388615862265965" lon="118.65902002511969"><ele>12.0</ele><time>2026-04-23T06:37:43Z</time></trkpt><trkpt lat="-20.388738389302787" lon="118.65924874842918"><ele>13.0</ele><time>2026-04-23T06:37:44Z</time></trkpt><trkpt lat="-20.388860522398183" lon="118.6594778389933"><ele>14.0</ele><time>2026-04-23T06:37:45Z</time></trkpt><trkpt lat="-20.388986325905957" lon="118.65971235775022"><ele>14.0</ele><time>2026-04-23T06:37:46Z</time></trkpt><trkpt lat="-20.38911007630498" lon="118.65994482188806"><ele>14.0</ele><time>2026-04-23T06:37:47Z</time></trkpt><trkpt lat="-20.389230238142968" lon="118.6601722740823"><ele>13.666666666666668</ele><time>2026-04-23T06:37:48Z</time></trkpt><trkpt lat="-20.38933684203963" lon="118.66037969232245"><ele>13.333333333333332</ele><time>2026-04-23T06:37:49Z</time></trkpt><trkpt lat="-20.389433367089612" lon="118.66057128908585"><ele>13.0</ele><time>2026-04-23T06:37:50Z</time></trkpt><trkpt lat="-20.389519804468804" lon="118.66074406581595"><ele>13.0</ele><time>2026-04-23T06:37:51Z</time></trkpt><trkpt lat="-20.389603397398716" lon="118.6609019538397"><ele>13.0</ele><time>2026-04-23T06:37:52Z</time></trkpt><trkpt lat="-20.38968305534004" lon="118.66104944399449"><ele>13.0</ele><time>2026-04-23T06:37:53Z</time></trkpt><trkpt lat="-20.389757159021308" lon="118.6611871218489"><ele>13.0</ele><time>2026-04-23T06:37:54Z</time></trkpt><trkpt lat="-20.389828832765208" lon="118.66132236626493"><ele>13.0</ele><time>2026-04-23T06:37:55Z</time></trkpt><trkpt lat="-20.389899586526443" lon="118.66146064787985"><ele>13.0</ele><time>2026-04-23T06:37:56Z</time></trkpt><trkpt lat="-20.38998314510699" lon="118.66161331031765"><ele>13.0</ele><time>2026-04-23T06:37:57Z</time></trkpt><trkpt lat="-20.390076194275707" lon="118.66178071547291"><ele>13.0</ele><time>2026-04-23T06:37:58Z</time></trkpt><trkpt lat="-20.390173367755118" lon="118.66196202712614"><ele>13.0</ele><time>2026-04-23T06:37:59Z</time></trkpt><trkpt lat="-20.390275694406867" lon="118.66215781041134"><ele>13.333333333333332</ele><time>2026-04-23T06:38:00Z</time></trkpt><trkpt lat="-20.390383418474602" lon="118.66235935566745"><ele>13.666666666666668</ele><time>2026-04-23T06:38:01Z</time></trkpt><trkpt lat="-20.39049599646087" lon="118.66257051484645"><ele>14.0</ele><time>2026-04-23T06:38:02Z</time></trkpt><trkpt lat="-20.390605823175676" lon="118.6627783019697"><ele>13.5</ele><time>2026-04-23T06:38:03Z</time></trkpt><trkpt lat="-20.39071461261163" lon="118.66298725544033"><ele>13.0</ele><time>2026-04-23T06:38:04Z</time></trkpt><trkpt lat="-20.390831751620485" lon="118.66320771334631"><ele>13.0</ele><time>2026-04-23T06:38:05Z</time></trkpt><trkpt lat="-20.390951847734808" lon="118.6634337918652"><ele>13.0</ele><time>2026-04-23T06:38:06Z</time></trkpt><trkpt lat="-20.3910757158453" lon="118.66366914897777"><ele>13.5</ele><time>2026-04-23T06:38:07Z</time></trkpt><trkpt lat="-20.391203481337758" lon="118.66391013857488"><ele>14.0</ele><time>2026-04-23T06:38:08Z</time></trkpt><trkpt lat="-20.39133698325136" lon="118.66415690087004"><ele>14.0</ele><time>2026-04-23T06:38:09Z</time></trkpt><trkpt lat="-20.39146552856164" lon="118.66439538251974"><ele>14.0</ele><time>2026-04-23T06:38:10Z</time></trkpt><trkpt lat="-20.391589906957893" lon="118.66463450793744"><ele>14.0</ele><time>2026-04-23T06:38:11Z</time></trkpt><trkpt lat="-20.39171026145099" lon="118.6648746262637"><ele>14.0</ele><time>2026-04-23T06:38:12Z</time></trkpt><trkpt lat="-20.391831595215663" lon="118.66511632202362"><ele>13.5</ele><time>2026-04-23T06:38:13Z</time></trkpt><trkpt lat="-20.391951527668745" lon="118.66535983507343"><ele>13.0</ele><time>2026-04-23T06:38:14Z</time></trkpt><trkpt lat="-20.392070366573453" lon="118.66560587367015"><ele>12.5</ele><time>2026-04-23T06:38:15Z</time></trkpt><trkpt lat="-20.39218749623506" lon="118.66585541342765"><ele>12.0</ele><time>2026-04-23T06:38:16Z</time></trkpt><trkpt lat="-20.392304746869673" lon="118.66610529747518"><ele>13.5</ele><time>2026-04-23T06:38:17.001Z</time></trkpt><trkpt lat="-20.39242472881396" lon="118.66635588766242"><ele>15.0</ele><time>2026-04-23T06:38:18.001Z</time></trkpt><trkpt lat="-20.39254864412734" lon="118.66660746344714"><ele>15.0</ele><time>2026-04-23T06:38:19.001Z</time></trkpt><trkpt lat="-20.392671762528717" lon="118.66685862536669"><ele>15.0</ele><time>2026-04-23T06:38:20.001Z</time></trkpt><trkpt lat="-20.39279705784518" lon="118.66711120599109"><ele>15.0</ele><time>2026-04-23T06:38:21.001Z</time></trkpt><trkpt lat="-20.393046407995396" lon="118.66761800074266"><ele>14.5</ele><time>2026-04-23T06:38:23.001Z</time></trkpt><trkpt lat="-20.39317196754116" lon="118.6678723799074"><ele>14.0</ele><time>2026-04-23T06:38:24.001Z</time></trkpt><trkpt lat="-20.393298759857718" lon="118.66812679148319"><ele>14.0</ele><time>2026-04-23T06:38:25.001Z</time></trkpt><trkpt lat="-20.39342507377005" lon="118.66838130995546"><ele>14.0</ele><time>2026-04-23T06:38:26.001Z</time></trkpt><trkpt lat="-20.39354935718084" lon="118.66863517062313"><ele>13.5</ele><time>2026-04-23T06:38:27.001Z</time></trkpt><trkpt lat="-20.3936739136881" lon="118.66889468549478"><ele>13.0</ele><time>2026-04-23T06:38:28.001Z</time></trkpt><trkpt lat="-20.393797740137405" lon="118.66915424881725"><ele>13.0</ele><time>2026-04-23T06:38:29.001Z</time></trkpt><trkpt lat="-20.393925169738342" lon="118.66941697843424"><ele>13.0</ele><time>2026-04-23T06:38:30.001Z</time></trkpt><trkpt lat="-20.394054435266717" lon="118.66968149880198"><ele>13.5</ele><time>2026-04-23T06:38:31.001Z</time></trkpt><trkpt lat="-20.3941842656473" lon="118.66994803931865"><ele>14.0</ele><time>2026-04-23T06:38:32.001Z</time></trkpt><trkpt lat="-20.394317751504627" lon="118.67022151242381"><ele>14.0</ele><time>2026-04-23T06:38:33.001Z</time></trkpt><trkpt lat="-20.394451257965688" lon="118.67049271782774"><ele>14.0</ele><time>2026-04-23T06:38:34.001Z</time></trkpt><trkpt lat="-20.394584581198686" lon="118.67076371522569"><ele>14.0</ele><time>2026-04-23T06:38:35.001Z</time></trkpt><trkpt lat="-20.394717929381688" lon="118.67103356375172"><ele>14.0</ele><time>2026-04-23T06:38:36.001Z</time></trkpt><trkpt lat="-20.394848041160238" lon="118.6713031025134"><ele>17.0</ele><time>2026-04-23T06:38:37.001Z</time></trkpt><trkpt lat="-20.395104846164642" lon="118.67183220094329"><ele>16.5</ele><time>2026-04-23T06:38:39.001Z</time></trkpt><trkpt lat="-20.3952340553455" lon="118.6720944994791"><ele>16.0</ele><time>2026-04-23T06:38:40.001Z</time></trkpt><trkpt lat="-20.395359407239653" lon="118.67235335749884"><ele>16.0</ele><time>2026-04-23T06:38:41.001Z</time></trkpt><trkpt lat="-20.39548603288525" lon="118.67261868452205"><ele>16.0</ele><time>2026-04-23T06:38:42.001Z</time></trkpt><trkpt lat="-20.395610844311932" lon="118.67288048514912"><ele>15.0</ele><time>2026-04-23T06:38:43.001Z</time></trkpt><trkpt lat="-20.395735433008188" lon="118.67313726455127"><ele>14.0</ele><time>2026-04-23T06:38:44.001Z</time></trkpt><trkpt lat="-20.395862542841964" lon="118.67339460245249"><ele>15.0</ele><time>2026-04-23T06:38:45.001Z</time></trkpt><trkpt lat="-20.395991052468773" lon="118.67365160091187"><ele>16.0</ele><time>2026-04-23T06:38:46.001Z</time></trkpt><trkpt lat="-20.3961189790505" lon="118.67390837955438"><ele>16.0</ele><time>2026-04-23T06:38:47.001Z</time></trkpt><trkpt lat="-20.396245264836868" lon="118.67416449536289"><ele>16.0</ele><time>2026-04-23T06:38:48.001Z</time></trkpt><trkpt lat="-20.396371437901088" lon="118.67442643495166"><ele>16.0</ele><time>2026-04-23T06:38:49.001Z</time></trkpt><trkpt lat="-20.396498191611595" lon="118.67468255470048"><ele>16.0</ele><time>2026-04-23T06:38:50.001Z</time></trkpt><trkpt lat="-20.396628565628646" lon="118.6749396447414"><ele>16.0</ele><time>2026-04-23T06:38:51.001Z</time></trkpt><trkpt lat="-20.396757163903974" lon="118.67520235111917"><ele>16.0</ele><time>2026-04-23T06:38:52.001Z</time></trkpt><trkpt lat="-20.396885422157773" lon="118.67546685907429"><ele>16.0</ele><time>2026-04-23T06:38:52.999Z</time></trkpt><trkpt lat="-20.39701579128338" lon="118.67572580363664"><ele>16.0</ele><time>2026-04-23T06:38:53.999Z</time></trkpt><trkpt lat="-20.397152631602516" lon="118.67598284466168"><ele>16.5</ele><time>2026-04-23T06:38:54.999Z</time></trkpt><trkpt lat="-20.397288167175574" lon="118.67623416385211"><ele>17.0</ele><time>2026-04-23T06:38:55.999Z</time></trkpt><trkpt lat="-20.39742093667811" lon="118.67649208519845"><ele>17.0</ele><time>2026-04-23T06:38:56.999Z</time></trkpt><trkpt lat="-20.397555609242772" lon="118.67674807440629"><ele>17.0</ele><time>2026-04-23T06:38:57.999Z</time></trkpt><trkpt lat="-20.39769227575464" lon="118.67700184212946"><ele>16.0</ele><time>2026-04-23T06:38:58.999Z</time></trkpt><trkpt lat="-20.397828429999347" lon="118.67725345538327"><ele>15.0</ele><time>2026-04-23T06:38:59.999Z</time></trkpt><trkpt lat="-20.39796343203064" lon="118.67750935707707"><ele>14.5</ele><time>2026-04-23T06:39:00.999Z</time></trkpt><trkpt lat="-20.398100420111735" lon="118.67776108862829"><ele>14.0</ele><time>2026-04-23T06:39:01.999Z</time></trkpt><trkpt lat="-20.39823582893952" lon="118.6780142882478"><ele>15.0</ele><time>2026-04-23T06:39:02.999Z</time></trkpt><trkpt lat="-20.398368179004034" lon="118.6782721521238"><ele>16.0</ele><time>2026-04-23T06:39:03.999Z</time></trkpt><trkpt lat="-20.398502378632564" lon="118.67852628764875"><ele>16.0</ele><time>2026-04-23T06:39:04.999Z</time></trkpt><trkpt lat="-20.3986381443168" lon="118.67877774652989"><ele>16.0</ele><time>2026-04-23T06:39:05.999Z</time></trkpt><trkpt lat="-20.398773511449356" lon="118.67903293150654"><ele>16.0</ele><time>2026-04-23T06:39:06.999Z</time></trkpt><trkpt lat="-20.398907788961957" lon="118.67928986422127"><ele>16.0</ele><time>2026-04-23T06:39:07.999Z</time></trkpt><trkpt lat="-20.399045705120933" lon="118.67954531358664"><ele>16.5</ele><time>2026-04-23T06:39:08.999Z</time></trkpt><trkpt lat="-20.39918428912371" lon="118.67979979774941"><ele>17.0</ele><time>2026-04-23T06:39:09.999Z</time></trkpt><trkpt lat="-20.399322179477355" lon="118.68006080793973"><ele>17.5</ele><time>2026-04-23T06:39:10.999Z</time></trkpt><trkpt lat="-20.399459011728748" lon="118.68031706156323"><ele>18.0</ele><time>2026-04-23T06:39:11.999Z</time></trkpt><trkpt lat="-20.399595161647685" lon="118.680579298619"><ele>17.5</ele><time>2026-04-23T06:39:12.999Z</time></trkpt><trkpt lat="-20.399730154035957" lon="118.68084085624689"><ele>17.0</ele><time>2026-04-23T06:39:13.999Z</time></trkpt><trkpt lat="-20.399868697950097" lon="118.68109941770142"><ele>16.0</ele><time>2026-04-23T06:39:14.999Z</time></trkpt><trkpt lat="-20.400007222867565" lon="118.68135932925286"><ele>15.0</ele><time>2026-04-23T06:39:15.999Z</time></trkpt><trkpt lat="-20.400144890425533" lon="118.68161843800198"><ele>15.0</ele><time>2026-04-23T06:39:16.999Z</time></trkpt><trkpt lat="-20.40028285609751" lon="118.68187973806974"><ele>15.0</ele><time>2026-04-23T06:39:17.999Z</time></trkpt><trkpt lat="-20.400422758887476" lon="118.68213933063424"><ele>15.0</ele><time>2026-04-23T06:39:18.999Z</time></trkpt><trkpt lat="-20.400564276744607" lon="118.68240029750666"><ele>15.0</ele><time>2026-04-23T06:39:20Z</time></trkpt><trkpt lat="-20.400703546966433" lon="118.68266235343117"><ele>15.5</ele><time>2026-04-23T06:39:21Z</time></trkpt><trkpt lat="-20.400842673087336" lon="118.68292641109551"><ele>16.0</ele><time>2026-04-23T06:39:22Z</time></trkpt><trkpt lat="-20.400982222445013" lon="118.68318705188885"><ele>16.0</ele><time>2026-04-23T06:39:23Z</time></trkpt><trkpt lat="-20.401107474193374" lon="118.68345074727789"><ele>16.0</ele><time>2026-04-23T06:39:24Z</time></trkpt><trkpt lat="-20.401255674424657" lon="118.68370463652118"><ele>16.0</ele><time>2026-04-23T06:39:25Z</time></trkpt><trkpt lat="-20.401389905864203" lon="118.68396501480667"><ele>16.0</ele><time>2026-04-23T06:39:26Z</time></trkpt><trkpt lat="-20.401525260496218" lon="118.68422933723157"><ele>16.0</ele><time>2026-04-23T06:39:27Z</time></trkpt><trkpt lat="-20.401664122972292" lon="118.6844857737012"><ele>16.0</ele><time>2026-04-23T06:39:28Z</time></trkpt><trkpt lat="-20.401805675951426" lon="118.6847442424515"><ele>16.0</ele><time>2026-04-23T06:39:29Z</time></trkpt><trkpt lat="-20.401948572826104" lon="118.6850035155819"><ele>16.0</ele><time>2026-04-23T06:39:30Z</time></trkpt><trkpt lat="-20.40209200033215" lon="118.68526746865436"><ele>17.0</ele><time>2026-04-23T06:39:31Z</time></trkpt><trkpt lat="-20.402219327950913" lon="118.68554099927194"><ele>18.0</ele><time>2026-04-23T06:39:32Z</time></trkpt><trkpt lat="-20.402360534073566" lon="118.68580786668926"><ele>18.0</ele><time>2026-04-23T06:39:33Z</time></trkpt><trkpt lat="-20.402513867119875" lon="118.68606760683143"><ele>18.0</ele><time>2026-04-23T06:39:34Z</time></trkpt><trkpt lat="-20.402651418450038" lon="118.68633644316725"><ele>18.5</ele><time>2026-04-23T06:39:35Z</time></trkpt><trkpt lat="-20.40279224599547" lon="118.68660260329213"><ele>19.0</ele><time>2026-04-23T06:39:36Z</time></trkpt><trkpt lat="-20.402935013681393" lon="118.68686836459497"><ele>18.0</ele><time>2026-04-23T06:39:37Z</time></trkpt><trkpt lat="-20.40307842522384" lon="118.68713661249264"><ele>17.0</ele><time>2026-04-23T06:39:38Z</time></trkpt><trkpt lat="-20.403220013242734" lon="118.6874056152453"><ele>17.0</ele><time>2026-04-23T06:39:39Z</time></trkpt><trkpt lat="-20.403357449544757" lon="118.68767621443826"><ele>17.0</ele><time>2026-04-23T06:39:40Z</time></trkpt><trkpt lat="-20.403495159265375" lon="118.68794448406746"><ele>18.0</ele><time>2026-04-23T06:39:41Z</time></trkpt><trkpt lat="-20.4036315193446" lon="118.6882127761678"><ele>19.0</ele><time>2026-04-23T06:39:42Z</time></trkpt><trkpt lat="-20.403769621028452" lon="118.68848151826909"><ele>19.0</ele><time>2026-04-23T06:39:43Z</time></trkpt><trkpt lat="-20.40391148232116" lon="118.68874460736419"><ele>19.0</ele><time>2026-04-23T06:39:44Z</time></trkpt><trkpt lat="-20.40405541872863" lon="118.6890075952622"><ele>19.0</ele><time>2026-04-23T06:39:45Z</time></trkpt><trkpt lat="-20.40419681411124" lon="118.68927595536434"><ele>19.0</ele><time>2026-04-23T06:39:46Z</time></trkpt><trkpt lat="-20.404337143551984" lon="118.68954528803226"><ele>19.0</ele><time>2026-04-23T06:39:47Z</time></trkpt><trkpt lat="-20.40447638255042" lon="118.6898135525315"><ele>19.0</ele><time>2026-04-23T06:39:48Z</time></trkpt><trkpt lat="-20.40461145364307" lon="118.6900808075459"><ele>18.0</ele><time>2026-04-23T06:39:49Z</time></trkpt><trkpt lat="-20.404740602658542" lon="118.69035488974302"><ele>17.0</ele><time>2026-04-23T06:39:50Z</time></trkpt><trkpt lat="-20.40485603829315" lon="118.6906346345757"><ele>17.0</ele><time>2026-04-23T06:39:51Z</time></trkpt><trkpt lat="-20.404953796589027" lon="118.69092529854152"><ele>17.0</ele><time>2026-04-23T06:39:52Z</time></trkpt><trkpt lat="-20.405040167809783" lon="118.69121987802086"><ele>16.5</ele><time>2026-04-23T06:39:53Z</time></trkpt><trkpt lat="-20.40512169745131" lon="118.69151960724628"><ele>16.0</ele><time>2026-04-23T06:39:54Z</time></trkpt><trkpt lat="-20.40519903864141" lon="118.69181952161762"><ele>16.0</ele><time>2026-04-23T06:39:55Z</time></trkpt><trkpt lat="-20.405270694188374" lon="118.69211890263963"><ele>16.0</ele><time>2026-04-23T06:39:56Z</time></trkpt><trkpt lat="-20.405330584496646" lon="118.69241976034678"><ele>16.0</ele><time>2026-04-23T06:39:57Z</time></trkpt><trkpt lat="-20.405383354461765" lon="118.69272648427577"><ele>16.0</ele><time>2026-04-23T06:39:58Z</time></trkpt><trkpt lat="-20.40543245869754" lon="118.69303905070929"><ele>16.0</ele><time>2026-04-23T06:39:59Z</time></trkpt><trkpt lat="-20.40548535588803" lon="118.69334573091413"><ele>16.0</ele><time>2026-04-23T06:40:00Z</time></trkpt><trkpt lat="-20.405542331783323" lon="118.69365322329304"><ele>17.0</ele><time>2026-04-23T06:40:01Z</time></trkpt><trkpt lat="-20.405598216832402" lon="118.69395963218861"><ele>18.0</ele><time>2026-04-23T06:40:02Z</time></trkpt><trkpt lat="-20.405651798128016" lon="118.69426592753884"><ele>18.0</ele><time>2026-04-23T06:40:03Z</time></trkpt><trkpt lat="-20.405703244222625" lon="118.69457364230077"><ele>18.0</ele><time>2026-04-23T06:40:04Z</time></trkpt><trkpt lat="-20.405756118987686" lon="118.69487661346014"><ele>18.0</ele><time>2026-04-23T06:40:05Z</time></trkpt><trkpt lat="-20.405811215940904" lon="118.6951831040046"><ele>18.0</ele><time>2026-04-23T06:40:06Z</time></trkpt><trkpt lat="-20.40586859452843" lon="118.69548579953558"><ele>18.0</ele><time>2026-04-23T06:40:07Z</time></trkpt><trkpt lat="-20.405925648471726" lon="118.69578534874957"><ele>18.0</ele><time>2026-04-23T06:40:08Z</time></trkpt><trkpt lat="-20.405981621030815" lon="118.69608240900293"><ele>18.5</ele><time>2026-04-23T06:40:09Z</time></trkpt><trkpt lat="-20.406033269940004" lon="118.69638331065676"><ele>19.0</ele><time>2026-04-23T06:40:10Z</time></trkpt><trkpt lat="-20.406083772277388" lon="118.69667940629978"><ele>16.5</ele><time>2026-04-23T06:40:11Z</time></trkpt><trkpt lat="-20.40613578232334" lon="118.6969758900516"><ele>14.0</ele><time>2026-04-23T06:40:12Z</time></trkpt><trkpt lat="-20.406186627262567" lon="118.69727281872251"><ele>14.0</ele><time>2026-04-23T06:40:13Z</time></trkpt><trkpt lat="-20.406236348167532" lon="118.69757163509408"><ele>14.0</ele><time>2026-04-23T06:40:14Z</time></trkpt><trkpt lat="-20.40628885100449" lon="118.69786748104362"><ele>16.0</ele><time>2026-04-23T06:40:15Z</time></trkpt><trkpt lat="-20.406342828210136" lon="118.69816456261933"><ele>18.0</ele><time>2026-04-23T06:40:16Z</time></trkpt><trkpt lat="-20.40639751644702" lon="118.69846542848606"><ele>17.5</ele><time>2026-04-23T06:40:17Z</time></trkpt><trkpt lat="-20.40645232571188" lon="118.69877011541318"><ele>17.0</ele><time>2026-04-23T06:40:18Z</time></trkpt><trkpt lat="-20.406508089220498" lon="118.69907575522141"><ele>17.0</ele><time>2026-04-23T06:40:19Z</time></trkpt><trkpt lat="-20.406562808287294" lon="118.69938190958449"><ele>17.0</ele><time>2026-04-23T06:40:20Z</time></trkpt><trkpt lat="-20.406615226244767" lon="118.69968770436954"><ele>17.0</ele><time>2026-04-23T06:40:21Z</time></trkpt><trkpt lat="-20.406669123420997" lon="118.69999432543644"><ele>17.0</ele><time>2026-04-23T06:40:22.001Z</time></trkpt><trkpt lat="-20.40672465190454" lon="118.70029566139966"><ele>16.5</ele><time>2026-04-23T06:40:23.001Z</time></trkpt><trkpt lat="-20.406781639658327" lon="118.70059492970145"><ele>16.0</ele><time>2026-04-23T06:40:24.001Z</time></trkpt><trkpt lat="-20.406838025782267" lon="118.70089431869823"><ele>16.0</ele><time>2026-04-23T06:40:25.001Z</time></trkpt><trkpt lat="-20.406889833003525" lon="118.70119409716654"><ele>16.0</ele><time>2026-04-23T06:40:26.001Z</time></trkpt><trkpt lat="-20.40694332456234" lon="118.70149532693762"><ele>16.0</ele><time>2026-04-23T06:40:27.001Z</time></trkpt><trkpt lat="-20.406997966905045" lon="118.7017962642386"><ele>16.0</ele><time>2026-04-23T06:40:28.001Z</time></trkpt><trkpt lat="-20.40705174283005" lon="118.70209691242395"><ele>16.0</ele><time>2026-04-23T06:40:29.001Z</time></trkpt><trkpt lat="-20.407107220763372" lon="118.70239760525139"><ele>16.0</ele><time>2026-04-23T06:40:30.001Z</time></trkpt><trkpt lat="-20.40716250739014" lon="118.70270051105008"><ele>16.0</ele><time>2026-04-23T06:40:31.001Z</time></trkpt><trkpt lat="-20.40721742880896" lon="118.70300339089313"><ele>16.0</ele><time>2026-04-23T06:40:32.001Z</time></trkpt><trkpt lat="-20.4072717676083" lon="118.70330837348278"><ele>16.0</ele><time>2026-04-23T06:40:33.001Z</time></trkpt><trkpt lat="-20.407324311850044" lon="118.70361094241109"><ele>16.0</ele><time>2026-04-23T06:40:34.001Z</time></trkpt><trkpt lat="-20.407376529409976" lon="118.70391783286759"><ele>16.0</ele><time>2026-04-23T06:40:35.001Z</time></trkpt><trkpt lat="-20.407431129787653" lon="118.70423392251753"><ele>16.0</ele><time>2026-04-23T06:40:36.001Z</time></trkpt><trkpt lat="-20.40748718545998" lon="118.70455479526191"><ele>15.5</ele><time>2026-04-23T06:40:37.001Z</time></trkpt><trkpt lat="-20.40754330358649" lon="118.70487485824314"><ele>15.0</ele><time>2026-04-23T06:40:38.001Z</time></trkpt><trkpt lat="-20.4076005117055" lon="118.70518767510545"><ele>16.0</ele><time>2026-04-23T06:40:39.001Z</time></trkpt><trkpt lat="-20.407657441780735" lon="118.70549138199871"><ele>17.0</ele><time>2026-04-23T06:40:40.001Z</time></trkpt><trkpt lat="-20.407709127109506" lon="118.70577298801425"><ele>17.0</ele><time>2026-04-23T06:40:41.001Z</time></trkpt><trkpt lat="-20.407760195075333" lon="118.7060523790618"><ele>17.0</ele><time>2026-04-23T06:40:42.001Z</time></trkpt><trkpt lat="-20.407795655621015" lon="118.70633763103729"><ele>17.5</ele><time>2026-04-23T06:40:43.001Z</time></trkpt><trkpt lat="-20.407860917266127" lon="118.70661742172311"><ele>18.0</ele><time>2026-04-23T06:40:44.001Z</time></trkpt><trkpt lat="-20.407909014242403" lon="118.70690218368149"><ele>17.0</ele><time>2026-04-23T06:40:45.001Z</time></trkpt><trkpt lat="-20.407959011439925" lon="118.70718060607186"><ele>16.0</ele><time>2026-04-23T06:40:46.001Z</time></trkpt><trkpt lat="-20.408009561638515" lon="118.70745990173697"><ele>16.0</ele><time>2026-04-23T06:40:47.001Z</time></trkpt><trkpt lat="-20.408060078544345" lon="118.7077372391856"><ele>16.0</ele><time>2026-04-23T06:40:48.001Z</time></trkpt><trkpt lat="-20.40809381745212" lon="118.70802077929973"><ele>16.0</ele><time>2026-04-23T06:40:49.001Z</time></trkpt><trkpt lat="-20.408143908260907" lon="118.70829795186503"><ele>16.0</ele><time>2026-04-23T06:40:50.001Z</time></trkpt><trkpt lat="-20.40819425316547" lon="118.70857653041367"><ele>16.0</ele><time>2026-04-23T06:40:51.001Z</time></trkpt><trkpt lat="-20.408244544950445" lon="118.70885481504476"><ele>16.0</ele><time>2026-04-23T06:40:52.001Z</time></trkpt><trkpt lat="-20.408308539427267" lon="118.70913039237234"><ele>15.5</ele><time>2026-04-23T06:40:53.001Z</time></trkpt><trkpt lat="-20.408356612729246" lon="118.7094098413585"><ele>15.0</ele><time>2026-04-23T06:40:54.001Z</time></trkpt><trkpt lat="-20.40840702728197" lon="118.70969054825892"><ele>15.0</ele><time>2026-04-23T06:40:55.001Z</time></trkpt><trkpt lat="-20.40845960527035" lon="118.70997305140119"><ele>15.0</ele><time>2026-04-23T06:40:56.001Z</time></trkpt><trkpt lat="-20.408511843909725" lon="118.71025997037341"><ele>16.0</ele><time>2026-04-23T06:40:57.001Z</time></trkpt><trkpt lat="-20.408562864355087" lon="118.71054715397533"><ele>17.0</ele><time>2026-04-23T06:40:58.001Z</time></trkpt><trkpt lat="-20.408612635030945" lon="118.71083426511062"><ele>17.0</ele><time>2026-04-23T06:40:58.999Z</time></trkpt><trkpt lat="-20.408659569821527" lon="118.71112157540621"><ele>17.0</ele><time>2026-04-23T06:40:59.999Z</time></trkpt><trkpt lat="-20.408706314686263" lon="118.71140745616763"><ele>17.0</ele><time>2026-04-23T06:41:00.999Z</time></trkpt><trkpt lat="-20.40875710816702" lon="118.71168914859203"><ele>17.0</ele><time>2026-04-23T06:41:01.999Z</time></trkpt><trkpt lat="-20.408807497225006" lon="118.71197154729003"><ele>16.5</ele><time>2026-04-23T06:41:02.999Z</time></trkpt><trkpt lat="-20.408850622967652" lon="118.71225327402868"><ele>16.0</ele><time>2026-04-23T06:41:03.999Z</time></trkpt><trkpt lat="-20.408884580677842" lon="118.71252996706885"><ele>16.5</ele><time>2026-04-23T06:41:04.999Z</time></trkpt><trkpt lat="-20.408913220256824" lon="118.71280233231604"><ele>17.0</ele><time>2026-04-23T06:41:05.999Z</time></trkpt><trkpt lat="-20.40893090386075" lon="118.71307235651825"><ele>17.0</ele><time>2026-04-23T06:41:06.999Z</time></trkpt><trkpt lat="-20.40894053886474" lon="118.7133352823284"><ele>17.0</ele><time>2026-04-23T06:41:07.999Z</time></trkpt><trkpt lat="-20.408944179537666" lon="118.7135869807425"><ele>16.5</ele><time>2026-04-23T06:41:08.999Z</time></trkpt><trkpt lat="-20.408942693773984" lon="118.71383692007406"><ele>16.0</ele><time>2026-04-23T06:41:09.999Z</time></trkpt><trkpt lat="-20.40893725829122" lon="118.71408112552948"><ele>16.0</ele><time>2026-04-23T06:41:10.999Z</time></trkpt><trkpt lat="-20.40892634222761" lon="118.71432249005275"><ele>16.0</ele><time>2026-04-23T06:41:11.999Z</time></trkpt><trkpt lat="-20.408912688429698" lon="118.71455850658013"><ele>16.0</ele><time>2026-04-23T06:41:12.999Z</time></trkpt><trkpt lat="-20.408892222995114" lon="118.71479427616767"><ele>16.333333333333332</ele><time>2026-04-23T06:41:13.999Z</time></trkpt><trkpt lat="-20.408872239011217" lon="118.71503102162244"><ele>16.666666666666668</ele><time>2026-04-23T06:41:14.999Z</time></trkpt><trkpt lat="-20.40884756324309" lon="118.71526982595607"><ele>17.0</ele><time>2026-04-23T06:41:15.999Z</time></trkpt><trkpt lat="-20.408815828016458" lon="118.71550943353688"><ele>17.5</ele><time>2026-04-23T06:41:16.999Z</time></trkpt><trkpt lat="-20.408779484426752" lon="118.71574914239005"><ele>18.0</ele><time>2026-04-23T06:41:17.999Z</time></trkpt><trkpt lat="-20.40873412888039" lon="118.71598927892755"><ele>18.0</ele><time>2026-04-23T06:41:18.999Z</time></trkpt><trkpt lat="-20.40868505365143" lon="118.71622747760429"><ele>18.0</ele><time>2026-04-23T06:41:19.999Z</time></trkpt><trkpt lat="-20.40863564460412" lon="118.71646609516087"><ele>18.0</ele><time>2026-04-23T06:41:20.999Z</time></trkpt><trkpt lat="-20.40858590071612" lon="118.71670128649714"><ele>18.0</ele><time>2026-04-23T06:41:21.999Z</time></trkpt><trkpt lat="-20.408529442842383" lon="118.71693293868614"><ele>19.0</ele><time>2026-04-23T06:41:22.999Z</time></trkpt><trkpt lat="-20.408461962740223" lon="118.71716630476796"><ele>20.0</ele><time>2026-04-23T06:41:24Z</time></trkpt><trkpt lat="-20.408392077948598" lon="118.71739347930362"><ele>20.0</ele><time>2026-04-23T06:41:25Z</time></trkpt><trkpt lat="-20.408317333717058" lon="118.71762204483582"><ele>20.0</ele><time>2026-04-23T06:41:26Z</time></trkpt><trkpt lat="-20.408240128003747" lon="118.71784525865995"><ele>18.0</ele><time>2026-04-23T06:41:27Z</time></trkpt><trkpt lat="-20.408160591787247" lon="118.71807467725283"><ele>16.0</ele><time>2026-04-23T06:41:28Z</time></trkpt><trkpt lat="-20.408087077899335" lon="118.71830236432376"><ele>16.0</ele><time>2026-04-23T06:41:29Z</time></trkpt><trkpt lat="-20.40800663385303" lon="118.71853859298456"><ele>16.0</ele><time>2026-04-23T06:41:30Z</time></trkpt><trkpt lat="-20.407918725066153" lon="118.7187710955969"><ele>16.5</ele><time>2026-04-23T06:41:31Z</time></trkpt><trkpt lat="-20.40782674761109" lon="118.71899876740699"><ele>17.0</ele><time>2026-04-23T06:41:32Z</time></trkpt><trkpt lat="-20.407738180555434" lon="118.7192234522441"><ele>16.666666666666668</ele><time>2026-04-23T06:41:33Z</time></trkpt><trkpt lat="-20.407655597532937" lon="118.71943980907761"><ele>16.333333333333332</ele><time>2026-04-23T06:41:34Z</time></trkpt><trkpt lat="-20.407579262301486" lon="118.7196478018158"><ele>16.0</ele><time>2026-04-23T06:41:35Z</time></trkpt><trkpt lat="-20.407508192842855" lon="118.71985479013217"><ele>16.0</ele><time>2026-04-23T06:41:36Z</time></trkpt><trkpt lat="-20.407436556434305" lon="118.72006488678808"><ele>16.0</ele><time>2026-04-23T06:41:37Z</time></trkpt><trkpt lat="-20.40736244587591" lon="118.72027860150146"><ele>16.0</ele><time>2026-04-23T06:41:38Z</time></trkpt><trkpt lat="-20.407284778390483" lon="118.72049630487555"><ele>16.333333333333332</ele><time>2026-04-23T06:41:39Z</time></trkpt><trkpt lat="-20.407202390668274" lon="118.72071644656616"><ele>16.666666666666668</ele><time>2026-04-23T06:41:40Z</time></trkpt><trkpt lat="-20.407116601588704" lon="118.72094046502029"><ele>17.0</ele><time>2026-04-23T06:41:41Z</time></trkpt><trkpt lat="-20.40702721389089" lon="118.72116847428349"><ele>17.0</ele><time>2026-04-23T06:41:42Z</time></trkpt><trkpt lat="-20.406939134722293" lon="118.72139953666904"><ele>17.0</ele><time>2026-04-23T06:41:43Z</time></trkpt><trkpt lat="-20.406854623396715" lon="118.72163485456204"><ele>17.0</ele><time>2026-04-23T06:41:44Z</time></trkpt><trkpt lat="-20.406771377991696" lon="118.72187248723631"><ele>17.0</ele><time>2026-04-23T06:41:45Z</time></trkpt><trkpt lat="-20.40668838372927" lon="118.72211174003414"><ele>17.5</ele><time>2026-04-23T06:41:46Z</time></trkpt><trkpt lat="-20.406599611964257" lon="118.72236690485889"><ele>18.0</ele><time>2026-04-23T06:41:47Z</time></trkpt><trkpt lat="-20.406507182514428" lon="118.72262511099481"><ele>18.5</ele><time>2026-04-23T06:41:48Z</time></trkpt><trkpt lat="-20.40641784364226" lon="118.72288771823709"><ele>19.0</ele><time>2026-04-23T06:41:49Z</time></trkpt><trkpt lat="-20.406327076573568" lon="118.72316908539027"><ele>19.0</ele><time>2026-04-23T06:41:50Z</time></trkpt><trkpt lat="-20.40622730703591" lon="118.7234668984943"><ele>19.0</ele><time>2026-04-23T06:41:51Z</time></trkpt><trkpt lat="-20.406115721649112" lon="118.72378719815711"><ele>19.0</ele><time>2026-04-23T06:41:52Z</time></trkpt><trkpt lat="-20.405997464576803" lon="118.72412071658225"><ele>19.0</ele><time>2026-04-23T06:41:53Z</time></trkpt><trkpt lat="-20.405877317177183" lon="118.72446376136905"><ele>18.5</ele><time>2026-04-23T06:41:54Z</time></trkpt><trkpt lat="-20.40575464591946" lon="118.72480575047352"><ele>18.0</ele><time>2026-04-23T06:41:55Z</time></trkpt><trkpt lat="-20.405631693791587" lon="118.7251447785604"><ele>18.0</ele><time>2026-04-23T06:41:56Z</time></trkpt><trkpt lat="-20.405511261154338" lon="118.7254810476969"><ele>18.0</ele><time>2026-04-23T06:41:57Z</time></trkpt><trkpt lat="-20.405395631471265" lon="118.72580579196178"><ele>17.5</ele><time>2026-04-23T06:41:58Z</time></trkpt><trkpt lat="-20.405277249819147" lon="118.72611827533959"><ele>17.0</ele><time>2026-04-23T06:41:59Z</time></trkpt><trkpt lat="-20.40515602876328" lon="118.72641990401434"><ele>17.0</ele><time>2026-04-23T06:42:00Z</time></trkpt><trkpt lat="-20.405032779142214" lon="118.72672524434344"><ele>17.0</ele><time>2026-04-23T06:42:01Z</time></trkpt><trkpt lat="-20.4049143883454" lon="118.72702463552066"><ele>17.5</ele><time>2026-04-23T06:42:02Z</time></trkpt><trkpt lat="-20.40480181245039" lon="118.72732116760672"><ele>18.0</ele><time>2026-04-23T06:42:03Z</time></trkpt><trkpt lat="-20.404694340755366" lon="118.72761193329009"><ele>17.5</ele><time>2026-04-23T06:42:04Z</time></trkpt><trkpt lat="-20.404590503219897" lon="118.72790174210215"><ele>17.0</ele><time>2026-04-23T06:42:05Z</time></trkpt><trkpt lat="-20.4044907081578" lon="118.72818873611341"><ele>17.0</ele><time>2026-04-23T06:42:06Z</time></trkpt><trkpt lat="-20.40439058230887" lon="118.72847341669268"><ele>17.0</ele><time>2026-04-23T06:42:07Z</time></trkpt><trkpt lat="-20.40428858751604" lon="118.7287544418694"><ele>17.0</ele><time>2026-04-23T06:42:08Z</time></trkpt><trkpt lat="-20.4041838402471" lon="118.7290356531183"><ele>17.0</ele><time>2026-04-23T06:42:09Z</time></trkpt><trkpt lat="-20.404082862642152" lon="118.72930982468458"><ele>18.0</ele><time>2026-04-23T06:42:10Z</time></trkpt><trkpt lat="-20.40397999207884" lon="118.7295897315882"><ele>19.0</ele><time>2026-04-23T06:42:11Z</time></trkpt><trkpt lat="-20.403878124722834" lon="118.72987337357156"><ele>18.5</ele><time>2026-04-23T06:42:12Z</time></trkpt><trkpt lat="-20.40377435757109" lon="118.73016309169265"><ele>18.0</ele><time>2026-04-23T06:42:13Z</time></trkpt><trkpt lat="-20.403667999123982" lon="118.73045783503079"><ele>18.0</ele><time>2026-04-23T06:42:14Z</time></trkpt><trkpt lat="-20.40356084430933" lon="118.73075408247804"><ele>18.0</ele><time>2026-04-23T06:42:15Z</time></trkpt><trkpt lat="-20.40345668356483" lon="118.73104907711921"><ele>19.5</ele><time>2026-04-23T06:42:16Z</time></trkpt><trkpt lat="-20.40335168849045" lon="118.73134497175641"><ele>21.0</ele><time>2026-04-23T06:42:17Z</time></trkpt><trkpt lat="-20.403246802340703" lon="118.73163798935965"><ele>20.0</ele><time>2026-04-23T06:42:18Z</time></trkpt><trkpt lat="-20.403139190565796" lon="118.73193007559699"><ele>19.0</ele><time>2026-04-23T06:42:19Z</time></trkpt><trkpt lat="-20.403032091549065" lon="118.73222318099103"><ele>19.0</ele><time>2026-04-23T06:42:20Z</time></trkpt><trkpt lat="-20.402928106699466" lon="118.73251736690507"><ele>19.0</ele><time>2026-04-23T06:42:21Z</time></trkpt><trkpt lat="-20.40282395581281" lon="118.7328088879133"><ele>19.0</ele><time>2026-04-23T06:42:22Z</time></trkpt><trkpt lat="-20.40271710735777" lon="118.73310238096124"><ele>19.0</ele><time>2026-04-23T06:42:23Z</time></trkpt><trkpt lat="-20.402609661296047" lon="118.73339808246361"><ele>19.0</ele><time>2026-04-23T06:42:24Z</time></trkpt><trkpt lat="-20.402503861798536" lon="118.73369090715381"><ele>19.0</ele><time>2026-04-23T06:42:25Z</time></trkpt><trkpt lat="-20.402396079223195" lon="118.73398359165994"><ele>19.0</ele><time>2026-04-23T06:42:26Z</time></trkpt><trkpt lat="-20.40228707694243" lon="118.73427953399899"><ele>19.0</ele><time>2026-04-23T06:42:27Z</time></trkpt><trkpt lat="-20.402181270471953" lon="118.73457771778418"><ele>18.5</ele><time>2026-04-23T06:42:28.001Z</time></trkpt><trkpt lat="-20.402073875489027" lon="118.7348775016673"><ele>18.0</ele><time>2026-04-23T06:42:29.001Z</time></trkpt><trkpt lat="-20.40196776836974" lon="118.73517726960293"><ele>18.5</ele><time>2026-04-23T06:42:30.001Z</time></trkpt><trkpt lat="-20.40186157122851" lon="118.73548035858533"><ele>19.0</ele><time>2026-04-23T06:42:31.001Z</time></trkpt><trkpt lat="-20.4017539227497" lon="118.73578250403396"><ele>19.0</ele><time>2026-04-23T06:42:32.001Z</time></trkpt><trkpt lat="-20.40164333349474" lon="118.73608523721519"><ele>19.0</ele><time>2026-04-23T06:42:33.001Z</time></trkpt><trkpt lat="-20.401532278097548" lon="118.7363877509949"><ele>19.0</ele><time>2026-04-23T06:42:34.001Z</time></trkpt><trkpt lat="-20.401423355931986" lon="118.73669355903476"><ele>19.0</ele><time>2026-04-23T06:42:35.001Z</time></trkpt><trkpt lat="-20.40131573100389" lon="118.73700007633701"><ele>19.0</ele><time>2026-04-23T06:42:36.001Z</time></trkpt><trkpt lat="-20.401210840086964" lon="118.73730037218179"><ele>19.0</ele><time>2026-04-23T06:42:37.001Z</time></trkpt><trkpt lat="-20.40110611062577" lon="118.73759867689462"><ele>20.0</ele><time>2026-04-23T06:42:38.001Z</time></trkpt><trkpt lat="-20.401000576106753" lon="118.73789531105757"><ele>21.0</ele><time>2026-04-23T06:42:39.001Z</time></trkpt><trkpt lat="-20.400888309843083" lon="118.73819635729579"><ele>21.0</ele><time>2026-04-23T06:42:40.001Z</time></trkpt><trkpt lat="-20.40077521228322" lon="118.73849894096868"><ele>21.0</ele><time>2026-04-23T06:42:41.001Z</time></trkpt><trkpt lat="-20.400663192709597" lon="118.73880379176043"><ele>21.0</ele><time>2026-04-23T06:42:42.001Z</time></trkpt><trkpt lat="-20.40055511880366" lon="118.73910879121499"><ele>21.0</ele><time>2026-04-23T06:42:43.001Z</time></trkpt><trkpt lat="-20.400447292741518" lon="118.73941763801459"><ele>21.0</ele><time>2026-04-23T06:42:44.001Z</time></trkpt><trkpt lat="-20.40033819151576" lon="118.73972764011694"><ele>21.0</ele><time>2026-04-23T06:42:45.001Z</time></trkpt><trkpt lat="-20.400227788021844" lon="118.7400376463006"><ele>20.5</ele><time>2026-04-23T06:42:46.001Z</time></trkpt><trkpt lat="-20.400117475719085" lon="118.74034373747811"><ele>20.0</ele><time>2026-04-23T06:42:47.001Z</time></trkpt><trkpt lat="-20.4000088018711" lon="118.74065113940094"><ele>20.0</ele><time>2026-04-23T06:42:48.001Z</time></trkpt><trkpt lat="-20.399899525528667" lon="118.74096135888614"><ele>20.0</ele><time>2026-04-23T06:42:49.001Z</time></trkpt><trkpt lat="-20.39979203400413" lon="118.74126594803265"><ele>20.0</ele><time>2026-04-23T06:42:50.001Z</time></trkpt><trkpt lat="-20.399684492664353" lon="118.74156980980554"><ele>20.0</ele><time>2026-04-23T06:42:51.001Z</time></trkpt><trkpt lat="-20.39957518500222" lon="118.74187470690161"><ele>19.0</ele><time>2026-04-23T06:42:52.001Z</time></trkpt><trkpt lat="-20.39946630327536" lon="118.74217987992692"><ele>18.0</ele><time>2026-04-23T06:42:53.001Z</time></trkpt><trkpt lat="-20.399358544094365" lon="118.74248746515806"><ele>17.5</ele><time>2026-04-23T06:42:54.001Z</time></trkpt><trkpt lat="-20.399251330019077" lon="118.7427931644793"><ele>17.0</ele><time>2026-04-23T06:42:55.001Z</time></trkpt><trkpt lat="-20.39914234374764" lon="118.74310192790918"><ele>17.0</ele><time>2026-04-23T06:42:56.001Z</time></trkpt><trkpt lat="-20.399031935405045" lon="118.74341274596594"><ele>17.0</ele><time>2026-04-23T06:42:57.001Z</time></trkpt><trkpt lat="-20.398921264235724" lon="118.74372576029853"><ele>17.5</ele><time>2026-04-23T06:42:58.001Z</time></trkpt><trkpt lat="-20.398810513583484" lon="118.74403745550508"><ele>18.0</ele><time>2026-04-23T06:42:59.001Z</time></trkpt><trkpt lat="-20.398701628909784" lon="118.7443487733746"><ele>18.5</ele><time>2026-04-23T06:43:00.001Z</time></trkpt><trkpt lat="-20.398593955908343" lon="118.74466121860125"><ele>19.0</ele><time>2026-04-23T06:43:01.001Z</time></trkpt><trkpt lat="-20.398485952269137" lon="118.74497164605155"><ele>19.0</ele><time>2026-04-23T06:43:02.001Z</time></trkpt><trkpt lat="-20.398376914436447" lon="118.74527816362702"><ele>19.0</ele><time>2026-04-23T06:43:03.001Z</time></trkpt><trkpt lat="-20.398266041091304" lon="118.74558534702938"><ele>19.0</ele><time>2026-04-23T06:43:04.001Z</time></trkpt><trkpt lat="-20.39815585695085" lon="118.74589176100781"><ele>19.0</ele><time>2026-04-23T06:43:05Z</time></trkpt><trkpt lat="-20.398047095157956" lon="118.74619240067511"><ele>19.5</ele><time>2026-04-23T06:43:06Z</time></trkpt><trkpt lat="-20.397942234850444" lon="118.74648683115272"><ele>20.0</ele><time>2026-04-23T06:43:07Z</time></trkpt><trkpt lat="-20.397839434453793" lon="118.74677931963234"><ele>20.0</ele><time>2026-04-23T06:43:08Z</time></trkpt><trkpt lat="-20.39773730804866" lon="118.74707315601668"><ele>20.0</ele><time>2026-04-23T06:43:09Z</time></trkpt><trkpt lat="-20.39763481626351" lon="118.7473649699572"><ele>20.0</ele><time>2026-04-23T06:43:10Z</time></trkpt><trkpt lat="-20.3975297657684" lon="118.7476572773535"><ele>20.0</ele><time>2026-04-23T06:43:11Z</time></trkpt><trkpt lat="-20.397423051062702" lon="118.74795483616904"><ele>20.0</ele><time>2026-04-23T06:43:12Z</time></trkpt><trkpt lat="-20.397320667252792" lon="118.74824929011238"><ele>20.0</ele><time>2026-04-23T06:43:13Z</time></trkpt><trkpt lat="-20.397215548632836" lon="118.74854670000977"><ele>20.0</ele><time>2026-04-23T06:43:14Z</time></trkpt><trkpt lat="-20.397108680558304" lon="118.74884425775126"><ele>20.0</ele><time>2026-04-23T06:43:15Z</time></trkpt><trkpt lat="-20.397002029564536" lon="118.74914075939783"><ele>20.0</ele><time>2026-04-23T06:43:16Z</time></trkpt><trkpt lat="-20.396894597003158" lon="118.74944208174557"><ele>20.0</ele><time>2026-04-23T06:43:17Z</time></trkpt><trkpt lat="-20.396789822619144" lon="118.74974049348319"><ele>20.0</ele><time>2026-04-23T06:43:18Z</time></trkpt><trkpt lat="-20.396682572143195" lon="118.75004437837353"><ele>20.0</ele><time>2026-04-23T06:43:19Z</time></trkpt><trkpt lat="-20.396576713553365" lon="118.75034690793774"><ele>20.5</ele><time>2026-04-23T06:43:20Z</time></trkpt><trkpt lat="-20.396468381251452" lon="118.75065395496603"><ele>21.0</ele><time>2026-04-23T06:43:21Z</time></trkpt><trkpt lat="-20.39636196583123" lon="118.75095784109162"><ele>21.0</ele><time>2026-04-23T06:43:22Z</time></trkpt><trkpt lat="-20.396253872341447" lon="118.75126513429346"><ele>21.0</ele><time>2026-04-23T06:43:23Z</time></trkpt><trkpt lat="-20.39614255181626" lon="118.7515741604396"><ele>20.5</ele><time>2026-04-23T06:43:24Z</time></trkpt><trkpt lat="-20.396030836983638" lon="118.75188526096763"><ele>20.0</ele><time>2026-04-23T06:43:25Z</time></trkpt><trkpt lat="-20.39591960564927" lon="118.7521952547108"><ele>20.0</ele><time>2026-04-23T06:43:26Z</time></trkpt><trkpt lat="-20.395812884462533" lon="118.75250319912304"><ele>20.0</ele><time>2026-04-23T06:43:27Z</time></trkpt><trkpt lat="-20.395707131870573" lon="118.75280639718044"><ele>20.5</ele><time>2026-04-23T06:43:28Z</time></trkpt><trkpt lat="-20.395600621620957" lon="118.75311009883467"><ele>21.0</ele><time>2026-04-23T06:43:29Z</time></trkpt><trkpt lat="-20.39549434284116" lon="118.75340916711205"><ele>21.0</ele><time>2026-04-23T06:43:30Z</time></trkpt><trkpt lat="-20.395389561760304" lon="118.75370752659445"><ele>21.0</ele><time>2026-04-23T06:43:31Z</time></trkpt><trkpt lat="-20.395287528725518" lon="118.75400167636793"><ele>21.0</ele><time>2026-04-23T06:43:32Z</time></trkpt><trkpt lat="-20.3951845754885" lon="118.75429496893099"><ele>21.0</ele><time>2026-04-23T06:43:33Z</time></trkpt><trkpt lat="-20.39508185395798" lon="118.75458747938767"><ele>19.5</ele><time>2026-04-23T06:43:34Z</time></trkpt><trkpt lat="-20.39497791188741" lon="118.754877810962"><ele>18.0</ele><time>2026-04-23T06:43:35Z</time></trkpt><trkpt lat="-20.39487451086929" lon="118.75516473942818"><ele>19.0</ele><time>2026-04-23T06:43:36Z</time></trkpt><trkpt lat="-20.394773655616614" lon="118.75545295735849"><ele>20.0</ele><time>2026-04-23T06:43:37Z</time></trkpt><trkpt lat="-20.394675747522328" lon="118.7557422481415"><ele>20.0</ele><time>2026-04-23T06:43:38Z</time></trkpt><trkpt lat="-20.39457671460274" lon="118.75603199888694"><ele>20.0</ele><time>2026-04-23T06:43:39Z</time></trkpt><trkpt lat="-20.394476369460662" lon="118.75632038796279"><ele>20.0</ele><time>2026-04-23T06:43:40Z</time></trkpt><trkpt lat="-20.394374852795384" lon="118.75661212276367"><ele>20.0</ele><time>2026-04-23T06:43:41Z</time></trkpt><trkpt lat="-20.394271234693793" lon="118.75690384860643"><ele>20.0</ele><time>2026-04-23T06:43:42Z</time></trkpt><trkpt lat="-20.39416627588105" lon="118.75719406352616"><ele>20.0</ele><time>2026-04-23T06:43:43Z</time></trkpt><trkpt lat="-20.39405879581245" lon="118.75748533729924"><ele>21.0</ele><time>2026-04-23T06:43:44Z</time></trkpt><trkpt lat="-20.393953234188093" lon="118.75777911798353"><ele>22.0</ele><time>2026-04-23T06:43:45Z</time></trkpt><trkpt lat="-20.393847405697702" lon="118.7580708230824"><ele>21.0</ele><time>2026-04-23T06:43:46Z</time></trkpt><trkpt lat="-20.393743669768046" lon="118.75836314308155"><ele>20.0</ele><time>2026-04-23T06:43:47Z</time></trkpt><trkpt lat="-20.39364106757884" lon="118.75865476978842"><ele>20.0</ele><time>2026-04-23T06:43:48Z</time></trkpt><trkpt lat="-20.39353740961025" lon="118.758945011169"><ele>20.0</ele><time>2026-04-23T06:43:49Z</time></trkpt><trkpt lat="-20.393432104184598" lon="118.75923862113267"><ele>20.0</ele><time>2026-04-23T06:43:50Z</time></trkpt><trkpt lat="-20.393327324517557" lon="118.75952916043701"><ele>20.0</ele><time>2026-04-23T06:43:51Z</time></trkpt><trkpt lat="-20.3932267343538" lon="118.75982046180445"><ele>20.0</ele><time>2026-04-23T06:43:52Z</time></trkpt><trkpt lat="-20.393126300770277" lon="118.76010887905075"><ele>20.0</ele><time>2026-04-23T06:43:53Z</time></trkpt><trkpt lat="-20.39302447655309" lon="118.76039722325291"><ele>20.0</ele><time>2026-04-23T06:43:54Z</time></trkpt><trkpt lat="-20.392921571618672" lon="118.76068530681002"><ele>20.0</ele><time>2026-04-23T06:43:55Z</time></trkpt><trkpt lat="-20.392819115626832" lon="118.7609729162848"><ele>20.5</ele><time>2026-04-23T06:43:56Z</time></trkpt><trkpt lat="-20.392718952031938" lon="118.76125792558751"><ele>21.0</ele><time>2026-04-23T06:43:57.001Z</time></trkpt><trkpt lat="-20.392617256908473" lon="118.76154765317085"><ele>21.0</ele><time>2026-04-23T06:43:58.001Z</time></trkpt><trkpt lat="-20.392517716802924" lon="118.76183246833837"><ele>21.0</ele><time>2026-04-23T06:43:59.001Z</time></trkpt><trkpt lat="-20.392418885941723" lon="118.7621160550271"><ele>21.0</ele><time>2026-04-23T06:44:00.001Z</time></trkpt><trkpt lat="-20.39231843415989" lon="118.76240174136744"><ele>21.0</ele><time>2026-04-23T06:44:01.001Z</time></trkpt><trkpt lat="-20.392218201650852" lon="118.76268622155536"><ele>20.5</ele><time>2026-04-23T06:44:02.001Z</time></trkpt><trkpt lat="-20.39211770598275" lon="118.76297311451923"><ele>20.0</ele><time>2026-04-23T06:44:03.001Z</time></trkpt><trkpt lat="-20.39201640123394" lon="118.76326257391752"><ele>19.5</ele><time>2026-04-23T06:44:04.001Z</time></trkpt><trkpt lat="-20.391914864978833" lon="118.76355394439024"><ele>19.0</ele><time>2026-04-23T06:44:05.001Z</time></trkpt><trkpt lat="-20.391814228096408" lon="118.76384822616056"><ele>19.0</ele><time>2026-04-23T06:44:06.001Z</time></trkpt><trkpt lat="-20.391712496116654" lon="118.7641446033158"><ele>19.0</ele><time>2026-04-23T06:44:07.001Z</time></trkpt><trkpt lat="-20.391608993521785" lon="118.76444469485783"><ele>19.5</ele><time>2026-04-23T06:44:08.001Z</time></trkpt><trkpt lat="-20.391507089667694" lon="118.76474191007476"><ele>20.0</ele><time>2026-04-23T06:44:09.001Z</time></trkpt><trkpt lat="-20.391400506355893" lon="118.76503971199752"><ele>20.5</ele><time>2026-04-23T06:44:10.001Z</time></trkpt><trkpt lat="-20.391293387632718" lon="118.76533494309834"><ele>21.0</ele><time>2026-04-23T06:44:11.001Z</time></trkpt><trkpt lat="-20.391187144487507" lon="118.7656293328957"><ele>21.0</ele><time>2026-04-23T06:44:12.001Z</time></trkpt><trkpt lat="-20.391081220937995" lon="118.76592434513489"><ele>21.0</ele><time>2026-04-23T06:44:13.001Z</time></trkpt><trkpt lat="-20.39097561155608" lon="118.76622240777866"><ele>21.0</ele><time>2026-04-23T06:44:14.001Z</time></trkpt><trkpt lat="-20.39086779822209" lon="118.76651732191733"><ele>21.0</ele><time>2026-04-23T06:44:15.001Z</time></trkpt><trkpt lat="-20.39076010290574" lon="118.76681395462585"><ele>20.5</ele><time>2026-04-23T06:44:16.001Z</time></trkpt><trkpt lat="-20.390653886399406" lon="118.76710623465148"><ele>20.0</ele><time>2026-04-23T06:44:17.001Z</time></trkpt><trkpt lat="-20.390549334768078" lon="118.76739483135488"><ele>20.0</ele><time>2026-04-23T06:44:18.001Z</time></trkpt><trkpt lat="-20.390445976345536" lon="118.767681199525"><ele>20.0</ele><time>2026-04-23T06:44:19.001Z</time></trkpt><trkpt lat="-20.39034592852602" lon="118.76796482107119"><ele>20.5</ele><time>2026-04-23T06:44:20.001Z</time></trkpt><trkpt lat="-20.39024648096268" lon="118.76824560854402"><ele>21.0</ele><time>2026-04-23T06:44:21.001Z</time></trkpt><trkpt lat="-20.390147604481772" lon="118.76852572106824"><ele>21.0</ele><time>2026-04-23T06:44:22.001Z</time></trkpt><trkpt lat="-20.390049242541277" lon="118.76880261859672"><ele>21.0</ele><time>2026-04-23T06:44:23.001Z</time></trkpt><trkpt lat="-20.389950713167956" lon="118.76908136067453"><ele>21.0</ele><time>2026-04-23T06:44:24.001Z</time></trkpt><trkpt lat="-20.389853841687405" lon="118.7693598611062"><ele>21.0</ele><time>2026-04-23T06:44:25.001Z</time></trkpt><trkpt lat="-20.389757004036664" lon="118.76964173888241"><ele>21.0</ele><time>2026-04-23T06:44:26.001Z</time></trkpt><trkpt lat="-20.389658786418245" lon="118.76992359848298"><ele>21.0</ele><time>2026-04-23T06:44:27.001Z</time></trkpt><trkpt lat="-20.38955734251879" lon="118.77021011883365"><ele>21.5</ele><time>2026-04-23T06:44:28.001Z</time></trkpt><trkpt lat="-20.389454055743787" lon="118.77049783817583"><ele>22.0</ele><time>2026-04-23T06:44:29.001Z</time></trkpt><trkpt lat="-20.389354181699353" lon="118.77078535378108"><ele>22.0</ele><time>2026-04-23T06:44:30.001Z</time></trkpt><trkpt lat="-20.38925761735462" lon="118.77106717979926"><ele>22.0</ele><time>2026-04-23T06:44:31.001Z</time></trkpt><trkpt lat="-20.389166500304647" lon="118.77133362291842"><ele>22.0</ele><time>2026-04-23T06:44:32.001Z</time></trkpt><trkpt lat="-20.389074936582197" lon="118.77160152224643"><ele>22.0</ele><time>2026-04-23T06:44:33.001Z</time></trkpt><trkpt lat="-20.38898034967708" lon="118.7718778160007"><ele>21.5</ele><time>2026-04-23T06:44:34.001Z</time></trkpt><trkpt lat="-20.38888231448222" lon="118.7721591693405"><ele>21.0</ele><time>2026-04-23T06:44:35.001Z</time></trkpt><trkpt lat="-20.388783563602548" lon="118.7724433229734"><ele>22.0</ele><time>2026-04-23T06:44:36.001Z</time></trkpt><trkpt lat="-20.38868212187304" lon="118.77273120030755"><ele>23.0</ele><time>2026-04-23T06:44:37.001Z</time></trkpt><trkpt lat="-20.388580151082117" lon="118.77301967905748"><ele>23.0</ele><time>2026-04-23T06:44:38.001Z</time></trkpt><trkpt lat="-20.38847481880284" lon="118.77330631851692"><ele>23.0</ele><time>2026-04-23T06:44:39.001Z</time></trkpt><trkpt lat="-20.388370316703842" lon="118.77359213296104"><ele>22.0</ele><time>2026-04-23T06:44:40.001Z</time></trkpt><trkpt lat="-20.388267742053323" lon="118.77387607458601"><ele>21.0</ele><time>2026-04-23T06:44:41.001Z</time></trkpt><trkpt lat="-20.388167479771404" lon="118.77415632894082"><ele>21.0</ele><time>2026-04-23T06:44:42.001Z</time></trkpt><trkpt lat="-20.388068964200844" lon="118.77443331741257"><ele>21.0</ele><time>2026-04-23T06:44:43.001Z</time></trkpt><trkpt lat="-20.387971588641253" lon="118.77471097079886"><ele>21.0</ele><time>2026-04-23T06:44:44.001Z</time></trkpt><trkpt lat="-20.387873430204063" lon="118.774989643953"><ele>21.0</ele><time>2026-04-23T06:44:45.001Z</time></trkpt><trkpt lat="-20.387775402870073" lon="118.77526763995027"><ele>21.5</ele><time>2026-04-23T06:44:46.001Z</time></trkpt><trkpt lat="-20.387680208642678" lon="118.77554470815834"><ele>22.0</ele><time>2026-04-23T06:44:47.001Z</time></trkpt><trkpt lat="-20.387584896557776" lon="118.77582022436735"><ele>22.0</ele><time>2026-04-23T06:44:48.001Z</time></trkpt><trkpt lat="-20.38749060112133" lon="118.77609137240441"><ele>22.0</ele><time>2026-04-23T06:44:49.001Z</time></trkpt><trkpt lat="-20.38739413819395" lon="118.77636361323563"><ele>22.0</ele><time>2026-04-23T06:44:50.001Z</time></trkpt><trkpt lat="-20.387296144637467" lon="118.77663492509112"><ele>22.0</ele><time>2026-04-23T06:44:51.001Z</time></trkpt><trkpt lat="-20.38719848871974" lon="118.776905575174"><ele>22.0</ele><time>2026-04-23T06:44:52.001Z</time></trkpt><trkpt lat="-20.387101268855112" lon="118.7771816678459"><ele>22.0</ele><time>2026-04-23T06:44:53.001Z</time></trkpt><trkpt lat="-20.38700586336948" lon="118.77745408556018"><ele>22.5</ele><time>2026-04-23T06:44:54.001Z</time></trkpt><trkpt lat="-20.38690948351488" lon="118.77772776602453"><ele>23.0</ele><time>2026-04-23T06:44:55.001Z</time></trkpt><trkpt lat="-20.386812582319784" lon="118.77800093826534"><ele>23.0</ele><time>2026-04-23T06:44:56.001Z</time></trkpt><trkpt lat="-20.38671597576215" lon="118.77827075401714"><ele>23.0</ele><time>2026-04-23T06:44:57.001Z</time></trkpt><trkpt lat="-20.386619362167853" lon="118.77853912282573"><ele>21.5</ele><time>2026-04-23T06:44:58.001Z</time></trkpt><trkpt lat="-20.38652796512945" lon="118.77879997073752"><ele>20.0</ele><time>2026-04-23T06:44:59.001Z</time></trkpt><trkpt lat="-20.38643865814707" lon="118.77906044590205"><ele>20.0</ele><time>2026-04-23T06:45:00.001Z</time></trkpt><trkpt lat="-20.386352037792925" lon="118.77932008769466"><ele>20.0</ele><time>2026-04-23T06:45:01.001Z</time></trkpt><trkpt lat="-20.38626027573935" lon="118.77957677018945"><ele>20.5</ele><time>2026-04-23T06:45:02.002Z</time></trkpt><trkpt lat="-20.386165344240595" lon="118.77984371726613"><ele>21.0</ele><time>2026-04-23T06:45:03.002Z</time></trkpt><trkpt lat="-20.386073491025858" lon="118.78011433456905"><ele>22.5</ele><time>2026-04-23T06:45:04.002Z</time></trkpt><trkpt lat="-20.385987555921762" lon="118.78039052655933"><ele>24.0</ele><time>2026-04-23T06:45:05.002Z</time></trkpt><trkpt lat="-20.385907373639025" lon="118.78067559834864"><ele>24.0</ele><time>2026-04-23T06:45:06.002Z</time></trkpt><trkpt lat="-20.385833421146096" lon="118.78096614203852"><ele>24.0</ele><time>2026-04-23T06:45:07.002Z</time></trkpt><trkpt lat="-20.38576666873484" lon="118.78126029689939"><ele>24.0</ele><time>2026-04-23T06:45:08.002Z</time></trkpt><trkpt lat="-20.385707188594253" lon="118.78155809190301"><ele>24.0</ele><time>2026-04-23T06:45:09.002Z</time></trkpt><trkpt lat="-20.38565406402308" lon="118.78185961864138"><ele>24.0</ele><time>2026-04-23T06:45:10.002Z</time></trkpt><trkpt lat="-20.385606672085196" lon="118.78216940170336"><ele>24.0</ele><time>2026-04-23T06:45:11Z</time></trkpt><trkpt lat="-20.38556832053774" lon="118.78248369570096"><ele>23.0</ele><time>2026-04-23T06:45:12Z</time></trkpt><trkpt lat="-20.385538108097023" lon="118.78279842207525"><ele>22.0</ele><time>2026-04-23T06:45:13Z</time></trkpt><trkpt lat="-20.385515846207667" lon="118.78311443078584"><ele>22.0</ele><time>2026-04-23T06:45:14Z</time></trkpt><trkpt lat="-20.385502683523118" lon="118.78343311693796"><ele>22.0</ele><time>2026-04-23T06:45:15Z</time></trkpt><trkpt lat="-20.38549792559609" lon="118.78375065583252"><ele>22.0</ele><time>2026-04-23T06:45:16Z</time></trkpt><trkpt lat="-20.385498856841934" lon="118.78407086410284"><ele>22.0</ele><time>2026-04-23T06:45:17Z</time></trkpt><trkpt lat="-20.385509731093034" lon="118.78439446132793"><ele>21.5</ele><time>2026-04-23T06:45:18Z</time></trkpt><trkpt lat="-20.38553179466358" lon="118.7847152945567"><ele>21.0</ele><time>2026-04-23T06:45:19Z</time></trkpt><trkpt lat="-20.385545599720462" lon="118.78503904929367"><ele>21.5</ele><time>2026-04-23T06:45:20Z</time></trkpt><trkpt lat="-20.385597077179728" lon="118.7853596938399"><ele>22.0</ele><time>2026-04-23T06:45:21Z</time></trkpt><trkpt lat="-20.385633797725056" lon="118.78568834527186"><ele>22.0</ele><time>2026-04-23T06:45:22Z</time></trkpt><trkpt lat="-20.38567577980083" lon="118.78601004711298"><ele>22.0</ele><time>2026-04-23T06:45:23Z</time></trkpt><trkpt lat="-20.385721446519963" lon="118.78632495752109"><ele>22.0</ele><time>2026-04-23T06:45:24Z</time></trkpt><trkpt lat="-20.38576191859998" lon="118.7866392472649"><ele>22.0</ele><time>2026-04-23T06:45:25Z</time></trkpt><trkpt lat="-20.385794830792747" lon="118.78694934734989"><ele>22.0</ele><time>2026-04-23T06:45:26Z</time></trkpt><trkpt lat="-20.385829466133867" lon="118.78725754476628"><ele>22.0</ele><time>2026-04-23T06:45:27Z</time></trkpt><trkpt lat="-20.38586735882905" lon="118.78756351157537"><ele>21.5</ele><time>2026-04-23T06:45:28Z</time></trkpt><trkpt lat="-20.38590483226648" lon="118.78786616759673"><ele>21.0</ele><time>2026-04-23T06:45:29Z</time></trkpt><trkpt lat="-20.385941039952165" lon="118.78816312855272"><ele>21.0</ele><time>2026-04-23T06:45:30Z</time></trkpt><trkpt lat="-20.385974690628334" lon="118.78845764733977"><ele>21.0</ele><time>2026-04-23T06:45:31Z</time></trkpt><trkpt lat="-20.38600897578289" lon="118.78875247111894"><ele>21.0</ele><time>2026-04-23T06:45:32Z</time></trkpt><trkpt lat="-20.386044597829432" lon="118.78905421963817"><ele>21.0</ele><time>2026-04-23T06:45:33Z</time></trkpt><trkpt lat="-20.386079967868316" lon="118.78935767903434"><ele>22.5</ele><time>2026-04-23T06:45:34Z</time></trkpt><trkpt lat="-20.386114164839974" lon="118.78966849894198"><ele>24.0</ele><time>2026-04-23T06:45:35Z</time></trkpt><trkpt lat="-20.386153309514544" lon="118.78997760435094"><ele>22.5</ele><time>2026-04-23T06:45:36Z</time></trkpt><trkpt lat="-20.38619376098501" lon="118.79029048632654"><ele>21.0</ele><time>2026-04-23T06:45:37Z</time></trkpt><trkpt lat="-20.38623397361924" lon="118.79060132597736"><ele>21.0</ele><time>2026-04-23T06:45:38Z</time></trkpt><trkpt lat="-20.386272389572966" lon="118.79091125551653"><ele>21.0</ele><time>2026-04-23T06:45:39Z</time></trkpt><trkpt lat="-20.386310858202265" lon="118.79122324894213"><ele>21.0</ele><time>2026-04-23T06:45:40Z</time></trkpt><trkpt lat="-20.386349601286454" lon="118.79153136850287"><ele>21.0</ele><time>2026-04-23T06:45:41Z</time></trkpt><trkpt lat="-20.38638613865005" lon="118.79184110831676"><ele>21.0</ele><time>2026-04-23T06:45:42Z</time></trkpt><trkpt lat="-20.386421297311927" lon="118.79214751710548"><ele>21.0</ele><time>2026-04-23T06:45:43Z</time></trkpt><trkpt lat="-20.38645754879161" lon="118.79245540432346"><ele>21.5</ele><time>2026-04-23T06:45:44Z</time></trkpt><trkpt lat="-20.38649418174587" lon="118.79275842137241"><ele>22.0</ele><time>2026-04-23T06:45:45Z</time></trkpt><trkpt lat="-20.386529983459273" lon="118.79305925087057"><ele>22.0</ele><time>2026-04-23T06:45:46Z</time></trkpt><trkpt lat="-20.386566333011977" lon="118.79336108681902"><ele>22.0</ele><time>2026-04-23T06:45:47Z</time></trkpt><trkpt lat="-20.386603598250566" lon="118.79366348295883"><ele>22.0</ele><time>2026-04-23T06:45:48Z</time></trkpt><trkpt lat="-20.386642315997474" lon="118.79396685179046"><ele>22.0</ele><time>2026-04-23T06:45:49Z</time></trkpt><trkpt lat="-20.386680780712492" lon="118.79426588002494"><ele>22.5</ele><time>2026-04-23T06:45:50Z</time></trkpt><trkpt lat="-20.386718048087154" lon="118.79455939631315"><ele>23.0</ele><time>2026-04-23T06:45:51Z</time></trkpt><trkpt lat="-20.38675513654803" lon="118.79485305293153"><ele>23.0</ele><time>2026-04-23T06:45:52Z</time></trkpt><trkpt lat="-20.386792002276675" lon="118.79514748986006"><ele>23.0</ele><time>2026-04-23T06:45:53Z</time></trkpt><trkpt lat="-20.386828949970123" lon="118.79544753953698"><ele>23.5</ele><time>2026-04-23T06:45:54Z</time></trkpt><trkpt lat="-20.38686599785101" lon="118.79574599772907"><ele>24.0</ele><time>2026-04-23T06:45:55Z</time></trkpt><trkpt lat="-20.386902381576824" lon="118.79604702529114"><ele>23.0</ele><time>2026-04-23T06:45:56Z</time></trkpt><trkpt lat="-20.38694077705213" lon="118.79635035141906"><ele>22.0</ele><time>2026-04-23T06:45:57Z</time></trkpt><trkpt lat="-20.386975617202655" lon="118.7966519228032"><ele>22.5</ele><time>2026-04-23T06:45:58Z</time></trkpt><trkpt lat="-20.387010178998334" lon="118.7969532164611"><ele>23.0</ele><time>2026-04-23T06:45:59Z</time></trkpt><trkpt lat="-20.387043851722638" lon="118.79725570878416"><ele>23.0</ele><time>2026-04-23T06:46:00Z</time></trkpt><trkpt lat="-20.38707904704675" lon="118.79755919191882"><ele>23.0</ele><time>2026-04-23T06:46:01Z</time></trkpt><trkpt lat="-20.38711687147155" lon="118.79786342566067"><ele>23.0</ele><time>2026-04-23T06:46:02Z</time></trkpt><trkpt lat="-20.387154181485673" lon="118.7981709438304"><ele>23.0</ele><time>2026-04-23T06:46:03.001Z</time></trkpt><trkpt lat="-20.387191558741936" lon="118.7984738617245"><ele>22.5</ele><time>2026-04-23T06:46:04.001Z</time></trkpt><trkpt lat="-20.38722982067004" lon="118.79877455453281"><ele>22.0</ele><time>2026-04-23T06:46:05.001Z</time></trkpt><trkpt lat="-20.387266263270867" lon="118.79907437267036"><ele>21.0</ele><time>2026-04-23T06:46:06.001Z</time></trkpt><trkpt lat="-20.387300650267683" lon="118.79937044298147"><ele>20.0</ele><time>2026-04-23T06:46:07.001Z</time></trkpt><trkpt lat="-20.387330829385736" lon="118.79966522029365"><ele>20.0</ele><time>2026-04-23T06:46:08.001Z</time></trkpt><trkpt lat="-20.38736142693125" lon="118.79996009205412"><ele>20.0</ele><time>2026-04-23T06:46:09.001Z</time></trkpt><trkpt lat="-20.387395956168405" lon="118.80025712763232"><ele>21.5</ele><time>2026-04-23T06:46:10.001Z</time></trkpt><trkpt lat="-20.387434060108045" lon="118.80055281283553"><ele>23.0</ele><time>2026-04-23T06:46:11.001Z</time></trkpt><trkpt lat="-20.38747499342358" lon="118.80084479595722"><ele>24.0</ele><time>2026-04-23T06:46:12.001Z</time></trkpt><trkpt lat="-20.38751414667272" lon="118.80113750553498"><ele>25.0</ele><time>2026-04-23T06:46:13.001Z</time></trkpt><trkpt lat="-20.387549584471657" lon="118.80143287644111"><ele>25.0</ele><time>2026-04-23T06:46:14.001Z</time></trkpt><trkpt lat="-20.387586179894907" lon="118.80173268634853"><ele>25.0</ele><time>2026-04-23T06:46:15.001Z</time></trkpt><trkpt lat="-20.387621381068463" lon="118.80203809766932"><ele>24.0</ele><time>2026-04-23T06:46:16.001Z</time></trkpt><trkpt lat="-20.38765661161734" lon="118.80234762328116"><ele>23.0</ele><time>2026-04-23T06:46:17.001Z</time></trkpt><trkpt lat="-20.387693289084808" lon="118.80265929924533"><ele>23.0</ele><time>2026-04-23T06:46:18.001Z</time></trkpt><trkpt lat="-20.387731898349987" lon="118.80297052194463"><ele>23.0</ele><time>2026-04-23T06:46:19.001Z</time></trkpt><trkpt lat="-20.3877694674944" lon="118.80328201028804"><ele>23.0</ele><time>2026-04-23T06:46:20.001Z</time></trkpt><trkpt lat="-20.387805902721734" lon="118.80358545022537"><ele>23.0</ele><time>2026-04-23T06:46:21.001Z</time></trkpt><trkpt lat="-20.387843870014628" lon="118.80388802991514"><ele>23.0</ele><time>2026-04-23T06:46:22.001Z</time></trkpt><trkpt lat="-20.387880188802487" lon="118.80419421796739"><ele>23.0</ele><time>2026-04-23T06:46:23.001Z</time></trkpt><trkpt lat="-20.387917052966294" lon="118.80450537600025"><ele>23.0</ele><time>2026-04-23T06:46:24.001Z</time></trkpt><trkpt lat="-20.38795528929748" lon="118.80481110910235"><ele>23.0</ele><time>2026-04-23T06:46:25.001Z</time></trkpt><trkpt lat="-20.387993602701982" lon="118.80511599362377"><ele>23.5</ele><time>2026-04-23T06:46:26.001Z</time></trkpt><trkpt lat="-20.38803203849598" lon="118.80541958069931"><ele>24.0</ele><time>2026-04-23T06:46:27.001Z</time></trkpt><trkpt lat="-20.38806832861141" lon="118.80571764068375"><ele>23.5</ele><time>2026-04-23T06:46:28.001Z</time></trkpt><trkpt lat="-20.38810232266066" lon="118.80601431557665"><ele>23.0</ele><time>2026-04-23T06:46:29.001Z</time></trkpt><trkpt lat="-20.388134312539233" lon="118.80630728940459"><ele>23.0</ele><time>2026-04-23T06:46:30.001Z</time></trkpt><trkpt lat="-20.38816711955029" lon="118.80660051754396"><ele>23.0</ele><time>2026-04-23T06:46:31.001Z</time></trkpt><trkpt lat="-20.38820231711599" lon="118.80689364340982"><ele>24.0</ele><time>2026-04-23T06:46:32.001Z</time></trkpt><trkpt lat="-20.388236680099656" lon="118.80716922084801"><ele>25.0</ele><time>2026-04-23T06:46:33.001Z</time></trkpt><trkpt lat="-20.388269778577573" lon="118.80742584957333"><ele>24.5</ele><time>2026-04-23T06:46:34.001Z</time></trkpt><trkpt lat="-20.38830162256286" lon="118.80767691809551"><ele>24.0</ele><time>2026-04-23T06:46:35.001Z</time></trkpt><trkpt lat="-20.38833166412792" lon="118.80793315519732"><ele>24.0</ele><time>2026-04-23T06:46:36.001Z</time></trkpt><trkpt lat="-20.388361221395012" lon="118.80818132170387"><ele>24.0</ele><time>2026-04-23T06:46:37.001Z</time></trkpt><trkpt lat="-20.388391283654382" lon="118.80841943034243"><ele>23.0</ele><time>2026-04-23T06:46:38.001Z</time></trkpt><trkpt lat="-20.38842093723253" lon="118.8086439962544"><ele>22.0</ele><time>2026-04-23T06:46:39.001Z</time></trkpt><trkpt lat="-20.388448033882714" lon="118.8088557918469"><ele>21.0</ele><time>2026-04-23T06:46:40.001Z</time></trkpt><trkpt lat="-20.388470953398606" lon="118.8090605671138"><ele>21.0</ele><time>2026-04-23T06:46:41.001Z</time></trkpt><trkpt lat="-20.388495416758243" lon="118.8092633276179"><ele>21.0</ele><time>2026-04-23T06:46:42.001Z</time></trkpt><trkpt lat="-20.388519631798438" lon="118.80945958164288"><ele>21.0</ele><time>2026-04-23T06:46:43.001Z</time></trkpt><trkpt lat="-20.388542777472516" lon="118.8096483102984"><ele>21.0</ele><time>2026-04-23T06:46:44.001Z</time></trkpt><trkpt lat="-20.388565524400892" lon="118.80983073505499"><ele>21.0</ele><time>2026-04-23T06:46:45.001Z</time></trkpt><trkpt lat="-20.38858681558209" lon="118.81001504292318"><ele>21.0</ele><time>2026-04-23T06:46:46.001Z</time></trkpt><trkpt lat="-20.388607702381023" lon="118.81021036119094"><ele>21.0</ele><time>2026-04-23T06:46:47.001Z</time></trkpt><trkpt lat="-20.388628420055824" lon="118.8104101229421"><ele>21.0</ele><time>2026-04-23T06:46:48.001Z</time></trkpt><trkpt lat="-20.388652690270483" lon="118.8106244797755"><ele>21.0</ele><time>2026-04-23T06:46:49.001Z</time></trkpt><trkpt lat="-20.38868092924862" lon="118.81084197893723"><ele>21.666666666666668</ele><time>2026-04-23T06:46:50.001Z</time></trkpt><trkpt lat="-20.388712684713436" lon="118.81107418539159"><ele>22.333333333333336</ele><time>2026-04-23T06:46:51.001Z</time></trkpt><trkpt lat="-20.38874312979637" lon="118.81130429586123"><ele>23.0</ele><time>2026-04-23T06:46:52.001Z</time></trkpt><trkpt lat="-20.388771535925436" lon="118.81153704044402"><ele>23.0</ele><time>2026-04-23T06:46:53.001Z</time></trkpt><trkpt lat="-20.388800366122396" lon="118.81177507081193"><ele>23.0</ele><time>2026-04-23T06:46:54.001Z</time></trkpt><trkpt lat="-20.388828753489086" lon="118.81200599613494"><ele>23.0</ele><time>2026-04-23T06:46:55.001Z</time></trkpt><trkpt lat="-20.388855503524848" lon="118.81222870862258"><ele>23.0</ele><time>2026-04-23T06:46:56.001Z</time></trkpt><trkpt lat="-20.388883440277294" lon="118.81244479961164"><ele>23.0</ele><time>2026-04-23T06:46:57.001Z</time></trkpt><trkpt lat="-20.38891157022508" lon="118.81265880503005"><ele>23.0</ele><time>2026-04-23T06:46:58.001Z</time></trkpt><trkpt lat="-20.38894251772987" lon="118.81288893620889"><ele>23.0</ele><time>2026-04-23T06:46:59.001Z</time></trkpt><trkpt lat="-20.388972587438154" lon="118.81313245379587"><ele>23.0</ele><time>2026-04-23T06:47:00.001Z</time></trkpt><trkpt lat="-20.389004916375246" lon="118.8133895761903"><ele>23.5</ele><time>2026-04-23T06:47:01.001Z</time></trkpt><trkpt lat="-20.3890358859568" lon="118.81365186259757"><ele>24.0</ele><time>2026-04-23T06:47:02.001Z</time></trkpt><trkpt lat="-20.389065655808817" lon="118.8139185093019"><ele>24.0</ele><time>2026-04-23T06:47:03.001Z</time></trkpt><trkpt lat="-20.389095202856012" lon="118.81418673327757"><ele>24.0</ele><time>2026-04-23T06:47:04.001Z</time></trkpt><trkpt lat="-20.38912383713555" lon="118.81445460021534"><ele>23.5</ele><time>2026-04-23T06:47:05.001Z</time></trkpt><trkpt lat="-20.389152630220067" lon="118.81472110082414"><ele>23.0</ele><time>2026-04-23T06:47:06.001Z</time></trkpt><trkpt lat="-20.38918086231011" lon="118.81499128960748"><ele>23.0</ele><time>2026-04-23T06:47:07.001Z</time></trkpt><trkpt lat="-20.389208849397924" lon="118.81526196947951"><ele>23.0</ele><time>2026-04-23T06:47:08.001Z</time></trkpt><trkpt lat="-20.389234933870327" lon="118.81552965415786"><ele>23.0</ele><time>2026-04-23T06:47:09.002Z</time></trkpt><trkpt lat="-20.389259526291383" lon="118.8157905712048"><ele>23.0</ele><time>2026-04-23T06:47:10.002Z</time></trkpt><trkpt lat="-20.389280224875968" lon="118.81604554617005"><ele>22.5</ele><time>2026-04-23T06:47:11.002Z</time></trkpt><trkpt lat="-20.389298216213366" lon="118.81630107912258"><ele>22.0</ele><time>2026-04-23T06:47:12.002Z</time></trkpt><trkpt lat="-20.389313462513233" lon="118.81654904301767"><ele>22.0</ele><time>2026-04-23T06:47:13.002Z</time></trkpt><trkpt lat="-20.389324984116303" lon="118.81678038661535"><ele>22.0</ele><time>2026-04-23T06:47:14.002Z</time></trkpt><trkpt lat="-20.389336510918255" lon="118.81700259078953"><ele>22.0</ele><time>2026-04-23T06:47:15.002Z</time></trkpt><trkpt lat="-20.389346876354207" lon="118.81721571786264"><ele>22.0</ele><time>2026-04-23T06:47:16.002Z</time></trkpt><trkpt lat="-20.389356491424696" lon="118.81741873737711"><ele>22.0</ele><time>2026-04-23T06:47:17Z</time></trkpt><trkpt lat="-20.38936517670319" lon="118.81761048127584"><ele>22.0</ele><time>2026-04-23T06:47:18Z</time></trkpt><trkpt lat="-20.389372579257422" lon="118.8177933164752"><ele>21.666666666666664</ele><time>2026-04-23T06:47:19Z</time></trkpt><trkpt lat="-20.38937984762563" lon="118.81796508948891"><ele>21.333333333333332</ele><time>2026-04-23T06:47:20Z</time></trkpt><trkpt lat="-20.38939615093999" lon="118.81813133972136"><ele>21.0</ele><time>2026-04-23T06:47:21Z</time></trkpt><trkpt lat="-20.389422825381256" lon="118.81828369830846"><ele>21.0</ele><time>2026-04-23T06:47:22Z</time></trkpt><trkpt lat="-20.389454023091155" lon="118.81842508857068"><ele>21.0</ele><time>2026-04-23T06:47:23Z</time></trkpt><trkpt lat="-20.38947857351086" lon="118.81855425939283"><ele>21.0</ele><time>2026-04-23T06:47:24Z</time></trkpt><trkpt lat="-20.38949570943242" lon="118.8186737172671"><ele>21.0</ele><time>2026-04-23T06:47:25Z</time></trkpt><trkpt lat="-20.38951033333617" lon="118.81877007861105"><ele>21.142857142857142</ele><time>2026-04-23T06:47:26Z</time></trkpt><trkpt lat="-20.389520268201053" lon="118.81885820759058"><ele>21.285714285714285</ele><time>2026-04-23T06:47:27Z</time></trkpt><trkpt lat="-20.389527815193453" lon="118.8189381490364"><ele>21.42857142857143</ele><time>2026-04-23T06:47:28Z</time></trkpt><trkpt lat="-20.389531606660885" lon="118.81902035958619"><ele>21.57142857142857</ele><time>2026-04-23T06:47:29Z</time></trkpt><trkpt lat="-20.38953176586432" lon="118.8190976745081"><ele>21.714285714285715</ele><time>2026-04-23T06:47:30Z</time></trkpt><trkpt lat="-20.389528585491604" lon="118.81917374409102"><ele>21.857142857142858</ele><time>2026-04-23T06:47:31Z</time></trkpt><trkpt lat="-20.38952476594318" lon="118.81924758935675"><ele>22.0</ele><time>2026-04-23T06:47:32Z</time></trkpt><trkpt lat="-20.38952778277874" lon="118.8193693666879"><ele>22.0</ele><time>2026-04-23T06:47:34Z</time></trkpt><trkpt lat="-20.389533804750297" lon="118.81944283568102"><ele>22.0</ele><time>2026-04-23T06:47:35Z</time></trkpt><trkpt lat="-20.389546159421098" lon="118.8195629996599"><ele>22.0</ele><time>2026-04-23T06:47:37Z</time></trkpt><trkpt lat="-20.389558431561934" lon="118.8196362472407"><ele>22.0</ele><time>2026-04-23T06:47:39Z</time></trkpt><trkpt lat="-20.38956557817214" lon="118.81973262328755"><ele>22.0</ele><time>2026-04-23T06:47:55Z</time></trkpt><trkpt lat="-20.389555934949186" lon="118.81984978617656"><ele>22.0</ele><time>2026-04-23T06:47:57Z</time></trkpt><trkpt lat="-20.389549870815706" lon="118.8199179320657"><ele>22.0</ele><time>2026-04-23T06:47:58Z</time></trkpt><trkpt lat="-20.389539434506734" lon="118.82000643038899"><ele>22.0</ele><time>2026-04-23T06:47:59Z</time></trkpt><trkpt lat="-20.389527778854422" lon="118.82010781614008"><ele>22.0</ele><time>2026-04-23T06:48:00Z</time></trkpt><trkpt lat="-20.389502895519676" lon="118.82023676420982"><ele>22.0</ele><time>2026-04-23T06:48:01Z</time></trkpt><trkpt lat="-20.38947726893124" lon="118.8203812395637"><ele>21.666666666666664</ele><time>2026-04-23T06:48:02Z</time></trkpt><trkpt lat="-20.389469727590715" lon="118.82053844517843"><ele>21.333333333333332</ele><time>2026-04-23T06:48:03Z</time></trkpt><trkpt lat="-20.389477484620972" lon="118.82070698236052"><ele>21.0</ele><time>2026-04-23T06:48:04Z</time></trkpt><trkpt lat="-20.389490680440538" lon="118.82088884528092"><ele>20.333333333333332</ele><time>2026-04-23T06:48:05Z</time></trkpt><trkpt lat="-20.389501544394527" lon="118.82107598712992"><ele>19.666666666666664</ele><time>2026-04-23T06:48:06Z</time></trkpt><trkpt lat="-20.38950635948904" lon="118.82125814917826"><ele>19.0</ele><time>2026-04-23T06:48:07.001Z</time></trkpt><trkpt lat="-20.38951192238389" lon="118.82143043350341"><ele>19.0</ele><time>2026-04-23T06:48:08.001Z</time></trkpt><trkpt lat="-20.389518431077367" lon="118.82158829583803"><ele>19.0</ele><time>2026-04-23T06:48:09.001Z</time></trkpt><trkpt lat="-20.389522418430907" lon="118.82172729786205"><ele>19.0</ele><time>2026-04-23T06:48:10.001Z</time></trkpt><trkpt lat="-20.389526008180994" lon="118.82185208450824"><ele>19.0</ele><time>2026-04-23T06:48:11.001Z</time></trkpt><trkpt lat="-20.389531929010992" lon="118.82195817643574"><ele>19.166666666666664</ele><time>2026-04-23T06:48:12.001Z</time></trkpt><trkpt lat="-20.38954050104217" lon="118.82205326292848"><ele>19.333333333333332</ele><time>2026-04-23T06:48:13.001Z</time></trkpt><trkpt lat="-20.389555019190727" lon="118.82214222207482"><ele>19.5</ele><time>2026-04-23T06:48:14.001Z</time></trkpt><trkpt lat="-20.389584299538395" lon="118.82221676813853"><ele>19.666666666666668</ele><time>2026-04-23T06:48:15.001Z</time></trkpt><trkpt lat="-20.38962977498952" lon="118.82227232878617"><ele>19.833333333333336</ele><time>2026-04-23T06:48:16.001Z</time></trkpt><trkpt lat="-20.389686632806146" lon="118.82231196368147"><ele>20.0</ele><time>2026-04-23T06:48:17.001Z</time></trkpt><trkpt lat="-20.389757472112947" lon="118.82233953094335"><ele>20.166666666666668</ele><time>2026-04-23T06:48:18.001Z</time></trkpt><trkpt lat="-20.389830918431397" lon="118.82235030036601"><ele>20.333333333333336</ele><time>2026-04-23T06:48:19.001Z</time></trkpt><trkpt lat="-20.389907773827925" lon="118.82235138025226"><ele>20.5</ele><time>2026-04-23T06:48:20.001Z</time></trkpt><trkpt lat="-20.38998075432134" lon="118.82235281845698"><ele>20.666666666666668</ele><time>2026-04-23T06:48:21.001Z</time></trkpt><trkpt lat="-20.390090369860154" lon="118.82235296796553"><ele>20.833333333333332</ele><time>2026-04-23T06:48:23.001Z</time></trkpt><trkpt lat="-20.390186433447806" lon="118.82235250826731"><ele>21.0</ele><time>2026-04-23T06:48:26.001Z</time></trkpt><trkpt lat="-20.390294183854444" lon="118.82235202302714"><ele>21.0</ele><time>2026-04-23T06:48:28.001Z</time></trkpt><trkpt lat="-20.390362098502457" lon="118.82234476397038"><ele>21.0</ele><time>2026-04-23T06:48:29.001Z</time></trkpt><trkpt lat="-20.39044061670225" lon="118.82233790384849"><ele>21.0</ele><time>2026-04-23T06:48:30.001Z</time></trkpt><trkpt lat="-20.39053118853414" lon="118.8223309519608"><ele>21.0</ele><time>2026-04-23T06:48:31.001Z</time></trkpt><trkpt lat="-20.39063036307245" lon="118.822318116075"><ele>21.0</ele><time>2026-04-23T06:48:32.001Z</time></trkpt><trkpt lat="-20.390737860278968" lon="118.8223019221904"><ele>21.0</ele><time>2026-04-23T06:48:33.001Z</time></trkpt><trkpt lat="-20.390851399610796" lon="118.82229044860605"><ele>21.25</ele><time>2026-04-23T06:48:34.001Z</time></trkpt><trkpt lat="-20.390983650009513" lon="118.8222826945005"><ele>21.5</ele><time>2026-04-23T06:48:35.001Z</time></trkpt><trkpt lat="-20.391118211116613" lon="118.82227426135906"><ele>21.75</ele><time>2026-04-23T06:48:36.001Z</time></trkpt><trkpt lat="-20.391255653731218" lon="118.82226123147426"><ele>22.0</ele><time>2026-04-23T06:48:37.001Z</time></trkpt><trkpt lat="-20.39140291070462" lon="118.82225079039029"><ele>22.0</ele><time>2026-04-23T06:48:38.001Z</time></trkpt><trkpt lat="-20.3915544459356" lon="118.82223777929381"><ele>22.0</ele><time>2026-04-23T06:48:39.001Z</time></trkpt><trkpt lat="-20.391708710929546" lon="118.82224927258876"><ele>22.0</ele><time>2026-04-23T06:48:40.001Z</time></trkpt><trkpt lat="-20.391866337423526" lon="118.8222472666068"><ele>22.0</ele><time>2026-04-23T06:48:41.001Z</time></trkpt><trkpt lat="-20.392023177417364" lon="118.82224724430222"><ele>22.0</ele><time>2026-04-23T06:48:42.001Z</time></trkpt><trkpt lat="-20.392192473731395" lon="118.82224987882617"><ele>22.0</ele><time>2026-04-23T06:48:43.001Z</time></trkpt><trkpt lat="-20.392370411606027" lon="118.82225651978207"><ele>22.333333333333332</ele><time>2026-04-23T06:48:44.001Z</time></trkpt><trkpt lat="-20.392560419029905" lon="118.82225268167026"><ele>22.666666666666668</ele><time>2026-04-23T06:48:45.001Z</time></trkpt><trkpt lat="-20.39275985579576" lon="118.8222759349927"><ele>23.0</ele><time>2026-04-23T06:48:46.001Z</time></trkpt><trkpt lat="-20.392959335044445" lon="118.82229892446642"><ele>22.333333333333336</ele><time>2026-04-23T06:48:47.001Z</time></trkpt><trkpt lat="-20.39315340560334" lon="118.82232484114157"><ele>21.666666666666668</ele><time>2026-04-23T06:48:48.001Z</time></trkpt><trkpt lat="-20.393343598262444" lon="118.8223530923077"><ele>21.0</ele><time>2026-04-23T06:48:49.001Z</time></trkpt><trkpt lat="-20.393515989795375" lon="118.82240086543229"><ele>21.0</ele><time>2026-04-23T06:48:50.001Z</time></trkpt><trkpt lat="-20.393690311849205" lon="118.82243702696078"><ele>21.0</ele><time>2026-04-23T06:48:51.001Z</time></trkpt><trkpt lat="-20.39385596664814" lon="118.82247609995743"><ele>21.0</ele><time>2026-04-23T06:48:52.001Z</time></trkpt><trkpt lat="-20.394028135496953" lon="118.82251920960174"><ele>20.666666666666668</ele><time>2026-04-23T06:48:53.001Z</time></trkpt><trkpt lat="-20.39418844119285" lon="118.82256269750093"><ele>20.333333333333336</ele><time>2026-04-23T06:48:54.001Z</time></trkpt><trkpt lat="-20.394350149250606" lon="118.82260908902927"><ele>20.0</ele><time>2026-04-23T06:48:55.001Z</time></trkpt><trkpt lat="-20.39451078498976" lon="118.82265793324558"><ele>20.333333333333336</ele><time>2026-04-23T06:48:56.001Z</time></trkpt><trkpt lat="-20.394682645883975" lon="118.82271197430713"><ele>20.666666666666668</ele><time>2026-04-23T06:48:57.001Z</time></trkpt><trkpt lat="-20.394864014406174" lon="118.82277345769104"><ele>21.0</ele><time>2026-04-23T06:48:58.001Z</time></trkpt><trkpt lat="-20.395054216706956" lon="118.82283097862032"><ele>21.0</ele><time>2026-04-23T06:48:59.001Z</time></trkpt><trkpt lat="-20.395240696334113" lon="118.82290324163127"><ele>21.0</ele><time>2026-04-23T06:49:00.001Z</time></trkpt><trkpt lat="-20.39540932477092" lon="118.82297509049344"><ele>21.0</ele><time>2026-04-23T06:49:01.001Z</time></trkpt><trkpt lat="-20.395570164897748" lon="118.82306795007011"><ele>21.0</ele><time>2026-04-23T06:49:02.001Z</time></trkpt><trkpt lat="-20.395739682271866" lon="118.82316198008053"><ele>21.0</ele><time>2026-04-23T06:49:03.001Z</time></trkpt><trkpt lat="-20.395913768711008" lon="118.82326310670487"><ele>21.0</ele><time>2026-04-23T06:49:04.001Z</time></trkpt><trkpt lat="-20.39608847746687" lon="118.82337166742448"><ele>21.666666666666668</ele><time>2026-04-23T06:49:05.001Z</time></trkpt><trkpt lat="-20.396266028333482" lon="118.82348604874691"><ele>22.333333333333336</ele><time>2026-04-23T06:49:06.001Z</time></trkpt><trkpt lat="-20.396445520318842" lon="118.82360223115384"><ele>23.0</ele><time>2026-04-23T06:49:07.001Z</time></trkpt><trkpt lat="-20.39662533893209" lon="118.82371602063348"><ele>23.333333333333336</ele><time>2026-04-23T06:49:08.001Z</time></trkpt><trkpt lat="-20.396812192245783" lon="118.82382953203452"><ele>23.666666666666668</ele><time>2026-04-23T06:49:09.001Z</time></trkpt><trkpt lat="-20.397009695206346" lon="118.82392527389712"><ele>24.0</ele><time>2026-04-23T06:49:10.001Z</time></trkpt><trkpt lat="-20.397198308541174" lon="118.82403869381882"><ele>24.0</ele><time>2026-04-23T06:49:11.001Z</time></trkpt><trkpt lat="-20.397383744042557" lon="118.82415351254987"><ele>24.0</ele><time>2026-04-23T06:49:12.001Z</time></trkpt><trkpt lat="-20.397575815666187" lon="118.82427100594953"><ele>24.0</ele><time>2026-04-23T06:49:13.001Z</time></trkpt><trkpt lat="-20.397769874723643" lon="118.82439210803703"><ele>24.0</ele><time>2026-04-23T06:49:14.001Z</time></trkpt><trkpt lat="-20.397964366924963" lon="118.82451005579948"><ele>24.0</ele><time>2026-04-23T06:49:15.002Z</time></trkpt><trkpt lat="-20.39814852459524" lon="118.82462217372039"><ele>24.0</ele><time>2026-04-23T06:49:16.002Z</time></trkpt><trkpt lat="-20.39832809746109" lon="118.82472896454354"><ele>24.0</ele><time>2026-04-23T06:49:17.002Z</time></trkpt><trkpt lat="-20.398509231680546" lon="118.8248324566996"><ele>24.0</ele><time>2026-04-23T06:49:18.002Z</time></trkpt><trkpt lat="-20.398694531781896" lon="118.82493513511349"><ele>24.0</ele><time>2026-04-23T06:49:19.002Z</time></trkpt><trkpt lat="-20.398873785583696" lon="118.82506143848234"><ele>24.0</ele><time>2026-04-23T06:49:20.002Z</time></trkpt><trkpt lat="-20.39905371995094" lon="118.82517737208781"><ele>24.0</ele><time>2026-04-23T06:49:21.002Z</time></trkpt><trkpt lat="-20.399238987414645" lon="118.82527881467156"><ele>24.0</ele><time>2026-04-23T06:49:22.002Z</time></trkpt><trkpt lat="-20.399417126471917" lon="118.82540325396724"><ele>24.0</ele><time>2026-04-23T06:49:23Z</time></trkpt><trkpt lat="-20.399594806277825" lon="118.82552722798647"><ele>24.0</ele><time>2026-04-23T06:49:24Z</time></trkpt><trkpt lat="-20.3997804099138" lon="118.82565662704482"><ele>24.0</ele><time>2026-04-23T06:49:25Z</time></trkpt><trkpt lat="-20.399965756395925" lon="118.8257778089873"><ele>24.0</ele><time>2026-04-23T06:49:26Z</time></trkpt><trkpt lat="-20.40014870630422" lon="118.82588568331775"><ele>24.0</ele><time>2026-04-23T06:49:27Z</time></trkpt><trkpt lat="-20.400333251934754" lon="118.82599430484204"><ele>24.0</ele><time>2026-04-23T06:49:28Z</time></trkpt><trkpt lat="-20.40051913391348" lon="118.82610725028013"><ele>24.0</ele><time>2026-04-23T06:49:29Z</time></trkpt><trkpt lat="-20.400712263867003" lon="118.82622652685603"><ele>24.0</ele><time>2026-04-23T06:49:30Z</time></trkpt><trkpt lat="-20.400902990887786" lon="118.82634403503555"><ele>24.0</ele><time>2026-04-23T06:49:31Z</time></trkpt><trkpt lat="-20.40109586985907" lon="118.82645797164416"><ele>24.0</ele><time>2026-04-23T06:49:32Z</time></trkpt><trkpt lat="-20.401288129062042" lon="118.82656689708547"><ele>24.0</ele><time>2026-04-23T06:49:33Z</time></trkpt><trkpt lat="-20.401487616053203" lon="118.82667964970298"><ele>24.0</ele><time>2026-04-23T06:49:34Z</time></trkpt><trkpt lat="-20.401690216949103" lon="118.82679022871966"><ele>24.5</ele><time>2026-04-23T06:49:35Z</time></trkpt><trkpt lat="-20.401899549474628" lon="118.8269033041341"><ele>25.0</ele><time>2026-04-23T06:49:36Z</time></trkpt><trkpt lat="-20.402110084916224" lon="118.82702228365588"><ele>25.5</ele><time>2026-04-23T06:49:37Z</time></trkpt><trkpt lat="-20.402323580103555" lon="118.82714550866417"><ele>26.0</ele><time>2026-04-23T06:49:38Z</time></trkpt><trkpt lat="-20.402530822710812" lon="118.82726395900345"><ele>26.0</ele><time>2026-04-23T06:49:39Z</time></trkpt><trkpt lat="-20.40273038632562" lon="118.82738347275726"><ele>26.0</ele><time>2026-04-23T06:49:40Z</time></trkpt><trkpt lat="-20.402931641562905" lon="118.82750516618601"><ele>26.5</ele><time>2026-04-23T06:49:41Z</time></trkpt><trkpt lat="-20.403143555943924" lon="118.82763569062763"><ele>27.0</ele><time>2026-04-23T06:49:42Z</time></trkpt><trkpt lat="-20.403353205778995" lon="118.82776720553845"><ele>27.0</ele><time>2026-04-23T06:49:43Z</time></trkpt><trkpt lat="-20.40356517500086" lon="118.8278982173432"><ele>27.0</ele><time>2026-04-23T06:49:44Z</time></trkpt><trkpt lat="-20.40377702839635" lon="118.82802259182466"><ele>27.0</ele><time>2026-04-23T06:49:45Z</time></trkpt><trkpt lat="-20.403990258543825" lon="118.82814550853337"><ele>27.0</ele><time>2026-04-23T06:49:46Z</time></trkpt><trkpt lat="-20.40420215092022" lon="118.82826464955842"><ele>27.0</ele><time>2026-04-23T06:49:47Z</time></trkpt><trkpt lat="-20.404416390594825" lon="118.82838603807653"><ele>27.0</ele><time>2026-04-23T06:49:48Z</time></trkpt><trkpt lat="-20.404629672130525" lon="118.82850559032876"><ele>27.5</ele><time>2026-04-23T06:49:49Z</time></trkpt><trkpt lat="-20.40484408548351" lon="118.82862699028564"><ele>28.0</ele><time>2026-04-23T06:49:50Z</time></trkpt><trkpt lat="-20.40505627587237" lon="118.82875153106056"><ele>28.0</ele><time>2026-04-23T06:49:51Z</time></trkpt><trkpt lat="-20.405266852722285" lon="118.82887495964513"><ele>28.0</ele><time>2026-04-23T06:49:52Z</time></trkpt><trkpt lat="-20.405477759880608" lon="118.8289928812244"><ele>27.5</ele><time>2026-04-23T06:49:53Z</time></trkpt><trkpt lat="-20.405688844631353" lon="118.82910883287391"><ele>27.0</ele><time>2026-04-23T06:49:54Z</time></trkpt><trkpt lat="-20.405901947303718" lon="118.82922779817594"><ele>27.5</ele><time>2026-04-23T06:49:55Z</time></trkpt><trkpt lat="-20.406109262765366" lon="118.82934679138727"><ele>28.0</ele><time>2026-04-23T06:49:56Z</time></trkpt><trkpt lat="-20.406310120515002" lon="118.82947208589184"><ele>27.5</ele><time>2026-04-23T06:49:57Z</time></trkpt><trkpt lat="-20.406504969213984" lon="118.82959611564512"><ele>27.0</ele><time>2026-04-23T06:49:58Z</time></trkpt><trkpt lat="-20.406700856408936" lon="118.82971800119222"><ele>27.0</ele><time>2026-04-23T06:49:59Z</time></trkpt><trkpt lat="-20.406888522252896" lon="118.82983668147551"><ele>27.0</ele><time>2026-04-23T06:50:00Z</time></trkpt><trkpt lat="-20.407080994215" lon="118.82995948585629"><ele>27.0</ele><time>2026-04-23T06:50:01Z</time></trkpt><trkpt lat="-20.40727081199035" lon="118.83008183443529"><ele>28.5</ele><time>2026-04-23T06:50:02Z</time></trkpt><trkpt lat="-20.407464786238783" lon="118.83020755355861"><ele>30.0</ele><time>2026-04-23T06:50:03Z</time></trkpt><trkpt lat="-20.40765802180773" lon="118.83032654726736"><ele>30.0</ele><time>2026-04-23T06:50:04Z</time></trkpt><trkpt lat="-20.407856625647995" lon="118.83044606123211"><ele>30.0</ele><time>2026-04-23T06:50:05Z</time></trkpt><trkpt lat="-20.408060819611478" lon="118.83055992740672"><ele>30.5</ele><time>2026-04-23T06:50:06Z</time></trkpt><trkpt lat="-20.40827016976159" lon="118.83067364576164"><ele>31.0</ele><time>2026-04-23T06:50:07Z</time></trkpt><trkpt lat="-20.408474243360303" lon="118.83078261183033"><ele>31.0</ele><time>2026-04-23T06:50:08Z</time></trkpt><trkpt lat="-20.40868237157593" lon="118.83089711059593"><ele>31.0</ele><time>2026-04-23T06:50:09Z</time></trkpt><trkpt lat="-20.408885226153114" lon="118.83100700921577"><ele>30.5</ele><time>2026-04-23T06:50:10Z</time></trkpt><trkpt lat="-20.40908923349379" lon="118.83112438790066"><ele>30.0</ele><time>2026-04-23T06:50:11.001Z</time></trkpt><trkpt lat="-20.409288617734504" lon="118.83124254398939"><ele>30.0</ele><time>2026-04-23T06:50:12.001Z</time></trkpt><trkpt lat="-20.409491773444323" lon="118.83136345543282"><ele>30.0</ele><time>2026-04-23T06:50:13.001Z</time></trkpt><trkpt lat="-20.409689496697183" lon="118.8314826510258"><ele>30.5</ele><time>2026-04-23T06:50:14.001Z</time></trkpt><trkpt lat="-20.40988997324407" lon="118.8316039699852"><ele>31.0</ele><time>2026-04-23T06:50:15.001Z</time></trkpt><trkpt lat="-20.410089573788923" lon="118.83172924778073"><ele>31.5</ele><time>2026-04-23T06:50:16.001Z</time></trkpt><trkpt lat="-20.410292347118276" lon="118.83186119031164"><ele>32.0</ele><time>2026-04-23T06:50:17.001Z</time></trkpt><trkpt lat="-20.41049390825008" lon="118.83198912233397"><ele>33.0</ele><time>2026-04-23T06:50:18.001Z</time></trkpt><trkpt lat="-20.410697767739073" lon="118.83211070232964"><ele>34.0</ele><time>2026-04-23T06:50:19.001Z</time></trkpt><trkpt lat="-20.410896568366244" lon="118.83222805887236"><ele>34.0</ele><time>2026-04-23T06:50:20.001Z</time></trkpt><trkpt lat="-20.411100013749092" lon="118.83234588167069"><ele>34.0</ele><time>2026-04-23T06:50:21.001Z</time></trkpt><trkpt lat="-20.411302752626913" lon="118.83246029712235"><ele>34.0</ele><time>2026-04-23T06:50:22.001Z</time></trkpt><trkpt lat="-20.411508235072965" lon="118.83257204036249"><ele>34.0</ele><time>2026-04-23T06:50:23.001Z</time></trkpt><trkpt lat="-20.41171311449569" lon="118.83268346925327"><ele>33.5</ele><time>2026-04-23T06:50:24.001Z</time></trkpt><trkpt lat="-20.411918878066377" lon="118.83279962218195"><ele>33.0</ele><time>2026-04-23T06:50:25.001Z</time></trkpt><trkpt lat="-20.412126045392018" lon="118.83291772358011"><ele>33.0</ele><time>2026-04-23T06:50:26.001Z</time></trkpt><trkpt lat="-20.412337801426617" lon="118.83303866252243"><ele>33.0</ele><time>2026-04-23T06:50:27.001Z</time></trkpt><trkpt lat="-20.412553081513067" lon="118.83315422319643"><ele>33.0</ele><time>2026-04-23T06:50:28.001Z</time></trkpt><trkpt lat="-20.41276056801603" lon="118.83326272305604"><ele>33.0</ele><time>2026-04-23T06:50:29.001Z</time></trkpt><trkpt lat="-20.412972630689087" lon="118.83337377197651"><ele>34.0</ele><time>2026-04-23T06:50:30.001Z</time></trkpt><trkpt lat="-20.413180180794516" lon="118.83348569559942"><ele>35.0</ele><time>2026-04-23T06:50:31.001Z</time></trkpt><trkpt lat="-20.4133763547127" lon="118.83359257425008"><ele>35.0</ele><time>2026-04-23T06:50:32.001Z</time></trkpt><trkpt lat="-20.413549201255368" lon="118.83368741117894"><ele>35.0</ele><time>2026-04-23T06:50:33.001Z</time></trkpt><trkpt lat="-20.413713738432712" lon="118.83377905513191"><ele>35.0</ele><time>2026-04-23T06:50:34.001Z</time></trkpt><trkpt lat="-20.41387523230041" lon="118.83387491452373"><ele>35.33333333333333</ele><time>2026-04-23T06:50:35.001Z</time></trkpt><trkpt lat="-20.414054537952502" lon="118.83398514932065"><ele>35.666666666666664</ele><time>2026-04-23T06:50:36.001Z</time></trkpt><trkpt lat="-20.414220797050785" lon="118.83408673424915"><ele>36.0</ele><time>2026-04-23T06:50:37.001Z</time></trkpt><trkpt lat="-20.41438745111401" lon="118.8341823151897"><ele>36.0</ele><time>2026-04-23T06:50:38.001Z</time></trkpt><trkpt lat="-20.414558521084366" lon="118.8342779453258"><ele>36.0</ele><time>2026-04-23T06:50:39.001Z</time></trkpt><trkpt lat="-20.414737681757845" lon="118.83436727464881"><ele>36.0</ele><time>2026-04-23T06:50:40.001Z</time></trkpt><trkpt lat="-20.414918552040035" lon="118.83445168567515"><ele>35.333333333333336</ele><time>2026-04-23T06:50:41.001Z</time></trkpt><trkpt lat="-20.415098906126055" lon="118.83454078499945"><ele>34.66666666666667</ele><time>2026-04-23T06:50:42.001Z</time></trkpt><trkpt lat="-20.415266456235617" lon="118.8346239085232"><ele>34.0</ele><time>2026-04-23T06:50:43.001Z</time></trkpt><trkpt lat="-20.415417456966924" lon="118.83470096562176"><ele>34.66666666666667</ele><time>2026-04-23T06:50:44.001Z</time></trkpt><trkpt lat="-20.41555634942549" lon="118.83477495709663"><ele>35.333333333333336</ele><time>2026-04-23T06:50:45.001Z</time></trkpt><trkpt lat="-20.415695423920646" lon="118.834860563903"><ele>36.0</ele><time>2026-04-23T06:50:46.001Z</time></trkpt><trkpt lat="-20.415834969041182" lon="118.83495626700073"><ele>36.0</ele><time>2026-04-23T06:50:47.001Z</time></trkpt><trkpt lat="-20.41597098771612" lon="118.83506382324384"><ele>36.0</ele><time>2026-04-23T06:50:48.001Z</time></trkpt><trkpt lat="-20.41611266004095" lon="118.83518325455834"><ele>36.0</ele><time>2026-04-23T06:50:49.001Z</time></trkpt><trkpt lat="-20.416263463695188" lon="118.8353090926879"><ele>36.0</ele><time>2026-04-23T06:50:50.001Z</time></trkpt><trkpt lat="-20.416414949744755" lon="118.83542774158902"><ele>36.0</ele><time>2026-04-23T06:50:51.001Z</time></trkpt><trkpt lat="-20.41655411185198" lon="118.83553222785234"><ele>36.0</ele><time>2026-04-23T06:50:52.001Z</time></trkpt><trkpt lat="-20.41668506091091" lon="118.83562412710299"><ele>36.0</ele><time>2026-04-23T06:50:53.001Z</time></trkpt><trkpt lat="-20.416821573000412" lon="118.83571288869369"><ele>36.0</ele><time>2026-04-23T06:50:54.001Z</time></trkpt><trkpt lat="-20.416968209503906" lon="118.83579420032153"><ele>36.0</ele><time>2026-04-23T06:50:55.001Z</time></trkpt><trkpt lat="-20.417124806125454" lon="118.83586555896403"><ele>36.333333333333336</ele><time>2026-04-23T06:50:56.001Z</time></trkpt><trkpt lat="-20.417287240300535" lon="118.83592743171332"><ele>36.66666666666667</ele><time>2026-04-23T06:50:57.001Z</time></trkpt><trkpt lat="-20.41744936450481" lon="118.835980157725"><ele>37.0</ele><time>2026-04-23T06:50:58.001Z</time></trkpt><trkpt lat="-20.417608626569237" lon="118.83603545427192"><ele>37.0</ele><time>2026-04-23T06:50:59.001Z</time></trkpt><trkpt lat="-20.417770823819325" lon="118.83610766813361"><ele>37.0</ele><time>2026-04-23T06:51:00.001Z</time></trkpt><trkpt lat="-20.41793040813245" lon="118.83620034463574"><ele>37.0</ele><time>2026-04-23T06:51:01.001Z</time></trkpt><trkpt lat="-20.418098993446296" lon="118.8363066543307"><ele>37.333333333333336</ele><time>2026-04-23T06:51:02.001Z</time></trkpt><trkpt lat="-20.41826691482381" lon="118.83641369778573"><ele>37.666666666666664</ele><time>2026-04-23T06:51:03.001Z</time></trkpt><trkpt lat="-20.418435796636622" lon="118.83651970540578"><ele>38.0</ele><time>2026-04-23T06:51:04.001Z</time></trkpt><trkpt lat="-20.418602852526544" lon="118.83661768361516"><ele>38.0</ele><time>2026-04-23T06:51:05.001Z</time></trkpt><trkpt lat="-20.418761665380366" lon="118.83670993831757"><ele>38.0</ele><time>2026-04-23T06:51:06.001Z</time></trkpt><trkpt lat="-20.418923399220184" lon="118.83680107498621"><ele>38.0</ele><time>2026-04-23T06:51:07.001Z</time></trkpt><trkpt lat="-20.419091805092705" lon="118.8368978249009"><ele>38.33333333333333</ele><time>2026-04-23T06:51:08.001Z</time></trkpt><trkpt lat="-20.41926028460117" lon="118.83699300380863"><ele>38.666666666666664</ele><time>2026-04-23T06:51:09.001Z</time></trkpt><trkpt lat="-20.41944002255759" lon="118.83709476073298"><ele>39.0</ele><time>2026-04-23T06:51:10.001Z</time></trkpt><trkpt lat="-20.41960464670548" lon="118.83718996111486"><ele>39.0</ele><time>2026-04-23T06:51:11.001Z</time></trkpt><trkpt lat="-20.419754250085656" lon="118.83727440740195"><ele>39.0</ele><time>2026-04-23T06:51:12.001Z</time></trkpt><trkpt lat="-20.419894646598774" lon="118.8373570319452"><ele>39.0</ele><time>2026-04-23T06:51:13.001Z</time></trkpt><trkpt lat="-20.420040374643698" lon="118.83744273469907"><ele>39.0</ele><time>2026-04-23T06:51:14.001Z</time></trkpt><trkpt lat="-20.42018302682321" lon="118.83752782915063"><ele>39.0</ele><time>2026-04-23T06:51:15.001Z</time></trkpt><trkpt lat="-20.420327678531102" lon="118.83761405509188"><ele>39.0</ele><time>2026-04-23T06:51:16.001Z</time></trkpt><trkpt lat="-20.420478195087668" lon="118.83770301885338"><ele>38.666666666666664</ele><time>2026-04-23T06:51:17.001Z</time></trkpt><trkpt lat="-20.420625511088872" lon="118.83779232662809"><ele>38.33333333333333</ele><time>2026-04-23T06:51:18.001Z</time></trkpt><trkpt lat="-20.420779684082927" lon="118.83789201519234"><ele>38.0</ele><time>2026-04-23T06:51:19.001Z</time></trkpt><trkpt lat="-20.420931513129347" lon="118.83797796306263"><ele>38.0</ele><time>2026-04-23T06:51:20.001Z</time></trkpt><trkpt lat="-20.421064911180437" lon="118.8380567458994"><ele>38.0</ele><time>2026-04-23T06:51:21.001Z</time></trkpt><trkpt lat="-20.42118197933841" lon="118.83812048791722"><ele>38.0</ele><time>2026-04-23T06:51:22.001Z</time></trkpt><trkpt lat="-20.421293408365994" lon="118.8381797196815"><ele>38.0</ele><time>2026-04-23T06:51:23.001Z</time></trkpt><trkpt lat="-20.421394317809494" lon="118.83822863306176"><ele>38.33333333333333</ele><time>2026-04-23T06:51:24.002Z</time></trkpt><trkpt lat="-20.42147994322995" lon="118.83826910514559"><ele>38.666666666666664</ele><time>2026-04-23T06:51:25.002Z</time></trkpt><trkpt lat="-20.421545450765194" lon="118.83830037849714"><ele>39.0</ele><time>2026-04-23T06:51:26.002Z</time></trkpt><trkpt lat="-20.421640172523492" lon="118.83834451586391"><ele>39.333333333333336</ele><time>2026-04-23T06:51:28.002Z</time></trkpt><trkpt lat="-20.4215656270114" lon="118.83833309607212"><ele>39.66666666666667</ele><time>2026-04-23T06:52:38.001Z</time></trkpt><trkpt lat="-20.421501912736627" lon="118.83829175294174"><ele>40.0</ele><time>2026-04-23T06:52:42.001Z</time></trkpt><trkpt lat="-20.421424062412726" lon="118.83825189919715"><ele>40.0</ele><time>2026-04-23T06:52:45.001Z</time></trkpt><trkpt lat="-20.421360636620044" lon="118.83821719427947"><ele>40.0</ele><time>2026-04-23T06:52:47.001Z</time></trkpt><trkpt lat="-20.421292956527353" lon="118.83818931890312"><ele>40.0</ele><time>2026-04-23T06:52:48.001Z</time></trkpt><trkpt lat="-20.421238599254828" lon="118.83815204725005"><ele>40.0</ele><time>2026-04-23T06:52:49.001Z</time></trkpt><trkpt lat="-20.421126700610998" lon="118.83809427184349"><ele>40.0</ele><time>2026-04-23T06:52:51.001Z</time></trkpt><trkpt lat="-20.42106911481446" lon="118.83805924114151"><ele>40.0</ele><time>2026-04-23T06:52:52.001Z</time></trkpt><trkpt lat="-20.421026363521133" lon="118.83799305215696"><ele>39.66666666666667</ele><time>2026-04-23T06:52:53.001Z</time></trkpt><trkpt lat="-20.42096656303558" lon="118.83795888491804"><ele>39.333333333333336</ele><time>2026-04-23T06:52:55.001Z</time></trkpt><trkpt lat="-20.420898334474806" lon="118.83795069074195"><ele>39.0</ele><time>2026-04-23T06:53:08.001Z</time></trkpt><trkpt lat="-20.420830063104365" lon="118.83791595218412"><ele>38.666666666666664</ele><time>2026-04-23T06:53:10.001Z</time></trkpt><trkpt lat="-20.42076365606237" lon="118.83787536847714"><ele>38.33333333333333</ele><time>2026-04-23T06:53:12.001Z</time></trkpt><trkpt lat="-20.420679035076894" lon="118.8378246258956"><ele>38.0</ele><time>2026-04-23T06:53:14.001Z</time></trkpt><trkpt lat="-20.42063037763685" lon="118.83777726652971"><ele>38.0</ele><time>2026-04-23T06:53:17.001Z</time></trkpt><trkpt lat="-20.42055204797162" lon="118.83772717932207"><ele>38.0</ele><time>2026-04-23T06:53:28.001Z</time></trkpt><trkpt lat="-20.420451833334585" lon="118.83766676224725"><ele>38.0</ele><time>2026-04-23T06:53:30.001Z</time></trkpt><trkpt lat="-20.420391573018335" lon="118.83763380171692"><ele>38.0</ele><time>2026-04-23T06:53:31.001Z</time></trkpt><trkpt lat="-20.42031896025269" lon="118.83759245394391"><ele>38.0</ele><time>2026-04-23T06:53:32.001Z</time></trkpt><trkpt lat="-20.42024019968413" lon="118.8375480546807"><ele>38.0</ele><time>2026-04-23T06:53:33.001Z</time></trkpt><trkpt lat="-20.42016579018916" lon="118.8375085705279"><ele>38.25</ele><time>2026-04-23T06:53:34.001Z</time></trkpt><trkpt lat="-20.42008469867972" lon="118.83746204353622"><ele>38.5</ele><time>2026-04-23T06:53:35Z</time></trkpt><trkpt lat="-20.419995478928747" lon="118.83740808423437"><ele>38.75</ele><time>2026-04-23T06:53:36Z</time></trkpt><trkpt lat="-20.419891855927535" lon="118.83734572170289"><ele>39.0</ele><time>2026-04-23T06:53:37Z</time></trkpt><trkpt lat="-20.419771511881237" lon="118.83727431294396"><ele>39.0</ele><time>2026-04-23T06:53:38Z</time></trkpt><trkpt lat="-20.41964906765369" lon="118.83720083751903"><ele>39.0</ele><time>2026-04-23T06:53:39Z</time></trkpt><trkpt lat="-20.419528050675062" lon="118.83713145110748"><ele>39.0</ele><time>2026-04-23T06:53:40Z</time></trkpt><trkpt lat="-20.419400373265862" lon="118.83705980680116"><ele>39.0</ele><time>2026-04-23T06:53:41Z</time></trkpt><trkpt lat="-20.419267176605356" lon="118.83698173106994"><ele>39.0</ele><time>2026-04-23T06:53:42Z</time></trkpt><trkpt lat="-20.41912822633094" lon="118.83690361222197"><ele>39.0</ele><time>2026-04-23T06:53:43Z</time></trkpt><trkpt lat="-20.418981514344004" lon="118.83681597200129"><ele>39.0</ele><time>2026-04-23T06:53:44Z</time></trkpt><trkpt lat="-20.41883312527087" lon="118.83671324011947"><ele>38.666666666666664</ele><time>2026-04-23T06:53:45Z</time></trkpt><trkpt lat="-20.418681059773714" lon="118.83662145847752"><ele>38.33333333333333</ele><time>2026-04-23T06:53:46Z</time></trkpt><trkpt lat="-20.4185303454308" lon="118.8365304923382"><ele>38.0</ele><time>2026-04-23T06:53:47Z</time></trkpt><trkpt lat="-20.41838507716227" lon="118.83644293682465"><ele>38.0</ele><time>2026-04-23T06:53:48Z</time></trkpt><trkpt lat="-20.41824088858764" lon="118.83635605776065"><ele>38.0</ele><time>2026-04-23T06:53:49Z</time></trkpt><trkpt lat="-20.418100301774768" lon="118.83626957591778"><ele>38.0</ele><time>2026-04-23T06:53:50Z</time></trkpt><trkpt lat="-20.417958015852903" lon="118.83618161735518"><ele>38.0</ele><time>2026-04-23T06:53:51Z</time></trkpt><trkpt lat="-20.417808797931364" lon="118.8360922120723"><ele>38.0</ele><time>2026-04-23T06:53:52Z</time></trkpt><trkpt lat="-20.417652716452974" lon="118.83600685472885"><ele>38.0</ele><time>2026-04-23T06:53:53Z</time></trkpt><trkpt lat="-20.417498857305244" lon="118.83593647706215"><ele>38.0</ele><time>2026-04-23T06:53:54Z</time></trkpt><trkpt lat="-20.417342646180067" lon="118.83589695740369"><ele>38.0</ele><time>2026-04-23T06:53:55Z</time></trkpt><trkpt lat="-20.417198012639183" lon="118.83584187443509"><ele>38.0</ele><time>2026-04-23T06:53:56Z</time></trkpt><trkpt lat="-20.417058226874406" lon="118.83579212852315"><ele>37.5</ele><time>2026-04-23T06:53:57Z</time></trkpt><trkpt lat="-20.416923174541523" lon="118.83573507486163"><ele>37.0</ele><time>2026-04-23T06:53:58Z</time></trkpt><trkpt lat="-20.416802210795552" lon="118.83565428602387"><ele>36.5</ele><time>2026-04-23T06:53:59Z</time></trkpt><trkpt lat="-20.416677678450192" lon="118.8355617375677"><ele>36.0</ele><time>2026-04-23T06:54:00Z</time></trkpt><trkpt lat="-20.416538766286237" lon="118.83546409018736"><ele>36.0</ele><time>2026-04-23T06:54:01Z</time></trkpt><trkpt lat="-20.41638900106226" lon="118.83535744409163"><ele>36.0</ele><time>2026-04-23T06:54:02Z</time></trkpt><trkpt lat="-20.416226148285986" lon="118.83525664220178"><ele>36.0</ele><time>2026-04-23T06:54:03Z</time></trkpt><trkpt lat="-20.416083877558393" lon="118.83514915267125"><ele>36.0</ele><time>2026-04-23T06:54:04Z</time></trkpt><trkpt lat="-20.4159701326909" lon="118.83503574483896"><ele>36.0</ele><time>2026-04-23T06:54:05Z</time></trkpt><trkpt lat="-20.415852982173455" lon="118.8349351047448"><ele>36.0</ele><time>2026-04-23T06:54:06Z</time></trkpt><trkpt lat="-20.415728161522786" lon="118.83483813740965"><ele>36.0</ele><time>2026-04-23T06:54:07Z</time></trkpt><trkpt lat="-20.415596862881905" lon="118.83475089892376"><ele>36.0</ele><time>2026-04-23T06:54:08Z</time></trkpt><trkpt lat="-20.415433976614516" lon="118.83468943508605"><ele>36.0</ele><time>2026-04-23T06:54:09Z</time></trkpt><trkpt lat="-20.4152730783855" lon="118.83460321545441"><ele>35.333333333333336</ele><time>2026-04-23T06:54:10Z</time></trkpt><trkpt lat="-20.415106925170743" lon="118.83452589075495"><ele>34.66666666666667</ele><time>2026-04-23T06:54:11Z</time></trkpt><trkpt lat="-20.41493830170908" lon="118.83445022982121"><ele>34.0</ele><time>2026-04-23T06:54:12Z</time></trkpt><trkpt lat="-20.414786229354952" lon="118.83435463107088"><ele>34.66666666666667</ele><time>2026-04-23T06:54:13Z</time></trkpt><trkpt lat="-20.414618469843756" lon="118.8342589067474"><ele>35.333333333333336</ele><time>2026-04-23T06:54:14Z</time></trkpt><trkpt lat="-20.414463186233696" lon="118.83416976136276"><ele>36.0</ele><time>2026-04-23T06:54:15Z</time></trkpt><trkpt lat="-20.414305454929234" lon="118.83408155730051"><ele>36.0</ele><time>2026-04-23T06:54:16Z</time></trkpt><trkpt lat="-20.414137929973926" lon="118.83398855254228"><ele>36.0</ele><time>2026-04-23T06:54:17Z</time></trkpt><trkpt lat="-20.413987750266017" lon="118.83390523764973"><ele>36.0</ele><time>2026-04-23T06:54:18Z</time></trkpt><trkpt lat="-20.413838826904154" lon="118.83382281292243"><ele>35.666666666666664</ele><time>2026-04-23T06:54:19Z</time></trkpt><trkpt lat="-20.413680125675803" lon="118.83373561203446"><ele>35.33333333333333</ele><time>2026-04-23T06:54:20Z</time></trkpt><trkpt lat="-20.41352059825078" lon="118.83365986703028"><ele>35.0</ele><time>2026-04-23T06:54:21Z</time></trkpt><trkpt lat="-20.41335123310188" lon="118.83356164675459"><ele>34.666666666666664</ele><time>2026-04-23T06:54:22Z</time></trkpt><trkpt lat="-20.41317337715333" lon="118.8334622419689"><ele>34.333333333333336</ele><time>2026-04-23T06:54:23Z</time></trkpt><trkpt lat="-20.412992229008072" lon="118.83336528871858"><ele>34.0</ele><time>2026-04-23T06:54:24Z</time></trkpt><trkpt lat="-20.412806143523284" lon="118.8332689001683"><ele>33.66666666666667</ele><time>2026-04-23T06:54:25Z</time></trkpt><trkpt lat="-20.41261923550676" lon="118.83317010349411"><ele>33.333333333333336</ele><time>2026-04-23T06:54:26Z</time></trkpt><trkpt lat="-20.41243173718397" lon="118.83307113833997"><ele>33.0</ele><time>2026-04-23T06:54:27Z</time></trkpt><trkpt lat="-20.412252406826724" lon="118.83295584008532"><ele>33.0</ele><time>2026-04-23T06:54:28Z</time></trkpt><trkpt lat="-20.412068181838134" lon="118.83285506775812"><ele>33.0</ele><time>2026-04-23T06:54:29Z</time></trkpt><trkpt lat="-20.41188191532133" lon="118.83275317869797"><ele>33.0</ele><time>2026-04-23T06:54:30Z</time></trkpt><trkpt lat="-20.411684428762275" lon="118.832663443113"><ele>33.333333333333336</ele><time>2026-04-23T06:54:31Z</time></trkpt><trkpt lat="-20.41149376953934" lon="118.83255548903195"><ele>33.66666666666667</ele><time>2026-04-23T06:54:32Z</time></trkpt><trkpt lat="-20.411315313575113" lon="118.83243567883737"><ele>34.0</ele><time>2026-04-23T06:54:33Z</time></trkpt><trkpt lat="-20.411130091259444" lon="118.83233080238044"><ele>34.0</ele><time>2026-04-23T06:54:34Z</time></trkpt><trkpt lat="-20.410930971678624" lon="118.83223624787951"><ele>34.0</ele><time>2026-04-23T06:54:35Z</time></trkpt><trkpt lat="-20.410735170497848" lon="118.83212115050122"><ele>34.0</ele><time>2026-04-23T06:54:36Z</time></trkpt><trkpt lat="-20.410534809437813" lon="118.83200054257085"><ele>33.0</ele><time>2026-04-23T06:54:37Z</time></trkpt><trkpt lat="-20.410331120762727" lon="118.83187577169721"><ele>32.0</ele><time>2026-04-23T06:54:38Z</time></trkpt><trkpt lat="-20.410128902099654" lon="118.83175027979682"><ele>31.5</ele><time>2026-04-23T06:54:39Z</time></trkpt><trkpt lat="-20.409928157371482" lon="118.83162436028137"><ele>31.0</ele><time>2026-04-23T06:54:40.001Z</time></trkpt><trkpt lat="-20.40972410472458" lon="118.83149481921897"><ele>30.5</ele><time>2026-04-23T06:54:41.001Z</time></trkpt><trkpt lat="-20.409524213916022" lon="118.83136658954837"><ele>30.0</ele><time>2026-04-23T06:54:42.001Z</time></trkpt><trkpt lat="-20.40931983584864" lon="118.8312402872918"><ele>30.0</ele><time>2026-04-23T06:54:43.001Z</time></trkpt><trkpt lat="-20.409115022484773" lon="118.83111922980274"><ele>30.0</ele><time>2026-04-23T06:54:44.001Z</time></trkpt><trkpt lat="-20.40891064465924" lon="118.83100259650404"><ele>30.333333333333336</ele><time>2026-04-23T06:54:45.001Z</time></trkpt><trkpt lat="-20.408711681001073" lon="118.83088788001417"><ele>30.666666666666668</ele><time>2026-04-23T06:54:46.001Z</time></trkpt><trkpt lat="-20.40852172748295" lon="118.83077763964705"><ele>31.0</ele><time>2026-04-23T06:54:47.001Z</time></trkpt><trkpt lat="-20.408328536492256" lon="118.83066970207568"><ele>31.0</ele><time>2026-04-23T06:54:48.001Z</time></trkpt><trkpt lat="-20.40813709245977" lon="118.83056393421161"><ele>31.0</ele><time>2026-04-23T06:54:49.001Z</time></trkpt><trkpt lat="-20.40795046362457" lon="118.83046391595785"><ele>31.0</ele><time>2026-04-23T06:54:50.001Z</time></trkpt><trkpt lat="-20.407767177318718" lon="118.8303681709593"><ele>30.666666666666668</ele><time>2026-04-23T06:54:51.001Z</time></trkpt><trkpt lat="-20.407583214190602" lon="118.83026235262548"><ele>30.333333333333336</ele><time>2026-04-23T06:54:52.001Z</time></trkpt><trkpt lat="-20.407400699440295" lon="118.83015517678733"><ele>30.0</ele><time>2026-04-23T06:54:53.001Z</time></trkpt><trkpt lat="-20.40721972883504" lon="118.83004458002225"><ele>29.0</ele><time>2026-04-23T06:54:54.001Z</time></trkpt><trkpt lat="-20.40704879240565" lon="118.82990662223234"><ele>28.0</ele><time>2026-04-23T06:54:55.001Z</time></trkpt><trkpt lat="-20.406864408037844" lon="118.82977312460011"><ele>27.0</ele><time>2026-04-23T06:54:56.001Z</time></trkpt><trkpt lat="-20.40666910393537" lon="118.82964560962903"><ele>27.0</ele><time>2026-04-23T06:54:57.001Z</time></trkpt><trkpt lat="-20.406466399698438" lon="118.82951836906243"><ele>27.0</ele><time>2026-04-23T06:54:58.001Z</time></trkpt><trkpt lat="-20.406253543971484" lon="118.82938932022564"><ele>27.0</ele><time>2026-04-23T06:54:59.001Z</time></trkpt><trkpt lat="-20.40603802582809" lon="118.8292630903703"><ele>27.0</ele><time>2026-04-23T06:55:00.001Z</time></trkpt><trkpt lat="-20.405812403281235" lon="118.82915429250264"><ele>27.0</ele><time>2026-04-23T06:55:01.001Z</time></trkpt><trkpt lat="-20.40559959256325" lon="118.82902908878968"><ele>27.0</ele><time>2026-04-23T06:55:02.001Z</time></trkpt><trkpt lat="-20.40538665820778" lon="118.82890851782466"><ele>27.5</ele><time>2026-04-23T06:55:03.001Z</time></trkpt><trkpt lat="-20.40517320022505" lon="118.82879061606798"><ele>28.0</ele><time>2026-04-23T06:55:04.001Z</time></trkpt><trkpt lat="-20.40495360784691" lon="118.82866697563298"><ele>28.0</ele><time>2026-04-23T06:55:05.001Z</time></trkpt><trkpt lat="-20.40473354741465" lon="118.82854042445112"><ele>28.0</ele><time>2026-04-23T06:55:06.001Z</time></trkpt><trkpt lat="-20.40452580207274" lon="118.82842311547745"><ele>27.5</ele><time>2026-04-23T06:55:07.001Z</time></trkpt><trkpt lat="-20.404314275957145" lon="118.82830111716763"><ele>27.0</ele><time>2026-04-23T06:55:08.001Z</time></trkpt><trkpt lat="-20.404097648528488" lon="118.8281772640083"><ele>27.0</ele><time>2026-04-23T06:55:09.001Z</time></trkpt><trkpt lat="-20.403889398036913" lon="118.82803272801635"><ele>27.0</ele><time>2026-04-23T06:55:10.001Z</time></trkpt><trkpt lat="-20.403680942558925" lon="118.82790865588207"><ele>27.0</ele><time>2026-04-23T06:55:11.001Z</time></trkpt><trkpt lat="-20.403474533533654" lon="118.82778580189833"><ele>27.0</ele><time>2026-04-23T06:55:12.001Z</time></trkpt><trkpt lat="-20.403272423098027" lon="118.82766575817975"><ele>27.0</ele><time>2026-04-23T06:55:13.001Z</time></trkpt><trkpt lat="-20.403068696636772" lon="118.82754573806943"><ele>27.0</ele><time>2026-04-23T06:55:14.001Z</time></trkpt><trkpt lat="-20.40286089113605" lon="118.82744160843879"><ele>26.5</ele><time>2026-04-23T06:55:15.001Z</time></trkpt><trkpt lat="-20.402655247321572" lon="118.82731501664016"><ele>26.0</ele><time>2026-04-23T06:55:16.001Z</time></trkpt><trkpt lat="-20.402453455006025" lon="118.82719269459824"><ele>26.0</ele><time>2026-04-23T06:55:17.001Z</time></trkpt><trkpt lat="-20.40224338790642" lon="118.82707363578318"><ele>26.0</ele><time>2026-04-23T06:55:18.001Z</time></trkpt><trkpt lat="-20.40202537520299" lon="118.8269487215394"><ele>25.5</ele><time>2026-04-23T06:55:19.001Z</time></trkpt><trkpt lat="-20.401802068651683" lon="118.82682550254637"><ele>25.0</ele><time>2026-04-23T06:55:20.001Z</time></trkpt><trkpt lat="-20.4015827591843" lon="118.82670430334554"><ele>25.0</ele><time>2026-04-23T06:55:21.001Z</time></trkpt><trkpt lat="-20.401368738736533" lon="118.82658630134081"><ele>25.0</ele><time>2026-04-23T06:55:22.001Z</time></trkpt><trkpt lat="-20.40115532023172" lon="118.82646703023694"><ele>24.5</ele><time>2026-04-23T06:55:23.001Z</time></trkpt><trkpt lat="-20.400947877236376" lon="118.82634924231104"><ele>24.0</ele><time>2026-04-23T06:55:24.001Z</time></trkpt><trkpt lat="-20.400746892222383" lon="118.82623220857734"><ele>24.0</ele><time>2026-04-23T06:55:25.001Z</time></trkpt><trkpt lat="-20.40056056485583" lon="118.82611727604711"><ele>24.0</ele><time>2026-04-23T06:55:26.001Z</time></trkpt><trkpt lat="-20.40037947986967" lon="118.82599831974436"><ele>24.0</ele><time>2026-04-23T06:55:27.001Z</time></trkpt><trkpt lat="-20.400196653945983" lon="118.8258773509908"><ele>24.0</ele><time>2026-04-23T06:55:28.001Z</time></trkpt><trkpt lat="-20.400007956172896" lon="118.8257583227018"><ele>24.0</ele><time>2026-04-23T06:55:29.001Z</time></trkpt><trkpt lat="-20.399815365053257" lon="118.82564121167034"><ele>24.0</ele><time>2026-04-23T06:55:30.001Z</time></trkpt><trkpt lat="-20.399631616696468" lon="118.82550691710136"><ele>24.0</ele><time>2026-04-23T06:55:31.001Z</time></trkpt><trkpt lat="-20.399452983673697" lon="118.82539224449566"><ele>24.0</ele><time>2026-04-23T06:55:32.001Z</time></trkpt><trkpt lat="-20.39927841021839" lon="118.82530063236155"><ele>24.0</ele><time>2026-04-23T06:55:33.001Z</time></trkpt><trkpt lat="-20.399115867232805" lon="118.82519018419814"><ele>24.0</ele><time>2026-04-23T06:55:34.001Z</time></trkpt><trkpt lat="-20.398933168923882" lon="118.8250683470752"><ele>24.0</ele><time>2026-04-23T06:55:35.001Z</time></trkpt><trkpt lat="-20.398748338459633" lon="118.8249487502093"><ele>24.0</ele><time>2026-04-23T06:55:36.001Z</time></trkpt><trkpt lat="-20.39855566735947" lon="118.82483111185861"><ele>24.0</ele><time>2026-04-23T06:55:37.001Z</time></trkpt><trkpt lat="-20.398362539403983" lon="118.82472009326963"><ele>24.0</ele><time>2026-04-23T06:55:38.001Z</time></trkpt><trkpt lat="-20.398181359686344" lon="118.8245900607542"><ele>24.0</ele><time>2026-04-23T06:55:39.001Z</time></trkpt><trkpt lat="-20.397988051089982" lon="118.82447427297136"><ele>24.0</ele><time>2026-04-23T06:55:40.001Z</time></trkpt><trkpt lat="-20.397795747652836" lon="118.82436084632981"><ele>24.0</ele><time>2026-04-23T06:55:41Z</time></trkpt><trkpt lat="-20.397603440186494" lon="118.82424879344208"><ele>24.0</ele><time>2026-04-23T06:55:42Z</time></trkpt><trkpt lat="-20.39741454046358" lon="118.82413900046011"><ele>24.0</ele><time>2026-04-23T06:55:43Z</time></trkpt><trkpt lat="-20.39721840816265" lon="118.82403878520478"><ele>24.0</ele><time>2026-04-23T06:55:44Z</time></trkpt><trkpt lat="-20.397025487145516" lon="118.82391629900397"><ele>24.0</ele><time>2026-04-23T06:55:45Z</time></trkpt><trkpt lat="-20.396834901909582" lon="118.82379546143187"><ele>24.5</ele><time>2026-04-23T06:55:46Z</time></trkpt><trkpt lat="-20.396634141581767" lon="118.82367087797168"><ele>25.0</ele><time>2026-04-23T06:55:47Z</time></trkpt><trkpt lat="-20.396439213842235" lon="118.82355368880751"><ele>23.666666666666668</ele><time>2026-04-23T06:55:48Z</time></trkpt><trkpt lat="-20.39625026962567" lon="118.82343761980609"><ele>22.333333333333336</ele><time>2026-04-23T06:55:49Z</time></trkpt><trkpt lat="-20.39605744485973" lon="118.82331717956521"><ele>21.0</ele><time>2026-04-23T06:55:50Z</time></trkpt><trkpt lat="-20.39585912500002" lon="118.82319776207648"><ele>21.0</ele><time>2026-04-23T06:55:51Z</time></trkpt><trkpt lat="-20.39565624117198" lon="118.82308232744089"><ele>21.0</ele><time>2026-04-23T06:55:52Z</time></trkpt><trkpt lat="-20.395450684031555" lon="118.82297618182128"><ele>21.0</ele><time>2026-04-23T06:55:53Z</time></trkpt><trkpt lat="-20.395240707554958" lon="118.82288206464361"><ele>21.0</ele><time>2026-04-23T06:55:54Z</time></trkpt><trkpt lat="-20.395018469575188" lon="118.82279478551935"><ele>21.0</ele><time>2026-04-23T06:55:55Z</time></trkpt><trkpt lat="-20.39478522073854" lon="118.82271423315586"><ele>21.0</ele><time>2026-04-23T06:55:56Z</time></trkpt><trkpt lat="-20.39455066977783" lon="118.82263796935638"><ele>20.666666666666668</ele><time>2026-04-23T06:55:57Z</time></trkpt><trkpt lat="-20.394326929046986" lon="118.82257051320893"><ele>20.333333333333336</ele><time>2026-04-23T06:55:58Z</time></trkpt><trkpt lat="-20.394117398512076" lon="118.82251358351904"><ele>20.0</ele><time>2026-04-23T06:55:59Z</time></trkpt><trkpt lat="-20.39391090153721" lon="118.82246117174834"><ele>20.333333333333336</ele><time>2026-04-23T06:56:00Z</time></trkpt><trkpt lat="-20.393715539394424" lon="118.82241249317748"><ele>20.666666666666668</ele><time>2026-04-23T06:56:01Z</time></trkpt><trkpt lat="-20.393511549145433" lon="118.82236713132733"><ele>21.0</ele><time>2026-04-23T06:56:02Z</time></trkpt><trkpt lat="-20.393310612396665" lon="118.82232998211724"><ele>21.0</ele><time>2026-04-23T06:56:03Z</time></trkpt><trkpt lat="-20.393105325495974" lon="118.82229843976835"><ele>21.0</ele><time>2026-04-23T06:56:04Z</time></trkpt><trkpt lat="-20.392895976850145" lon="118.82227390852076"><ele>21.0</ele><time>2026-04-23T06:56:05Z</time></trkpt><trkpt lat="-20.39268631134411" lon="118.82225570734701"><ele>21.333333333333332</ele><time>2026-04-23T06:56:06Z</time></trkpt><trkpt lat="-20.392474049287724" lon="118.82223486327304"><ele>21.666666666666664</ele><time>2026-04-23T06:56:07Z</time></trkpt><trkpt lat="-20.392257626659525" lon="118.82221751112196"><ele>22.0</ele><time>2026-04-23T06:56:08Z</time></trkpt><trkpt lat="-20.392033071025946" lon="118.82220863116137"><ele>22.0</ele><time>2026-04-23T06:56:09Z</time></trkpt><trkpt lat="-20.39180555638208" lon="118.82220744385373"><ele>22.0</ele><time>2026-04-23T06:56:10Z</time></trkpt><trkpt lat="-20.391592819115765" lon="118.82221878810054"><ele>22.0</ele><time>2026-04-23T06:56:11Z</time></trkpt><trkpt lat="-20.39138249989576" lon="118.82223142070475"><ele>22.333333333333332</ele><time>2026-04-23T06:56:12Z</time></trkpt><trkpt lat="-20.391184615687138" lon="118.82224153842346"><ele>22.666666666666668</ele><time>2026-04-23T06:56:13Z</time></trkpt><trkpt lat="-20.390990020812435" lon="118.82225709765545"><ele>23.0</ele><time>2026-04-23T06:56:14Z</time></trkpt><trkpt lat="-20.390813409875122" lon="118.82227889514245"><ele>23.0</ele><time>2026-04-23T06:56:15Z</time></trkpt><trkpt lat="-20.390643792680045" lon="118.82227539928769"><ele>23.0</ele><time>2026-04-23T06:56:16Z</time></trkpt><trkpt lat="-20.3904848572719" lon="118.82230261995683"><ele>23.0</ele><time>2026-04-23T06:56:17Z</time></trkpt><trkpt lat="-20.39033371970941" lon="118.82231021803922"><ele>22.5</ele><time>2026-04-23T06:56:18Z</time></trkpt><trkpt lat="-20.390198492003172" lon="118.82231691127183"><ele>22.0</ele><time>2026-04-23T06:56:19Z</time></trkpt><trkpt lat="-20.39006710443352" lon="118.82232380751618"><ele>21.5</ele><time>2026-04-23T06:56:20Z</time></trkpt><trkpt lat="-20.389948497459557" lon="118.8223291266412"><ele>21.0</ele><time>2026-04-23T06:56:21Z</time></trkpt><trkpt lat="-20.389850932119977" lon="118.8223308081199"><ele>21.0</ele><time>2026-04-23T06:56:22Z</time></trkpt><trkpt lat="-20.389777584193077" lon="118.82233425680532"><ele>21.0</ele><time>2026-04-23T06:56:23Z</time></trkpt><trkpt lat="-20.389665504348837" lon="118.8223574936148"><ele>21.0</ele><time>2026-04-23T06:56:25Z</time></trkpt><trkpt lat="-20.389564169125787" lon="118.82251668157545"><ele>21.0</ele><time>2026-04-23T06:56:27Z</time></trkpt><trkpt lat="-20.389537536165506" lon="118.82262968704717"><ele>20.333333333333332</ele><time>2026-04-23T06:56:28Z</time></trkpt><trkpt lat="-20.389536039527062" lon="118.82278024868336"><ele>19.666666666666664</ele><time>2026-04-23T06:56:29Z</time></trkpt><trkpt lat="-20.38955207211502" lon="118.82296297917146"><ele>19.0</ele><time>2026-04-23T06:56:30Z</time></trkpt><trkpt lat="-20.389570050496122" lon="118.82316327646228"><ele>19.0</ele><time>2026-04-23T06:56:31Z</time></trkpt><trkpt lat="-20.38958751317122" lon="118.82337390118096"><ele>19.0</ele><time>2026-04-23T06:56:32Z</time></trkpt><trkpt lat="-20.389601276111755" lon="118.82360183085721"><ele>19.0</ele><time>2026-04-23T06:56:33Z</time></trkpt><trkpt lat="-20.389610370857" lon="118.82383506675835"><ele>19.5</ele><time>2026-04-23T06:56:34Z</time></trkpt><trkpt lat="-20.389620208135018" lon="118.8240886426433"><ele>20.0</ele><time>2026-04-23T06:56:35Z</time></trkpt><trkpt lat="-20.389634295270515" lon="118.82435466284065"><ele>20.5</ele><time>2026-04-23T06:56:36Z</time></trkpt><trkpt lat="-20.389645418354693" lon="118.82461787985407"><ele>21.0</ele><time>2026-04-23T06:56:37Z</time></trkpt><trkpt lat="-20.38965324978682" lon="118.8248946670916"><ele>20.5</ele><time>2026-04-23T06:56:38Z</time></trkpt><trkpt lat="-20.389664082076397" lon="118.82518418370452"><ele>20.0</ele><time>2026-04-23T06:56:39Z</time></trkpt><trkpt lat="-20.389678211067555" lon="118.82548910019031"><ele>19.5</ele><time>2026-04-23T06:56:40Z</time></trkpt><trkpt lat="-20.38969036988636" lon="118.82578574757262"><ele>19.0</ele><time>2026-04-23T06:56:41Z</time></trkpt><trkpt lat="-20.389700791041527" lon="118.82607449391904"><ele>20.0</ele><time>2026-04-23T06:56:42Z</time></trkpt><trkpt lat="-20.389711961687844" lon="118.82636218084123"><ele>21.0</ele><time>2026-04-23T06:56:43Z</time></trkpt><trkpt lat="-20.3897237213148" lon="118.82664683175297"><ele>21.5</ele><time>2026-04-23T06:56:44Z</time></trkpt><trkpt lat="-20.389736551000702" lon="118.82693259091934"><ele>22.0</ele><time>2026-04-23T06:56:45Z</time></trkpt><trkpt lat="-20.389747563699824" lon="118.82721787738333"><ele>22.0</ele><time>2026-04-23T06:56:46Z</time></trkpt><trkpt lat="-20.389758145485718" lon="118.82750360203451"><ele>22.0</ele><time>2026-04-23T06:56:47Z</time></trkpt><trkpt lat="-20.389767346319136" lon="118.82778827600886"><ele>21.5</ele><time>2026-04-23T06:56:48Z</time></trkpt><trkpt lat="-20.389775899119734" lon="118.82807261075594"><ele>21.0</ele><time>2026-04-23T06:56:49Z</time></trkpt><trkpt lat="-20.389786899378418" lon="118.82835806068489"><ele>20.5</ele><time>2026-04-23T06:56:50Z</time></trkpt><trkpt lat="-20.389799119677775" lon="118.82864791767054"><ele>20.0</ele><time>2026-04-23T06:56:51Z</time></trkpt><trkpt lat="-20.38981093022366" lon="118.82894835851208"><ele>20.0</ele><time>2026-04-23T06:56:52Z</time></trkpt><trkpt lat="-20.389823274137786" lon="118.8292488157831"><ele>20.0</ele><time>2026-04-23T06:56:53Z</time></trkpt><trkpt lat="-20.389835237479232" lon="118.82954910475662"><ele>20.5</ele><time>2026-04-23T06:56:54Z</time></trkpt><trkpt lat="-20.389847891974696" lon="118.8298478217925"><ele>21.0</ele><time>2026-04-23T06:56:55Z</time></trkpt><trkpt lat="-20.389860460137893" lon="118.83014142115844"><ele>21.5</ele><time>2026-04-23T06:56:56.001Z</time></trkpt><trkpt lat="-20.389872707961192" lon="118.83043965462916"><ele>22.0</ele><time>2026-04-23T06:56:57.001Z</time></trkpt><trkpt lat="-20.389884111591673" lon="118.83073344162214"><ele>22.0</ele><time>2026-04-23T06:56:58.001Z</time></trkpt><trkpt lat="-20.389895993209468" lon="118.83103032587738"><ele>22.0</ele><time>2026-04-23T06:56:59.001Z</time></trkpt><trkpt lat="-20.38990657355011" lon="118.8313247408011"><ele>22.0</ele><time>2026-04-23T06:57:00.001Z</time></trkpt><trkpt lat="-20.389916823488424" lon="118.8316169568334"><ele>22.0</ele><time>2026-04-23T06:57:01.001Z</time></trkpt><trkpt lat="-20.389927564593147" lon="118.83191152761292"><ele>22.0</ele><time>2026-04-23T06:57:02.001Z</time></trkpt><trkpt lat="-20.389939950341404" lon="118.83220618267198"><ele>22.0</ele><time>2026-04-23T06:57:03.001Z</time></trkpt><trkpt lat="-20.389952019461678" lon="118.83250325743731"><ele>21.5</ele><time>2026-04-23T06:57:04.001Z</time></trkpt><trkpt lat="-20.389961683357406" lon="118.83279842825027"><ele>21.0</ele><time>2026-04-23T06:57:05.001Z</time></trkpt><trkpt lat="-20.389970744536395" lon="118.83309113062573"><ele>21.0</ele><time>2026-04-23T06:57:06.001Z</time></trkpt><trkpt lat="-20.389982730441513" lon="118.83338696046832"><ele>21.0</ele><time>2026-04-23T06:57:07.001Z</time></trkpt><trkpt lat="-20.38999547949341" lon="118.83368334037212"><ele>20.5</ele><time>2026-04-23T06:57:08.001Z</time></trkpt><trkpt lat="-20.390004949401582" lon="118.83398065156358"><ele>20.0</ele><time>2026-04-23T06:57:09.001Z</time></trkpt><trkpt lat="-20.390014604322797" lon="118.83427679516798"><ele>20.0</ele><time>2026-04-23T06:57:10.001Z</time></trkpt><trkpt lat="-20.39002798375105" lon="118.8345713406974"><ele>20.0</ele><time>2026-04-23T06:57:11.001Z</time></trkpt><trkpt lat="-20.39004230265933" lon="118.83486844900769"><ele>21.0</ele><time>2026-04-23T06:57:12.001Z</time></trkpt><trkpt lat="-20.390053726646045" lon="118.83516045512837"><ele>22.0</ele><time>2026-04-23T06:57:13.001Z</time></trkpt><trkpt lat="-20.390064009337912" lon="118.83545444689902"><ele>22.0</ele><time>2026-04-23T06:57:14.001Z</time></trkpt><trkpt lat="-20.39007414161511" lon="118.83574733612859"><ele>22.0</ele><time>2026-04-23T06:57:15.001Z</time></trkpt><trkpt lat="-20.39008555163755" lon="118.836041113624"><ele>21.5</ele><time>2026-04-23T06:57:16.001Z</time></trkpt><trkpt lat="-20.39009708983378" lon="118.83633349339927"><ele>21.0</ele><time>2026-04-23T06:57:17.001Z</time></trkpt><trkpt lat="-20.390110005191506" lon="118.8366255055595"><ele>21.5</ele><time>2026-04-23T06:57:18.001Z</time></trkpt><trkpt lat="-20.390120786161162" lon="118.83691790931962"><ele>22.0</ele><time>2026-04-23T06:57:19.001Z</time></trkpt><trkpt lat="-20.39013343913291" lon="118.83720720941595"><ele>22.0</ele><time>2026-04-23T06:57:20.001Z</time></trkpt><trkpt lat="-20.390144882352946" lon="118.83749640580871"><ele>22.0</ele><time>2026-04-23T06:57:21.001Z</time></trkpt><trkpt lat="-20.390156887606185" lon="118.83778141951798"><ele>20.5</ele><time>2026-04-23T06:57:22.001Z</time></trkpt><trkpt lat="-20.390167385622874" lon="118.83807124428415"><ele>19.0</ele><time>2026-04-23T06:57:23.001Z</time></trkpt><trkpt lat="-20.39017768512029" lon="118.83835710238503"><ele>20.5</ele><time>2026-04-23T06:57:24.001Z</time></trkpt><trkpt lat="-20.390187306336493" lon="118.83864686396679"><ele>22.0</ele><time>2026-04-23T06:57:25.001Z</time></trkpt><trkpt lat="-20.390196733726622" lon="118.8389358466619"><ele>22.0</ele><time>2026-04-23T06:57:26.001Z</time></trkpt><trkpt lat="-20.390207218486566" lon="118.8392280801012"><ele>22.0</ele><time>2026-04-23T06:57:27.001Z</time></trkpt><trkpt lat="-20.390221960355785" lon="118.8395142349458"><ele>21.5</ele><time>2026-04-23T06:57:28.001Z</time></trkpt><trkpt lat="-20.390237291364667" lon="118.8397972975496"><ele>21.0</ele><time>2026-04-23T06:57:29.001Z</time></trkpt><trkpt lat="-20.390251039906513" lon="118.84008004365603"><ele>21.5</ele><time>2026-04-23T06:57:30.001Z</time></trkpt><trkpt lat="-20.39026175150735" lon="118.84036627140885"><ele>22.0</ele><time>2026-04-23T06:57:31.001Z</time></trkpt><trkpt lat="-20.390270775768965" lon="118.84065382892061"><ele>22.0</ele><time>2026-04-23T06:57:32.001Z</time></trkpt><trkpt lat="-20.39027924130694" lon="118.8409390523764"><ele>22.0</ele><time>2026-04-23T06:57:33.001Z</time></trkpt><trkpt lat="-20.390289381910122" lon="118.84122101282922"><ele>23.0</ele><time>2026-04-23T06:57:34.001Z</time></trkpt><trkpt lat="-20.390301698372998" lon="118.84150376774753"><ele>24.0</ele><time>2026-04-23T06:57:35.001Z</time></trkpt><trkpt lat="-20.390314448173985" lon="118.84178449335005"><ele>23.5</ele><time>2026-04-23T06:57:36.001Z</time></trkpt><trkpt lat="-20.390325060157572" lon="118.84206660100996"><ele>23.0</ele><time>2026-04-23T06:57:37.001Z</time></trkpt><trkpt lat="-20.39033529170556" lon="118.84234592568316"><ele>23.0</ele><time>2026-04-23T06:57:38.001Z</time></trkpt><trkpt lat="-20.390345284529467" lon="118.84262714024024"><ele>23.0</ele><time>2026-04-23T06:57:39.001Z</time></trkpt><trkpt lat="-20.390355777066382" lon="118.84290825919354"><ele>22.5</ele><time>2026-04-23T06:57:40.001Z</time></trkpt><trkpt lat="-20.390365332530916" lon="118.84319142045115"><ele>22.0</ele><time>2026-04-23T06:57:41.001Z</time></trkpt><trkpt lat="-20.390373909710124" lon="118.84347810576695"><ele>22.0</ele><time>2026-04-23T06:57:42.001Z</time></trkpt><trkpt lat="-20.3903858987841" lon="118.84376096913559"><ele>22.0</ele><time>2026-04-23T06:57:43.001Z</time></trkpt><trkpt lat="-20.390399211191866" lon="118.8440465208648"><ele>22.0</ele><time>2026-04-23T06:57:44.001Z</time></trkpt><trkpt lat="-20.39041276834363" lon="118.84433163889982"><ele>22.0</ele><time>2026-04-23T06:57:45.001Z</time></trkpt><trkpt lat="-20.390425539723537" lon="118.84461899570049"><ele>22.0</ele><time>2026-04-23T06:57:46.001Z</time></trkpt><trkpt lat="-20.39043518607147" lon="118.84490756476741"><ele>22.0</ele><time>2026-04-23T06:57:46.999Z</time></trkpt><trkpt lat="-20.39044386737661" lon="118.84519880803043"><ele>22.5</ele><time>2026-04-23T06:57:47.999Z</time></trkpt><trkpt lat="-20.390454740868087" lon="118.84548976540673"><ele>23.0</ele><time>2026-04-23T06:57:48.999Z</time></trkpt><trkpt lat="-20.39046619163445" lon="118.84577624734864"><ele>22.5</ele><time>2026-04-23T06:57:49.999Z</time></trkpt><trkpt lat="-20.390478209348124" lon="118.84606144353113"><ele>22.0</ele><time>2026-04-23T06:57:50.999Z</time></trkpt><trkpt lat="-20.390488850011213" lon="118.84635195380667"><ele>22.0</ele><time>2026-04-23T06:57:51.999Z</time></trkpt><trkpt lat="-20.390499638064764" lon="118.8466438853037"><ele>22.0</ele><time>2026-04-23T06:57:52.999Z</time></trkpt><trkpt lat="-20.39051143175514" lon="118.84693593420879"><ele>22.0</ele><time>2026-04-23T06:57:53.999Z</time></trkpt><trkpt lat="-20.390524148115833" lon="118.84722426940192"><ele>22.0</ele><time>2026-04-23T06:57:54.999Z</time></trkpt><trkpt lat="-20.390544659201595" lon="118.84780730031326"><ele>23.0</ele><time>2026-04-23T06:57:56.999Z</time></trkpt><trkpt lat="-20.390557423381477" lon="118.84809566773193"><ele>24.0</ele><time>2026-04-23T06:57:57.999Z</time></trkpt><trkpt lat="-20.390570259913567" lon="118.84838085646992"><ele>24.5</ele><time>2026-04-23T06:57:58.999Z</time></trkpt><trkpt lat="-20.390580842166703" lon="118.84866759819673"><ele>25.0</ele><time>2026-04-23T06:57:59.999Z</time></trkpt><trkpt lat="-20.390591591976772" lon="118.84894997336154"><ele>25.0</ele><time>2026-04-23T06:58:00.999Z</time></trkpt><trkpt lat="-20.390600750742202" lon="118.84923369587924"><ele>25.0</ele><time>2026-04-23T06:58:01.999Z</time></trkpt><trkpt lat="-20.390612528345166" lon="118.849517232888"><ele>24.5</ele><time>2026-04-23T06:58:02.999Z</time></trkpt><trkpt lat="-20.390622954215644" lon="118.84979871858806"><ele>24.0</ele><time>2026-04-23T06:58:03.999Z</time></trkpt><trkpt lat="-20.390632812389367" lon="118.85007879311941"><ele>23.0</ele><time>2026-04-23T06:58:04.999Z</time></trkpt><trkpt lat="-20.390641037704565" lon="118.8503627402308"><ele>22.0</ele><time>2026-04-23T06:58:05.999Z</time></trkpt><trkpt lat="-20.39064875302107" lon="118.85064982899968"><ele>22.0</ele><time>2026-04-23T06:58:06.999Z</time></trkpt><trkpt lat="-20.39065846864248" lon="118.85093926530264"><ele>22.0</ele><time>2026-04-23T06:58:08Z</time></trkpt><trkpt lat="-20.39067099386319" lon="118.8512289863593"><ele>22.5</ele><time>2026-04-23T06:58:09Z</time></trkpt><trkpt lat="-20.390683624926496" lon="118.85151945765544"><ele>23.0</ele><time>2026-04-23T06:58:10Z</time></trkpt><trkpt lat="-20.390695376772744" lon="118.85181237784829"><ele>23.5</ele><time>2026-04-23T06:58:11Z</time></trkpt><trkpt lat="-20.39070607190799" lon="118.8521007837752"><ele>24.0</ele><time>2026-04-23T06:58:12Z</time></trkpt><trkpt lat="-20.39071738208924" lon="118.85239214438415"><ele>24.5</ele><time>2026-04-23T06:58:13Z</time></trkpt><trkpt lat="-20.390729312581826" lon="118.8526861370033"><ele>25.0</ele><time>2026-04-23T06:58:14Z</time></trkpt><trkpt lat="-20.390739503631004" lon="118.85297559481855"><ele>25.0</ele><time>2026-04-23T06:58:15Z</time></trkpt><trkpt lat="-20.390750757011887" lon="118.85326481827532"><ele>25.0</ele><time>2026-04-23T06:58:16Z</time></trkpt><trkpt lat="-20.390759201719817" lon="118.85355775167336"><ele>25.0</ele><time>2026-04-23T06:58:17Z</time></trkpt><trkpt lat="-20.3907690539985" lon="118.85384636129943"><ele>25.0</ele><time>2026-04-23T06:58:18Z</time></trkpt><trkpt lat="-20.390778878638045" lon="118.85413872243561"><ele>24.5</ele><time>2026-04-23T06:58:19Z</time></trkpt><trkpt lat="-20.390789063200806" lon="118.8544272563433"><ele>24.0</ele><time>2026-04-23T06:58:20Z</time></trkpt><trkpt lat="-20.39080200281202" lon="118.85471684211473"><ele>24.0</ele><time>2026-04-23T06:58:21Z</time></trkpt><trkpt lat="-20.39081427699796" lon="118.85500649831901"><ele>24.0</ele><time>2026-04-23T06:58:22Z</time></trkpt><trkpt lat="-20.390829510155655" lon="118.85529688550913"><ele>23.5</ele><time>2026-04-23T06:58:23Z</time></trkpt><trkpt lat="-20.390846032682493" lon="118.85558669871538"><ele>23.0</ele><time>2026-04-23T06:58:24Z</time></trkpt><trkpt lat="-20.3908594590484" lon="118.85587966613812"><ele>24.5</ele><time>2026-04-23T06:58:25Z</time></trkpt><trkpt lat="-20.390871483684315" lon="118.85617323945408"><ele>26.0</ele><time>2026-04-23T06:58:26Z</time></trkpt><trkpt lat="-20.390884737676014" lon="118.85646315823188"><ele>26.0</ele><time>2026-04-23T06:58:27Z</time></trkpt><trkpt lat="-20.39089836929521" lon="118.85675075226602"><ele>26.0</ele><time>2026-04-23T06:58:28Z</time></trkpt><trkpt lat="-20.39090719045169" lon="118.85703941183823"><ele>26.0</ele><time>2026-04-23T06:58:29Z</time></trkpt><trkpt lat="-20.39091532784566" lon="118.8573268388997"><ele>26.0</ele><time>2026-04-23T06:58:30Z</time></trkpt><trkpt lat="-20.390924446998614" lon="118.85761179151241"><ele>25.5</ele><time>2026-04-23T06:58:31Z</time></trkpt><trkpt lat="-20.390934460451987" lon="118.85789982451415"><ele>25.0</ele><time>2026-04-23T06:58:32Z</time></trkpt><trkpt lat="-20.390941602451583" lon="118.85818710672757"><ele>24.5</ele><time>2026-04-23T06:58:33Z</time></trkpt><trkpt lat="-20.390948636343595" lon="118.85847915798162"><ele>24.0</ele><time>2026-04-23T06:58:34Z</time></trkpt><trkpt lat="-20.390960173491862" lon="118.85877144052625"><ele>24.0</ele><time>2026-04-23T06:58:35Z</time></trkpt><trkpt lat="-20.390973638767974" lon="118.85906548129067"><ele>24.0</ele><time>2026-04-23T06:58:36Z</time></trkpt><trkpt lat="-20.390989764060407" lon="118.85935899343605"><ele>24.5</ele><time>2026-04-23T06:58:37Z</time></trkpt><trkpt lat="-20.391004913987825" lon="118.85965169105202"><ele>25.0</ele><time>2026-04-23T06:58:38Z</time></trkpt><trkpt lat="-20.39101708522478" lon="118.85994556234606"><ele>25.0</ele><time>2026-04-23T06:58:39Z</time></trkpt><trkpt lat="-20.391026041772804" lon="118.86023782032264"><ele>25.0</ele><time>2026-04-23T06:58:40Z</time></trkpt><trkpt lat="-20.391034325105686" lon="118.86052780332601"><ele>25.0</ele><time>2026-04-23T06:58:41Z</time></trkpt><trkpt lat="-20.391043961389823" lon="118.8608017355025"><ele>25.0</ele><time>2026-04-23T06:58:42Z</time></trkpt><trkpt lat="-20.391052368589055" lon="118.86107070425882"><ele>25.0</ele><time>2026-04-23T06:58:43Z</time></trkpt><trkpt lat="-20.391062711097714" lon="118.86134626126628"><ele>25.0</ele><time>2026-04-23T06:58:44Z</time></trkpt><trkpt lat="-20.391073989697112" lon="118.86162052388455"><ele>26.0</ele><time>2026-04-23T06:58:45Z</time></trkpt><trkpt lat="-20.39108309788711" lon="118.8618993284188"><ele>27.0</ele><time>2026-04-23T06:58:46Z</time></trkpt><trkpt lat="-20.391091282010358" lon="118.86217758202376"><ele>27.0</ele><time>2026-04-23T06:58:47Z</time></trkpt><trkpt lat="-20.391098825817426" lon="118.86245624856122"><ele>27.0</ele><time>2026-04-23T06:58:48Z</time></trkpt><trkpt lat="-20.391106172166356" lon="118.86273588434169"><ele>25.0</ele><time>2026-04-23T06:58:49Z</time></trkpt><trkpt lat="-20.39112105203762" lon="118.86330154770613"><ele>26.0</ele><time>2026-04-23T06:58:51Z</time></trkpt><trkpt lat="-20.39113283189783" lon="118.86358480686958"><ele>27.0</ele><time>2026-04-23T06:58:52Z</time></trkpt><trkpt lat="-20.391144585409485" lon="118.86386534181253"><ele>27.0</ele><time>2026-04-23T06:58:53Z</time></trkpt><trkpt lat="-20.391155592525052" lon="118.8641502391566"><ele>27.0</ele><time>2026-04-23T06:58:54Z</time></trkpt><trkpt lat="-20.391167896938043" lon="118.86443474653156"><ele>27.0</ele><time>2026-04-23T06:58:55Z</time></trkpt><trkpt lat="-20.391177713656813" lon="118.86472016701731"><ele>27.0</ele><time>2026-04-23T06:58:56Z</time></trkpt><trkpt lat="-20.391186072651827" lon="118.86500831979313"><ele>27.5</ele><time>2026-04-23T06:58:57Z</time></trkpt><trkpt lat="-20.391196769366662" lon="118.86529290529145"><ele>28.0</ele><time>2026-04-23T06:58:58Z</time></trkpt><trkpt lat="-20.391209280161007" lon="118.86558394510106"><ele>28.0</ele><time>2026-04-23T06:58:59Z</time></trkpt><trkpt lat="-20.391219260593047" lon="118.86586947406397"><ele>28.0</ele><time>2026-04-23T06:59:00Z</time></trkpt><trkpt lat="-20.391228313211226" lon="118.86615671732412"><ele>27.0</ele><time>2026-04-23T06:59:01Z</time></trkpt><trkpt lat="-20.391236916651113" lon="118.86644425958585"><ele>26.0</ele><time>2026-04-23T06:59:02Z</time></trkpt><trkpt lat="-20.391244603754195" lon="118.86673189731322"><ele>27.0</ele><time>2026-04-23T06:59:03Z</time></trkpt><trkpt lat="-20.391250525473996" lon="118.86702178276775"><ele>28.0</ele><time>2026-04-23T06:59:04Z</time></trkpt><trkpt lat="-20.391257846365537" lon="118.86731408017117"><ele>28.0</ele><time>2026-04-23T06:59:05.001Z</time></trkpt><trkpt lat="-20.3912669566493" lon="118.86760506215983"><ele>28.0</ele><time>2026-04-23T06:59:06.001Z</time></trkpt><trkpt lat="-20.391277497177335" lon="118.8678966401421"><ele>28.0</ele><time>2026-04-23T06:59:07.001Z</time></trkpt><trkpt lat="-20.391286767072124" lon="118.86818435135784"><ele>28.0</ele><time>2026-04-23T06:59:08.001Z</time></trkpt><trkpt lat="-20.391297807142916" lon="118.86847698287676"><ele>28.0</ele><time>2026-04-23T06:59:09.001Z</time></trkpt><trkpt lat="-20.39130717646814" lon="118.86877052120447"><ele>28.0</ele><time>2026-04-23T06:59:10.001Z</time></trkpt><trkpt lat="-20.391316662411903" lon="118.8690597121262"><ele>28.0</ele><time>2026-04-23T06:59:11.001Z</time></trkpt><trkpt lat="-20.391325640303826" lon="118.86934954950867"><ele>28.0</ele><time>2026-04-23T06:59:12.001Z</time></trkpt><trkpt lat="-20.3913344633467" lon="118.86964242850873"><ele>28.0</ele><time>2026-04-23T06:59:13.001Z</time></trkpt><trkpt lat="-20.391345120664894" lon="118.86993405403432"><ele>28.0</ele><time>2026-04-23T06:59:14.001Z</time></trkpt><trkpt lat="-20.39135530624144" lon="118.87022287763709"><ele>28.0</ele><time>2026-04-23T06:59:15.001Z</time></trkpt><trkpt lat="-20.391366209794306" lon="118.87051702395685"><ele>28.0</ele><time>2026-04-23T06:59:16.001Z</time></trkpt><trkpt lat="-20.391386921371467" lon="118.87110394925978"><ele>28.0</ele><time>2026-04-23T06:59:18.001Z</time></trkpt><trkpt lat="-20.39139450667061" lon="118.87140023562262"><ele>28.0</ele><time>2026-04-23T06:59:19.001Z</time></trkpt><trkpt lat="-20.3914025000188" lon="118.87169472718682"><ele>28.0</ele><time>2026-04-23T06:59:20.001Z</time></trkpt><trkpt lat="-20.39141159850553" lon="118.87199031899456"><ele>28.0</ele><time>2026-04-23T06:59:21.001Z</time></trkpt><trkpt lat="-20.391422009039527" lon="118.87228534125704"><ele>28.0</ele><time>2026-04-23T06:59:22.001Z</time></trkpt><trkpt lat="-20.391432150922125" lon="118.87258228281257"><ele>28.0</ele><time>2026-04-23T06:59:23.001Z</time></trkpt><trkpt lat="-20.39144362357262" lon="118.87288107209022"><ele>28.5</ele><time>2026-04-23T06:59:24.001Z</time></trkpt><trkpt lat="-20.3914561567157" lon="118.87317647337508"><ele>29.0</ele><time>2026-04-23T06:59:25.001Z</time></trkpt><trkpt lat="-20.39146601402791" lon="118.87347583560452"><ele>29.0</ele><time>2026-04-23T06:59:26.001Z</time></trkpt><trkpt lat="-20.391474357932633" lon="118.87377315152287"><ele>29.0</ele><time>2026-04-23T06:59:27.001Z</time></trkpt><trkpt lat="-20.391477311173947" lon="118.87407332611782"><ele>29.5</ele><time>2026-04-23T06:59:28.001Z</time></trkpt><trkpt lat="-20.391481549327224" lon="118.87437147870085"><ele>30.0</ele><time>2026-04-23T06:59:29.001Z</time></trkpt><trkpt lat="-20.391488434300413" lon="118.87466999471081"><ele>30.0</ele><time>2026-04-23T06:59:30.001Z</time></trkpt><trkpt lat="-20.39149849358766" lon="118.8749706142997"><ele>30.0</ele><time>2026-04-23T06:59:31.001Z</time></trkpt><trkpt lat="-20.391508185919673" lon="118.87527201340765"><ele>30.0</ele><time>2026-04-23T06:59:32.001Z</time></trkpt><trkpt lat="-20.391516631861265" lon="118.87557145824219"><ele>30.0</ele><time>2026-04-23T06:59:33.001Z</time></trkpt><trkpt lat="-20.391523148207675" lon="118.87587038000112"><ele>30.0</ele><time>2026-04-23T06:59:34.001Z</time></trkpt><trkpt lat="-20.391526540086716" lon="118.87617055400133"><ele>30.0</ele><time>2026-04-23T06:59:35.001Z</time></trkpt><trkpt lat="-20.391530637088405" lon="118.87646668888604"><ele>30.0</ele><time>2026-04-23T06:59:36.001Z</time></trkpt><trkpt lat="-20.391536408362516" lon="118.87676559263254"><ele>30.0</ele><time>2026-04-23T06:59:37.001Z</time></trkpt><trkpt lat="-20.391543195238278" lon="118.8770647025042"><ele>30.0</ele><time>2026-04-23T06:59:38.001Z</time></trkpt><trkpt lat="-20.39155018912945" lon="118.87736546409684"><ele>30.0</ele><time>2026-04-23T06:59:39.001Z</time></trkpt><trkpt lat="-20.391559844877218" lon="118.87766376316881"><ele>30.0</ele><time>2026-04-23T06:59:40.001Z</time></trkpt><trkpt lat="-20.391570730848564" lon="118.87796051898249"><ele>30.0</ele><time>2026-04-23T06:59:41.001Z</time></trkpt><trkpt lat="-20.391579858289536" lon="118.87825367968573"><ele>29.5</ele><time>2026-04-23T06:59:42.001Z</time></trkpt><trkpt lat="-20.391587590918974" lon="118.8785443373638"><ele>29.0</ele><time>2026-04-23T06:59:43.001Z</time></trkpt><trkpt lat="-20.39159387204952" lon="118.87883784277287"><ele>29.0</ele><time>2026-04-23T06:59:44.001Z</time></trkpt><trkpt lat="-20.391599672183307" lon="118.87913430682511"><ele>29.0</ele><time>2026-04-23T06:59:45.001Z</time></trkpt><trkpt lat="-20.391607455853073" lon="118.87943154835155"><ele>29.0</ele><time>2026-04-23T06:59:46.001Z</time></trkpt><trkpt lat="-20.39161326517567" lon="118.87973309612671"><ele>29.0</ele><time>2026-04-23T06:59:47.001Z</time></trkpt><trkpt lat="-20.391618925018765" lon="118.88003617660519"><ele>29.0</ele><time>2026-04-23T06:59:48.001Z</time></trkpt><trkpt lat="-20.39162468455573" lon="118.88033791441478"><ele>29.0</ele><time>2026-04-23T06:59:49.001Z</time></trkpt><trkpt lat="-20.39163083820756" lon="118.88064178116197"><ele>29.0</ele><time>2026-04-23T06:59:50.001Z</time></trkpt><trkpt lat="-20.391636888991734" lon="118.88094602572347"><ele>29.0</ele><time>2026-04-23T06:59:51.001Z</time></trkpt><trkpt lat="-20.39164371938074" lon="118.88125035104981"><ele>29.0</ele><time>2026-04-23T06:59:52.001Z</time></trkpt><trkpt lat="-20.391650813961018" lon="118.88155513555206"><ele>29.0</ele><time>2026-04-23T06:59:52.999Z</time></trkpt><trkpt lat="-20.391657605458224" lon="118.88186032499614"><ele>29.0</ele><time>2026-04-23T06:59:53.999Z</time></trkpt><trkpt lat="-20.39166449188393" lon="118.88216723486475"><ele>29.0</ele><time>2026-04-23T06:59:54.999Z</time></trkpt><trkpt lat="-20.391671987151934" lon="118.8824734702262"><ele>29.0</ele><time>2026-04-23T06:59:55.999Z</time></trkpt><trkpt lat="-20.391677586644118" lon="118.88277631298212"><ele>29.0</ele><time>2026-04-23T06:59:56.999Z</time></trkpt><trkpt lat="-20.391683227156655" lon="118.8830813403892"><ele>29.0</ele><time>2026-04-23T06:59:57.999Z</time></trkpt><trkpt lat="-20.39168773435156" lon="118.88338269850632"><ele>29.0</ele><time>2026-04-23T06:59:58.999Z</time></trkpt><trkpt lat="-20.39169234505204" lon="118.88368597141196"><ele>29.0</ele><time>2026-04-23T06:59:59.999Z</time></trkpt><trkpt lat="-20.391699741922253" lon="118.88398777872906"><ele>29.0</ele><time>2026-04-23T07:00:00.999Z</time></trkpt><trkpt lat="-20.39170845835077" lon="118.88429121704462"><ele>30.0</ele><time>2026-04-23T07:00:01.999Z</time></trkpt><trkpt lat="-20.391715063817607" lon="118.88459491923066"><ele>31.0</ele><time>2026-04-23T07:00:02.999Z</time></trkpt><trkpt lat="-20.391720569143317" lon="118.88489612461122"><ele>31.5</ele><time>2026-04-23T07:00:03.999Z</time></trkpt><trkpt lat="-20.3917247083438" lon="118.88519945128444"><ele>32.0</ele><time>2026-04-23T07:00:04.999Z</time></trkpt><trkpt lat="-20.39173052005116" lon="118.88550152040035"><ele>32.0</ele><time>2026-04-23T07:00:05.999Z</time></trkpt><trkpt lat="-20.391735246815315" lon="118.88580614136572"><ele>32.0</ele><time>2026-04-23T07:00:06.999Z</time></trkpt><trkpt lat="-20.39174026444947" lon="118.88610656646892"><ele>31.5</ele><time>2026-04-23T07:00:08Z</time></trkpt><trkpt lat="-20.391745552501767" lon="118.88640655657974"><ele>31.0</ele><time>2026-04-23T07:00:09Z</time></trkpt><trkpt lat="-20.39175029860587" lon="118.88670861108699"><ele>31.0</ele><time>2026-04-23T07:00:10Z</time></trkpt><trkpt lat="-20.391757044207683" lon="118.88700566491025"><ele>31.0</ele><time>2026-04-23T07:00:11Z</time></trkpt><trkpt lat="-20.39176375246112" lon="118.88730497131125"><ele>31.5</ele><time>2026-04-23T07:00:12Z</time></trkpt><trkpt lat="-20.39177128450722" lon="118.88760295417995"><ele>32.0</ele><time>2026-04-23T07:00:13Z</time></trkpt><trkpt lat="-20.391778935507084" lon="118.8879037765309"><ele>32.0</ele><time>2026-04-23T07:00:14Z</time></trkpt><trkpt lat="-20.39178480580056" lon="118.88820693744779"><ele>32.0</ele><time>2026-04-23T07:00:15Z</time></trkpt><trkpt lat="-20.391788759244" lon="118.8885124645722"><ele>31.5</ele><time>2026-04-23T07:00:16Z</time></trkpt><trkpt lat="-20.391793595593047" lon="118.88881947498744"><ele>31.0</ele><time>2026-04-23T07:00:17Z</time></trkpt><trkpt lat="-20.39179931970296" lon="118.88912794854639"><ele>31.5</ele><time>2026-04-23T07:00:18Z</time></trkpt><trkpt lat="-20.39180596504706" lon="118.88943698486686"><ele>32.0</ele><time>2026-04-23T07:00:19Z</time></trkpt><trkpt lat="-20.391814076299738" lon="118.88974654313175"><ele>32.0</ele><time>2026-04-23T07:00:20Z</time></trkpt><trkpt lat="-20.391821734964658" lon="118.89005854925053"><ele>32.0</ele><time>2026-04-23T07:00:21Z</time></trkpt><trkpt lat="-20.39183003206784" lon="118.89036711586607"><ele>31.5</ele><time>2026-04-23T07:00:22Z</time></trkpt><trkpt lat="-20.391837885576326" lon="118.89067469192942"><ele>31.0</ele><time>2026-04-23T07:00:23Z</time></trkpt><trkpt lat="-20.39184420092769" lon="118.89098087864629"><ele>30.5</ele><time>2026-04-23T07:00:24Z</time></trkpt><trkpt lat="-20.391850389785624" lon="118.89128866828258"><ele>30.0</ele><time>2026-04-23T07:00:25Z</time></trkpt><trkpt lat="-20.391856424610467" lon="118.89159343255643"><ele>31.5</ele><time>2026-04-23T07:00:26Z</time></trkpt><trkpt lat="-20.391860854144088" lon="118.89189919666089"><ele>33.0</ele><time>2026-04-23T07:00:27Z</time></trkpt><trkpt lat="-20.39186652473345" lon="118.89220356192101"><ele>33.0</ele><time>2026-04-23T07:00:28Z</time></trkpt><trkpt lat="-20.39187283008883" lon="118.89250871755678"><ele>33.0</ele><time>2026-04-23T07:00:29Z</time></trkpt><trkpt lat="-20.391879872331852" lon="118.89281773018811"><ele>33.5</ele><time>2026-04-23T07:00:30Z</time></trkpt><trkpt lat="-20.391887248119232" lon="118.89312903467814"><ele>34.0</ele><time>2026-04-23T07:00:31Z</time></trkpt><trkpt lat="-20.391893161790193" lon="118.89343752104595"><ele>34.0</ele><time>2026-04-23T07:00:32Z</time></trkpt><trkpt lat="-20.391897334342875" lon="118.89374696303149"><ele>34.0</ele><time>2026-04-23T07:00:33Z</time></trkpt><trkpt lat="-20.39190387659771" lon="118.89405482748695"><ele>34.0</ele><time>2026-04-23T07:00:34Z</time></trkpt><trkpt lat="-20.391911221735874" lon="118.89436105003392"><ele>34.0</ele><time>2026-04-23T07:00:35Z</time></trkpt><trkpt lat="-20.39191731669858" lon="118.89466635718654"><ele>34.0</ele><time>2026-04-23T07:00:36Z</time></trkpt><trkpt lat="-20.391924366189055" lon="118.89497208283129"><ele>34.0</ele><time>2026-04-23T07:00:37Z</time></trkpt><trkpt lat="-20.391930158003166" lon="118.89527557154874"><ele>35.0</ele><time>2026-04-23T07:00:38Z</time></trkpt><trkpt lat="-20.391935068861244" lon="118.89558182583997"><ele>36.0</ele><time>2026-04-23T07:00:39Z</time></trkpt><trkpt lat="-20.391939635029182" lon="118.89588752045165"><ele>36.0</ele><time>2026-04-23T07:00:40Z</time></trkpt><trkpt lat="-20.391946756962653" lon="118.89618656235002"><ele>36.0</ele><time>2026-04-23T07:00:41Z</time></trkpt><trkpt lat="-20.39195306306688" lon="118.89648681452024"><ele>36.5</ele><time>2026-04-23T07:00:42Z</time></trkpt><trkpt lat="-20.391960332040416" lon="118.89678480680206"><ele>37.0</ele><time>2026-04-23T07:00:43Z</time></trkpt><trkpt lat="-20.391967862835813" lon="118.89707928662376"><ele>37.0</ele><time>2026-04-23T07:00:44Z</time></trkpt><trkpt lat="-20.39197816831845" lon="118.8973747581592"><ele>37.0</ele><time>2026-04-23T07:00:45Z</time></trkpt><trkpt lat="-20.39198639598244" lon="118.89767039948518"><ele>36.0</ele><time>2026-04-23T07:00:46Z</time></trkpt><trkpt lat="-20.391992761511787" lon="118.89796816700442"><ele>35.0</ele><time>2026-04-23T07:00:47Z</time></trkpt><trkpt lat="-20.39199605628271" lon="118.89826560397468"><ele>35.5</ele><time>2026-04-23T07:00:48Z</time></trkpt><trkpt lat="-20.39199967730057" lon="118.89856484700164"><ele>36.0</ele><time>2026-04-23T07:00:49Z</time></trkpt><trkpt lat="-20.392006496768214" lon="118.89886328917554"><ele>36.0</ele><time>2026-04-23T07:00:50Z</time></trkpt><trkpt lat="-20.39201361797788" lon="118.89916727593935"><ele>36.0</ele><time>2026-04-23T07:00:51Z</time></trkpt><trkpt lat="-20.39202268670789" lon="118.89947528735848"><ele>36.0</ele><time>2026-04-23T07:00:52Z</time></trkpt><trkpt lat="-20.392032114558578" lon="118.89978284083075"><ele>36.0</ele><time>2026-04-23T07:00:53Z</time></trkpt><trkpt lat="-20.39203781845686" lon="118.9000911733276"><ele>36.0</ele><time>2026-04-23T07:00:54Z</time></trkpt><trkpt lat="-20.392045185412364" lon="118.90039733569992"><ele>36.0</ele><time>2026-04-23T07:00:55Z</time></trkpt><trkpt lat="-20.392049888208376" lon="118.9007066344287"><ele>36.5</ele><time>2026-04-23T07:00:56Z</time></trkpt><trkpt lat="-20.39205393445928" lon="118.90101178305835"><ele>37.0</ele><time>2026-04-23T07:00:57Z</time></trkpt><trkpt lat="-20.39205699953033" lon="118.90131421169954"><ele>37.0</ele><time>2026-04-23T07:00:58Z</time></trkpt><trkpt lat="-20.392060120723464" lon="118.90161338807968"><ele>37.0</ele><time>2026-04-23T07:00:59Z</time></trkpt><trkpt lat="-20.392064952831127" lon="118.90191366239948"><ele>37.0</ele><time>2026-04-23T07:01:00Z</time></trkpt><trkpt lat="-20.392070569066938" lon="118.90220400822005"><ele>37.0</ele><time>2026-04-23T07:01:01Z</time></trkpt><trkpt lat="-20.39207782592401" lon="118.90249912504062"><ele>37.5</ele><time>2026-04-23T07:01:02Z</time></trkpt><trkpt lat="-20.39208657578614" lon="118.9027918213926"><ele>38.0</ele><time>2026-04-23T07:01:03Z</time></trkpt><trkpt lat="-20.392093276505015" lon="118.90308220970171"><ele>38.0</ele><time>2026-04-23T07:01:04Z</time></trkpt><trkpt lat="-20.392101103262224" lon="118.90337210880551"><ele>38.0</ele><time>2026-04-23T07:01:05Z</time></trkpt><trkpt lat="-20.392105845326203" lon="118.90366643525456"><ele>37.5</ele><time>2026-04-23T07:01:06Z</time></trkpt><trkpt lat="-20.392112792536576" lon="118.90396018737859"><ele>37.0</ele><time>2026-04-23T07:01:07.001Z</time></trkpt><trkpt lat="-20.39212098361626" lon="118.90425295942694"><ele>38.0</ele><time>2026-04-23T07:01:08.001Z</time></trkpt><trkpt lat="-20.392129856294765" lon="118.90454811413645"><ele>39.0</ele><time>2026-04-23T07:01:09.001Z</time></trkpt><trkpt lat="-20.392136664104125" lon="118.90484305160705"><ele>40.0</ele><time>2026-04-23T07:01:10.001Z</time></trkpt><trkpt lat="-20.392143185703112" lon="118.90514167408055"><ele>41.0</ele><time>2026-04-23T07:01:11.001Z</time></trkpt><trkpt lat="-20.392148764497843" lon="118.9054405870181"><ele>41.0</ele><time>2026-04-23T07:01:12.001Z</time></trkpt><trkpt lat="-20.39215475944072" lon="118.9057426138534"><ele>41.0</ele><time>2026-04-23T07:01:13.001Z</time></trkpt><trkpt lat="-20.392159112499577" lon="118.90604149125127"><ele>40.5</ele><time>2026-04-23T07:01:14.001Z</time></trkpt><trkpt lat="-20.392164047781066" lon="118.90633993859518"><ele>40.0</ele><time>2026-04-23T07:01:15.001Z</time></trkpt><trkpt lat="-20.392170322405896" lon="118.90664505210827"><ele>41.0</ele><time>2026-04-23T07:01:16.001Z</time></trkpt><trkpt lat="-20.39217752242213" lon="118.90694997374035"><ele>42.0</ele><time>2026-04-23T07:01:17.001Z</time></trkpt><trkpt lat="-20.39218605330129" lon="118.90725324400705"><ele>42.0</ele><time>2026-04-23T07:01:18.001Z</time></trkpt><trkpt lat="-20.392194324956836" lon="118.9075567628972"><ele>42.0</ele><time>2026-04-23T07:01:19.001Z</time></trkpt><trkpt lat="-20.392201746424618" lon="118.90785847293732"><ele>42.0</ele><time>2026-04-23T07:01:20.001Z</time></trkpt><trkpt lat="-20.39220994055461" lon="118.90816037101708"><ele>42.0</ele><time>2026-04-23T07:01:21.001Z</time></trkpt><trkpt lat="-20.392219069683954" lon="118.90846323065178"><ele>42.5</ele><time>2026-04-23T07:01:22.001Z</time></trkpt><trkpt lat="-20.39222807857115" lon="118.90876622250681"><ele>43.0</ele><time>2026-04-23T07:01:23.001Z</time></trkpt><trkpt lat="-20.392236705395995" lon="118.9090722254404"><ele>43.0</ele><time>2026-04-23T07:01:24.001Z</time></trkpt><trkpt lat="-20.392242135631715" lon="118.90938392996907"><ele>43.0</ele><time>2026-04-23T07:01:25.001Z</time></trkpt><trkpt lat="-20.392247890915883" lon="118.90969360930295"><ele>43.0</ele><time>2026-04-23T07:01:26.001Z</time></trkpt><trkpt lat="-20.392258101886778" lon="118.91000248494593"><ele>43.0</ele><time>2026-04-23T07:01:27.001Z</time></trkpt><trkpt lat="-20.39226900221667" lon="118.91030802193838"><ele>43.5</ele><time>2026-04-23T07:01:28.001Z</time></trkpt><trkpt lat="-20.392279354383344" lon="118.91061041444847"><ele>44.0</ele><time>2026-04-23T07:01:29.001Z</time></trkpt><trkpt lat="-20.392288059738323" lon="118.91091415698125"><ele>44.0</ele><time>2026-04-23T07:01:30.001Z</time></trkpt><trkpt lat="-20.39229703248852" lon="118.91121568704969"><ele>44.0</ele><time>2026-04-23T07:01:31.001Z</time></trkpt><trkpt lat="-20.392304474319662" lon="118.9115154979439"><ele>43.0</ele><time>2026-04-23T07:01:32.001Z</time></trkpt><trkpt lat="-20.392311056232632" lon="118.91181543674764"><ele>42.0</ele><time>2026-04-23T07:01:33.001Z</time></trkpt><trkpt lat="-20.392319962470406" lon="118.9121183161454"><ele>42.0</ele><time>2026-04-23T07:01:34.001Z</time></trkpt><trkpt lat="-20.39232672459768" lon="118.91242085388159"><ele>42.0</ele><time>2026-04-23T07:01:35.001Z</time></trkpt><trkpt lat="-20.39233511626746" lon="118.91272437227384"><ele>42.0</ele><time>2026-04-23T07:01:36.001Z</time></trkpt><trkpt lat="-20.3923437259313" lon="118.91302614001671"><ele>42.0</ele><time>2026-04-23T07:01:37.001Z</time></trkpt><trkpt lat="-20.392352129576466" lon="118.91332755487068"><ele>41.0</ele><time>2026-04-23T07:01:38.001Z</time></trkpt><trkpt lat="-20.39236148781329" lon="118.913627086238"><ele>40.0</ele><time>2026-04-23T07:01:39.001Z</time></trkpt><trkpt lat="-20.392369542937608" lon="118.91393006344563"><ele>40.0</ele><time>2026-04-23T07:01:40.001Z</time></trkpt><trkpt lat="-20.392378252612563" lon="118.9142323777041"><ele>40.0</ele><time>2026-04-23T07:01:41.001Z</time></trkpt><trkpt lat="-20.392387400761056" lon="118.91453564087816"><ele>40.0</ele><time>2026-04-23T07:01:42.001Z</time></trkpt><trkpt lat="-20.39239696054518" lon="118.91483552001763"><ele>40.0</ele><time>2026-04-23T07:01:43.001Z</time></trkpt><trkpt lat="-20.392406247700723" lon="118.91513690322543"><ele>39.0</ele><time>2026-04-23T07:01:44.001Z</time></trkpt><trkpt lat="-20.392416082300247" lon="118.9154353103428"><ele>38.0</ele><time>2026-04-23T07:01:45.001Z</time></trkpt><trkpt lat="-20.39242399962389" lon="118.91573459431262"><ele>39.0</ele><time>2026-04-23T07:01:46.001Z</time></trkpt><trkpt lat="-20.392431430504434" lon="118.91603053567992"><ele>40.0</ele><time>2026-04-23T07:01:47.001Z</time></trkpt><trkpt lat="-20.392440382949047" lon="118.91632654081889"><ele>40.0</ele><time>2026-04-23T07:01:48.001Z</time></trkpt><trkpt lat="-20.39244859830659" lon="118.91662229028354"><ele>40.0</ele><time>2026-04-23T07:01:49.001Z</time></trkpt><trkpt lat="-20.392456858895024" lon="118.91691681808882"><ele>39.0</ele><time>2026-04-23T07:01:50.001Z</time></trkpt><trkpt lat="-20.392466015072227" lon="118.91721772801128"><ele>38.0</ele><time>2026-04-23T07:01:51.001Z</time></trkpt><trkpt lat="-20.392474523967124" lon="118.91751147744809"><ele>37.0</ele><time>2026-04-23T07:01:52.001Z</time></trkpt><trkpt lat="-20.39248290599642" lon="118.91778949415985"><ele>36.0</ele><time>2026-04-23T07:01:53.001Z</time></trkpt><trkpt lat="-20.392491223196444" lon="118.91806679021262"><ele>36.0</ele><time>2026-04-23T07:01:54.001Z</time></trkpt><trkpt lat="-20.392498967283423" lon="118.91835176031842"><ele>36.0</ele><time>2026-04-23T07:01:55.001Z</time></trkpt><trkpt lat="-20.392505392541363" lon="118.9186420661613"><ele>36.0</ele><time>2026-04-23T07:01:56.001Z</time></trkpt><trkpt lat="-20.39251287627533" lon="118.91893690519471"><ele>36.0</ele><time>2026-04-23T07:01:57.001Z</time></trkpt><trkpt lat="-20.39252227205292" lon="118.91923639070264"><ele>35.5</ele><time>2026-04-23T07:01:58.001Z</time></trkpt><trkpt lat="-20.392531278632983" lon="118.91953655861917"><ele>35.0</ele><time>2026-04-23T07:01:59Z</time></trkpt><trkpt lat="-20.39253826024984" lon="118.91983639173482"><ele>35.5</ele><time>2026-04-23T07:02:00Z</time></trkpt><trkpt lat="-20.392545661435594" lon="118.92013780127812"><ele>36.0</ele><time>2026-04-23T07:02:01Z</time></trkpt><trkpt lat="-20.392554483393667" lon="118.92043535123491"><ele>36.0</ele><time>2026-04-23T07:02:02Z</time></trkpt><trkpt lat="-20.39256389297636" lon="118.92073595758063"><ele>36.0</ele><time>2026-04-23T07:02:03Z</time></trkpt><trkpt lat="-20.392573330143648" lon="118.92103824063551"><ele>35.5</ele><time>2026-04-23T07:02:04Z</time></trkpt><trkpt lat="-20.392585519364406" lon="118.92134133332186"><ele>35.0</ele><time>2026-04-23T07:02:05Z</time></trkpt><trkpt lat="-20.392596719119375" lon="118.92164660117939"><ele>35.5</ele><time>2026-04-23T07:02:06Z</time></trkpt><trkpt lat="-20.392607531354383" lon="118.92195057280468"><ele>36.0</ele><time>2026-04-23T07:02:07Z</time></trkpt><trkpt lat="-20.39261657414234" lon="118.92225808555688"><ele>36.0</ele><time>2026-04-23T07:02:08Z</time></trkpt><trkpt lat="-20.392625348482426" lon="118.9225643824863"><ele>36.0</ele><time>2026-04-23T07:02:09Z</time></trkpt><trkpt lat="-20.392633056404744" lon="118.92287189354718"><ele>35.5</ele><time>2026-04-23T07:02:10Z</time></trkpt><trkpt lat="-20.392642383536636" lon="118.9231842228807"><ele>35.0</ele><time>2026-04-23T07:02:11Z</time></trkpt><trkpt lat="-20.392651564376337" lon="118.92349622197507"><ele>35.0</ele><time>2026-04-23T07:02:12Z</time></trkpt><trkpt lat="-20.392661464861817" lon="118.92380959002622"><ele>35.0</ele><time>2026-04-23T07:02:13Z</time></trkpt><trkpt lat="-20.39267019264361" lon="118.9241238445196"><ele>34.5</ele><time>2026-04-23T07:02:14Z</time></trkpt><trkpt lat="-20.392677544930407" lon="118.92443679732105"><ele>34.0</ele><time>2026-04-23T07:02:15Z</time></trkpt><trkpt lat="-20.392687134168213" lon="118.92474859845554"><ele>34.0</ele><time>2026-04-23T07:02:16Z</time></trkpt><trkpt lat="-20.392699474896297" lon="118.92505900638147"><ele>34.0</ele><time>2026-04-23T07:02:17Z</time></trkpt><trkpt lat="-20.39271250070041" lon="118.92536783576575"><ele>34.0</ele><time>2026-04-23T07:02:18Z</time></trkpt><trkpt lat="-20.392723802524017" lon="118.92567579376521"><ele>34.0</ele><time>2026-04-23T07:02:19Z</time></trkpt><trkpt lat="-20.392730801652757" lon="118.92598307307043"><ele>34.0</ele><time>2026-04-23T07:02:20Z</time></trkpt><trkpt lat="-20.39273561679463" lon="118.92628911401445"><ele>34.0</ele><time>2026-04-23T07:02:21Z</time></trkpt><trkpt lat="-20.392742149804143" lon="118.9265953362288"><ele>35.0</ele><time>2026-04-23T07:02:22Z</time></trkpt><trkpt lat="-20.39275011187329" lon="118.92689943963904"><ele>36.0</ele><time>2026-04-23T07:02:23Z</time></trkpt><trkpt lat="-20.392757846189678" lon="118.92720137986696"><ele>36.0</ele><time>2026-04-23T07:02:24Z</time></trkpt><trkpt lat="-20.392766494534694" lon="118.9275022151818"><ele>36.0</ele><time>2026-04-23T07:02:25Z</time></trkpt><trkpt lat="-20.39277561802411" lon="118.92780446197801"><ele>36.5</ele><time>2026-04-23T07:02:26Z</time></trkpt><trkpt lat="-20.39278526710327" lon="118.92810628513385"><ele>37.0</ele><time>2026-04-23T07:02:27Z</time></trkpt><trkpt lat="-20.392792311985854" lon="118.92840734459065"><ele>36.0</ele><time>2026-04-23T07:02:28Z</time></trkpt><trkpt lat="-20.392797684291207" lon="118.92870875310213"><ele>35.0</ele><time>2026-04-23T07:02:29Z</time></trkpt><trkpt lat="-20.392808133846607" lon="118.92900768327029"><ele>35.0</ele><time>2026-04-23T07:02:30Z</time></trkpt><trkpt lat="-20.39281941944452" lon="118.9293076569426"><ele>35.0</ele><time>2026-04-23T07:02:31Z</time></trkpt><trkpt lat="-20.39282864606087" lon="118.92960780315467"><ele>35.0</ele><time>2026-04-23T07:02:32Z</time></trkpt><trkpt lat="-20.392837907299803" lon="118.9299112210369"><ele>35.0</ele><time>2026-04-23T07:02:33Z</time></trkpt><trkpt lat="-20.392847921248634" lon="118.9302165525056"><ele>34.5</ele><time>2026-04-23T07:02:34Z</time></trkpt><trkpt lat="-20.392857573442384" lon="118.93052687492019"><ele>34.0</ele><time>2026-04-23T07:02:35Z</time></trkpt><trkpt lat="-20.39286724333893" lon="118.93083498801829"><ele>33.5</ele><time>2026-04-23T07:02:36Z</time></trkpt><trkpt lat="-20.39287517833929" lon="118.93114408299446"><ele>33.0</ele><time>2026-04-23T07:02:37Z</time></trkpt><trkpt lat="-20.392880483747867" lon="118.9314550927119"><ele>33.0</ele><time>2026-04-23T07:02:38Z</time></trkpt><trkpt lat="-20.39288611496513" lon="118.93176466596809"><ele>33.0</ele><time>2026-04-23T07:02:39Z</time></trkpt><trkpt lat="-20.392895804800784" lon="118.9320686286395"><ele>33.0</ele><time>2026-04-23T07:02:40Z</time></trkpt><trkpt lat="-20.392907316863493" lon="118.93236496423827"><ele>33.0</ele><time>2026-04-23T07:02:41Z</time></trkpt><trkpt lat="-20.39291836845883" lon="118.93266486831443"><ele>33.0</ele><time>2026-04-23T07:02:42Z</time></trkpt><trkpt lat="-20.392928227364877" lon="118.93296072673718"><ele>33.0</ele><time>2026-04-23T07:02:43Z</time></trkpt><trkpt lat="-20.39293385165553" lon="118.93325301707318"><ele>32.5</ele><time>2026-04-23T07:02:44Z</time></trkpt><trkpt lat="-20.392939225829394" lon="118.93354550169747"><ele>32.0</ele><time>2026-04-23T07:02:45Z</time></trkpt><trkpt lat="-20.392947070408567" lon="118.93383837428537"><ele>32.0</ele><time>2026-04-23T07:02:46Z</time></trkpt><trkpt lat="-20.392957111430903" lon="118.93413357974882"><ele>32.0</ele><time>2026-04-23T07:02:47Z</time></trkpt><trkpt lat="-20.392966994309884" lon="118.93442854921322"><ele>32.0</ele><time>2026-04-23T07:02:48Z</time></trkpt><trkpt lat="-20.392975680545995" lon="118.93472458000517"><ele>32.0</ele><time>2026-04-23T07:02:49Z</time></trkpt><trkpt lat="-20.39298621102578" lon="118.93501971098614"><ele>33.5</ele><time>2026-04-23T07:02:50Z</time></trkpt><trkpt lat="-20.392994454289965" lon="118.93531809896521"><ele>35.0</ele><time>2026-04-23T07:02:51Z</time></trkpt><trkpt lat="-20.39300369173071" lon="118.93561761273634"><ele>35.5</ele><time>2026-04-23T07:02:52Z</time></trkpt><trkpt lat="-20.393012277521695" lon="118.93591787633146"><ele>36.0</ele><time>2026-04-23T07:02:53Z</time></trkpt><trkpt lat="-20.393020515479158" lon="118.93622028118197"><ele>36.0</ele><time>2026-04-23T07:02:54Z</time></trkpt><trkpt lat="-20.393029359341906" lon="118.9365195663264"><ele>36.0</ele><time>2026-04-23T07:02:55.001Z</time></trkpt><trkpt lat="-20.393037658468185" lon="118.93682078365356"><ele>35.5</ele><time>2026-04-23T07:02:56.001Z</time></trkpt><trkpt lat="-20.393047638035554" lon="118.9371213303996"><ele>35.0</ele><time>2026-04-23T07:02:57.001Z</time></trkpt><trkpt lat="-20.39305591925463" lon="118.93742121678305"><ele>34.5</ele><time>2026-04-23T07:02:58.001Z</time></trkpt><trkpt lat="-20.393064392968068" lon="118.93772220886108"><ele>34.0</ele><time>2026-04-23T07:02:59.001Z</time></trkpt><trkpt lat="-20.393072879746565" lon="118.9380206402645"><ele>34.0</ele><time>2026-04-23T07:03:00.001Z</time></trkpt><trkpt lat="-20.393082034983046" lon="118.93832068794757"><ele>34.0</ele><time>2026-04-23T07:03:01.001Z</time></trkpt><trkpt lat="-20.393090578699436" lon="118.93862157305193"><ele>33.0</ele><time>2026-04-23T07:03:02.001Z</time></trkpt><trkpt lat="-20.393098005620164" lon="118.93892222324453"><ele>32.0</ele><time>2026-04-23T07:03:03.001Z</time></trkpt><trkpt lat="-20.393104516559188" lon="118.93922463909433"><ele>32.0</ele><time>2026-04-23T07:03:04.001Z</time></trkpt><trkpt lat="-20.393110676535134" lon="118.93952857877699"><ele>32.0</ele><time>2026-04-23T07:03:05.001Z</time></trkpt><trkpt lat="-20.393118954850134" lon="118.93983188744338"><ele>34.0</ele><time>2026-04-23T07:03:06.001Z</time></trkpt><trkpt lat="-20.393131128066656" lon="118.94013809575192"><ele>36.0</ele><time>2026-04-23T07:03:07.001Z</time></trkpt><trkpt lat="-20.393142520873734" lon="118.9404443344806"><ele>36.0</ele><time>2026-04-23T07:03:08.001Z</time></trkpt><trkpt lat="-20.39315078212014" lon="118.94075196157532"><ele>36.0</ele><time>2026-04-23T07:03:09.001Z</time></trkpt><trkpt lat="-20.39315749815671" lon="118.94105821990982"><ele>34.5</ele><time>2026-04-23T07:03:10.001Z</time></trkpt><trkpt lat="-20.39316594731664" lon="118.9413640222754"><ele>33.0</ele><time>2026-04-23T07:03:11.001Z</time></trkpt><trkpt lat="-20.393173425206605" lon="118.94166736343462"><ele>32.5</ele><time>2026-04-23T07:03:12.001Z</time></trkpt><trkpt lat="-20.39318129239646" lon="118.94196963154161"><ele>32.0</ele><time>2026-04-23T07:03:13.001Z</time></trkpt><trkpt lat="-20.3931893618107" lon="118.94227262624646"><ele>33.0</ele><time>2026-04-23T07:03:14.001Z</time></trkpt><trkpt lat="-20.393198488427405" lon="118.94257228105106"><ele>34.0</ele><time>2026-04-23T07:03:15.001Z</time></trkpt><trkpt lat="-20.39320650173861" lon="118.94286873452066"><ele>34.0</ele><time>2026-04-23T07:03:16.001Z</time></trkpt><trkpt lat="-20.39321391715551" lon="118.94316290938647"><ele>34.0</ele><time>2026-04-23T07:03:17.001Z</time></trkpt><trkpt lat="-20.393220814581916" lon="118.94345734551592"><ele>34.5</ele><time>2026-04-23T07:03:18.001Z</time></trkpt><trkpt lat="-20.393230312946287" lon="118.9437480247102"><ele>35.0</ele><time>2026-04-23T07:03:19.001Z</time></trkpt><trkpt lat="-20.39324119074784" lon="118.94404227017777"><ele>34.5</ele><time>2026-04-23T07:03:20.001Z</time></trkpt><trkpt lat="-20.393250202648737" lon="118.94433124625338"><ele>34.0</ele><time>2026-04-23T07:03:21.001Z</time></trkpt><trkpt lat="-20.393260164867392" lon="118.94462503683667"><ele>34.0</ele><time>2026-04-23T07:03:22.001Z</time></trkpt><trkpt lat="-20.393268798666536" lon="118.9449223861383"><ele>34.0</ele><time>2026-04-23T07:03:23.001Z</time></trkpt><trkpt lat="-20.39327583914073" lon="118.94522612196408"><ele>34.0</ele><time>2026-04-23T07:03:24.001Z</time></trkpt><trkpt lat="-20.39328268224106" lon="118.94553728389032"><ele>34.0</ele><time>2026-04-23T07:03:25.001Z</time></trkpt><trkpt lat="-20.39329168207033" lon="118.9458533646101"><ele>33.5</ele><time>2026-04-23T07:03:26.001Z</time></trkpt><trkpt lat="-20.393302637342238" lon="118.94616686457671"><ele>33.0</ele><time>2026-04-23T07:03:27.001Z</time></trkpt><trkpt lat="-20.39331166634131" lon="118.94647786602191"><ele>32.5</ele><time>2026-04-23T07:03:28.001Z</time></trkpt><trkpt lat="-20.393321760032094" lon="118.94678562358656"><ele>32.0</ele><time>2026-04-23T07:03:29.001Z</time></trkpt><trkpt lat="-20.393331841086688" lon="118.94709293039818"><ele>32.0</ele><time>2026-04-23T07:03:30.001Z</time></trkpt><trkpt lat="-20.393340636866423" lon="118.9473998159129"><ele>32.0</ele><time>2026-04-23T07:03:31.001Z</time></trkpt><trkpt lat="-20.39334961782518" lon="118.94770948600213"><ele>31.5</ele><time>2026-04-23T07:03:32.001Z</time></trkpt><trkpt lat="-20.393359932178555" lon="118.94801594731274"><ele>31.0</ele><time>2026-04-23T07:03:33.001Z</time></trkpt><trkpt lat="-20.393368107203003" lon="118.94832579944782"><ele>32.0</ele><time>2026-04-23T07:03:34.001Z</time></trkpt><trkpt lat="-20.393373709978945" lon="118.94863926045404"><ele>33.0</ele><time>2026-04-23T07:03:35.001Z</time></trkpt><trkpt lat="-20.393378094377685" lon="118.94895525769826"><ele>33.5</ele><time>2026-04-23T07:03:36.001Z</time></trkpt><trkpt lat="-20.393385800410723" lon="118.94926916028824"><ele>34.0</ele><time>2026-04-23T07:03:37.001Z</time></trkpt><trkpt lat="-20.393394267859087" lon="118.94958153797515"><ele>34.0</ele><time>2026-04-23T07:03:38.001Z</time></trkpt><trkpt lat="-20.393404411404887" lon="118.94989469973304"><ele>34.0</ele><time>2026-04-23T07:03:39.001Z</time></trkpt><trkpt lat="-20.393413856203864" lon="118.95020652517127"><ele>34.5</ele><time>2026-04-23T07:03:40.001Z</time></trkpt><trkpt lat="-20.393423235871147" lon="118.95051284528527"><ele>35.0</ele><time>2026-04-23T07:03:41.001Z</time></trkpt><trkpt lat="-20.393433903063897" lon="118.95081647383392"><ele>34.5</ele><time>2026-04-23T07:03:42.001Z</time></trkpt><trkpt lat="-20.39344644400451" lon="118.95111846501622"><ele>34.0</ele><time>2026-04-23T07:03:43.001Z</time></trkpt><trkpt lat="-20.39345756413604" lon="118.95141678937081"><ele>33.5</ele><time>2026-04-23T07:03:44.001Z</time></trkpt><trkpt lat="-20.393466974650266" lon="118.95171218858863"><ele>33.0</ele><time>2026-04-23T07:03:45.001Z</time></trkpt><trkpt lat="-20.393474576458146" lon="118.95201215495608"><ele>33.0</ele><time>2026-04-23T07:03:46.001Z</time></trkpt><trkpt lat="-20.393481234896637" lon="118.95231391983215"><ele>33.0</ele><time>2026-04-23T07:03:47.001Z</time></trkpt><trkpt lat="-20.393489925317528" lon="118.95261972994275"><ele>33.0</ele><time>2026-04-23T07:03:48.001Z</time></trkpt><trkpt lat="-20.393497967836193" lon="118.95292843945813"><ele>33.0</ele><time>2026-04-23T07:03:49.001Z</time></trkpt><trkpt lat="-20.39350668838618" lon="118.95324597939639"><ele>32.5</ele><time>2026-04-23T07:03:50.001Z</time></trkpt><trkpt lat="-20.393515351794427" lon="118.95356324589794"><ele>32.0</ele><time>2026-04-23T07:03:51.001Z</time></trkpt><trkpt lat="-20.393524700496325" lon="118.95388326639424"><ele>32.0</ele><time>2026-04-23T07:03:52.001Z</time></trkpt><trkpt lat="-20.39353344751929" lon="118.95418766319081"><ele>32.0</ele><time>2026-04-23T07:03:53.001Z</time></trkpt><trkpt lat="-20.39354022888882" lon="118.95448434515636"><ele>32.0</ele><time>2026-04-23T07:03:54.001Z</time></trkpt><trkpt lat="-20.39354858720149" lon="118.95478788474253"><ele>32.0</ele><time>2026-04-23T07:03:55.001Z</time></trkpt><trkpt lat="-20.39355821960632" lon="118.95509073530977"><ele>32.0</ele><time>2026-04-23T07:03:56.001Z</time></trkpt><trkpt lat="-20.393568523035214" lon="118.95539515095265"><ele>32.0</ele><time>2026-04-23T07:03:57.001Z</time></trkpt><trkpt lat="-20.393578982872164" lon="118.95570076435442"><ele>31.0</ele><time>2026-04-23T07:03:58.001Z</time></trkpt><trkpt lat="-20.39358818971326" lon="118.95600636179768"><ele>30.0</ele><time>2026-04-23T07:03:59.001Z</time></trkpt><trkpt lat="-20.393595758669594" lon="118.95631388470277"><ele>30.0</ele><time>2026-04-23T07:04:00.001Z</time></trkpt><trkpt lat="-20.393601261202143" lon="118.95661580384882"><ele>30.0</ele><time>2026-04-23T07:04:01.001Z</time></trkpt><trkpt lat="-20.39360118234818" lon="118.95692058232072"><ele>30.0</ele><time>2026-04-23T07:04:02.001Z</time></trkpt><trkpt lat="-20.393594102576106" lon="118.95722040775057"><ele>30.0</ele><time>2026-04-23T07:04:03.002Z</time></trkpt><trkpt lat="-20.393577925879313" lon="118.95752366987207"><ele>30.0</ele><time>2026-04-23T07:04:04.002Z</time></trkpt><trkpt lat="-20.393548500943012" lon="118.9578284488256"><ele>30.0</ele><time>2026-04-23T07:04:05.001Z</time></trkpt><trkpt lat="-20.39350657594353" lon="118.95813561285959"><ele>30.5</ele><time>2026-04-23T07:04:06.001Z</time></trkpt><trkpt lat="-20.393452523678356" lon="118.95844698240927"><ele>31.0</ele><time>2026-04-23T07:04:07.001Z</time></trkpt><trkpt lat="-20.393388669232348" lon="118.95875732788684"><ele>31.0</ele><time>2026-04-23T07:04:08.001Z</time></trkpt><trkpt lat="-20.39331510107168" lon="118.9590683130612"><ele>31.0</ele><time>2026-04-23T07:04:09.001Z</time></trkpt><trkpt lat="-20.393232341948334" lon="118.95937420232511"><ele>30.5</ele><time>2026-04-23T07:04:10.001Z</time></trkpt><trkpt lat="-20.39313769021902" lon="118.95967560045943"><ele>30.0</ele><time>2026-04-23T07:04:11.001Z</time></trkpt><trkpt lat="-20.393028201962693" lon="118.95997710606508"><ele>30.0</ele><time>2026-04-23T07:04:12.001Z</time></trkpt><trkpt lat="-20.392908605789067" lon="118.9602710410314"><ele>30.0</ele><time>2026-04-23T07:04:13.001Z</time></trkpt><trkpt lat="-20.392782488724844" lon="118.96056127329278"><ele>30.0</ele><time>2026-04-23T07:04:14.001Z</time></trkpt><trkpt lat="-20.392649530778105" lon="118.96084644909327"><ele>30.0</ele><time>2026-04-23T07:04:15Z</time></trkpt><trkpt lat="-20.39250708776687" lon="118.96112315979872"><ele>30.0</ele><time>2026-04-23T07:04:16Z</time></trkpt><trkpt lat="-20.392355960538346" lon="118.96139399240595"><ele>30.0</ele><time>2026-04-23T07:04:17Z</time></trkpt><trkpt lat="-20.392195701144274" lon="118.96165499540142"><ele>30.5</ele><time>2026-04-23T07:04:18Z</time></trkpt><trkpt lat="-20.392024850564482" lon="118.96190928784131"><ele>31.0</ele><time>2026-04-23T07:04:19Z</time></trkpt><trkpt lat="-20.391846524764677" lon="118.96215680762408"><ele>31.0</ele><time>2026-04-23T07:04:20Z</time></trkpt><trkpt lat="-20.39166371186457" lon="118.96240026510287"><ele>31.0</ele><time>2026-04-23T07:04:21Z</time></trkpt><trkpt lat="-20.39147576398417" lon="118.96263648863612"><ele>30.0</ele><time>2026-04-23T07:04:22Z</time></trkpt><trkpt lat="-20.391279815874903" lon="118.96286217915171"><ele>29.0</ele><time>2026-04-23T07:04:23Z</time></trkpt><trkpt lat="-20.391062096866126" lon="118.96306565965727"><ele>29.0</ele><time>2026-04-23T07:04:24Z</time></trkpt><trkpt lat="-20.39085398110341" lon="118.96327332622471"><ele>29.0</ele><time>2026-04-23T07:04:25Z</time></trkpt><trkpt lat="-20.390649841318574" lon="118.9634877494382"><ele>29.0</ele><time>2026-04-23T07:04:26Z</time></trkpt><trkpt lat="-20.390432498666275" lon="118.96369325522443"><ele>29.0</ele><time>2026-04-23T07:04:27Z</time></trkpt><trkpt lat="-20.39021428013023" lon="118.9639004288939"><ele>29.0</ele><time>2026-04-23T07:04:28Z</time></trkpt><trkpt lat="-20.389997448354034" lon="118.96410677760672"><ele>29.0</ele><time>2026-04-23T07:04:29Z</time></trkpt><trkpt lat="-20.389781865925055" lon="118.96431275564912"><ele>28.5</ele><time>2026-04-23T07:04:30Z</time></trkpt><trkpt lat="-20.389567852313302" lon="118.96452235634936"><ele>28.0</ele><time>2026-04-23T07:04:31Z</time></trkpt><trkpt lat="-20.389352955218364" lon="118.9647302701206"><ele>28.0</ele><time>2026-04-23T07:04:32Z</time></trkpt><trkpt lat="-20.38913954953767" lon="118.96493675645202"><ele>28.0</ele><time>2026-04-23T07:04:33Z</time></trkpt><trkpt lat="-20.38892724757921" lon="118.96514211544185"><ele>29.0</ele><time>2026-04-23T07:04:34Z</time></trkpt><trkpt lat="-20.38871454257009" lon="118.96534574053499"><ele>30.0</ele><time>2026-04-23T07:04:35Z</time></trkpt><trkpt lat="-20.388501882879236" lon="118.96554577479965"><ele>30.0</ele><time>2026-04-23T07:04:36Z</time></trkpt><trkpt lat="-20.38828838602322" lon="118.96574852773001"><ele>30.0</ele><time>2026-04-23T07:04:37Z</time></trkpt><trkpt lat="-20.388082619149877" lon="118.96595040207865"><ele>29.0</ele><time>2026-04-23T07:04:38Z</time></trkpt><trkpt lat="-20.38788004068084" lon="118.96615118765756"><ele>28.0</ele><time>2026-04-23T07:04:39Z</time></trkpt><trkpt lat="-20.38767883683403" lon="118.96634767086238"><ele>28.0</ele><time>2026-04-23T07:04:40Z</time></trkpt><trkpt lat="-20.387477863190185" lon="118.96654226327527"><ele>28.0</ele><time>2026-04-23T07:04:41Z</time></trkpt><trkpt lat="-20.387281586917005" lon="118.96673706844969"><ele>29.0</ele><time>2026-04-23T07:04:42Z</time></trkpt><trkpt lat="-20.387085292120478" lon="118.96693184074893"><ele>30.0</ele><time>2026-04-23T07:04:43Z</time></trkpt><trkpt lat="-20.386882995533256" lon="118.96712731868297"><ele>30.0</ele><time>2026-04-23T07:04:44.001Z</time></trkpt><trkpt lat="-20.386678079714414" lon="118.96732220351066"><ele>30.0</ele><time>2026-04-23T07:04:45.001Z</time></trkpt><trkpt lat="-20.386475656944246" lon="118.96751377982027"><ele>30.0</ele><time>2026-04-23T07:04:46.001Z</time></trkpt><trkpt lat="-20.386272240312014" lon="118.96770761252687"><ele>30.0</ele><time>2026-04-23T07:04:47.001Z</time></trkpt><trkpt lat="-20.386071978418414" lon="118.96790180252901"><ele>30.0</ele><time>2026-04-23T07:04:48.001Z</time></trkpt><trkpt lat="-20.38586761624446" lon="118.96809800479596"><ele>30.0</ele><time>2026-04-23T07:04:49.001Z</time></trkpt><trkpt lat="-20.385658502914467" lon="118.96829974195317"><ele>30.0</ele><time>2026-04-23T07:04:50.001Z</time></trkpt><trkpt lat="-20.385453741925513" lon="118.96850246074521"><ele>30.0</ele><time>2026-04-23T07:04:51.001Z</time></trkpt><trkpt lat="-20.385252183540892" lon="118.96870775097742"><ele>30.0</ele><time>2026-04-23T07:04:52.001Z</time></trkpt><trkpt lat="-20.385054822186596" lon="118.96891707364294"><ele>30.0</ele><time>2026-04-23T07:04:53.001Z</time></trkpt><trkpt lat="-20.38486474452762" lon="118.9691352435544"><ele>30.0</ele><time>2026-04-23T07:04:54.001Z</time></trkpt><trkpt lat="-20.38467546647826" lon="118.96936590328775"><ele>30.0</ele><time>2026-04-23T07:04:55.001Z</time></trkpt><trkpt lat="-20.384493188232568" lon="118.96960365542922"><ele>30.0</ele><time>2026-04-23T07:04:56.001Z</time></trkpt><trkpt lat="-20.384320685813684" lon="118.96984924718832"><ele>30.0</ele><time>2026-04-23T07:04:57.001Z</time></trkpt><trkpt lat="-20.384156619332906" lon="118.97010138331972"><ele>30.0</ele><time>2026-04-23T07:04:58.001Z</time></trkpt><trkpt lat="-20.383977142168618" lon="118.97034229670697"><ele>30.0</ele><time>2026-04-23T07:04:59.001Z</time></trkpt><trkpt lat="-20.383839957662495" lon="118.97061896110249"><ele>30.5</ele><time>2026-04-23T07:05:00.001Z</time></trkpt><trkpt lat="-20.383689863776876" lon="118.9708830109343"><ele>31.0</ele><time>2026-04-23T07:05:01.001Z</time></trkpt><trkpt lat="-20.38354833970502" lon="118.97115020998716"><ele>31.0</ele><time>2026-04-23T07:05:02.001Z</time></trkpt><trkpt lat="-20.38341668977287" lon="118.97142070616596"><ele>31.0</ele><time>2026-04-23T07:05:03.001Z</time></trkpt><trkpt lat="-20.383292259258663" lon="118.97169503872502"><ele>30.0</ele><time>2026-04-23T07:05:04.001Z</time></trkpt><trkpt lat="-20.383175555340102" lon="118.97196968344197"><ele>29.0</ele><time>2026-04-23T07:05:05.001Z</time></trkpt><trkpt lat="-20.3830614657477" lon="118.97224630792108"><ele>29.5</ele><time>2026-04-23T07:05:06.001Z</time></trkpt><trkpt lat="-20.382946360759775" lon="118.97252594352794"><ele>30.0</ele><time>2026-04-23T07:05:07.001Z</time></trkpt><trkpt lat="-20.38283206216956" lon="118.97280196669375"><ele>30.0</ele><time>2026-04-23T07:05:08.001Z</time></trkpt><trkpt lat="-20.382715548477062" lon="118.97307687590006"><ele>30.0</ele><time>2026-04-23T07:05:09.001Z</time></trkpt><trkpt lat="-20.382596989139106" lon="118.97334967755613"><ele>30.0</ele><time>2026-04-23T07:05:10.001Z</time></trkpt><trkpt lat="-20.38247576632819" lon="118.97362039681842"><ele>30.0</ele><time>2026-04-23T07:05:11.001Z</time></trkpt><trkpt lat="-20.382355914769878" lon="118.97388923617574"><ele>30.0</ele><time>2026-04-23T07:05:12.001Z</time></trkpt><trkpt lat="-20.382237159160894" lon="118.97416161901978"><ele>30.0</ele><time>2026-04-23T07:05:13.001Z</time></trkpt><trkpt lat="-20.382116574743993" lon="118.97443567753332"><ele>29.5</ele><time>2026-04-23T07:05:14.001Z</time></trkpt><trkpt lat="-20.38199538546999" lon="118.9747134318351"><ele>29.0</ele><time>2026-04-23T07:05:15.001Z</time></trkpt><trkpt lat="-20.381878077992855" lon="118.97499300712971"><ele>28.5</ele><time>2026-04-23T07:05:16.001Z</time></trkpt><trkpt lat="-20.381763662388547" lon="118.9752789615846"><ele>28.0</ele><time>2026-04-23T07:05:17.001Z</time></trkpt><trkpt lat="-20.381651864635586" lon="118.97556853912863"><ele>28.5</ele><time>2026-04-23T07:05:18.001Z</time></trkpt><trkpt lat="-20.381539389468276" lon="118.97586187978152"><ele>29.0</ele><time>2026-04-23T07:05:19.001Z</time></trkpt><trkpt lat="-20.38142457068534" lon="118.97615163086606"><ele>29.5</ele><time>2026-04-23T07:05:20.001Z</time></trkpt><trkpt lat="-20.381306296746132" lon="118.97643561754663"><ele>30.0</ele><time>2026-04-23T07:05:21.001Z</time></trkpt><trkpt lat="-20.38118554920661" lon="118.9767147443332"><ele>29.0</ele><time>2026-04-23T07:05:22.001Z</time></trkpt><trkpt lat="-20.381062367732376" lon="118.97699273874234"><ele>28.0</ele><time>2026-04-23T07:05:23.001Z</time></trkpt><trkpt lat="-20.38094099936487" lon="118.97726895568026"><ele>28.5</ele><time>2026-04-23T07:05:24.001Z</time></trkpt><trkpt lat="-20.380820831970787" lon="118.97754862076071"><ele>29.0</ele><time>2026-04-23T07:05:25.001Z</time></trkpt><trkpt lat="-20.38070441778403" lon="118.9778239797924"><ele>29.0</ele><time>2026-04-23T07:05:26.001Z</time></trkpt><trkpt lat="-20.380588620474107" lon="118.9780985767663"><ele>29.0</ele><time>2026-04-23T07:05:27.001Z</time></trkpt><trkpt lat="-20.38046995988563" lon="118.97837155908745"><ele>29.5</ele><time>2026-04-23T07:05:28.001Z</time></trkpt><trkpt lat="-20.380350150971914" lon="118.97864079665976"><ele>30.0</ele><time>2026-04-23T07:05:29.001Z</time></trkpt><trkpt lat="-20.380231737990265" lon="118.9789092867095"><ele>30.0</ele><time>2026-04-23T07:05:30.001Z</time></trkpt><trkpt lat="-20.3801147349618" lon="118.97917995000552"><ele>30.0</ele><time>2026-04-23T07:05:31.001Z</time></trkpt><trkpt lat="-20.379995405957004" lon="118.97945360261284"><ele>29.5</ele><time>2026-04-23T07:05:32.001Z</time></trkpt><trkpt lat="-20.379876439408292" lon="118.97972328469054"><ele>29.0</ele><time>2026-04-23T07:05:33.001Z</time></trkpt><trkpt lat="-20.379757216429443" lon="118.97999443684125"><ele>30.5</ele><time>2026-04-23T07:05:34.001Z</time></trkpt><trkpt lat="-20.379639260296265" lon="118.98026594409632"><ele>32.0</ele><time>2026-04-23T07:05:35.001Z</time></trkpt><trkpt lat="-20.37952112985971" lon="118.98053971051355"><ele>32.0</ele><time>2026-04-23T07:05:36.001Z</time></trkpt><trkpt lat="-20.3794000575724" lon="118.98081815231232"><ele>32.0</ele><time>2026-04-23T07:05:37.001Z</time></trkpt><trkpt lat="-20.379278982242724" lon="118.98109777371994"><ele>32.5</ele><time>2026-04-23T07:05:38.001Z</time></trkpt><trkpt lat="-20.37915858616306" lon="118.98138023605233"><ele>33.0</ele><time>2026-04-23T07:05:39.001Z</time></trkpt><trkpt lat="-20.379035092218498" lon="118.98167004002372"><ele>32.5</ele><time>2026-04-23T07:05:40.001Z</time></trkpt><trkpt lat="-20.378910896988522" lon="118.98196156458064"><ele>32.0</ele><time>2026-04-23T07:05:41.001Z</time></trkpt><trkpt lat="-20.378788018101066" lon="118.98224999221237"><ele>32.5</ele><time>2026-04-23T07:05:42.001Z</time></trkpt><trkpt lat="-20.378664874552744" lon="118.9825329551572"><ele>33.0</ele><time>2026-04-23T07:05:43.001Z</time></trkpt><trkpt lat="-20.378540163055224" lon="118.98281371851776"><ele>33.0</ele><time>2026-04-23T07:05:44.001Z</time></trkpt><trkpt lat="-20.37841882717705" lon="118.98309127205148"><ele>33.0</ele><time>2026-04-23T07:05:45.001Z</time></trkpt><trkpt lat="-20.378300672747883" lon="118.98336549381219"><ele>32.5</ele><time>2026-04-23T07:05:46.001Z</time></trkpt><trkpt lat="-20.37818417475272" lon="118.98363860759797"><ele>32.0</ele><time>2026-04-23T07:05:47.001Z</time></trkpt><trkpt lat="-20.378067158033012" lon="118.98391067028845"><ele>33.5</ele><time>2026-04-23T07:05:48.001Z</time></trkpt><trkpt lat="-20.377950246275436" lon="118.9841835744996"><ele>35.0</ele><time>2026-04-23T07:05:49.001Z</time></trkpt><trkpt lat="-20.37783333172412" lon="118.98445688746423"><ele>35.0</ele><time>2026-04-23T07:05:50.001Z</time></trkpt><trkpt lat="-20.377716192754377" lon="118.98472867356568"><ele>35.0</ele><time>2026-04-23T07:05:51.001Z</time></trkpt><trkpt lat="-20.377597524742892" lon="118.98499889573459"><ele>34.5</ele><time>2026-04-23T07:05:52.001Z</time></trkpt><trkpt lat="-20.3774793815407" lon="118.98527202747967"><ele>34.0</ele><time>2026-04-23T07:05:53.001Z</time></trkpt><trkpt lat="-20.377361364627824" lon="118.98554397793035"><ele>34.0</ele><time>2026-04-23T07:05:54.001Z</time></trkpt><trkpt lat="-20.37724543771596" lon="118.98581802779502"><ele>34.0</ele><time>2026-04-23T07:05:55.001Z</time></trkpt><trkpt lat="-20.37712970507088" lon="118.98609042568764"><ele>35.0</ele><time>2026-04-23T07:05:56.001Z</time></trkpt><trkpt lat="-20.377013582220133" lon="118.98636285960228"><ele>36.0</ele><time>2026-04-23T07:05:57.001Z</time></trkpt><trkpt lat="-20.37689489097102" lon="118.98663723023937"><ele>35.5</ele><time>2026-04-23T07:05:58.001Z</time></trkpt><trkpt lat="-20.376774164611092" lon="118.98691333791375"><ele>35.0</ele><time>2026-04-23T07:05:59.001Z</time></trkpt><trkpt lat="-20.37665071645731" lon="118.98719142225664"><ele>35.0</ele><time>2026-04-23T07:06:00.001Z</time></trkpt><trkpt lat="-20.376527435202096" lon="118.98747273091537"><ele>35.0</ele><time>2026-04-23T07:06:01.001Z</time></trkpt><trkpt lat="-20.376404939569774" lon="118.98775677858275"><ele>34.5</ele><time>2026-04-23T07:06:02.001Z</time></trkpt><trkpt lat="-20.376284194646296" lon="118.98803900183796"><ele>34.0</ele><time>2026-04-23T07:06:03.001Z</time></trkpt><trkpt lat="-20.376163224853148" lon="118.98831881522975"><ele>34.5</ele><time>2026-04-23T07:06:04.001Z</time></trkpt><trkpt lat="-20.376043667047696" lon="118.98859572320379"><ele>35.0</ele><time>2026-04-23T07:06:05.001Z</time></trkpt><trkpt lat="-20.37592454214416" lon="118.98887290385252"><ele>35.0</ele><time>2026-04-23T07:06:06.002Z</time></trkpt><trkpt lat="-20.37580517672701" lon="118.98914909270752"><ele>35.0</ele><time>2026-04-23T07:06:07.002Z</time></trkpt><trkpt lat="-20.375682284149246" lon="118.9894272112082"><ele>35.0</ele><time>2026-04-23T07:06:08.002Z</time></trkpt><trkpt lat="-20.375560659137204" lon="118.989705009937"><ele>35.0</ele><time>2026-04-23T07:06:09.002Z</time></trkpt><trkpt lat="-20.375440189971417" lon="118.98998418676946"><ele>35.0</ele><time>2026-04-23T07:06:10.002Z</time></trkpt><trkpt lat="-20.375318708840734" lon="118.99026580028846"><ele>35.0</ele><time>2026-04-23T07:06:11.001Z</time></trkpt><trkpt lat="-20.375195955970185" lon="118.99055046013007"><ele>35.0</ele><time>2026-04-23T07:06:12.001Z</time></trkpt><trkpt lat="-20.375072761530706" lon="118.99083371733967"><ele>35.0</ele><time>2026-04-23T07:06:13.001Z</time></trkpt><trkpt lat="-20.374952910019292" lon="118.99111633995152"><ele>35.0</ele><time>2026-04-23T07:06:14.001Z</time></trkpt><trkpt lat="-20.37483168016987" lon="118.99139952722079"><ele>35.0</ele><time>2026-04-23T07:06:15.001Z</time></trkpt><trkpt lat="-20.37470952727294" lon="118.99168329985648"><ele>35.0</ele><time>2026-04-23T07:06:16.001Z</time></trkpt><trkpt lat="-20.37458619892946" lon="118.99196563502638"><ele>35.0</ele><time>2026-04-23T07:06:17.001Z</time></trkpt><trkpt lat="-20.37446640818708" lon="118.992242880226"><ele>35.0</ele><time>2026-04-23T07:06:18.001Z</time></trkpt><trkpt lat="-20.374348355825592" lon="118.99251574436518"><ele>35.0</ele><time>2026-04-23T07:06:19.001Z</time></trkpt><trkpt lat="-20.374231258564485" lon="118.99278597358769"><ele>35.0</ele><time>2026-04-23T07:06:20.001Z</time></trkpt><trkpt lat="-20.374115832379438" lon="118.99305128838994"><ele>35.0</ele><time>2026-04-23T07:06:21.001Z</time></trkpt><trkpt lat="-20.37400065315201" lon="118.99331259590161"><ele>35.0</ele><time>2026-04-23T07:06:22.001Z</time></trkpt><trkpt lat="-20.37388738530753" lon="118.99357105194477"><ele>35.0</ele><time>2026-04-23T07:06:23Z</time></trkpt><trkpt lat="-20.373776023888972" lon="118.99382967683937"><ele>35.5</ele><time>2026-04-23T07:06:24Z</time></trkpt><trkpt lat="-20.373666053224408" lon="118.99408839675414"><ele>36.0</ele><time>2026-04-23T07:06:25Z</time></trkpt><trkpt lat="-20.37355393283789" lon="118.99434840110384"><ele>35.0</ele><time>2026-04-23T07:06:26Z</time></trkpt><trkpt lat="-20.373442993629414" lon="118.99460550337974"><ele>34.0</ele><time>2026-04-23T07:06:27Z</time></trkpt><trkpt lat="-20.373331321217428" lon="118.9948629106943"><ele>35.5</ele><time>2026-04-23T07:06:28Z</time></trkpt><trkpt lat="-20.373219900308946" lon="118.99512128732866"><ele>37.0</ele><time>2026-04-23T07:06:29Z</time></trkpt><trkpt lat="-20.373103110127314" lon="118.9953851864199"><ele>36.0</ele><time>2026-04-23T07:06:30Z</time></trkpt><trkpt lat="-20.37298675084095" lon="118.9956497757823"><ele>35.0</ele><time>2026-04-23T07:06:31Z</time></trkpt><trkpt lat="-20.372869070361958" lon="118.99591705192064"><ele>34.5</ele><time>2026-04-23T07:06:32Z</time></trkpt><trkpt lat="-20.372757391132097" lon="118.99617318567937"><ele>34.0</ele><time>2026-04-23T07:06:33Z</time></trkpt><trkpt lat="-20.372647093168254" lon="118.99642287750468"><ele>35.5</ele><time>2026-04-23T07:06:34Z</time></trkpt><trkpt lat="-20.37253821926135" lon="118.99667609504641"><ele>37.0</ele><time>2026-04-23T07:06:35Z</time></trkpt><trkpt lat="-20.372424553142725" lon="118.9969396574514"><ele>37.0</ele><time>2026-04-23T07:06:36Z</time></trkpt><trkpt lat="-20.372309486847566" lon="118.99720791035993"><ele>37.0</ele><time>2026-04-23T07:06:37Z</time></trkpt><trkpt lat="-20.372195431194072" lon="118.99747889158355"><ele>37.0</ele><time>2026-04-23T07:06:38Z</time></trkpt><trkpt lat="-20.372079625916278" lon="118.99775219872477"><ele>37.0</ele><time>2026-04-23T07:06:39Z</time></trkpt><trkpt lat="-20.371960493304016" lon="118.99802671425947"><ele>37.0</ele><time>2026-04-23T07:06:40Z</time></trkpt><trkpt lat="-20.371841068850944" lon="118.99830398369194"><ele>37.0</ele><time>2026-04-23T07:06:41Z</time></trkpt><trkpt lat="-20.37172106431285" lon="118.99858298225769"><ele>36.5</ele><time>2026-04-23T07:06:42Z</time></trkpt><trkpt lat="-20.371601011572753" lon="118.99886278185595"><ele>36.0</ele><time>2026-04-23T07:06:43Z</time></trkpt><trkpt lat="-20.371475263582184" lon="118.99913901099781"><ele>36.5</ele><time>2026-04-23T07:06:44Z</time></trkpt><trkpt lat="-20.371341115441872" lon="118.99941303396125"><ele>37.0</ele><time>2026-04-23T07:06:45Z</time></trkpt><trkpt lat="-20.37120422017404" lon="118.99968368393598"><ele>37.0</ele><time>2026-04-23T07:06:46Z</time></trkpt><trkpt lat="-20.371047176269855" lon="118.99994442002799"><ele>37.0</ele><time>2026-04-23T07:06:47Z</time></trkpt><trkpt lat="-20.370898565378894" lon="119.00021244379126"><ele>37.0</ele><time>2026-04-23T07:06:48Z</time></trkpt><trkpt lat="-20.37076106439423" lon="119.00048519441307"><ele>37.0</ele><time>2026-04-23T07:06:49Z</time></trkpt><trkpt lat="-20.37060628067416" lon="119.0007481249208"><ele>36.5</ele><time>2026-04-23T07:06:50Z</time></trkpt><trkpt lat="-20.370454853255463" lon="119.00100808091878"><ele>36.0</ele><time>2026-04-23T07:06:51Z</time></trkpt><trkpt lat="-20.370304106589703" lon="119.00126762740878"><ele>36.0</ele><time>2026-04-23T07:06:52Z</time></trkpt><trkpt lat="-20.370157070578493" lon="119.00152488745836"><ele>36.0</ele><time>2026-04-23T07:06:53Z</time></trkpt><trkpt lat="-20.37001116318415" lon="119.00178320203652"><ele>35.5</ele><time>2026-04-23T07:06:54Z</time></trkpt><trkpt lat="-20.369867039070616" lon="119.00203882211878"><ele>35.0</ele><time>2026-04-23T07:06:55Z</time></trkpt><trkpt lat="-20.369718672071045" lon="119.00229436868696"><ele>34.5</ele><time>2026-04-23T07:06:56Z</time></trkpt><trkpt lat="-20.36957023344993" lon="119.00254684992822"><ele>34.0</ele><time>2026-04-23T07:06:57Z</time></trkpt><trkpt lat="-20.369421389282888" lon="119.00280206692861"><ele>34.0</ele><time>2026-04-23T07:06:58Z</time></trkpt><trkpt lat="-20.3692733346544" lon="119.00305594987563"><ele>34.0</ele><time>2026-04-23T07:06:59Z</time></trkpt><trkpt lat="-20.369125378086935" lon="119.00331225863187"><ele>34.5</ele><time>2026-04-23T07:07:00Z</time></trkpt><trkpt lat="-20.368979446747222" lon="119.00356549056963"><ele>35.0</ele><time>2026-04-23T07:07:01Z</time></trkpt><trkpt lat="-20.368833923796544" lon="119.00381878676079"><ele>35.0</ele><time>2026-04-23T07:07:02Z</time></trkpt><trkpt lat="-20.36869103383338" lon="119.00407164287626"><ele>35.0</ele><time>2026-04-23T07:07:03Z</time></trkpt><trkpt lat="-20.36854942459312" lon="119.00432383054735"><ele>35.0</ele><time>2026-04-23T07:07:04.001Z</time></trkpt><trkpt lat="-20.368407321009762" lon="119.00457509823566"><ele>35.0</ele><time>2026-04-23T07:07:05.001Z</time></trkpt><trkpt lat="-20.368265718743817" lon="119.00482426117684"><ele>34.5</ele><time>2026-04-23T07:07:06.001Z</time></trkpt><trkpt lat="-20.36812134179674" lon="119.00507237175907"><ele>34.0</ele><time>2026-04-23T07:07:07.001Z</time></trkpt><trkpt lat="-20.36797822691345" lon="119.00531705303986"><ele>33.5</ele><time>2026-04-23T07:07:08.001Z</time></trkpt><trkpt lat="-20.367836572072584" lon="119.00556209689985"><ele>33.0</ele><time>2026-04-23T07:07:09.001Z</time></trkpt><trkpt lat="-20.3676976711328" lon="119.00581030907549"><ele>33.0</ele><time>2026-04-23T07:07:10.001Z</time></trkpt><trkpt lat="-20.367556144279025" lon="119.00605852672734"><ele>33.0</ele><time>2026-04-23T07:07:11.001Z</time></trkpt><trkpt lat="-20.367411701323515" lon="119.0063060102121"><ele>33.0</ele><time>2026-04-23T07:07:12.001Z</time></trkpt><trkpt lat="-20.36726610700736" lon="119.00655639761526"><ele>33.0</ele><time>2026-04-23T07:07:13.001Z</time></trkpt><trkpt lat="-20.367123973438957" lon="119.00680461154819"><ele>32.5</ele><time>2026-04-23T07:07:14.001Z</time></trkpt><trkpt lat="-20.366984148473254" lon="119.00705018676196"><ele>32.0</ele><time>2026-04-23T07:07:15.001Z</time></trkpt><trkpt lat="-20.36684256677589" lon="119.007296985075"><ele>32.0</ele><time>2026-04-23T07:07:16.001Z</time></trkpt><trkpt lat="-20.36670101595231" lon="119.00754369233488"><ele>32.0</ele><time>2026-04-23T07:07:17.001Z</time></trkpt><trkpt lat="-20.366556713252212" lon="119.0077940566196"><ele>32.0</ele><time>2026-04-23T07:07:18.001Z</time></trkpt><trkpt lat="-20.366413439999267" lon="119.00804478897929"><ele>32.0</ele><time>2026-04-23T07:07:19.001Z</time></trkpt><trkpt lat="-20.36626927260438" lon="119.00830018582019"><ele>32.0</ele><time>2026-04-23T07:07:20.001Z</time></trkpt><trkpt lat="-20.366124342469433" lon="119.00855594872571"><ele>32.0</ele><time>2026-04-23T07:07:21.001Z</time></trkpt><trkpt lat="-20.365977117058822" lon="119.00881348928961"><ele>32.0</ele><time>2026-04-23T07:07:22.001Z</time></trkpt><trkpt lat="-20.365829272332313" lon="119.00907265256578"><ele>32.0</ele><time>2026-04-23T07:07:23.001Z</time></trkpt><trkpt lat="-20.365681887543214" lon="119.0093301150544"><ele>30.5</ele><time>2026-04-23T07:07:24.001Z</time></trkpt><trkpt lat="-20.365536187616016" lon="119.00958730752312"><ele>29.0</ele><time>2026-04-23T07:07:25.001Z</time></trkpt><trkpt lat="-20.36538749221515" lon="119.00984685411633"><ele>29.0</ele><time>2026-04-23T07:07:26.001Z</time></trkpt><trkpt lat="-20.365238525080073" lon="119.01010335458292"><ele>29.0</ele><time>2026-04-23T07:07:27.001Z</time></trkpt><trkpt lat="-20.365089782382988" lon="119.01035576139697"><ele>29.0</ele><time>2026-04-23T07:07:28.001Z</time></trkpt><trkpt lat="-20.364941163630093" lon="119.01060794458493"><ele>29.0</ele><time>2026-04-23T07:07:29.001Z</time></trkpt><trkpt lat="-20.364794884944462" lon="119.01085900391037"><ele>30.0</ele><time>2026-04-23T07:07:30.001Z</time></trkpt><trkpt lat="-20.3646491679481" lon="119.01111310291122"><ele>31.0</ele><time>2026-04-23T07:07:31.001Z</time></trkpt><trkpt lat="-20.364503268458957" lon="119.01136659013765"><ele>31.0</ele><time>2026-04-23T07:07:32.001Z</time></trkpt><trkpt lat="-20.364355181301363" lon="119.01162097577055"><ele>31.0</ele><time>2026-04-23T07:07:33.001Z</time></trkpt><trkpt lat="-20.36421021483602" lon="119.01187402972565"><ele>31.0</ele><time>2026-04-23T07:07:34.001Z</time></trkpt><trkpt lat="-20.364067711799326" lon="119.01212762529823"><ele>31.0</ele><time>2026-04-23T07:07:35.001Z</time></trkpt><trkpt lat="-20.363921898776272" lon="119.0123862047378"><ele>30.5</ele><time>2026-04-23T07:07:36.001Z</time></trkpt><trkpt lat="-20.363774752549325" lon="119.01264094432373"><ele>30.0</ele><time>2026-04-23T07:07:37.001Z</time></trkpt><trkpt lat="-20.363626860687386" lon="119.01289557575558"><ele>30.0</ele><time>2026-04-23T07:07:38.001Z</time></trkpt><trkpt lat="-20.363479573954606" lon="119.01315164851748"><ele>30.0</ele><time>2026-04-23T07:07:39.001Z</time></trkpt><trkpt lat="-20.3633305129504" lon="119.01341032344828"><ele>29.5</ele><time>2026-04-23T07:07:40.001Z</time></trkpt><trkpt lat="-20.36318256287185" lon="119.01367086273697"><ele>29.0</ele><time>2026-04-23T07:07:41.001Z</time></trkpt><trkpt lat="-20.363033251906273" lon="119.01393274882234"><ele>29.5</ele><time>2026-04-23T07:07:42.001Z</time></trkpt><trkpt lat="-20.362884521879035" lon="119.01419413610209"><ele>30.0</ele><time>2026-04-23T07:07:43.001Z</time></trkpt><trkpt lat="-20.36273363919986" lon="119.0144555998506"><ele>30.0</ele><time>2026-04-23T07:07:44.001Z</time></trkpt><trkpt lat="-20.36257971851248" lon="119.01472095466892"><ele>30.0</ele><time>2026-04-23T07:07:45.001Z</time></trkpt><trkpt lat="-20.362427504345543" lon="119.01498456396145"><ele>29.5</ele><time>2026-04-23T07:07:46.001Z</time></trkpt><trkpt lat="-20.362276215727015" lon="119.01524668565152"><ele>29.0</ele><time>2026-04-23T07:07:47.001Z</time></trkpt><trkpt lat="-20.36212300810589" lon="119.01550957020447"><ele>29.0</ele><time>2026-04-23T07:07:48.001Z</time></trkpt><trkpt lat="-20.361974642004085" lon="119.0157686390213"><ele>29.0</ele><time>2026-04-23T07:07:49.001Z</time></trkpt><trkpt lat="-20.361825695895362" lon="119.01602647549592"><ele>29.0</ele><time>2026-04-23T07:07:50.001Z</time></trkpt><trkpt lat="-20.361676781239705" lon="119.01628361648777"><ele>29.0</ele><time>2026-04-23T07:07:51.001Z</time></trkpt><trkpt lat="-20.361531348708276" lon="119.01653914261972"><ele>29.5</ele><time>2026-04-23T07:07:52.001Z</time></trkpt><trkpt lat="-20.361388129110026" lon="119.01679110907968"><ele>30.0</ele><time>2026-04-23T07:07:53.001Z</time></trkpt><trkpt lat="-20.361244070410887" lon="119.01704325440096"><ele>30.0</ele><time>2026-04-23T07:07:54.001Z</time></trkpt><trkpt lat="-20.361103419580896" lon="119.01729106445111"><ele>30.0</ele><time>2026-04-23T07:07:55.001Z</time></trkpt><trkpt lat="-20.360964676580522" lon="119.01753410856948"><ele>30.5</ele><time>2026-04-23T07:07:56.001Z</time></trkpt><trkpt lat="-20.36082396163933" lon="119.01777709526053"><ele>31.0</ele><time>2026-04-23T07:07:57.001Z</time></trkpt><trkpt lat="-20.360682447705603" lon="119.0180204982814"><ele>31.0</ele><time>2026-04-23T07:07:58.001Z</time></trkpt><trkpt lat="-20.360542431091755" lon="119.01826489096189"><ele>31.0</ele><time>2026-04-23T07:07:59.001Z</time></trkpt><trkpt lat="-20.360400435839207" lon="119.01851073825993"><ele>31.0</ele><time>2026-04-23T07:08:00.001Z</time></trkpt><trkpt lat="-20.360257530841913" lon="119.01875785853518"><ele>31.0</ele><time>2026-04-23T07:08:01.001Z</time></trkpt><trkpt lat="-20.360115983050097" lon="119.01900260902895"><ele>31.5</ele><time>2026-04-23T07:08:02.001Z</time></trkpt><trkpt lat="-20.359972333780757" lon="119.01924838166369"><ele>32.0</ele><time>2026-04-23T07:08:03.001Z</time></trkpt><trkpt lat="-20.35983188813163" lon="119.01949463449431"><ele>32.0</ele><time>2026-04-23T07:08:04.001Z</time></trkpt><trkpt lat="-20.35968915404115" lon="119.01974398890636"><ele>32.0</ele><time>2026-04-23T07:08:05.001Z</time></trkpt><trkpt lat="-20.359543463188412" lon="119.01999451207412"><ele>32.0</ele><time>2026-04-23T07:08:06.001Z</time></trkpt><trkpt lat="-20.359400846547018" lon="119.02024349014792"><ele>32.0</ele><time>2026-04-23T07:08:07.001Z</time></trkpt><trkpt lat="-20.35925802672576" lon="119.02049498883669"><ele>32.0</ele><time>2026-04-23T07:08:08.001Z</time></trkpt><trkpt lat="-20.359116222498386" lon="119.02074192694134"><ele>32.0</ele><time>2026-04-23T07:08:09.001Z</time></trkpt><trkpt lat="-20.35897144772469" lon="119.02098755436474"><ele>32.5</ele><time>2026-04-23T07:08:10.001Z</time></trkpt><trkpt lat="-20.358827062301486" lon="119.02123973378097"><ele>33.0</ele><time>2026-04-23T07:08:11.001Z</time></trkpt><trkpt lat="-20.358682739234155" lon="119.02149246849305"><ele>33.0</ele><time>2026-04-23T07:08:12.001Z</time></trkpt><trkpt lat="-20.358540423254865" lon="119.02174407180705"><ele>33.0</ele><time>2026-04-23T07:08:13.001Z</time></trkpt><trkpt lat="-20.358394000573952" lon="119.02200156242944"><ele>33.0</ele><time>2026-04-23T07:08:14.001Z</time></trkpt><trkpt lat="-20.358234953811863" lon="119.022247492646"><ele>33.0</ele><time>2026-04-23T07:08:15.001Z</time></trkpt><trkpt lat="-20.35808771481669" lon="119.02250503852873"><ele>33.0</ele><time>2026-04-23T07:08:16.001Z</time></trkpt><trkpt lat="-20.357940206329932" lon="119.02276349689528"><ele>33.0</ele><time>2026-04-23T07:08:17Z</time></trkpt><trkpt lat="-20.357790984132247" lon="119.02302447362388"><ele>33.0</ele><time>2026-04-23T07:08:18Z</time></trkpt><trkpt lat="-20.35764149341682" lon="119.02328651921465"><ele>33.0</ele><time>2026-04-23T07:08:19Z</time></trkpt><trkpt lat="-20.357503467692393" lon="119.0235571988759"><ele>33.5</ele><time>2026-04-23T07:08:20Z</time></trkpt><trkpt lat="-20.35735229525558" lon="119.0238197208626"><ele>34.0</ele><time>2026-04-23T07:08:21Z</time></trkpt><trkpt lat="-20.35719874016947" lon="119.02408570402804"><ele>33.5</ele><time>2026-04-23T07:08:22Z</time></trkpt><trkpt lat="-20.3570442338634" lon="119.02435260745138"><ele>33.0</ele><time>2026-04-23T07:08:23Z</time></trkpt><trkpt lat="-20.35689183372203" lon="119.02461674367753"><ele>33.0</ele><time>2026-04-23T07:08:24Z</time></trkpt><trkpt lat="-20.356738673451183" lon="119.02488186676717"><ele>33.0</ele><time>2026-04-23T07:08:25Z</time></trkpt><trkpt lat="-20.356589292851492" lon="119.02514295598392"><ele>33.0</ele><time>2026-04-23T07:08:26Z</time></trkpt><trkpt lat="-20.356441969117665" lon="119.02540151913793"><ele>33.0</ele><time>2026-04-23T07:08:27Z</time></trkpt><trkpt lat="-20.35628276730551" lon="119.02564612675832"><ele>34.0</ele><time>2026-04-23T07:08:28Z</time></trkpt><trkpt lat="-20.356135238793193" lon="119.02589877828102"><ele>35.0</ele><time>2026-04-23T07:08:29Z</time></trkpt><trkpt lat="-20.355990726768567" lon="119.02615071323814"><ele>35.0</ele><time>2026-04-23T07:08:30Z</time></trkpt><trkpt lat="-20.355872114025335" lon="119.02641756449137"><ele>35.0</ele><time>2026-04-23T07:08:31Z</time></trkpt><trkpt lat="-20.35574662676543" lon="119.02667651787539"><ele>34.5</ele><time>2026-04-23T07:08:32Z</time></trkpt><trkpt lat="-20.355616141851144" lon="119.02693423847948"><ele>34.0</ele><time>2026-04-23T07:08:33Z</time></trkpt><trkpt lat="-20.355506164705147" lon="119.02720503454384"><ele>34.0</ele><time>2026-04-23T07:08:34Z</time></trkpt><trkpt lat="-20.355418615866384" lon="119.02748624694385"><ele>34.0</ele><time>2026-04-23T07:08:35Z</time></trkpt><trkpt lat="-20.3553187532106" lon="119.0277640907518"><ele>34.0</ele><time>2026-04-23T07:08:36Z</time></trkpt><trkpt lat="-20.355220693826567" lon="119.02804387782027"><ele>34.0</ele><time>2026-04-23T07:08:37Z</time></trkpt><trkpt lat="-20.355126707355772" lon="119.02832519976712"><ele>33.5</ele><time>2026-04-23T07:08:38Z</time></trkpt><trkpt lat="-20.355032471320513" lon="119.02860678743902"><ele>33.0</ele><time>2026-04-23T07:08:39Z</time></trkpt><trkpt lat="-20.354937519639076" lon="119.02888943715641"><ele>33.0</ele><time>2026-04-23T07:08:40Z</time></trkpt><trkpt lat="-20.354842719474647" lon="119.02916899800492"><ele>33.0</ele><time>2026-04-23T07:08:41Z</time></trkpt><trkpt lat="-20.354746212161857" lon="119.02945296378793"><ele>33.0</ele><time>2026-04-23T07:08:42Z</time></trkpt><trkpt lat="-20.354647442067375" lon="119.02973824098453"><ele>33.0</ele><time>2026-04-23T07:08:43Z</time></trkpt><trkpt lat="-20.35455212583355" lon="119.03001789098984"><ele>33.0</ele><time>2026-04-23T07:08:44Z</time></trkpt><trkpt lat="-20.354456768647726" lon="119.03030250607314"><ele>33.0</ele><time>2026-04-23T07:08:45Z</time></trkpt><trkpt lat="-20.354362549793517" lon="119.03058356497176"><ele>33.0</ele><time>2026-04-23T07:08:46Z</time></trkpt><trkpt lat="-20.3542673657264" lon="119.03086797136206"><ele>33.0</ele><time>2026-04-23T07:08:47Z</time></trkpt><trkpt lat="-20.35417037793944" lon="119.03114993966607"><ele>33.0</ele><time>2026-04-23T07:08:48Z</time></trkpt><trkpt lat="-20.35407455335425" lon="119.03143233756376"><ele>33.0</ele><time>2026-04-23T07:08:49Z</time></trkpt><trkpt lat="-20.35396345721735" lon="119.03170894007832"><ele>33.5</ele><time>2026-04-23T07:08:50Z</time></trkpt><trkpt lat="-20.353866710863205" lon="119.0319857540869"><ele>34.0</ele><time>2026-04-23T07:08:51Z</time></trkpt><trkpt lat="-20.353771423087775" lon="119.03226336290746"><ele>34.0</ele><time>2026-04-23T07:08:52Z</time></trkpt><trkpt lat="-20.35367812304351" lon="119.03254353610926"><ele>34.0</ele><time>2026-04-23T07:08:53Z</time></trkpt><trkpt lat="-20.35359907908383" lon="119.03282753364276"><ele>34.0</ele><time>2026-04-23T07:08:54Z</time></trkpt><trkpt lat="-20.35350368296721" lon="119.03310796849217"><ele>34.0</ele><time>2026-04-23T07:08:55Z</time></trkpt><trkpt lat="-20.353409031924908" lon="119.0333873182703"><ele>33.0</ele><time>2026-04-23T07:08:56Z</time></trkpt><trkpt lat="-20.353297121690698" lon="119.03366363829416"><ele>32.0</ele><time>2026-04-23T07:08:57Z</time></trkpt><trkpt lat="-20.353199387363986" lon="119.03394760926197"><ele>31.0</ele><time>2026-04-23T07:08:58Z</time></trkpt><trkpt lat="-20.35310191367023" lon="119.03423342201852"><ele>30.0</ele><time>2026-04-23T07:08:59Z</time></trkpt><trkpt lat="-20.353017772227606" lon="119.03452745796437"><ele>30.0</ele><time>2026-04-23T07:09:00Z</time></trkpt><trkpt lat="-20.352917273445204" lon="119.03481691861194"><ele>30.0</ele><time>2026-04-23T07:09:01Z</time></trkpt><trkpt lat="-20.352816490086184" lon="119.03510885109681"><ele>29.5</ele><time>2026-04-23T07:09:02Z</time></trkpt><trkpt lat="-20.35271876063311" lon="119.03539908169216"><ele>29.0</ele><time>2026-04-23T07:09:03Z</time></trkpt><trkpt lat="-20.352616240199158" lon="119.03569153492533"><ele>29.5</ele><time>2026-04-23T07:09:04Z</time></trkpt><trkpt lat="-20.352518957790018" lon="119.03597963104315"><ele>30.0</ele><time>2026-04-23T07:09:05Z</time></trkpt><trkpt lat="-20.352422082012986" lon="119.03626647911891"><ele>30.0</ele><time>2026-04-23T07:09:06Z</time></trkpt><trkpt lat="-20.35232389350969" lon="119.03655219832964"><ele>30.0</ele><time>2026-04-23T07:09:07Z</time></trkpt><trkpt lat="-20.352223681265492" lon="119.03683770549694"><ele>29.0</ele><time>2026-04-23T07:09:08Z</time></trkpt><trkpt lat="-20.35212660998351" lon="119.03711774088946"><ele>28.0</ele><time>2026-04-23T07:09:09Z</time></trkpt><trkpt lat="-20.352027224200643" lon="119.03739978807133"><ele>28.0</ele><time>2026-04-23T07:09:10Z</time></trkpt><trkpt lat="-20.351932603774898" lon="119.03767957693438"><ele>28.0</ele><time>2026-04-23T07:09:11Z</time></trkpt><trkpt lat="-20.351837287537414" lon="119.03796245893402"><ele>28.0</ele><time>2026-04-23T07:09:12Z</time></trkpt><trkpt lat="-20.35174559971814" lon="119.03824191176548"><ele>28.0</ele><time>2026-04-23T07:09:13Z</time></trkpt><trkpt lat="-20.351652806632146" lon="119.03852308619895"><ele>28.5</ele><time>2026-04-23T07:09:14Z</time></trkpt><trkpt lat="-20.351558320261066" lon="119.0388029925064"><ele>29.0</ele><time>2026-04-23T07:09:15Z</time></trkpt><trkpt lat="-20.35145961666747" lon="119.03908414927287"><ele>29.0</ele><time>2026-04-23T07:09:16Z</time></trkpt><trkpt lat="-20.35136282490784" lon="119.03936512453443"><ele>29.0</ele><time>2026-04-23T07:09:17Z</time></trkpt><trkpt lat="-20.351267782528943" lon="119.03964425337418"><ele>29.0</ele><time>2026-04-23T07:09:18Z</time></trkpt><trkpt lat="-20.351172363897227" lon="119.03992410514344"><ele>29.0</ele><time>2026-04-23T07:09:19Z</time></trkpt><trkpt lat="-20.35107778756214" lon="119.04020135177805"><ele>28.0</ele><time>2026-04-23T07:09:20Z</time></trkpt><trkpt lat="-20.3509845299232" lon="119.0404798914075"><ele>27.0</ele><time>2026-04-23T07:09:21Z</time></trkpt><trkpt lat="-20.350889032330244" lon="119.04075906776605"><ele>27.5</ele><time>2026-04-23T07:09:22Z</time></trkpt><trkpt lat="-20.350792522032066" lon="119.0410397643008"><ele>28.0</ele><time>2026-04-23T07:09:23Z</time></trkpt><trkpt lat="-20.350697462821163" lon="119.04131744428028"><ele>28.0</ele><time>2026-04-23T07:09:24Z</time></trkpt><trkpt lat="-20.350602002192762" lon="119.04159677077139"><ele>28.0</ele><time>2026-04-23T07:09:25Z</time></trkpt><trkpt lat="-20.35050389857655" lon="119.04188427097043"><ele>27.5</ele><time>2026-04-23T07:09:26Z</time></trkpt><trkpt lat="-20.350408355070766" lon="119.04217102618912"><ele>27.0</ele><time>2026-04-23T07:09:27Z</time></trkpt><trkpt lat="-20.350311085629855" lon="119.04245856368179"><ele>26.0</ele><time>2026-04-23T07:09:28Z</time></trkpt><trkpt lat="-20.35021425703059" lon="119.04274615844716"><ele>25.0</ele><time>2026-04-23T07:09:29Z</time></trkpt><trkpt lat="-20.350116932297308" lon="119.04303186171936"><ele>26.0</ele><time>2026-04-23T07:09:30Z</time></trkpt><trkpt lat="-20.350015800562" lon="119.04331901382935"><ele>27.0</ele><time>2026-04-23T07:09:31Z</time></trkpt><trkpt lat="-20.349912455564482" lon="119.04360758966503"><ele>27.0</ele><time>2026-04-23T07:09:32Z</time></trkpt><trkpt lat="-20.349816267376674" lon="119.04389109598864"><ele>27.0</ele><time>2026-04-23T07:09:33Z</time></trkpt><trkpt lat="-20.349720535795615" lon="119.04418014389032"><ele>27.0</ele><time>2026-04-23T07:09:34Z</time></trkpt><trkpt lat="-20.34962532880531" lon="119.04446368895137"><ele>27.0</ele><time>2026-04-23T07:09:35Z</time></trkpt><trkpt lat="-20.349528548348026" lon="119.04474405277892"><ele>26.0</ele><time>2026-04-23T07:09:36Z</time></trkpt><trkpt lat="-20.349433139908722" lon="119.04502033990532"><ele>25.0</ele><time>2026-04-23T07:09:37Z</time></trkpt><trkpt lat="-20.349337506864106" lon="119.0452965964197"><ele>25.0</ele><time>2026-04-23T07:09:38Z</time></trkpt><trkpt lat="-20.349242852427782" lon="119.04557369797092"><ele>25.0</ele><time>2026-04-23T07:09:39Z</time></trkpt><trkpt lat="-20.349148039172015" lon="119.04585118855226"><ele>25.0</ele><time>2026-04-23T07:09:40Z</time></trkpt><trkpt lat="-20.34905373779191" lon="119.04612441951335"><ele>25.0</ele><time>2026-04-23T07:09:41.001Z</time></trkpt><trkpt lat="-20.34896398014331" lon="119.04638468187505"><ele>25.5</ele><time>2026-04-23T07:09:42.001Z</time></trkpt><trkpt lat="-20.34887441471029" lon="119.04664095011924"><ele>26.0</ele><time>2026-04-23T07:09:43.001Z</time></trkpt><trkpt lat="-20.348783361031295" lon="119.04690992810956"><ele>26.0</ele><time>2026-04-23T07:09:44.001Z</time></trkpt><trkpt lat="-20.34868965736927" lon="119.04718764154563"><ele>26.0</ele><time>2026-04-23T07:09:45.001Z</time></trkpt><trkpt lat="-20.348593573956347" lon="119.0474683287154"><ele>26.0</ele><time>2026-04-23T07:09:46.001Z</time></trkpt><trkpt lat="-20.34849328403974" lon="119.04775771897305"><ele>26.0</ele><time>2026-04-23T07:09:47.001Z</time></trkpt><trkpt lat="-20.348392544513295" lon="119.04804908448637"><ele>25.5</ele><time>2026-04-23T07:09:48.001Z</time></trkpt><trkpt lat="-20.34829291318661" lon="119.04834137683986"><ele>25.0</ele><time>2026-04-23T07:09:49.001Z</time></trkpt><trkpt lat="-20.348194098117872" lon="119.04863506236556"><ele>25.0</ele><time>2026-04-23T07:09:50.001Z</time></trkpt><trkpt lat="-20.348095697914584" lon="119.04893028251784"><ele>25.0</ele><time>2026-04-23T07:09:51.001Z</time></trkpt><trkpt lat="-20.347995847084295" lon="119.04923001662227"><ele>25.5</ele><time>2026-04-23T07:09:52.001Z</time></trkpt><trkpt lat="-20.347896655122682" lon="119.0495257131184"><ele>26.0</ele><time>2026-04-23T07:09:53.001Z</time></trkpt><trkpt lat="-20.347798455871757" lon="119.04981874443027"><ele>26.0</ele><time>2026-04-23T07:09:54.001Z</time></trkpt><trkpt lat="-20.347698775807793" lon="119.05011201045691"><ele>26.0</ele><time>2026-04-23T07:09:55.001Z</time></trkpt><trkpt lat="-20.34760017084831" lon="119.05040358417412"><ele>26.0</ele><time>2026-04-23T07:09:56.001Z</time></trkpt><trkpt lat="-20.347500590061042" lon="119.05069217024445"><ele>26.0</ele><time>2026-04-23T07:09:57.001Z</time></trkpt><trkpt lat="-20.347400356686286" lon="119.05098058775445"><ele>25.5</ele><time>2026-04-23T07:09:58.001Z</time></trkpt><trkpt lat="-20.34730048984336" lon="119.05127128273409"><ele>25.0</ele><time>2026-04-23T07:09:59.001Z</time></trkpt><trkpt lat="-20.34719917317487" lon="119.05156231042551"><ele>25.0</ele><time>2026-04-23T07:10:00.001Z</time></trkpt><trkpt lat="-20.347096366367246" lon="119.05185260281684"><ele>25.0</ele><time>2026-04-23T07:10:01.001Z</time></trkpt><trkpt lat="-20.346996804594188" lon="119.0521398109812"><ele>25.0</ele><time>2026-04-23T07:10:02.001Z</time></trkpt><trkpt lat="-20.346900897064852" lon="119.05242442915808"><ele>25.0</ele><time>2026-04-23T07:10:03.001Z</time></trkpt><trkpt lat="-20.346804731644617" lon="119.05271086703947"><ele>25.5</ele><time>2026-04-23T07:10:04.001Z</time></trkpt><trkpt lat="-20.34670903692222" lon="119.05299175863911"><ele>26.0</ele><time>2026-04-23T07:10:05.001Z</time></trkpt><trkpt lat="-20.3466114707059" lon="119.05327565328034"><ele>25.0</ele><time>2026-04-23T07:10:06.001Z</time></trkpt><trkpt lat="-20.346510840358622" lon="119.05356114145795"><ele>24.0</ele><time>2026-04-23T07:10:07.001Z</time></trkpt><trkpt lat="-20.346410880510774" lon="119.05384804323381"><ele>24.0</ele><time>2026-04-23T07:10:08.001Z</time></trkpt><trkpt lat="-20.346312070165293" lon="119.0541372361028"><ele>24.0</ele><time>2026-04-23T07:10:09.001Z</time></trkpt><trkpt lat="-20.346214192069404" lon="119.05442768458455"><ele>24.0</ele><time>2026-04-23T07:10:10.001Z</time></trkpt><trkpt lat="-20.346115822129693" lon="119.05472036389216"><ele>24.0</ele><time>2026-04-23T07:10:11.001Z</time></trkpt><trkpt lat="-20.3460186192619" lon="119.0550128669527"><ele>24.0</ele><time>2026-04-23T07:10:12.001Z</time></trkpt><trkpt lat="-20.34592795851227" lon="119.05530657378968"><ele>24.0</ele><time>2026-04-23T07:10:13.001Z</time></trkpt><trkpt lat="-20.345844732827377" lon="119.0556006852909"><ele>24.5</ele><time>2026-04-23T07:10:14.001Z</time></trkpt><trkpt lat="-20.34577396394464" lon="119.0558979732675"><ele>25.0</ele><time>2026-04-23T07:10:15.001Z</time></trkpt><trkpt lat="-20.3457162258854" lon="119.05620383472011"><ele>25.0</ele><time>2026-04-23T07:10:16.001Z</time></trkpt><trkpt lat="-20.345667747349868" lon="119.05651155628631"><ele>25.0</ele><time>2026-04-23T07:10:17.001Z</time></trkpt><trkpt lat="-20.345628070341508" lon="119.05681973328207"><ele>24.5</ele><time>2026-04-23T07:10:18.001Z</time></trkpt><trkpt lat="-20.345599152241885" lon="119.05712872977111"><ele>24.0</ele><time>2026-04-23T07:10:19.001Z</time></trkpt><trkpt lat="-20.345580645144835" lon="119.05743373187714"><ele>23.0</ele><time>2026-04-23T07:10:20.001Z</time></trkpt><trkpt lat="-20.34557295593817" lon="119.05774298881764"><ele>22.0</ele><time>2026-04-23T07:10:21.001Z</time></trkpt><trkpt lat="-20.34557876881975" lon="119.05805184469565"><ele>23.5</ele><time>2026-04-23T07:10:22.001Z</time></trkpt><trkpt lat="-20.345592077294906" lon="119.05836351590156"><ele>25.0</ele><time>2026-04-23T07:10:22.999Z</time></trkpt><trkpt lat="-20.345612087783326" lon="119.05867980170737"><ele>25.0</ele><time>2026-04-23T07:10:23.999Z</time></trkpt><trkpt lat="-20.345633615237574" lon="119.05898900056634"><ele>25.0</ele><time>2026-04-23T07:10:24.999Z</time></trkpt><trkpt lat="-20.34565969919773" lon="119.05929790287705"><ele>25.0</ele><time>2026-04-23T07:10:25.999Z</time></trkpt><trkpt lat="-20.345689282834822" lon="119.05960116468772"><ele>25.0</ele><time>2026-04-23T07:10:26.999Z</time></trkpt><trkpt lat="-20.345718071369596" lon="119.05990540827453"><ele>24.5</ele><time>2026-04-23T07:10:27.999Z</time></trkpt><trkpt lat="-20.345741602246466" lon="119.06021069309466"><ele>24.0</ele><time>2026-04-23T07:10:28.999Z</time></trkpt><trkpt lat="-20.345764446383487" lon="119.0605148298172"><ele>24.5</ele><time>2026-04-23T07:10:29.999Z</time></trkpt><trkpt lat="-20.3457861888168" lon="119.06081812316434"><ele>25.0</ele><time>2026-04-23T07:10:30.999Z</time></trkpt><trkpt lat="-20.3458089665711" lon="119.0611185873485"><ele>25.0</ele><time>2026-04-23T07:10:31.999Z</time></trkpt><trkpt lat="-20.345831402699055" lon="119.06141831134939"><ele>25.0</ele><time>2026-04-23T07:10:32.999Z</time></trkpt><trkpt lat="-20.34585447423185" lon="119.0617167144736"><ele>24.0</ele><time>2026-04-23T07:10:33.999Z</time></trkpt><trkpt lat="-20.345876105960496" lon="119.06201651182481"><ele>23.0</ele><time>2026-04-23T07:10:34.999Z</time></trkpt><trkpt lat="-20.345900308425406" lon="119.0623228722445"><ele>24.0</ele><time>2026-04-23T07:10:35.999Z</time></trkpt><trkpt lat="-20.345925245194277" lon="119.06263144437575"><ele>25.0</ele><time>2026-04-23T07:10:36.999Z</time></trkpt><trkpt lat="-20.345950131115075" lon="119.0629410136239"><ele>25.0</ele><time>2026-04-23T07:10:37.999Z</time></trkpt><trkpt lat="-20.345974679102184" lon="119.06325344284078"><ele>25.0</ele><time>2026-04-23T07:10:38.999Z</time></trkpt><trkpt lat="-20.346001415582602" lon="119.06357131808427"><ele>25.0</ele><time>2026-04-23T07:10:39.999Z</time></trkpt><trkpt lat="-20.346030001109025" lon="119.06389291561594"><ele>25.0</ele><time>2026-04-23T07:10:40.999Z</time></trkpt><trkpt lat="-20.34605583869149" lon="119.06421319616251"><ele>26.0</ele><time>2026-04-23T07:10:41.999Z</time></trkpt><trkpt lat="-20.346080801918664" lon="119.06453423481685"><ele>27.0</ele><time>2026-04-23T07:10:42.999Z</time></trkpt><trkpt lat="-20.346105490844828" lon="119.06485393137501"><ele>24.5</ele><time>2026-04-23T07:10:43.999Z</time></trkpt><trkpt lat="-20.34613109151332" lon="119.06517486575821"><ele>22.0</ele><time>2026-04-23T07:10:44.999Z</time></trkpt><trkpt lat="-20.346154293115227" lon="119.06549367439425"><ele>23.0</ele><time>2026-04-23T07:10:45.999Z</time></trkpt><trkpt lat="-20.346177641874874" lon="119.06581622524916"><ele>24.0</ele><time>2026-04-23T07:10:46.999Z</time></trkpt><trkpt lat="-20.346202380060237" lon="119.06613763529111"><ele>24.0</ele><time>2026-04-23T07:10:47.999Z</time></trkpt><trkpt lat="-20.346224918502518" lon="119.06645663577935"><ele>24.0</ele><time>2026-04-23T07:10:48.999Z</time></trkpt><trkpt lat="-20.346246234713643" lon="119.06677304870216"><ele>24.5</ele><time>2026-04-23T07:10:49.999Z</time></trkpt><trkpt lat="-20.346268169015808" lon="119.06708879012733"><ele>25.0</ele><time>2026-04-23T07:10:50.999Z</time></trkpt><trkpt lat="-20.346292981415846" lon="119.06740464989085"><ele>23.5</ele><time>2026-04-23T07:10:51.999Z</time></trkpt><trkpt lat="-20.3463214334769" lon="119.06772473073487"><ele>22.0</ele><time>2026-04-23T07:10:52.999Z</time></trkpt><trkpt lat="-20.346351940595547" lon="119.06804191246789"><ele>22.5</ele><time>2026-04-23T07:10:53.999Z</time></trkpt><trkpt lat="-20.346380800506367" lon="119.06835548167997"><ele>23.0</ele><time>2026-04-23T07:10:54.999Z</time></trkpt><trkpt lat="-20.34640618887519" lon="119.0686653239148"><ele>23.0</ele><time>2026-04-23T07:10:55.999Z</time></trkpt><trkpt lat="-20.346429897817462" lon="119.0689758033946"><ele>23.0</ele><time>2026-04-23T07:10:56.999Z</time></trkpt><trkpt lat="-20.34645273406507" lon="119.06928772884774"><ele>23.0</ele><time>2026-04-23T07:10:57.999Z</time></trkpt><trkpt lat="-20.346476346964593" lon="119.06959908771282"><ele>23.0</ele><time>2026-04-23T07:10:58.999Z</time></trkpt><trkpt lat="-20.346501075195608" lon="119.06991257245018"><ele>23.5</ele><time>2026-04-23T07:10:59.999Z</time></trkpt><trkpt lat="-20.346525492336202" lon="119.07022480967008"><ele>24.0</ele><time>2026-04-23T07:11:00.999Z</time></trkpt><trkpt lat="-20.346549006600288" lon="119.0705391882227"><ele>24.0</ele><time>2026-04-23T07:11:01.999Z</time></trkpt><trkpt lat="-20.34657124596416" lon="119.07085633178562"><ele>24.0</ele><time>2026-04-23T07:11:02.999Z</time></trkpt><trkpt lat="-20.346592913631305" lon="119.0711601628261"><ele>24.0</ele><time>2026-04-23T07:11:03.999Z</time></trkpt><trkpt lat="-20.346615944230294" lon="119.07144834559189"><ele>24.0</ele><time>2026-04-23T07:11:04.999Z</time></trkpt><trkpt lat="-20.346641161488293" lon="119.07173787622172"><ele>23.0</ele><time>2026-04-23T07:11:05.999Z</time></trkpt><trkpt lat="-20.34666703887208" lon="119.07203397693665"><ele>22.0</ele><time>2026-04-23T07:11:06.999Z</time></trkpt><trkpt lat="-20.346691835030118" lon="119.07233833568584"><ele>23.0</ele><time>2026-04-23T07:11:07.999Z</time></trkpt><trkpt lat="-20.346717497466148" lon="119.07265046411258"><ele>24.0</ele><time>2026-04-23T07:11:08.999Z</time></trkpt><trkpt lat="-20.346742595149944" lon="119.07296473135378"><ele>23.5</ele><time>2026-04-23T07:11:09.999Z</time></trkpt><trkpt lat="-20.346767567648158" lon="119.07327664199433"><ele>23.0</ele><time>2026-04-23T07:11:10.999Z</time></trkpt><trkpt lat="-20.346791607255344" lon="119.07358876356962"><ele>23.0</ele><time>2026-04-23T07:11:11.999Z</time></trkpt><trkpt lat="-20.346816190162915" lon="119.07390345599758"><ele>23.0</ele><time>2026-04-23T07:11:12.999Z</time></trkpt><trkpt lat="-20.346839549883104" lon="119.07421986447328"><ele>22.5</ele><time>2026-04-23T07:11:13.999Z</time></trkpt><trkpt lat="-20.346864354672732" lon="119.07453618612145"><ele>22.0</ele><time>2026-04-23T07:11:14.999Z</time></trkpt><trkpt lat="-20.346888797102643" lon="119.07485099612076"><ele>23.5</ele><time>2026-04-23T07:11:15.999Z</time></trkpt><trkpt lat="-20.346915399891717" lon="119.07516688153301"><ele>25.0</ele><time>2026-04-23T07:11:16.999Z</time></trkpt><trkpt lat="-20.34694007032418" lon="119.07548262154849"><ele>25.0</ele><time>2026-04-23T07:11:17.999Z</time></trkpt><trkpt lat="-20.346963808552708" lon="119.07579652616704"><ele>25.0</ele><time>2026-04-23T07:11:18.999Z</time></trkpt><trkpt lat="-20.346988223217714" lon="119.07610647510822"><ele>25.0</ele><time>2026-04-23T07:11:19.999Z</time></trkpt><trkpt lat="-20.347013636460293" lon="119.07642274763215"><ele>25.0</ele><time>2026-04-23T07:11:20.999Z</time></trkpt><trkpt lat="-20.34703865724399" lon="119.07673556667497"><ele>24.5</ele><time>2026-04-23T07:11:21.999Z</time></trkpt><trkpt lat="-20.347063672698397" lon="119.07704978660523"><ele>24.0</ele><time>2026-04-23T07:11:22.999Z</time></trkpt><trkpt lat="-20.34708760288819" lon="119.0773640874029"><ele>23.5</ele><time>2026-04-23T07:11:23.999Z</time></trkpt><trkpt lat="-20.347112581541996" lon="119.07768171695818"><ele>23.0</ele><time>2026-04-23T07:11:24.999Z</time></trkpt><trkpt lat="-20.34713623298004" lon="119.07800059945161"><ele>23.5</ele><time>2026-04-23T07:11:25.999Z</time></trkpt><trkpt lat="-20.34716085809566" lon="119.0783205678773"><ele>24.0</ele><time>2026-04-23T07:11:26.999Z</time></trkpt><trkpt lat="-20.347185363738344" lon="119.07864114409975"><ele>24.0</ele><time>2026-04-23T07:11:27.999Z</time></trkpt><trkpt lat="-20.347209128251492" lon="119.07896403436749"><ele>24.0</ele><time>2026-04-23T07:11:28.999Z</time></trkpt><trkpt lat="-20.347234426980954" lon="119.07928925361813"><ele>23.5</ele><time>2026-04-23T07:11:29.999Z</time></trkpt><trkpt lat="-20.347260189968004" lon="119.07961164911089"><ele>23.0</ele><time>2026-04-23T07:11:30.999Z</time></trkpt><trkpt lat="-20.34728348399772" lon="119.07992972567205"><ele>23.0</ele><time>2026-04-23T07:11:31.999Z</time></trkpt><trkpt lat="-20.347309192570453" lon="119.08024848348745"><ele>23.0</ele><time>2026-04-23T07:11:32.999Z</time></trkpt><trkpt lat="-20.34733384611179" lon="119.0805638815272"><ele>23.5</ele><time>2026-04-23T07:11:33.999Z</time></trkpt><trkpt lat="-20.347360986989933" lon="119.08087856198283"><ele>24.0</ele><time>2026-04-23T07:11:34.999Z</time></trkpt><trkpt lat="-20.347388846599436" lon="119.08119089172325"><ele>24.0</ele><time>2026-04-23T07:11:35.999Z</time></trkpt><trkpt lat="-20.34741262078023" lon="119.08150131808804"><ele>24.0</ele><time>2026-04-23T07:11:36.999Z</time></trkpt><trkpt lat="-20.347437147043408" lon="119.08181380852908"><ele>24.0</ele><time>2026-04-23T07:11:37.999Z</time></trkpt><trkpt lat="-20.347459398527192" lon="119.08212550898455"><ele>24.0</ele><time>2026-04-23T07:11:38.999Z</time></trkpt><trkpt lat="-20.347481936037063" lon="119.08243659573665"><ele>23.5</ele><time>2026-04-23T07:11:39.999Z</time></trkpt><trkpt lat="-20.347504950412393" lon="119.08274679653447"><ele>23.0</ele><time>2026-04-23T07:11:40.999Z</time></trkpt><trkpt lat="-20.3475293239253" lon="119.08305347355913"><ele>22.0</ele><time>2026-04-23T07:11:41.999Z</time></trkpt><trkpt lat="-20.347554425059943" lon="119.0833609184642"><ele>21.0</ele><time>2026-04-23T07:11:42.999Z</time></trkpt><trkpt lat="-20.34757806258748" lon="119.08366905152745"><ele>21.0</ele><time>2026-04-23T07:11:43.999Z</time></trkpt><trkpt lat="-20.34760041674243" lon="119.08397689708994"><ele>21.0</ele><time>2026-04-23T07:11:44.999Z</time></trkpt><trkpt lat="-20.347622698157018" lon="119.0842895519794"><ele>22.0</ele><time>2026-04-23T07:11:45.999Z</time></trkpt><trkpt lat="-20.347645545098132" lon="119.08460180082753"><ele>23.0</ele><time>2026-04-23T07:11:46.999Z</time></trkpt><trkpt lat="-20.34767107179049" lon="119.08491112327273"><ele>22.5</ele><time>2026-04-23T07:11:47.999Z</time></trkpt><trkpt lat="-20.347696602663937" lon="119.08522292878918"><ele>22.0</ele><time>2026-04-23T07:11:48.999Z</time></trkpt><trkpt lat="-20.347721981852057" lon="119.08553277004546"><ele>23.0</ele><time>2026-04-23T07:11:49.999Z</time></trkpt><trkpt lat="-20.347746087846176" lon="119.085843250433"><ele>24.0</ele><time>2026-04-23T07:11:50.999Z</time></trkpt><trkpt lat="-20.347769492343573" lon="119.08615548786914"><ele>24.0</ele><time>2026-04-23T07:11:51.999Z</time></trkpt><trkpt lat="-20.347790784819832" lon="119.08646629146826"><ele>24.0</ele><time>2026-04-23T07:11:52.999Z</time></trkpt><trkpt lat="-20.34781543585146" lon="119.08678061900521"><ele>24.5</ele><time>2026-04-23T07:11:53.999Z</time></trkpt><trkpt lat="-20.347839820148724" lon="119.0870898120684"><ele>25.0</ele><time>2026-04-23T07:11:54.999Z</time></trkpt><trkpt lat="-20.347864168282584" lon="119.08740481127462"><ele>24.5</ele><time>2026-04-23T07:11:55.999Z</time></trkpt><trkpt lat="-20.347889693009027" lon="119.08772428567704"><ele>24.0</ele><time>2026-04-23T07:11:56.999Z</time></trkpt><trkpt lat="-20.34791484848392" lon="119.08803619656425"><ele>22.5</ele><time>2026-04-23T07:11:57.999Z</time></trkpt><trkpt lat="-20.347942003995538" lon="119.08834913859589"><ele>21.0</ele><time>2026-04-23T07:11:58.999Z</time></trkpt><trkpt lat="-20.347967904819672" lon="119.0886624049067"><ele>21.0</ele><time>2026-04-23T07:11:59.999Z</time></trkpt><trkpt lat="-20.347991135292798" lon="119.08897283551512"><ele>21.0</ele><time>2026-04-23T07:12:00.999Z</time></trkpt><trkpt lat="-20.34801527140961" lon="119.08928668809675"><ele>21.0</ele><time>2026-04-23T07:12:01.999Z</time></trkpt><trkpt lat="-20.348039483626685" lon="119.0895951890478"><ele>21.0</ele><time>2026-04-23T07:12:02.999Z</time></trkpt><trkpt lat="-20.348063292899578" lon="119.08990681865166"><ele>21.0</ele><time>2026-04-23T07:12:03.999Z</time></trkpt><trkpt lat="-20.348086526007066" lon="119.090216039863"><ele>21.0</ele><time>2026-04-23T07:12:04.999Z</time></trkpt><trkpt lat="-20.34811005694779" lon="119.09052481943515"><ele>21.5</ele><time>2026-04-23T07:12:05.999Z</time></trkpt><trkpt lat="-20.348134564437004" lon="119.09083445406233"><ele>22.0</ele><time>2026-04-23T07:12:07Z</time></trkpt><trkpt lat="-20.348158650027425" lon="119.0911448230948"><ele>22.0</ele><time>2026-04-23T07:12:08Z</time></trkpt><trkpt lat="-20.348183909093294" lon="119.09146150028683"><ele>22.0</ele><time>2026-04-23T07:12:09Z</time></trkpt><trkpt lat="-20.34820914949125" lon="119.09177597944735"><ele>22.5</ele><time>2026-04-23T07:12:10Z</time></trkpt><trkpt lat="-20.348235307885673" lon="119.09209277366982"><ele>23.0</ele><time>2026-04-23T07:12:11Z</time></trkpt><trkpt lat="-20.34825914977041" lon="119.09241076879465"><ele>22.5</ele><time>2026-04-23T07:12:12Z</time></trkpt><trkpt lat="-20.348282061993626" lon="119.09272479839852"><ele>22.0</ele><time>2026-04-23T07:12:13Z</time></trkpt><trkpt lat="-20.348302688195933" lon="119.09303594819075"><ele>23.5</ele><time>2026-04-23T07:12:14Z</time></trkpt><trkpt lat="-20.34832332558448" lon="119.09334385105728"><ele>25.0</ele><time>2026-04-23T07:12:15Z</time></trkpt><trkpt lat="-20.348347481753994" lon="119.0936498964614"><ele>25.0</ele><time>2026-04-23T07:12:16Z</time></trkpt><trkpt lat="-20.348372812673173" lon="119.0939541978798"><ele>25.0</ele><time>2026-04-23T07:12:17Z</time></trkpt><trkpt lat="-20.348399808289038" lon="119.09425541378891"><ele>24.0</ele><time>2026-04-23T07:12:18Z</time></trkpt><trkpt lat="-20.348426046746535" lon="119.09455703564035"><ele>23.0</ele><time>2026-04-23T07:12:19Z</time></trkpt><trkpt lat="-20.348450035237697" lon="119.09485785501276"><ele>22.5</ele><time>2026-04-23T07:12:20.001Z</time></trkpt><trkpt lat="-20.348472701073113" lon="119.09515855288355"><ele>22.0</ele><time>2026-04-23T07:12:21.001Z</time></trkpt><trkpt lat="-20.348495008497753" lon="119.09545929909967"><ele>22.5</ele><time>2026-04-23T07:12:22.001Z</time></trkpt><trkpt lat="-20.34851710358164" lon="119.09576321312962"><ele>23.0</ele><time>2026-04-23T07:12:23.001Z</time></trkpt><trkpt lat="-20.348538177244787" lon="119.0960639585501"><ele>23.0</ele><time>2026-04-23T07:12:24.001Z</time></trkpt><trkpt lat="-20.348561201186556" lon="119.0963637636026"><ele>23.0</ele><time>2026-04-23T07:12:25.001Z</time></trkpt><trkpt lat="-20.34858623643121" lon="119.09666128968642"><ele>22.5</ele><time>2026-04-23T07:12:26.001Z</time></trkpt><trkpt lat="-20.3486116421992" lon="119.09695818300436"><ele>22.0</ele><time>2026-04-23T07:12:27.001Z</time></trkpt><trkpt lat="-20.348610744032463" lon="119.09725649409191"><ele>22.5</ele><time>2026-04-23T07:12:28.001Z</time></trkpt><trkpt lat="-20.348618189544872" lon="119.09755698511825"><ele>23.0</ele><time>2026-04-23T07:12:28.999Z</time></trkpt><trkpt lat="-20.348611928179427" lon="119.09785795690038"><ele>23.0</ele><time>2026-04-23T07:12:29.999Z</time></trkpt><trkpt lat="-20.348594634606496" lon="119.09815937681475"><ele>23.0</ele><time>2026-04-23T07:12:30.999Z</time></trkpt><trkpt lat="-20.348571483861406" lon="119.09847033324529"><ele>23.5</ele><time>2026-04-23T07:12:31.999Z</time></trkpt><trkpt lat="-20.34853428351248" lon="119.09877709192261"><ele>24.0</ele><time>2026-04-23T07:12:32.999Z</time></trkpt><trkpt lat="-20.348488190257946" lon="119.09908244751672"><ele>23.5</ele><time>2026-04-23T07:12:33.999Z</time></trkpt><trkpt lat="-20.348430638186496" lon="119.09938012723626"><ele>23.0</ele><time>2026-04-23T07:12:34.999Z</time></trkpt><trkpt lat="-20.34836442458863" lon="119.09967701572997"><ele>24.0</ele><time>2026-04-23T07:12:35.999Z</time></trkpt><trkpt lat="-20.348297000314027" lon="119.09998040462472"><ele>25.0</ele><time>2026-04-23T07:12:36.999Z</time></trkpt><trkpt lat="-20.348240506384577" lon="119.10028735702964"><ele>25.0</ele><time>2026-04-23T07:12:37.999Z</time></trkpt><trkpt lat="-20.348171888307885" lon="119.10058360117591"><ele>25.0</ele><time>2026-04-23T07:12:38.999Z</time></trkpt><trkpt lat="-20.348105744082908" lon="119.10088253326218"><ele>23.5</ele><time>2026-04-23T07:12:40Z</time></trkpt><trkpt lat="-20.34803998973868" lon="119.10117646446675"><ele>22.0</ele><time>2026-04-23T07:12:41Z</time></trkpt><trkpt lat="-20.34797521751038" lon="119.1014693824084"><ele>22.5</ele><time>2026-04-23T07:12:42Z</time></trkpt><trkpt lat="-20.34789383517514" lon="119.10176101754737"><ele>23.0</ele><time>2026-04-23T07:12:43Z</time></trkpt><trkpt lat="-20.347824950193075" lon="119.10205970962215"><ele>23.0</ele><time>2026-04-23T07:12:44Z</time></trkpt><trkpt lat="-20.34775587984766" lon="119.1023592051863"><ele>23.0</ele><time>2026-04-23T07:12:45Z</time></trkpt><trkpt lat="-20.34770219435082" lon="119.10266332345019"><ele>23.0</ele><time>2026-04-23T07:12:46Z</time></trkpt><trkpt lat="-20.347629395564965" lon="119.10296417880149"><ele>23.0</ele><time>2026-04-23T07:12:47Z</time></trkpt><trkpt lat="-20.347559795519114" lon="119.10326574755068"><ele>23.0</ele><time>2026-04-23T07:12:48Z</time></trkpt><trkpt lat="-20.34749048040702" lon="119.10356739558625"><ele>23.0</ele><time>2026-04-23T07:12:49Z</time></trkpt><trkpt lat="-20.34742204300297" lon="119.10387161162022"><ele>23.0</ele><time>2026-04-23T07:12:50Z</time></trkpt><trkpt lat="-20.347353949124194" lon="119.1041769793284"><ele>23.0</ele><time>2026-04-23T07:12:51Z</time></trkpt><trkpt lat="-20.34728659935615" lon="119.10447786501058"><ele>23.0</ele><time>2026-04-23T07:12:52Z</time></trkpt><trkpt lat="-20.347219325551205" lon="119.1047788370242"><ele>23.0</ele><time>2026-04-23T07:12:53Z</time></trkpt><trkpt lat="-20.347152232731506" lon="119.10507932488481"><ele>23.0</ele><time>2026-04-23T07:12:54Z</time></trkpt><trkpt lat="-20.347085578930624" lon="119.10538082736082"><ele>23.0</ele><time>2026-04-23T07:12:55Z</time></trkpt><trkpt lat="-20.347019789163845" lon="119.10567723084067"><ele>23.0</ele><time>2026-04-23T07:12:56Z</time></trkpt><trkpt lat="-20.346953306822048" lon="119.10597298266417"><ele>23.0</ele><time>2026-04-23T07:12:57Z</time></trkpt><trkpt lat="-20.346886111429612" lon="119.10626667722387"><ele>23.0</ele><time>2026-04-23T07:12:58Z</time></trkpt><trkpt lat="-20.346817088903812" lon="119.10656164282031"><ele>23.0</ele><time>2026-04-23T07:12:59Z</time></trkpt><trkpt lat="-20.346747631627405" lon="119.10685356928389"><ele>23.0</ele><time>2026-04-23T07:13:00Z</time></trkpt><trkpt lat="-20.34667896117097" lon="119.10714777007006"><ele>23.0</ele><time>2026-04-23T07:13:01Z</time></trkpt><trkpt lat="-20.346611698727344" lon="119.10744095956461"><ele>24.0</ele><time>2026-04-23T07:13:02Z</time></trkpt><trkpt lat="-20.346544498140045" lon="119.10773477815661"><ele>25.0</ele><time>2026-04-23T07:13:03Z</time></trkpt><trkpt lat="-20.346478292241986" lon="119.10803013792584"><ele>25.0</ele><time>2026-04-23T07:13:04Z</time></trkpt><trkpt lat="-20.34641215036732" lon="119.10832703236453"><ele>25.0</ele><time>2026-04-23T07:13:05Z</time></trkpt><trkpt lat="-20.346342563239613" lon="119.10862678606347"><ele>24.0</ele><time>2026-04-23T07:13:06Z</time></trkpt><trkpt lat="-20.34627066699575" lon="119.1089294142898"><ele>23.0</ele><time>2026-04-23T07:13:07Z</time></trkpt><trkpt lat="-20.34620135069278" lon="119.1092265392452"><ele>23.0</ele><time>2026-04-23T07:13:08Z</time></trkpt><trkpt lat="-20.34613815541159" lon="119.10950746052593"><ele>23.0</ele><time>2026-04-23T07:13:09Z</time></trkpt><trkpt lat="-20.346079045914227" lon="119.10978342423788"><ele>24.0</ele><time>2026-04-23T07:13:10Z</time></trkpt><trkpt lat="-20.346021161561975" lon="119.11006759891761"><ele>25.0</ele><time>2026-04-23T07:13:11Z</time></trkpt><trkpt lat="-20.34595779697281" lon="119.11035731184144"><ele>25.0</ele><time>2026-04-23T07:13:12Z</time></trkpt><trkpt lat="-20.345892945396216" lon="119.11064350828737"><ele>25.0</ele><time>2026-04-23T07:13:13Z</time></trkpt><trkpt lat="-20.345824543277253" lon="119.11093046735624"><ele>24.5</ele><time>2026-04-23T07:13:14.001Z</time></trkpt><trkpt lat="-20.34575443337722" lon="119.11121620959086"><ele>24.0</ele><time>2026-04-23T07:13:15.001Z</time></trkpt><trkpt lat="-20.345684763465876" lon="119.11150830943258"><ele>24.0</ele><time>2026-04-23T07:13:16.001Z</time></trkpt><trkpt lat="-20.3456157200169" lon="119.111806466856"><ele>24.0</ele><time>2026-04-23T07:13:17.001Z</time></trkpt><trkpt lat="-20.34555086797601" lon="119.11210399002275"><ele>23.5</ele><time>2026-04-23T07:13:18.001Z</time></trkpt><trkpt lat="-20.34548690232045" lon="119.11240652553865"><ele>23.0</ele><time>2026-04-23T07:13:19.001Z</time></trkpt><trkpt lat="-20.34542310068025" lon="119.1127062386084"><ele>23.0</ele><time>2026-04-23T07:13:20.001Z</time></trkpt><trkpt lat="-20.345357614166026" lon="119.11300637160899"><ele>23.0</ele><time>2026-04-23T07:13:21.001Z</time></trkpt><trkpt lat="-20.34529299074066" lon="119.11330693201286"><ele>23.5</ele><time>2026-04-23T07:13:22.001Z</time></trkpt><trkpt lat="-20.345226397550597" lon="119.11360830956231"><ele>24.0</ele><time>2026-04-23T07:13:23.001Z</time></trkpt><trkpt lat="-20.34515827899086" lon="119.11390642456007"><ele>25.0</ele><time>2026-04-23T07:13:24.001Z</time></trkpt><trkpt lat="-20.345087963477592" lon="119.11420707880897"><ele>26.0</ele><time>2026-04-23T07:13:25.001Z</time></trkpt><trkpt lat="-20.34501653672448" lon="119.11450808853743"><ele>26.0</ele><time>2026-04-23T07:13:26.001Z</time></trkpt><trkpt lat="-20.34494578607186" lon="119.11481340858145"><ele>26.0</ele><time>2026-04-23T07:13:27.001Z</time></trkpt><trkpt lat="-20.344874036427644" lon="119.11512313506795"><ele>24.5</ele><time>2026-04-23T07:13:28.001Z</time></trkpt><trkpt lat="-20.344803172917686" lon="119.11542986754434"><ele>23.0</ele><time>2026-04-23T07:13:29.001Z</time></trkpt><trkpt lat="-20.344730590958747" lon="119.11575101737645"><ele>23.0</ele><time>2026-04-23T07:13:30.001Z</time></trkpt><trkpt lat="-20.344660086717766" lon="119.116075853868"><ele>23.0</ele><time>2026-04-23T07:13:31.001Z</time></trkpt><trkpt lat="-20.34459179024702" lon="119.11639472477763"><ele>22.5</ele><time>2026-04-23T07:13:32.001Z</time></trkpt><trkpt lat="-20.344523528965837" lon="119.11670848804368"><ele>22.0</ele><time>2026-04-23T07:13:33.001Z</time></trkpt><trkpt lat="-20.344453449318145" lon="119.11702179036284"><ele>22.0</ele><time>2026-04-23T07:13:34.001Z</time></trkpt><trkpt lat="-20.34438199430098" lon="119.11733484064897"><ele>22.0</ele><time>2026-04-23T07:13:35.001Z</time></trkpt><trkpt lat="-20.34431159855286" lon="119.1176432810682"><ele>22.5</ele><time>2026-04-23T07:13:36.001Z</time></trkpt><trkpt lat="-20.34424142791068" lon="119.11795077807332"><ele>23.0</ele><time>2026-04-23T07:13:37.001Z</time></trkpt><trkpt lat="-20.344169965174288" lon="119.1182572322173"><ele>22.0</ele><time>2026-04-23T07:13:38.001Z</time></trkpt><trkpt lat="-20.344101446133937" lon="119.11855585699244"><ele>21.0</ele><time>2026-04-23T07:13:39.001Z</time></trkpt><trkpt lat="-20.34403118337874" lon="119.11885444994392"><ele>21.0</ele><time>2026-04-23T07:13:40.001Z</time></trkpt><trkpt lat="-20.343962218120666" lon="119.11914950463316"><ele>21.0</ele><time>2026-04-23T07:13:41.001Z</time></trkpt><trkpt lat="-20.34389207862079" lon="119.11944436047649"><ele>21.0</ele><time>2026-04-23T07:13:42.001Z</time></trkpt><trkpt lat="-20.343826115322333" lon="119.11973845513133"><ele>21.0</ele><time>2026-04-23T07:13:43.001Z</time></trkpt><trkpt lat="-20.34376148747231" lon="119.12003104576873"><ele>21.0</ele><time>2026-04-23T07:13:44.001Z</time></trkpt><trkpt lat="-20.34369418067032" lon="119.12032554971438"><ele>21.0</ele><time>2026-04-23T07:13:45.001Z</time></trkpt><trkpt lat="-20.343628750777164" lon="119.1206154447493"><ele>23.0</ele><time>2026-04-23T07:13:46.001Z</time></trkpt><trkpt lat="-20.343562964256364" lon="119.1209019864017"><ele>25.0</ele><time>2026-04-23T07:13:47.001Z</time></trkpt><trkpt lat="-20.343500111167682" lon="119.12118997920633"><ele>25.0</ele><time>2026-04-23T07:13:48.001Z</time></trkpt><trkpt lat="-20.34343677513277" lon="119.1214797990968"><ele>25.0</ele><time>2026-04-23T07:13:49.001Z</time></trkpt><trkpt lat="-20.343378499008455" lon="119.12176418109384"><ele>25.5</ele><time>2026-04-23T07:13:50.001Z</time></trkpt><trkpt lat="-20.34332035218129" lon="119.1220542135812"><ele>26.0</ele><time>2026-04-23T07:13:51.001Z</time></trkpt><trkpt lat="-20.343268424122698" lon="119.12234235304932"><ele>26.0</ele><time>2026-04-23T07:13:52.001Z</time></trkpt><trkpt lat="-20.343227830516383" lon="119.12263594094752"><ele>26.0</ele><time>2026-04-23T07:13:53.001Z</time></trkpt><trkpt lat="-20.34320229054914" lon="119.12293016395073"><ele>26.0</ele><time>2026-04-23T07:13:54.001Z</time></trkpt><trkpt lat="-20.34318756767083" lon="119.12322864832146"><ele>26.0</ele><time>2026-04-23T07:13:55.001Z</time></trkpt><trkpt lat="-20.343180900285336" lon="119.12352994965308"><ele>27.0</ele><time>2026-04-23T07:13:56.001Z</time></trkpt><trkpt lat="-20.343180197174355" lon="119.1238372805952"><ele>28.0</ele><time>2026-04-23T07:13:57.001Z</time></trkpt><trkpt lat="-20.343184031315843" lon="119.12415126813386"><ele>28.5</ele><time>2026-04-23T07:13:58.001Z</time></trkpt><trkpt lat="-20.343190281950413" lon="119.12446499004199"><ele>29.0</ele><time>2026-04-23T07:13:59.001Z</time></trkpt><trkpt lat="-20.343176870306547" lon="119.12478220563199"><ele>29.5</ele><time>2026-04-23T07:14:00.001Z</time></trkpt><trkpt lat="-20.343180281917412" lon="119.12510064527348"><ele>30.0</ele><time>2026-04-23T07:14:01.001Z</time></trkpt><trkpt lat="-20.34320003746128" lon="119.12542349697843"><ele>30.5</ele><time>2026-04-23T07:14:02.001Z</time></trkpt><trkpt lat="-20.343202239915204" lon="119.12574946893972"><ele>31.0</ele><time>2026-04-23T07:14:03.001Z</time></trkpt><trkpt lat="-20.343204571965945" lon="119.12607541893892"><ele>31.0</ele><time>2026-04-23T07:14:04.001Z</time></trkpt><trkpt lat="-20.343205709955036" lon="119.12640522808738"><ele>31.0</ele><time>2026-04-23T07:14:05.001Z</time></trkpt><trkpt lat="-20.34320801576155" lon="119.12673455356494"><ele>31.0</ele><time>2026-04-23T07:14:06.001Z</time></trkpt><trkpt lat="-20.34321153365645" lon="119.12706468160177"><ele>31.0</ele><time>2026-04-23T07:14:07.001Z</time></trkpt><trkpt lat="-20.343216464287234" lon="119.12739582862918"><ele>30.5</ele><time>2026-04-23T07:14:08.001Z</time></trkpt><trkpt lat="-20.343222241105643" lon="119.1277254306594"><ele>30.0</ele><time>2026-04-23T07:14:09.001Z</time></trkpt><trkpt lat="-20.343211249214146" lon="119.12805357259334"><ele>31.0</ele><time>2026-04-23T07:14:10.001Z</time></trkpt><trkpt lat="-20.343214793707425" lon="119.12837999667228"><ele>32.0</ele><time>2026-04-23T07:14:11.001Z</time></trkpt><trkpt lat="-20.343218215585708" lon="119.12870739154043"><ele>32.0</ele><time>2026-04-23T07:14:12.001Z</time></trkpt><trkpt lat="-20.343237739129574" lon="119.12903506117527"><ele>32.0</ele><time>2026-04-23T07:14:13.001Z</time></trkpt><trkpt lat="-20.34323746317449" lon="119.12936464725499"><ele>32.5</ele><time>2026-04-23T07:14:14.001Z</time></trkpt><trkpt lat="-20.34323952959086" lon="119.1296911442314"><ele>33.0</ele><time>2026-04-23T07:14:15.001Z</time></trkpt><trkpt lat="-20.343241519483005" lon="119.130023130831"><ele>33.5</ele><time>2026-04-23T07:14:16.001Z</time></trkpt><trkpt lat="-20.34324305775983" lon="119.13035377770896"><ele>34.0</ele><time>2026-04-23T07:14:17.001Z</time></trkpt><trkpt lat="-20.34324535635613" lon="119.1306895402456"><ele>33.5</ele><time>2026-04-23T07:14:18.001Z</time></trkpt><trkpt lat="-20.34324858230009" lon="119.13102575238975"><ele>33.0</ele><time>2026-04-23T07:14:19.001Z</time></trkpt><trkpt lat="-20.34325390415862" lon="119.13136490738943"><ele>32.0</ele><time>2026-04-23T07:14:20.001Z</time></trkpt><trkpt lat="-20.343260287764004" lon="119.13170283895242"><ele>31.0</ele><time>2026-04-23T07:14:21.001Z</time></trkpt><trkpt lat="-20.343266308552057" lon="119.13203841250694"><ele>31.0</ele><time>2026-04-23T07:14:22.001Z</time></trkpt><trkpt lat="-20.343270847078777" lon="119.13237161452238"><ele>31.0</ele><time>2026-04-23T07:14:23.001Z</time></trkpt><trkpt lat="-20.343274988353436" lon="119.13270565489746"><ele>31.0</ele><time>2026-04-23T07:14:24.001Z</time></trkpt><trkpt lat="-20.34327975746266" lon="119.13303839133792"><ele>31.0</ele><time>2026-04-23T07:14:25.001Z</time></trkpt><trkpt lat="-20.343283863913722" lon="119.13336784637741"><ele>31.0</ele><time>2026-04-23T07:14:26.002Z</time></trkpt><trkpt lat="-20.343286355695117" lon="119.13369487029775"><ele>31.0</ele><time>2026-04-23T07:14:27.002Z</time></trkpt><trkpt lat="-20.34328936247864" lon="119.13401862384883"><ele>31.5</ele><time>2026-04-23T07:14:28.002Z</time></trkpt><trkpt lat="-20.343290984183113" lon="119.13434267833732"><ele>32.0</ele><time>2026-04-23T07:14:29.002Z</time></trkpt><trkpt lat="-20.34329268340419" lon="119.13466840322137"><ele>33.0</ele><time>2026-04-23T07:14:30.002Z</time></trkpt><trkpt lat="-20.34329697403881" lon="119.13499352777839"><ele>34.0</ele><time>2026-04-23T07:14:31.002Z</time></trkpt><trkpt lat="-20.343303041633334" lon="119.13532219816048"><ele>34.0</ele><time>2026-04-23T07:14:32.002Z</time></trkpt><trkpt lat="-20.343284525388583" lon="119.13565094126909"><ele>34.0</ele><time>2026-04-23T07:14:33.002Z</time></trkpt><trkpt lat="-20.343280783674427" lon="119.13598021088033"><ele>33.5</ele><time>2026-04-23T07:14:34.002Z</time></trkpt><trkpt lat="-20.343277385545242" lon="119.1363049962667"><ele>33.0</ele><time>2026-04-23T07:14:35Z</time></trkpt><trkpt lat="-20.343239981728424" lon="119.13663341234465"><ele>33.0</ele><time>2026-04-23T07:14:36Z</time></trkpt><trkpt lat="-20.343191176373004" lon="119.13696529290299"><ele>33.0</ele><time>2026-04-23T07:14:37Z</time></trkpt><trkpt lat="-20.34313261710554" lon="119.13729624626735"><ele>34.5</ele><time>2026-04-23T07:14:38Z</time></trkpt><trkpt lat="-20.343070847950774" lon="119.13762608297583"><ele>36.0</ele><time>2026-04-23T07:14:39Z</time></trkpt><trkpt lat="-20.343008529902715" lon="119.13795147729027"><ele>36.0</ele><time>2026-04-23T07:14:40Z</time></trkpt><trkpt lat="-20.3429489227714" lon="119.13827423569354"><ele>36.0</ele><time>2026-04-23T07:14:41Z</time></trkpt><trkpt lat="-20.342892002709636" lon="119.13859728989236"><ele>36.0</ele><time>2026-04-23T07:14:42Z</time></trkpt><trkpt lat="-20.342834874210112" lon="119.13892320945857"><ele>36.0</ele><time>2026-04-23T07:14:43Z</time></trkpt><trkpt lat="-20.34277881893102" lon="119.13924661590475"><ele>35.5</ele><time>2026-04-23T07:14:44Z</time></trkpt><trkpt lat="-20.342721929436678" lon="119.13957321223265"><ele>35.0</ele><time>2026-04-23T07:14:45Z</time></trkpt><trkpt lat="-20.34266453046815" lon="119.13989815363097"><ele>34.5</ele><time>2026-04-23T07:14:46Z</time></trkpt><trkpt lat="-20.342605832362878" lon="119.14022184907867"><ele>34.0</ele><time>2026-04-23T07:14:47Z</time></trkpt><trkpt lat="-20.342546015924626" lon="119.1405444579076"><ele>35.0</ele><time>2026-04-23T07:14:48Z</time></trkpt><trkpt lat="-20.342488298741213" lon="119.1408678998158"><ele>36.0</ele><time>2026-04-23T07:14:49Z</time></trkpt><trkpt lat="-20.34243008039477" lon="119.14119282324877"><ele>36.0</ele><time>2026-04-23T07:14:50Z</time></trkpt><trkpt lat="-20.342372812966314" lon="119.14151461631063"><ele>36.0</ele><time>2026-04-23T07:14:51Z</time></trkpt><trkpt lat="-20.342313819905993" lon="119.14183552711394"><ele>35.5</ele><time>2026-04-23T07:14:52Z</time></trkpt><trkpt lat="-20.342254719911185" lon="119.14215667087647"><ele>35.0</ele><time>2026-04-23T07:14:53Z</time></trkpt><trkpt lat="-20.3421959837306" lon="119.14247911283071"><ele>35.0</ele><time>2026-04-23T07:14:54Z</time></trkpt><trkpt lat="-20.342137078188856" lon="119.14280564813933"><ele>35.0</ele><time>2026-04-23T07:14:55Z</time></trkpt><trkpt lat="-20.342079512200808" lon="119.14313178278263"><ele>35.0</ele><time>2026-04-23T07:14:56Z</time></trkpt><trkpt lat="-20.342022410563516" lon="119.14345495900383"><ele>35.0</ele><time>2026-04-23T07:14:57Z</time></trkpt><trkpt lat="-20.34196465920483" lon="119.14377622759591"><ele>35.0</ele><time>2026-04-23T07:14:58Z</time></trkpt><trkpt lat="-20.341907232058702" lon="119.14409898297993"><ele>35.0</ele><time>2026-04-23T07:14:59Z</time></trkpt><trkpt lat="-20.34184973673987" lon="119.1444192634207"><ele>35.0</ele><time>2026-04-23T07:15:00Z</time></trkpt><trkpt lat="-20.341792677489398" lon="119.14474559709396"><ele>35.0</ele><time>2026-04-23T07:15:01Z</time></trkpt><trkpt lat="-20.34173397209229" lon="119.1450693650138"><ele>35.0</ele><time>2026-04-23T07:15:02Z</time></trkpt><trkpt lat="-20.341675945713114" lon="119.14539332090293"><ele>35.0</ele><time>2026-04-23T07:15:03Z</time></trkpt><trkpt lat="-20.341617096171042" lon="119.1457185578918"><ele>35.0</ele><time>2026-04-23T07:15:04Z</time></trkpt><trkpt lat="-20.341558899103106" lon="119.14604389985317"><ele>35.0</ele><time>2026-04-23T07:15:05Z</time></trkpt><trkpt lat="-20.341502986641217" lon="119.14636568826633"><ele>35.0</ele><time>2026-04-23T07:15:06Z</time></trkpt><trkpt lat="-20.341445704345542" lon="119.1466801265118"><ele>35.0</ele><time>2026-04-23T07:15:07Z</time></trkpt><trkpt lat="-20.341387900903236" lon="119.14699321795851"><ele>35.5</ele><time>2026-04-23T07:15:08Z</time></trkpt><trkpt lat="-20.341330785939068" lon="119.14730027755587"><ele>36.0</ele><time>2026-04-23T07:15:09Z</time></trkpt><trkpt lat="-20.341274523578605" lon="119.14760421917578"><ele>36.0</ele><time>2026-04-23T07:15:10Z</time></trkpt><trkpt lat="-20.341221269271056" lon="119.14790466803852"><ele>36.0</ele><time>2026-04-23T07:15:11Z</time></trkpt><trkpt lat="-20.34117010590076" lon="119.14820342459299"><ele>37.0</ele><time>2026-04-23T07:15:12Z</time></trkpt><trkpt lat="-20.341118555794264" lon="119.14849717218213"><ele>38.0</ele><time>2026-04-23T07:15:13Z</time></trkpt><trkpt lat="-20.3410677944288" lon="119.14878879782327"><ele>38.0</ele><time>2026-04-23T07:15:14Z</time></trkpt><trkpt lat="-20.34101784503287" lon="119.14908007442432"><ele>38.0</ele><time>2026-04-23T07:15:15Z</time></trkpt><trkpt lat="-20.340965589921236" lon="119.1493703707283"><ele>38.0</ele><time>2026-04-23T07:15:16Z</time></trkpt><trkpt lat="-20.340912935690028" lon="119.1496652994626"><ele>38.0</ele><time>2026-04-23T07:15:17Z</time></trkpt><trkpt lat="-20.340859898032566" lon="119.14996131515925"><ele>37.5</ele><time>2026-04-23T07:15:18Z</time></trkpt><trkpt lat="-20.340806330779124" lon="119.15025976097628"><ele>37.0</ele><time>2026-04-23T07:15:19.001Z</time></trkpt><trkpt lat="-20.340752025710795" lon="119.15056128224774"><ele>36.5</ele><time>2026-04-23T07:15:20.001Z</time></trkpt><trkpt lat="-20.340698066726187" lon="119.15086265012246"><ele>36.0</ele><time>2026-04-23T07:15:21.001Z</time></trkpt><trkpt lat="-20.34064367259937" lon="119.15116773271957"><ele>36.0</ele><time>2026-04-23T07:15:22.001Z</time></trkpt><trkpt lat="-20.340590522578452" lon="119.15147158917263"><ele>36.0</ele><time>2026-04-23T07:15:23.001Z</time></trkpt><trkpt lat="-20.34053754646947" lon="119.15177140784189"><ele>36.5</ele><time>2026-04-23T07:15:24.001Z</time></trkpt><trkpt lat="-20.340483061293806" lon="119.15207136365224"><ele>37.0</ele><time>2026-04-23T07:15:25.001Z</time></trkpt><trkpt lat="-20.340428085615734" lon="119.15236567207879"><ele>37.5</ele><time>2026-04-23T07:15:26.001Z</time></trkpt><trkpt lat="-20.34037363658931" lon="119.15265623878206"><ele>38.0</ele><time>2026-04-23T07:15:27.001Z</time></trkpt><trkpt lat="-20.340324007635818" lon="119.15294318795596"><ele>37.5</ele><time>2026-04-23T07:15:28.001Z</time></trkpt><trkpt lat="-20.340278979756956" lon="119.15322608586169"><ele>37.0</ele><time>2026-04-23T07:15:29.001Z</time></trkpt><trkpt lat="-20.340231121391216" lon="119.15351258429473"><ele>37.0</ele><time>2026-04-23T07:15:30.001Z</time></trkpt><trkpt lat="-20.34017931574154" lon="119.15379113995857"><ele>37.0</ele><time>2026-04-23T07:15:31.001Z</time></trkpt><trkpt lat="-20.34012527478098" lon="119.15406830845947"><ele>37.0</ele><time>2026-04-23T07:15:32.001Z</time></trkpt><trkpt lat="-20.340069737787147" lon="119.15434951170518"><ele>37.0</ele><time>2026-04-23T07:15:33.001Z</time></trkpt><trkpt lat="-20.340019096638486" lon="119.1546329172658"><ele>36.0</ele><time>2026-04-23T07:15:34.001Z</time></trkpt><trkpt lat="-20.339968968136276" lon="119.15491845759603"><ele>35.0</ele><time>2026-04-23T07:15:35.001Z</time></trkpt><trkpt lat="-20.339917189695974" lon="119.15520185160491"><ele>35.0</ele><time>2026-04-23T07:15:36.001Z</time></trkpt><trkpt lat="-20.33986512926722" lon="119.15548992529996"><ele>35.0</ele><time>2026-04-23T07:15:37.001Z</time></trkpt><trkpt lat="-20.339813907881084" lon="119.15577729678343"><ele>35.5</ele><time>2026-04-23T07:15:38.001Z</time></trkpt><trkpt lat="-20.339761885247626" lon="119.15606969288928"><ele>36.0</ele><time>2026-04-23T07:15:39.001Z</time></trkpt><trkpt lat="-20.339711299858024" lon="119.15636341914765"><ele>37.0</ele><time>2026-04-23T07:15:40.001Z</time></trkpt><trkpt lat="-20.33966028211993" lon="119.15666287028817"><ele>38.0</ele><time>2026-04-23T07:15:41.001Z</time></trkpt><trkpt lat="-20.339609047884284" lon="119.15695982313649"><ele>38.0</ele><time>2026-04-23T07:15:42.001Z</time></trkpt><trkpt lat="-20.33955693765312" lon="119.15726217559471"><ele>38.0</ele><time>2026-04-23T07:15:43.001Z</time></trkpt><trkpt lat="-20.33950214602449" lon="119.15756032866793"><ele>38.5</ele><time>2026-04-23T07:15:44.001Z</time></trkpt><trkpt lat="-20.339445019939674" lon="119.15785680693928"><ele>39.0</ele><time>2026-04-23T07:15:45.001Z</time></trkpt><trkpt lat="-20.33938861904692" lon="119.1581542322525"><ele>39.0</ele><time>2026-04-23T07:15:46.001Z</time></trkpt><trkpt lat="-20.33933537433625" lon="119.15845108561724"><ele>39.0</ele><time>2026-04-23T07:15:47.001Z</time></trkpt><trkpt lat="-20.339285459226023" lon="119.15874688859323"><ele>39.5</ele><time>2026-04-23T07:15:48.001Z</time></trkpt><trkpt lat="-20.33923782538561" lon="119.15904253203018"><ele>40.0</ele><time>2026-04-23T07:15:49.001Z</time></trkpt><trkpt lat="-20.339188242792684" lon="119.1593387452606"><ele>40.0</ele><time>2026-04-23T07:15:50.001Z</time></trkpt><trkpt lat="-20.339120454346364" lon="119.1596285548782"><ele>40.0</ele><time>2026-04-23T07:15:51.001Z</time></trkpt><trkpt lat="-20.33908421522666" lon="119.15993124110449"><ele>40.0</ele><time>2026-04-23T07:15:52.001Z</time></trkpt><trkpt lat="-20.339028242080687" lon="119.1602284767612"><ele>40.0</ele><time>2026-04-23T07:15:53.001Z</time></trkpt><trkpt lat="-20.338971325122834" lon="119.16053481817343"><ele>39.0</ele><time>2026-04-23T07:15:54.001Z</time></trkpt><trkpt lat="-20.33891654779461" lon="119.16083789007807"><ele>38.0</ele><time>2026-04-23T07:15:55.001Z</time></trkpt><trkpt lat="-20.338863060350363" lon="119.1611416511943"><ele>42.0</ele><time>2026-04-23T07:15:56.001Z</time></trkpt><trkpt lat="-20.338813266137382" lon="119.16144264196987"><ele>46.0</ele><time>2026-04-23T07:15:57.001Z</time></trkpt><trkpt lat="-20.338742420074755" lon="119.1617398724681"><ele>46.0</ele><time>2026-04-23T07:15:58.001Z</time></trkpt><trkpt lat="-20.3386861951169" lon="119.16204203424462"><ele>46.0</ele><time>2026-04-23T07:15:59.001Z</time></trkpt><trkpt lat="-20.338633449618122" lon="119.16234526012401"><ele>43.5</ele><time>2026-04-23T07:16:00.001Z</time></trkpt><trkpt lat="-20.33858090639695" lon="119.16264479482838"><ele>41.0</ele><time>2026-04-23T07:16:01.001Z</time></trkpt><trkpt lat="-20.338527373948676" lon="119.16294473853323"><ele>39.5</ele><time>2026-04-23T07:16:02.001Z</time></trkpt><trkpt lat="-20.338474492004703" lon="119.16324391170983"><ele>38.0</ele><time>2026-04-23T07:16:03.001Z</time></trkpt><trkpt lat="-20.33842257313184" lon="119.1635431259201"><ele>38.0</ele><time>2026-04-23T07:16:04.001Z</time></trkpt><trkpt lat="-20.338371502812524" lon="119.16384125462714"><ele>38.0</ele><time>2026-04-23T07:16:05.001Z</time></trkpt><trkpt lat="-20.33833446020886" lon="119.16414580132171"><ele>38.5</ele><time>2026-04-23T07:16:06.001Z</time></trkpt><trkpt lat="-20.33827927871084" lon="119.164446109376"><ele>39.0</ele><time>2026-04-23T07:16:07.001Z</time></trkpt><trkpt lat="-20.33822494791876" lon="119.16474769430393"><ele>39.0</ele><time>2026-04-23T07:16:08.001Z</time></trkpt><trkpt lat="-20.33816955587737" lon="119.16505251006498"><ele>39.0</ele><time>2026-04-23T07:16:09.001Z</time></trkpt><trkpt lat="-20.33811565297366" lon="119.16535781366493"><ele>39.0</ele><time>2026-04-23T07:16:10.001Z</time></trkpt><trkpt lat="-20.3380630988839" lon="119.1656624425201"><ele>39.0</ele><time>2026-04-23T07:16:11.001Z</time></trkpt><trkpt lat="-20.338012739853482" lon="119.16596517170348"><ele>39.0</ele><time>2026-04-23T07:16:12.001Z</time></trkpt><trkpt lat="-20.337960360420922" lon="119.1662659255012"><ele>39.0</ele><time>2026-04-23T07:16:13.001Z</time></trkpt><trkpt lat="-20.337906583194666" lon="119.16655378364763"><ele>37.0</ele><time>2026-04-23T07:16:14.001Z</time></trkpt><trkpt lat="-20.337857454017033" lon="119.16683556094206"><ele>35.0</ele><time>2026-04-23T07:16:15.001Z</time></trkpt><trkpt lat="-20.337806939346095" lon="119.16711787538975"><ele>34.5</ele><time>2026-04-23T07:16:16.001Z</time></trkpt><trkpt lat="-20.33775468916696" lon="119.16741084291117"><ele>34.0</ele><time>2026-04-23T07:16:17.001Z</time></trkpt><trkpt lat="-20.337704236176943" lon="119.16770389370978"><ele>34.0</ele><time>2026-04-23T07:16:18.001Z</time></trkpt><trkpt lat="-20.337655222313508" lon="119.16799526222835"><ele>34.0</ele><time>2026-04-23T07:16:19.001Z</time></trkpt><trkpt lat="-20.337607924710024" lon="119.16828680101683"><ele>34.5</ele><time>2026-04-23T07:16:20.001Z</time></trkpt><trkpt lat="-20.337542168097894" lon="119.16857274751126"><ele>35.0</ele><time>2026-04-23T07:16:21.001Z</time></trkpt><trkpt lat="-20.337490827792355" lon="119.16886235860227"><ele>35.0</ele><time>2026-04-23T07:16:22.001Z</time></trkpt><trkpt lat="-20.337439585417872" lon="119.16915141654223"><ele>35.0</ele><time>2026-04-23T07:16:23.001Z</time></trkpt><trkpt lat="-20.33740158055294" lon="119.16944453967808"><ele>35.0</ele><time>2026-04-23T07:16:24.001Z</time></trkpt><trkpt lat="-20.337349486841727" lon="119.16973455197062"><ele>35.0</ele><time>2026-04-23T07:16:25.001Z</time></trkpt><trkpt lat="-20.337301077003136" lon="119.17002469364859"><ele>34.0</ele><time>2026-04-23T07:16:26.001Z</time></trkpt><trkpt lat="-20.3372527805366" lon="119.17032103037492"><ele>33.0</ele><time>2026-04-23T07:16:27.002Z</time></trkpt><trkpt lat="-20.337203363965706" lon="119.1706146044034"><ele>33.0</ele><time>2026-04-23T07:16:28.002Z</time></trkpt><trkpt lat="-20.33715413727952" lon="119.17091222341772"><ele>33.0</ele><time>2026-04-23T07:16:29.002Z</time></trkpt><trkpt lat="-20.337102903305627" lon="119.17120746128438"><ele>33.0</ele><time>2026-04-23T07:16:30.002Z</time></trkpt><trkpt lat="-20.337050719535547" lon="119.17149691736513"><ele>33.0</ele><time>2026-04-23T07:16:31.002Z</time></trkpt><trkpt lat="-20.336995929300734" lon="119.17178577085578"><ele>33.0</ele><time>2026-04-23T07:16:32.002Z</time></trkpt><trkpt lat="-20.33693965234957" lon="119.17207503055076"><ele>33.0</ele><time>2026-04-23T07:16:33.002Z</time></trkpt><trkpt lat="-20.336884705377635" lon="119.17236320286631"><ele>33.0</ele><time>2026-04-23T07:16:34.002Z</time></trkpt><trkpt lat="-20.336832543067988" lon="119.17265070794834"><ele>33.0</ele><time>2026-04-23T07:16:35.002Z</time></trkpt><trkpt lat="-20.33678242730018" lon="119.17293610061921"><ele>33.0</ele><time>2026-04-23T07:16:36.002Z</time></trkpt><trkpt lat="-20.33673617027434" lon="119.17322744339656"><ele>33.0</ele><time>2026-04-23T07:16:37.002Z</time></trkpt><trkpt lat="-20.336691243320082" lon="119.17351729612018"><ele>33.0</ele><time>2026-04-23T07:16:38.002Z</time></trkpt><trkpt lat="-20.336644259810523" lon="119.17380689306312"><ele>33.0</ele><time>2026-04-23T07:16:39.002Z</time></trkpt><trkpt lat="-20.33659633548597" lon="119.1740981398616"><ele>32.0</ele><time>2026-04-23T07:16:40.002Z</time></trkpt><trkpt lat="-20.33654402267166" lon="119.17439302778472"><ele>31.0</ele><time>2026-04-23T07:16:41Z</time></trkpt><trkpt lat="-20.336488420752318" lon="119.17468961185624"><ele>31.5</ele><time>2026-04-23T07:16:42Z</time></trkpt><trkpt lat="-20.336432109108067" lon="119.17498229475886"><ele>32.0</ele><time>2026-04-23T07:16:43Z</time></trkpt><trkpt lat="-20.336378345831513" lon="119.1752762598174"><ele>32.0</ele><time>2026-04-23T07:16:44Z</time></trkpt><trkpt lat="-20.336327139897868" lon="119.175572114262"><ele>32.0</ele><time>2026-04-23T07:16:45Z</time></trkpt><trkpt lat="-20.336276919889183" lon="119.17586676939374"><ele>33.5</ele><time>2026-04-23T07:16:46Z</time></trkpt><trkpt lat="-20.336226525430156" lon="119.17615858170741"><ele>35.0</ele><time>2026-04-23T07:16:47Z</time></trkpt><trkpt lat="-20.3361758031659" lon="119.1764510763923"><ele>35.5</ele><time>2026-04-23T07:16:48Z</time></trkpt><trkpt lat="-20.336126377938683" lon="119.1767397098971"><ele>36.0</ele><time>2026-04-23T07:16:49Z</time></trkpt><trkpt lat="-20.336075669501646" lon="119.17703430317502"><ele>36.0</ele><time>2026-04-23T07:16:50Z</time></trkpt><trkpt lat="-20.336023979949847" lon="119.17733371247962"><ele>36.0</ele><time>2026-04-23T07:16:51Z</time></trkpt><trkpt lat="-20.33597121071337" lon="119.17763804934106"><ele>35.5</ele><time>2026-04-23T07:16:52Z</time></trkpt><trkpt lat="-20.335917916317744" lon="119.17793892805365"><ele>35.0</ele><time>2026-04-23T07:16:53Z</time></trkpt><trkpt lat="-20.335862617594216" lon="119.17823986012071"><ele>34.0</ele><time>2026-04-23T07:16:54Z</time></trkpt><trkpt lat="-20.33580672517255" lon="119.17854063742651"><ele>33.0</ele><time>2026-04-23T07:16:55Z</time></trkpt><trkpt lat="-20.335752733660517" lon="119.1788415852933"><ele>32.5</ele><time>2026-04-23T07:16:56Z</time></trkpt><trkpt lat="-20.335700407144053" lon="119.17914440840734"><ele>32.0</ele><time>2026-04-23T07:16:57Z</time></trkpt><trkpt lat="-20.335649082488466" lon="119.17944566947362"><ele>32.0</ele><time>2026-04-23T07:16:58Z</time></trkpt><trkpt lat="-20.335598505143153" lon="119.17975064326664"><ele>32.0</ele><time>2026-04-23T07:16:59Z</time></trkpt><trkpt lat="-20.335549148579904" lon="119.18005268553514"><ele>32.0</ele><time>2026-04-23T07:17:00Z</time></trkpt><trkpt lat="-20.33549877405073" lon="119.18035360481515"><ele>32.0</ele><time>2026-04-23T07:17:01.001Z</time></trkpt><trkpt lat="-20.335446635831136" lon="119.18065215897084"><ele>32.5</ele><time>2026-04-23T07:17:02.001Z</time></trkpt><trkpt lat="-20.33539361920931" lon="119.18094928185488"><ele>33.0</ele><time>2026-04-23T07:17:03.001Z</time></trkpt><trkpt lat="-20.335340368544998" lon="119.18124885479261"><ele>33.0</ele><time>2026-04-23T07:17:04.001Z</time></trkpt><trkpt lat="-20.335286572568716" lon="119.18155242603713"><ele>33.0</ele><time>2026-04-23T07:17:05.001Z</time></trkpt><trkpt lat="-20.33523170392474" lon="119.1818524532347"><ele>33.0</ele><time>2026-04-23T07:17:06.001Z</time></trkpt><trkpt lat="-20.335176003052023" lon="119.18215382602025"><ele>33.0</ele><time>2026-04-23T07:17:07.001Z</time></trkpt><trkpt lat="-20.33512252116132" lon="119.18245664161316"><ele>33.0</ele><time>2026-04-23T07:17:08.001Z</time></trkpt><trkpt lat="-20.335073171615807" lon="119.18275506368411"><ele>33.0</ele><time>2026-04-23T07:17:09.001Z</time></trkpt><trkpt lat="-20.335021338123745" lon="119.18306147324206"><ele>33.0</ele><time>2026-04-23T07:17:10.001Z</time></trkpt><trkpt lat="-20.334963993654398" lon="119.1833683962305"><ele>33.0</ele><time>2026-04-23T07:17:11.001Z</time></trkpt><trkpt lat="-20.334895954998316" lon="119.18367432342156"><ele>33.0</ele><time>2026-04-23T07:17:12.001Z</time></trkpt><trkpt lat="-20.334816419972373" lon="119.18397866913675"><ele>33.0</ele><time>2026-04-23T07:17:13.001Z</time></trkpt><trkpt lat="-20.334727262428764" lon="119.18427511748732"><ele>34.0</ele><time>2026-04-23T07:17:14.001Z</time></trkpt><trkpt lat="-20.33462828094472" lon="119.18456987688904"><ele>35.0</ele><time>2026-04-23T07:17:15.001Z</time></trkpt><trkpt lat="-20.334521062442352" lon="119.18486450216214"><ele>35.0</ele><time>2026-04-23T07:17:16.001Z</time></trkpt><trkpt lat="-20.334403683565622" lon="119.18515853667195"><ele>35.0</ele><time>2026-04-23T07:17:17.001Z</time></trkpt><trkpt lat="-20.334279370388607" lon="119.18545240237563"><ele>34.5</ele><time>2026-04-23T07:17:18.001Z</time></trkpt><trkpt lat="-20.334147163518654" lon="119.18574076856335"><ele>34.0</ele><time>2026-04-23T07:17:19.001Z</time></trkpt><trkpt lat="-20.3340058726593" lon="119.1860195803217"><ele>34.5</ele><time>2026-04-23T07:17:20.001Z</time></trkpt><trkpt lat="-20.333854533731532" lon="119.18629284140232"><ele>35.0</ele><time>2026-04-23T07:17:21.001Z</time></trkpt><trkpt lat="-20.333698497283738" lon="119.1865587995034"><ele>33.5</ele><time>2026-04-23T07:17:22.001Z</time></trkpt><trkpt lat="-20.333534170632202" lon="119.18681480133738"><ele>32.0</ele><time>2026-04-23T07:17:23.001Z</time></trkpt><trkpt lat="-20.33336174077232" lon="119.18706286539316"><ele>32.0</ele><time>2026-04-23T07:17:24.001Z</time></trkpt><trkpt lat="-20.33318305954492" lon="119.1873027731844"><ele>32.0</ele><time>2026-04-23T07:17:25.001Z</time></trkpt><trkpt lat="-20.332998484839283" lon="119.18753618885016"><ele>32.5</ele><time>2026-04-23T07:17:26.001Z</time></trkpt><trkpt lat="-20.33281043783641" lon="119.18776386257068"><ele>33.0</ele><time>2026-04-23T07:17:27.001Z</time></trkpt><trkpt lat="-20.332614659677215" lon="119.18798781859427"><ele>32.5</ele><time>2026-04-23T07:17:28.001Z</time></trkpt><trkpt lat="-20.332411592319694" lon="119.18820476236385"><ele>32.0</ele><time>2026-04-23T07:17:29.001Z</time></trkpt><trkpt lat="-20.332199554484863" lon="119.18841318292318"><ele>32.0</ele><time>2026-04-23T07:17:30.001Z</time></trkpt><trkpt lat="-20.331960843201912" lon="119.18859423780702"><ele>32.0</ele><time>2026-04-23T07:17:31.001Z</time></trkpt><trkpt lat="-20.331730124389722" lon="119.18879193600765"><ele>32.0</ele><time>2026-04-23T07:17:32.001Z</time></trkpt><trkpt lat="-20.331495433980443" lon="119.18898218378844"><ele>32.0</ele><time>2026-04-23T07:17:33.001Z</time></trkpt><trkpt lat="-20.33125512622308" lon="119.18916489784357"><ele>32.0</ele><time>2026-04-23T07:17:34.001Z</time></trkpt><trkpt lat="-20.33101526025203" lon="119.18934469963891"><ele>32.0</ele><time>2026-04-23T07:17:35.001Z</time></trkpt><trkpt lat="-20.330784597149066" lon="119.18953627569569"><ele>32.0</ele><time>2026-04-23T07:17:36.001Z</time></trkpt><trkpt lat="-20.330539829028293" lon="119.1897133072625"><ele>32.0</ele><time>2026-04-23T07:17:37.001Z</time></trkpt><trkpt lat="-20.330294848556782" lon="119.1898954070763"><ele>32.0</ele><time>2026-04-23T07:17:38.001Z</time></trkpt><trkpt lat="-20.330038989761757" lon="119.19006312721255"><ele>32.0</ele><time>2026-04-23T07:17:39.001Z</time></trkpt><trkpt lat="-20.329787769312382" lon="119.19024816845005"><ele>32.5</ele><time>2026-04-23T07:17:40.001Z</time></trkpt><trkpt lat="-20.329536136148093" lon="119.1904344037228"><ele>33.0</ele><time>2026-04-23T07:17:41.001Z</time></trkpt><trkpt lat="-20.329285478254743" lon="119.1906215530012"><ele>32.5</ele><time>2026-04-23T07:17:42.001Z</time></trkpt><trkpt lat="-20.329035881021866" lon="119.19080638028994"><ele>32.0</ele><time>2026-04-23T07:17:43.001Z</time></trkpt><trkpt lat="-20.328790451797865" lon="119.19098840840563"><ele>32.0</ele><time>2026-04-23T07:17:44.001Z</time></trkpt><trkpt lat="-20.32854598619595" lon="119.19117090954539"><ele>32.0</ele><time>2026-04-23T07:17:45.001Z</time></trkpt><trkpt lat="-20.328304065965863" lon="119.19135246235425"><ele>32.0</ele><time>2026-04-23T07:17:46.001Z</time></trkpt><trkpt lat="-20.328065171232918" lon="119.19153012991713"><ele>32.0</ele><time>2026-04-23T07:17:47.001Z</time></trkpt><trkpt lat="-20.327820896985735" lon="119.19170396796392"><ele>32.5</ele><time>2026-04-23T07:17:48.001Z</time></trkpt><trkpt lat="-20.32758016069057" lon="119.19187808920654"><ele>33.0</ele><time>2026-04-23T07:17:49.001Z</time></trkpt><trkpt lat="-20.327347696519574" lon="119.19205929033426"><ele>32.0</ele><time>2026-04-23T07:17:50.001Z</time></trkpt><trkpt lat="-20.327109697362957" lon="119.19223774566322"><ele>31.0</ele><time>2026-04-23T07:17:51.001Z</time></trkpt><trkpt lat="-20.326874284112893" lon="119.19241178498041"><ele>31.0</ele><time>2026-04-23T07:17:52.001Z</time></trkpt><trkpt lat="-20.326639650794263" lon="119.19258468597083"><ele>31.0</ele><time>2026-04-23T07:17:53.001Z</time></trkpt><trkpt lat="-20.326402713329088" lon="119.19276002521471"><ele>31.5</ele><time>2026-04-23T07:17:54.001Z</time></trkpt><trkpt lat="-20.32617561856026" lon="119.19295020118246"><ele>32.0</ele><time>2026-04-23T07:17:55.001Z</time></trkpt><trkpt lat="-20.3259387688919" lon="119.1931285227324"><ele>31.0</ele><time>2026-04-23T07:17:56.001Z</time></trkpt><trkpt lat="-20.325698647122206" lon="119.19328440028262"><ele>30.0</ele><time>2026-04-23T07:17:57.001Z</time></trkpt><trkpt lat="-20.32548121906115" lon="119.19344035937178"><ele>30.0</ele><time>2026-04-23T07:17:58.001Z</time></trkpt><trkpt lat="-20.32525707520438" lon="119.1936078661393"><ele>30.0</ele><time>2026-04-23T07:17:59.001Z</time></trkpt><trkpt lat="-20.325021376530646" lon="119.1937831032763"><ele>30.0</ele><time>2026-04-23T07:18:00.001Z</time></trkpt><trkpt lat="-20.32478274582041" lon="119.19395897256497"><ele>30.0</ele><time>2026-04-23T07:18:01.001Z</time></trkpt><trkpt lat="-20.32454364264344" lon="119.19413519000521"><ele>29.5</ele><time>2026-04-23T07:18:02.001Z</time></trkpt><trkpt lat="-20.324304189637903" lon="119.19431301387442"><ele>29.0</ele><time>2026-04-23T07:18:03.001Z</time></trkpt><trkpt lat="-20.324074488484758" lon="119.19450596113384"><ele>29.0</ele><time>2026-04-23T07:18:04.001Z</time></trkpt><trkpt lat="-20.3238325142851" lon="119.19468269227089"><ele>29.0</ele><time>2026-04-23T07:18:05.001Z</time></trkpt><trkpt lat="-20.32359522025638" lon="119.19485918849348"><ele>29.0</ele><time>2026-04-23T07:18:06.001Z</time></trkpt><trkpt lat="-20.32335842711424" lon="119.19503604149429"><ele>29.0</ele><time>2026-04-23T07:18:07.001Z</time></trkpt><trkpt lat="-20.323124191968997" lon="119.19521352408633"><ele>29.0</ele><time>2026-04-23T07:18:08.001Z</time></trkpt><trkpt lat="-20.32289268018382" lon="119.19539277292533"><ele>29.0</ele><time>2026-04-23T07:18:09.002Z</time></trkpt><trkpt lat="-20.32265997520639" lon="119.19556989083978"><ele>28.0</ele><time>2026-04-23T07:18:10.002Z</time></trkpt><trkpt lat="-20.32242870858262" lon="119.1957437316404"><ele>27.0</ele><time>2026-04-23T07:18:11.002Z</time></trkpt><trkpt lat="-20.32220198226187" lon="119.19592056613106"><ele>27.0</ele><time>2026-04-23T07:18:12.002Z</time></trkpt><trkpt lat="-20.321978588813728" lon="119.19610494915152"><ele>27.0</ele><time>2026-04-23T07:18:13.002Z</time></trkpt><trkpt lat="-20.321761681527207" lon="119.19629850226748"><ele>27.0</ele><time>2026-04-23T07:18:14.002Z</time></trkpt><trkpt lat="-20.32155149242166" lon="119.19650141411184"><ele>27.0</ele><time>2026-04-23T07:18:15.002Z</time></trkpt><trkpt lat="-20.321346181701223" lon="119.19671519159236"><ele>27.5</ele><time>2026-04-23T07:18:16.002Z</time></trkpt><trkpt lat="-20.321146531108305" lon="119.1969363112197"><ele>28.0</ele><time>2026-04-23T07:18:17.002Z</time></trkpt><trkpt lat="-20.320949950425828" lon="119.19716383706033"><ele>26.5</ele><time>2026-04-23T07:18:18.002Z</time></trkpt><trkpt lat="-20.320764326192545" lon="119.19739878336765"><ele>25.0</ele><time>2026-04-23T07:18:19.002Z</time></trkpt><trkpt lat="-20.320584412439715" lon="119.19763887680192"><ele>25.0</ele><time>2026-04-23T07:18:20.002Z</time></trkpt><trkpt lat="-20.320412149363996" lon="119.19788341201253"><ele>25.0</ele><time>2026-04-23T07:18:21.002Z</time></trkpt><trkpt lat="-20.320247800868398" lon="119.19813623269182"><ele>25.0</ele><time>2026-04-23T07:18:22.002Z</time></trkpt><trkpt lat="-20.320092386102665" lon="119.19839885921142"><ele>25.0</ele><time>2026-04-23T07:18:23.002Z</time></trkpt><trkpt lat="-20.31994504871602" lon="119.1986677876122"><ele>25.0</ele><time>2026-04-23T07:18:24.002Z</time></trkpt><trkpt lat="-20.31980398916801" lon="119.19893983500491"><ele>25.0</ele><time>2026-04-23T07:18:25.002Z</time></trkpt><trkpt lat="-20.31967192277121" lon="119.19921463485191"><ele>26.0</ele><time>2026-04-23T07:18:26.002Z</time></trkpt><trkpt lat="-20.319548858195112" lon="119.19949456777145"><ele>27.0</ele><time>2026-04-23T07:18:27.002Z</time></trkpt><trkpt lat="-20.319429226909687" lon="119.19978343539326"><ele>26.0</ele><time>2026-04-23T07:18:28.002Z</time></trkpt><trkpt lat="-20.319314613355044" lon="119.20007176608668"><ele>25.0</ele><time>2026-04-23T07:18:29.002Z</time></trkpt><trkpt lat="-20.319206020778708" lon="119.2003644165136"><ele>25.0</ele><time>2026-04-23T07:18:30.002Z</time></trkpt><trkpt lat="-20.31910997449574" lon="119.20065609728428"><ele>25.0</ele><time>2026-04-23T07:18:31.002Z</time></trkpt><trkpt lat="-20.319026919430456" lon="119.20095024941229"><ele>24.5</ele><time>2026-04-23T07:18:32.002Z</time></trkpt><trkpt lat="-20.318956554423277" lon="119.20124787654792"><ele>24.0</ele><time>2026-04-23T07:18:33.002Z</time></trkpt><trkpt lat="-20.318897177617753" lon="119.20154425494948"><ele>24.0</ele><time>2026-04-23T07:18:34.002Z</time></trkpt><trkpt lat="-20.318847690124155" lon="119.20184374878522"><ele>24.0</ele><time>2026-04-23T07:18:35.002Z</time></trkpt><trkpt lat="-20.31880805187854" lon="119.20215585947716"><ele>23.0</ele><time>2026-04-23T07:18:36.002Z</time></trkpt><trkpt lat="-20.31877371636413" lon="119.20247053093965"><ele>22.0</ele><time>2026-04-23T07:18:37.002Z</time></trkpt><trkpt lat="-20.318745107177737" lon="119.20278341752078"><ele>22.0</ele><time>2026-04-23T07:18:38.002Z</time></trkpt><trkpt lat="-20.318717473146663" lon="119.20309493153293"><ele>22.0</ele><time>2026-04-23T07:18:39.002Z</time></trkpt><trkpt lat="-20.318695972064052" lon="119.20340543582624"><ele>22.5</ele><time>2026-04-23T07:18:40.002Z</time></trkpt><trkpt lat="-20.318672382677914" lon="119.20371853668388"><ele>23.0</ele><time>2026-04-23T07:18:41.002Z</time></trkpt><trkpt lat="-20.318649925599683" lon="119.20402770562619"><ele>21.5</ele><time>2026-04-23T07:18:42.002Z</time></trkpt><trkpt lat="-20.31862451525128" lon="119.204337728991"><ele>20.0</ele><time>2026-04-23T07:18:43.002Z</time></trkpt><trkpt lat="-20.318597682153076" lon="119.2046456858841"><ele>21.0</ele><time>2026-04-23T07:18:44.002Z</time></trkpt><trkpt lat="-20.318572336781695" lon="119.20494599144465"><ele>22.0</ele><time>2026-04-23T07:18:45.002Z</time></trkpt><trkpt lat="-20.31854696865661" lon="119.20524170865043"><ele>22.0</ele><time>2026-04-23T07:18:46.002Z</time></trkpt><trkpt lat="-20.318523024251053" lon="119.20553679622229"><ele>22.0</ele><time>2026-04-23T07:18:47.001Z</time></trkpt><trkpt lat="-20.318500282239047" lon="119.20583121161322"><ele>23.5</ele><time>2026-04-23T07:18:48.001Z</time></trkpt><trkpt lat="-20.318476761257394" lon="119.20612264949885"><ele>25.0</ele><time>2026-04-23T07:18:49.001Z</time></trkpt><trkpt lat="-20.318451135002334" lon="119.20641981080865"><ele>25.0</ele><time>2026-04-23T07:18:50.001Z</time></trkpt><trkpt lat="-20.31842729594539" lon="119.20672043405838"><ele>25.0</ele><time>2026-04-23T07:18:51.001Z</time></trkpt><trkpt lat="-20.31840614400014" lon="119.20702130319214"><ele>25.5</ele><time>2026-04-23T07:18:52.001Z</time></trkpt><trkpt lat="-20.318384182689908" lon="119.20732854896764"><ele>26.0</ele><time>2026-04-23T07:18:53.001Z</time></trkpt><trkpt lat="-20.318363035230924" lon="119.20763903874139"><ele>26.0</ele><time>2026-04-23T07:18:54.001Z</time></trkpt><trkpt lat="-20.318341583504587" lon="119.20794903822774"><ele>26.0</ele><time>2026-04-23T07:18:55.001Z</time></trkpt><trkpt lat="-20.318317647270902" lon="119.20825756788805"><ele>25.0</ele><time>2026-04-23T07:18:56.001Z</time></trkpt><trkpt lat="-20.3182903656335" lon="119.20856546024025"><ele>24.0</ele><time>2026-04-23T07:18:57.001Z</time></trkpt><trkpt lat="-20.31826308661484" lon="119.20887272345867"><ele>23.5</ele><time>2026-04-23T07:18:58.001Z</time></trkpt><trkpt lat="-20.31823719229026" lon="119.20917371387715"><ele>23.0</ele><time>2026-04-23T07:18:59.001Z</time></trkpt><trkpt lat="-20.318210058217446" lon="119.20947751443205"><ele>23.0</ele><time>2026-04-23T07:19:00.001Z</time></trkpt><trkpt lat="-20.318183998168543" lon="119.20977816658308"><ele>23.0</ele><time>2026-04-23T07:19:01.001Z</time></trkpt><trkpt lat="-20.318159295497022" lon="119.21008597436806"><ele>23.0</ele><time>2026-04-23T07:19:02.001Z</time></trkpt><trkpt lat="-20.31813862036793" lon="119.21038990606097"><ele>23.0</ele><time>2026-04-23T07:19:03.001Z</time></trkpt><trkpt lat="-20.318117931505295" lon="119.21069303763238"><ele>23.0</ele><time>2026-04-23T07:19:04.001Z</time></trkpt><trkpt lat="-20.318095168244163" lon="119.21099819089457"><ele>23.0</ele><time>2026-04-23T07:19:05.001Z</time></trkpt><trkpt lat="-20.31807096228208" lon="119.21130010430177"><ele>23.5</ele><time>2026-04-23T07:19:06.001Z</time></trkpt><trkpt lat="-20.3180459074533" lon="119.21160311274068"><ele>24.0</ele><time>2026-04-23T07:19:07.001Z</time></trkpt><trkpt lat="-20.318018957898058" lon="119.21190649513402"><ele>24.0</ele><time>2026-04-23T07:19:08.001Z</time></trkpt><trkpt lat="-20.31799391795875" lon="119.21220576750245"><ele>24.0</ele><time>2026-04-23T07:19:09.001Z</time></trkpt><trkpt lat="-20.31797125349841" lon="119.21250175716573"><ele>25.0</ele><time>2026-04-23T07:19:10.001Z</time></trkpt><trkpt lat="-20.31794861614925" lon="119.21279522981546"><ele>26.0</ele><time>2026-04-23T07:19:11.001Z</time></trkpt><trkpt lat="-20.317925546114584" lon="119.21308646543825"><ele>25.0</ele><time>2026-04-23T07:19:12.001Z</time></trkpt><trkpt lat="-20.317901936511443" lon="119.21337597597183"><ele>24.0</ele><time>2026-04-23T07:19:13.001Z</time></trkpt><trkpt lat="-20.31787836974787" lon="119.2136606086321"><ele>24.0</ele><time>2026-04-23T07:19:14.001Z</time></trkpt><trkpt lat="-20.317854314455385" lon="119.21394642830906"><ele>24.0</ele><time>2026-04-23T07:19:15.001Z</time></trkpt><trkpt lat="-20.317832079300143" lon="119.21422924813945"><ele>24.5</ele><time>2026-04-23T07:19:16.001Z</time></trkpt><trkpt lat="-20.317808407566865" lon="119.21451429285179"><ele>25.0</ele><time>2026-04-23T07:19:17.001Z</time></trkpt><trkpt lat="-20.317784406678978" lon="119.21479813885104"><ele>25.5</ele><time>2026-04-23T07:19:18.001Z</time></trkpt><trkpt lat="-20.317758370774218" lon="119.2150824990013"><ele>26.0</ele><time>2026-04-23T07:19:19.001Z</time></trkpt><trkpt lat="-20.317733825312313" lon="119.21537129529285"><ele>24.0</ele><time>2026-04-23T07:19:20.001Z</time></trkpt><trkpt lat="-20.317708447853885" lon="119.21566719019063"><ele>22.0</ele><time>2026-04-23T07:19:21.001Z</time></trkpt><trkpt lat="-20.317682941081703" lon="119.2159651151563"><ele>22.0</ele><time>2026-04-23T07:19:22.001Z</time></trkpt><trkpt lat="-20.317663844448543" lon="119.2162606319657"><ele>22.0</ele><time>2026-04-23T07:19:23.001Z</time></trkpt><trkpt lat="-20.31764287259433" lon="119.21655103737558"><ele>22.5</ele><time>2026-04-23T07:19:24.001Z</time></trkpt><trkpt lat="-20.31762162857679" lon="119.21684444878426"><ele>23.0</ele><time>2026-04-23T07:19:25.001Z</time></trkpt><trkpt lat="-20.317599710964096" lon="119.21713252237096"><ele>23.0</ele><time>2026-04-23T07:19:26.001Z</time></trkpt><trkpt lat="-20.31757561971424" lon="119.21742448116393"><ele>23.0</ele><time>2026-04-23T07:19:27.001Z</time></trkpt><trkpt lat="-20.317550918435714" lon="119.21771830012449"><ele>23.0</ele><time>2026-04-23T07:19:28.001Z</time></trkpt><trkpt lat="-20.317524850026327" lon="119.21801489316097"><ele>23.0</ele><time>2026-04-23T07:19:29.001Z</time></trkpt><trkpt lat="-20.317498888433395" lon="119.2183132241278"><ele>23.0</ele><time>2026-04-23T07:19:30.001Z</time></trkpt><trkpt lat="-20.31747482772349" lon="119.2186114274697"><ele>23.0</ele><time>2026-04-23T07:19:31.001Z</time></trkpt><trkpt lat="-20.317451237839723" lon="119.21891324126311"><ele>23.5</ele><time>2026-04-23T07:19:32.001Z</time></trkpt><trkpt lat="-20.317428245073284" lon="119.219213335056"><ele>24.0</ele><time>2026-04-23T07:19:33.001Z</time></trkpt><trkpt lat="-20.317405079896968" lon="119.21951805354344"><ele>23.5</ele><time>2026-04-23T07:19:34.001Z</time></trkpt><trkpt lat="-20.317381910844833" lon="119.2198225042816"><ele>23.0</ele><time>2026-04-23T07:19:35.001Z</time></trkpt><trkpt lat="-20.31735823684306" lon="119.2201288379512"><ele>23.0</ele><time>2026-04-23T07:19:36.001Z</time></trkpt><trkpt lat="-20.317335234620383" lon="119.22043810522167"><ele>23.0</ele><time>2026-04-23T07:19:37.001Z</time></trkpt><trkpt lat="-20.31731034555057" lon="119.2207428399863"><ele>23.0</ele><time>2026-04-23T07:19:38.001Z</time></trkpt><trkpt lat="-20.317284994285682" lon="119.22105101201728"><ele>23.0</ele><time>2026-04-23T07:19:39.001Z</time></trkpt><trkpt lat="-20.317258098337934" lon="119.22136155660068"><ele>22.5</ele><time>2026-04-23T07:19:40.001Z</time></trkpt><trkpt lat="-20.317229900877155" lon="119.2216739363075"><ele>22.0</ele><time>2026-04-23T07:19:41.001Z</time></trkpt><trkpt lat="-20.31720295766527" lon="119.22198252227219"><ele>22.0</ele><time>2026-04-23T07:19:42.001Z</time></trkpt><trkpt lat="-20.317176497621155" lon="119.22229259362747"><ele>22.0</ele><time>2026-04-23T07:19:43.001Z</time></trkpt><trkpt lat="-20.317151835940845" lon="119.22259999268566"><ele>23.0</ele><time>2026-04-23T07:19:44.001Z</time></trkpt><trkpt lat="-20.317125424014428" lon="119.22291009471365"><ele>24.0</ele><time>2026-04-23T07:19:45.001Z</time></trkpt><trkpt lat="-20.317101213440633" lon="119.22321937625473"><ele>25.0</ele><time>2026-04-23T07:19:46.001Z</time></trkpt><trkpt lat="-20.317077463170023" lon="119.22352429117335"><ele>26.0</ele><time>2026-04-23T07:19:47.001Z</time></trkpt><trkpt lat="-20.31705287042489" lon="119.223826879939"><ele>25.0</ele><time>2026-04-23T07:19:48.001Z</time></trkpt><trkpt lat="-20.317028099831678" lon="119.22413026426861"><ele>24.0</ele><time>2026-04-23T07:19:49.001Z</time></trkpt><trkpt lat="-20.317005321320572" lon="119.22443420575478"><ele>24.0</ele><time>2026-04-23T07:19:50.001Z</time></trkpt><trkpt lat="-20.316984746866407" lon="119.22473511102223"><ele>24.0</ele><time>2026-04-23T07:19:51.001Z</time></trkpt><trkpt lat="-20.316963786130845" lon="119.22503451534435"><ele>23.5</ele><time>2026-04-23T07:19:52.001Z</time></trkpt><trkpt lat="-20.316940871572978" lon="119.22533470921739"><ele>23.0</ele><time>2026-04-23T07:19:53.001Z</time></trkpt><trkpt lat="-20.31691463943902" lon="119.22563180670639"><ele>23.0</ele><time>2026-04-23T07:19:54.001Z</time></trkpt><trkpt lat="-20.31688791035211" lon="119.22592631282497"><ele>23.0</ele><time>2026-04-23T07:19:55.001Z</time></trkpt><trkpt lat="-20.316867788287798" lon="119.22622439283533"><ele>23.5</ele><time>2026-04-23T07:19:56.001Z</time></trkpt><trkpt lat="-20.316852069375756" lon="119.22652507851315"><ele>24.0</ele><time>2026-04-23T07:19:57.001Z</time></trkpt><trkpt lat="-20.316838678546645" lon="119.2268271629385"><ele>24.0</ele><time>2026-04-23T07:19:58.001Z</time></trkpt><trkpt lat="-20.316832913767367" lon="119.22712983169241"><ele>24.0</ele><time>2026-04-23T07:19:59.001Z</time></trkpt><trkpt lat="-20.316830290521693" lon="119.2274353894333"><ele>23.5</ele><time>2026-04-23T07:20:00.001Z</time></trkpt><trkpt lat="-20.316832002953713" lon="119.22773339157824"><ele>23.0</ele><time>2026-04-23T07:20:01.001Z</time></trkpt><trkpt lat="-20.316833019179104" lon="119.22800951472357"><ele>23.0</ele><time>2026-04-23T07:20:02.001Z</time></trkpt><trkpt lat="-20.316837106018582" lon="119.22828172302444"><ele>23.0</ele><time>2026-04-23T07:20:03.001Z</time></trkpt><trkpt lat="-20.316847557654445" lon="119.22856703642923"><ele>23.0</ele><time>2026-04-23T07:20:04.001Z</time></trkpt><trkpt lat="-20.316863004972678" lon="119.22885725949115"><ele>23.0</ele><time>2026-04-23T07:20:05.001Z</time></trkpt><trkpt lat="-20.316884504087525" lon="119.22915175603936"><ele>23.5</ele><time>2026-04-23T07:20:06.002Z</time></trkpt><trkpt lat="-20.316908826462434" lon="119.22945149529865"><ele>24.0</ele><time>2026-04-23T07:20:07.002Z</time></trkpt><trkpt lat="-20.316937871586287" lon="119.22975439339895"><ele>24.5</ele><time>2026-04-23T07:20:08.002Z</time></trkpt><trkpt lat="-20.316971003961243" lon="119.2300612581529"><ele>25.0</ele><time>2026-04-23T07:20:09.002Z</time></trkpt><trkpt lat="-20.31700423642664" lon="119.23037125267037"><ele>25.0</ele><time>2026-04-23T07:20:10.002Z</time></trkpt><trkpt lat="-20.31703919057575" lon="119.2306857877806"><ele>25.0</ele><time>2026-04-23T07:20:11.002Z</time></trkpt><trkpt lat="-20.317071271449457" lon="119.23100214258504"><ele>25.0</ele><time>2026-04-23T07:20:12.002Z</time></trkpt><trkpt lat="-20.31710475517989" lon="119.23131506023968"><ele>25.0</ele><time>2026-04-23T07:20:13.002Z</time></trkpt><trkpt lat="-20.317137766236595" lon="119.23162648070306"><ele>25.5</ele><time>2026-04-23T07:20:14.002Z</time></trkpt><trkpt lat="-20.317170732336955" lon="119.23193118574757"><ele>26.0</ele><time>2026-04-23T07:20:15.002Z</time></trkpt><trkpt lat="-20.317202605724017" lon="119.2322310257579"><ele>25.0</ele><time>2026-04-23T07:20:16.002Z</time></trkpt><trkpt lat="-20.317234885677976" lon="119.23252738093578"><ele>24.0</ele><time>2026-04-23T07:20:17.002Z</time></trkpt><trkpt lat="-20.317268690654636" lon="119.23282462730556"><ele>24.0</ele><time>2026-04-23T07:20:18.002Z</time></trkpt><trkpt lat="-20.317303434180175" lon="119.23312225236573"><ele>24.0</ele><time>2026-04-23T07:20:19.002Z</time></trkpt><trkpt lat="-20.317336594965354" lon="119.23341611348991"><ele>24.0</ele><time>2026-04-23T07:20:20.002Z</time></trkpt><trkpt lat="-20.31736766223178" lon="119.23371412384087"><ele>24.0</ele><time>2026-04-23T07:20:21.002Z</time></trkpt><trkpt lat="-20.31739968409198" lon="119.23401377449736"><ele>24.0</ele><time>2026-04-23T07:20:22.002Z</time></trkpt><trkpt lat="-20.317431932768056" lon="119.23431573054721"><ele>24.0</ele><time>2026-04-23T07:20:23.002Z</time></trkpt><trkpt lat="-20.317462710472356" lon="119.23462116969243"><ele>24.5</ele><time>2026-04-23T07:20:24.002Z</time></trkpt><trkpt lat="-20.317494394889895" lon="119.23492946697282"><ele>25.0</ele><time>2026-04-23T07:20:25.002Z</time></trkpt><trkpt lat="-20.317526930783863" lon="119.23524144750402"><ele>25.0</ele><time>2026-04-23T07:20:26.002Z</time></trkpt><trkpt lat="-20.31756212784498" lon="119.23555369625979"><ele>25.0</ele><time>2026-04-23T07:20:27.002Z</time></trkpt><trkpt lat="-20.317598929829757" lon="119.23586993580713"><ele>25.5</ele><time>2026-04-23T07:20:28.002Z</time></trkpt><trkpt lat="-20.317632812777088" lon="119.23618836922782"><ele>26.0</ele><time>2026-04-23T07:20:29.002Z</time></trkpt><trkpt lat="-20.317664463064464" lon="119.23650842633894"><ele>26.0</ele><time>2026-04-23T07:20:30.002Z</time></trkpt><trkpt lat="-20.317696476353653" lon="119.2368313883478"><ele>26.0</ele><time>2026-04-23T07:20:31.002Z</time></trkpt><trkpt lat="-20.317729748371754" lon="119.23715063123736"><ele>25.5</ele><time>2026-04-23T07:20:32.002Z</time></trkpt><trkpt lat="-20.317762322002103" lon="119.23746579483625"><ele>25.0</ele><time>2026-04-23T07:20:33.002Z</time></trkpt><trkpt lat="-20.317796062452192" lon="119.23776900554485"><ele>25.0</ele><time>2026-04-23T07:20:34.002Z</time></trkpt><trkpt lat="-20.31782557863796" lon="119.23807267105585"><ele>25.0</ele><time>2026-04-23T07:20:35.002Z</time></trkpt><trkpt lat="-20.317844135115145" lon="119.23837687804492"><ele>25.0</ele><time>2026-04-23T07:20:36.002Z</time></trkpt><trkpt lat="-20.317857504416722" lon="119.23868774029813"><ele>25.0</ele><time>2026-04-23T07:20:37.002Z</time></trkpt><trkpt lat="-20.317861079837883" lon="119.23899759028491"><ele>25.0</ele><time>2026-04-23T07:20:38.002Z</time></trkpt><trkpt lat="-20.31785483384848" lon="119.23930882485831"><ele>25.0</ele><time>2026-04-23T07:20:39.002Z</time></trkpt><trkpt lat="-20.31783378601689" lon="119.23961961523175"><ele>25.5</ele><time>2026-04-23T07:20:40.002Z</time></trkpt><trkpt lat="-20.317801723648458" lon="119.23992459285749"><ele>26.0</ele><time>2026-04-23T07:20:41.002Z</time></trkpt><trkpt lat="-20.31775867017888" lon="119.24022739800074"><ele>26.0</ele><time>2026-04-23T07:20:42.002Z</time></trkpt><trkpt lat="-20.317708030636755" lon="119.24053519090533"><ele>26.0</ele><time>2026-04-23T07:20:43.002Z</time></trkpt><trkpt lat="-20.31765383137797" lon="119.24084194327517"><ele>26.0</ele><time>2026-04-23T07:20:44.002Z</time></trkpt><trkpt lat="-20.31759208018131" lon="119.24114677894455"><ele>26.0</ele><time>2026-04-23T07:20:45.002Z</time></trkpt><trkpt lat="-20.317516431260973" lon="119.24144531673576"><ele>25.5</ele><time>2026-04-23T07:20:46.002Z</time></trkpt><trkpt lat="-20.317432486221577" lon="119.24174060875318"><ele>25.0</ele><time>2026-04-23T07:20:47.002Z</time></trkpt><trkpt lat="-20.317338626210397" lon="119.24202762224034"><ele>24.5</ele><time>2026-04-23T07:20:48.002Z</time></trkpt><trkpt lat="-20.317238078143234" lon="119.24231484624686"><ele>24.0</ele><time>2026-04-23T07:20:49.002Z</time></trkpt><trkpt lat="-20.317129207602004" lon="119.2426001416664"><ele>24.0</ele><time>2026-04-23T07:20:50.002Z</time></trkpt><trkpt lat="-20.317010014513293" lon="119.2428806752409"><ele>24.0</ele><time>2026-04-23T07:20:51.002Z</time></trkpt><trkpt lat="-20.316885152289533" lon="119.24315717611746"><ele>24.5</ele><time>2026-04-23T07:20:52.002Z</time></trkpt><trkpt lat="-20.316747414756087" lon="119.24342893807369"><ele>25.0</ele><time>2026-04-23T07:20:53Z</time></trkpt><trkpt lat="-20.316601694520788" lon="119.24369604468473"><ele>25.5</ele><time>2026-04-23T07:20:54Z</time></trkpt><trkpt lat="-20.316444935205645" lon="119.24396498144316"><ele>26.0</ele><time>2026-04-23T07:20:55.001Z</time></trkpt><trkpt lat="-20.31628070895296" lon="119.24423320033007"><ele>27.0</ele><time>2026-04-23T07:20:56Z</time></trkpt><trkpt lat="-20.316113256931498" lon="119.24449309710019"><ele>28.0</ele><time>2026-04-23T07:20:57Z</time></trkpt><trkpt lat="-20.31593731013825" lon="119.24474242331253"><ele>27.0</ele><time>2026-04-23T07:20:58Z</time></trkpt><trkpt lat="-20.31575235770416" lon="119.24498054300186"><ele>26.0</ele><time>2026-04-23T07:20:59Z</time></trkpt><trkpt lat="-20.315559027108975" lon="119.24521268950785"><ele>26.0</ele><time>2026-04-23T07:21:00Z</time></trkpt><trkpt lat="-20.315357837775068" lon="119.24543854910166"><ele>26.0</ele><time>2026-04-23T07:21:01Z</time></trkpt><trkpt lat="-20.315153748571582" lon="119.24565973359455"><ele>26.0</ele><time>2026-04-23T07:21:02Z</time></trkpt><trkpt lat="-20.31494878086338" lon="119.24587094826387"><ele>26.0</ele><time>2026-04-23T07:21:03Z</time></trkpt><trkpt lat="-20.3147376759581" lon="119.24607705259525"><ele>25.5</ele><time>2026-04-23T07:21:04Z</time></trkpt><trkpt lat="-20.31451805704716" lon="119.24627602391797"><ele>25.0</ele><time>2026-04-23T07:21:05Z</time></trkpt><trkpt lat="-20.314292652881353" lon="119.2464677769385"><ele>25.0</ele><time>2026-04-23T07:21:06Z</time></trkpt><trkpt lat="-20.31406199092287" lon="119.2466567066159"><ele>25.0</ele><time>2026-04-23T07:21:07Z</time></trkpt><trkpt lat="-20.31383399890027" lon="119.24684604072426"><ele>25.0</ele><time>2026-04-23T07:21:08Z</time></trkpt><trkpt lat="-20.31360544212016" lon="119.24703678456274"><ele>25.0</ele><time>2026-04-23T07:21:09Z</time></trkpt><trkpt lat="-20.313376257791106" lon="119.24722772235113"><ele>25.5</ele><time>2026-04-23T07:21:10Z</time></trkpt><trkpt lat="-20.313147022737848" lon="119.24741975303931"><ele>26.0</ele><time>2026-04-23T07:21:11Z</time></trkpt><trkpt lat="-20.312920184269633" lon="119.24761451891833"><ele>26.0</ele><time>2026-04-23T07:21:12.001Z</time></trkpt><trkpt lat="-20.3126971828899" lon="119.24780899646177"><ele>26.0</ele><time>2026-04-23T07:21:13.001Z</time></trkpt><trkpt lat="-20.312474629442093" lon="119.24800300680494"><ele>26.5</ele><time>2026-04-23T07:21:14.001Z</time></trkpt><trkpt lat="-20.31223874036191" lon="119.24817622041769"><ele>27.0</ele><time>2026-04-23T07:21:15.001Z</time></trkpt><trkpt lat="-20.312017547280757" lon="119.24836706014064"><ele>27.0</ele><time>2026-04-23T07:21:16.001Z</time></trkpt><trkpt lat="-20.311796411159975" lon="119.24855785425217"><ele>27.0</ele><time>2026-04-23T07:21:17.001Z</time></trkpt><trkpt lat="-20.311588246839637" lon="119.24875784773205"><ele>27.0</ele><time>2026-04-23T07:21:18.001Z</time></trkpt><trkpt lat="-20.31136541221135" lon="119.24894349775508"><ele>27.0</ele><time>2026-04-23T07:21:19.001Z</time></trkpt><trkpt lat="-20.311145043551214" lon="119.24912949525412"><ele>26.0</ele><time>2026-04-23T07:21:20.001Z</time></trkpt><trkpt lat="-20.31092386361313" lon="119.24931857043343"><ele>25.0</ele><time>2026-04-23T07:21:21.001Z</time></trkpt><trkpt lat="-20.310702933023023" lon="119.2495058344552"><ele>25.5</ele><time>2026-04-23T07:21:22.001Z</time></trkpt><trkpt lat="-20.3104841193226" lon="119.24969136565508"><ele>26.0</ele><time>2026-04-23T07:21:23.001Z</time></trkpt><trkpt lat="-20.310268897393488" lon="119.24987734616515"><ele>23.5</ele><time>2026-04-23T07:21:24.001Z</time></trkpt><trkpt lat="-20.310055382802222" lon="119.25006359941716"><ele>21.0</ele><time>2026-04-23T07:21:25.001Z</time></trkpt><trkpt lat="-20.309831769012845" lon="119.25022926061858"><ele>20.5</ele><time>2026-04-23T07:21:26.001Z</time></trkpt><trkpt lat="-20.309621956643902" lon="119.250405932934"><ele>20.0</ele><time>2026-04-23T07:21:27.001Z</time></trkpt><trkpt lat="-20.309411865168062" lon="119.25058400871053"><ele>18.0</ele><time>2026-04-23T07:21:28.001Z</time></trkpt><trkpt lat="-20.309205493344436" lon="119.25076220346104"><ele>16.0</ele><time>2026-04-23T07:21:29.001Z</time></trkpt><trkpt lat="-20.308996752585628" lon="119.25094244370351"><ele>19.5</ele><time>2026-04-23T07:21:30.001Z</time></trkpt><trkpt lat="-20.308795726882686" lon="119.25113663323025"><ele>23.0</ele><time>2026-04-23T07:21:31.001Z</time></trkpt><trkpt lat="-20.308582671766302" lon="119.2513134465089"><ele>22.5</ele><time>2026-04-23T07:21:32.001Z</time></trkpt><trkpt lat="-20.308371498930462" lon="119.25149076313852"><ele>22.0</ele><time>2026-04-23T07:21:33.001Z</time></trkpt><trkpt lat="-20.308165457198786" lon="119.25166911682409"><ele>24.0</ele><time>2026-04-23T07:21:34.001Z</time></trkpt><trkpt lat="-20.307959901889156" lon="119.251846679185"><ele>26.0</ele><time>2026-04-23T07:21:35.001Z</time></trkpt><trkpt lat="-20.30775503235093" lon="119.25202528290728"><ele>26.0</ele><time>2026-04-23T07:21:36.001Z</time></trkpt><trkpt lat="-20.3075439956878" lon="119.25220532096868"><ele>26.0</ele><time>2026-04-23T07:21:37.001Z</time></trkpt><trkpt lat="-20.30731779244239" lon="119.25237348445037"><ele>27.0</ele><time>2026-04-23T07:21:38.001Z</time></trkpt><trkpt lat="-20.30710170143722" lon="119.25255630754513"><ele>28.0</ele><time>2026-04-23T07:21:39.001Z</time></trkpt><trkpt lat="-20.306885594512124" lon="119.25273989928463"><ele>28.0</ele><time>2026-04-23T07:21:40.001Z</time></trkpt><trkpt lat="-20.30666815101044" lon="119.25292642194229"><ele>28.0</ele><time>2026-04-23T07:21:41.001Z</time></trkpt><trkpt lat="-20.30645082038433" lon="119.25311260711696"><ele>27.0</ele><time>2026-04-23T07:21:42.001Z</time></trkpt><trkpt lat="-20.3062324353004" lon="119.25330107196561"><ele>26.0</ele><time>2026-04-23T07:21:43.001Z</time></trkpt><trkpt lat="-20.30602644129923" lon="119.25349939815858"><ele>26.0</ele><time>2026-04-23T07:21:44.001Z</time></trkpt><trkpt lat="-20.305811515421283" lon="119.2536843809288"><ele>26.0</ele><time>2026-04-23T07:21:45.001Z</time></trkpt><trkpt lat="-20.305599850834064" lon="119.25387294810862"><ele>26.0</ele><time>2026-04-23T07:21:46.001Z</time></trkpt><trkpt lat="-20.30539242235434" lon="119.25406671086124"><ele>26.0</ele><time>2026-04-23T07:21:47.001Z</time></trkpt><trkpt lat="-20.305191643791886" lon="119.25426980221395"><ele>26.0</ele><time>2026-04-23T07:21:48.001Z</time></trkpt><trkpt lat="-20.305000504778068" lon="119.25448144441923"><ele>26.0</ele><time>2026-04-23T07:21:49.001Z</time></trkpt><trkpt lat="-20.304802038421297" lon="119.25468677945241"><ele>27.0</ele><time>2026-04-23T07:21:50.001Z</time></trkpt><trkpt lat="-20.30462087191835" lon="119.25490904428769"><ele>28.0</ele><time>2026-04-23T07:21:51.001Z</time></trkpt><trkpt lat="-20.304446545705297" lon="119.2551355795572"><ele>28.0</ele><time>2026-04-23T07:21:52.001Z</time></trkpt><trkpt lat="-20.304280038317955" lon="119.25536607493439"><ele>28.0</ele><time>2026-04-23T07:21:53.001Z</time></trkpt><trkpt lat="-20.304120112210214" lon="119.25559984980822"><ele>27.0</ele><time>2026-04-23T07:21:54.001Z</time></trkpt><trkpt lat="-20.30398394145604" lon="119.25584376572728"><ele>26.0</ele><time>2026-04-23T07:21:55.001Z</time></trkpt><trkpt lat="-20.303840107722237" lon="119.25608294306356"><ele>25.0</ele><time>2026-04-23T07:21:56.001Z</time></trkpt><trkpt lat="-20.303701596426674" lon="119.25632764817955"><ele>24.0</ele><time>2026-04-23T07:21:57.001Z</time></trkpt><trkpt lat="-20.30357174942328" lon="119.25657135064823"><ele>24.0</ele><time>2026-04-23T07:21:58.001Z</time></trkpt><trkpt lat="-20.303445613814183" lon="119.25682362671753"><ele>24.0</ele><time>2026-04-23T07:21:59.001Z</time></trkpt><trkpt lat="-20.303327957489422" lon="119.25708216143312"><ele>24.0</ele><time>2026-04-23T07:22:00.001Z</time></trkpt><trkpt lat="-20.30322060859046" lon="119.25734292242288"><ele>24.0</ele><time>2026-04-23T07:22:01.001Z</time></trkpt><trkpt lat="-20.30312092484699" lon="119.25760371815912"><ele>24.0</ele><time>2026-04-23T07:22:02.001Z</time></trkpt><trkpt lat="-20.303035182415016" lon="119.25784910063507"><ele>24.0</ele><time>2026-04-23T07:22:03.001Z</time></trkpt><trkpt lat="-20.302955380353296" lon="119.25810123995818"><ele>24.0</ele><time>2026-04-23T07:22:04.001Z</time></trkpt><trkpt lat="-20.302880396006312" lon="119.2583670300571"><ele>24.0</ele><time>2026-04-23T07:22:05.001Z</time></trkpt><trkpt lat="-20.30280917117098" lon="119.25864488956285"><ele>24.0</ele><time>2026-04-23T07:22:06.001Z</time></trkpt><trkpt lat="-20.30274018264898" lon="119.25893220199077"><ele>24.0</ele><time>2026-04-23T07:22:07.001Z</time></trkpt><trkpt lat="-20.302675308625957" lon="119.25922665185824"><ele>24.0</ele><time>2026-04-23T07:22:08.001Z</time></trkpt><trkpt lat="-20.30262235486737" lon="119.2595234477339"><ele>24.0</ele><time>2026-04-23T07:22:09.001Z</time></trkpt><trkpt lat="-20.302582098017528" lon="119.2598204864913"><ele>24.5</ele><time>2026-04-23T07:22:10.001Z</time></trkpt><trkpt lat="-20.302549767948506" lon="119.2601218218917"><ele>25.0</ele><time>2026-04-23T07:22:11.001Z</time></trkpt><trkpt lat="-20.302523741007455" lon="119.26042475079727"><ele>24.0</ele><time>2026-04-23T07:22:12.001Z</time></trkpt><trkpt lat="-20.302500883095068" lon="119.26072609765323"><ele>23.0</ele><time>2026-04-23T07:22:13.001Z</time></trkpt><trkpt lat="-20.302481229534433" lon="119.26102710505444"><ele>23.0</ele><time>2026-04-23T07:22:14.001Z</time></trkpt><trkpt lat="-20.30244449520351" lon="119.26132659213432"><ele>23.0</ele><time>2026-04-23T07:22:15.001Z</time></trkpt><trkpt lat="-20.302436665334287" lon="119.26163368443497"><ele>23.5</ele><time>2026-04-23T07:22:16.001Z</time></trkpt><trkpt lat="-20.302410830867522" lon="119.26193503974827"><ele>24.0</ele><time>2026-04-23T07:22:17.001Z</time></trkpt><trkpt lat="-20.30238717501207" lon="119.26223516819951"><ele>25.0</ele><time>2026-04-23T07:22:18.001Z</time></trkpt><trkpt lat="-20.30236437648766" lon="119.26253761840908"><ele>26.0</ele><time>2026-04-23T07:22:19.001Z</time></trkpt><trkpt lat="-20.302340519595955" lon="119.26283737320439"><ele>25.0</ele><time>2026-04-23T07:22:20.001Z</time></trkpt><trkpt lat="-20.302314980470715" lon="119.26314052942884"><ele>24.0</ele><time>2026-04-23T07:22:21.001Z</time></trkpt><trkpt lat="-20.302290722355288" lon="119.2634447864011"><ele>24.0</ele><time>2026-04-23T07:22:22.001Z</time></trkpt><trkpt lat="-20.302265525842145" lon="119.2637500027795"><ele>24.0</ele><time>2026-04-23T07:22:23.001Z</time></trkpt><trkpt lat="-20.30224015791738" lon="119.26405189535168"><ele>25.5</ele><time>2026-04-23T07:22:24.001Z</time></trkpt><trkpt lat="-20.302214135635804" lon="119.26435526147931"><ele>27.0</ele><time>2026-04-23T07:22:25.001Z</time></trkpt><trkpt lat="-20.302188604569345" lon="119.26466251260379"><ele>26.0</ele><time>2026-04-23T07:22:26.002Z</time></trkpt><trkpt lat="-20.302165355746958" lon="119.26496708591753"><ele>25.0</ele><time>2026-04-23T07:22:27.002Z</time></trkpt><trkpt lat="-20.302140910874368" lon="119.26527498005846"><ele>25.0</ele><time>2026-04-23T07:22:28.002Z</time></trkpt><trkpt lat="-20.30211666586922" lon="119.26558211762828"><ele>25.0</ele><time>2026-04-23T07:22:29.002Z</time></trkpt><trkpt lat="-20.302090499477654" lon="119.2658881141249"><ele>25.0</ele><time>2026-04-23T07:22:30.002Z</time></trkpt><trkpt lat="-20.30206583541157" lon="119.2661993762159"><ele>25.0</ele><time>2026-04-23T07:22:31.002Z</time></trkpt><trkpt lat="-20.30204005634477" lon="119.26650921078928"><ele>24.5</ele><time>2026-04-23T07:22:32.002Z</time></trkpt><trkpt lat="-20.302015407311245" lon="119.26681953599211"><ele>24.0</ele><time>2026-04-23T07:22:33.002Z</time></trkpt><trkpt lat="-20.301990886783077" lon="119.2671322861511"><ele>24.5</ele><time>2026-04-23T07:22:34.002Z</time></trkpt><trkpt lat="-20.301965217750432" lon="119.26744347450347"><ele>25.0</ele><time>2026-04-23T07:22:35.002Z</time></trkpt><trkpt lat="-20.301939904681724" lon="119.26774938721019"><ele>25.0</ele><time>2026-04-23T07:22:36.002Z</time></trkpt><trkpt lat="-20.3019139070257" lon="119.26805561009553"><ele>25.0</ele><time>2026-04-23T07:22:37.002Z</time></trkpt><trkpt lat="-20.301887705048554" lon="119.26836138689501"><ele>25.0</ele><time>2026-04-23T07:22:38.002Z</time></trkpt><trkpt lat="-20.301862751333257" lon="119.26866777409369"><ele>25.0</ele><time>2026-04-23T07:22:39.002Z</time></trkpt><trkpt lat="-20.301839156609745" lon="119.26897326190402"><ele>25.0</ele><time>2026-04-23T07:22:40.002Z</time></trkpt><trkpt lat="-20.30181575052651" lon="119.26927700688513"><ele>25.0</ele><time>2026-04-23T07:22:41.002Z</time></trkpt><trkpt lat="-20.30179148725105" lon="119.26958084157067"><ele>24.5</ele><time>2026-04-23T07:22:42.002Z</time></trkpt><trkpt lat="-20.301768676217954" lon="119.26988227958483"><ele>24.0</ele><time>2026-04-23T07:22:43.002Z</time></trkpt><trkpt lat="-20.30174464416556" lon="119.27018460589126"><ele>24.0</ele><time>2026-04-23T07:22:44.002Z</time></trkpt><trkpt lat="-20.301719998168345" lon="119.27048681598156"><ele>24.0</ele><time>2026-04-23T07:22:45.002Z</time></trkpt><trkpt lat="-20.30169594462027" lon="119.27078773106582"><ele>25.0</ele><time>2026-04-23T07:22:46.002Z</time></trkpt><trkpt lat="-20.301671824730757" lon="119.27109160925652"><ele>26.0</ele><time>2026-04-23T07:22:47.002Z</time></trkpt><trkpt lat="-20.301648297650317" lon="119.27139667694385"><ele>25.5</ele><time>2026-04-23T07:22:48.002Z</time></trkpt><trkpt lat="-20.30162441675595" lon="119.27170568068044"><ele>25.0</ele><time>2026-04-23T07:22:49.002Z</time></trkpt><trkpt lat="-20.30160117131213" lon="119.27201514030858"><ele>25.0</ele><time>2026-04-23T07:22:50.002Z</time></trkpt><trkpt lat="-20.30157819113929" lon="119.27232544857537"><ele>25.0</ele><time>2026-04-23T07:22:51.002Z</time></trkpt><trkpt lat="-20.301553763986266" lon="119.2726405966032"><ele>25.0</ele><time>2026-04-23T07:22:52.002Z</time></trkpt><trkpt lat="-20.301529109634206" lon="119.27295380889117"><ele>25.0</ele><time>2026-04-23T07:22:53.002Z</time></trkpt><trkpt lat="-20.301503635027128" lon="119.2732710483203"><ele>25.0</ele><time>2026-04-23T07:22:54.002Z</time></trkpt><trkpt lat="-20.301476539078944" lon="119.27359196878504"><ele>25.0</ele><time>2026-04-23T07:22:55.002Z</time></trkpt><trkpt lat="-20.301447780399183" lon="119.27391401149292"><ele>26.0</ele><time>2026-04-23T07:22:56.002Z</time></trkpt><trkpt lat="-20.30141808041167" lon="119.27423424316639"><ele>27.0</ele><time>2026-04-23T07:22:57.002Z</time></trkpt><trkpt lat="-20.30138872231394" lon="119.27454872495719"><ele>28.0</ele><time>2026-04-23T07:22:58.002Z</time></trkpt><trkpt lat="-20.301365447289005" lon="119.27486299673495"><ele>29.0</ele><time>2026-04-23T07:22:59Z</time></trkpt><trkpt lat="-20.301343342873963" lon="119.27517713015486"><ele>29.0</ele><time>2026-04-23T07:23:00Z</time></trkpt><trkpt lat="-20.3013202614077" lon="119.27549057817082"><ele>29.0</ele><time>2026-04-23T07:23:01Z</time></trkpt><trkpt lat="-20.3012971509405" lon="119.27579931219502"><ele>28.5</ele><time>2026-04-23T07:23:02Z</time></trkpt><trkpt lat="-20.301272817164044" lon="119.27611195722473"><ele>28.0</ele><time>2026-04-23T07:23:03Z</time></trkpt><trkpt lat="-20.30124700657623" lon="119.27642054060942"><ele>27.5</ele><time>2026-04-23T07:23:04Z</time></trkpt><trkpt lat="-20.301219214041687" lon="119.27673028995648"><ele>27.0</ele><time>2026-04-23T07:23:05Z</time></trkpt><trkpt lat="-20.301193496446736" lon="119.2770406704115"><ele>27.0</ele><time>2026-04-23T07:23:06Z</time></trkpt><trkpt lat="-20.301168173140546" lon="119.27735072364368"><ele>27.0</ele><time>2026-04-23T07:23:07Z</time></trkpt><trkpt lat="-20.301144925798255" lon="119.27766399605973"><ele>27.0</ele><time>2026-04-23T07:23:08Z</time></trkpt><trkpt lat="-20.301122115664242" lon="119.27797925062889"><ele>27.0</ele><time>2026-04-23T07:23:09Z</time></trkpt><trkpt lat="-20.30109911223351" lon="119.27829420261935"><ele>26.5</ele><time>2026-04-23T07:23:10Z</time></trkpt><trkpt lat="-20.30107260355888" lon="119.27861215713858"><ele>26.0</ele><time>2026-04-23T07:23:11Z</time></trkpt><trkpt lat="-20.30104420837654" lon="119.27892643656219"><ele>26.0</ele><time>2026-04-23T07:23:12Z</time></trkpt><trkpt lat="-20.301015232661747" lon="119.27924358370493"><ele>26.0</ele><time>2026-04-23T07:23:13Z</time></trkpt><trkpt lat="-20.300986908083225" lon="119.27955679995875"><ele>27.0</ele><time>2026-04-23T07:23:14Z</time></trkpt><trkpt lat="-20.30095778357003" lon="119.27987161322784"><ele>28.0</ele><time>2026-04-23T07:23:15Z</time></trkpt><trkpt lat="-20.300932018428036" lon="119.28018083795008"><ele>28.0</ele><time>2026-04-23T07:23:16Z</time></trkpt><trkpt lat="-20.300907881454304" lon="119.28049314970725"><ele>28.0</ele><time>2026-04-23T07:23:17Z</time></trkpt><trkpt lat="-20.300883486874653" lon="119.28080603352245"><ele>27.5</ele><time>2026-04-23T07:23:18Z</time></trkpt><trkpt lat="-20.300861000203827" lon="119.28111925296074"><ele>27.0</ele><time>2026-04-23T07:23:19Z</time></trkpt><trkpt lat="-20.300844001341538" lon="119.28142386089533"><ele>27.0</ele><time>2026-04-23T07:23:20Z</time></trkpt><trkpt lat="-20.300833993119735" lon="119.28172826271812"><ele>27.0</ele><time>2026-04-23T07:23:21Z</time></trkpt><trkpt lat="-20.300825392924754" lon="119.28202578280741"><ele>27.0</ele><time>2026-04-23T07:23:22Z</time></trkpt><trkpt lat="-20.300824240477596" lon="119.28232303224384"><ele>27.0</ele><time>2026-04-23T07:23:23Z</time></trkpt><trkpt lat="-20.300837354591355" lon="119.28262017322142"><ele>27.0</ele><time>2026-04-23T07:23:24Z</time></trkpt><trkpt lat="-20.30086218478759" lon="119.28292586881464"><ele>27.0</ele><time>2026-04-23T07:23:25Z</time></trkpt><trkpt lat="-20.300898351545385" lon="119.28323403552533"><ele>27.0</ele><time>2026-04-23T07:23:26Z</time></trkpt><trkpt lat="-20.300942779866773" lon="119.28354112896675"><ele>27.0</ele><time>2026-04-23T07:23:27Z</time></trkpt><trkpt lat="-20.300993217134497" lon="119.28384579549433"><ele>26.5</ele><time>2026-04-23T07:23:28Z</time></trkpt><trkpt lat="-20.30105025825899" lon="119.28415335430854"><ele>26.0</ele><time>2026-04-23T07:23:29Z</time></trkpt><trkpt lat="-20.30110506259239" lon="119.28446018097014"><ele>26.0</ele><time>2026-04-23T07:23:30.001Z</time></trkpt><trkpt lat="-20.301157319033674" lon="119.28476428067697"><ele>26.0</ele><time>2026-04-23T07:23:31.001Z</time></trkpt><trkpt lat="-20.301206582528717" lon="119.28506127939897"><ele>26.0</ele><time>2026-04-23T07:23:32.001Z</time></trkpt><trkpt lat="-20.301252831848043" lon="119.2853589409802"><ele>26.0</ele><time>2026-04-23T07:23:33.001Z</time></trkpt><trkpt lat="-20.301296727939324" lon="119.28565669931831"><ele>25.5</ele><time>2026-04-23T07:23:34.001Z</time></trkpt><trkpt lat="-20.301342231674386" lon="119.28595231132402"><ele>25.0</ele><time>2026-04-23T07:23:35.001Z</time></trkpt><trkpt lat="-20.301390704249656" lon="119.28625321597282"><ele>25.5</ele><time>2026-04-23T07:23:36.001Z</time></trkpt><trkpt lat="-20.301437310040633" lon="119.28655009326532"><ele>26.0</ele><time>2026-04-23T07:23:37.001Z</time></trkpt><trkpt lat="-20.301479745155014" lon="119.28683031809332"><ele>26.0</ele><time>2026-04-23T07:23:38.001Z</time></trkpt><trkpt lat="-20.301522319498584" lon="119.28710451866608"><ele>26.0</ele><time>2026-04-23T07:23:39.001Z</time></trkpt><trkpt lat="-20.301568562352337" lon="119.28738924865296"><ele>25.0</ele><time>2026-04-23T07:23:40.001Z</time></trkpt><trkpt lat="-20.301617148229923" lon="119.28767853820953"><ele>24.0</ele><time>2026-04-23T07:23:41.001Z</time></trkpt><trkpt lat="-20.301664753532354" lon="119.28797299837714"><ele>24.5</ele><time>2026-04-23T07:23:42.001Z</time></trkpt><trkpt lat="-20.30171181273902" lon="119.28826963125098"><ele>25.0</ele><time>2026-04-23T07:23:43.001Z</time></trkpt><trkpt lat="-20.30175897138997" lon="119.28857248561832"><ele>25.0</ele><time>2026-04-23T07:23:44.001Z</time></trkpt><trkpt lat="-20.30180849092334" lon="119.28887557769129"><ele>25.0</ele><time>2026-04-23T07:23:45.001Z</time></trkpt><trkpt lat="-20.301859191719217" lon="119.28918151929064"><ele>26.0</ele><time>2026-04-23T07:23:46.001Z</time></trkpt><trkpt lat="-20.3019115779731" lon="119.28949083845032"><ele>27.0</ele><time>2026-04-23T07:23:47.001Z</time></trkpt><trkpt lat="-20.301964842041865" lon="119.28980316773894"><ele>27.0</ele><time>2026-04-23T07:23:48.001Z</time></trkpt><trkpt lat="-20.302018332187533" lon="119.29011811464639"><ele>27.0</ele><time>2026-04-23T07:23:49.001Z</time></trkpt><trkpt lat="-20.30206944224597" lon="119.2904354141039"><ele>26.5</ele><time>2026-04-23T07:23:50.001Z</time></trkpt><trkpt lat="-20.30211828209466" lon="119.29075506791824"><ele>26.0</ele><time>2026-04-23T07:23:51.001Z</time></trkpt><trkpt lat="-20.302168940558165" lon="119.29107298927696"><ele>26.0</ele><time>2026-04-23T07:23:52.001Z</time></trkpt><trkpt lat="-20.302218016683028" lon="119.29139160173702"><ele>26.0</ele><time>2026-04-23T07:23:53.001Z</time></trkpt><trkpt lat="-20.302267701426434" lon="119.29171112652132"><ele>26.0</ele><time>2026-04-23T07:23:54.001Z</time></trkpt><trkpt lat="-20.30231756565633" lon="119.29203070135404"><ele>26.0</ele><time>2026-04-23T07:23:55.001Z</time></trkpt><trkpt lat="-20.302370135680334" lon="119.29234550826285"><ele>26.0</ele><time>2026-04-23T07:23:56.001Z</time></trkpt><trkpt lat="-20.30241889444256" lon="119.2926537796469"><ele>26.0</ele><time>2026-04-23T07:23:57.001Z</time></trkpt><trkpt lat="-20.30246569494605" lon="119.292959980009"><ele>26.5</ele><time>2026-04-23T07:23:58.001Z</time></trkpt><trkpt lat="-20.302514178789778" lon="119.29326575629106"><ele>27.0</ele><time>2026-04-23T07:23:59.001Z</time></trkpt><trkpt lat="-20.30256383383412" lon="119.29356939047774"><ele>27.0</ele><time>2026-04-23T07:24:00.001Z</time></trkpt><trkpt lat="-20.302615705117418" lon="119.29387994643025"><ele>27.0</ele><time>2026-04-23T07:24:01.001Z</time></trkpt><trkpt lat="-20.302667430993484" lon="119.29418881469644"><ele>27.5</ele><time>2026-04-23T07:24:02.001Z</time></trkpt><trkpt lat="-20.302722224807333" lon="119.29450150741661"><ele>28.0</ele><time>2026-04-23T07:24:03.001Z</time></trkpt><trkpt lat="-20.30278049435582" lon="119.29480791819284"><ele>28.0</ele><time>2026-04-23T07:24:04.001Z</time></trkpt><trkpt lat="-20.30283413539283" lon="119.29511475461184"><ele>28.0</ele><time>2026-04-23T07:24:05.001Z</time></trkpt><trkpt lat="-20.30288206232568" lon="119.29542471042662"><ele>26.0</ele><time>2026-04-23T07:24:06.001Z</time></trkpt><trkpt lat="-20.30292316800852" lon="119.29573567887829"><ele>24.0</ele><time>2026-04-23T07:24:07.001Z</time></trkpt><trkpt lat="-20.302963272045556" lon="119.2960432490322"><ele>24.0</ele><time>2026-04-23T07:24:08.001Z</time></trkpt><trkpt lat="-20.30300600756591" lon="119.29634750623364"><ele>24.0</ele><time>2026-04-23T07:24:09.001Z</time></trkpt><trkpt lat="-20.303053586448538" lon="119.29665165550288"><ele>25.0</ele><time>2026-04-23T07:24:10.001Z</time></trkpt><trkpt lat="-20.30310513681954" lon="119.29695409515148"><ele>26.0</ele><time>2026-04-23T07:24:11.001Z</time></trkpt><trkpt lat="-20.30315602986313" lon="119.29725897168183"><ele>26.5</ele><time>2026-04-23T07:24:12.001Z</time></trkpt><trkpt lat="-20.303207617472623" lon="119.29756217035907"><ele>27.0</ele><time>2026-04-23T07:24:13.001Z</time></trkpt><trkpt lat="-20.303259009793056" lon="119.29786959293679"><ele>27.0</ele><time>2026-04-23T07:24:14.001Z</time></trkpt><trkpt lat="-20.303307339295078" lon="119.29817230509869"><ele>27.0</ele><time>2026-04-23T07:24:15.001Z</time></trkpt><trkpt lat="-20.303356119386613" lon="119.29847502721225"><ele>27.0</ele><time>2026-04-23T07:24:16.001Z</time></trkpt><trkpt lat="-20.303406415712526" lon="119.29877689631859"><ele>27.0</ele><time>2026-04-23T07:24:17.001Z</time></trkpt><trkpt lat="-20.303455983242664" lon="119.29907512242578"><ele>27.0</ele><time>2026-04-23T07:24:18.001Z</time></trkpt><trkpt lat="-20.303505086121394" lon="119.29937844802083"><ele>27.0</ele><time>2026-04-23T07:24:19.001Z</time></trkpt><trkpt lat="-20.303553826445583" lon="119.29967683594188"><ele>26.0</ele><time>2026-04-23T07:24:20.001Z</time></trkpt><trkpt lat="-20.30360316459426" lon="119.29997151108478"><ele>25.0</ele><time>2026-04-23T07:24:21.001Z</time></trkpt><trkpt lat="-20.30365240948448" lon="119.3002652348806"><ele>25.0</ele><time>2026-04-23T07:24:22.001Z</time></trkpt><trkpt lat="-20.3037036079604" lon="119.30056080930912"><ele>25.0</ele><time>2026-04-23T07:24:23.001Z</time></trkpt><trkpt lat="-20.30375374332054" lon="119.3008596653803"><ele>26.0</ele><time>2026-04-23T07:24:24.001Z</time></trkpt><trkpt lat="-20.3038030903919" lon="119.30116351580165"><ele>27.0</ele><time>2026-04-23T07:24:25.001Z</time></trkpt><trkpt lat="-20.303852741263224" lon="119.3014689906044"><ele>27.0</ele><time>2026-04-23T07:24:26.001Z</time></trkpt><trkpt lat="-20.303902524944302" lon="119.30177467213599"><ele>27.0</ele><time>2026-04-23T07:24:27.001Z</time></trkpt><trkpt lat="-20.303951711410853" lon="119.30208276184351"><ele>27.0</ele><time>2026-04-23T07:24:28.001Z</time></trkpt><trkpt lat="-20.30399961484816" lon="119.30238644989099"><ele>27.0</ele><time>2026-04-23T07:24:29.001Z</time></trkpt><trkpt lat="-20.304044995505215" lon="119.3026895403322"><ele>27.0</ele><time>2026-04-23T07:24:30.001Z</time></trkpt><trkpt lat="-20.304092183377016" lon="119.30298801408519"><ele>27.0</ele><time>2026-04-23T07:24:31.001Z</time></trkpt><trkpt lat="-20.304140119208043" lon="119.30328409177925"><ele>27.0</ele><time>2026-04-23T07:24:32.001Z</time></trkpt><trkpt lat="-20.304187247385787" lon="119.30358022820133"><ele>27.0</ele><time>2026-04-23T07:24:33.001Z</time></trkpt><trkpt lat="-20.30423545722915" lon="119.30388344242759"><ele>27.5</ele><time>2026-04-23T07:24:34.001Z</time></trkpt><trkpt lat="-20.304283132889513" lon="119.30418908187596"><ele>28.0</ele><time>2026-04-23T07:24:35.001Z</time></trkpt><trkpt lat="-20.304333188725334" lon="119.30450339211374"><ele>28.0</ele><time>2026-04-23T07:24:36.001Z</time></trkpt><trkpt lat="-20.304385594659994" lon="119.30482151089994"><ele>28.0</ele><time>2026-04-23T07:24:37.002Z</time></trkpt><trkpt lat="-20.304439330245422" lon="119.30514886400493"><ele>28.0</ele><time>2026-04-23T07:24:38.002Z</time></trkpt><trkpt lat="-20.30449057448821" lon="119.30547242597217"><ele>28.0</ele><time>2026-04-23T07:24:39.002Z</time></trkpt><trkpt lat="-20.304541486062" lon="119.30579284527519"><ele>27.5</ele><time>2026-04-23T07:24:40.002Z</time></trkpt><trkpt lat="-20.30459258323422" lon="119.30610990725286"><ele>27.0</ele><time>2026-04-23T07:24:41.002Z</time></trkpt><trkpt lat="-20.30464485972654" lon="119.3064297045482"><ele>26.5</ele><time>2026-04-23T07:24:42.002Z</time></trkpt><trkpt lat="-20.304697864875024" lon="119.30675057808317"><ele>26.0</ele><time>2026-04-23T07:24:43.002Z</time></trkpt><trkpt lat="-20.304747630004165" lon="119.30707161670126"><ele>27.0</ele><time>2026-04-23T07:24:44.002Z</time></trkpt><trkpt lat="-20.30479676457298" lon="119.30739697508717"><ele>28.0</ele><time>2026-04-23T07:24:45.002Z</time></trkpt><trkpt lat="-20.304847818491204" lon="119.30771996346472"><ele>28.0</ele><time>2026-04-23T07:24:46.002Z</time></trkpt><trkpt lat="-20.304904271336873" lon="119.30805187392362"><ele>28.0</ele><time>2026-04-23T07:24:47.002Z</time></trkpt><trkpt lat="-20.304962180293984" lon="119.30838463977852"><ele>28.0</ele><time>2026-04-23T07:24:48.002Z</time></trkpt><trkpt lat="-20.30501932444016" lon="119.30871421779743"><ele>28.0</ele><time>2026-04-23T07:24:49.002Z</time></trkpt><trkpt lat="-20.30507399658121" lon="119.30903635072795"><ele>28.0</ele><time>2026-04-23T07:24:50.002Z</time></trkpt><trkpt lat="-20.305127801446787" lon="119.30935706317656"><ele>28.0</ele><time>2026-04-23T07:24:51.002Z</time></trkpt><trkpt lat="-20.305178922179103" lon="119.3096753112375"><ele>27.5</ele><time>2026-04-23T07:24:52.002Z</time></trkpt><trkpt lat="-20.305228784638146" lon="119.3099927089949"><ele>27.0</ele><time>2026-04-23T07:24:53.002Z</time></trkpt><trkpt lat="-20.30528003741239" lon="119.31031413358834"><ele>27.0</ele><time>2026-04-23T07:24:54.002Z</time></trkpt><trkpt lat="-20.30533047591375" lon="119.31063334162961"><ele>27.0</ele><time>2026-04-23T07:24:55.002Z</time></trkpt><trkpt lat="-20.30538157126311" lon="119.3109563181905"><ele>27.0</ele><time>2026-04-23T07:24:56.002Z</time></trkpt><trkpt lat="-20.30543139979176" lon="119.3112745198245"><ele>27.0</ele><time>2026-04-23T07:24:57.002Z</time></trkpt><trkpt lat="-20.30548186170089" lon="119.31159145379702"><ele>27.0</ele><time>2026-04-23T07:24:58.002Z</time></trkpt><trkpt lat="-20.305532578329554" lon="119.31190879757294"><ele>27.0</ele><time>2026-04-23T07:24:59.002Z</time></trkpt><trkpt lat="-20.305584134496947" lon="119.31222179402396"><ele>26.5</ele><time>2026-04-23T07:25:00.002Z</time></trkpt><trkpt lat="-20.305632802519106" lon="119.3125341819819"><ele>26.0</ele><time>2026-04-23T07:25:01.002Z</time></trkpt><trkpt lat="-20.3056815347994" lon="119.31284145975846"><ele>27.0</ele><time>2026-04-23T07:25:02.002Z</time></trkpt><trkpt lat="-20.305730050826185" lon="119.31314526084856"><ele>28.0</ele><time>2026-04-23T07:25:03.002Z</time></trkpt><trkpt lat="-20.305778166017614" lon="119.31345099543724"><ele>28.0</ele><time>2026-04-23T07:25:04.002Z</time></trkpt><trkpt lat="-20.30582640847775" lon="119.31376037735932"><ele>28.0</ele><time>2026-04-23T07:25:05Z</time></trkpt><trkpt lat="-20.30587583775267" lon="119.31406603960781"><ele>28.0</ele><time>2026-04-23T07:25:06Z</time></trkpt><trkpt lat="-20.30592333847645" lon="119.31436564658623"><ele>28.0</ele><time>2026-04-23T07:25:07Z</time></trkpt><trkpt lat="-20.305965919487438" lon="119.3146634254557"><ele>27.5</ele><time>2026-04-23T07:25:08Z</time></trkpt><trkpt lat="-20.305999057889547" lon="119.31496638468509"><ele>27.0</ele><time>2026-04-23T07:25:09Z</time></trkpt><trkpt lat="-20.306025683172773" lon="119.31527640749707"><ele>27.5</ele><time>2026-04-23T07:25:10Z</time></trkpt><trkpt lat="-20.306044408862125" lon="119.31559611342222"><ele>28.0</ele><time>2026-04-23T07:25:11Z</time></trkpt><trkpt lat="-20.306057053110287" lon="119.31592097886"><ele>28.0</ele><time>2026-04-23T07:25:12Z</time></trkpt><trkpt lat="-20.306065415996272" lon="119.31624344243671"><ele>28.0</ele><time>2026-04-23T07:25:13Z</time></trkpt><trkpt lat="-20.306069743778522" lon="119.31656541813204"><ele>27.0</ele><time>2026-04-23T07:25:14Z</time></trkpt><trkpt lat="-20.306075522324736" lon="119.3168772386891"><ele>26.0</ele><time>2026-04-23T07:25:15Z</time></trkpt><trkpt lat="-20.30608643504196" lon="119.31718712071613"><ele>26.5</ele><time>2026-04-23T07:25:16Z</time></trkpt><trkpt lat="-20.30609936685141" lon="119.31748402605285"><ele>27.0</ele><time>2026-04-23T07:25:17Z</time></trkpt><trkpt lat="-20.30611297693477" lon="119.31777938227019"><ele>27.5</ele><time>2026-04-23T07:25:18Z</time></trkpt><trkpt lat="-20.306128450157885" lon="119.31807487127774"><ele>28.0</ele><time>2026-04-23T07:25:19Z</time></trkpt><trkpt lat="-20.306144447523174" lon="119.31837055445119"><ele>28.0</ele><time>2026-04-23T07:25:20Z</time></trkpt><trkpt lat="-20.30615947864753" lon="119.3186649895904"><ele>28.0</ele><time>2026-04-23T07:25:21Z</time></trkpt><trkpt lat="-20.306168611135593" lon="119.31896543115133"><ele>27.0</ele><time>2026-04-23T07:25:22Z</time></trkpt><trkpt lat="-20.30617696056135" lon="119.3192690506094"><ele>26.0</ele><time>2026-04-23T07:25:23Z</time></trkpt><trkpt lat="-20.306183600229968" lon="119.31957297882005"><ele>26.5</ele><time>2026-04-23T07:25:24Z</time></trkpt><trkpt lat="-20.306193094742866" lon="119.31987940206449"><ele>27.0</ele><time>2026-04-23T07:25:25Z</time></trkpt><trkpt lat="-20.306204474485448" lon="119.32018301106051"><ele>27.0</ele><time>2026-04-23T07:25:26Z</time></trkpt><trkpt lat="-20.306215592717574" lon="119.32049187842762"><ele>27.0</ele><time>2026-04-23T07:25:27Z</time></trkpt><trkpt lat="-20.306227533779328" lon="119.32080041564193"><ele>27.0</ele><time>2026-04-23T07:25:28Z</time></trkpt><trkpt lat="-20.306239796379746" lon="119.32111143859164"><ele>27.0</ele><time>2026-04-23T07:25:29Z</time></trkpt><trkpt lat="-20.30625070314648" lon="119.32142034463135"><ele>27.0</ele><time>2026-04-23T07:25:30Z</time></trkpt><trkpt lat="-20.30626119627921" lon="119.32173311286066"><ele>27.0</ele><time>2026-04-23T07:25:31Z</time></trkpt><trkpt lat="-20.306274851640225" lon="119.32204006069739"><ele>26.5</ele><time>2026-04-23T07:25:32Z</time></trkpt><trkpt lat="-20.306286824760786" lon="119.32234658850554"><ele>26.0</ele><time>2026-04-23T07:25:33Z</time></trkpt><trkpt lat="-20.306296186864685" lon="119.3226582069573"><ele>26.0</ele><time>2026-04-23T07:25:34.001Z</time></trkpt><trkpt lat="-20.30630568366319" lon="119.32296440192222"><ele>26.0</ele><time>2026-04-23T07:25:35.001Z</time></trkpt><trkpt lat="-20.306313421103873" lon="119.32324821226766"><ele>26.0</ele><time>2026-04-23T07:25:36.001Z</time></trkpt><trkpt lat="-20.306323196277262" lon="119.32353405027341"><ele>26.0</ele><time>2026-04-23T07:25:37.001Z</time></trkpt><trkpt lat="-20.30633378011443" lon="119.32383317120943"><ele>25.5</ele><time>2026-04-23T07:25:38.001Z</time></trkpt><trkpt lat="-20.30634845908463" lon="119.32413142345659"><ele>25.0</ele><time>2026-04-23T07:25:39.001Z</time></trkpt><trkpt lat="-20.306362621828043" lon="119.32443180112278"><ele>25.0</ele><time>2026-04-23T07:25:40.001Z</time></trkpt><trkpt lat="-20.306373942770215" lon="119.3247311535759"><ele>25.0</ele><time>2026-04-23T07:25:41.001Z</time></trkpt><trkpt lat="-20.306383117856626" lon="119.32502844656386"><ele>25.0</ele><time>2026-04-23T07:25:42.001Z</time></trkpt><trkpt lat="-20.30639210398811" lon="119.3253271598361"><ele>25.0</ele><time>2026-04-23T07:25:43.001Z</time></trkpt><trkpt lat="-20.306403270021374" lon="119.3256256919585"><ele>26.0</ele><time>2026-04-23T07:25:44.001Z</time></trkpt><trkpt lat="-20.306415318077207" lon="119.32592480234469"><ele>27.0</ele><time>2026-04-23T07:25:45.001Z</time></trkpt><trkpt lat="-20.30642589109731" lon="119.3262266530807"><ele>28.0</ele><time>2026-04-23T07:25:46.001Z</time></trkpt><trkpt lat="-20.306438863271097" lon="119.32652737393299"><ele>29.0</ele><time>2026-04-23T07:25:47.001Z</time></trkpt><trkpt lat="-20.30645315266037" lon="119.32683050723857"><ele>29.0</ele><time>2026-04-23T07:25:48.001Z</time></trkpt><trkpt lat="-20.30646652339455" lon="119.32713515089404"><ele>29.0</ele><time>2026-04-23T07:25:49.001Z</time></trkpt><trkpt lat="-20.306481909567907" lon="119.32744299674675"><ele>28.5</ele><time>2026-04-23T07:25:50.001Z</time></trkpt><trkpt lat="-20.3064960663454" lon="119.32775676967378"><ele>28.0</ele><time>2026-04-23T07:25:51.001Z</time></trkpt><trkpt lat="-20.306509859902853" lon="119.32806901375407"><ele>27.0</ele><time>2026-04-23T07:25:52.001Z</time></trkpt><trkpt lat="-20.30652119523466" lon="119.32838827027453"><ele>26.0</ele><time>2026-04-23T07:25:53.001Z</time></trkpt><trkpt lat="-20.306533171348406" lon="119.32870603331791"><ele>26.0</ele><time>2026-04-23T07:25:54.001Z</time></trkpt><trkpt lat="-20.306540222497333" lon="119.32902871938394"><ele>26.0</ele><time>2026-04-23T07:25:55.001Z</time></trkpt><trkpt lat="-20.306544858361843" lon="119.32935545467014"><ele>26.0</ele><time>2026-04-23T07:25:56.001Z</time></trkpt><trkpt lat="-20.306552999616603" lon="119.3296821426507"><ele>26.0</ele><time>2026-04-23T07:25:57.001Z</time></trkpt><trkpt lat="-20.30656306974106" lon="119.3300015728348"><ele>26.5</ele><time>2026-04-23T07:25:58.001Z</time></trkpt><trkpt lat="-20.306578374121344" lon="119.33031977176414"><ele>27.0</ele><time>2026-04-23T07:25:59.001Z</time></trkpt><trkpt lat="-20.306594843940264" lon="119.330631716351"><ele>26.0</ele><time>2026-04-23T07:26:00.001Z</time></trkpt><trkpt lat="-20.306607488984692" lon="119.33093493280187"><ele>25.0</ele><time>2026-04-23T07:26:01.001Z</time></trkpt><trkpt lat="-20.30662126582539" lon="119.33123883088234"><ele>25.5</ele><time>2026-04-23T07:26:02.001Z</time></trkpt><trkpt lat="-20.30663371004046" lon="119.33154139711685"><ele>26.0</ele><time>2026-04-23T07:26:03.001Z</time></trkpt><trkpt lat="-20.306645955031133" lon="119.33184466267573"><ele>26.0</ele><time>2026-04-23T07:26:04.001Z</time></trkpt><trkpt lat="-20.306657531784545" lon="119.33214926598176"><ele>26.0</ele><time>2026-04-23T07:26:05.001Z</time></trkpt><trkpt lat="-20.306666585156044" lon="119.33245433181533"><ele>26.0</ele><time>2026-04-23T07:26:06.001Z</time></trkpt><trkpt lat="-20.3066754737515" lon="119.33276355445757"><ele>26.0</ele><time>2026-04-23T07:26:07.001Z</time></trkpt><trkpt lat="-20.30668686754696" lon="119.33307280005242"><ele>27.0</ele><time>2026-04-23T07:26:08.001Z</time></trkpt><trkpt lat="-20.30669978608269" lon="119.33338282333385"><ele>28.0</ele><time>2026-04-23T07:26:09.001Z</time></trkpt><trkpt lat="-20.306708911503772" lon="119.33369524691855"><ele>27.5</ele><time>2026-04-23T07:26:10.001Z</time></trkpt><trkpt lat="-20.306720131721622" lon="119.33401022650852"><ele>27.0</ele><time>2026-04-23T07:26:11.001Z</time></trkpt><trkpt lat="-20.306733700704164" lon="119.3343244371075"><ele>27.0</ele><time>2026-04-23T07:26:12.001Z</time></trkpt><trkpt lat="-20.30674845859806" lon="119.33463866406761"><ele>27.0</ele><time>2026-04-23T07:26:13.001Z</time></trkpt><trkpt lat="-20.306760287412416" lon="119.33495154661546"><ele>27.0</ele><time>2026-04-23T07:26:14.001Z</time></trkpt><trkpt lat="-20.306771084399493" lon="119.33527797732327"><ele>27.0</ele><time>2026-04-23T07:26:15.001Z</time></trkpt><trkpt lat="-20.306781750980374" lon="119.33560574219335"><ele>27.0</ele><time>2026-04-23T07:26:16.001Z</time></trkpt><trkpt lat="-20.306793207491065" lon="119.33592447612718"><ele>27.0</ele><time>2026-04-23T07:26:17.001Z</time></trkpt><trkpt lat="-20.30680498907085" lon="119.33624647271495"><ele>26.5</ele><time>2026-04-23T07:26:18.001Z</time></trkpt><trkpt lat="-20.306817341809076" lon="119.33656121618299"><ele>26.0</ele><time>2026-04-23T07:26:19.001Z</time></trkpt><trkpt lat="-20.30683058275668" lon="119.33687563923569"><ele>26.0</ele><time>2026-04-23T07:26:20.001Z</time></trkpt><trkpt lat="-20.306844591383893" lon="119.33719544522886"><ele>26.0</ele><time>2026-04-23T07:26:21.001Z</time></trkpt><trkpt lat="-20.30685649806928" lon="119.33751740675842"><ele>26.0</ele><time>2026-04-23T07:26:22.001Z</time></trkpt><trkpt lat="-20.30686841011355" lon="119.33783603303421"><ele>26.0</ele><time>2026-04-23T07:26:23.001Z</time></trkpt><trkpt lat="-20.30687914758649" lon="119.33814953984454"><ele>26.5</ele><time>2026-04-23T07:26:24.001Z</time></trkpt><trkpt lat="-20.30688961114301" lon="119.33845776262108"><ele>27.0</ele><time>2026-04-23T07:26:25.001Z</time></trkpt><trkpt lat="-20.306900232046754" lon="119.33876896254424"><ele>27.0</ele><time>2026-04-23T07:26:26.001Z</time></trkpt><trkpt lat="-20.30691177987257" lon="119.33907822279933"><ele>27.0</ele><time>2026-04-23T07:26:27.001Z</time></trkpt><trkpt lat="-20.306925851880784" lon="119.33938670655846"><ele>27.0</ele><time>2026-04-23T07:26:28.001Z</time></trkpt><trkpt lat="-20.306939264554565" lon="119.33969605563851"><ele>27.0</ele><time>2026-04-23T07:26:29.001Z</time></trkpt><trkpt lat="-20.306949603380918" lon="119.34000285308682"><ele>27.0</ele><time>2026-04-23T07:26:30.001Z</time></trkpt><trkpt lat="-20.306959494968545" lon="119.34030837373042"><ele>27.0</ele><time>2026-04-23T07:26:31.001Z</time></trkpt><trkpt lat="-20.306969447837773" lon="119.3406121386353"><ele>27.0</ele><time>2026-04-23T07:26:32.001Z</time></trkpt><trkpt lat="-20.306978750043154" lon="119.34091663664073"><ele>27.0</ele><time>2026-04-23T07:26:33.001Z</time></trkpt><trkpt lat="-20.306989827879743" lon="119.34122228734444"><ele>27.5</ele><time>2026-04-23T07:26:34.001Z</time></trkpt><trkpt lat="-20.30700401623397" lon="119.34152923060434"><ele>28.0</ele><time>2026-04-23T07:26:35.001Z</time></trkpt><trkpt lat="-20.307017022734385" lon="119.34183924072039"><ele>28.0</ele><time>2026-04-23T07:26:36.001Z</time></trkpt><trkpt lat="-20.30702834365296" lon="119.34215242621401"><ele>28.0</ele><time>2026-04-23T07:26:37.001Z</time></trkpt><trkpt lat="-20.307041327815657" lon="119.34246392768091"><ele>28.0</ele><time>2026-04-23T07:26:38.001Z</time></trkpt><trkpt lat="-20.307054539768924" lon="119.34277734923052"><ele>28.0</ele><time>2026-04-23T07:26:39.001Z</time></trkpt><trkpt lat="-20.30706810723013" lon="119.3430944932461"><ele>28.0</ele><time>2026-04-23T07:26:40.001Z</time></trkpt><trkpt lat="-20.307081464769034" lon="119.34341706288573"><ele>28.0</ele><time>2026-04-23T07:26:41.002Z</time></trkpt><trkpt lat="-20.307093085705414" lon="119.34373864622282"><ele>28.5</ele><time>2026-04-23T07:26:42.002Z</time></trkpt><trkpt lat="-20.307104312659927" lon="119.3440623531526"><ele>29.0</ele><time>2026-04-23T07:26:43.002Z</time></trkpt><trkpt lat="-20.307114583718175" lon="119.34438537196378"><ele>29.0</ele><time>2026-04-23T07:26:44.002Z</time></trkpt><trkpt lat="-20.307125900182402" lon="119.3447078099592"><ele>29.0</ele><time>2026-04-23T07:26:45.002Z</time></trkpt><trkpt lat="-20.307140872133015" lon="119.34503219646083"><ele>29.0</ele><time>2026-04-23T07:26:46.002Z</time></trkpt><trkpt lat="-20.307154586165634" lon="119.34535700471915"><ele>29.0</ele><time>2026-04-23T07:26:47.002Z</time></trkpt><trkpt lat="-20.307168132124275" lon="119.34568160142877"><ele>29.0</ele><time>2026-04-23T07:26:48.002Z</time></trkpt><trkpt lat="-20.30718208152483" lon="119.34600703444899"><ele>29.0</ele><time>2026-04-23T07:26:49.002Z</time></trkpt><trkpt lat="-20.30719712999313" lon="119.34633901276823"><ele>29.0</ele><time>2026-04-23T07:26:50.002Z</time></trkpt><trkpt lat="-20.307210875742577" lon="119.34667070580447"><ele>29.0</ele><time>2026-04-23T07:26:51.002Z</time></trkpt><trkpt lat="-20.307221644577375" lon="119.34700778059516"><ele>29.0</ele><time>2026-04-23T07:26:52.002Z</time></trkpt><trkpt lat="-20.307232163917252" lon="119.34735314393872"><ele>29.0</ele><time>2026-04-23T07:26:53.002Z</time></trkpt><trkpt lat="-20.307241133485366" lon="119.34770718397094"><ele>28.5</ele><time>2026-04-23T07:26:54.002Z</time></trkpt><trkpt lat="-20.30725080019768" lon="119.34805759072285"><ele>28.0</ele><time>2026-04-23T07:26:55.002Z</time></trkpt><trkpt lat="-20.30726204738903" lon="119.34840953443191"><ele>28.0</ele><time>2026-04-23T07:26:56.002Z</time></trkpt><trkpt lat="-20.30727469204147" lon="119.3487612359468"><ele>28.0</ele><time>2026-04-23T07:26:57.002Z</time></trkpt><trkpt lat="-20.30728789798743" lon="119.34910872166157"><ele>28.0</ele><time>2026-04-23T07:26:58.002Z</time></trkpt><trkpt lat="-20.307298833157304" lon="119.34945778140501"><ele>28.0</ele><time>2026-04-23T07:26:59.002Z</time></trkpt><trkpt lat="-20.307311286389957" lon="119.34979648388894"><ele>27.5</ele><time>2026-04-23T07:27:00.002Z</time></trkpt><trkpt lat="-20.307324254414475" lon="119.3501309245076"><ele>27.0</ele><time>2026-04-23T07:27:01.002Z</time></trkpt><trkpt lat="-20.30733628366179" lon="119.35046071002934"><ele>27.5</ele><time>2026-04-23T07:27:02.002Z</time></trkpt><trkpt lat="-20.30734851321366" lon="119.35078530073662"><ele>28.0</ele><time>2026-04-23T07:27:03.002Z</time></trkpt><trkpt lat="-20.30736218190806" lon="119.35110580963693"><ele>28.0</ele><time>2026-04-23T07:27:04.002Z</time></trkpt><trkpt lat="-20.307375247598536" lon="119.35142293166737"><ele>28.0</ele><time>2026-04-23T07:27:05.002Z</time></trkpt><trkpt lat="-20.30738739235118" lon="119.35173867836077"><ele>28.0</ele><time>2026-04-23T07:27:06.002Z</time></trkpt><trkpt lat="-20.307400584185764" lon="119.35205109295438"><ele>28.0</ele><time>2026-04-23T07:27:07.002Z</time></trkpt><trkpt lat="-20.3074128752266" lon="119.35236147648442"><ele>28.0</ele><time>2026-04-23T07:27:08.002Z</time></trkpt><trkpt lat="-20.307425802311133" lon="119.35268187150666"><ele>28.0</ele><time>2026-04-23T07:27:09.002Z</time></trkpt><trkpt lat="-20.307437586604763" lon="119.35299727921847"><ele>28.0</ele><time>2026-04-23T07:27:10.002Z</time></trkpt><trkpt lat="-20.307449229480397" lon="119.35330879368344"><ele>28.0</ele><time>2026-04-23T07:27:11Z</time></trkpt><trkpt lat="-20.307460289835248" lon="119.35361492976196"><ele>27.5</ele><time>2026-04-23T07:27:12Z</time></trkpt><trkpt lat="-20.307470942779037" lon="119.35391858732967"><ele>27.0</ele><time>2026-04-23T07:27:13Z</time></trkpt><trkpt lat="-20.307481745787065" lon="119.35423095902854"><ele>27.0</ele><time>2026-04-23T07:27:14Z</time></trkpt><trkpt lat="-20.307493100174966" lon="119.35453970592827"><ele>27.0</ele><time>2026-04-23T07:27:15Z</time></trkpt><trkpt lat="-20.307504040772674" lon="119.35484969421208"><ele>28.0</ele><time>2026-04-23T07:27:16Z</time></trkpt><trkpt lat="-20.307516208679466" lon="119.35515964985406"><ele>29.0</ele><time>2026-04-23T07:27:17Z</time></trkpt><trkpt lat="-20.307528669584347" lon="119.35546895717488"><ele>28.5</ele><time>2026-04-23T07:27:18Z</time></trkpt><trkpt lat="-20.307540832912622" lon="119.3557731712946"><ele>28.0</ele><time>2026-04-23T07:27:19Z</time></trkpt><trkpt lat="-20.30755282051374" lon="119.35607525172944"><ele>29.0</ele><time>2026-04-23T07:27:20Z</time></trkpt><trkpt lat="-20.30756689244075" lon="119.35637491114639"><ele>30.0</ele><time>2026-04-23T07:27:21Z</time></trkpt><trkpt lat="-20.30757897943673" lon="119.35666781719387"><ele>30.0</ele><time>2026-04-23T07:27:22Z</time></trkpt><trkpt lat="-20.30758931099452" lon="119.35696040967134"><ele>30.0</ele><time>2026-04-23T07:27:23Z</time></trkpt><trkpt lat="-20.307599260626958" lon="119.35725088816987"><ele>29.0</ele><time>2026-04-23T07:27:24Z</time></trkpt><trkpt lat="-20.30761726634227" lon="119.35753770623307"><ele>28.0</ele><time>2026-04-23T07:27:25Z</time></trkpt><trkpt lat="-20.307632325349207" lon="119.35782479608068"><ele>29.5</ele><time>2026-04-23T07:27:26Z</time></trkpt><trkpt lat="-20.30764797258418" lon="119.35811315491839"><ele>31.0</ele><time>2026-04-23T07:27:27.001Z</time></trkpt><trkpt lat="-20.30766113007623" lon="119.35839991039641"><ele>31.0</ele><time>2026-04-23T07:27:28.001Z</time></trkpt><trkpt lat="-20.307671256817496" lon="119.3586934438515"><ele>31.0</ele><time>2026-04-23T07:27:29.001Z</time></trkpt><trkpt lat="-20.3076831120136" lon="119.35898411981773"><ele>30.0</ele><time>2026-04-23T07:27:30.001Z</time></trkpt><trkpt lat="-20.307701417756483" lon="119.35927370757702"><ele>29.0</ele><time>2026-04-23T07:27:31.001Z</time></trkpt><trkpt lat="-20.307734002277" lon="119.35956032638613"><ele>29.0</ele><time>2026-04-23T07:27:32.001Z</time></trkpt><trkpt lat="-20.30777493484572" lon="119.35984794425181"><ele>29.0</ele><time>2026-04-23T07:27:33.001Z</time></trkpt><trkpt lat="-20.307818813562132" lon="119.36013956240804"><ele>29.0</ele><time>2026-04-23T07:27:34.001Z</time></trkpt><trkpt lat="-20.307864435361804" lon="119.36042856055799"><ele>29.0</ele><time>2026-04-23T07:27:35.001Z</time></trkpt><trkpt lat="-20.307909146373905" lon="119.36071617174888"><ele>29.0</ele><time>2026-04-23T07:27:36.001Z</time></trkpt><trkpt lat="-20.307948289790914" lon="119.361003476684"><ele>29.0</ele><time>2026-04-23T07:27:37.001Z</time></trkpt><trkpt lat="-20.307982554129705" lon="119.36129129835074"><ele>29.0</ele><time>2026-04-23T07:27:38.001Z</time></trkpt><trkpt lat="-20.30801712121029" lon="119.36157430211989"><ele>29.0</ele><time>2026-04-23T07:27:39.001Z</time></trkpt><trkpt lat="-20.308053754514237" lon="119.36185916205025"><ele>28.5</ele><time>2026-04-23T07:27:40.001Z</time></trkpt><trkpt lat="-20.30809074362869" lon="119.36214136858496"><ele>28.0</ele><time>2026-04-23T07:27:41.001Z</time></trkpt><trkpt lat="-20.308127581853523" lon="119.36242118777683"><ele>27.5</ele><time>2026-04-23T07:27:42.001Z</time></trkpt><trkpt lat="-20.30816534535823" lon="119.36269604175982"><ele>27.0</ele><time>2026-04-23T07:27:43.001Z</time></trkpt><trkpt lat="-20.30820457989911" lon="119.36296632409204"><ele>28.0</ele><time>2026-04-23T07:27:44.001Z</time></trkpt><trkpt lat="-20.308244443936132" lon="119.36323499691524"><ele>29.0</ele><time>2026-04-23T07:27:45.001Z</time></trkpt><trkpt lat="-20.30827943148573" lon="119.3634913417425"><ele>29.0</ele><time>2026-04-23T07:27:46.001Z</time></trkpt><trkpt lat="-20.308308868654304" lon="119.3637337741243"><ele>29.0</ele><time>2026-04-23T07:27:47.001Z</time></trkpt><trkpt lat="-20.308340538904822" lon="119.36397705749161"><ele>29.0</ele><time>2026-04-23T07:27:48.001Z</time></trkpt><trkpt lat="-20.3083744378145" lon="119.36422921924931"><ele>29.0</ele><time>2026-04-23T07:27:49.001Z</time></trkpt><trkpt lat="-20.308409753337227" lon="119.3644889721595"><ele>29.5</ele><time>2026-04-23T07:27:50.001Z</time></trkpt><trkpt lat="-20.30844436116977" lon="119.36474888657254"><ele>30.0</ele><time>2026-04-23T07:27:51.001Z</time></trkpt><trkpt lat="-20.30847866720753" lon="119.3650121339268"><ele>30.0</ele><time>2026-04-23T07:27:52.001Z</time></trkpt><trkpt lat="-20.308515809616985" lon="119.3652825750039"><ele>30.0</ele><time>2026-04-23T07:27:53.001Z</time></trkpt><trkpt lat="-20.308553906322736" lon="119.36555233246644"><ele>30.0</ele><time>2026-04-23T07:27:54.001Z</time></trkpt><trkpt lat="-20.3085946895038" lon="119.3658233232113"><ele>30.0</ele><time>2026-04-23T07:27:55.001Z</time></trkpt><trkpt lat="-20.30863368038652" lon="119.3660951218015"><ele>30.0</ele><time>2026-04-23T07:27:56.001Z</time></trkpt><trkpt lat="-20.308669511648343" lon="119.36637051413508"><ele>30.0</ele><time>2026-04-23T07:27:57.001Z</time></trkpt><trkpt lat="-20.308704991124653" lon="119.36664540873109"><ele>30.0</ele><time>2026-04-23T07:27:58.001Z</time></trkpt><trkpt lat="-20.308741056480873" lon="119.3669225985931"><ele>30.0</ele><time>2026-04-23T07:27:59.001Z</time></trkpt><trkpt lat="-20.30877782493754" lon="119.36719723419446"><ele>29.0</ele><time>2026-04-23T07:28:00.001Z</time></trkpt><trkpt lat="-20.308813639391257" lon="119.36747549961372"><ele>28.0</ele><time>2026-04-23T07:28:01.001Z</time></trkpt><trkpt lat="-20.308850358613967" lon="119.36775689160702"><ele>28.5</ele><time>2026-04-23T07:28:02.001Z</time></trkpt><trkpt lat="-20.30888978742678" lon="119.36803912176978"><ele>29.0</ele><time>2026-04-23T07:28:03.001Z</time></trkpt><trkpt lat="-20.308930420956166" lon="119.36832272865313"><ele>29.0</ele><time>2026-04-23T07:28:04.001Z</time></trkpt><trkpt lat="-20.308968649877087" lon="119.36860463599649"><ele>29.0</ele><time>2026-04-23T07:28:05.001Z</time></trkpt><trkpt lat="-20.309004133575876" lon="119.36889181679827"><ele>29.0</ele><time>2026-04-23T07:28:06.001Z</time></trkpt><trkpt lat="-20.30903982353418" lon="119.3691751611299"><ele>29.0</ele><time>2026-04-23T07:28:07.001Z</time></trkpt><trkpt lat="-20.309077279965788" lon="119.36945980086708"><ele>29.0</ele><time>2026-04-23T07:28:08.001Z</time></trkpt><trkpt lat="-20.309119238065833" lon="119.36974284280791"><ele>29.0</ele><time>2026-04-23T07:28:09.001Z</time></trkpt><trkpt lat="-20.309159047238523" lon="119.37002363957713"><ele>29.0</ele><time>2026-04-23T07:28:10.001Z</time></trkpt><trkpt lat="-20.309194953521754" lon="119.37030298790737"><ele>29.0</ele><time>2026-04-23T07:28:11.001Z</time></trkpt><trkpt lat="-20.30922819145506" lon="119.37057831576638"><ele>28.5</ele><time>2026-04-23T07:28:12.001Z</time></trkpt><trkpt lat="-20.309260023797314" lon="119.3708555407006"><ele>28.0</ele><time>2026-04-23T07:28:13.001Z</time></trkpt><trkpt lat="-20.309297649523582" lon="119.37112959774143"><ele>28.5</ele><time>2026-04-23T07:28:14.001Z</time></trkpt><trkpt lat="-20.309337769357423" lon="119.37140345128395"><ele>29.0</ele><time>2026-04-23T07:28:15.001Z</time></trkpt><trkpt lat="-20.309375467908364" lon="119.37167222312807"><ele>29.0</ele><time>2026-04-23T07:28:16.001Z</time></trkpt><trkpt lat="-20.309412833379955" lon="119.37194366352895"><ele>29.0</ele><time>2026-04-23T07:28:17.001Z</time></trkpt><trkpt lat="-20.30945240830419" lon="119.37221696998424"><ele>30.0</ele><time>2026-04-23T07:28:18.001Z</time></trkpt><trkpt lat="-20.309490744484982" lon="119.37249399356195"><ele>31.0</ele><time>2026-04-23T07:28:19.001Z</time></trkpt><trkpt lat="-20.309529109747825" lon="119.37277453017262"><ele>29.5</ele><time>2026-04-23T07:28:20.001Z</time></trkpt><trkpt lat="-20.309567372866937" lon="119.3730579029563"><ele>28.0</ele><time>2026-04-23T07:28:21.001Z</time></trkpt><trkpt lat="-20.309607929030836" lon="119.37334920089306"><ele>28.0</ele><time>2026-04-23T07:28:22.001Z</time></trkpt><trkpt lat="-20.309647747219955" lon="119.37363928242323"><ele>28.0</ele><time>2026-04-23T07:28:23.001Z</time></trkpt><trkpt lat="-20.309688786609836" lon="119.37393408300015"><ele>28.0</ele><time>2026-04-23T07:28:24.001Z</time></trkpt><trkpt lat="-20.309728189669755" lon="119.37423082433146"><ele>28.0</ele><time>2026-04-23T07:28:25.001Z</time></trkpt><trkpt lat="-20.309767810556348" lon="119.37452729665625"><ele>29.0</ele><time>2026-04-23T07:28:26.001Z</time></trkpt><trkpt lat="-20.309805012148296" lon="119.3748220806653"><ele>30.0</ele><time>2026-04-23T07:28:27.001Z</time></trkpt><trkpt lat="-20.30984267988545" lon="119.37511547799795"><ele>30.0</ele><time>2026-04-23T07:28:28.001Z</time></trkpt><trkpt lat="-20.309881837980527" lon="119.37540808784709"><ele>30.0</ele><time>2026-04-23T07:28:29.001Z</time></trkpt><trkpt lat="-20.309921162739865" lon="119.37570676002639"><ele>29.5</ele><time>2026-04-23T07:28:30.001Z</time></trkpt><trkpt lat="-20.309960106516375" lon="119.37600780945208"><ele>29.0</ele><time>2026-04-23T07:28:31.001Z</time></trkpt><trkpt lat="-20.309999411075093" lon="119.37630709467642"><ele>29.5</ele><time>2026-04-23T07:28:32.001Z</time></trkpt><trkpt lat="-20.310041226968792" lon="119.37660300486486"><ele>30.0</ele><time>2026-04-23T07:28:33.001Z</time></trkpt><trkpt lat="-20.31008604156275" lon="119.37689787257202"><ele>30.0</ele><time>2026-04-23T07:28:34.001Z</time></trkpt><trkpt lat="-20.310131659572303" lon="119.37719132519935"><ele>30.0</ele><time>2026-04-23T07:28:35.001Z</time></trkpt><trkpt lat="-20.310173806143453" lon="119.37748669173544"><ele>30.0</ele><time>2026-04-23T07:28:36.001Z</time></trkpt><trkpt lat="-20.310210158085468" lon="119.37778308015218"><ele>30.0</ele><time>2026-04-23T07:28:37.001Z</time></trkpt><trkpt lat="-20.310250006241098" lon="119.3780807992847"><ele>29.0</ele><time>2026-04-23T07:28:38.001Z</time></trkpt><trkpt lat="-20.310290965183" lon="119.37837918279489"><ele>28.0</ele><time>2026-04-23T07:28:39.002Z</time></trkpt><trkpt lat="-20.31032814768827" lon="119.37867897353406"><ele>29.0</ele><time>2026-04-23T07:28:40.002Z</time></trkpt><trkpt lat="-20.310363466607427" lon="119.37897819595526"><ele>30.0</ele><time>2026-04-23T07:28:41.002Z</time></trkpt><trkpt lat="-20.310400480915746" lon="119.37927803485081"><ele>30.0</ele><time>2026-04-23T07:28:42.002Z</time></trkpt><trkpt lat="-20.310442242112007" lon="119.37958113699787"><ele>30.0</ele><time>2026-04-23T07:28:43.002Z</time></trkpt><trkpt lat="-20.310485394697842" lon="119.37988409151468"><ele>29.5</ele><time>2026-04-23T07:28:44.002Z</time></trkpt><trkpt lat="-20.31052630221427" lon="119.38019331661731"><ele>29.0</ele><time>2026-04-23T07:28:45.002Z</time></trkpt><trkpt lat="-20.310567169362912" lon="119.38050110655568"><ele>30.0</ele><time>2026-04-23T07:28:46.002Z</time></trkpt><trkpt lat="-20.310608026537576" lon="119.38081168242516"><ele>31.0</ele><time>2026-04-23T07:28:47.002Z</time></trkpt><trkpt lat="-20.31064699245829" lon="119.38112130237053"><ele>30.5</ele><time>2026-04-23T07:28:48.002Z</time></trkpt><trkpt lat="-20.310689661109052" lon="119.38143212187028"><ele>30.0</ele><time>2026-04-23T07:28:49.002Z</time></trkpt><trkpt lat="-20.310732192434987" lon="119.38174487150586"><ele>30.0</ele><time>2026-04-23T07:28:50.002Z</time></trkpt><trkpt lat="-20.310774496268646" lon="119.38205719938868"><ele>30.0</ele><time>2026-04-23T07:28:51.002Z</time></trkpt><trkpt lat="-20.310817588271316" lon="119.38236665639845"><ele>30.0</ele><time>2026-04-23T07:28:52.002Z</time></trkpt><trkpt lat="-20.310859816112224" lon="119.38267109205913"><ele>30.0</ele><time>2026-04-23T07:28:53.002Z</time></trkpt><trkpt lat="-20.310902578886644" lon="119.38297346828783"><ele>30.5</ele><time>2026-04-23T07:28:54.002Z</time></trkpt><trkpt lat="-20.310943691769204" lon="119.38327278190091"><ele>31.0</ele><time>2026-04-23T07:28:55.002Z</time></trkpt><trkpt lat="-20.31098315628365" lon="119.38357321590375"><ele>31.0</ele><time>2026-04-23T07:28:56.002Z</time></trkpt><trkpt lat="-20.311020314603898" lon="119.38387323400018"><ele>31.0</ele><time>2026-04-23T07:28:57.002Z</time></trkpt><trkpt lat="-20.311058673415946" lon="119.38417212206258"><ele>31.0</ele><time>2026-04-23T07:28:58.002Z</time></trkpt><trkpt lat="-20.311098574354183" lon="119.38446838715575"><ele>31.0</ele><time>2026-04-23T07:28:59.002Z</time></trkpt><trkpt lat="-20.311137810166773" lon="119.38476572277779"><ele>30.5</ele><time>2026-04-23T07:29:00.002Z</time></trkpt><trkpt lat="-20.311179882554757" lon="119.38506631670519"><ele>30.0</ele><time>2026-04-23T07:29:01.002Z</time></trkpt><trkpt lat="-20.31122376751664" lon="119.3853641362189"><ele>29.0</ele><time>2026-04-23T07:29:02.002Z</time></trkpt><trkpt lat="-20.311269219514067" lon="119.38566736752833"><ele>28.0</ele><time>2026-04-23T07:29:03.002Z</time></trkpt><trkpt lat="-20.311311703672985" lon="119.38597179901778"><ele>28.0</ele><time>2026-04-23T07:29:04.002Z</time></trkpt><trkpt lat="-20.311351020262954" lon="119.3862774324293"><ele>28.0</ele><time>2026-04-23T07:29:05.002Z</time></trkpt><trkpt lat="-20.311391655984554" lon="119.38658790995208"><ele>29.0</ele><time>2026-04-23T07:29:06.002Z</time></trkpt><trkpt lat="-20.311431215410792" lon="119.38689297714235"><ele>30.0</ele><time>2026-04-23T07:29:07.002Z</time></trkpt><trkpt lat="-20.31146859632832" lon="119.38719763260201"><ele>30.0</ele><time>2026-04-23T07:29:08.002Z</time></trkpt><trkpt lat="-20.311507105234064" lon="119.38750274761078"><ele>30.0</ele><time>2026-04-23T07:29:09.002Z</time></trkpt><trkpt lat="-20.311546128699966" lon="119.38780240673528"><ele>30.5</ele><time>2026-04-23T07:29:10.002Z</time></trkpt><trkpt lat="-20.311586860911316" lon="119.38810229829478"><ele>31.0</ele><time>2026-04-23T07:29:11.002Z</time></trkpt><trkpt lat="-20.311628566151075" lon="119.38840531056624"><ele>31.0</ele><time>2026-04-23T07:29:12.002Z</time></trkpt><trkpt lat="-20.311671053468533" lon="119.38870626510962"><ele>31.0</ele><time>2026-04-23T07:29:13.002Z</time></trkpt><trkpt lat="-20.31171287131071" lon="119.38901173734362"><ele>30.5</ele><time>2026-04-23T07:29:14.002Z</time></trkpt><trkpt lat="-20.311754064016224" lon="119.38931377188341"><ele>30.0</ele><time>2026-04-23T07:29:15.002Z</time></trkpt><trkpt lat="-20.31179593973998" lon="119.3896147298862"><ele>29.0</ele><time>2026-04-23T07:29:16.002Z</time></trkpt><trkpt lat="-20.31183697868809" lon="119.38991917252366"><ele>28.0</ele><time>2026-04-23T07:29:17Z</time></trkpt><trkpt lat="-20.311877972848936" lon="119.39022575856903"><ele>30.0</ele><time>2026-04-23T07:29:18Z</time></trkpt><trkpt lat="-20.311917336230266" lon="119.39053353575864"><ele>32.0</ele><time>2026-04-23T07:29:19Z</time></trkpt><trkpt lat="-20.311957585707972" lon="119.39084442830378"><ele>32.0</ele><time>2026-04-23T07:29:20Z</time></trkpt><trkpt lat="-20.31199905524215" lon="119.3911557089852"><ele>32.0</ele><time>2026-04-23T07:29:21Z</time></trkpt><trkpt lat="-20.312039179543337" lon="119.39146361568449"><ele>32.0</ele><time>2026-04-23T07:29:22Z</time></trkpt><trkpt lat="-20.31208034802761" lon="119.39177191890617"><ele>32.0</ele><time>2026-04-23T07:29:23Z</time></trkpt><trkpt lat="-20.312124680471083" lon="119.39207764213118"><ele>30.5</ele><time>2026-04-23T07:29:24Z</time></trkpt><trkpt lat="-20.312169101496842" lon="119.39238093927813"><ele>29.0</ele><time>2026-04-23T07:29:25Z</time></trkpt><trkpt lat="-20.31221012886891" lon="119.39268274827225"><ele>29.5</ele><time>2026-04-23T07:29:26Z</time></trkpt><trkpt lat="-20.312248472490644" lon="119.39298655802443"><ele>30.0</ele><time>2026-04-23T07:29:27Z</time></trkpt><trkpt lat="-20.312286428767447" lon="119.39329238539338"><ele>30.0</ele><time>2026-04-23T07:29:28Z</time></trkpt><trkpt lat="-20.312325720972666" lon="119.3936004924127"><ele>30.0</ele><time>2026-04-23T07:29:29Z</time></trkpt><trkpt lat="-20.31236806588546" lon="119.393913331627"><ele>30.0</ele><time>2026-04-23T07:29:30Z</time></trkpt><trkpt lat="-20.312407132271478" lon="119.39421848025299"><ele>30.0</ele><time>2026-04-23T07:29:31Z</time></trkpt><trkpt lat="-20.312447632315305" lon="119.39449991477272"><ele>30.5</ele><time>2026-04-23T07:29:32Z</time></trkpt><trkpt lat="-20.31248473702818" lon="119.39477593392108"><ele>31.0</ele><time>2026-04-23T07:29:33Z</time></trkpt><trkpt lat="-20.312524965800165" lon="119.39505278020404"><ele>31.0</ele><time>2026-04-23T07:29:34Z</time></trkpt><trkpt lat="-20.312565617242214" lon="119.39533700028318"><ele>31.0</ele><time>2026-04-23T07:29:35Z</time></trkpt><trkpt lat="-20.312604804778438" lon="119.39561603010264"><ele>30.5</ele><time>2026-04-23T07:29:36Z</time></trkpt><trkpt lat="-20.31264317625346" lon="119.39590315083964"><ele>30.0</ele><time>2026-04-23T07:29:37Z</time></trkpt><trkpt lat="-20.31268375822498" lon="119.3961893650405"><ele>30.0</ele><time>2026-04-23T07:29:38Z</time></trkpt><trkpt lat="-20.3127240068879" lon="119.39648203767304"><ele>30.0</ele><time>2026-04-23T07:29:39.001Z</time></trkpt><trkpt lat="-20.312762193299434" lon="119.39677980929534"><ele>30.0</ele><time>2026-04-23T07:29:40.001Z</time></trkpt><trkpt lat="-20.312801790468928" lon="119.39708285769785"><ele>30.0</ele><time>2026-04-23T07:29:41.001Z</time></trkpt><trkpt lat="-20.312844321978506" lon="119.3973834020426"><ele>29.5</ele><time>2026-04-23T07:29:42.001Z</time></trkpt><trkpt lat="-20.312884657470523" lon="119.39768889362327"><ele>29.0</ele><time>2026-04-23T07:29:43.001Z</time></trkpt><trkpt lat="-20.312922585804642" lon="119.39799627706574"><ele>29.0</ele><time>2026-04-23T07:29:44.001Z</time></trkpt><trkpt lat="-20.312962523837665" lon="119.3983036246319"><ele>29.0</ele><time>2026-04-23T07:29:45.001Z</time></trkpt><trkpt lat="-20.31300373380835" lon="119.39860667957251"><ele>28.5</ele><time>2026-04-23T07:29:46.001Z</time></trkpt><trkpt lat="-20.313047159227693" lon="119.39891236273132"><ele>28.0</ele><time>2026-04-23T07:29:47.001Z</time></trkpt><trkpt lat="-20.313088650941097" lon="119.39921269613448"><ele>28.0</ele><time>2026-04-23T07:29:48.001Z</time></trkpt><trkpt lat="-20.31312899451321" lon="119.39951494605404"><ele>28.0</ele><time>2026-04-23T07:29:49.001Z</time></trkpt><trkpt lat="-20.31316943049726" lon="119.39981719075895"><ele>28.0</ele><time>2026-04-23T07:29:50.001Z</time></trkpt><trkpt lat="-20.313190107096137" lon="119.40012063225582"><ele>28.0</ele><time>2026-04-23T07:29:51.001Z</time></trkpt><trkpt lat="-20.313231243381" lon="119.40042177507611"><ele>29.5</ele><time>2026-04-23T07:29:52.001Z</time></trkpt><trkpt lat="-20.313287299407133" lon="119.40071911578788"><ele>31.0</ele><time>2026-04-23T07:29:53.001Z</time></trkpt><trkpt lat="-20.313327761374868" lon="119.40101638791317"><ele>31.0</ele><time>2026-04-23T07:29:54.001Z</time></trkpt><trkpt lat="-20.31336581650165" lon="119.40131355965546"><ele>31.0</ele><time>2026-04-23T07:29:55.001Z</time></trkpt><trkpt lat="-20.313401649957076" lon="119.40161142702365"><ele>30.0</ele><time>2026-04-23T07:29:56.001Z</time></trkpt><trkpt lat="-20.31343874975901" lon="119.40190708754514"><ele>29.0</ele><time>2026-04-23T07:29:57.001Z</time></trkpt><trkpt lat="-20.31347851021312" lon="119.40220817472459"><ele>29.0</ele><time>2026-04-23T07:29:58.001Z</time></trkpt><trkpt lat="-20.313520807815475" lon="119.40250613192761"><ele>29.0</ele><time>2026-04-23T07:29:59.001Z</time></trkpt><trkpt lat="-20.313563203807195" lon="119.40280883771445"><ele>27.5</ele><time>2026-04-23T07:30:00.001Z</time></trkpt><trkpt lat="-20.313605741918384" lon="119.40310888571656"><ele>26.0</ele><time>2026-04-23T07:30:01.001Z</time></trkpt><trkpt lat="-20.31364791437291" lon="119.40340597210103"><ele>26.0</ele><time>2026-04-23T07:30:02.001Z</time></trkpt><trkpt lat="-20.31368922493922" lon="119.4037021071715"><ele>26.0</ele><time>2026-04-23T07:30:03.001Z</time></trkpt><trkpt lat="-20.313728839034038" lon="119.40399684699696"><ele>27.5</ele><time>2026-04-23T07:30:04.001Z</time></trkpt><trkpt lat="-20.313767466265148" lon="119.4042932548734"><ele>29.0</ele><time>2026-04-23T07:30:05.001Z</time></trkpt><trkpt lat="-20.313806757026196" lon="119.40459290864928"><ele>30.0</ele><time>2026-04-23T07:30:06.001Z</time></trkpt><trkpt lat="-20.313848215412648" lon="119.40489595734581"><ele>31.0</ele><time>2026-04-23T07:30:07.001Z</time></trkpt><trkpt lat="-20.313873225901705" lon="119.40520075698299"><ele>30.0</ele><time>2026-04-23T07:30:08.001Z</time></trkpt><trkpt lat="-20.313914126249216" lon="119.40550550332651"><ele>29.0</ele><time>2026-04-23T07:30:09.001Z</time></trkpt><trkpt lat="-20.31395432781789" lon="119.40581149846538"><ele>29.0</ele><time>2026-04-23T07:30:10.001Z</time></trkpt><trkpt lat="-20.313994640871183" lon="119.40611773429018"><ele>29.0</ele><time>2026-04-23T07:30:11.001Z</time></trkpt><trkpt lat="-20.314054994825895" lon="119.40642309024231"><ele>29.0</ele><time>2026-04-23T07:30:12.001Z</time></trkpt><trkpt lat="-20.31409672835709" lon="119.40673451096234"><ele>29.0</ele><time>2026-04-23T07:30:13.001Z</time></trkpt><trkpt lat="-20.3141378654276" lon="119.40704269406864"><ele>28.0</ele><time>2026-04-23T07:30:14.001Z</time></trkpt><trkpt lat="-20.314177996142952" lon="119.40734620360995"><ele>27.0</ele><time>2026-04-23T07:30:15.001Z</time></trkpt><trkpt lat="-20.314217357622393" lon="119.40764895967041"><ele>27.0</ele><time>2026-04-23T07:30:16.001Z</time></trkpt><trkpt lat="-20.314256111406596" lon="119.40795169630374"><ele>27.0</ele><time>2026-04-23T07:30:17.001Z</time></trkpt><trkpt lat="-20.31429550034018" lon="119.40825278719437"><ele>27.5</ele><time>2026-04-23T07:30:18.001Z</time></trkpt><trkpt lat="-20.314336332974722" lon="119.40855711038219"><ele>28.0</ele><time>2026-04-23T07:30:19.001Z</time></trkpt><trkpt lat="-20.314378637622283" lon="119.40885964299052"><ele>28.0</ele><time>2026-04-23T07:30:20.001Z</time></trkpt><trkpt lat="-20.314421033289054" lon="119.40916008053901"><ele>28.0</ele><time>2026-04-23T07:30:21.001Z</time></trkpt><trkpt lat="-20.314461900964154" lon="119.40946820438289"><ele>27.0</ele><time>2026-04-23T07:30:22.001Z</time></trkpt><trkpt lat="-20.31450197658226" lon="119.40977416872336"><ele>26.0</ele><time>2026-04-23T07:30:23.001Z</time></trkpt><trkpt lat="-20.3145431166331" lon="119.4100816859535"><ele>26.0</ele><time>2026-04-23T07:30:24.001Z</time></trkpt><trkpt lat="-20.31458368173312" lon="119.41039061644906"><ele>26.0</ele><time>2026-04-23T07:30:25.001Z</time></trkpt><trkpt lat="-20.3146247633263" lon="119.4107020119473"><ele>26.0</ele><time>2026-04-23T07:30:26.001Z</time></trkpt><trkpt lat="-20.314667596825295" lon="119.41101345172261"><ele>26.0</ele><time>2026-04-23T07:30:27.001Z</time></trkpt><trkpt lat="-20.31471189141944" lon="119.41132386378045"><ele>26.0</ele><time>2026-04-23T07:30:28.001Z</time></trkpt><trkpt lat="-20.314756634307575" lon="119.41163329814722"><ele>26.0</ele><time>2026-04-23T07:30:29.001Z</time></trkpt><trkpt lat="-20.314799467952383" lon="119.41194561230984"><ele>26.0</ele><time>2026-04-23T07:30:30.001Z</time></trkpt><trkpt lat="-20.314840667115426" lon="119.4122545400614"><ele>26.0</ele><time>2026-04-23T07:30:31.001Z</time></trkpt><trkpt lat="-20.314879900562172" lon="119.41256480649066"><ele>26.0</ele><time>2026-04-23T07:30:32.001Z</time></trkpt><trkpt lat="-20.314918641606955" lon="119.41287768927745"><ele>26.0</ele><time>2026-04-23T07:30:33.001Z</time></trkpt><trkpt lat="-20.314959527000607" lon="119.41318996504809"><ele>26.5</ele><time>2026-04-23T07:30:34.001Z</time></trkpt><trkpt lat="-20.315001325606" lon="119.41350416169618"><ele>27.0</ele><time>2026-04-23T07:30:35.001Z</time></trkpt><trkpt lat="-20.315044749495176" lon="119.41381660268596"><ele>28.0</ele><time>2026-04-23T07:30:36.001Z</time></trkpt><trkpt lat="-20.315088577671858" lon="119.4141282157678"><ele>29.0</ele><time>2026-04-23T07:30:37.001Z</time></trkpt><trkpt lat="-20.315131129548305" lon="119.41444088045812"><ele>28.5</ele><time>2026-04-23T07:30:38.001Z</time></trkpt><trkpt lat="-20.315173346036048" lon="119.41475064246376"><ele>28.0</ele><time>2026-04-23T07:30:39.001Z</time></trkpt><trkpt lat="-20.315214278879786" lon="119.41506112799945"><ele>28.0</ele><time>2026-04-23T07:30:40.001Z</time></trkpt><trkpt lat="-20.315254491369238" lon="119.41537174867562"><ele>28.0</ele><time>2026-04-23T07:30:41.001Z</time></trkpt><trkpt lat="-20.315294630548298" lon="119.4156810547032"><ele>28.0</ele><time>2026-04-23T07:30:42.001Z</time></trkpt><trkpt lat="-20.315336665610644" lon="119.41598504521352"><ele>28.0</ele><time>2026-04-23T07:30:43.001Z</time></trkpt><trkpt lat="-20.31537703898066" lon="119.4162984337641"><ele>28.0</ele><time>2026-04-23T07:30:44.001Z</time></trkpt><trkpt lat="-20.31542290211811" lon="119.41660514094532"><ele>28.0</ele><time>2026-04-23T07:30:45.001Z</time></trkpt><trkpt lat="-20.315449638470888" lon="119.41691188384996"><ele>28.0</ele><time>2026-04-23T07:30:46.001Z</time></trkpt><trkpt lat="-20.31549097642178" lon="119.41721936323637"><ele>28.0</ele><time>2026-04-23T07:30:47.001Z</time></trkpt><trkpt lat="-20.315547335213015" lon="119.41752252048379"><ele>28.0</ele><time>2026-04-23T07:30:48.001Z</time></trkpt><trkpt lat="-20.315588217710683" lon="119.41782623810434"><ele>28.0</ele><time>2026-04-23T07:30:49.001Z</time></trkpt><trkpt lat="-20.31562807137578" lon="119.41812997567116"><ele>26.0</ele><time>2026-04-23T07:30:50.001Z</time></trkpt><trkpt lat="-20.315667540682224" lon="119.41843198308885"><ele>24.0</ele><time>2026-04-23T07:30:51.001Z</time></trkpt><trkpt lat="-20.315708140544338" lon="119.41873275190443"><ele>25.0</ele><time>2026-04-23T07:30:52.002Z</time></trkpt><trkpt lat="-20.31574877089394" lon="119.41903858885664"><ele>26.0</ele><time>2026-04-23T07:30:53.002Z</time></trkpt><trkpt lat="-20.315788841350265" lon="119.4193448265265"><ele>25.5</ele><time>2026-04-23T07:30:54.002Z</time></trkpt><trkpt lat="-20.315827872068716" lon="119.41965118213807"><ele>25.0</ele><time>2026-04-23T07:30:55.002Z</time></trkpt><trkpt lat="-20.3158664491718" lon="119.41995017558848"><ele>25.0</ele><time>2026-04-23T07:30:56.002Z</time></trkpt><trkpt lat="-20.31590486263908" lon="119.42025082535089"><ele>25.0</ele><time>2026-04-23T07:30:57.002Z</time></trkpt><trkpt lat="-20.315944899497985" lon="119.42054949028694"><ele>24.5</ele><time>2026-04-23T07:30:58.002Z</time></trkpt><trkpt lat="-20.315986273030315" lon="119.42084547325217"><ele>24.0</ele><time>2026-04-23T07:30:59.002Z</time></trkpt><trkpt lat="-20.316027231258886" lon="119.42114003043056"><ele>25.0</ele><time>2026-04-23T07:31:00.002Z</time></trkpt><trkpt lat="-20.316067080045833" lon="119.42143440223174"><ele>26.0</ele><time>2026-04-23T07:31:01.002Z</time></trkpt><trkpt lat="-20.316106220407278" lon="119.42172735497263"><ele>26.0</ele><time>2026-04-23T07:31:02.002Z</time></trkpt><trkpt lat="-20.316144195013226" lon="119.42202126340237"><ele>26.0</ele><time>2026-04-23T07:31:03.002Z</time></trkpt><trkpt lat="-20.316180339478397" lon="119.42231311705025"><ele>26.0</ele><time>2026-04-23T07:31:04.002Z</time></trkpt><trkpt lat="-20.316216725017462" lon="119.42261044496158"><ele>26.0</ele><time>2026-04-23T07:31:05.002Z</time></trkpt><trkpt lat="-20.31625979009011" lon="119.42290776403986"><ele>26.0</ele><time>2026-04-23T07:31:06.002Z</time></trkpt><trkpt lat="-20.316306198323353" lon="119.42321486881256"><ele>26.0</ele><time>2026-04-23T07:31:07.002Z</time></trkpt><trkpt lat="-20.31634945585763" lon="119.4235213606917"><ele>27.5</ele><time>2026-04-23T07:31:08.002Z</time></trkpt><trkpt lat="-20.316391451644023" lon="119.42383325709156"><ele>29.0</ele><time>2026-04-23T07:31:09.002Z</time></trkpt><trkpt lat="-20.316432975218966" lon="119.42414105838778"><ele>29.0</ele><time>2026-04-23T07:31:10.002Z</time></trkpt><trkpt lat="-20.31647404034031" lon="119.4244495347699"><ele>29.0</ele><time>2026-04-23T07:31:11.002Z</time></trkpt><trkpt lat="-20.316514947563906" lon="119.42475981885384"><ele>28.0</ele><time>2026-04-23T07:31:12.002Z</time></trkpt><trkpt lat="-20.316556630784557" lon="119.42506602835198"><ele>27.0</ele><time>2026-04-23T07:31:13.002Z</time></trkpt><trkpt lat="-20.316597876861415" lon="119.42537214868828"><ele>27.5</ele><time>2026-04-23T07:31:14.002Z</time></trkpt><trkpt lat="-20.316639542505392" lon="119.42567958273551"><ele>28.0</ele><time>2026-04-23T07:31:15.002Z</time></trkpt><trkpt lat="-20.316679723104574" lon="119.42598828389106"><ele>28.0</ele><time>2026-04-23T07:31:16.002Z</time></trkpt><trkpt lat="-20.316721413288835" lon="119.42629454556823"><ele>28.0</ele><time>2026-04-23T07:31:17.002Z</time></trkpt><trkpt lat="-20.316764810700963" lon="119.42660496060215"><ele>28.0</ele><time>2026-04-23T07:31:18.002Z</time></trkpt><trkpt lat="-20.316807579168902" lon="119.42691492840754"><ele>28.0</ele><time>2026-04-23T07:31:19.002Z</time></trkpt><trkpt lat="-20.3168485317931" lon="119.42722386219434"><ele>26.5</ele><time>2026-04-23T07:31:20.002Z</time></trkpt><trkpt lat="-20.316887319824154" lon="119.42753146215956"><ele>25.0</ele><time>2026-04-23T07:31:21.002Z</time></trkpt><trkpt lat="-20.31692701483449" lon="119.4278378470628"><ele>26.0</ele><time>2026-04-23T07:31:22.002Z</time></trkpt><trkpt lat="-20.31696610071387" lon="119.4281462471496"><ele>27.0</ele><time>2026-04-23T07:31:23Z</time></trkpt><trkpt lat="-20.31700646265679" lon="119.42845493897585"><ele>27.0</ele><time>2026-04-23T07:31:24Z</time></trkpt><trkpt lat="-20.31704527647031" lon="119.4287599167811"><ele>27.0</ele><time>2026-04-23T07:31:25Z</time></trkpt><trkpt lat="-20.317085974723792" lon="119.42906409855723"><ele>27.5</ele><time>2026-04-23T07:31:26Z</time></trkpt><trkpt lat="-20.31712897121827" lon="119.42936799360828"><ele>28.0</ele><time>2026-04-23T07:31:27Z</time></trkpt><trkpt lat="-20.317173814157055" lon="119.4296768513551"><ele>27.0</ele><time>2026-04-23T07:31:28Z</time></trkpt><trkpt lat="-20.317218866241866" lon="119.42998956850047"><ele>26.0</ele><time>2026-04-23T07:31:29Z</time></trkpt><trkpt lat="-20.317262490009174" lon="119.43030128663379"><ele>25.5</ele><time>2026-04-23T07:31:30Z</time></trkpt><trkpt lat="-20.317302973252204" lon="119.43060916258666"><ele>25.0</ele><time>2026-04-23T07:31:31Z</time></trkpt><trkpt lat="-20.317344955127858" lon="119.43091802769047"><ele>25.0</ele><time>2026-04-23T07:31:32Z</time></trkpt><trkpt lat="-20.317385780424967" lon="119.43123352045873"><ele>25.0</ele><time>2026-04-23T07:31:33Z</time></trkpt><trkpt lat="-20.31742717973417" lon="119.43155087203505"><ele>26.5</ele><time>2026-04-23T07:31:34Z</time></trkpt><trkpt lat="-20.317467484106007" lon="119.43186729694625"><ele>28.0</ele><time>2026-04-23T07:31:35Z</time></trkpt><trkpt lat="-20.317509974382382" lon="119.43218405049134"><ele>28.0</ele><time>2026-04-23T07:31:36Z</time></trkpt><trkpt lat="-20.317554510854336" lon="119.43249600345246"><ele>28.0</ele><time>2026-04-23T07:31:37Z</time></trkpt><trkpt lat="-20.317599770937477" lon="119.43280456055504"><ele>28.5</ele><time>2026-04-23T07:31:38Z</time></trkpt><trkpt lat="-20.317644129541463" lon="119.43311088277851"><ele>29.0</ele><time>2026-04-23T07:31:39Z</time></trkpt><trkpt lat="-20.317686060725237" lon="119.4334159234418"><ele>29.0</ele><time>2026-04-23T07:31:40Z</time></trkpt><trkpt lat="-20.31772518140383" lon="119.43371847081717"><ele>29.0</ele><time>2026-04-23T07:31:41Z</time></trkpt><trkpt lat="-20.317763446092954" lon="119.4340173092318"><ele>30.5</ele><time>2026-04-23T07:31:42Z</time></trkpt><trkpt lat="-20.317802717514205" lon="119.43431521707964"><ele>32.0</ele><time>2026-04-23T07:31:43Z</time></trkpt><trkpt lat="-20.317841692364862" lon="119.43461721671243"><ele>32.0</ele><time>2026-04-23T07:31:44Z</time></trkpt><trkpt lat="-20.317880250854014" lon="119.43491295430857"><ele>32.0</ele><time>2026-04-23T07:31:45Z</time></trkpt><trkpt lat="-20.31792097060867" lon="119.43520855975582"><ele>32.0</ele><time>2026-04-23T07:31:46Z</time></trkpt><trkpt lat="-20.317961134278193" lon="119.43549792167994"><ele>32.0</ele><time>2026-04-23T07:31:47Z</time></trkpt><trkpt lat="-20.317997324095025" lon="119.43578073253701"><ele>32.0</ele><time>2026-04-23T07:31:48Z</time></trkpt><trkpt lat="-20.318030509295454" lon="119.43606393890794"><ele>32.0</ele><time>2026-04-23T07:31:49Z</time></trkpt><trkpt lat="-20.318062537984765" lon="119.43633862522489"><ele>32.0</ele><time>2026-04-23T07:31:50Z</time></trkpt><trkpt lat="-20.318096584861824" lon="119.43661371828982"><ele>32.0</ele><time>2026-04-23T07:31:51Z</time></trkpt><trkpt lat="-20.31813454743828" lon="119.4368838367937"><ele>31.0</ele><time>2026-04-23T07:31:52Z</time></trkpt><trkpt lat="-20.31817566930917" lon="119.43715305369254"><ele>30.0</ele><time>2026-04-23T07:31:53Z</time></trkpt><trkpt lat="-20.318218233724508" lon="119.4374219325322"><ele>30.0</ele><time>2026-04-23T07:31:54Z</time></trkpt><trkpt lat="-20.318257851247953" lon="119.43768979957521"><ele>30.0</ele><time>2026-04-23T07:31:55Z</time></trkpt><trkpt lat="-20.318292472373887" lon="119.4379580339441"><ele>30.0</ele><time>2026-04-23T07:31:56Z</time></trkpt><trkpt lat="-20.318323258489663" lon="119.43822158930682"><ele>30.0</ele><time>2026-04-23T07:31:57Z</time></trkpt><trkpt lat="-20.318350719141748" lon="119.43848209122828"><ele>30.0</ele><time>2026-04-23T07:31:58Z</time></trkpt><trkpt lat="-20.31837657524506" lon="119.43872816013186"><ele>30.0</ele><time>2026-04-23T07:31:59Z</time></trkpt><trkpt lat="-20.318397211793346" lon="119.43896200921385"><ele>30.0</ele><time>2026-04-23T07:32:00Z</time></trkpt><trkpt lat="-20.318408098630353" lon="119.43919108536286"><ele>30.0</ele><time>2026-04-23T07:32:01Z</time></trkpt><trkpt lat="-20.318410621863727" lon="119.43942175674742"><ele>30.0</ele><time>2026-04-23T07:32:02Z</time></trkpt><trkpt lat="-20.318407689046417" lon="119.4396425993433"><ele>31.0</ele><time>2026-04-23T07:32:03Z</time></trkpt><trkpt lat="-20.318402268047954" lon="119.4398511723255"><ele>32.0</ele><time>2026-04-23T07:32:04Z</time></trkpt><trkpt lat="-20.3183909970129" lon="119.44004467317475"><ele>33.0</ele><time>2026-04-23T07:32:05Z</time></trkpt><trkpt lat="-20.318375362302557" lon="119.44022917488256"><ele>33.0</ele><time>2026-04-23T07:32:06Z</time></trkpt><trkpt lat="-20.318360368930904" lon="119.4404026568745"><ele>33.0</ele><time>2026-04-23T07:32:07Z</time></trkpt><trkpt lat="-20.318345769098244" lon="119.44056397822996"><ele>33.0</ele><time>2026-04-23T07:32:08Z</time></trkpt><trkpt lat="-20.318329803324314" lon="119.44071259984146"><ele>33.0</ele><time>2026-04-23T07:32:09Z</time></trkpt><trkpt lat="-20.31831468514989" lon="119.44084252505031"><ele>33.0</ele><time>2026-04-23T07:32:10Z</time></trkpt><trkpt lat="-20.318290300857644" lon="119.44095887260782"><ele>33.0</ele><time>2026-04-23T07:32:11Z</time></trkpt><trkpt lat="-20.31827989065224" lon="119.44106071037585"><ele>33.0</ele><time>2026-04-23T07:32:12Z</time></trkpt><trkpt lat="-20.318271406800793" lon="119.44114839104844"><ele>33.0</ele><time>2026-04-23T07:32:13Z</time></trkpt><trkpt lat="-20.318264957859476" lon="119.44121622092196"><ele>33.25</ele><time>2026-04-23T07:32:14Z</time></trkpt><trkpt lat="-20.31849609102981" lon="119.44132861019189"><ele>33.5</ele><time>2026-04-23T07:32:16Z</time></trkpt><trkpt lat="-20.318580368365275" lon="119.44134491210978"><ele>33.75</ele><time>2026-04-23T07:32:17Z</time></trkpt><trkpt lat="-20.318680063210106" lon="119.44137093486489"><ele>34.0</ele><time>2026-04-23T07:32:18Z</time></trkpt><trkpt lat="-20.318785158963045" lon="119.44141636996484"><ele>34.0</ele><time>2026-04-23T07:32:19.001Z</time></trkpt><trkpt lat="-20.31890810266934" lon="119.44143482073244"><ele>34.0</ele><time>2026-04-23T07:32:20.001Z</time></trkpt><trkpt lat="-20.319045686254295" lon="119.44146567219816"><ele>34.0</ele><time>2026-04-23T07:32:21.001Z</time></trkpt><trkpt lat="-20.319195874999505" lon="119.44150119798249"><ele>34.0</ele><time>2026-04-23T07:32:22.001Z</time></trkpt><trkpt lat="-20.3193579743828" lon="119.44153936455368"><ele>34.0</ele><time>2026-04-23T07:32:23.001Z</time></trkpt><trkpt lat="-20.319521841142045" lon="119.44158080705343"><ele>34.0</ele><time>2026-04-23T07:32:24.001Z</time></trkpt><trkpt lat="-20.319690502678025" lon="119.44162319066194"><ele>34.0</ele><time>2026-04-23T07:32:25.001Z</time></trkpt><trkpt lat="-20.319867447708987" lon="119.44167084814103"><ele>33.333333333333336</ele><time>2026-04-23T07:32:26.001Z</time></trkpt><trkpt lat="-20.320056539835758" lon="119.44171973285577"><ele>32.666666666666664</ele><time>2026-04-23T07:32:27.001Z</time></trkpt><trkpt lat="-20.320245198325267" lon="119.44176839349163"><ele>32.0</ele><time>2026-04-23T07:32:28.001Z</time></trkpt><trkpt lat="-20.320440668814605" lon="119.44181803272828"><ele>33.0</ele><time>2026-04-23T07:32:29.001Z</time></trkpt><trkpt lat="-20.32062782840506" lon="119.44186539717822"><ele>34.0</ele><time>2026-04-23T07:32:30.001Z</time></trkpt><trkpt lat="-20.320808926126794" lon="119.44191341679523"><ele>35.0</ele><time>2026-04-23T07:32:31.001Z</time></trkpt><trkpt lat="-20.320997411662145" lon="119.44197300156459"><ele>35.0</ele><time>2026-04-23T07:32:32.001Z</time></trkpt><trkpt lat="-20.321191479135848" lon="119.44204310078989"><ele>35.0</ele><time>2026-04-23T07:32:33.001Z</time></trkpt><trkpt lat="-20.321383565984625" lon="119.44212809877133"><ele>35.0</ele><time>2026-04-23T07:32:34.001Z</time></trkpt><trkpt lat="-20.321568972583048" lon="119.44222517551924"><ele>35.0</ele><time>2026-04-23T07:32:35.001Z</time></trkpt><trkpt lat="-20.321751369335804" lon="119.44233696451153"><ele>35.0</ele><time>2026-04-23T07:32:36.001Z</time></trkpt><trkpt lat="-20.32192087619112" lon="119.44245741851934"><ele>35.0</ele><time>2026-04-23T07:32:37.001Z</time></trkpt><trkpt lat="-20.322086466202947" lon="119.44259010228703"><ele>35.0</ele><time>2026-04-23T07:32:38.001Z</time></trkpt><trkpt lat="-20.322217483555335" lon="119.44272781880233"><ele>35.0</ele><time>2026-04-23T07:32:39.001Z</time></trkpt><trkpt lat="-20.322332883740067" lon="119.44287814945321"><ele>35.0</ele><time>2026-04-23T07:32:40.001Z</time></trkpt><trkpt lat="-20.32245095241244" lon="119.44305975002602"><ele>35.33333333333333</ele><time>2026-04-23T07:32:41.001Z</time></trkpt><trkpt lat="-20.322562748091798" lon="119.44324936124114"><ele>35.666666666666664</ele><time>2026-04-23T07:32:42.001Z</time></trkpt><trkpt lat="-20.322672372268176" lon="119.44344945397543"><ele>36.0</ele><time>2026-04-23T07:32:43.001Z</time></trkpt><trkpt lat="-20.32277551903887" lon="119.44364811935446"><ele>36.0</ele><time>2026-04-23T07:32:44.001Z</time></trkpt><trkpt lat="-20.322843997825704" lon="119.44384135796672"><ele>36.0</ele><time>2026-04-23T07:32:45.001Z</time></trkpt><trkpt lat="-20.322910840103415" lon="119.44402269073221"><ele>36.0</ele><time>2026-04-23T07:32:46.001Z</time></trkpt><trkpt lat="-20.322981773071028" lon="119.44422623396538"><ele>36.0</ele><time>2026-04-23T07:32:47.001Z</time></trkpt><trkpt lat="-20.323009174599648" lon="119.44443059200134"><ele>36.0</ele><time>2026-04-23T07:32:48.001Z</time></trkpt><trkpt lat="-20.3230421859713" lon="119.44465340189791"><ele>36.0</ele><time>2026-04-23T07:32:49.001Z</time></trkpt><trkpt lat="-20.32306900765898" lon="119.44487982047896"><ele>35.5</ele><time>2026-04-23T07:32:50.001Z</time></trkpt><trkpt lat="-20.323093905161375" lon="119.44511691022674"><ele>35.0</ele><time>2026-04-23T07:32:51.001Z</time></trkpt><trkpt lat="-20.323128095754853" lon="119.44536134170518"><ele>35.5</ele><time>2026-04-23T07:32:52.001Z</time></trkpt><trkpt lat="-20.323144507772078" lon="119.44560349062536"><ele>36.0</ele><time>2026-04-23T07:32:53.001Z</time></trkpt><trkpt lat="-20.32316463780486" lon="119.44585750872446"><ele>36.0</ele><time>2026-04-23T07:32:54.001Z</time></trkpt><trkpt lat="-20.32318644693121" lon="119.44611395598896"><ele>36.0</ele><time>2026-04-23T07:32:55.001Z</time></trkpt><trkpt lat="-20.32320593443702" lon="119.44638371463023"><ele>37.0</ele><time>2026-04-23T07:32:56.001Z</time></trkpt><trkpt lat="-20.323225392978266" lon="119.4466399933579"><ele>38.0</ele><time>2026-04-23T07:32:57.001Z</time></trkpt><trkpt lat="-20.323247051686707" lon="119.44688259389955"><ele>36.5</ele><time>2026-04-23T07:32:58.001Z</time></trkpt><trkpt lat="-20.3232724163083" lon="119.44714527555186"><ele>35.0</ele><time>2026-04-23T07:32:59.001Z</time></trkpt><trkpt lat="-20.323293057010368" lon="119.44739134115967"><ele>35.0</ele><time>2026-04-23T07:33:00.001Z</time></trkpt><trkpt lat="-20.323309657349753" lon="119.44764885155925"><ele>35.0</ele><time>2026-04-23T07:33:01.001Z</time></trkpt><trkpt lat="-20.323326124692716" lon="119.44790902888234"><ele>36.0</ele><time>2026-04-23T07:33:02.001Z</time></trkpt><trkpt lat="-20.32334401062838" lon="119.4481739049752"><ele>37.0</ele><time>2026-04-23T07:33:03.001Z</time></trkpt><trkpt lat="-20.3233648403152" lon="119.44845571569526"><ele>37.0</ele><time>2026-04-23T07:33:04.001Z</time></trkpt><trkpt lat="-20.32338639668672" lon="119.44872609563608"><ele>37.0</ele><time>2026-04-23T07:33:05.001Z</time></trkpt><trkpt lat="-20.32340713186627" lon="119.44895356491726"><ele>37.333333333333336</ele><time>2026-04-23T07:33:06.001Z</time></trkpt><trkpt lat="-20.323430022204683" lon="119.4491884054958"><ele>37.666666666666664</ele><time>2026-04-23T07:33:07.001Z</time></trkpt><trkpt lat="-20.323450493292324" lon="119.44940229149344"><ele>38.0</ele><time>2026-04-23T07:33:08.001Z</time></trkpt><trkpt lat="-20.323474919934206" lon="119.44961065639835"><ele>38.0</ele><time>2026-04-23T07:33:09.001Z</time></trkpt><trkpt lat="-20.323506104724597" lon="119.449799673135"><ele>38.0</ele><time>2026-04-23T07:33:10.001Z</time></trkpt><trkpt lat="-20.32355205407812" lon="119.44999958677677"><ele>38.0</ele><time>2026-04-23T07:33:11.001Z</time></trkpt><trkpt lat="-20.323607524467587" lon="119.45019576302958"><ele>38.0</ele><time>2026-04-23T07:33:12.001Z</time></trkpt><trkpt lat="-20.323677113961658" lon="119.45039603808092"><ele>38.0</ele><time>2026-04-23T07:33:13.001Z</time></trkpt><trkpt lat="-20.32375480187244" lon="119.450590604922"><ele>38.0</ele><time>2026-04-23T07:33:14.001Z</time></trkpt><trkpt lat="-20.32384998933189" lon="119.45079585357387"><ele>39.0</ele><time>2026-04-23T07:33:15.001Z</time></trkpt><trkpt lat="-20.323959729241437" lon="119.4510113924531"><ele>40.0</ele><time>2026-04-23T07:33:16.001Z</time></trkpt><trkpt lat="-20.324074374801974" lon="119.45122739678628"><ele>40.0</ele><time>2026-04-23T07:33:17.001Z</time></trkpt><trkpt lat="-20.324191024128076" lon="119.45144331472396"><ele>40.0</ele><time>2026-04-23T07:33:18.001Z</time></trkpt><trkpt lat="-20.324310030114965" lon="119.45166046878946"><ele>40.0</ele><time>2026-04-23T07:33:19.001Z</time></trkpt><trkpt lat="-20.324429299832083" lon="119.45187514765504"><ele>40.0</ele><time>2026-04-23T07:33:20.001Z</time></trkpt><trkpt lat="-20.324548488280772" lon="119.45209596106685"><ele>39.5</ele><time>2026-04-23T07:33:21.001Z</time></trkpt><trkpt lat="-20.324664081967445" lon="119.45231368741722"><ele>39.0</ele><time>2026-04-23T07:33:22.001Z</time></trkpt><trkpt lat="-20.32477223003973" lon="119.4525186102756"><ele>39.333333333333336</ele><time>2026-04-23T07:33:23.002Z</time></trkpt><trkpt lat="-20.324873451941595" lon="119.45270947325224"><ele>39.66666666666667</ele><time>2026-04-23T07:33:24.002Z</time></trkpt><trkpt lat="-20.324969271835528" lon="119.45288755198403"><ele>40.0</ele><time>2026-04-23T07:33:25.002Z</time></trkpt><trkpt lat="-20.32505878497721" lon="119.45304958137102"><ele>40.0</ele><time>2026-04-23T07:33:26.002Z</time></trkpt><trkpt lat="-20.325163940199282" lon="119.45323404237053"><ele>40.0</ele><time>2026-04-23T07:33:27.002Z</time></trkpt><trkpt lat="-20.325259478266215" lon="119.45343349316633"><ele>40.0</ele><time>2026-04-23T07:33:28.002Z</time></trkpt><trkpt lat="-20.325373840966602" lon="119.4536227053898"><ele>40.0</ele><time>2026-04-23T07:33:29Z</time></trkpt><trkpt lat="-20.32549614948922" lon="119.45380687644892"><ele>40.0</ele><time>2026-04-23T07:33:30Z</time></trkpt><trkpt lat="-20.325626340114553" lon="119.45398786941628"><ele>40.0</ele><time>2026-04-23T07:33:31Z</time></trkpt><trkpt lat="-20.325755185984235" lon="119.45415355443664"><ele>41.0</ele><time>2026-04-23T07:33:32Z</time></trkpt><trkpt lat="-20.32589308018336" lon="119.45429627382376"><ele>42.0</ele><time>2026-04-23T07:33:33Z</time></trkpt><trkpt lat="-20.326013298637626" lon="119.45444487164313"><ele>43.0</ele><time>2026-04-23T07:33:34Z</time></trkpt><trkpt lat="-20.32612992070489" lon="119.45457568203102"><ele>43.333333333333336</ele><time>2026-04-23T07:33:35Z</time></trkpt><trkpt lat="-20.32624123048124" lon="119.45469477972938"><ele>43.666666666666664</ele><time>2026-04-23T07:33:36Z</time></trkpt><trkpt lat="-20.3263526076413" lon="119.45480612769845"><ele>44.0</ele><time>2026-04-23T07:33:37Z</time></trkpt><trkpt lat="-20.32646520586917" lon="119.4549295732077"><ele>44.666666666666664</ele><time>2026-04-23T07:33:38Z</time></trkpt><trkpt lat="-20.32656175826449" lon="119.45503978331296"><ele>45.333333333333336</ele><time>2026-04-23T07:33:39Z</time></trkpt><trkpt lat="-20.326686114494343" lon="119.45516635428427"><ele>46.0</ele><time>2026-04-23T07:33:40Z</time></trkpt><trkpt lat="-20.326805599109072" lon="119.45530319627775"><ele>46.0</ele><time>2026-04-23T07:33:41Z</time></trkpt><trkpt lat="-20.326928899169747" lon="119.45544313716668"><ele>46.0</ele><time>2026-04-23T07:33:42Z</time></trkpt><trkpt lat="-20.3270552787433" lon="119.45558380368846"><ele>46.0</ele><time>2026-04-23T07:33:43Z</time></trkpt><trkpt lat="-20.327186771337214" lon="119.45572828313203"><ele>46.0</ele><time>2026-04-23T07:33:44Z</time></trkpt><trkpt lat="-20.327320778327454" lon="119.45586405200307"><ele>46.0</ele><time>2026-04-23T07:33:45Z</time></trkpt><trkpt lat="-20.327450198694333" lon="119.45598777640163"><ele>46.0</ele><time>2026-04-23T07:33:46Z</time></trkpt><trkpt lat="-20.32758177176164" lon="119.45611116049328"><ele>46.0</ele><time>2026-04-23T07:33:47Z</time></trkpt><trkpt lat="-20.32771514593569" lon="119.4562322168059"><ele>46.0</ele><time>2026-04-23T07:33:48Z</time></trkpt><trkpt lat="-20.327844821326106" lon="119.45635056227081"><ele>46.0</ele><time>2026-04-23T07:33:49Z</time></trkpt><trkpt lat="-20.327970369962696" lon="119.45646585642166"><ele>46.75</ele><time>2026-04-23T07:33:50Z</time></trkpt><trkpt lat="-20.328086090314976" lon="119.45657229510161"><ele>47.5</ele><time>2026-04-23T07:33:51Z</time></trkpt><trkpt lat="-20.32819341830961" lon="119.45666708562383"><ele>48.25</ele><time>2026-04-23T07:33:52Z</time></trkpt><trkpt lat="-20.328304348150976" lon="119.45676475171726"><ele>49.0</ele><time>2026-04-23T07:33:53Z</time></trkpt><trkpt lat="-20.328419001008005" lon="119.45686466585296"><ele>49.0</ele><time>2026-04-23T07:33:54Z</time></trkpt><trkpt lat="-20.328541906506963" lon="119.45697072516496"><ele>49.0</ele><time>2026-04-23T07:33:55Z</time></trkpt><trkpt lat="-20.328654660013854" lon="119.4570694485059"><ele>49.0</ele><time>2026-04-23T07:33:56Z</time></trkpt><trkpt lat="-20.32875438849037" lon="119.45715940477277"><ele>49.0</ele><time>2026-04-23T07:33:57Z</time></trkpt><trkpt lat="-20.32886184677815" lon="119.4572591308528"><ele>49.33333333333333</ele><time>2026-04-23T07:33:58Z</time></trkpt><trkpt lat="-20.328974680114197" lon="119.45736787313642"><ele>49.66666666666667</ele><time>2026-04-23T07:33:59Z</time></trkpt><trkpt lat="-20.329090267625805" lon="119.45748949001087"><ele>50.0</ele><time>2026-04-23T07:34:00Z</time></trkpt><trkpt lat="-20.329199229301537" lon="119.45761381732744"><ele>50.0</ele><time>2026-04-23T07:34:01Z</time></trkpt><trkpt lat="-20.329306477293695" lon="119.45773963138586"><ele>50.0</ele><time>2026-04-23T07:34:02Z</time></trkpt><trkpt lat="-20.329404286270588" lon="119.45785672207137"><ele>50.0</ele><time>2026-04-23T07:34:03Z</time></trkpt><trkpt lat="-20.3294976289794" lon="119.45796791994191"><ele>50.0</ele><time>2026-04-23T07:34:04Z</time></trkpt><trkpt lat="-20.329581946440815" lon="119.4580717707171"><ele>50.75</ele><time>2026-04-23T07:34:05Z</time></trkpt><trkpt lat="-20.329660354813036" lon="119.45817147479696"><ele>51.5</ele><time>2026-04-23T07:34:06Z</time></trkpt><trkpt lat="-20.32973254168673" lon="119.4582694478634"><ele>52.25</ele><time>2026-04-23T07:34:07Z</time></trkpt><trkpt lat="-20.32980277869367" lon="119.45836182693293"><ele>53.0</ele><time>2026-04-23T07:34:08Z</time></trkpt><trkpt lat="-20.329873812333535" lon="119.45844477967225"><ele>52.00000000000001</ele><time>2026-04-23T07:34:09Z</time></trkpt><trkpt lat="-20.329923966089986" lon="119.45850911444377"><ele>51.0</ele><time>2026-04-23T07:34:10Z</time></trkpt><trkpt lat="-20.330010329708742" lon="119.45860865016465"><ele>50.0</ele><time>2026-04-23T07:34:11Z</time></trkpt><trkpt lat="-20.33005397958494" lon="119.45866318309942"><ele>49.0</ele><time>2026-04-23T07:34:12.001Z</time></trkpt><trkpt lat="-20.330106157429526" lon="119.45870215471274"><ele>48.0</ele><time>2026-04-23T07:34:13.001Z</time></trkpt><trkpt lat="-20.33016535542978" lon="119.45880060515006"><ele>47.0</ele><time>2026-04-23T07:34:38.001Z</time></trkpt><trkpt lat="-20.330200518063688" lon="119.4588680390233"><ele>47.0</ele><time>2026-04-23T07:34:39.001Z</time></trkpt><trkpt lat="-20.33024795749197" lon="119.45894768981537"><ele>47.0</ele><time>2026-04-23T07:34:40.001Z</time></trkpt><trkpt lat="-20.33031173505594" lon="119.45904145487042"><ele>47.0</ele><time>2026-04-23T07:34:41.001Z</time></trkpt><trkpt lat="-20.33038342642259" lon="119.4591351362993"><ele>47.0</ele><time>2026-04-23T07:34:42.001Z</time></trkpt><trkpt lat="-20.330461499144516" lon="119.4592441182381"><ele>47.0</ele><time>2026-04-23T07:34:43.001Z</time></trkpt><trkpt lat="-20.330547377665184" lon="119.4593676693702"><ele>47.0</ele><time>2026-04-23T07:34:44.001Z</time></trkpt><trkpt lat="-20.330636108985075" lon="119.4595048878313"><ele>47.0</ele><time>2026-04-23T07:34:45.001Z</time></trkpt><trkpt lat="-20.330718853121528" lon="119.45963972515399"><ele>47.0</ele><time>2026-04-23T07:34:46.001Z</time></trkpt><trkpt lat="-20.330794073207347" lon="119.45977082780767"><ele>47.0</ele><time>2026-04-23T07:34:47.001Z</time></trkpt><trkpt lat="-20.330872821553633" lon="119.45991354384824"><ele>47.0</ele><time>2026-04-23T07:34:48.001Z</time></trkpt><trkpt lat="-20.33094814802914" lon="119.4600559833305"><ele>47.0</ele><time>2026-04-23T07:34:49.001Z</time></trkpt><trkpt lat="-20.331021893087385" lon="119.4602016542515"><ele>47.0</ele><time>2026-04-23T07:34:50.001Z</time></trkpt><trkpt lat="-20.331095109007865" lon="119.46034267579569"><ele>47.0</ele><time>2026-04-23T07:34:51.001Z</time></trkpt><trkpt lat="-20.33116530933347" lon="119.46049063788604"><ele>47.0</ele><time>2026-04-23T07:34:52.001Z</time></trkpt><trkpt lat="-20.331235849034712" lon="119.46064482097736"><ele>47.0</ele><time>2026-04-23T07:34:53.001Z</time></trkpt><trkpt lat="-20.331307529973245" lon="119.46081618787206"><ele>47.0</ele><time>2026-04-23T07:34:54.001Z</time></trkpt><trkpt lat="-20.33138397557158" lon="119.4610045173056"><ele>47.0</ele><time>2026-04-23T07:34:55.001Z</time></trkpt><trkpt lat="-20.33145901957395" lon="119.4612046613698"><ele>47.0</ele><time>2026-04-23T07:34:56.001Z</time></trkpt><trkpt lat="-20.33153606621752" lon="119.46141156786328"><ele>47.0</ele><time>2026-04-23T07:34:57.001Z</time></trkpt><trkpt lat="-20.3316036893602" lon="119.46160987884448"><ele>47.0</ele><time>2026-04-23T07:34:58.001Z</time></trkpt><trkpt lat="-20.33166977428887" lon="119.46180775814464"><ele>47.0</ele><time>2026-04-23T07:34:59.001Z</time></trkpt><trkpt lat="-20.331737364193376" lon="119.46202144911196"><ele>47.0</ele><time>2026-04-23T07:35:00.001Z</time></trkpt><trkpt lat="-20.331798194498738" lon="119.46223807522199"><ele>47.0</ele><time>2026-04-23T07:35:01.001Z</time></trkpt><trkpt lat="-20.331852058475494" lon="119.46245727335902"><ele>47.33333333333333</ele><time>2026-04-23T07:35:02.001Z</time></trkpt><trkpt lat="-20.331904843701306" lon="119.46267380426755"><ele>47.666666666666664</ele><time>2026-04-23T07:35:03.001Z</time></trkpt><trkpt lat="-20.33195457426428" lon="119.46289130808293"><ele>48.0</ele><time>2026-04-23T07:35:04.001Z</time></trkpt><trkpt lat="-20.332001302933534" lon="119.46311163184122"><ele>48.0</ele><time>2026-04-23T07:35:05.001Z</time></trkpt><trkpt lat="-20.33204392748034" lon="119.46333607461078"><ele>48.0</ele><time>2026-04-23T07:35:06.001Z</time></trkpt><trkpt lat="-20.33208360468748" lon="119.46356027368002"><ele>48.0</ele><time>2026-04-23T07:35:07.001Z</time></trkpt><trkpt lat="-20.332114749957082" lon="119.46379081588447"><ele>48.0</ele><time>2026-04-23T07:35:08.001Z</time></trkpt><trkpt lat="-20.33214036986474" lon="119.46402429093189"><ele>48.0</ele><time>2026-04-23T07:35:09.001Z</time></trkpt><trkpt lat="-20.332160318000803" lon="119.46426330374321"><ele>48.0</ele><time>2026-04-23T07:35:10.001Z</time></trkpt><trkpt lat="-20.33218145993847" lon="119.46450418129909"><ele>48.0</ele><time>2026-04-23T07:35:11.001Z</time></trkpt><trkpt lat="-20.33220791020709" lon="119.46474312390332"><ele>48.0</ele><time>2026-04-23T07:35:12.002Z</time></trkpt><trkpt lat="-20.332233991013954" lon="119.46498566613093"><ele>47.0</ele><time>2026-04-23T07:35:13.002Z</time></trkpt><trkpt lat="-20.332256494227497" lon="119.4652280932324"><ele>46.0</ele><time>2026-04-23T07:35:14.002Z</time></trkpt><trkpt lat="-20.3322751979219" lon="119.46547653222682"><ele>45.66666666666667</ele><time>2026-04-23T07:35:15.002Z</time></trkpt><trkpt lat="-20.33229505980403" lon="119.46570955295934"><ele>45.333333333333336</ele><time>2026-04-23T07:35:16.002Z</time></trkpt><trkpt lat="-20.33231975623938" lon="119.46595015940478"><ele>45.0</ele><time>2026-04-23T07:35:17.002Z</time></trkpt><trkpt lat="-20.33234388905217" lon="119.46617824430194"><ele>45.333333333333336</ele><time>2026-04-23T07:35:18.002Z</time></trkpt><trkpt lat="-20.33236730158608" lon="119.46639961898849"><ele>45.66666666666667</ele><time>2026-04-23T07:35:19.002Z</time></trkpt><trkpt lat="-20.33238802796401" lon="119.46661665466851"><ele>46.0</ele><time>2026-04-23T07:35:20.002Z</time></trkpt><trkpt lat="-20.332407189067705" lon="119.46684300407178"><ele>46.0</ele><time>2026-04-23T07:35:21.002Z</time></trkpt><trkpt lat="-20.33242337277817" lon="119.4670705066893"><ele>46.0</ele><time>2026-04-23T07:35:22.002Z</time></trkpt><trkpt lat="-20.332432831004187" lon="119.4672935390929"><ele>46.0</ele><time>2026-04-23T07:35:23.002Z</time></trkpt><trkpt lat="-20.33244319286365" lon="119.46750330153047"><ele>46.0</ele><time>2026-04-23T07:35:24.002Z</time></trkpt><trkpt lat="-20.332454589623268" lon="119.46771431195383"><ele>46.0</ele><time>2026-04-23T07:35:25.002Z</time></trkpt><trkpt lat="-20.332478775527584" lon="119.4679100323333"><ele>46.0</ele><time>2026-04-23T07:35:26.002Z</time></trkpt><trkpt lat="-20.3325153695528" lon="119.46810046181315"><ele>45.66666666666667</ele><time>2026-04-23T07:35:27.002Z</time></trkpt><trkpt lat="-20.332537671901665" lon="119.46829153624196"><ele>45.333333333333336</ele><time>2026-04-23T07:35:28.002Z</time></trkpt><trkpt lat="-20.332543483167637" lon="119.46849104777566"><ele>45.0</ele><time>2026-04-23T07:35:29.002Z</time></trkpt><trkpt lat="-20.332553471484054" lon="119.46869159204041"><ele>44.666666666666664</ele><time>2026-04-23T07:35:30.002Z</time></trkpt><trkpt lat="-20.332575562132618" lon="119.46890802438521"><ele>44.33333333333333</ele><time>2026-04-23T07:35:31.002Z</time></trkpt><trkpt lat="-20.332598074491194" lon="119.4691185651964"><ele>44.0</ele><time>2026-04-23T07:35:32.002Z</time></trkpt><trkpt lat="-20.3326217958877" lon="119.46932865867413"><ele>44.0</ele><time>2026-04-23T07:35:33.002Z</time></trkpt><trkpt lat="-20.332647972492286" lon="119.46954188642374"><ele>44.0</ele><time>2026-04-23T07:35:34.002Z</time></trkpt><trkpt lat="-20.332672254893126" lon="119.46975857473889"><ele>44.0</ele><time>2026-04-23T07:35:35Z</time></trkpt><trkpt lat="-20.332694007599677" lon="119.46996613515232"><ele>44.0</ele><time>2026-04-23T07:35:36Z</time></trkpt><trkpt lat="-20.332713247920005" lon="119.47018041339943"><ele>44.0</ele><time>2026-04-23T07:35:37Z</time></trkpt><trkpt lat="-20.332730982269418" lon="119.47040547554661"><ele>44.0</ele><time>2026-04-23T07:35:38Z</time></trkpt><trkpt lat="-20.332744437375954" lon="119.47063311796872"><ele>43.33333333333333</ele><time>2026-04-23T07:35:39Z</time></trkpt><trkpt lat="-20.332763313091455" lon="119.47086559431652"><ele>42.666666666666664</ele><time>2026-04-23T07:35:40Z</time></trkpt><trkpt lat="-20.33278823047698" lon="119.47110192612351"><ele>42.0</ele><time>2026-04-23T07:35:41Z</time></trkpt><trkpt lat="-20.33281398956335" lon="119.47133905617412"><ele>42.0</ele><time>2026-04-23T07:35:42Z</time></trkpt><trkpt lat="-20.332836161647112" lon="119.47157884853331"><ele>42.0</ele><time>2026-04-23T07:35:43Z</time></trkpt><trkpt lat="-20.33286176854679" lon="119.47182102433885"><ele>42.0</ele><time>2026-04-23T07:35:44Z</time></trkpt><trkpt lat="-20.332880808547376" lon="119.47205201177933"><ele>42.0</ele><time>2026-04-23T07:35:45Z</time></trkpt><trkpt lat="-20.33289856540483" lon="119.47227864110364"><ele>42.0</ele><time>2026-04-23T07:35:46Z</time></trkpt><trkpt lat="-20.332916005940678" lon="119.47251239569215"><ele>42.0</ele><time>2026-04-23T07:35:47Z</time></trkpt><trkpt lat="-20.332937373612065" lon="119.47273793086154"><ele>42.0</ele><time>2026-04-23T07:35:48Z</time></trkpt><trkpt lat="-20.332962394220036" lon="119.47296418607348"><ele>42.0</ele><time>2026-04-23T07:35:49Z</time></trkpt><trkpt lat="-20.332987307430493" lon="119.47319499670783"><ele>41.666666666666664</ele><time>2026-04-23T07:35:50Z</time></trkpt><trkpt lat="-20.33301058671761" lon="119.47343248633196"><ele>41.33333333333333</ele><time>2026-04-23T07:35:51Z</time></trkpt><trkpt lat="-20.333035554697148" lon="119.47366630226028"><ele>41.0</ele><time>2026-04-23T07:35:52Z</time></trkpt><trkpt lat="-20.333058577382165" lon="119.47390461649383"><ele>39.5</ele><time>2026-04-23T07:35:53Z</time></trkpt><trkpt lat="-20.33308397890932" lon="119.47414578664583"><ele>38.0</ele><time>2026-04-23T07:35:54Z</time></trkpt><trkpt lat="-20.33311279759608" lon="119.47439659219242"><ele>38.5</ele><time>2026-04-23T07:35:55Z</time></trkpt><trkpt lat="-20.333144858905282" lon="119.47465047417988"><ele>39.0</ele><time>2026-04-23T07:35:56Z</time></trkpt><trkpt lat="-20.33317398468229" lon="119.47490036809644"><ele>39.0</ele><time>2026-04-23T07:35:57Z</time></trkpt><trkpt lat="-20.333197883708056" lon="119.47515270039227"><ele>39.0</ele><time>2026-04-23T07:35:58Z</time></trkpt><trkpt lat="-20.333224101985667" lon="119.47539185843816"><ele>39.5</ele><time>2026-04-23T07:35:59Z</time></trkpt><trkpt lat="-20.333244562342976" lon="119.47563727444222"><ele>40.0</ele><time>2026-04-23T07:36:00Z</time></trkpt><trkpt lat="-20.333268293672774" lon="119.47588714213674"><ele>40.0</ele><time>2026-04-23T07:36:01.001Z</time></trkpt><trkpt lat="-20.333295879587226" lon="119.47613765057113"><ele>40.0</ele><time>2026-04-23T07:36:02.001Z</time></trkpt><trkpt lat="-20.333320600806115" lon="119.47639028317523"><ele>40.0</ele><time>2026-04-23T07:36:03.001Z</time></trkpt><trkpt lat="-20.333346621013952" lon="119.47664813625947"><ele>40.0</ele><time>2026-04-23T07:36:04.001Z</time></trkpt><trkpt lat="-20.3333757568689" lon="119.47691821263678"><ele>40.0</ele><time>2026-04-23T07:36:05.001Z</time></trkpt><trkpt lat="-20.33340432855978" lon="119.47718615194242"><ele>40.0</ele><time>2026-04-23T07:36:06.001Z</time></trkpt><trkpt lat="-20.33343262070031" lon="119.47745658524205"><ele>40.0</ele><time>2026-04-23T07:36:07.001Z</time></trkpt><trkpt lat="-20.333462119845343" lon="119.47772960192033"><ele>40.0</ele><time>2026-04-23T07:36:08.001Z</time></trkpt><trkpt lat="-20.333488206761302" lon="119.47799168678549"><ele>40.0</ele><time>2026-04-23T07:36:09.001Z</time></trkpt><trkpt lat="-20.333512570278504" lon="119.4782601160249"><ele>40.0</ele><time>2026-04-23T07:36:10.001Z</time></trkpt><trkpt lat="-20.33353819207101" lon="119.47852501961073"><ele>39.5</ele><time>2026-04-23T07:36:11.001Z</time></trkpt><trkpt lat="-20.33356742194889" lon="119.47879953289592"><ele>39.0</ele><time>2026-04-23T07:36:12.001Z</time></trkpt><trkpt lat="-20.333597460614364" lon="119.47908271589073"><ele>39.0</ele><time>2026-04-23T07:36:13.001Z</time></trkpt><trkpt lat="-20.333627976007442" lon="119.4793697830449"><ele>39.0</ele><time>2026-04-23T07:36:14.001Z</time></trkpt><trkpt lat="-20.333656489564195" lon="119.47966137741828"><ele>39.0</ele><time>2026-04-23T07:36:15.001Z</time></trkpt><trkpt lat="-20.33368767255143" lon="119.47995270722309"><ele>39.0</ele><time>2026-04-23T07:36:16.001Z</time></trkpt><trkpt lat="-20.33371590225693" lon="119.48024463887693"><ele>39.0</ele><time>2026-04-23T07:36:17.001Z</time></trkpt><trkpt lat="-20.333743246625964" lon="119.48053493507074"><ele>39.0</ele><time>2026-04-23T07:36:18.001Z</time></trkpt><trkpt lat="-20.333769567818624" lon="119.48082323961643"><ele>39.0</ele><time>2026-04-23T07:36:19.001Z</time></trkpt><trkpt lat="-20.333798793203698" lon="119.48110956406863"><ele>39.0</ele><time>2026-04-23T07:36:20.001Z</time></trkpt><trkpt lat="-20.333825530280745" lon="119.48139311032024"><ele>39.5</ele><time>2026-04-23T07:36:21.001Z</time></trkpt><trkpt lat="-20.333851031235053" lon="119.48168163004318"><ele>40.0</ele><time>2026-04-23T07:36:22.001Z</time></trkpt><trkpt lat="-20.333878946363715" lon="119.48196826064836"><ele>38.5</ele><time>2026-04-23T07:36:23.001Z</time></trkpt><trkpt lat="-20.333905544095593" lon="119.48225420592364"><ele>37.0</ele><time>2026-04-23T07:36:24.001Z</time></trkpt><trkpt lat="-20.333932914943144" lon="119.48254501569035"><ele>37.0</ele><time>2026-04-23T07:36:25.001Z</time></trkpt><trkpt lat="-20.333962195950917" lon="119.48283634052422"><ele>37.0</ele><time>2026-04-23T07:36:26.001Z</time></trkpt><trkpt lat="-20.33399155826544" lon="119.48313108932233"><ele>38.0</ele><time>2026-04-23T07:36:27.001Z</time></trkpt><trkpt lat="-20.33402190486493" lon="119.4834153087415"><ele>39.0</ele><time>2026-04-23T07:36:28.001Z</time></trkpt><trkpt lat="-20.334052039790382" lon="119.48370134974112"><ele>38.5</ele><time>2026-04-23T07:36:29.001Z</time></trkpt><trkpt lat="-20.33408191304092" lon="119.48398472917796"><ele>38.0</ele><time>2026-04-23T07:36:30.001Z</time></trkpt><trkpt lat="-20.334113121097147" lon="119.48426957273007"><ele>38.0</ele><time>2026-04-23T07:36:31.001Z</time></trkpt><trkpt lat="-20.33414680806931" lon="119.48455157106923"><ele>38.0</ele><time>2026-04-23T07:36:32.001Z</time></trkpt><trkpt lat="-20.334174670205105" lon="119.48483724929955"><ele>37.5</ele><time>2026-04-23T07:36:33.001Z</time></trkpt><trkpt lat="-20.33420231328221" lon="119.4851192442734"><ele>37.0</ele><time>2026-04-23T07:36:34.001Z</time></trkpt><trkpt lat="-20.334226382498162" lon="119.48540552814084"><ele>38.5</ele><time>2026-04-23T07:36:35.001Z</time></trkpt><trkpt lat="-20.334248530890402" lon="119.48568331046951"><ele>40.0</ele><time>2026-04-23T07:36:36.001Z</time></trkpt><trkpt lat="-20.33427451260002" lon="119.48595702821629"><ele>40.0</ele><time>2026-04-23T07:36:37.001Z</time></trkpt><trkpt lat="-20.33430136946693" lon="119.4862301517932"><ele>40.0</ele><time>2026-04-23T07:36:38.001Z</time></trkpt><trkpt lat="-20.334324913968416" lon="119.48650226993074"><ele>39.5</ele><time>2026-04-23T07:36:39.001Z</time></trkpt><trkpt lat="-20.334351163196615" lon="119.48676459416023"><ele>39.0</ele><time>2026-04-23T07:36:40.001Z</time></trkpt><trkpt lat="-20.33437349270084" lon="119.48703103464307"><ele>37.5</ele><time>2026-04-23T07:36:41.001Z</time></trkpt><trkpt lat="-20.334397387432137" lon="119.48729740957725"><ele>36.0</ele><time>2026-04-23T07:36:42.001Z</time></trkpt><trkpt lat="-20.334422463462555" lon="119.48755868126172"><ele>36.0</ele><time>2026-04-23T07:36:43.001Z</time></trkpt><trkpt lat="-20.334450022128507" lon="119.48782403798627"><ele>36.0</ele><time>2026-04-23T07:36:44.001Z</time></trkpt><trkpt lat="-20.33447825906956" lon="119.48809071830988"><ele>36.0</ele><time>2026-04-23T07:36:45.001Z</time></trkpt><trkpt lat="-20.33450470664042" lon="119.48834810946222"><ele>36.0</ele><time>2026-04-23T07:36:46.001Z</time></trkpt><trkpt lat="-20.33453247850448" lon="119.48860486604329"><ele>36.5</ele><time>2026-04-23T07:36:47.001Z</time></trkpt><trkpt lat="-20.334526664530078" lon="119.48886691617032"><ele>37.0</ele><time>2026-04-23T07:36:48.001Z</time></trkpt><trkpt lat="-20.334553003738996" lon="119.48913087878796"><ele>37.0</ele><time>2026-04-23T07:36:49.001Z</time></trkpt><trkpt lat="-20.334583932766286" lon="119.4893988544966"><ele>37.0</ele><time>2026-04-23T07:36:50.001Z</time></trkpt><trkpt lat="-20.334612722760603" lon="119.48966357207607"><ele>36.5</ele><time>2026-04-23T07:36:51.001Z</time></trkpt><trkpt lat="-20.334651049582227" lon="119.48993387229734"><ele>36.0</ele><time>2026-04-23T07:36:52.001Z</time></trkpt><trkpt lat="-20.334672931258396" lon="119.49019288157461"><ele>37.0</ele><time>2026-04-23T07:36:53.001Z</time></trkpt><trkpt lat="-20.334689489213947" lon="119.49045764074444"><ele>38.0</ele><time>2026-04-23T07:36:54.001Z</time></trkpt><trkpt lat="-20.334713188147344" lon="119.49071075239067"><ele>37.0</ele><time>2026-04-23T07:36:55.001Z</time></trkpt><trkpt lat="-20.334760110656692" lon="119.49121389395707"><ele>37.333333333333336</ele><time>2026-04-23T07:36:57.001Z</time></trkpt><trkpt lat="-20.334782796810824" lon="119.49145615945281"><ele>37.666666666666664</ele><time>2026-04-23T07:36:58.001Z</time></trkpt><trkpt lat="-20.334801699252676" lon="119.4916893559986"><ele>38.0</ele><time>2026-04-23T07:36:59.001Z</time></trkpt><trkpt lat="-20.334818176826513" lon="119.49193106095194"><ele>38.0</ele><time>2026-04-23T07:37:00.001Z</time></trkpt><trkpt lat="-20.334837512344926" lon="119.49218250955468"><ele>38.0</ele><time>2026-04-23T07:37:01.001Z</time></trkpt><trkpt lat="-20.33485790821919" lon="119.49241031568116"><ele>38.0</ele><time>2026-04-23T07:37:02.001Z</time></trkpt><trkpt lat="-20.334876494158546" lon="119.49264270742142"><ele>38.0</ele><time>2026-04-23T07:37:03.001Z</time></trkpt><trkpt lat="-20.334892526689583" lon="119.49284720939717"><ele>38.0</ele><time>2026-04-23T07:37:04.001Z</time></trkpt><trkpt lat="-20.33490674992719" lon="119.49304821172814"><ele>37.666666666666664</ele><time>2026-04-23T07:37:05.001Z</time></trkpt><trkpt lat="-20.33492762530287" lon="119.49324882138981"><ele>37.333333333333336</ele><time>2026-04-23T07:37:06.002Z</time></trkpt><trkpt lat="-20.334949290071048" lon="119.49344443300562"><ele>37.0</ele><time>2026-04-23T07:37:07.002Z</time></trkpt><trkpt lat="-20.334974151134944" lon="119.49364002280065"><ele>37.333333333333336</ele><time>2026-04-23T07:37:08.002Z</time></trkpt><trkpt lat="-20.334994148583945" lon="119.49383314612513"><ele>37.666666666666664</ele><time>2026-04-23T07:37:09.002Z</time></trkpt><trkpt lat="-20.33501337523951" lon="119.49401330941579"><ele>38.0</ele><time>2026-04-23T07:37:10.002Z</time></trkpt><trkpt lat="-20.335032003877277" lon="119.49417923522645"><ele>38.0</ele><time>2026-04-23T07:37:11.002Z</time></trkpt><trkpt lat="-20.335050567985842" lon="119.4943344693068"><ele>38.0</ele><time>2026-04-23T07:37:12.002Z</time></trkpt><trkpt lat="-20.335064637896057" lon="119.49445537669571"><ele>38.0</ele><time>2026-04-23T07:37:13.002Z</time></trkpt><trkpt lat="-20.33507748128449" lon="119.49456392741631"><ele>38.0</ele><time>2026-04-23T07:37:14.002Z</time></trkpt><trkpt lat="-20.33508898476069" lon="119.49465663875361"><ele>38.0</ele><time>2026-04-23T07:37:15.002Z</time></trkpt><trkpt lat="-20.33510086814285" lon="119.49473180226342"><ele>38.0</ele><time>2026-04-23T07:37:16.002Z</time></trkpt><trkpt lat="-20.335098967660976" lon="119.49483556092166"><ele>38.0</ele><time>2026-04-23T07:37:18.002Z</time></trkpt><trkpt lat="-20.33510393449935" lon="119.49490916350254"><ele>38.0</ele><time>2026-04-23T07:37:39.002Z</time></trkpt><trkpt lat="-20.335112814452998" lon="119.49501664343985"><ele>38.0</ele><time>2026-04-23T07:37:41Z</time></trkpt><trkpt lat="-20.335119565285954" lon="119.49509929757261"><ele>38.0</ele><time>2026-04-23T07:37:42Z</time></trkpt><trkpt lat="-20.335125464195553" lon="119.49517969402733"><ele>38.0</ele><time>2026-04-23T07:37:43Z</time></trkpt><trkpt lat="-20.33513287001394" lon="119.49526746492378"><ele>38.0</ele><time>2026-04-23T07:37:44Z</time></trkpt><trkpt lat="-20.335142985894027" lon="119.49538809272923"><ele>38.0</ele><time>2026-04-23T07:37:45Z</time></trkpt><trkpt lat="-20.33515222012026" lon="119.49549841854595"><ele>38.0</ele><time>2026-04-23T07:37:46Z</time></trkpt><trkpt lat="-20.335161888962684" lon="119.49559265245789"><ele>38.0</ele><time>2026-04-23T07:37:47Z</time></trkpt><trkpt lat="-20.33517300824398" lon="119.49567780760019"><ele>37.83333333333333</ele><time>2026-04-23T07:37:48Z</time></trkpt><trkpt lat="-20.335176867487498" lon="119.49575745278861"><ele>37.666666666666664</ele><time>2026-04-23T07:37:49Z</time></trkpt><trkpt lat="-20.33517917407947" lon="119.49584552718737"><ele>37.5</ele><time>2026-04-23T07:37:50Z</time></trkpt><trkpt lat="-20.335185896037114" lon="119.49593361350371"><ele>37.333333333333336</ele><time>2026-04-23T07:37:51Z</time></trkpt><trkpt lat="-20.335194112203645" lon="119.49602663344554"><ele>37.16666666666667</ele><time>2026-04-23T07:37:52Z</time></trkpt><trkpt lat="-20.335202601700082" lon="119.49612635588251"><ele>37.0</ele><time>2026-04-23T07:37:53Z</time></trkpt><trkpt lat="-20.335216957302507" lon="119.49623031806779"><ele>37.0</ele><time>2026-04-23T07:37:54Z</time></trkpt><trkpt lat="-20.33523098360547" lon="119.496331971905"><ele>37.0</ele><time>2026-04-23T07:37:55Z</time></trkpt><trkpt lat="-20.335222772061307" lon="119.49643280763033"><ele>37.0</ele><time>2026-04-23T07:37:56Z</time></trkpt><trkpt lat="-20.335231245703223" lon="119.49653492116357"><ele>37.0</ele><time>2026-04-23T07:37:57Z</time></trkpt><trkpt lat="-20.335240218841452" lon="119.49664555695027"><ele>37.0</ele><time>2026-04-23T07:37:58Z</time></trkpt><trkpt lat="-20.33524888113414" lon="119.49675159493988"><ele>37.0</ele><time>2026-04-23T07:37:59Z</time></trkpt><trkpt lat="-20.335256852883077" lon="119.49684560737633"><ele>37.0</ele><time>2026-04-23T07:38:00Z</time></trkpt><trkpt lat="-20.335264354769134" lon="119.49694345627451"><ele>37.0</ele><time>2026-04-23T07:38:01Z</time></trkpt><trkpt lat="-20.33527278315811" lon="119.49705446429452"><ele>37.0</ele><time>2026-04-23T07:38:02Z</time></trkpt><trkpt lat="-20.33528086446857" lon="119.49717019656617"><ele>37.0</ele><time>2026-04-23T07:38:03Z</time></trkpt><trkpt lat="-20.335289143650396" lon="119.49729402691301"><ele>36.75</ele><time>2026-04-23T07:38:04Z</time></trkpt><trkpt lat="-20.33529766148773" lon="119.49742292793131"><ele>36.5</ele><time>2026-04-23T07:38:05Z</time></trkpt><trkpt lat="-20.335306087082184" lon="119.49755091494842"><ele>36.25</ele><time>2026-04-23T07:38:06Z</time></trkpt><trkpt lat="-20.33531415690792" lon="119.49767275967648"><ele>36.0</ele><time>2026-04-23T07:38:07Z</time></trkpt><trkpt lat="-20.335323636333975" lon="119.49779486113671"><ele>36.5</ele><time>2026-04-23T07:38:08Z</time></trkpt><trkpt lat="-20.33533386674056" lon="119.49792117055435"><ele>37.0</ele><time>2026-04-23T07:38:09Z</time></trkpt><trkpt lat="-20.33535993421691" lon="119.49804999195622"><ele>37.5</ele><time>2026-04-23T07:38:10Z</time></trkpt><trkpt lat="-20.33537281936005" lon="119.49818413508967"><ele>38.0</ele><time>2026-04-23T07:38:11Z</time></trkpt><trkpt lat="-20.335381156541906" lon="119.49829805335695"><ele>38.0</ele><time>2026-04-23T07:38:12Z</time></trkpt><trkpt lat="-20.335399429295578" lon="119.49841094875141"><ele>38.0</ele><time>2026-04-23T07:38:13Z</time></trkpt><trkpt lat="-20.335415071314692" lon="119.4985295362034"><ele>38.0</ele><time>2026-04-23T07:38:14Z</time></trkpt><trkpt lat="-20.335443533397058" lon="119.49864494015179"><ele>38.0</ele><time>2026-04-23T07:38:15Z</time></trkpt><trkpt lat="-20.335477291410434" lon="119.49876589408379"><ele>38.0</ele><time>2026-04-23T07:38:16Z</time></trkpt><trkpt lat="-20.33549734661037" lon="119.49889943301963"><ele>38.0</ele><time>2026-04-23T07:38:17Z</time></trkpt><trkpt lat="-20.33552797631609" lon="119.49903914048122"><ele>38.0</ele><time>2026-04-23T07:38:18.001Z</time></trkpt><trkpt lat="-20.335560550934765" lon="119.49918657358788"><ele>38.0</ele><time>2026-04-23T07:38:19.001Z</time></trkpt><trkpt lat="-20.335590908172946" lon="119.49932397078757"><ele>38.0</ele><time>2026-04-23T07:38:20.001Z</time></trkpt><trkpt lat="-20.335640560289765" lon="119.4994798793365"><ele>38.0</ele><time>2026-04-23T07:38:21.001Z</time></trkpt><trkpt lat="-20.335653608188085" lon="119.4996410877944"><ele>38.0</ele><time>2026-04-23T07:38:22.001Z</time></trkpt><trkpt lat="-20.335698177944096" lon="119.49981257648687"><ele>38.0</ele><time>2026-04-23T07:38:23.001Z</time></trkpt><trkpt lat="-20.33572843014441" lon="119.49998463502808"><ele>38.0</ele><time>2026-04-23T07:38:24.001Z</time></trkpt><trkpt lat="-20.335770492524276" lon="119.50016157028361"><ele>38.0</ele><time>2026-04-23T07:38:25.001Z</time></trkpt><trkpt lat="-20.335814906886466" lon="119.5003509750695"><ele>37.666666666666664</ele><time>2026-04-23T07:38:26.001Z</time></trkpt><trkpt lat="-20.335864197220705" lon="119.50053852556314"><ele>37.333333333333336</ele><time>2026-04-23T07:38:27.001Z</time></trkpt><trkpt lat="-20.335900049519935" lon="119.50072933051814"><ele>37.0</ele><time>2026-04-23T07:38:28.001Z</time></trkpt><trkpt lat="-20.3359392544092" lon="119.50090744545672"><ele>37.0</ele><time>2026-04-23T07:38:29.001Z</time></trkpt><trkpt lat="-20.33598873872487" lon="119.5010877936775"><ele>37.0</ele><time>2026-04-23T07:38:30.001Z</time></trkpt><trkpt lat="-20.336023580138434" lon="119.50127442805851"><ele>37.0</ele><time>2026-04-23T07:38:31.001Z</time></trkpt><trkpt lat="-20.33606750847191" lon="119.50145827057852"><ele>37.66666666666667</ele><time>2026-04-23T07:38:32.001Z</time></trkpt><trkpt lat="-20.33609595377203" lon="119.50165342856232"><ele>38.333333333333336</ele><time>2026-04-23T07:38:33.001Z</time></trkpt><trkpt lat="-20.336129401296464" lon="119.50184977691265"><ele>39.0</ele><time>2026-04-23T07:38:34.001Z</time></trkpt><trkpt lat="-20.33616344723701" lon="119.50204400751788"><ele>39.0</ele><time>2026-04-23T07:38:35.001Z</time></trkpt><trkpt lat="-20.336198940222474" lon="119.50223094704442"><ele>39.0</ele><time>2026-04-23T07:38:36.001Z</time></trkpt><trkpt lat="-20.336239186990294" lon="119.50243055391346"><ele>39.0</ele><time>2026-04-23T07:38:37.001Z</time></trkpt><trkpt lat="-20.33629718234824" lon="119.50263814398501"><ele>39.0</ele><time>2026-04-23T07:38:38.001Z</time></trkpt><trkpt lat="-20.33633517015784" lon="119.50283833979115"><ele>39.0</ele><time>2026-04-23T07:38:39.001Z</time></trkpt><trkpt lat="-20.3363759771586" lon="119.50303880849171"><ele>39.0</ele><time>2026-04-23T07:38:40.001Z</time></trkpt><trkpt lat="-20.33641849948767" lon="119.50324411276502"><ele>39.0</ele><time>2026-04-23T07:38:41.001Z</time></trkpt><trkpt lat="-20.33646132853923" lon="119.50344988962084"><ele>39.0</ele><time>2026-04-23T07:38:42.001Z</time></trkpt><trkpt lat="-20.33648945046035" lon="119.50365965079754"><ele>39.0</ele><time>2026-04-23T07:38:43.001Z</time></trkpt><trkpt lat="-20.33654998968958" lon="119.50386426707423"><ele>39.0</ele><time>2026-04-23T07:38:44.001Z</time></trkpt><trkpt lat="-20.33659390019496" lon="119.5040670846212"><ele>39.0</ele><time>2026-04-23T07:38:45.001Z</time></trkpt><trkpt lat="-20.33663501293659" lon="119.50426684416924"><ele>39.0</ele><time>2026-04-23T07:38:46.001Z</time></trkpt><trkpt lat="-20.336660572493376" lon="119.50447304553508"><ele>39.0</ele><time>2026-04-23T07:38:47.001Z</time></trkpt><trkpt lat="-20.33670347713721" lon="119.50467853856377"><ele>39.0</ele><time>2026-04-23T07:38:48.001Z</time></trkpt><trkpt lat="-20.33674789133856" lon="119.5048912616638"><ele>39.0</ele><time>2026-04-23T07:38:49.001Z</time></trkpt><trkpt lat="-20.33679112383392" lon="119.505096330637"><ele>39.0</ele><time>2026-04-23T07:38:50.001Z</time></trkpt><trkpt lat="-20.336835256312924" lon="119.50530564672363"><ele>39.0</ele><time>2026-04-23T07:38:51.001Z</time></trkpt><trkpt lat="-20.336880860607433" lon="119.50552194348933"><ele>39.0</ele><time>2026-04-23T07:38:52.001Z</time></trkpt><trkpt lat="-20.336927286677412" lon="119.50573850898097"><ele>39.333333333333336</ele><time>2026-04-23T07:38:53.001Z</time></trkpt><trkpt lat="-20.336973018473095" lon="119.50594867850668"><ele>39.66666666666667</ele><time>2026-04-23T07:38:54.001Z</time></trkpt><trkpt lat="-20.33701995615626" lon="119.50616490352905"><ele>40.0</ele><time>2026-04-23T07:38:55.001Z</time></trkpt><trkpt lat="-20.337065071386295" lon="119.50637945830385"><ele>40.0</ele><time>2026-04-23T07:38:56.001Z</time></trkpt><trkpt lat="-20.33711186041498" lon="119.50659852689529"><ele>40.0</ele><time>2026-04-23T07:38:57.001Z</time></trkpt><trkpt lat="-20.33715925694369" lon="119.50681790423404"><ele>40.0</ele><time>2026-04-23T07:38:58.001Z</time></trkpt><trkpt lat="-20.33720661823349" lon="119.50703046463052"><ele>40.0</ele><time>2026-04-23T07:38:59.001Z</time></trkpt><trkpt lat="-20.33725442758899" lon="119.50724085613203"><ele>40.0</ele><time>2026-04-23T07:39:00.001Z</time></trkpt><trkpt lat="-20.3373013397477" lon="119.50744936647665"><ele>40.0</ele><time>2026-04-23T07:39:01.001Z</time></trkpt><trkpt lat="-20.337347455095394" lon="119.50766221785236"><ele>40.0</ele><time>2026-04-23T07:39:02.001Z</time></trkpt><trkpt lat="-20.337408079109817" lon="119.50787359482597"><ele>40.0</ele><time>2026-04-23T07:39:03.001Z</time></trkpt><trkpt lat="-20.337450719344908" lon="119.50808941542493"><ele>40.0</ele><time>2026-04-23T07:39:04.001Z</time></trkpt><trkpt lat="-20.337494663030004" lon="119.50830915691982"><ele>39.66666666666667</ele><time>2026-04-23T07:39:05.001Z</time></trkpt><trkpt lat="-20.337542726072623" lon="119.50852800619842"><ele>39.333333333333336</ele><time>2026-04-23T07:39:06.001Z</time></trkpt><trkpt lat="-20.33758955678122" lon="119.50874371016238"><ele>39.0</ele><time>2026-04-23T07:39:07.001Z</time></trkpt><trkpt lat="-20.337620193693464" lon="119.50896726990706"><ele>39.666666666666664</ele><time>2026-04-23T07:39:08.001Z</time></trkpt><trkpt lat="-20.337663243428246" lon="119.50919130373767"><ele>40.33333333333333</ele><time>2026-04-23T07:39:09.001Z</time></trkpt><trkpt lat="-20.33770586436117" lon="119.50941074175307"><ele>41.0</ele><time>2026-04-23T07:39:10.001Z</time></trkpt><trkpt lat="-20.33774815676492" lon="119.50963193106578"><ele>41.666666666666664</ele><time>2026-04-23T07:39:11.001Z</time></trkpt><trkpt lat="-20.337790830195292" lon="119.50985511314282"><ele>42.333333333333336</ele><time>2026-04-23T07:39:12.001Z</time></trkpt><trkpt lat="-20.337836983167445" lon="119.51008673677825"><ele>43.0</ele><time>2026-04-23T07:39:13.001Z</time></trkpt><trkpt lat="-20.33792325389515" lon="119.5103137487874"><ele>42.5</ele><time>2026-04-23T07:39:14.001Z</time></trkpt><trkpt lat="-20.337971581829343" lon="119.51055257689869"><ele>42.0</ele><time>2026-04-23T07:39:15.001Z</time></trkpt><trkpt lat="-20.338020260439134" lon="119.5107861908685"><ele>42.0</ele><time>2026-04-23T07:39:16.001Z</time></trkpt><trkpt lat="-20.338070890161244" lon="119.51102200260557"><ele>42.0</ele><time>2026-04-23T07:39:17.001Z</time></trkpt><trkpt lat="-20.33812093056133" lon="119.5112573909689"><ele>42.0</ele><time>2026-04-23T07:39:18.001Z</time></trkpt><trkpt lat="-20.33817324415323" lon="119.51149408661007"><ele>42.0</ele><time>2026-04-23T07:39:19.002Z</time></trkpt><trkpt lat="-20.33822547831433" lon="119.51173289483522"><ele>42.0</ele><time>2026-04-23T07:39:20.002Z</time></trkpt><trkpt lat="-20.33827811334338" lon="119.51197384717968"><ele>42.0</ele><time>2026-04-23T07:39:21.002Z</time></trkpt><trkpt lat="-20.338328752452494" lon="119.51221814706707"><ele>42.5</ele><time>2026-04-23T07:39:22.002Z</time></trkpt><trkpt lat="-20.33837792771084" lon="119.5124594973786"><ele>43.0</ele><time>2026-04-23T07:39:23.002Z</time></trkpt><trkpt lat="-20.33843112818467" lon="119.51270377126944"><ele>44.5</ele><time>2026-04-23T07:39:24.002Z</time></trkpt><trkpt lat="-20.33848571475031" lon="119.51294191101584"><ele>46.0</ele><time>2026-04-23T07:39:25.002Z</time></trkpt><trkpt lat="-20.338534085114617" lon="119.51318034719672"><ele>46.0</ele><time>2026-04-23T07:39:26.002Z</time></trkpt><trkpt lat="-20.3385818293219" lon="119.5134176018311"><ele>46.0</ele><time>2026-04-23T07:39:27.002Z</time></trkpt><trkpt lat="-20.3386298515213" lon="119.51365508820169"><ele>44.5</ele><time>2026-04-23T07:39:28.002Z</time></trkpt><trkpt lat="-20.338678893713478" lon="119.51389216583809"><ele>43.0</ele><time>2026-04-23T07:39:29.002Z</time></trkpt><trkpt lat="-20.338729109219425" lon="119.51412965808876"><ele>43.0</ele><time>2026-04-23T07:39:30.002Z</time></trkpt><trkpt lat="-20.338776388019834" lon="119.51435897089375"><ele>43.0</ele><time>2026-04-23T07:39:31.002Z</time></trkpt><trkpt lat="-20.338827876957975" lon="119.5145955877333"><ele>43.0</ele><time>2026-04-23T07:39:32.002Z</time></trkpt><trkpt lat="-20.33887527617169" lon="119.51482205295535"><ele>43.0</ele><time>2026-04-23T07:39:33.002Z</time></trkpt><trkpt lat="-20.33892792791409" lon="119.51505033651313"><ele>43.0</ele><time>2026-04-23T07:39:34.002Z</time></trkpt><trkpt lat="-20.338978039141566" lon="119.51527856274791"><ele>43.0</ele><time>2026-04-23T07:39:35.002Z</time></trkpt><trkpt lat="-20.339028679922293" lon="119.51551061822289"><ele>43.66666666666667</ele><time>2026-04-23T07:39:36.002Z</time></trkpt><trkpt lat="-20.33907487094734" lon="119.51573974674265"><ele>44.333333333333336</ele><time>2026-04-23T07:39:37.002Z</time></trkpt><trkpt lat="-20.339114180103333" lon="119.51597067099286"><ele>45.0</ele><time>2026-04-23T07:39:38.002Z</time></trkpt><trkpt lat="-20.33915087716531" lon="119.51620091120007"><ele>45.333333333333336</ele><time>2026-04-23T07:39:39.002Z</time></trkpt><trkpt lat="-20.33919710745724" lon="119.51642972196522"><ele>45.66666666666667</ele><time>2026-04-23T07:39:40.002Z</time></trkpt><trkpt lat="-20.33923875383434" lon="119.51665188163521"><ele>46.0</ele><time>2026-04-23T07:39:41.002Z</time></trkpt><trkpt lat="-20.339278031634638" lon="119.51687240243488"><ele>46.333333333333336</ele><time>2026-04-23T07:39:42.002Z</time></trkpt><trkpt lat="-20.339322414810862" lon="119.5170919498574"><ele>46.666666666666664</ele><time>2026-04-23T07:39:43.002Z</time></trkpt><trkpt lat="-20.33936582614671" lon="119.51730641832854"><ele>47.0</ele><time>2026-04-23T07:39:44.002Z</time></trkpt><trkpt lat="-20.33941692201338" lon="119.51752452794268"><ele>47.0</ele><time>2026-04-23T07:39:45.002Z</time></trkpt><trkpt lat="-20.33947384672971" lon="119.51774005796776"><ele>47.0</ele><time>2026-04-23T07:39:46.002Z</time></trkpt><trkpt lat="-20.339539437909796" lon="119.51794974467077"><ele>47.0</ele><time>2026-04-23T07:39:47Z</time></trkpt><trkpt lat="-20.339606038330686" lon="119.51816032069894"><ele>47.0</ele><time>2026-04-23T07:39:48Z</time></trkpt><trkpt lat="-20.339669782256916" lon="119.51837469660825"><ele>47.0</ele><time>2026-04-23T07:39:49Z</time></trkpt><trkpt lat="-20.339727867232508" lon="119.51859196908704"><ele>47.0</ele><time>2026-04-23T07:39:50Z</time></trkpt><trkpt lat="-20.339777737962915" lon="119.51880811939465"><ele>47.33333333333333</ele><time>2026-04-23T07:39:51Z</time></trkpt><trkpt lat="-20.339823920718253" lon="119.51902522073632"><ele>47.666666666666664</ele><time>2026-04-23T07:39:52Z</time></trkpt><trkpt lat="-20.339862791760595" lon="119.51923935637946"><ele>48.0</ele><time>2026-04-23T07:39:53Z</time></trkpt><trkpt lat="-20.339895942120854" lon="119.51945957753898"><ele>48.66666666666667</ele><time>2026-04-23T07:39:54Z</time></trkpt><trkpt lat="-20.33991119021876" lon="119.51967137621831"><ele>49.333333333333336</ele><time>2026-04-23T07:39:55Z</time></trkpt><trkpt lat="-20.33991449855937" lon="119.51987434208775"><ele>50.0</ele><time>2026-04-23T07:39:56Z</time></trkpt><trkpt lat="-20.339913312437634" lon="119.52007596369656"><ele>50.0</ele><time>2026-04-23T07:39:57Z</time></trkpt><trkpt lat="-20.33990728447986" lon="119.52028267113789"><ele>50.0</ele><time>2026-04-23T07:39:58Z</time></trkpt><trkpt lat="-20.339896756139606" lon="119.52049631936909"><ele>50.0</ele><time>2026-04-23T07:39:59Z</time></trkpt><trkpt lat="-20.339890472728516" lon="119.52071445028749"><ele>49.66666666666667</ele><time>2026-04-23T07:40:00Z</time></trkpt><trkpt lat="-20.339878642043114" lon="119.52093843871329"><ele>49.33333333333333</ele><time>2026-04-23T07:40:01Z</time></trkpt><trkpt lat="-20.33986575095643" lon="119.52115982610822"><ele>49.0</ele><time>2026-04-23T07:40:02Z</time></trkpt><trkpt lat="-20.33984725880664" lon="119.52137845165133"><ele>48.666666666666664</ele><time>2026-04-23T07:40:03Z</time></trkpt><trkpt lat="-20.339826943262892" lon="119.52158690925978"><ele>48.33333333333333</ele><time>2026-04-23T07:40:04Z</time></trkpt><trkpt lat="-20.339797160121957" lon="119.52177992142335"><ele>48.0</ele><time>2026-04-23T07:40:05Z</time></trkpt><trkpt lat="-20.339761080330177" lon="119.52196358559088"><ele>48.66666666666667</ele><time>2026-04-23T07:40:06Z</time></trkpt><trkpt lat="-20.339715049234474" lon="119.52215942122557"><ele>49.333333333333336</ele><time>2026-04-23T07:40:07Z</time></trkpt><trkpt lat="-20.3396548179343" lon="119.52236436924281"><ele>50.0</ele><time>2026-04-23T07:40:08Z</time></trkpt><trkpt lat="-20.339588210591046" lon="119.52256547731089"><ele>50.0</ele><time>2026-04-23T07:40:09Z</time></trkpt><trkpt lat="-20.33952433664785" lon="119.52274840578272"><ele>50.0</ele><time>2026-04-23T07:40:10Z</time></trkpt><trkpt lat="-20.33946582199051" lon="119.52291551742113"><ele>50.0</ele><time>2026-04-23T07:40:11Z</time></trkpt><trkpt lat="-20.33941679655877" lon="119.52305162096694"><ele>49.8</ele><time>2026-04-23T07:40:12Z</time></trkpt><trkpt lat="-20.33937752422844" lon="119.52316158760524"><ele>49.6</ele><time>2026-04-23T07:40:13Z</time></trkpt><trkpt lat="-20.339343999107413" lon="119.5232426458749"><ele>49.400000000000006</ele><time>2026-04-23T07:40:14Z</time></trkpt><trkpt lat="-20.33930814713398" lon="119.52331914817893"><ele>49.2</ele><time>2026-04-23T07:40:16Z</time></trkpt><trkpt lat="-20.339232316191385" lon="119.52327839992728"><ele>49.0</ele><time>2026-04-23T07:40:20.001Z</time></trkpt><trkpt lat="-20.33916243437384" lon="119.52319054179476"><ele>49.0</ele><time>2026-04-23T07:40:22.001Z</time></trkpt><trkpt lat="-20.339089424434487" lon="119.52315454920574"><ele>49.0</ele><time>2026-04-23T07:40:23.001Z</time></trkpt><trkpt lat="-20.33899441297747" lon="119.52313231002888"><ele>49.0</ele><time>2026-04-23T07:40:24.001Z</time></trkpt><trkpt lat="-20.338886042142835" lon="119.52311529675102"><ele>49.0</ele><time>2026-04-23T07:40:25.001Z</time></trkpt><trkpt lat="-20.338758543904756" lon="119.5230992606836"><ele>49.0</ele><time>2026-04-23T07:40:26.001Z</time></trkpt><trkpt lat="-20.33861052426332" lon="119.523081390173"><ele>48.666666666666664</ele><time>2026-04-23T07:40:27.001Z</time></trkpt><trkpt lat="-20.33844895702032" lon="119.52305657096315"><ele>48.33333333333333</ele><time>2026-04-23T07:40:28.001Z</time></trkpt><trkpt lat="-20.338274029199596" lon="119.52302034235208"><ele>48.0</ele><time>2026-04-23T07:40:29.001Z</time></trkpt><trkpt lat="-20.338098280252993" lon="119.52297749176554"><ele>47.666666666666664</ele><time>2026-04-23T07:40:30.001Z</time></trkpt><trkpt lat="-20.337914287249006" lon="119.52293231944098"><ele>47.33333333333333</ele><time>2026-04-23T07:40:31.001Z</time></trkpt><trkpt lat="-20.337721132755092" lon="119.52288828985687"><ele>47.0</ele><time>2026-04-23T07:40:32.001Z</time></trkpt><trkpt lat="-20.337518221323258" lon="119.52284920689958"><ele>46.666666666666664</ele><time>2026-04-23T07:40:33.001Z</time></trkpt><trkpt lat="-20.337310236957503" lon="119.52280590973194"><ele>46.333333333333336</ele><time>2026-04-23T07:40:34.001Z</time></trkpt><trkpt lat="-20.3370982429394" lon="119.52275860655601"><ele>46.0</ele><time>2026-04-23T07:40:35.001Z</time></trkpt><trkpt lat="-20.336882548340615" lon="119.5227063804008"><ele>46.0</ele><time>2026-04-23T07:40:36.001Z</time></trkpt><trkpt lat="-20.336660315003297" lon="119.52265032160778"><ele>46.0</ele><time>2026-04-23T07:40:37.001Z</time></trkpt><trkpt lat="-20.33644751773807" lon="119.5225989089657"><ele>46.0</ele><time>2026-04-23T07:40:38.001Z</time></trkpt><trkpt lat="-20.336227017033952" lon="119.5225512132937"><ele>46.0</ele><time>2026-04-23T07:40:39.001Z</time></trkpt><trkpt lat="-20.336001345499593" lon="119.52250574957499"><ele>46.0</ele><time>2026-04-23T07:40:40.001Z</time></trkpt><trkpt lat="-20.33577003235628" lon="119.52245722739616"><ele>45.5</ele><time>2026-04-23T07:40:41.001Z</time></trkpt><trkpt lat="-20.335536479915383" lon="119.52240547407207"><ele>45.0</ele><time>2026-04-23T07:40:42.001Z</time></trkpt><trkpt lat="-20.335305458855238" lon="119.5223456322726"><ele>45.0</ele><time>2026-04-23T07:40:43.001Z</time></trkpt><trkpt lat="-20.335071224069328" lon="119.5222805889909"><ele>45.0</ele><time>2026-04-23T07:40:44.001Z</time></trkpt><trkpt lat="-20.334836112110953" lon="119.52221897846702"><ele>45.5</ele><time>2026-04-23T07:40:45.001Z</time></trkpt><trkpt lat="-20.33460447070983" lon="119.52216136488154"><ele>46.0</ele><time>2026-04-23T07:40:46.001Z</time></trkpt><trkpt lat="-20.334370471306894" lon="119.5221082262961"><ele>44.0</ele><time>2026-04-23T07:40:47.001Z</time></trkpt><trkpt lat="-20.3338993856903" lon="119.52199959304896"><ele>44.0</ele><time>2026-04-23T07:40:49.001Z</time></trkpt><trkpt lat="-20.333665382031207" lon="119.52194123979592"><ele>44.0</ele><time>2026-04-23T07:40:50.001Z</time></trkpt><trkpt lat="-20.33343048400518" lon="119.52188604985217"><ele>44.0</ele><time>2026-04-23T07:40:51.001Z</time></trkpt><trkpt lat="-20.333194358982162" lon="119.52183452987391"><ele>44.0</ele><time>2026-04-23T07:40:52.001Z</time></trkpt><trkpt lat="-20.332957630524668" lon="119.52178699587354"><ele>44.5</ele><time>2026-04-23T07:40:53.001Z</time></trkpt><trkpt lat="-20.332719380114238" lon="119.52173949053474"><ele>45.0</ele><time>2026-04-23T07:40:54.001Z</time></trkpt><trkpt lat="-20.33248449660607" lon="119.5216874249007"><ele>45.0</ele><time>2026-04-23T07:40:55.001Z</time></trkpt><trkpt lat="-20.33224342629149" lon="119.52163167451963"><ele>45.0</ele><time>2026-04-23T07:40:56.001Z</time></trkpt><trkpt lat="-20.332007553972396" lon="119.5215767168644"><ele>45.5</ele><time>2026-04-23T07:40:57.001Z</time></trkpt><trkpt lat="-20.331761439260042" lon="119.52151961930969"><ele>46.0</ele><time>2026-04-23T07:40:58.001Z</time></trkpt><trkpt lat="-20.33152811933033" lon="119.52146647332579"><ele>46.0</ele><time>2026-04-23T07:40:59.001Z</time></trkpt><trkpt lat="-20.331314313600586" lon="119.52141988181671"><ele>46.0</ele><time>2026-04-23T07:41:00.001Z</time></trkpt><trkpt lat="-20.331111930706005" lon="119.52136924460022"><ele>46.0</ele><time>2026-04-23T07:41:01.001Z</time></trkpt><trkpt lat="-20.330897917440158" lon="119.52131518974376"><ele>46.0</ele><time>2026-04-23T07:41:02.001Z</time></trkpt><trkpt lat="-20.330676535347354" lon="119.52126369879176"><ele>46.0</ele><time>2026-04-23T07:41:03.001Z</time></trkpt><trkpt lat="-20.330445513867332" lon="119.5212149433448"><ele>46.0</ele><time>2026-04-23T07:41:04.001Z</time></trkpt><trkpt lat="-20.330211513188807" lon="119.52116311452097"><ele>46.0</ele><time>2026-04-23T07:41:05.001Z</time></trkpt><trkpt lat="-20.329969476370234" lon="119.52110893467113"><ele>46.0</ele><time>2026-04-23T07:41:06.001Z</time></trkpt><trkpt lat="-20.329724652421703" lon="119.5210524423994"><ele>46.0</ele><time>2026-04-23T07:41:07.001Z</time></trkpt><trkpt lat="-20.329474177204734" lon="119.52099394755732"><ele>46.0</ele><time>2026-04-23T07:41:08.001Z</time></trkpt><trkpt lat="-20.32922617029345" lon="119.52093793981508"><ele>46.0</ele><time>2026-04-23T07:41:09.001Z</time></trkpt><trkpt lat="-20.328979408859105" lon="119.5208803349269"><ele>46.0</ele><time>2026-04-23T07:41:10.001Z</time></trkpt><trkpt lat="-20.32872708415945" lon="119.52082138788741"><ele>46.0</ele><time>2026-04-23T07:41:11.001Z</time></trkpt><trkpt lat="-20.32847302012457" lon="119.52076230123586"><ele>46.0</ele><time>2026-04-23T07:41:12.001Z</time></trkpt><trkpt lat="-20.328219076262176" lon="119.52070425959441"><ele>46.0</ele><time>2026-04-23T07:41:13.001Z</time></trkpt><trkpt lat="-20.32796615946705" lon="119.52064669068147"><ele>46.5</ele><time>2026-04-23T07:41:14.001Z</time></trkpt><trkpt lat="-20.327711433102795" lon="119.52058798931573"><ele>47.0</ele><time>2026-04-23T07:41:15.001Z</time></trkpt><trkpt lat="-20.327457272283443" lon="119.52052722035565"><ele>46.5</ele><time>2026-04-23T07:41:16.001Z</time></trkpt><trkpt lat="-20.327201981150317" lon="119.52046732035879"><ele>46.0</ele><time>2026-04-23T07:41:17.001Z</time></trkpt><trkpt lat="-20.32694983931034" lon="119.52041098749172"><ele>47.0</ele><time>2026-04-23T07:41:18.001Z</time></trkpt><trkpt lat="-20.326700012787096" lon="119.52035590658815"><ele>48.0</ele><time>2026-04-23T07:41:19.001Z</time></trkpt><trkpt lat="-20.32645167520018" lon="119.52030483094235"><ele>48.5</ele><time>2026-04-23T07:41:20.002Z</time></trkpt><trkpt lat="-20.326208718423384" lon="119.52025173021764"><ele>49.0</ele><time>2026-04-23T07:41:21.002Z</time></trkpt><trkpt lat="-20.325995271264276" lon="119.52019328405136"><ele>49.0</ele><time>2026-04-23T07:41:22.002Z</time></trkpt><trkpt lat="-20.325785009604736" lon="119.5201461703974"><ele>49.0</ele><time>2026-04-23T07:41:23.002Z</time></trkpt><trkpt lat="-20.32556907297666" lon="119.52010260397931"><ele>49.0</ele><time>2026-04-23T07:41:24.002Z</time></trkpt><trkpt lat="-20.325350773621793" lon="119.52006903519224"><ele>48.33333333333333</ele><time>2026-04-23T07:41:25.002Z</time></trkpt><trkpt lat="-20.325130541052797" lon="119.52004642324557"><ele>47.666666666666664</ele><time>2026-04-23T07:41:26.002Z</time></trkpt><trkpt lat="-20.324909282754852" lon="119.52004114251807"><ele>47.0</ele><time>2026-04-23T07:41:27.002Z</time></trkpt><trkpt lat="-20.32466912175845" lon="119.52005071487464"><ele>45.5</ele><time>2026-04-23T07:41:28.002Z</time></trkpt><trkpt lat="-20.324428281204227" lon="119.52007050657096"><ele>44.0</ele><time>2026-04-23T07:41:29.002Z</time></trkpt><trkpt lat="-20.324171638186833" lon="119.5200982137887"><ele>44.0</ele><time>2026-04-23T07:41:30.002Z</time></trkpt><trkpt lat="-20.323942982737623" lon="119.52012645732167"><ele>44.0</ele><time>2026-04-23T07:41:31.002Z</time></trkpt><trkpt lat="-20.3237051651688" lon="119.52015417695087"><ele>44.0</ele><time>2026-04-23T07:41:32.002Z</time></trkpt><trkpt lat="-20.323461378173448" lon="119.52017878615733"><ele>44.0</ele><time>2026-04-23T07:41:33.002Z</time></trkpt><trkpt lat="-20.323215725540617" lon="119.52020190823956"><ele>43.0</ele><time>2026-04-23T07:41:34.002Z</time></trkpt><trkpt lat="-20.32296638091764" lon="119.52022706929408"><ele>42.0</ele><time>2026-04-23T07:41:35.002Z</time></trkpt><trkpt lat="-20.322711878678152" lon="119.52025335173559"><ele>42.0</ele><time>2026-04-23T07:41:36.002Z</time></trkpt><trkpt lat="-20.322460222376446" lon="119.52028037712448"><ele>42.0</ele><time>2026-04-23T07:41:37.002Z</time></trkpt><trkpt lat="-20.322212798582623" lon="119.52031065689482"><ele>41.5</ele><time>2026-04-23T07:41:38.002Z</time></trkpt><trkpt lat="-20.32196212318627" lon="119.52034455891241"><ele>41.0</ele><time>2026-04-23T07:41:39.002Z</time></trkpt><trkpt lat="-20.32170842401792" lon="119.52038035880206"><ele>41.0</ele><time>2026-04-23T07:41:40.002Z</time></trkpt><trkpt lat="-20.321459614302842" lon="119.52041904760489"><ele>41.0</ele><time>2026-04-23T07:41:41.002Z</time></trkpt><trkpt lat="-20.32121137263327" lon="119.52046049508762"><ele>41.0</ele><time>2026-04-23T07:41:42.002Z</time></trkpt><trkpt lat="-20.320959857007896" lon="119.52050083016387"><ele>41.0</ele><time>2026-04-23T07:41:43.002Z</time></trkpt><trkpt lat="-20.320706150743572" lon="119.52054358991901"><ele>41.0</ele><time>2026-04-23T07:41:44.002Z</time></trkpt><trkpt lat="-20.320455722028672" lon="119.52058676982756"><ele>41.0</ele><time>2026-04-23T07:41:45.002Z</time></trkpt><trkpt lat="-20.32019971122347" lon="119.52063200222096"><ele>41.0</ele><time>2026-04-23T07:41:46.002Z</time></trkpt><trkpt lat="-20.31994600220954" lon="119.52067719749161"><ele>41.0</ele><time>2026-04-23T07:41:47.002Z</time></trkpt><trkpt lat="-20.319689019530685" lon="119.52072092298819"><ele>41.0</ele><time>2026-04-23T07:41:48.002Z</time></trkpt><trkpt lat="-20.31942959119145" lon="119.52076039841091"><ele>41.0</ele><time>2026-04-23T07:41:49.002Z</time></trkpt><trkpt lat="-20.319166705417622" lon="119.52079765615339"><ele>41.0</ele><time>2026-04-23T07:41:50.002Z</time></trkpt><trkpt lat="-20.318902885056936" lon="119.5208335743218"><ele>41.0</ele><time>2026-04-23T07:41:51.002Z</time></trkpt><trkpt lat="-20.318640225238422" lon="119.52086808964168"><ele>41.5</ele><time>2026-04-23T07:41:52.002Z</time></trkpt><trkpt lat="-20.318381480492864" lon="119.5209003369852"><ele>42.0</ele><time>2026-04-23T07:41:53Z</time></trkpt><trkpt lat="-20.318122500297953" lon="119.52093142102085"><ele>42.5</ele><time>2026-04-23T07:41:54Z</time></trkpt><trkpt lat="-20.31786668424957" lon="119.52095951757346"><ele>43.0</ele><time>2026-04-23T07:41:55Z</time></trkpt><trkpt lat="-20.317610817960908" lon="119.52098545304754"><ele>43.0</ele><time>2026-04-23T07:41:56Z</time></trkpt><trkpt lat="-20.31735722514611" lon="119.52101085504276"><ele>43.0</ele><time>2026-04-23T07:41:57Z</time></trkpt><trkpt lat="-20.317105854547638" lon="119.52103658452228"><ele>42.5</ele><time>2026-04-23T07:41:58Z</time></trkpt><trkpt lat="-20.316852470103566" lon="119.52106601104761"><ele>42.0</ele><time>2026-04-23T07:41:59Z</time></trkpt><trkpt lat="-20.316601027641283" lon="119.52109458998193"><ele>41.5</ele><time>2026-04-23T07:42:00Z</time></trkpt><trkpt lat="-20.31634846429743" lon="119.52112726894819"><ele>41.0</ele><time>2026-04-23T07:42:01Z</time></trkpt><trkpt lat="-20.31609863062808" lon="119.52116369069812"><ele>41.0</ele><time>2026-04-23T07:42:02Z</time></trkpt><trkpt lat="-20.315850958322113" lon="119.52120552181137"><ele>41.0</ele><time>2026-04-23T07:42:03Z</time></trkpt><trkpt lat="-20.315603153518044" lon="119.52124976953839"><ele>41.5</ele><time>2026-04-23T07:42:04Z</time></trkpt><trkpt lat="-20.315349868683853" lon="119.52129432480328"><ele>42.0</ele><time>2026-04-23T07:42:05Z</time></trkpt><trkpt lat="-20.315098212703607" lon="119.52133627030784"><ele>42.0</ele><time>2026-04-23T07:42:06Z</time></trkpt><trkpt lat="-20.31484760923313" lon="119.52137956069757"><ele>42.0</ele><time>2026-04-23T07:42:07Z</time></trkpt><trkpt lat="-20.314595745528806" lon="119.52142435106965"><ele>42.0</ele><time>2026-04-23T07:42:08Z</time></trkpt><trkpt lat="-20.31434525796312" lon="119.52146675106736"><ele>42.0</ele><time>2026-04-23T07:42:09Z</time></trkpt><trkpt lat="-20.314085039251143" lon="119.52150855438786"><ele>41.5</ele><time>2026-04-23T07:42:10Z</time></trkpt><trkpt lat="-20.31382826227383" lon="119.52156689935966"><ele>41.0</ele><time>2026-04-23T07:42:11Z</time></trkpt><trkpt lat="-20.313568449461957" lon="119.52161019565145"><ele>41.0</ele><time>2026-04-23T07:42:12Z</time></trkpt><trkpt lat="-20.31330791557836" lon="119.52163752905139"><ele>41.0</ele><time>2026-04-23T07:42:13Z</time></trkpt><trkpt lat="-20.313048514913323" lon="119.5216814660106"><ele>40.5</ele><time>2026-04-23T07:42:14Z</time></trkpt><trkpt lat="-20.31279095095551" lon="119.52172316514167"><ele>40.0</ele><time>2026-04-23T07:42:15Z</time></trkpt><trkpt lat="-20.31253218405219" lon="119.52176695191201"><ele>40.0</ele><time>2026-04-23T07:42:16Z</time></trkpt><trkpt lat="-20.31227479259624" lon="119.52181191594894"><ele>40.0</ele><time>2026-04-23T07:42:17Z</time></trkpt><trkpt lat="-20.312018169733243" lon="119.52185727728329"><ele>39.5</ele><time>2026-04-23T07:42:18Z</time></trkpt><trkpt lat="-20.311765621227593" lon="119.52190410584755"><ele>39.0</ele><time>2026-04-23T07:42:19Z</time></trkpt><trkpt lat="-20.311513053827156" lon="119.52194968481217"><ele>38.5</ele><time>2026-04-23T07:42:20Z</time></trkpt><trkpt lat="-20.3112639347604" lon="119.52198979134322"><ele>38.0</ele><time>2026-04-23T07:42:21Z</time></trkpt><trkpt lat="-20.311015924557957" lon="119.5220290473479"><ele>38.5</ele><time>2026-04-23T07:42:22Z</time></trkpt><trkpt lat="-20.310766417940272" lon="119.52206840794047"><ele>39.0</ele><time>2026-04-23T07:42:23Z</time></trkpt><trkpt lat="-20.310518392038674" lon="119.5221072509879"><ele>39.5</ele><time>2026-04-23T07:42:24Z</time></trkpt><trkpt lat="-20.31027125601031" lon="119.52214932188473"><ele>40.0</ele><time>2026-04-23T07:42:25Z</time></trkpt><trkpt lat="-20.310023110644043" lon="119.52219521537747"><ele>40.0</ele><time>2026-04-23T07:42:26Z</time></trkpt><trkpt lat="-20.309776192325977" lon="119.52223982634627"><ele>40.0</ele><time>2026-04-23T07:42:27Z</time></trkpt><trkpt lat="-20.309526829401747" lon="119.5222840009857"><ele>40.0</ele><time>2026-04-23T07:42:28Z</time></trkpt><trkpt lat="-20.309272167829956" lon="119.52232494585289"><ele>40.0</ele><time>2026-04-23T07:42:29Z</time></trkpt><trkpt lat="-20.30901561337656" lon="119.52236549662986"><ele>40.5</ele><time>2026-04-23T07:42:30Z</time></trkpt><trkpt lat="-20.308757203983717" lon="119.52240983385047"><ele>41.0</ele><time>2026-04-23T07:42:31Z</time></trkpt><trkpt lat="-20.3084953298385" lon="119.52245743989391"><ele>41.0</ele><time>2026-04-23T07:42:32Z</time></trkpt><trkpt lat="-20.30823463877795" lon="119.52250875646332"><ele>41.0</ele><time>2026-04-23T07:42:33Z</time></trkpt><trkpt lat="-20.307976768506716" lon="119.52255722969215"><ele>41.0</ele><time>2026-04-23T07:42:34Z</time></trkpt><trkpt lat="-20.307719922518086" lon="119.52260059064415"><ele>41.0</ele><time>2026-04-23T07:42:35Z</time></trkpt><trkpt lat="-20.30745870467887" lon="119.52264586596351"><ele>40.0</ele><time>2026-04-23T07:42:36Z</time></trkpt><trkpt lat="-20.307194089256623" lon="119.52269515126933"><ele>39.0</ele><time>2026-04-23T07:42:37Z</time></trkpt><trkpt lat="-20.306929077442412" lon="119.52274301507097"><ele>39.0</ele><time>2026-04-23T07:42:38Z</time></trkpt><trkpt lat="-20.30666525097592" lon="119.52278950163017"><ele>39.0</ele><time>2026-04-23T07:42:39Z</time></trkpt><trkpt lat="-20.306400323262135" lon="119.52283226271572"><ele>39.0</ele><time>2026-04-23T07:42:40Z</time></trkpt><trkpt lat="-20.306136744346258" lon="119.52287233817655"><ele>39.0</ele><time>2026-04-23T07:42:41Z</time></trkpt><trkpt lat="-20.305872046982056" lon="119.52291429450935"><ele>39.0</ele><time>2026-04-23T07:42:42Z</time></trkpt><trkpt lat="-20.30561308473846" lon="119.52295825915186"><ele>39.0</ele><time>2026-04-23T07:42:43Z</time></trkpt><trkpt lat="-20.305356042682643" lon="119.52300361921085"><ele>39.0</ele><time>2026-04-23T07:42:44.001Z</time></trkpt><trkpt lat="-20.305099499449984" lon="119.52305629461043"><ele>39.0</ele><time>2026-04-23T07:42:45.001Z</time></trkpt><trkpt lat="-20.30484052855169" lon="119.52310538426951"><ele>39.5</ele><time>2026-04-23T07:42:46.001Z</time></trkpt><trkpt lat="-20.304583115721883" lon="119.52314779177219"><ele>40.0</ele><time>2026-04-23T07:42:47.001Z</time></trkpt><trkpt lat="-20.304324549856663" lon="119.52319030821256"><ele>40.0</ele><time>2026-04-23T07:42:48.001Z</time></trkpt><trkpt lat="-20.304070330290546" lon="119.52323838434339"><ele>40.0</ele><time>2026-04-23T07:42:49.001Z</time></trkpt><trkpt lat="-20.30381452133789" lon="119.52328718279868"><ele>40.0</ele><time>2026-04-23T07:42:50.001Z</time></trkpt><trkpt lat="-20.30356036038777" lon="119.52333342393165"><ele>40.0</ele><time>2026-04-23T07:42:51.001Z</time></trkpt><trkpt lat="-20.303308014629966" lon="119.5233795657131"><ele>39.5</ele><time>2026-04-23T07:42:52.001Z</time></trkpt><trkpt lat="-20.303047922991844" lon="119.52342569686579"><ele>39.0</ele><time>2026-04-23T07:42:53.001Z</time></trkpt><trkpt lat="-20.30280208976632" lon="119.52346784549896"><ele>39.0</ele><time>2026-04-23T07:42:54.001Z</time></trkpt><trkpt lat="-20.302554391180692" lon="119.52350734894371"><ele>39.0</ele><time>2026-04-23T07:42:55.001Z</time></trkpt><trkpt lat="-20.302320660408974" lon="119.52353591548214"><ele>38.5</ele><time>2026-04-23T07:42:56.001Z</time></trkpt><trkpt lat="-20.30207427964141" lon="119.5235633337599"><ele>38.0</ele><time>2026-04-23T07:42:57.001Z</time></trkpt><trkpt lat="-20.301831540973193" lon="119.52358672079474"><ele>38.0</ele><time>2026-04-23T07:42:58.001Z</time></trkpt><trkpt lat="-20.301595282701655" lon="119.52359435178006"><ele>38.0</ele><time>2026-04-23T07:42:59.001Z</time></trkpt><trkpt lat="-20.3013550817658" lon="119.52359521248236"><ele>37.5</ele><time>2026-04-23T07:43:00.001Z</time></trkpt><trkpt lat="-20.30111181884316" lon="119.52360159029561"><ele>37.0</ele><time>2026-04-23T07:43:01.001Z</time></trkpt><trkpt lat="-20.300870175109125" lon="119.52360766575465"><ele>37.0</ele><time>2026-04-23T07:43:02.001Z</time></trkpt><trkpt lat="-20.300619663063436" lon="119.52361101019306"><ele>37.0</ele><time>2026-04-23T07:43:03.001Z</time></trkpt><trkpt lat="-20.300378600386793" lon="119.52361171117649"><ele>37.0</ele><time>2026-04-23T07:43:04.001Z</time></trkpt><trkpt lat="-20.300136247635553" lon="119.52361552849159"><ele>37.0</ele><time>2026-04-23T07:43:05.001Z</time></trkpt><trkpt lat="-20.29989429130147" lon="119.52362083883115"><ele>36.5</ele><time>2026-04-23T07:43:06.001Z</time></trkpt><trkpt lat="-20.29965339271992" lon="119.52363085185851"><ele>36.0</ele><time>2026-04-23T07:43:07.001Z</time></trkpt><trkpt lat="-20.299417003574288" lon="119.52364520828203"><ele>36.0</ele><time>2026-04-23T07:43:08.001Z</time></trkpt><trkpt lat="-20.299182828851865" lon="119.52366005815271"><ele>36.0</ele><time>2026-04-23T07:43:09.001Z</time></trkpt><trkpt lat="-20.298948189088943" lon="119.52367821245727"><ele>36.666666666666664</ele><time>2026-04-23T07:43:10.001Z</time></trkpt><trkpt lat="-20.29871736391924" lon="119.52369130202729"><ele>37.33333333333333</ele><time>2026-04-23T07:43:11.001Z</time></trkpt><trkpt lat="-20.29850548740718" lon="119.52369879171205"><ele>38.0</ele><time>2026-04-23T07:43:12.001Z</time></trkpt><trkpt lat="-20.29830972836458" lon="119.5237021072107"><ele>38.0</ele><time>2026-04-23T07:43:13.001Z</time></trkpt><trkpt lat="-20.298126056733206" lon="119.52370785618595"><ele>38.0</ele><time>2026-04-23T07:43:14.001Z</time></trkpt><trkpt lat="-20.297951234193604" lon="119.52371367356201"><ele>38.0</ele><time>2026-04-23T07:43:15.001Z</time></trkpt><trkpt lat="-20.29778165044485" lon="119.52372655287833"><ele>38.666666666666664</ele><time>2026-04-23T07:43:16.001Z</time></trkpt><trkpt lat="-20.297602118990877" lon="119.52374814854603"><ele>39.333333333333336</ele><time>2026-04-23T07:43:17.001Z</time></trkpt><trkpt lat="-20.297426743472165" lon="119.52377891297606"><ele>40.0</ele><time>2026-04-23T07:43:18.001Z</time></trkpt><trkpt lat="-20.29726429007828" lon="119.52382876499911"><ele>40.0</ele><time>2026-04-23T07:43:19.001Z</time></trkpt><trkpt lat="-20.29710740522435" lon="119.52390653582609"><ele>40.0</ele><time>2026-04-23T07:43:20.001Z</time></trkpt><trkpt lat="-20.29694368700578" lon="119.52400354221727"><ele>40.0</ele><time>2026-04-23T07:43:21.001Z</time></trkpt><trkpt lat="-20.296787302321494" lon="119.52411936287676"><ele>40.0</ele><time>2026-04-23T07:43:22.001Z</time></trkpt><trkpt lat="-20.296644775504653" lon="119.52426374474925"><ele>40.0</ele><time>2026-04-23T07:43:23.001Z</time></trkpt><trkpt lat="-20.296502332514365" lon="119.52442774920802"><ele>40.0</ele><time>2026-04-23T07:43:24.001Z</time></trkpt><trkpt lat="-20.296367619073983" lon="119.52460223585851"><ele>39.66666666666667</ele><time>2026-04-23T07:43:25.001Z</time></trkpt><trkpt lat="-20.29622859748923" lon="119.52478759075493"><ele>39.333333333333336</ele><time>2026-04-23T07:43:26.001Z</time></trkpt><trkpt lat="-20.296088547662116" lon="119.52497032197313"><ele>39.0</ele><time>2026-04-23T07:43:27.001Z</time></trkpt><trkpt lat="-20.29595137376542" lon="119.52514659801119"><ele>39.0</ele><time>2026-04-23T07:43:28.001Z</time></trkpt><trkpt lat="-20.295811627179525" lon="119.52531972488262"><ele>39.0</ele><time>2026-04-23T07:43:29.001Z</time></trkpt><trkpt lat="-20.295675403912206" lon="119.52548728345165"><ele>39.0</ele><time>2026-04-23T07:43:30.001Z</time></trkpt><trkpt lat="-20.295541140189112" lon="119.5256556699706"><ele>40.333333333333336</ele><time>2026-04-23T07:43:31.001Z</time></trkpt><trkpt lat="-20.295413014917727" lon="119.52581619998057"><ele>41.66666666666667</ele><time>2026-04-23T07:43:32.001Z</time></trkpt><trkpt lat="-20.295279851516007" lon="119.5259791654559"><ele>43.0</ele><time>2026-04-23T07:43:33.001Z</time></trkpt><trkpt lat="-20.295148052938394" lon="119.52613780740059"><ele>43.333333333333336</ele><time>2026-04-23T07:43:34.001Z</time></trkpt><trkpt lat="-20.29501990156494" lon="119.5262913802415"><ele>43.666666666666664</ele><time>2026-04-23T07:43:35.001Z</time></trkpt><trkpt lat="-20.294891598749718" lon="119.52644763978162"><ele>44.0</ele><time>2026-04-23T07:43:36.001Z</time></trkpt><trkpt lat="-20.294772574168842" lon="119.52660738177313"><ele>43.33333333333333</ele><time>2026-04-23T07:43:37.001Z</time></trkpt><trkpt lat="-20.29465835205244" lon="119.52676934185077"><ele>42.666666666666664</ele><time>2026-04-23T07:43:38.001Z</time></trkpt><trkpt lat="-20.294544831489763" lon="119.52693283200855"><ele>42.0</ele><time>2026-04-23T07:43:39.001Z</time></trkpt><trkpt lat="-20.294434138929894" lon="119.52710547260644"><ele>43.666666666666664</ele><time>2026-04-23T07:43:40.001Z</time></trkpt><trkpt lat="-20.29432573639899" lon="119.52729318132151"><ele>45.33333333333333</ele><time>2026-04-23T07:43:41.002Z</time></trkpt><trkpt lat="-20.294222638850982" lon="119.52749834838727"><ele>47.0</ele><time>2026-04-23T07:43:42.002Z</time></trkpt><trkpt lat="-20.294122231484444" lon="119.5277213086286"><ele>47.0</ele><time>2026-04-23T07:43:43.002Z</time></trkpt><trkpt lat="-20.29401673472432" lon="119.52794847646818"><ele>47.0</ele><time>2026-04-23T07:43:44.002Z</time></trkpt><trkpt lat="-20.293907522428977" lon="119.52817728088363"><ele>46.5</ele><time>2026-04-23T07:43:45.002Z</time></trkpt><trkpt lat="-20.29380083025896" lon="119.52840611152257"><ele>46.0</ele><time>2026-04-23T07:43:46.002Z</time></trkpt><trkpt lat="-20.29370151672851" lon="119.52864289985692"><ele>47.0</ele><time>2026-04-23T07:43:47.002Z</time></trkpt><trkpt lat="-20.293615707514665" lon="119.52888000650773"><ele>48.0</ele><time>2026-04-23T07:43:48.002Z</time></trkpt><trkpt lat="-20.293540558779227" lon="119.52911643237451"><ele>48.0</ele><time>2026-04-23T07:43:49.002Z</time></trkpt><trkpt lat="-20.293467869232447" lon="119.52936072027754"><ele>48.0</ele><time>2026-04-23T07:43:50.002Z</time></trkpt><trkpt lat="-20.29341042075288" lon="119.52961310683384"><ele>48.5</ele><time>2026-04-23T07:43:51.002Z</time></trkpt><trkpt lat="-20.293359441405247" lon="119.52987276725533"><ele>49.0</ele><time>2026-04-23T07:43:52.002Z</time></trkpt><trkpt lat="-20.29330885524732" lon="119.53013409222623"><ele>49.0</ele><time>2026-04-23T07:43:53.002Z</time></trkpt><trkpt lat="-20.293253152480357" lon="119.53038934404404"><ele>49.0</ele><time>2026-04-23T07:43:54.002Z</time></trkpt><trkpt lat="-20.293196561892337" lon="119.53064120484048"><ele>50.0</ele><time>2026-04-23T07:43:55.002Z</time></trkpt><trkpt lat="-20.2931375338678" lon="119.530896823111"><ele>51.0</ele><time>2026-04-23T07:43:56.002Z</time></trkpt><trkpt lat="-20.293078271027145" lon="119.53114972557412"><ele>50.5</ele><time>2026-04-23T07:43:57.002Z</time></trkpt><trkpt lat="-20.293020436859788" lon="119.53140086407947"><ele>50.0</ele><time>2026-04-23T07:43:58.002Z</time></trkpt><trkpt lat="-20.292966601143004" lon="119.53164421326187"><ele>50.0</ele><time>2026-04-23T07:43:59Z</time></trkpt><trkpt lat="-20.292916497439812" lon="119.53187857676124"><ele>50.0</ele><time>2026-04-23T07:44:00Z</time></trkpt><trkpt lat="-20.29287154732065" lon="119.53209033831801"><ele>50.0</ele><time>2026-04-23T07:44:01Z</time></trkpt><trkpt lat="-20.29282439252063" lon="119.53229768749877"><ele>51.0</ele><time>2026-04-23T07:44:02Z</time></trkpt><trkpt lat="-20.29276538299311" lon="119.5324990332223"><ele>52.0</ele><time>2026-04-23T07:44:03Z</time></trkpt><trkpt lat="-20.292688675924094" lon="119.53269997436583"><ele>53.0</ele><time>2026-04-23T07:44:04Z</time></trkpt><trkpt lat="-20.292595226198312" lon="119.53289275430846"><ele>53.0</ele><time>2026-04-23T07:44:05Z</time></trkpt><trkpt lat="-20.292488325799837" lon="119.5330708353422"><ele>53.0</ele><time>2026-04-23T07:44:06Z</time></trkpt><trkpt lat="-20.292395596927882" lon="119.53325332052735"><ele>53.0</ele><time>2026-04-23T07:44:07Z</time></trkpt><trkpt lat="-20.292261044181014" lon="119.53339419188715"><ele>53.333333333333336</ele><time>2026-04-23T07:44:08Z</time></trkpt><trkpt lat="-20.29209698597661" lon="119.53349209280503"><ele>53.66666666666667</ele><time>2026-04-23T07:44:09Z</time></trkpt><trkpt lat="-20.29191525218654" lon="119.53353685969633"><ele>54.0</ele><time>2026-04-23T07:44:10Z</time></trkpt><trkpt lat="-20.29173517309937" lon="119.53358374892345"><ele>54.0</ele><time>2026-04-23T07:44:11Z</time></trkpt><trkpt lat="-20.291532884888547" lon="119.53359655365095"><ele>54.0</ele><time>2026-04-23T07:44:12Z</time></trkpt><trkpt lat="-20.29131931364496" lon="119.53359219600995"><ele>54.0</ele><time>2026-04-23T07:44:13Z</time></trkpt><trkpt lat="-20.291098361142385" lon="119.5335701778737"><ele>54.0</ele><time>2026-04-23T07:44:14Z</time></trkpt><trkpt lat="-20.290876552690637" lon="119.53353488378623"><ele>54.0</ele><time>2026-04-23T07:44:15Z</time></trkpt><trkpt lat="-20.290655293705196" lon="119.53350245567853"><ele>54.0</ele><time>2026-04-23T07:44:16Z</time></trkpt><trkpt lat="-20.29043652607878" lon="119.53346546573336"><ele>54.0</ele><time>2026-04-23T07:44:17Z</time></trkpt><trkpt lat="-20.29021976182646" lon="119.5334178775659"><ele>54.0</ele><time>2026-04-23T07:44:18Z</time></trkpt><trkpt lat="-20.289998513811945" lon="119.5333534561407"><ele>54.0</ele><time>2026-04-23T07:44:19Z</time></trkpt><trkpt lat="-20.289770853329426" lon="119.53327858935228"><ele>54.0</ele><time>2026-04-23T07:44:20Z</time></trkpt><trkpt lat="-20.289535017381628" lon="119.53320459068208"><ele>54.5</ele><time>2026-04-23T07:44:21Z</time></trkpt><trkpt lat="-20.289293996862284" lon="119.53313189656792"><ele>55.0</ele><time>2026-04-23T07:44:22Z</time></trkpt><trkpt lat="-20.289058006733757" lon="119.5330623317205"><ele>55.0</ele><time>2026-04-23T07:44:23Z</time></trkpt><trkpt lat="-20.288814931219676" lon="119.5329936871855"><ele>55.0</ele><time>2026-04-23T07:44:24Z</time></trkpt><trkpt lat="-20.288567802273363" lon="119.53292743769605"><ele>55.5</ele><time>2026-04-23T07:44:25Z</time></trkpt><trkpt lat="-20.288323074160367" lon="119.53286160916653"><ele>56.0</ele><time>2026-04-23T07:44:26Z</time></trkpt><trkpt lat="-20.288078735546065" lon="119.53279223807341"><ele>55.0</ele><time>2026-04-23T07:44:27Z</time></trkpt><trkpt lat="-20.28784214918459" lon="119.5327227105078"><ele>54.0</ele><time>2026-04-23T07:44:28Z</time></trkpt><trkpt lat="-20.287605209322127" lon="119.53265760161038"><ele>54.0</ele><time>2026-04-23T07:44:29Z</time></trkpt><trkpt lat="-20.287368954329075" lon="119.53259518338173"><ele>54.0</ele><time>2026-04-23T07:44:30Z</time></trkpt><trkpt lat="-20.287133330345046" lon="119.53253479192068"><ele>54.0</ele><time>2026-04-23T07:44:31Z</time></trkpt><trkpt lat="-20.28690030700543" lon="119.53247322770162"><ele>54.0</ele><time>2026-04-23T07:44:32Z</time></trkpt><trkpt lat="-20.286662026880094" lon="119.53240704421752"><ele>54.5</ele><time>2026-04-23T07:44:33Z</time></trkpt><trkpt lat="-20.28641724530971" lon="119.53233639800533"><ele>55.0</ele><time>2026-04-23T07:44:34Z</time></trkpt><trkpt lat="-20.286169508116355" lon="119.53226427745555"><ele>55.0</ele><time>2026-04-23T07:44:35Z</time></trkpt><trkpt lat="-20.285923745051203" lon="119.53219341240269"><ele>55.0</ele><time>2026-04-23T07:44:36Z</time></trkpt><trkpt lat="-20.285675513131654" lon="119.53212245968317"><ele>54.0</ele><time>2026-04-23T07:44:37Z</time></trkpt><trkpt lat="-20.285423352117153" lon="119.5320512915462"><ele>53.0</ele><time>2026-04-23T07:44:38.001Z</time></trkpt><trkpt lat="-20.285173837679277" lon="119.53198195279245"><ele>53.0</ele><time>2026-04-23T07:44:39.001Z</time></trkpt><trkpt lat="-20.28491989688475" lon="119.53191199941412"><ele>53.0</ele><time>2026-04-23T07:44:40.001Z</time></trkpt><trkpt lat="-20.284666698963377" lon="119.53184629936584"><ele>53.0</ele><time>2026-04-23T07:44:41.001Z</time></trkpt><trkpt lat="-20.284413453644053" lon="119.53177863328528"><ele>53.0</ele><time>2026-04-23T07:44:42.001Z</time></trkpt><trkpt lat="-20.284162357527446" lon="119.53170906785422"><ele>52.5</ele><time>2026-04-23T07:44:43.001Z</time></trkpt><trkpt lat="-20.283914073004684" lon="119.53163889289924"><ele>52.0</ele><time>2026-04-23T07:44:44.001Z</time></trkpt><trkpt lat="-20.283666613074693" lon="119.53156966698589"><ele>52.0</ele><time>2026-04-23T07:44:45.001Z</time></trkpt><trkpt lat="-20.28342701314852" lon="119.53150299015945"><ele>52.0</ele><time>2026-04-23T07:44:46.001Z</time></trkpt><trkpt lat="-20.283184102477243" lon="119.53143491566743"><ele>51.5</ele><time>2026-04-23T07:44:47.001Z</time></trkpt><trkpt lat="-20.282947503004394" lon="119.53136669821956"><ele>51.0</ele><time>2026-04-23T07:44:48.001Z</time></trkpt><trkpt lat="-20.282733932180257" lon="119.53130535881407"><ele>51.0</ele><time>2026-04-23T07:44:49.001Z</time></trkpt><trkpt lat="-20.282532449604673" lon="119.53124856441278"><ele>51.0</ele><time>2026-04-23T07:44:50.001Z</time></trkpt><trkpt lat="-20.28234243431327" lon="119.53119505992477"><ele>51.0</ele><time>2026-04-23T07:44:51.001Z</time></trkpt><trkpt lat="-20.282165067017097" lon="119.53114576634228"><ele>51.0</ele><time>2026-04-23T07:44:52.001Z</time></trkpt><trkpt lat="-20.28199711527276" lon="119.53110097682121"><ele>51.0</ele><time>2026-04-23T07:44:53.001Z</time></trkpt><trkpt lat="-20.281828140192424" lon="119.53105899215831"><ele>51.0</ele><time>2026-04-23T07:44:54.001Z</time></trkpt><trkpt lat="-20.281668848781358" lon="119.5310140833199"><ele>51.0</ele><time>2026-04-23T07:44:55.001Z</time></trkpt><trkpt lat="-20.281506472451213" lon="119.53097133750606"><ele>51.0</ele><time>2026-04-23T07:44:56.001Z</time></trkpt><trkpt lat="-20.281373104186724" lon="119.53093396213366"><ele>51.0</ele><time>2026-04-23T07:44:57.001Z</time></trkpt><trkpt lat="-20.28126822809332" lon="119.5309126115233"><ele>51.0</ele><time>2026-04-23T07:44:58.001Z</time></trkpt><trkpt lat="-20.28118688757726" lon="119.53090476810198"><ele>51.333333333333336</ele><time>2026-04-23T07:44:59.001Z</time></trkpt><trkpt lat="-20.28109772968678" lon="119.53090554807696"><ele>51.66666666666667</ele><time>2026-04-23T07:45:01.001Z</time></trkpt><trkpt lat="-20.281037908559007" lon="119.53087259599258"><ele>52.0</ele><time>2026-04-23T07:45:04.001Z</time></trkpt><trkpt lat="-20.281135668615853" lon="119.53084993415332"><ele>52.333333333333336</ele><time>2026-04-23T07:45:08.001Z</time></trkpt><trkpt lat="-20.28121198573906" lon="119.53088912784949"><ele>52.66666666666667</ele><time>2026-04-23T07:45:09.001Z</time></trkpt><trkpt lat="-20.281280160137975" lon="119.53093168665022"><ele>53.0</ele><time>2026-04-23T07:45:10.001Z</time></trkpt><trkpt lat="-20.28136541722729" lon="119.53095351187763"><ele>52.599999999999994</ele><time>2026-04-23T07:45:11.001Z</time></trkpt><trkpt lat="-20.281454710139386" lon="119.53097440981875"><ele>52.199999999999996</ele><time>2026-04-23T07:45:12.001Z</time></trkpt><trkpt lat="-20.28155282763529" lon="119.53099014964876"><ele>51.8</ele><time>2026-04-23T07:45:13.001Z</time></trkpt><trkpt lat="-20.28165749974678" lon="119.5310130289013"><ele>51.4</ele><time>2026-04-23T07:45:14.001Z</time></trkpt><trkpt lat="-20.281762746742675" lon="119.53104602748428"><ele>51.0</ele><time>2026-04-23T07:45:15.001Z</time></trkpt><trkpt lat="-20.281862950143633" lon="119.53107750438028"><ele>51.0</ele><time>2026-04-23T07:45:16.001Z</time></trkpt><trkpt lat="-20.281957218805974" lon="119.5311062012301"><ele>51.0</ele><time>2026-04-23T07:45:17.001Z</time></trkpt><trkpt lat="-20.282038134773433" lon="119.53112871232896"><ele>51.0</ele><time>2026-04-23T07:45:18.001Z</time></trkpt><trkpt lat="-20.282116459643742" lon="119.53114856603474"><ele>51.0</ele><time>2026-04-23T07:45:19.001Z</time></trkpt><trkpt lat="-20.28217979228783" lon="119.53116528287751"><ele>51.0</ele><time>2026-04-23T07:45:20.001Z</time></trkpt><trkpt lat="-20.282258178355622" lon="119.53117517143471"><ele>51.0</ele><time>2026-04-23T07:45:23.001Z</time></trkpt><trkpt lat="-20.282336330469043" lon="119.53119291215202"><ele>51.0</ele><time>2026-04-23T07:45:26.001Z</time></trkpt><trkpt lat="-20.28240438391002" lon="119.53124296288634"><ele>51.0</ele><time>2026-04-23T07:45:43.002Z</time></trkpt><trkpt lat="-20.282482099462147" lon="119.53127768058135"><ele>51.0</ele><time>2026-04-23T07:45:45.002Z</time></trkpt><trkpt lat="-20.28256167416739" lon="119.53128841808419"><ele>51.0</ele><time>2026-04-23T07:45:47.002Z</time></trkpt><trkpt lat="-20.28264077104158" lon="119.53132086798807"><ele>51.0</ele><time>2026-04-23T07:45:50.002Z</time></trkpt><trkpt lat="-20.282710305761583" lon="119.53135401536433"><ele>51.0</ele><time>2026-04-23T07:45:53.002Z</time></trkpt><trkpt lat="-20.282625187891302" lon="119.53130724076905"><ele>51.0</ele><time>2026-04-23T07:46:01.002Z</time></trkpt><trkpt lat="-20.282554462041933" lon="119.53126363595354"><ele>51.0</ele><time>2026-04-23T07:46:03.002Z</time></trkpt><trkpt lat="-20.282461500832593" lon="119.53124739066371"><ele>51.0</ele><time>2026-04-23T07:46:06Z</time></trkpt><trkpt lat="-20.282369141338137" lon="119.53121559901324"><ele>51.0</ele><time>2026-04-23T07:46:09Z</time></trkpt><trkpt lat="-20.28229126504816" lon="119.5311825738423"><ele>51.0</ele><time>2026-04-23T07:46:11Z</time></trkpt><trkpt lat="-20.282207297130928" lon="119.53116698271153"><ele>51.0</ele><time>2026-04-23T07:46:13Z</time></trkpt><trkpt lat="-20.282122957010262" lon="119.53113567126167"><ele>51.0</ele><time>2026-04-23T07:46:15Z</time></trkpt><trkpt lat="-20.282015223511035" lon="119.53108920934065"><ele>51.0</ele><time>2026-04-23T07:46:17Z</time></trkpt><trkpt lat="-20.281945630720827" lon="119.53107498600477"><ele>51.0</ele><time>2026-04-23T07:46:18Z</time></trkpt><trkpt lat="-20.281850048435036" lon="119.53105551720468"><ele>51.0</ele><time>2026-04-23T07:46:19Z</time></trkpt><trkpt lat="-20.28173731986648" lon="119.53102714212065"><ele>51.0</ele><time>2026-04-23T07:46:20Z</time></trkpt><trkpt lat="-20.28159359443022" lon="119.53098857248759"><ele>51.0</ele><time>2026-04-23T07:46:21Z</time></trkpt><trkpt lat="-20.28144642931796" lon="119.53095392521053"><ele>51.0</ele><time>2026-04-23T07:46:22Z</time></trkpt><trkpt lat="-20.28128527776929" lon="119.53091729753532"><ele>51.0</ele><time>2026-04-23T07:46:23Z</time></trkpt><trkpt lat="-20.281123433566616" lon="119.53087878844201"><ele>51.0</ele><time>2026-04-23T07:46:24Z</time></trkpt><trkpt lat="-20.280968419255505" lon="119.53083802808386"><ele>51.0</ele><time>2026-04-23T07:46:25Z</time></trkpt><trkpt lat="-20.280831426338054" lon="119.53079621021914"><ele>51.0</ele><time>2026-04-23T07:46:26Z</time></trkpt><trkpt lat="-20.280696240654375" lon="119.53076411525757"><ele>51.0</ele><time>2026-04-23T07:46:27Z</time></trkpt><trkpt lat="-20.28053484519234" lon="119.53073374882788"><ele>51.0</ele><time>2026-04-23T07:46:28Z</time></trkpt><trkpt lat="-20.280353266567513" lon="119.53070652529857"><ele>51.0</ele><time>2026-04-23T07:46:29Z</time></trkpt><trkpt lat="-20.280161333713327" lon="119.53068444087887"><ele>51.0</ele><time>2026-04-23T07:46:30Z</time></trkpt><trkpt lat="-20.279965555246655" lon="119.53067464106452"><ele>51.0</ele><time>2026-04-23T07:46:31Z</time></trkpt><trkpt lat="-20.279770973437266" lon="119.53068005049681"><ele>51.0</ele><time>2026-04-23T07:46:32.001Z</time></trkpt><trkpt lat="-20.27958200727768" lon="119.53070393083371"><ele>51.0</ele><time>2026-04-23T07:46:33.001Z</time></trkpt><trkpt lat="-20.279385786672957" lon="119.5307355553675"><ele>50.66666666666667</ele><time>2026-04-23T07:46:34.001Z</time></trkpt><trkpt lat="-20.279190878518563" lon="119.53076833855692"><ele>50.333333333333336</ele><time>2026-04-23T07:46:35.001Z</time></trkpt><trkpt lat="-20.27901671847728" lon="119.53079236309256"><ele>50.0</ele><time>2026-04-23T07:46:36.001Z</time></trkpt><trkpt lat="-20.278831289612732" lon="119.53080808038176"><ele>50.0</ele><time>2026-04-23T07:46:37.001Z</time></trkpt><trkpt lat="-20.278637174625164" lon="119.53081530149471"><ele>50.0</ele><time>2026-04-23T07:46:38.001Z</time></trkpt><trkpt lat="-20.278432250652674" lon="119.53080964708944"><ele>50.0</ele><time>2026-04-23T07:46:39.001Z</time></trkpt><trkpt lat="-20.278229612023676" lon="119.53076169367912"><ele>50.0</ele><time>2026-04-23T07:46:40.001Z</time></trkpt><trkpt lat="-20.27800442570546" lon="119.5307071081178"><ele>50.0</ele><time>2026-04-23T07:46:41.001Z</time></trkpt><trkpt lat="-20.277767863283874" lon="119.53065082102614"><ele>50.0</ele><time>2026-04-23T07:46:42.001Z</time></trkpt><trkpt lat="-20.27752937040475" lon="119.53060024834458"><ele>50.0</ele><time>2026-04-23T07:46:43.001Z</time></trkpt><trkpt lat="-20.277302708404175" lon="119.53052490163067"><ele>49.333333333333336</ele><time>2026-04-23T07:46:44.001Z</time></trkpt><trkpt lat="-20.277082293892967" lon="119.53045742027416"><ele>48.66666666666667</ele><time>2026-04-23T07:46:45.001Z</time></trkpt><trkpt lat="-20.276878658305677" lon="119.5303954998342"><ele>48.0</ele><time>2026-04-23T07:46:46.001Z</time></trkpt><trkpt lat="-20.27669339556767" lon="119.53033531458244"><ele>48.0</ele><time>2026-04-23T07:46:47.001Z</time></trkpt><trkpt lat="-20.276511451202346" lon="119.53027472744249"><ele>48.0</ele><time>2026-04-23T07:46:48.001Z</time></trkpt><trkpt lat="-20.276342467347845" lon="119.53021268118847"><ele>48.0</ele><time>2026-04-23T07:46:49.001Z</time></trkpt><trkpt lat="-20.27618112426441" lon="119.53014511829629"><ele>48.25</ele><time>2026-04-23T07:46:50.001Z</time></trkpt><trkpt lat="-20.276035706470953" lon="119.53007771677565"><ele>48.5</ele><time>2026-04-23T07:46:51.001Z</time></trkpt><trkpt lat="-20.275905138179155" lon="119.53001359141271"><ele>48.75</ele><time>2026-04-23T07:46:52.001Z</time></trkpt><trkpt lat="-20.275785729109852" lon="119.5299470988345"><ele>49.0</ele><time>2026-04-23T07:46:53.001Z</time></trkpt><trkpt lat="-20.275686703984785" lon="119.52985587151797"><ele>48.75</ele><time>2026-04-23T07:46:54.001Z</time></trkpt><trkpt lat="-20.27558931442376" lon="119.52978610570936"><ele>48.5</ele><time>2026-04-23T07:46:55.001Z</time></trkpt><trkpt lat="-20.27549380636221" lon="119.52971684416477"><ele>48.25</ele><time>2026-04-23T07:46:56.001Z</time></trkpt><trkpt lat="-20.27539917752215" lon="119.52964492864196"><ele>48.0</ele><time>2026-04-23T07:46:57.001Z</time></trkpt><trkpt lat="-20.27529518728789" lon="119.5295648241325"><ele>48.25</ele><time>2026-04-23T07:46:58.001Z</time></trkpt><trkpt lat="-20.275193193100314" lon="119.52948625717909"><ele>48.5</ele><time>2026-04-23T07:46:59.001Z</time></trkpt><trkpt lat="-20.275101597455205" lon="119.52941359165575"><ele>48.75</ele><time>2026-04-23T07:47:00.001Z</time></trkpt><trkpt lat="-20.275002373267508" lon="119.52933495613532"><ele>49.0</ele><time>2026-04-23T07:47:01.001Z</time></trkpt><trkpt lat="-20.274885009543063" lon="119.52924358539333"><ele>48.5</ele><time>2026-04-23T07:47:02.001Z</time></trkpt><trkpt lat="-20.274753915037376" lon="119.52915827528545"><ele>48.0</ele><time>2026-04-23T07:47:03.001Z</time></trkpt><trkpt lat="-20.27464188772588" lon="119.52906964860719"><ele>47.5</ele><time>2026-04-23T07:47:04.001Z</time></trkpt><trkpt lat="-20.27454371270223" lon="119.529000395324"><ele>47.0</ele><time>2026-04-23T07:47:05.001Z</time></trkpt><trkpt lat="-20.27449055023892" lon="119.52894382501339"><ele>47.0</ele><time>2026-04-23T07:47:06.001Z</time></trkpt><trkpt lat="-20.274427695534893" lon="119.52889673915725"><ele>47.0</ele><time>2026-04-23T07:47:08.001Z</time></trkpt><trkpt lat="-20.274349066188698" lon="119.52883783612424"><ele>47.0</ele><time>2026-04-23T07:47:11.001Z</time></trkpt><trkpt lat="-20.27420843104839" lon="119.52899680640526"><ele>47.0</ele><time>2026-04-23T07:47:13.001Z</time></trkpt><trkpt lat="-20.274173437891747" lon="119.52908998434465"><ele>47.0</ele><time>2026-04-23T07:47:14.001Z</time></trkpt><trkpt lat="-20.274126956183075" lon="119.52919597264517"><ele>47.0</ele><time>2026-04-23T07:47:15.001Z</time></trkpt><trkpt lat="-20.27406675234758" lon="119.52931000908856"><ele>47.0</ele><time>2026-04-23T07:47:16.001Z</time></trkpt><trkpt lat="-20.273992841517433" lon="119.52944169501465"><ele>47.0</ele><time>2026-04-23T07:47:17.001Z</time></trkpt><trkpt lat="-20.273909016598544" lon="119.52959129197338"><ele>46.33333333333333</ele><time>2026-04-23T07:47:18.001Z</time></trkpt><trkpt lat="-20.273816753264647" lon="119.5297537600839"><ele>45.666666666666664</ele><time>2026-04-23T07:47:19.001Z</time></trkpt><trkpt lat="-20.273728899284503" lon="119.52991524107588"><ele>45.0</ele><time>2026-04-23T07:47:20.001Z</time></trkpt><trkpt lat="-20.273626459484735" lon="119.53008633152191"><ele>45.0</ele><time>2026-04-23T07:47:21.001Z</time></trkpt><trkpt lat="-20.27351505657687" lon="119.53026802224231"><ele>45.0</ele><time>2026-04-23T07:47:22.001Z</time></trkpt><trkpt lat="-20.27340200577549" lon="119.5304511976004"><ele>45.0</ele><time>2026-04-23T07:47:23.001Z</time></trkpt><trkpt lat="-20.273283631157447" lon="119.53063165777769"><ele>45.0</ele><time>2026-04-23T07:47:24.001Z</time></trkpt><trkpt lat="-20.27315934837086" lon="119.53082137985251"><ele>45.0</ele><time>2026-04-23T07:47:25.001Z</time></trkpt><trkpt lat="-20.27303171061641" lon="119.53102045266289"><ele>45.0</ele><time>2026-04-23T07:47:26.001Z</time></trkpt><trkpt lat="-20.2729036849563" lon="119.53121981407809"><ele>46.5</ele><time>2026-04-23T07:47:27.001Z</time></trkpt><trkpt lat="-20.272770360940505" lon="119.53142649363583"><ele>48.0</ele><time>2026-04-23T07:47:28.001Z</time></trkpt><trkpt lat="-20.27262861117799" lon="119.53164378109253"><ele>48.0</ele><time>2026-04-23T07:47:29.001Z</time></trkpt><trkpt lat="-20.272483967456136" lon="119.53186882736446"><ele>48.0</ele><time>2026-04-23T07:47:30.001Z</time></trkpt><trkpt lat="-20.272346457772386" lon="119.53208364405253"><ele>46.5</ele><time>2026-04-23T07:47:31.001Z</time></trkpt><trkpt lat="-20.272205564375422" lon="119.53229667937589"><ele>45.0</ele><time>2026-04-23T07:47:32.001Z</time></trkpt><trkpt lat="-20.272062304784317" lon="119.53251529880646"><ele>45.0</ele><time>2026-04-23T07:47:33.002Z</time></trkpt><trkpt lat="-20.27191432277319" lon="119.53273141455406"><ele>45.0</ele><time>2026-04-23T07:47:34.002Z</time></trkpt><trkpt lat="-20.27176578637318" lon="119.53294857742151"><ele>45.5</ele><time>2026-04-23T07:47:35.002Z</time></trkpt><trkpt lat="-20.27162381291679" lon="119.53316869282273"><ele>46.0</ele><time>2026-04-23T07:47:36.002Z</time></trkpt><trkpt lat="-20.271481139829472" lon="119.53338936604992"><ele>46.5</ele><time>2026-04-23T07:47:37.002Z</time></trkpt><trkpt lat="-20.271337536009224" lon="119.53361031226306"><ele>47.0</ele><time>2026-04-23T07:47:38.002Z</time></trkpt><trkpt lat="-20.271195329618543" lon="119.53383013221266"><ele>47.0</ele><time>2026-04-23T07:47:39.002Z</time></trkpt><trkpt lat="-20.27104944456091" lon="119.53405424993828"><ele>47.0</ele><time>2026-04-23T07:47:40.002Z</time></trkpt><trkpt lat="-20.27090398663607" lon="119.53427781914917"><ele>47.0</ele><time>2026-04-23T07:47:41.002Z</time></trkpt><trkpt lat="-20.270757319472292" lon="119.53449824488973"><ele>47.0</ele><time>2026-04-23T07:47:42.002Z</time></trkpt><trkpt lat="-20.270611968015206" lon="119.53472059466925"><ele>46.0</ele><time>2026-04-23T07:47:43.002Z</time></trkpt><trkpt lat="-20.2704687783494" lon="119.53494434491031"><ele>45.0</ele><time>2026-04-23T07:47:44.002Z</time></trkpt><trkpt lat="-20.270324982976025" lon="119.5351678497448"><ele>44.5</ele><time>2026-04-23T07:47:45.002Z</time></trkpt><trkpt lat="-20.270182103103423" lon="119.5353911813974"><ele>44.0</ele><time>2026-04-23T07:47:46.002Z</time></trkpt><trkpt lat="-20.27003700015377" lon="119.53561700366882"><ele>44.0</ele><time>2026-04-23T07:47:47.002Z</time></trkpt><trkpt lat="-20.26989048715954" lon="119.53584150778946"><ele>44.0</ele><time>2026-04-23T07:47:48.002Z</time></trkpt><trkpt lat="-20.26973763744804" lon="119.53607147990955"><ele>45.0</ele><time>2026-04-23T07:47:49.002Z</time></trkpt><trkpt lat="-20.269579336357918" lon="119.53630845494507"><ele>46.0</ele><time>2026-04-23T07:47:50.002Z</time></trkpt><trkpt lat="-20.26941744762861" lon="119.53655372191216"><ele>46.0</ele><time>2026-04-23T07:47:51.002Z</time></trkpt><trkpt lat="-20.269255724244" lon="119.5368007362492"><ele>46.0</ele><time>2026-04-23T07:47:52.002Z</time></trkpt><trkpt lat="-20.269098783668653" lon="119.53704509559105"><ele>45.5</ele><time>2026-04-23T07:47:53.002Z</time></trkpt><trkpt lat="-20.268943498548964" lon="119.53729243256151"><ele>45.0</ele><time>2026-04-23T07:47:54.002Z</time></trkpt><trkpt lat="-20.26878909797056" lon="119.53753498889134"><ele>44.5</ele><time>2026-04-23T07:47:55.002Z</time></trkpt><trkpt lat="-20.26863286879421" lon="119.53777504146296"><ele>44.0</ele><time>2026-04-23T07:47:56.002Z</time></trkpt><trkpt lat="-20.268475999681197" lon="119.53801476111423"><ele>45.0</ele><time>2026-04-23T07:47:57.002Z</time></trkpt><trkpt lat="-20.268321865078544" lon="119.53825175037748"><ele>46.0</ele><time>2026-04-23T07:47:58.002Z</time></trkpt><trkpt lat="-20.268167202807838" lon="119.53848735263722"><ele>47.0</ele><time>2026-04-23T07:47:59.002Z</time></trkpt><trkpt lat="-20.268011050383674" lon="119.53872232207195"><ele>48.0</ele><time>2026-04-23T07:48:00.002Z</time></trkpt><trkpt lat="-20.26785665454962" lon="119.53895425795301"><ele>48.0</ele><time>2026-04-23T07:48:01.002Z</time></trkpt><trkpt lat="-20.267703077440594" lon="119.53918911728172"><ele>48.0</ele><time>2026-04-23T07:48:02.002Z</time></trkpt><trkpt lat="-20.26755522881922" lon="119.53941828200014"><ele>48.5</ele><time>2026-04-23T07:48:03.002Z</time></trkpt><trkpt lat="-20.267410247098066" lon="119.53965150624028"><ele>49.0</ele><time>2026-04-23T07:48:04.002Z</time></trkpt><trkpt lat="-20.267265724687622" lon="119.53988046673304"><ele>48.0</ele><time>2026-04-23T07:48:05.002Z</time></trkpt><trkpt lat="-20.2671186486609" lon="119.54010284708369"><ele>47.0</ele><time>2026-04-23T07:48:06.002Z</time></trkpt><trkpt lat="-20.26696916741731" lon="119.54032473898107"><ele>47.5</ele><time>2026-04-23T07:48:07.002Z</time></trkpt><trkpt lat="-20.266819574437587" lon="119.54054373320676"><ele>48.0</ele><time>2026-04-23T07:48:08.002Z</time></trkpt><trkpt lat="-20.266674383278655" lon="119.5407634978937"><ele>48.0</ele><time>2026-04-23T07:48:09.002Z</time></trkpt><trkpt lat="-20.266531912271763" lon="119.5409865590782"><ele>48.0</ele><time>2026-04-23T07:48:10.002Z</time></trkpt><trkpt lat="-20.266389348177697" lon="119.54120996426768"><ele>47.0</ele><time>2026-04-23T07:48:11Z</time></trkpt><trkpt lat="-20.26624496819734" lon="119.54143268430057"><ele>46.0</ele><time>2026-04-23T07:48:12Z</time></trkpt><trkpt lat="-20.266099489755" lon="119.54165711483492"><ele>46.0</ele><time>2026-04-23T07:48:13Z</time></trkpt><trkpt lat="-20.265958066215234" lon="119.54187541273038"><ele>46.0</ele><time>2026-04-23T07:48:14Z</time></trkpt><trkpt lat="-20.265811580638864" lon="119.54209518199814"><ele>46.5</ele><time>2026-04-23T07:48:15Z</time></trkpt><trkpt lat="-20.26566401676121" lon="119.54231457620634"><ele>47.0</ele><time>2026-04-23T07:48:16Z</time></trkpt><trkpt lat="-20.26551662676709" lon="119.54253753773439"><ele>48.0</ele><time>2026-04-23T07:48:17Z</time></trkpt><trkpt lat="-20.26537030432449" lon="119.54276356993923"><ele>49.0</ele><time>2026-04-23T07:48:18Z</time></trkpt><trkpt lat="-20.26522527343704" lon="119.54298825701744"><ele>49.0</ele><time>2026-04-23T07:48:19Z</time></trkpt><trkpt lat="-20.265079964331033" lon="119.54321187459612"><ele>49.0</ele><time>2026-04-23T07:48:20Z</time></trkpt><trkpt lat="-20.264934008540124" lon="119.54343221087876"><ele>49.0</ele><time>2026-04-23T07:48:21Z</time></trkpt><trkpt lat="-20.2647878897543" lon="119.54365422295018"><ele>49.0</ele><time>2026-04-23T07:48:22Z</time></trkpt><trkpt lat="-20.264643212778264" lon="119.54387671376803"><ele>48.0</ele><time>2026-04-23T07:48:23Z</time></trkpt><trkpt lat="-20.264500416893352" lon="119.54409913916119"><ele>47.0</ele><time>2026-04-23T07:48:24Z</time></trkpt><trkpt lat="-20.264355931308042" lon="119.5443205792058"><ele>48.0</ele><time>2026-04-23T07:48:25Z</time></trkpt><trkpt lat="-20.26420846560394" lon="119.54454653277121"><ele>49.0</ele><time>2026-04-23T07:48:26Z</time></trkpt><trkpt lat="-20.264065089295386" lon="119.54476866099373"><ele>49.0</ele><time>2026-04-23T07:48:27Z</time></trkpt><trkpt lat="-20.26392126428636" lon="119.54498948259258"><ele>49.0</ele><time>2026-04-23T07:48:28Z</time></trkpt><trkpt lat="-20.263776530203966" lon="119.54520908599302"><ele>49.5</ele><time>2026-04-23T07:48:29Z</time></trkpt><trkpt lat="-20.263633729591234" lon="119.54542670928838"><ele>50.0</ele><time>2026-04-23T07:48:30Z</time></trkpt><trkpt lat="-20.263488170785337" lon="119.54564714615942"><ele>50.0</ele><time>2026-04-23T07:48:31Z</time></trkpt><trkpt lat="-20.2633457734309" lon="119.54586869633461"><ele>50.0</ele><time>2026-04-23T07:48:32Z</time></trkpt><trkpt lat="-20.26320297565587" lon="119.54609222250524"><ele>49.0</ele><time>2026-04-23T07:48:33Z</time></trkpt><trkpt lat="-20.263059649910403" lon="119.54631707708916"><ele>48.0</ele><time>2026-04-23T07:48:34Z</time></trkpt><trkpt lat="-20.262914104961517" lon="119.54654266631924"><ele>48.0</ele><time>2026-04-23T07:48:35Z</time></trkpt><trkpt lat="-20.262766835596057" lon="119.54676657457813"><ele>48.0</ele><time>2026-04-23T07:48:36Z</time></trkpt><trkpt lat="-20.262618069994303" lon="119.54699045750678"><ele>50.0</ele><time>2026-04-23T07:48:37Z</time></trkpt><trkpt lat="-20.262468320576872" lon="119.5472143712068"><ele>52.0</ele><time>2026-04-23T07:48:38Z</time></trkpt><trkpt lat="-20.262319832791082" lon="119.54744055178395"><ele>52.0</ele><time>2026-04-23T07:48:39Z</time></trkpt><trkpt lat="-20.26217320076392" lon="119.54766312680866"><ele>52.0</ele><time>2026-04-23T07:48:40Z</time></trkpt><trkpt lat="-20.26202758024803" lon="119.54788437227431"><ele>52.5</ele><time>2026-04-23T07:48:41Z</time></trkpt><trkpt lat="-20.261884587019697" lon="119.54811140112436"><ele>53.0</ele><time>2026-04-23T07:48:42.001Z</time></trkpt><trkpt lat="-20.26174312143102" lon="119.54833910973963"><ele>53.0</ele><time>2026-04-23T07:48:43.001Z</time></trkpt><trkpt lat="-20.261602889747106" lon="119.54856077413609"><ele>53.0</ele><time>2026-04-23T07:48:44.001Z</time></trkpt><trkpt lat="-20.26145870279829" lon="119.54878466478755"><ele>54.0</ele><time>2026-04-23T07:48:45.001Z</time></trkpt><trkpt lat="-20.26131498136621" lon="119.54900614753737"><ele>55.0</ele><time>2026-04-23T07:48:46.001Z</time></trkpt><trkpt lat="-20.261170977893936" lon="119.54923035003065"><ele>55.0</ele><time>2026-04-23T07:48:47.001Z</time></trkpt><trkpt lat="-20.261026329956575" lon="119.54944863712709"><ele>55.0</ele><time>2026-04-23T07:48:48.001Z</time></trkpt><trkpt lat="-20.260881948693505" lon="119.54966911584029"><ele>55.5</ele><time>2026-04-23T07:48:49.001Z</time></trkpt><trkpt lat="-20.260736770222785" lon="119.54988969795889"><ele>56.0</ele><time>2026-04-23T07:48:50.001Z</time></trkpt><trkpt lat="-20.260590608015452" lon="119.55011283165206"><ele>54.5</ele><time>2026-04-23T07:48:51.001Z</time></trkpt><trkpt lat="-20.26044492320905" lon="119.55033220620565"><ele>53.0</ele><time>2026-04-23T07:48:52.001Z</time></trkpt><trkpt lat="-20.260298549311035" lon="119.55055721387104"><ele>52.5</ele><time>2026-04-23T07:48:53.001Z</time></trkpt><trkpt lat="-20.260151750947763" lon="119.5507869677559"><ele>52.0</ele><time>2026-04-23T07:48:54.001Z</time></trkpt><trkpt lat="-20.260005781402427" lon="119.5510152983267"><ele>52.5</ele><time>2026-04-23T07:48:55.001Z</time></trkpt><trkpt lat="-20.259860992672966" lon="119.55124102795519"><ele>53.0</ele><time>2026-04-23T07:48:56.001Z</time></trkpt><trkpt lat="-20.259713403438553" lon="119.55146552792154"><ele>53.0</ele><time>2026-04-23T07:48:57.001Z</time></trkpt><trkpt lat="-20.259566939967687" lon="119.55168791926536"><ele>53.0</ele><time>2026-04-23T07:48:58.001Z</time></trkpt><trkpt lat="-20.259415778831873" lon="119.55192050615686"><ele>53.0</ele><time>2026-04-23T07:48:59.001Z</time></trkpt><trkpt lat="-20.259267702800752" lon="119.55215106303284"><ele>53.0</ele><time>2026-04-23T07:49:00.001Z</time></trkpt><trkpt lat="-20.25913206420441" lon="119.55236505437495"><ele>53.0</ele><time>2026-04-23T07:49:01.001Z</time></trkpt><trkpt lat="-20.25899393935485" lon="119.55258289813777"><ele>53.0</ele><time>2026-04-23T07:49:02.001Z</time></trkpt><trkpt lat="-20.25885201223022" lon="119.55280352809211"><ele>53.0</ele><time>2026-04-23T07:49:03.001Z</time></trkpt><trkpt lat="-20.258705909210796" lon="119.55302589112323"><ele>53.0</ele><time>2026-04-23T07:49:04.001Z</time></trkpt><trkpt lat="-20.25855901465057" lon="119.5532461110441"><ele>53.0</ele><time>2026-04-23T07:49:05.001Z</time></trkpt><trkpt lat="-20.258411580749804" lon="119.55346665170778"><ele>53.0</ele><time>2026-04-23T07:49:06.001Z</time></trkpt><trkpt lat="-20.25826782473121" lon="119.55369034966382"><ele>54.5</ele><time>2026-04-23T07:49:07.001Z</time></trkpt><trkpt lat="-20.258124064611614" lon="119.5539134013418"><ele>56.0</ele><time>2026-04-23T07:49:08.001Z</time></trkpt><trkpt lat="-20.25797675268477" lon="119.5541362730469"><ele>56.0</ele><time>2026-04-23T07:49:09.001Z</time></trkpt><trkpt lat="-20.25783047146282" lon="119.5543601623114"><ele>56.0</ele><time>2026-04-23T07:49:10.001Z</time></trkpt><trkpt lat="-20.25768487756109" lon="119.55458011731609"><ele>55.0</ele><time>2026-04-23T07:49:11.001Z</time></trkpt><trkpt lat="-20.257537994366192" lon="119.55481021343314"><ele>54.0</ele><time>2026-04-23T07:49:12.001Z</time></trkpt><trkpt lat="-20.257390426786323" lon="119.55503890132687"><ele>54.0</ele><time>2026-04-23T07:49:13.001Z</time></trkpt><trkpt lat="-20.257241402248304" lon="119.55526916068594"><ele>54.0</ele><time>2026-04-23T07:49:14.001Z</time></trkpt><trkpt lat="-20.257093873083473" lon="119.55549995786899"><ele>54.5</ele><time>2026-04-23T07:49:15.001Z</time></trkpt><trkpt lat="-20.25694452438869" lon="119.5557289887653"><ele>55.0</ele><time>2026-04-23T07:49:16.001Z</time></trkpt><trkpt lat="-20.256792644202264" lon="119.55595634568506"><ele>55.0</ele><time>2026-04-23T07:49:17.001Z</time></trkpt><trkpt lat="-20.256644485735297" lon="119.5561818389358"><ele>55.0</ele><time>2026-04-23T07:49:18.001Z</time></trkpt><trkpt lat="-20.256495139903205" lon="119.55640342688692"><ele>55.5</ele><time>2026-04-23T07:49:19.001Z</time></trkpt><trkpt lat="-20.25635123491868" lon="119.55662267091651"><ele>56.0</ele><time>2026-04-23T07:49:20.001Z</time></trkpt><trkpt lat="-20.256206891705272" lon="119.55684720778201"><ele>56.0</ele><time>2026-04-23T07:49:21.001Z</time></trkpt><trkpt lat="-20.256065085866336" lon="119.55706917985246"><ele>56.0</ele><time>2026-04-23T07:49:22.001Z</time></trkpt><trkpt lat="-20.255920149252916" lon="119.55728823765185"><ele>56.0</ele><time>2026-04-23T07:49:23.001Z</time></trkpt><trkpt lat="-20.255776849725127" lon="119.55750473922569"><ele>56.0</ele><time>2026-04-23T07:49:24.001Z</time></trkpt><trkpt lat="-20.255634020266506" lon="119.55772474496955"><ele>55.0</ele><time>2026-04-23T07:49:25.001Z</time></trkpt><trkpt lat="-20.255491729653503" lon="119.55794277162492"><ele>54.0</ele><time>2026-04-23T07:49:26.001Z</time></trkpt><trkpt lat="-20.255349708156604" lon="119.55816192462541"><ele>54.0</ele><time>2026-04-23T07:49:27.001Z</time></trkpt><trkpt lat="-20.25521027911893" lon="119.55837966356714"><ele>54.0</ele><time>2026-04-23T07:49:28.001Z</time></trkpt><trkpt lat="-20.25506988069245" lon="119.5585993649183"><ele>54.5</ele><time>2026-04-23T07:49:29.001Z</time></trkpt><trkpt lat="-20.254926962937027" lon="119.55881934955462"><ele>55.0</ele><time>2026-04-23T07:49:30.001Z</time></trkpt><trkpt lat="-20.254782623040555" lon="119.55904401675971"><ele>55.0</ele><time>2026-04-23T07:49:31.001Z</time></trkpt><trkpt lat="-20.25463902836061" lon="119.55926768063541"><ele>55.0</ele><time>2026-04-23T07:49:32.001Z</time></trkpt><trkpt lat="-20.254493886872268" lon="119.55949110933987"><ele>55.5</ele><time>2026-04-23T07:49:33.001Z</time></trkpt><trkpt lat="-20.254347988671796" lon="119.55971466224757"><ele>56.0</ele><time>2026-04-23T07:49:34.001Z</time></trkpt><trkpt lat="-20.254201566913345" lon="119.55994151853042"><ele>56.0</ele><time>2026-04-23T07:49:35.001Z</time></trkpt><trkpt lat="-20.254054627877025" lon="119.56016576323496"><ele>56.0</ele><time>2026-04-23T07:49:36.001Z</time></trkpt><trkpt lat="-20.25390460438153" lon="119.56039426009"><ele>56.0</ele><time>2026-04-23T07:49:37.001Z</time></trkpt><trkpt lat="-20.25375453668913" lon="119.56061912929464"><ele>56.0</ele><time>2026-04-23T07:49:38.001Z</time></trkpt><trkpt lat="-20.253604412160374" lon="119.56084677996084"><ele>56.0</ele><time>2026-04-23T07:49:39.001Z</time></trkpt><trkpt lat="-20.2534565400345" lon="119.56107215258956"><ele>56.0</ele><time>2026-04-23T07:49:40.001Z</time></trkpt><trkpt lat="-20.25331028833698" lon="119.56129687962036"><ele>56.0</ele><time>2026-04-23T07:49:41.001Z</time></trkpt><trkpt lat="-20.253165165893318" lon="119.5615225497016"><ele>56.0</ele><time>2026-04-23T07:49:42.001Z</time></trkpt><trkpt lat="-20.253019452876334" lon="119.56174437559251"><ele>57.5</ele><time>2026-04-23T07:49:43.002Z</time></trkpt><trkpt lat="-20.252872007579878" lon="119.56196272394004"><ele>59.0</ele><time>2026-04-23T07:49:44.002Z</time></trkpt><trkpt lat="-20.252729342216252" lon="119.56218725632624"><ele>60.0</ele><time>2026-04-23T07:49:45.002Z</time></trkpt><trkpt lat="-20.252589132441713" lon="119.56241065711677"><ele>61.0</ele><time>2026-04-23T07:49:46.002Z</time></trkpt><trkpt lat="-20.252447481000555" lon="119.56263483315556"><ele>61.0</ele><time>2026-04-23T07:49:47.002Z</time></trkpt><trkpt lat="-20.252304406920405" lon="119.5628565730473"><ele>61.0</ele><time>2026-04-23T07:49:48.002Z</time></trkpt><trkpt lat="-20.252160669151298" lon="119.56307452536824"><ele>59.5</ele><time>2026-04-23T07:49:49.002Z</time></trkpt><trkpt lat="-20.252017326410986" lon="119.56328997512117"><ele>58.0</ele><time>2026-04-23T07:49:50.002Z</time></trkpt><trkpt lat="-20.25187203326885" lon="119.56350488265497"><ele>58.0</ele><time>2026-04-23T07:49:51.002Z</time></trkpt><trkpt lat="-20.25173084974521" lon="119.56372342118418"><ele>58.0</ele><time>2026-04-23T07:49:52.002Z</time></trkpt><trkpt lat="-20.251592743638735" lon="119.56393718328103"><ele>59.0</ele><time>2026-04-23T07:49:53.002Z</time></trkpt><trkpt lat="-20.251450130674858" lon="119.56415976260348"><ele>60.0</ele><time>2026-04-23T07:49:54.002Z</time></trkpt><trkpt lat="-20.251306160223745" lon="119.56437565897703"><ele>60.0</ele><time>2026-04-23T07:49:55.002Z</time></trkpt><trkpt lat="-20.251156864964425" lon="119.56459350028923"><ele>60.0</ele><time>2026-04-23T07:49:56.002Z</time></trkpt><trkpt lat="-20.251003525756396" lon="119.56481357531464"><ele>60.0</ele><time>2026-04-23T07:49:57.002Z</time></trkpt><trkpt lat="-20.25084613342715" lon="119.56502845375951"><ele>60.0</ele><time>2026-04-23T07:49:58.002Z</time></trkpt><trkpt lat="-20.25068349114683" lon="119.5652397582311"><ele>60.0</ele><time>2026-04-23T07:49:59.002Z</time></trkpt><trkpt lat="-20.2505173468295" lon="119.56544599142082"><ele>60.0</ele><time>2026-04-23T07:50:00.002Z</time></trkpt><trkpt lat="-20.250348980394527" lon="119.56564734061983"><ele>60.0</ele><time>2026-04-23T07:50:01.002Z</time></trkpt><trkpt lat="-20.25018043321252" lon="119.56584323401938"><ele>60.0</ele><time>2026-04-23T07:50:02.002Z</time></trkpt><trkpt lat="-20.250010560450644" lon="119.56603593656342"><ele>59.5</ele><time>2026-04-23T07:50:03.002Z</time></trkpt><trkpt lat="-20.249835916790925" lon="119.56622428257536"><ele>59.0</ele><time>2026-04-23T07:50:04.002Z</time></trkpt><trkpt lat="-20.24965738359126" lon="119.56640985494286"><ele>59.0</ele><time>2026-04-23T07:50:05.002Z</time></trkpt><trkpt lat="-20.24948217171871" lon="119.56659212183112"><ele>59.0</ele><time>2026-04-23T07:50:06.002Z</time></trkpt><trkpt lat="-20.249303985837493" lon="119.5667725207237"><ele>59.0</ele><time>2026-04-23T07:50:07.002Z</time></trkpt><trkpt lat="-20.249126506394454" lon="119.56694631800507"><ele>59.0</ele><time>2026-04-23T07:50:08.002Z</time></trkpt><trkpt lat="-20.24894214942255" lon="119.56712175818251"><ele>59.5</ele><time>2026-04-23T07:50:09.002Z</time></trkpt><trkpt lat="-20.248760570470935" lon="119.56729077288969"><ele>60.0</ele><time>2026-04-23T07:50:10.002Z</time></trkpt><trkpt lat="-20.248574716281926" lon="119.56745688879775"><ele>60.0</ele><time>2026-04-23T07:50:11.002Z</time></trkpt><trkpt lat="-20.248385617128406" lon="119.56762369972023"><ele>60.0</ele><time>2026-04-23T07:50:12.002Z</time></trkpt><trkpt lat="-20.24819534065157" lon="119.56779567191067"><ele>60.0</ele><time>2026-04-23T07:50:13.002Z</time></trkpt><trkpt lat="-20.248011532306023" lon="119.56796129026282"><ele>60.0</ele><time>2026-04-23T07:50:14.002Z</time></trkpt><trkpt lat="-20.247835846841163" lon="119.56812187164113"><ele>60.0</ele><time>2026-04-23T07:50:15.002Z</time></trkpt><trkpt lat="-20.247655048483608" lon="119.56828923494336"><ele>60.0</ele><time>2026-04-23T07:50:16.002Z</time></trkpt><trkpt lat="-20.247468077722125" lon="119.56846263638795"><ele>59.0</ele><time>2026-04-23T07:50:17.001Z</time></trkpt><trkpt lat="-20.247276898903863" lon="119.56863967615482"><ele>58.0</ele><time>2026-04-23T07:50:18.001Z</time></trkpt><trkpt lat="-20.24708538215914" lon="119.56881450565986"><ele>57.5</ele><time>2026-04-23T07:50:19.001Z</time></trkpt><trkpt lat="-20.246892222886835" lon="119.56898664700648"><ele>57.0</ele><time>2026-04-23T07:50:20.001Z</time></trkpt><trkpt lat="-20.246698627233933" lon="119.56915963401605"><ele>57.0</ele><time>2026-04-23T07:50:21.001Z</time></trkpt><trkpt lat="-20.246502708894454" lon="119.56933577647355"><ele>57.0</ele><time>2026-04-23T07:50:22.001Z</time></trkpt><trkpt lat="-20.246306824375754" lon="119.56951356166125"><ele>57.0</ele><time>2026-04-23T07:50:23.001Z</time></trkpt><trkpt lat="-20.24611159844575" lon="119.5696910336169"><ele>57.0</ele><time>2026-04-23T07:50:24.001Z</time></trkpt><trkpt lat="-20.245915789919728" lon="119.56986873702114"><ele>57.0</ele><time>2026-04-23T07:50:25.001Z</time></trkpt><trkpt lat="-20.245718946025683" lon="119.57004584220746"><ele>57.0</ele><time>2026-04-23T07:50:26.001Z</time></trkpt><trkpt lat="-20.245519644421016" lon="119.5702263249352"><ele>57.0</ele><time>2026-04-23T07:50:27.001Z</time></trkpt><trkpt lat="-20.245321727712934" lon="119.57040809047271"><ele>57.0</ele><time>2026-04-23T07:50:28.001Z</time></trkpt><trkpt lat="-20.24512240242077" lon="119.57059148836039"><ele>57.0</ele><time>2026-04-23T07:50:29.001Z</time></trkpt><trkpt lat="-20.2449237120257" lon="119.57077360925018"><ele>57.0</ele><time>2026-04-23T07:50:30.001Z</time></trkpt><trkpt lat="-20.24472577106236" lon="119.57095491907342"><ele>56.0</ele><time>2026-04-23T07:50:31.001Z</time></trkpt><trkpt lat="-20.244528030678328" lon="119.57113397409428"><ele>55.0</ele><time>2026-04-23T07:50:32.001Z</time></trkpt><trkpt lat="-20.24433159075326" lon="119.57131243523249"><ele>55.0</ele><time>2026-04-23T07:50:33.001Z</time></trkpt><trkpt lat="-20.244134766956787" lon="119.57149312412177"><ele>55.0</ele><time>2026-04-23T07:50:34.001Z</time></trkpt><trkpt lat="-20.243936311383635" lon="119.57167832475544"><ele>55.0</ele><time>2026-04-23T07:50:35.001Z</time></trkpt><trkpt lat="-20.243737707762897" lon="119.57186267838738"><ele>55.0</ele><time>2026-04-23T07:50:36.001Z</time></trkpt><trkpt lat="-20.24354060815999" lon="119.5720438154219"><ele>55.5</ele><time>2026-04-23T07:50:37.001Z</time></trkpt><trkpt lat="-20.243342192124988" lon="119.57222373020556"><ele>56.0</ele><time>2026-04-23T07:50:38.001Z</time></trkpt><trkpt lat="-20.243140499124678" lon="119.57240414366956"><ele>55.0</ele><time>2026-04-23T07:50:39.001Z</time></trkpt><trkpt lat="-20.24293600380079" lon="119.57258524792603"><ele>54.0</ele><time>2026-04-23T07:50:40.001Z</time></trkpt><trkpt lat="-20.242734795907825" lon="119.57276834039652"><ele>54.5</ele><time>2026-04-23T07:50:41.001Z</time></trkpt><trkpt lat="-20.242532620317935" lon="119.57295235850742"><ele>55.0</ele><time>2026-04-23T07:50:42.001Z</time></trkpt><trkpt lat="-20.242331688760544" lon="119.57313584919565"><ele>54.5</ele><time>2026-04-23T07:50:43.001Z</time></trkpt><trkpt lat="-20.242132715303555" lon="119.57331981750605"><ele>54.0</ele><time>2026-04-23T07:50:44.001Z</time></trkpt><trkpt lat="-20.241935366958295" lon="119.57350190649969"><ele>54.0</ele><time>2026-04-23T07:50:45.001Z</time></trkpt><trkpt lat="-20.241737957259485" lon="119.57368427886692"><ele>54.0</ele><time>2026-04-23T07:50:46.001Z</time></trkpt><trkpt lat="-20.24154041012295" lon="119.57386356235914"><ele>53.0</ele><time>2026-04-23T07:50:47.001Z</time></trkpt><trkpt lat="-20.241344924909885" lon="119.57404454253322"><ele>52.0</ele><time>2026-04-23T07:50:48.001Z</time></trkpt><trkpt lat="-20.24115081239505" lon="119.57422562771693"><ele>52.0</ele><time>2026-04-23T07:50:49.001Z</time></trkpt><trkpt lat="-20.24095518805119" lon="119.57440565127527"><ele>52.0</ele><time>2026-04-23T07:50:50.001Z</time></trkpt><trkpt lat="-20.240758972041927" lon="119.57458578775307"><ele>52.5</ele><time>2026-04-23T07:50:51.001Z</time></trkpt><trkpt lat="-20.24056002359535" lon="119.57476619163435"><ele>53.0</ele><time>2026-04-23T07:50:52.001Z</time></trkpt><trkpt lat="-20.24035842865943" lon="119.57494685118814"><ele>53.0</ele><time>2026-04-23T07:50:53.001Z</time></trkpt><trkpt lat="-20.240157714100153" lon="119.57512608039384"><ele>53.0</ele><time>2026-04-23T07:50:54.001Z</time></trkpt><trkpt lat="-20.239957839530614" lon="119.57530749069181"><ele>53.0</ele><time>2026-04-23T07:50:55.001Z</time></trkpt><trkpt lat="-20.239758364364608" lon="119.57549102795282"><ele>53.0</ele><time>2026-04-23T07:50:56.001Z</time></trkpt><trkpt lat="-20.23955842171545" lon="119.57567404984383"><ele>53.0</ele><time>2026-04-23T07:50:57.001Z</time></trkpt><trkpt lat="-20.239358261600668" lon="119.57585759896448"><ele>53.0</ele><time>2026-04-23T07:50:58.001Z</time></trkpt><trkpt lat="-20.239157160997838" lon="119.57604188658286"><ele>53.0</ele><time>2026-04-23T07:50:59.001Z</time></trkpt><trkpt lat="-20.238956436061677" lon="119.57622657787873"><ele>53.0</ele><time>2026-04-23T07:51:00.001Z</time></trkpt><trkpt lat="-20.238751695394004" lon="119.57641032549755"><ele>53.0</ele><time>2026-04-23T07:51:01.001Z</time></trkpt><trkpt lat="-20.23854488447496" lon="119.57659023588418"><ele>53.0</ele><time>2026-04-23T07:51:02.001Z</time></trkpt><trkpt lat="-20.23833445599512" lon="119.57677708185953"><ele>52.5</ele><time>2026-04-23T07:51:03.001Z</time></trkpt><trkpt lat="-20.238125457902832" lon="119.57696742867113"><ele>52.0</ele><time>2026-04-23T07:51:04.001Z</time></trkpt><trkpt lat="-20.23791610378609" lon="119.57716196011324"><ele>52.0</ele><time>2026-04-23T07:51:05.001Z</time></trkpt><trkpt lat="-20.237703293583547" lon="119.57735960090808"><ele>52.0</ele><time>2026-04-23T07:51:06.001Z</time></trkpt><trkpt lat="-20.237490162708916" lon="119.57755541497818"><ele>52.0</ele><time>2026-04-23T07:51:07.001Z</time></trkpt><trkpt lat="-20.237276738287193" lon="119.5777492710198"><ele>52.0</ele><time>2026-04-23T07:51:08.001Z</time></trkpt><trkpt lat="-20.237063692277797" lon="119.57794081527673"><ele>52.0</ele><time>2026-04-23T07:51:09.001Z</time></trkpt><trkpt lat="-20.236853197825646" lon="119.57813118223497"><ele>52.0</ele><time>2026-04-23T07:51:10.001Z</time></trkpt><trkpt lat="-20.236644071496055" lon="119.57832070900336"><ele>51.5</ele><time>2026-04-23T07:51:11.001Z</time></trkpt><trkpt lat="-20.23643634870464" lon="119.57851232997339"><ele>51.0</ele><time>2026-04-23T07:51:12.001Z</time></trkpt><trkpt lat="-20.236228761452345" lon="119.57870453728322"><ele>50.5</ele><time>2026-04-23T07:51:13.001Z</time></trkpt><trkpt lat="-20.236022548600122" lon="119.57889274508938"><ele>50.0</ele><time>2026-04-23T07:51:14.001Z</time></trkpt><trkpt lat="-20.23581388351501" lon="119.57908090483548"><ele>51.0</ele><time>2026-04-23T07:51:15.001Z</time></trkpt><trkpt lat="-20.23560862656713" lon="119.5792658065384"><ele>52.0</ele><time>2026-04-23T07:51:16.001Z</time></trkpt><trkpt lat="-20.23539836552548" lon="119.57945781117834"><ele>52.5</ele><time>2026-04-23T07:51:17.001Z</time></trkpt><trkpt lat="-20.235184494599654" lon="119.57965095230642"><ele>53.0</ele><time>2026-04-23T07:51:18.001Z</time></trkpt><trkpt lat="-20.234971709431502" lon="119.57984731453662"><ele>52.0</ele><time>2026-04-23T07:51:19.001Z</time></trkpt><trkpt lat="-20.234756905905453" lon="119.58004486658817"><ele>51.0</ele><time>2026-04-23T07:51:20.001Z</time></trkpt><trkpt lat="-20.23454261607105" lon="119.58024516625105"><ele>52.0</ele><time>2026-04-23T07:51:21.001Z</time></trkpt><trkpt lat="-20.234327199055365" lon="119.58044717430816"><ele>53.0</ele><time>2026-04-23T07:51:22.001Z</time></trkpt><trkpt lat="-20.234111613058346" lon="119.58064814395865"><ele>54.0</ele><time>2026-04-23T07:51:23.001Z</time></trkpt><trkpt lat="-20.233893813194655" lon="119.58084756305684"><ele>55.0</ele><time>2026-04-23T07:51:24.001Z</time></trkpt><trkpt lat="-20.23367555255973" lon="119.58104453372208"><ele>54.5</ele><time>2026-04-23T07:51:25.001Z</time></trkpt><trkpt lat="-20.233456598377376" lon="119.58124076682421"><ele>54.0</ele><time>2026-04-23T07:51:26.001Z</time></trkpt><trkpt lat="-20.233235791211097" lon="119.58143808908373"><ele>53.5</ele><time>2026-04-23T07:51:27.001Z</time></trkpt><trkpt lat="-20.233022339762087" lon="119.5816286058121"><ele>53.0</ele><time>2026-04-23T07:51:28.001Z</time></trkpt><trkpt lat="-20.232820333856065" lon="119.5818097073011"><ele>53.0</ele><time>2026-04-23T07:51:29.001Z</time></trkpt><trkpt lat="-20.232613865939353" lon="119.58199541285894"><ele>53.0</ele><time>2026-04-23T07:51:30.001Z</time></trkpt><trkpt lat="-20.23240755744763" lon="119.58218547775232"><ele>52.5</ele><time>2026-04-23T07:51:31.001Z</time></trkpt><trkpt lat="-20.2321977329572" lon="119.58237874209628"><ele>52.0</ele><time>2026-04-23T07:51:32.001Z</time></trkpt><trkpt lat="-20.23198749064907" lon="119.58257405035016"><ele>52.0</ele><time>2026-04-23T07:51:33.001Z</time></trkpt><trkpt lat="-20.231776888856228" lon="119.58276873483436"><ele>52.0</ele><time>2026-04-23T07:51:34.001Z</time></trkpt><trkpt lat="-20.231568442286076" lon="119.58296536699689"><ele>52.5</ele><time>2026-04-23T07:51:35.001Z</time></trkpt><trkpt lat="-20.231359405607375" lon="119.58315744577966"><ele>53.0</ele><time>2026-04-23T07:51:36.001Z</time></trkpt><trkpt lat="-20.23114709179794" lon="119.58335008415456"><ele>53.0</ele><time>2026-04-23T07:51:37.001Z</time></trkpt><trkpt lat="-20.23093706978133" lon="119.58354001541535"><ele>53.0</ele><time>2026-04-23T07:51:38.001Z</time></trkpt><trkpt lat="-20.2307236250917" lon="119.5837289089841"><ele>53.5</ele><time>2026-04-23T07:51:39.001Z</time></trkpt><trkpt lat="-20.230508212448843" lon="119.58391750639329"><ele>54.0</ele><time>2026-04-23T07:51:40.001Z</time></trkpt><trkpt lat="-20.230295594531125" lon="119.58410733471852"><ele>54.0</ele><time>2026-04-23T07:51:41.001Z</time></trkpt><trkpt lat="-20.230083556381654" lon="119.58430091684932"><ele>54.0</ele><time>2026-04-23T07:51:42.001Z</time></trkpt><trkpt lat="-20.22987145772607" lon="119.58449551623741"><ele>53.5</ele><time>2026-04-23T07:51:43.001Z</time></trkpt><trkpt lat="-20.229660358564104" lon="119.58468987497353"><ele>53.0</ele><time>2026-04-23T07:51:44.002Z</time></trkpt><trkpt lat="-20.22944835427133" lon="119.58488540087725"><ele>53.0</ele><time>2026-04-23T07:51:45.002Z</time></trkpt><trkpt lat="-20.22923792405471" lon="119.58507856253986"><ele>53.0</ele><time>2026-04-23T07:51:46.002Z</time></trkpt><trkpt lat="-20.229028169113388" lon="119.5852719688296"><ele>54.0</ele><time>2026-04-23T07:51:47.002Z</time></trkpt><trkpt lat="-20.228821480517254" lon="119.58546276379192"><ele>55.0</ele><time>2026-04-23T07:51:48.002Z</time></trkpt><trkpt lat="-20.228613474447222" lon="119.58565124188996"><ele>55.0</ele><time>2026-04-23T07:51:49.002Z</time></trkpt><trkpt lat="-20.22840510391354" lon="119.58583619903796"><ele>55.0</ele><time>2026-04-23T07:51:50.002Z</time></trkpt><trkpt lat="-20.228199492603398" lon="119.58602055222163"><ele>54.5</ele><time>2026-04-23T07:51:51.002Z</time></trkpt><trkpt lat="-20.227995161439615" lon="119.5862058868893"><ele>54.0</ele><time>2026-04-23T07:51:52.002Z</time></trkpt><trkpt lat="-20.227795470854385" lon="119.58638958240029"><ele>54.0</ele><time>2026-04-23T07:51:53.002Z</time></trkpt><trkpt lat="-20.227599932835894" lon="119.58657619717869"><ele>54.0</ele><time>2026-04-23T07:51:54.002Z</time></trkpt><trkpt lat="-20.22740757638814" lon="119.58676533115897"><ele>53.5</ele><time>2026-04-23T07:51:55.002Z</time></trkpt><trkpt lat="-20.227219761192014" lon="119.58695119777914"><ele>53.0</ele><time>2026-04-23T07:51:56.002Z</time></trkpt><trkpt lat="-20.227033024297832" lon="119.58713555856991"><ele>53.0</ele><time>2026-04-23T07:51:57.002Z</time></trkpt><trkpt lat="-20.226846860933478" lon="119.58732005590693"><ele>53.0</ele><time>2026-04-23T07:51:58.002Z</time></trkpt><trkpt lat="-20.226659055050796" lon="119.5875038918611"><ele>52.0</ele><time>2026-04-23T07:51:59.002Z</time></trkpt><trkpt lat="-20.22646871925433" lon="119.58769000423872"><ele>51.0</ele><time>2026-04-23T07:52:00.002Z</time></trkpt><trkpt lat="-20.226277186968396" lon="119.58787909697872"><ele>50.5</ele><time>2026-04-23T07:52:01.002Z</time></trkpt><trkpt lat="-20.22608246178535" lon="119.58807455273212"><ele>50.0</ele><time>2026-04-23T07:52:02.002Z</time></trkpt><trkpt lat="-20.22588953386445" lon="119.58826982352531"><ele>50.0</ele><time>2026-04-23T07:52:03.002Z</time></trkpt><trkpt lat="-20.22569430748054" lon="119.58846555645712"><ele>50.0</ele><time>2026-04-23T07:52:04.002Z</time></trkpt><trkpt lat="-20.2254956478353" lon="119.58866417872025"><ele>50.5</ele><time>2026-04-23T07:52:05.002Z</time></trkpt><trkpt lat="-20.225295762827642" lon="119.58886327687215"><ele>51.0</ele><time>2026-04-23T07:52:06.002Z</time></trkpt><trkpt lat="-20.225098770342356" lon="119.58906433441884"><ele>51.0</ele><time>2026-04-23T07:52:07.002Z</time></trkpt><trkpt lat="-20.224903397574632" lon="119.58927148494641"><ele>51.0</ele><time>2026-04-23T07:52:08.002Z</time></trkpt><trkpt lat="-20.224712385174033" lon="119.5894821402273"><ele>51.0</ele><time>2026-04-23T07:52:09.002Z</time></trkpt><trkpt lat="-20.22451798908497" lon="119.5896940143428"><ele>51.0</ele><time>2026-04-23T07:52:10.002Z</time></trkpt><trkpt lat="-20.22432148997938" lon="119.58990904726066"><ele>51.0</ele><time>2026-04-23T07:52:11.002Z</time></trkpt><trkpt lat="-20.224123757643028" lon="119.59012494483727"><ele>51.0</ele><time>2026-04-23T07:52:12.002Z</time></trkpt><trkpt lat="-20.22392324073387" lon="119.5903415847313"><ele>51.0</ele><time>2026-04-23T07:52:13.002Z</time></trkpt><trkpt lat="-20.223722067990522" lon="119.59056179231173"><ele>51.0</ele><time>2026-04-23T07:52:14.002Z</time></trkpt><trkpt lat="-20.223527718396955" lon="119.5907801293908"><ele>51.0</ele><time>2026-04-23T07:52:15.002Z</time></trkpt><trkpt lat="-20.223335458439053" lon="119.59099712651663"><ele>51.0</ele><time>2026-04-23T07:52:16.002Z</time></trkpt><trkpt lat="-20.223146216430216" lon="119.59121410067034"><ele>51.5</ele><time>2026-04-23T07:52:17.002Z</time></trkpt><trkpt lat="-20.22295706057437" lon="119.59142838378409"><ele>52.0</ele><time>2026-04-23T07:52:18.002Z</time></trkpt><trkpt lat="-20.22276976667385" lon="119.59164390983194"><ele>52.0</ele><time>2026-04-23T07:52:19.002Z</time></trkpt><trkpt lat="-20.22258452654709" lon="119.5918575468218"><ele>52.0</ele><time>2026-04-23T07:52:20.002Z</time></trkpt><trkpt lat="-20.22239855012416" lon="119.59206907178024"><ele>51.5</ele><time>2026-04-23T07:52:21.002Z</time></trkpt><trkpt lat="-20.222215147748624" lon="119.59227726985553"><ele>51.0</ele><time>2026-04-23T07:52:22.002Z</time></trkpt><trkpt lat="-20.22202962401623" lon="119.59248714317323"><ele>51.0</ele><time>2026-04-23T07:52:23.001Z</time></trkpt><trkpt lat="-20.22184278871498" lon="119.5926979336863"><ele>51.0</ele><time>2026-04-23T07:52:24.001Z</time></trkpt><trkpt lat="-20.22165496992488" lon="119.59290668285237"><ele>52.5</ele><time>2026-04-23T07:52:25.001Z</time></trkpt><trkpt lat="-20.221463483981495" lon="119.59311664080171"><ele>54.0</ele><time>2026-04-23T07:52:26.001Z</time></trkpt><trkpt lat="-20.22127097247268" lon="119.59332703221843"><ele>54.0</ele><time>2026-04-23T07:52:27.001Z</time></trkpt><trkpt lat="-20.221076470025533" lon="119.59353859904799"><ele>54.0</ele><time>2026-04-23T07:52:28.001Z</time></trkpt><trkpt lat="-20.220885081262033" lon="119.59375001081285"><ele>55.0</ele><time>2026-04-23T07:52:29.001Z</time></trkpt><trkpt lat="-20.2206955339332" lon="119.59396310619265"><ele>56.0</ele><time>2026-04-23T07:52:30.001Z</time></trkpt><trkpt lat="-20.220506885431202" lon="119.59417782231426"><ele>56.0</ele><time>2026-04-23T07:52:31.001Z</time></trkpt><trkpt lat="-20.22031695897468" lon="119.59439652397755"><ele>56.0</ele><time>2026-04-23T07:52:32.001Z</time></trkpt><trkpt lat="-20.220126268933722" lon="119.59461599143734"><ele>56.0</ele><time>2026-04-23T07:52:33.001Z</time></trkpt><trkpt lat="-20.219930479162638" lon="119.59483960217909"><ele>56.0</ele><time>2026-04-23T07:52:34.001Z</time></trkpt><trkpt lat="-20.219731258580545" lon="119.59506366945357"><ele>56.0</ele><time>2026-04-23T07:52:35.001Z</time></trkpt><trkpt lat="-20.21953004413992" lon="119.59528617942061"><ele>56.0</ele><time>2026-04-23T07:52:36.001Z</time></trkpt><trkpt lat="-20.219330169265493" lon="119.5955108265207"><ele>56.0</ele><time>2026-04-23T07:52:37.001Z</time></trkpt><trkpt lat="-20.219133172399573" lon="119.5957317788939"><ele>56.0</ele><time>2026-04-23T07:52:38.001Z</time></trkpt><trkpt lat="-20.21893495431429" lon="119.59595628126887"><ele>56.5</ele><time>2026-04-23T07:52:39.001Z</time></trkpt><trkpt lat="-20.218737566236786" lon="119.59617731630554"><ele>57.0</ele><time>2026-04-23T07:52:40.001Z</time></trkpt><trkpt lat="-20.218538349837928" lon="119.5964004592393"><ele>57.0</ele><time>2026-04-23T07:52:41.001Z</time></trkpt><trkpt lat="-20.21833903433525" lon="119.5966210453667"><ele>57.0</ele><time>2026-04-23T07:52:42.001Z</time></trkpt><trkpt lat="-20.21813981908673" lon="119.59684337152542"><ele>57.5</ele><time>2026-04-23T07:52:43.001Z</time></trkpt><trkpt lat="-20.217946952548058" lon="119.59706933826523"><ele>58.0</ele><time>2026-04-23T07:52:44.001Z</time></trkpt><trkpt lat="-20.21774844003719" lon="119.59729118110872"><ele>58.0</ele><time>2026-04-23T07:52:45.001Z</time></trkpt><trkpt lat="-20.2175517959631" lon="119.59751195132067"><ele>58.0</ele><time>2026-04-23T07:52:46.001Z</time></trkpt><trkpt lat="-20.21735313168677" lon="119.59773462749668"><ele>57.0</ele><time>2026-04-23T07:52:47.001Z</time></trkpt><trkpt lat="-20.2171577858597" lon="119.59795581651056"><ele>56.0</ele><time>2026-04-23T07:52:48.001Z</time></trkpt><trkpt lat="-20.21696244056618" lon="119.59818013559712"><ele>56.0</ele><time>2026-04-23T07:52:49.001Z</time></trkpt><trkpt lat="-20.21676832108755" lon="119.59840196467297"><ele>56.0</ele><time>2026-04-23T07:52:50.001Z</time></trkpt><trkpt lat="-20.216572676051502" lon="119.59862419011098"><ele>55.0</ele><time>2026-04-23T07:52:51.001Z</time></trkpt><trkpt lat="-20.216374408693515" lon="119.59884090995446"><ele>54.0</ele><time>2026-04-23T07:52:52.001Z</time></trkpt><trkpt lat="-20.21617700701986" lon="119.59905744189265"><ele>54.0</ele><time>2026-04-23T07:52:53.001Z</time></trkpt><trkpt lat="-20.215981501913767" lon="119.59927291761709"><ele>54.0</ele><time>2026-04-23T07:52:54.001Z</time></trkpt><trkpt lat="-20.215788371755178" lon="119.59949206106825"><ele>56.0</ele><time>2026-04-23T07:52:55.001Z</time></trkpt><trkpt lat="-20.21559528873383" lon="119.59970962762449"><ele>58.0</ele><time>2026-04-23T07:52:56.001Z</time></trkpt><trkpt lat="-20.215400879685713" lon="119.59992981605147"><ele>58.0</ele><time>2026-04-23T07:52:57.001Z</time></trkpt><trkpt lat="-20.2152066857002" lon="119.60014857515232"><ele>58.0</ele><time>2026-04-23T07:52:58.001Z</time></trkpt><trkpt lat="-20.215013459113877" lon="119.60036692840589"><ele>58.0</ele><time>2026-04-23T07:52:59.001Z</time></trkpt><trkpt lat="-20.21482269773305" lon="119.60058568281724"><ele>58.0</ele><time>2026-04-23T07:53:00.001Z</time></trkpt><trkpt lat="-20.214633959069044" lon="119.60080463479397"><ele>57.5</ele><time>2026-04-23T07:53:01.001Z</time></trkpt><trkpt lat="-20.214443216550844" lon="119.6010245258587"><ele>57.0</ele><time>2026-04-23T07:53:02.001Z</time></trkpt><trkpt lat="-20.21425180131884" lon="119.60124147706105"><ele>56.5</ele><time>2026-04-23T07:53:03.001Z</time></trkpt><trkpt lat="-20.214056731566878" lon="119.60145989908933"><ele>56.0</ele><time>2026-04-23T07:53:04.001Z</time></trkpt><trkpt lat="-20.213863286821177" lon="119.60167854793968"><ele>56.5</ele><time>2026-04-23T07:53:05.001Z</time></trkpt><trkpt lat="-20.213670641736392" lon="119.60189769279138"><ele>57.0</ele><time>2026-04-23T07:53:06.001Z</time></trkpt><trkpt lat="-20.213475479783746" lon="119.60211464866052"><ele>57.0</ele><time>2026-04-23T07:53:07.001Z</time></trkpt><trkpt lat="-20.213280962161292" lon="119.60232951378086"><ele>57.0</ele><time>2026-04-23T07:53:08.001Z</time></trkpt><trkpt lat="-20.213085641230332" lon="119.60254459046331"><ele>56.5</ele><time>2026-04-23T07:53:09.001Z</time></trkpt><trkpt lat="-20.212887740042877" lon="119.60276218558833"><ele>56.0</ele><time>2026-04-23T07:53:10.001Z</time></trkpt><trkpt lat="-20.21269069425278" lon="119.60298032303855"><ele>56.0</ele><time>2026-04-23T07:53:11.001Z</time></trkpt><trkpt lat="-20.212494706008346" lon="119.60320195113076"><ele>56.0</ele><time>2026-04-23T07:53:12.001Z</time></trkpt><trkpt lat="-20.21230238359113" lon="119.60342033967879"><ele>55.0</ele><time>2026-04-23T07:53:13.001Z</time></trkpt><trkpt lat="-20.212110199619943" lon="119.60363995188567"><ele>54.0</ele><time>2026-04-23T07:53:14.001Z</time></trkpt><trkpt lat="-20.21191703028876" lon="119.60386143405582"><ele>54.0</ele><time>2026-04-23T07:53:15.001Z</time></trkpt><trkpt lat="-20.211721694215147" lon="119.60408276676743"><ele>54.0</ele><time>2026-04-23T07:53:16.001Z</time></trkpt><trkpt lat="-20.211524965657105" lon="119.60430520894089"><ele>54.0</ele><time>2026-04-23T07:53:17.001Z</time></trkpt><trkpt lat="-20.21132665157379" lon="119.60452976831307"><ele>54.0</ele><time>2026-04-23T07:53:18.001Z</time></trkpt><trkpt lat="-20.21112566664812" lon="119.604751592797"><ele>54.0</ele><time>2026-04-23T07:53:19.001Z</time></trkpt><trkpt lat="-20.21092234168008" lon="119.60497625491698"><ele>54.0</ele><time>2026-04-23T07:53:20.001Z</time></trkpt><trkpt lat="-20.210716946402282" lon="119.60519982170547"><ele>54.0</ele><time>2026-04-23T07:53:21.001Z</time></trkpt><trkpt lat="-20.210512803326655" lon="119.60542395749887"><ele>54.0</ele><time>2026-04-23T07:53:22.001Z</time></trkpt><trkpt lat="-20.210312275524572" lon="119.60564982578846"><ele>54.0</ele><time>2026-04-23T07:53:23.001Z</time></trkpt><trkpt lat="-20.210116050454833" lon="119.60587387778196"><ele>54.0</ele><time>2026-04-23T07:53:24.001Z</time></trkpt><trkpt lat="-20.20992152118027" lon="119.60609387509193"><ele>53.0</ele><time>2026-04-23T07:53:25.001Z</time></trkpt><trkpt lat="-20.20972627612451" lon="119.60631767147103"><ele>52.0</ele><time>2026-04-23T07:53:26.001Z</time></trkpt><trkpt lat="-20.209532916173487" lon="119.60653478655092"><ele>52.0</ele><time>2026-04-23T07:53:27.001Z</time></trkpt><trkpt lat="-20.20933863424241" lon="119.60675349823221"><ele>52.0</ele><time>2026-04-23T07:53:28.001Z</time></trkpt><trkpt lat="-20.20914549357092" lon="119.60697214738013"><ele>52.0</ele><time>2026-04-23T07:53:29.001Z</time></trkpt><trkpt lat="-20.208953163672255" lon="119.60718751504561"><ele>52.0</ele><time>2026-04-23T07:53:30.001Z</time></trkpt><trkpt lat="-20.20876256425294" lon="119.60739977004354"><ele>52.0</ele><time>2026-04-23T07:53:31.001Z</time></trkpt><trkpt lat="-20.20857282747644" lon="119.60761222397556"><ele>52.0</ele><time>2026-04-23T07:53:32.001Z</time></trkpt><trkpt lat="-20.208385017432597" lon="119.60782588769824"><ele>52.0</ele><time>2026-04-23T07:53:33.001Z</time></trkpt><trkpt lat="-20.208200229305415" lon="119.60803734882587"><ele>52.0</ele><time>2026-04-23T07:53:34.001Z</time></trkpt><trkpt lat="-20.208012881110978" lon="119.60824645272936"><ele>52.0</ele><time>2026-04-23T07:53:35.001Z</time></trkpt><trkpt lat="-20.20781966989444" lon="119.60846375846255"><ele>52.0</ele><time>2026-04-23T07:53:36.001Z</time></trkpt><trkpt lat="-20.20762285105809" lon="119.60868559832447"><ele>52.5</ele><time>2026-04-23T07:53:37.001Z</time></trkpt><trkpt lat="-20.207424414154435" lon="119.60891090763612"><ele>53.0</ele><time>2026-04-23T07:53:38.001Z</time></trkpt><trkpt lat="-20.20722584994224" lon="119.60913850901184"><ele>53.0</ele><time>2026-04-23T07:53:39.001Z</time></trkpt><trkpt lat="-20.20702711794959" lon="119.60936210968495"><ele>53.0</ele><time>2026-04-23T07:53:40.001Z</time></trkpt><trkpt lat="-20.206827709572554" lon="119.6095855917477"><ele>53.0</ele><time>2026-04-23T07:53:41.001Z</time></trkpt><trkpt lat="-20.206631008237995" lon="119.60980903778511"><ele>53.0</ele><time>2026-04-23T07:53:42.001Z</time></trkpt><trkpt lat="-20.206432698755265" lon="119.61003287203336"><ele>53.0</ele><time>2026-04-23T07:53:43.001Z</time></trkpt><trkpt lat="-20.20623286427693" lon="119.61025599965791"><ele>53.0</ele><time>2026-04-23T07:53:44.001Z</time></trkpt><trkpt lat="-20.206029605612844" lon="119.61048166244993"><ele>53.0</ele><time>2026-04-23T07:53:45.001Z</time></trkpt><trkpt lat="-20.205825178133228" lon="119.61070778701476"><ele>53.0</ele><time>2026-04-23T07:53:46.001Z</time></trkpt><trkpt lat="-20.20562623910929" lon="119.61093293919932"><ele>52.0</ele><time>2026-04-23T07:53:47.001Z</time></trkpt><trkpt lat="-20.205429610110162" lon="119.61115886244228"><ele>51.0</ele><time>2026-04-23T07:53:48.001Z</time></trkpt><trkpt lat="-20.205231275774548" lon="119.61138527684598"><ele>51.0</ele><time>2026-04-23T07:53:49.001Z</time></trkpt><trkpt lat="-20.20503542351507" lon="119.61161051764934"><ele>51.0</ele><time>2026-04-23T07:53:50.001Z</time></trkpt><trkpt lat="-20.204843656780795" lon="119.61183655252309"><ele>51.5</ele><time>2026-04-23T07:53:51.001Z</time></trkpt><trkpt lat="-20.204649460577176" lon="119.61206903720529"><ele>52.0</ele><time>2026-04-23T07:53:52.002Z</time></trkpt><trkpt lat="-20.20445589572587" lon="119.61230214598642"><ele>52.0</ele><time>2026-04-23T07:53:53.002Z</time></trkpt><trkpt lat="-20.204266424703814" lon="119.61253541050263"><ele>52.0</ele><time>2026-04-23T07:53:54.002Z</time></trkpt><trkpt lat="-20.204075665431542" lon="119.61277273653576"><ele>51.0</ele><time>2026-04-23T07:53:55.002Z</time></trkpt><trkpt lat="-20.2038881033858" lon="119.61300951253668"><ele>50.0</ele><time>2026-04-23T07:53:56.002Z</time></trkpt><trkpt lat="-20.203699702715394" lon="119.61324632233777"><ele>50.0</ele><time>2026-04-23T07:53:57.002Z</time></trkpt><trkpt lat="-20.203513586363858" lon="119.61348394813017"><ele>50.0</ele><time>2026-04-23T07:53:58.002Z</time></trkpt><trkpt lat="-20.20332840842378" lon="119.61372356338535"><ele>51.0</ele><time>2026-04-23T07:53:59.002Z</time></trkpt><trkpt lat="-20.203148580853686" lon="119.61396306851391"><ele>52.0</ele><time>2026-04-23T07:54:00.002Z</time></trkpt><trkpt lat="-20.202970435518857" lon="119.61420319257304"><ele>52.0</ele><time>2026-04-23T07:54:01.002Z</time></trkpt><trkpt lat="-20.20279224727454" lon="119.61444147302366"><ele>52.0</ele><time>2026-04-23T07:54:02.002Z</time></trkpt><trkpt lat="-20.20261692955135" lon="119.61467894069965"><ele>51.5</ele><time>2026-04-23T07:54:03.002Z</time></trkpt><trkpt lat="-20.202445457733656" lon="119.61491953992949"><ele>51.0</ele><time>2026-04-23T07:54:04.002Z</time></trkpt><trkpt lat="-20.202276746472233" lon="119.61515607809702"><ele>52.0</ele><time>2026-04-23T07:54:05.002Z</time></trkpt><trkpt lat="-20.202110041347566" lon="119.6153928260899"><ele>53.0</ele><time>2026-04-23T07:54:06.002Z</time></trkpt><trkpt lat="-20.201944343103616" lon="119.61563155875307"><ele>53.0</ele><time>2026-04-23T07:54:07.002Z</time></trkpt><trkpt lat="-20.20177963190923" lon="119.61587376266172"><ele>53.0</ele><time>2026-04-23T07:54:08.002Z</time></trkpt><trkpt lat="-20.201613578722185" lon="119.61611961027036"><ele>52.0</ele><time>2026-04-23T07:54:09.002Z</time></trkpt><trkpt lat="-20.201451460833713" lon="119.61636460383974"><ele>51.0</ele><time>2026-04-23T07:54:10.002Z</time></trkpt><trkpt lat="-20.201292308954812" lon="119.61661260076193"><ele>51.0</ele><time>2026-04-23T07:54:11.002Z</time></trkpt><trkpt lat="-20.201134058321173" lon="119.61685548159788"><ele>51.0</ele><time>2026-04-23T07:54:12.002Z</time></trkpt><trkpt lat="-20.200971290119078" lon="119.61709288882383"><ele>51.0</ele><time>2026-04-23T07:54:13.002Z</time></trkpt><trkpt lat="-20.20080807788489" lon="119.6173255598177"><ele>51.0</ele><time>2026-04-23T07:54:14.002Z</time></trkpt><trkpt lat="-20.200643822465494" lon="119.61756282051059"><ele>51.0</ele><time>2026-04-23T07:54:15.002Z</time></trkpt><trkpt lat="-20.200483765744313" lon="119.61779920846215"><ele>51.0</ele><time>2026-04-23T07:54:16.002Z</time></trkpt><trkpt lat="-20.200324918946443" lon="119.61803583792882"><ele>51.0</ele><time>2026-04-23T07:54:17.002Z</time></trkpt><trkpt lat="-20.200168623972957" lon="119.61827075332675"><ele>51.0</ele><time>2026-04-23T07:54:18.002Z</time></trkpt><trkpt lat="-20.200020926346777" lon="119.61848923280344"><ele>50.5</ele><time>2026-04-23T07:54:19.002Z</time></trkpt><trkpt lat="-20.19987068156602" lon="119.61870994565129"><ele>50.0</ele><time>2026-04-23T07:54:20.002Z</time></trkpt><trkpt lat="-20.199719151899828" lon="119.61893372140112"><ele>49.5</ele><time>2026-04-23T07:54:21.002Z</time></trkpt><trkpt lat="-20.19956362486265" lon="119.61916228839678"><ele>49.0</ele><time>2026-04-23T07:54:22.002Z</time></trkpt><trkpt lat="-20.199406100811178" lon="119.61939401909079"><ele>49.0</ele><time>2026-04-23T07:54:23.002Z</time></trkpt><trkpt lat="-20.19924628875569" lon="119.61963429446638"><ele>49.0</ele><time>2026-04-23T07:54:24.002Z</time></trkpt><trkpt lat="-20.199083955079296" lon="119.6198820737243"><ele>49.5</ele><time>2026-04-23T07:54:25.002Z</time></trkpt><trkpt lat="-20.198918419660515" lon="119.62013235395958"><ele>50.0</ele><time>2026-04-23T07:54:26.002Z</time></trkpt><trkpt lat="-20.19875136072174" lon="119.62038402742428"><ele>51.0</ele><time>2026-04-23T07:54:27.002Z</time></trkpt><trkpt lat="-20.198582258172532" lon="119.62063579526564"><ele>52.0</ele><time>2026-04-23T07:54:28.002Z</time></trkpt><trkpt lat="-20.198412568274964" lon="119.62088662183582"><ele>52.0</ele><time>2026-04-23T07:54:29.001Z</time></trkpt><trkpt lat="-20.198242561191524" lon="119.62113785341509"><ele>52.0</ele><time>2026-04-23T07:54:30.001Z</time></trkpt><trkpt lat="-20.1980730504442" lon="119.62138743021868"><ele>51.0</ele><time>2026-04-23T07:54:31.001Z</time></trkpt><trkpt lat="-20.197907037106646" lon="119.62163671089863"><ele>50.0</ele><time>2026-04-23T07:54:32.001Z</time></trkpt><trkpt lat="-20.19774043936019" lon="119.62188788533085"><ele>49.5</ele><time>2026-04-23T07:54:33.001Z</time></trkpt><trkpt lat="-20.19757354403656" lon="119.6221387616517"><ele>49.0</ele><time>2026-04-23T07:54:34.001Z</time></trkpt><trkpt lat="-20.1974078406136" lon="119.62239155126395"><ele>49.5</ele><time>2026-04-23T07:54:35.001Z</time></trkpt><trkpt lat="-20.19723962700565" lon="119.62264385748475"><ele>50.0</ele><time>2026-04-23T07:54:36.001Z</time></trkpt><trkpt lat="-20.197071178373907" lon="119.62289313310899"><ele>50.0</ele><time>2026-04-23T07:54:37.001Z</time></trkpt><trkpt lat="-20.196903575020364" lon="119.62314104740217"><ele>50.0</ele><time>2026-04-23T07:54:38.001Z</time></trkpt><trkpt lat="-20.196734182986564" lon="119.62338627572538"><ele>50.0</ele><time>2026-04-23T07:54:39.001Z</time></trkpt><trkpt lat="-20.196562718656097" lon="119.62363651315935"><ele>50.0</ele><time>2026-04-23T07:54:40.001Z</time></trkpt><trkpt lat="-20.196394523051683" lon="119.62388793232277"><ele>50.0</ele><time>2026-04-23T07:54:41.001Z</time></trkpt><trkpt lat="-20.1962284061151" lon="119.62413846012858"><ele>50.0</ele><time>2026-04-23T07:54:42.001Z</time></trkpt><trkpt lat="-20.19606226653524" lon="119.62438868792243"><ele>49.5</ele><time>2026-04-23T07:54:43.001Z</time></trkpt><trkpt lat="-20.19589398357882" lon="119.62463850299412"><ele>49.0</ele><time>2026-04-23T07:54:44.001Z</time></trkpt><trkpt lat="-20.195726332418012" lon="119.624886800738"><ele>48.5</ele><time>2026-04-23T07:54:45.001Z</time></trkpt><trkpt lat="-20.19556137537829" lon="119.62513757867679"><ele>48.0</ele><time>2026-04-23T07:54:46.001Z</time></trkpt><trkpt lat="-20.19539618870365" lon="119.62539027137915"><ele>48.0</ele><time>2026-04-23T07:54:47.001Z</time></trkpt><trkpt lat="-20.195231274517145" lon="119.62564109053815"><ele>48.0</ele><time>2026-04-23T07:54:48.001Z</time></trkpt><trkpt lat="-20.195065676427937" lon="119.62589040132742"><ele>48.0</ele><time>2026-04-23T07:54:49.001Z</time></trkpt><trkpt lat="-20.194898218862022" lon="119.62613830808225"><ele>48.0</ele><time>2026-04-23T07:54:50.001Z</time></trkpt><trkpt lat="-20.19472945018613" lon="119.6263894973721"><ele>48.0</ele><time>2026-04-23T07:54:51.001Z</time></trkpt><trkpt lat="-20.194560632106093" lon="119.62664220753322"><ele>48.0</ele><time>2026-04-23T07:54:52.001Z</time></trkpt><trkpt lat="-20.194390882545648" lon="119.6268955276168"><ele>48.0</ele><time>2026-04-23T07:54:53.001Z</time></trkpt><trkpt lat="-20.19422197986809" lon="119.62714807638011"><ele>48.0</ele><time>2026-04-23T07:54:54.001Z</time></trkpt><trkpt lat="-20.194052288415847" lon="119.62739718176593"><ele>48.0</ele><time>2026-04-23T07:54:55.001Z</time></trkpt><trkpt lat="-20.19388137290625" lon="119.62764734129298"><ele>48.0</ele><time>2026-04-23T07:54:56.001Z</time></trkpt><trkpt lat="-20.193715632380513" lon="119.62789504124389"><ele>48.0</ele><time>2026-04-23T07:54:57.001Z</time></trkpt><trkpt lat="-20.193550465041614" lon="119.62813962216627"><ele>48.0</ele><time>2026-04-23T07:54:58.001Z</time></trkpt><trkpt lat="-20.193384131146082" lon="119.62838415350602"><ele>48.0</ele><time>2026-04-23T07:54:59.001Z</time></trkpt><trkpt lat="-20.193218944018835" lon="119.62862918071498"><ele>48.0</ele><time>2026-04-23T07:55:00.001Z</time></trkpt><trkpt lat="-20.19305403038423" lon="119.62887577648387"><ele>48.5</ele><time>2026-04-23T07:55:01.001Z</time></trkpt><trkpt lat="-20.19288981745937" lon="119.6291244691874"><ele>49.0</ele><time>2026-04-23T07:55:02.001Z</time></trkpt><trkpt lat="-20.192723797786194" lon="119.62937474791737"><ele>48.5</ele><time>2026-04-23T07:55:03.001Z</time></trkpt><trkpt lat="-20.192554858310228" lon="119.62962587025208"><ele>48.0</ele><time>2026-04-23T07:55:04.001Z</time></trkpt><trkpt lat="-20.19238444666595" lon="119.62987903795572"><ele>48.0</ele><time>2026-04-23T07:55:05.001Z</time></trkpt><trkpt lat="-20.19221392104281" lon="119.6301323994239"><ele>48.0</ele><time>2026-04-23T07:55:06.001Z</time></trkpt><trkpt lat="-20.192046553057978" lon="119.63038440760594"><ele>48.5</ele><time>2026-04-23T07:55:07.001Z</time></trkpt><trkpt lat="-20.19187887084948" lon="119.63063458208603"><ele>49.0</ele><time>2026-04-23T07:55:08.001Z</time></trkpt><trkpt lat="-20.191713381619568" lon="119.63088027688154"><ele>49.0</ele><time>2026-04-23T07:55:09.001Z</time></trkpt><trkpt lat="-20.19154633391108" lon="119.63112662055022"><ele>49.0</ele><time>2026-04-23T07:55:10.001Z</time></trkpt><trkpt lat="-20.191381354553638" lon="119.63137100321161"><ele>48.5</ele><time>2026-04-23T07:55:11.001Z</time></trkpt><trkpt lat="-20.19121739055427" lon="119.63161570771233"><ele>48.0</ele><time>2026-04-23T07:55:12.001Z</time></trkpt><trkpt lat="-20.191053292937323" lon="119.63186157342963"><ele>47.5</ele><time>2026-04-23T07:55:13.001Z</time></trkpt><trkpt lat="-20.190886706461182" lon="119.63211173910625"><ele>47.0</ele><time>2026-04-23T07:55:14.001Z</time></trkpt><trkpt lat="-20.190719894746767" lon="119.63236083111161"><ele>47.0</ele><time>2026-04-23T07:55:15.001Z</time></trkpt><trkpt lat="-20.19055082072208" lon="119.6326102680258"><ele>47.0</ele><time>2026-04-23T07:55:16.001Z</time></trkpt><trkpt lat="-20.190383474639635" lon="119.63285969232884"><ele>46.0</ele><time>2026-04-23T07:55:17.001Z</time></trkpt><trkpt lat="-20.190215698910823" lon="119.63311066116047"><ele>45.0</ele><time>2026-04-23T07:55:18.001Z</time></trkpt><trkpt lat="-20.19004609783143" lon="119.63336219051723"><ele>45.0</ele><time>2026-04-23T07:55:19.001Z</time></trkpt><trkpt lat="-20.18987620560911" lon="119.63361380615494"><ele>45.0</ele><time>2026-04-23T07:55:20.001Z</time></trkpt><trkpt lat="-20.189706225987326" lon="119.63386530884179"><ele>45.5</ele><time>2026-04-23T07:55:21.001Z</time></trkpt><trkpt lat="-20.1895385247775" lon="119.63411503847121"><ele>46.0</ele><time>2026-04-23T07:55:22.001Z</time></trkpt><trkpt lat="-20.18937255320564" lon="119.6343644766052"><ele>46.0</ele><time>2026-04-23T07:55:23.001Z</time></trkpt><trkpt lat="-20.189209463587467" lon="119.63461107739069"><ele>46.0</ele><time>2026-04-23T07:55:24.001Z</time></trkpt><trkpt lat="-20.189044027505386" lon="119.63485954966853"><ele>46.0</ele><time>2026-04-23T07:55:25.001Z</time></trkpt><trkpt lat="-20.18887825109804" lon="119.63510718137674"><ele>46.0</ele><time>2026-04-23T07:55:26.001Z</time></trkpt><trkpt lat="-20.188710199883463" lon="119.6353547503049"><ele>46.0</ele><time>2026-04-23T07:55:27.001Z</time></trkpt><trkpt lat="-20.188541822428807" lon="119.63560294688716"><ele>46.0</ele><time>2026-04-23T07:55:28.001Z</time></trkpt><trkpt lat="-20.188373389547575" lon="119.63585061989312"><ele>46.0</ele><time>2026-04-23T07:55:29.001Z</time></trkpt><trkpt lat="-20.18820956477265" lon="119.63609773657053"><ele>46.0</ele><time>2026-04-23T07:55:30.001Z</time></trkpt><trkpt lat="-20.18804446105584" lon="119.63634720488804"><ele>44.5</ele><time>2026-04-23T07:55:31.001Z</time></trkpt><trkpt lat="-20.1878795648033" lon="119.63659423227101"><ele>43.0</ele><time>2026-04-23T07:55:32.001Z</time></trkpt><trkpt lat="-20.187712493168814" lon="119.63684222555779"><ele>43.5</ele><time>2026-04-23T07:55:33.001Z</time></trkpt><trkpt lat="-20.187546774744035" lon="119.63709065898915"><ele>44.0</ele><time>2026-04-23T07:55:34.001Z</time></trkpt><trkpt lat="-20.187380259053647" lon="119.63733809114981"><ele>44.0</ele><time>2026-04-23T07:55:35.001Z</time></trkpt><trkpt lat="-20.187215133519846" lon="119.63758342396386"><ele>44.0</ele><time>2026-04-23T07:55:36.001Z</time></trkpt><trkpt lat="-20.18704801076696" lon="119.63783000297377"><ele>43.5</ele><time>2026-04-23T07:55:37.001Z</time></trkpt><trkpt lat="-20.186881250802298" lon="119.6380773917423"><ele>43.0</ele><time>2026-04-23T07:55:38.001Z</time></trkpt><trkpt lat="-20.186715011791858" lon="119.63832798220237"><ele>43.0</ele><time>2026-04-23T07:55:39.001Z</time></trkpt><trkpt lat="-20.186549757265137" lon="119.6385759649493"><ele>43.0</ele><time>2026-04-23T07:55:40.001Z</time></trkpt><trkpt lat="-20.18638432757953" lon="119.63882441931435"><ele>42.5</ele><time>2026-04-23T07:55:41.001Z</time></trkpt><trkpt lat="-20.186219531673874" lon="119.63907126474284"><ele>42.0</ele><time>2026-04-23T07:55:42.001Z</time></trkpt><trkpt lat="-20.186056232108825" lon="119.639316903888"><ele>43.5</ele><time>2026-04-23T07:55:43.001Z</time></trkpt><trkpt lat="-20.185891968975685" lon="119.63956089895376"><ele>45.0</ele><time>2026-04-23T07:55:44.001Z</time></trkpt><trkpt lat="-20.185726087276525" lon="119.6398052790918"><ele>44.0</ele><time>2026-04-23T07:55:45.001Z</time></trkpt><trkpt lat="-20.18555738262405" lon="119.64005086524617"><ele>43.0</ele><time>2026-04-23T07:55:46.001Z</time></trkpt><trkpt lat="-20.185387300956457" lon="119.64030083493971"><ele>42.0</ele><time>2026-04-23T07:55:47.001Z</time></trkpt><trkpt lat="-20.18521910968171" lon="119.64055220967087"><ele>41.0</ele><time>2026-04-23T07:55:48.001Z</time></trkpt><trkpt lat="-20.185053638926487" lon="119.64080358699124"><ele>41.0</ele><time>2026-04-23T07:55:49.001Z</time></trkpt><trkpt lat="-20.18488743846743" lon="119.64105484893595"><ele>41.0</ele><time>2026-04-23T07:55:50.001Z</time></trkpt><trkpt lat="-20.184725485355084" lon="119.64130106050315"><ele>41.0</ele><time>2026-04-23T07:55:51.001Z</time></trkpt><trkpt lat="-20.184561314824837" lon="119.64154556047963"><ele>41.0</ele><time>2026-04-23T07:55:52.001Z</time></trkpt><trkpt lat="-20.1843971644879" lon="119.64178725140766"><ele>41.0</ele><time>2026-04-23T07:55:53.001Z</time></trkpt><trkpt lat="-20.184233831154586" lon="119.6420316963415"><ele>41.0</ele><time>2026-04-23T07:55:54.001Z</time></trkpt><trkpt lat="-20.184067834042327" lon="119.64227318910955"><ele>41.0</ele><time>2026-04-23T07:55:55.001Z</time></trkpt><trkpt lat="-20.183899842453734" lon="119.6425104883252"><ele>41.0</ele><time>2026-04-23T07:55:56.001Z</time></trkpt><trkpt lat="-20.183735065450776" lon="119.6427480415939"><ele>40.5</ele><time>2026-04-23T07:55:57.001Z</time></trkpt><trkpt lat="-20.18357390495987" lon="119.64298585415675"><ele>40.0</ele><time>2026-04-23T07:55:58.001Z</time></trkpt><trkpt lat="-20.183419140991735" lon="119.64322295536398"><ele>40.0</ele><time>2026-04-23T07:55:59.001Z</time></trkpt><trkpt lat="-20.183263406188637" lon="119.64346304098818"><ele>40.0</ele><time>2026-04-23T07:56:00.001Z</time></trkpt><trkpt lat="-20.18310585701247" lon="119.64370278698186"><ele>40.0</ele><time>2026-04-23T07:56:01.001Z</time></trkpt><trkpt lat="-20.182946433072544" lon="119.6439412739044"><ele>40.0</ele><time>2026-04-23T07:56:02.001Z</time></trkpt><trkpt lat="-20.18278754513748" lon="119.64418219013818"><ele>40.0</ele><time>2026-04-23T07:56:03.001Z</time></trkpt><trkpt lat="-20.182626028400296" lon="119.6444195349851"><ele>40.0</ele><time>2026-04-23T07:56:04.002Z</time></trkpt><trkpt lat="-20.18246114503984" lon="119.6446547646371"><ele>40.5</ele><time>2026-04-23T07:56:05.002Z</time></trkpt><trkpt lat="-20.182297129523562" lon="119.6448928264138"><ele>41.0</ele><time>2026-04-23T07:56:06.002Z</time></trkpt><trkpt lat="-20.182135513606706" lon="119.64513125796802"><ele>40.0</ele><time>2026-04-23T07:56:07.002Z</time></trkpt><trkpt lat="-20.181972407321734" lon="119.64536958416657"><ele>39.0</ele><time>2026-04-23T07:56:08.002Z</time></trkpt><trkpt lat="-20.18180564208195" lon="119.64560817433794"><ele>39.0</ele><time>2026-04-23T07:56:09.002Z</time></trkpt><trkpt lat="-20.181632685624194" lon="119.6458475980209"><ele>39.0</ele><time>2026-04-23T07:56:10.002Z</time></trkpt><trkpt lat="-20.181460253976116" lon="119.64608907461312"><ele>39.5</ele><time>2026-04-23T07:56:11.002Z</time></trkpt><trkpt lat="-20.18129273220342" lon="119.64633227298204"><ele>40.0</ele><time>2026-04-23T07:56:12.002Z</time></trkpt><trkpt lat="-20.18112545346778" lon="119.64657818351827"><ele>40.0</ele><time>2026-04-23T07:56:13.002Z</time></trkpt><trkpt lat="-20.180956573293027" lon="119.64682194468116"><ele>40.0</ele><time>2026-04-23T07:56:14.002Z</time></trkpt><trkpt lat="-20.18078574375908" lon="119.64706089683206"><ele>39.5</ele><time>2026-04-23T07:56:15.002Z</time></trkpt><trkpt lat="-20.180615177930093" lon="119.64730121791317"><ele>39.0</ele><time>2026-04-23T07:56:16.002Z</time></trkpt><trkpt lat="-20.180440509149435" lon="119.64753919648653"><ele>39.0</ele><time>2026-04-23T07:56:17.002Z</time></trkpt><trkpt lat="-20.180263722149693" lon="119.64777314530016"><ele>39.0</ele><time>2026-04-23T07:56:18.002Z</time></trkpt><trkpt lat="-20.180083868526765" lon="119.64801036302421"><ele>38.5</ele><time>2026-04-23T07:56:19.002Z</time></trkpt><trkpt lat="-20.179905844344322" lon="119.64824899094197"><ele>38.0</ele><time>2026-04-23T07:56:20.002Z</time></trkpt><trkpt lat="-20.179727133822517" lon="119.64848646455032"><ele>38.5</ele><time>2026-04-23T07:56:21.002Z</time></trkpt><trkpt lat="-20.179548025719" lon="119.64872461890488"><ele>39.0</ele><time>2026-04-23T07:56:22.002Z</time></trkpt><trkpt lat="-20.17937027307494" lon="119.64896206079644"><ele>39.0</ele><time>2026-04-23T07:56:23.002Z</time></trkpt><trkpt lat="-20.17919289190706" lon="119.64919907845227"><ele>39.0</ele><time>2026-04-23T07:56:24.002Z</time></trkpt><trkpt lat="-20.1790187942731" lon="119.64943567222733"><ele>38.5</ele><time>2026-04-23T07:56:25.002Z</time></trkpt><trkpt lat="-20.17884614659912" lon="119.64966635866946"><ele>38.0</ele><time>2026-04-23T07:56:26.002Z</time></trkpt><trkpt lat="-20.178675921232006" lon="119.64989234912193"><ele>38.0</ele><time>2026-04-23T07:56:27.002Z</time></trkpt><trkpt lat="-20.178510992716188" lon="119.65011138202328"><ele>38.0</ele><time>2026-04-23T07:56:28.002Z</time></trkpt><trkpt lat="-20.178346338857914" lon="119.65032618747182"><ele>38.5</ele><time>2026-04-23T07:56:29.002Z</time></trkpt><trkpt lat="-20.17818395449478" lon="119.65053449023941"><ele>39.0</ele><time>2026-04-23T07:56:30.002Z</time></trkpt><trkpt lat="-20.178026040450167" lon="119.65073885241655"><ele>39.0</ele><time>2026-04-23T07:56:31.002Z</time></trkpt><trkpt lat="-20.177876786204497" lon="119.6509354749217"><ele>39.0</ele><time>2026-04-23T07:56:32.002Z</time></trkpt><trkpt lat="-20.177729977570305" lon="119.65112685795863"><ele>39.0</ele><time>2026-04-23T07:56:33.002Z</time></trkpt><trkpt lat="-20.17758645284769" lon="119.65131093908745"><ele>39.0</ele><time>2026-04-23T07:56:34.002Z</time></trkpt><trkpt lat="-20.177451533694526" lon="119.65148718124581"><ele>39.0</ele><time>2026-04-23T07:56:35.001Z</time></trkpt><trkpt lat="-20.177328281245067" lon="119.65164934562507"><ele>39.0</ele><time>2026-04-23T07:56:36.001Z</time></trkpt><trkpt lat="-20.177206814533573" lon="119.6518064755613"><ele>39.0</ele><time>2026-04-23T07:56:37.001Z</time></trkpt><trkpt lat="-20.177091761734378" lon="119.65194684412364"><ele>39.0</ele><time>2026-04-23T07:56:38.001Z</time></trkpt><trkpt lat="-20.176990636354866" lon="119.65207241391214"><ele>38.8</ele><time>2026-04-23T07:56:39.001Z</time></trkpt><trkpt lat="-20.176904425358487" lon="119.65218563211151"><ele>38.599999999999994</ele><time>2026-04-23T07:56:40.001Z</time></trkpt><trkpt lat="-20.176829986117347" lon="119.6522914793447"><ele>38.4</ele><time>2026-04-23T07:56:41.001Z</time></trkpt><trkpt lat="-20.176772128416157" lon="119.65237894320107"><ele>38.199999999999996</ele><time>2026-04-23T07:56:42.001Z</time></trkpt><trkpt lat="-20.17674113504974" lon="119.65243870254673"><ele>38.0</ele><time>2026-04-23T07:56:43.001Z</time></trkpt><trkpt lat="-20.176701174742334" lon="119.652510502747"><ele>38.0</ele><time>2026-04-23T07:56:48.001Z</time></trkpt><trkpt lat="-20.17663998135798" lon="119.65259117523982"><ele>38.0</ele><time>2026-04-23T07:56:51.001Z</time></trkpt><trkpt lat="-20.17653919412043" lon="119.65265476341422"><ele>38.0</ele><time>2026-04-23T07:56:53.001Z</time></trkpt><trkpt lat="-20.176479966990435" lon="119.65272615151379"><ele>38.0</ele><time>2026-04-23T07:56:54.001Z</time></trkpt><trkpt lat="-20.17641969473794" lon="119.65282147699145"><ele>38.0</ele><time>2026-04-23T07:56:55.001Z</time></trkpt><trkpt lat="-20.176352085734944" lon="119.65293977323863"><ele>38.0</ele><time>2026-04-23T07:56:56.001Z</time></trkpt><trkpt lat="-20.176274452560126" lon="119.65305582489401"><ele>38.0</ele><time>2026-04-23T07:56:57.001Z</time></trkpt><trkpt lat="-20.176177488029268" lon="119.65317884029606"><ele>38.0</ele><time>2026-04-23T07:56:58.001Z</time></trkpt><trkpt lat="-20.17606787535126" lon="119.65331825072143"><ele>38.0</ele><time>2026-04-23T07:56:59.001Z</time></trkpt><trkpt lat="-20.17594706398132" lon="119.65347415135037"><ele>38.0</ele><time>2026-04-23T07:57:00.001Z</time></trkpt><trkpt lat="-20.175823843835236" lon="119.65363315868083"><ele>38.0</ele><time>2026-04-23T07:57:01.001Z</time></trkpt><trkpt lat="-20.175693010867565" lon="119.6538073003207"><ele>38.0</ele><time>2026-04-23T07:57:02.001Z</time></trkpt><trkpt lat="-20.175551217699393" lon="119.65399658527541"><ele>38.0</ele><time>2026-04-23T07:57:03.001Z</time></trkpt><trkpt lat="-20.175401443906928" lon="119.65419711748373"><ele>38.0</ele><time>2026-04-23T07:57:04.001Z</time></trkpt><trkpt lat="-20.1752508132508" lon="119.65439694979392"><ele>38.0</ele><time>2026-04-23T07:57:05.001Z</time></trkpt><trkpt lat="-20.175099447780475" lon="119.6545981050779"><ele>38.0</ele><time>2026-04-23T07:57:06.001Z</time></trkpt><trkpt lat="-20.174936410208826" lon="119.65480334062036"><ele>38.0</ele><time>2026-04-23T07:57:07.001Z</time></trkpt><trkpt lat="-20.174770758226263" lon="119.65501411532367"><ele>38.0</ele><time>2026-04-23T07:57:08.001Z</time></trkpt><trkpt lat="-20.1746001305031" lon="119.65523153969622"><ele>38.0</ele><time>2026-04-23T07:57:09.001Z</time></trkpt><trkpt lat="-20.17443385207992" lon="119.65545146301736"><ele>38.5</ele><time>2026-04-23T07:57:10.001Z</time></trkpt><trkpt lat="-20.17427173853739" lon="119.65566673967447"><ele>39.0</ele><time>2026-04-23T07:57:11.001Z</time></trkpt><trkpt lat="-20.174109310198734" lon="119.65588399030818"><ele>39.5</ele><time>2026-04-23T07:57:12.001Z</time></trkpt><trkpt lat="-20.173948322955173" lon="119.65610042553072"><ele>40.0</ele><time>2026-04-23T07:57:13.001Z</time></trkpt><trkpt lat="-20.173787994674278" lon="119.65631741854823"><ele>40.0</ele><time>2026-04-23T07:57:14.001Z</time></trkpt><trkpt lat="-20.17362460874328" lon="119.65653449843363"><ele>40.0</ele><time>2026-04-23T07:57:15.001Z</time></trkpt><trkpt lat="-20.173460446678977" lon="119.65675007572742"><ele>39.5</ele><time>2026-04-23T07:57:16.001Z</time></trkpt><trkpt lat="-20.173296012949333" lon="119.65696413228456"><ele>39.0</ele><time>2026-04-23T07:57:17.001Z</time></trkpt><trkpt lat="-20.17312820627694" lon="119.65717956798312"><ele>39.0</ele><time>2026-04-23T07:57:18.001Z</time></trkpt><trkpt lat="-20.172959519981646" lon="119.657398137328"><ele>39.0</ele><time>2026-04-23T07:57:19.001Z</time></trkpt><trkpt lat="-20.172787636587113" lon="119.65762402255034"><ele>40.5</ele><time>2026-04-23T07:57:20.001Z</time></trkpt><trkpt lat="-20.172614871574698" lon="119.65785313964822"><ele>42.0</ele><time>2026-04-23T07:57:21.001Z</time></trkpt><trkpt lat="-20.172440331825037" lon="119.65808170753317"><ele>41.5</ele><time>2026-04-23T07:57:22.001Z</time></trkpt><trkpt lat="-20.172263379178656" lon="119.65831093631736"><ele>41.0</ele><time>2026-04-23T07:57:23.001Z</time></trkpt><trkpt lat="-20.172083448598055" lon="119.6585411734092"><ele>42.0</ele><time>2026-04-23T07:57:24.001Z</time></trkpt><trkpt lat="-20.17190397888269" lon="119.6587750563952"><ele>43.0</ele><time>2026-04-23T07:57:25.001Z</time></trkpt><trkpt lat="-20.171727058332834" lon="119.65900923625746"><ele>43.0</ele><time>2026-04-23T07:57:26.001Z</time></trkpt><trkpt lat="-20.171551446094547" lon="119.65924243568914"><ele>43.0</ele><time>2026-04-23T07:57:27.001Z</time></trkpt><trkpt lat="-20.1713742019736" lon="119.65947593337089"><ele>41.5</ele><time>2026-04-23T07:57:28.001Z</time></trkpt><trkpt lat="-20.17119794598738" lon="119.65970951902638"><ele>40.0</ele><time>2026-04-23T07:57:29.001Z</time></trkpt><trkpt lat="-20.171022326413226" lon="119.65994202433431"><ele>40.0</ele><time>2026-04-23T07:57:30.001Z</time></trkpt><trkpt lat="-20.170847441724614" lon="119.66017356382437"><ele>40.0</ele><time>2026-04-23T07:57:31.001Z</time></trkpt><trkpt lat="-20.170669048737356" lon="119.66040736325371"><ele>41.0</ele><time>2026-04-23T07:57:32.001Z</time></trkpt><trkpt lat="-20.170495435537322" lon="119.66063928526619"><ele>42.0</ele><time>2026-04-23T07:57:33.001Z</time></trkpt><trkpt lat="-20.170320855284544" lon="119.66087109903458"><ele>42.0</ele><time>2026-04-23T07:57:34.001Z</time></trkpt><trkpt lat="-20.170146245355916" lon="119.66110134110053"><ele>42.0</ele><time>2026-04-23T07:57:35.001Z</time></trkpt><trkpt lat="-20.16996999896072" lon="119.66132828754876"><ele>42.5</ele><time>2026-04-23T07:57:36.001Z</time></trkpt><trkpt lat="-20.169792198361183" lon="119.6615535237987"><ele>43.0</ele><time>2026-04-23T07:57:37.001Z</time></trkpt><trkpt lat="-20.1696161300105" lon="119.66178047590124"><ele>43.0</ele><time>2026-04-23T07:57:38.001Z</time></trkpt><trkpt lat="-20.16944207839005" lon="119.66200868605421"><ele>43.0</ele><time>2026-04-23T07:57:39.001Z</time></trkpt><trkpt lat="-20.16926682632446" lon="119.66224160164928"><ele>43.0</ele><time>2026-04-23T07:57:40.001Z</time></trkpt><trkpt lat="-20.169088928902795" lon="119.66247839813192"><ele>43.0</ele><time>2026-04-23T07:57:41.001Z</time></trkpt><trkpt lat="-20.16890960362904" lon="119.66271387393144"><ele>42.5</ele><time>2026-04-23T07:57:42.001Z</time></trkpt><trkpt lat="-20.168730580758183" lon="119.662947725364"><ele>42.0</ele><time>2026-04-23T07:57:43.001Z</time></trkpt><trkpt lat="-20.16854876438555" lon="119.66318199651067"><ele>42.0</ele><time>2026-04-23T07:57:44.001Z</time></trkpt><trkpt lat="-20.168367910472853" lon="119.66341523441928"><ele>42.0</ele><time>2026-04-23T07:57:45.001Z</time></trkpt><trkpt lat="-20.168187221217785" lon="119.66365059895612"><ele>43.5</ele><time>2026-04-23T07:57:46.001Z</time></trkpt><trkpt lat="-20.16801023246825" lon="119.66388806331801"><ele>45.0</ele><time>2026-04-23T07:57:47.001Z</time></trkpt><trkpt lat="-20.167836720417576" lon="119.66412274421194"><ele>45.0</ele><time>2026-04-23T07:57:48.001Z</time></trkpt><trkpt lat="-20.167659671824048" lon="119.66435793567577"><ele>45.0</ele><time>2026-04-23T07:57:49.001Z</time></trkpt><trkpt lat="-20.16748157185337" lon="119.6645896927833"><ele>44.5</ele><time>2026-04-23T07:57:50.001Z</time></trkpt><trkpt lat="-20.167302153891207" lon="119.66482237755012"><ele>44.0</ele><time>2026-04-23T07:57:51.001Z</time></trkpt><trkpt lat="-20.16712188411993" lon="119.66505953680793"><ele>44.0</ele><time>2026-04-23T07:57:52.001Z</time></trkpt><trkpt lat="-20.16694013164723" lon="119.66529546397062"><ele>44.0</ele><time>2026-04-23T07:57:53.001Z</time></trkpt><trkpt lat="-20.166756835888297" lon="119.66553280053954"><ele>44.0</ele><time>2026-04-23T07:57:54.001Z</time></trkpt><trkpt lat="-20.16657438295594" lon="119.66577103721075"><ele>44.0</ele><time>2026-04-23T07:57:55.001Z</time></trkpt><trkpt lat="-20.1663930645138" lon="119.66600834333951"><ele>44.0</ele><time>2026-04-23T07:57:56.001Z</time></trkpt><trkpt lat="-20.16621034694194" lon="119.66624852011302"><ele>44.0</ele><time>2026-04-23T07:57:57.001Z</time></trkpt><trkpt lat="-20.16602652581335" lon="119.66648696720831"><ele>44.0</ele><time>2026-04-23T07:57:58.001Z</time></trkpt><trkpt lat="-20.165846043218416" lon="119.6667262255393"><ele>44.0</ele><time>2026-04-23T07:57:59.001Z</time></trkpt><trkpt lat="-20.165664739879183" lon="119.6669657214845"><ele>45.5</ele><time>2026-04-23T07:58:00.001Z</time></trkpt><trkpt lat="-20.165484098802665" lon="119.66720269697996"><ele>47.0</ele><time>2026-04-23T07:58:01.001Z</time></trkpt><trkpt lat="-20.165303784904086" lon="119.66744155987652"><ele>47.0</ele><time>2026-04-23T07:58:02.001Z</time></trkpt><trkpt lat="-20.165123746046135" lon="119.6676763939269"><ele>47.0</ele><time>2026-04-23T07:58:03.001Z</time></trkpt><trkpt lat="-20.164942651933604" lon="119.66791285542237"><ele>47.0</ele><time>2026-04-23T07:58:04.001Z</time></trkpt><trkpt lat="-20.16476117061159" lon="119.66815062076242"><ele>47.0</ele><time>2026-04-23T07:58:05.001Z</time></trkpt><trkpt lat="-20.164582560860985" lon="119.6683880976889"><ele>46.5</ele><time>2026-04-23T07:58:06.001Z</time></trkpt><trkpt lat="-20.164404706966835" lon="119.66862663632577"><ele>46.0</ele><time>2026-04-23T07:58:07.001Z</time></trkpt><trkpt lat="-20.16422510240231" lon="119.66886465229301"><ele>46.0</ele><time>2026-04-23T07:58:08.001Z</time></trkpt><trkpt lat="-20.164047484975963" lon="119.6690998662015"><ele>46.0</ele><time>2026-04-23T07:58:09.001Z</time></trkpt><trkpt lat="-20.163869559285764" lon="119.66933319716968"><ele>46.5</ele><time>2026-04-23T07:58:10.001Z</time></trkpt><trkpt lat="-20.163691787738166" lon="119.66956552568581"><ele>47.0</ele><time>2026-04-23T07:58:11.001Z</time></trkpt><trkpt lat="-20.16351451915252" lon="119.66979909994993"><ele>47.0</ele><time>2026-04-23T07:58:12.001Z</time></trkpt><trkpt lat="-20.163337270175067" lon="119.67003221074931"><ele>47.0</ele><time>2026-04-23T07:58:13.001Z</time></trkpt><trkpt lat="-20.163159554399353" lon="119.6702643879331"><ele>46.5</ele><time>2026-04-23T07:58:14.001Z</time></trkpt><trkpt lat="-20.16297982227288" lon="119.67049551562118"><ele>46.0</ele><time>2026-04-23T07:58:15.001Z</time></trkpt><trkpt lat="-20.162801469762538" lon="119.67072723317169"><ele>46.0</ele><time>2026-04-23T07:58:16.001Z</time></trkpt><trkpt lat="-20.162623942821547" lon="119.67096103768624"><ele>46.0</ele><time>2026-04-23T07:58:17.001Z</time></trkpt><trkpt lat="-20.162443466436446" lon="119.67119744442704"><ele>45.5</ele><time>2026-04-23T07:58:18.001Z</time></trkpt><trkpt lat="-20.162261504348574" lon="119.67143351499374"><ele>45.0</ele><time>2026-04-23T07:58:19.001Z</time></trkpt><trkpt lat="-20.1620808361821" lon="119.67166974924207"><ele>45.0</ele><time>2026-04-23T07:58:20.001Z</time></trkpt><trkpt lat="-20.161900525286566" lon="119.67190679525085"><ele>45.0</ele><time>2026-04-23T07:58:21.001Z</time></trkpt><trkpt lat="-20.161722301312015" lon="119.67214206895449"><ele>45.0</ele><time>2026-04-23T07:58:22.001Z</time></trkpt><trkpt lat="-20.161543937045895" lon="119.67237601250244"><ele>45.0</ele><time>2026-04-23T07:58:23.001Z</time></trkpt><trkpt lat="-20.16136833726269" lon="119.67260788369995"><ele>44.5</ele><time>2026-04-23T07:58:24.002Z</time></trkpt><trkpt lat="-20.161193715510368" lon="119.67283913119714"><ele>44.0</ele><time>2026-04-23T07:58:25.002Z</time></trkpt><trkpt lat="-20.161018955258132" lon="119.6730691121797"><ele>44.0</ele><time>2026-04-23T07:58:26.002Z</time></trkpt><trkpt lat="-20.160843680170103" lon="119.67329511745065"><ele>44.0</ele><time>2026-04-23T07:58:27.002Z</time></trkpt><trkpt lat="-20.16066329151925" lon="119.67351774512778"><ele>44.5</ele><time>2026-04-23T07:58:28.002Z</time></trkpt><trkpt lat="-20.16048114669926" lon="119.67373774328708"><ele>45.0</ele><time>2026-04-23T07:58:29.002Z</time></trkpt><trkpt lat="-20.160291426133117" lon="119.67395441857987"><ele>45.0</ele><time>2026-04-23T07:58:30.002Z</time></trkpt><trkpt lat="-20.160094874611435" lon="119.67416731846087"><ele>45.0</ele><time>2026-04-23T07:58:31.002Z</time></trkpt><trkpt lat="-20.15989377805739" lon="119.67437529134686"><ele>44.5</ele><time>2026-04-23T07:58:32.002Z</time></trkpt><trkpt lat="-20.15969107470507" lon="119.67457934877906"><ele>44.0</ele><time>2026-04-23T07:58:33.002Z</time></trkpt><trkpt lat="-20.159487490570555" lon="119.67477856586436"><ele>44.0</ele><time>2026-04-23T07:58:34.002Z</time></trkpt><trkpt lat="-20.159284608726406" lon="119.67497353850949"><ele>44.0</ele><time>2026-04-23T07:58:35.002Z</time></trkpt><trkpt lat="-20.159079203041347" lon="119.675165645193"><ele>44.0</ele><time>2026-04-23T07:58:36.002Z</time></trkpt><trkpt lat="-20.15887156846901" lon="119.67535368264451"><ele>44.0</ele><time>2026-04-23T07:58:37.002Z</time></trkpt><trkpt lat="-20.158661538305157" lon="119.67553842155714"><ele>44.0</ele><time>2026-04-23T07:58:38.002Z</time></trkpt><trkpt lat="-20.158448575578205" lon="119.67572040059561"><ele>44.0</ele><time>2026-04-23T07:58:39.002Z</time></trkpt><trkpt lat="-20.158232570617134" lon="119.67589927815773"><ele>43.5</ele><time>2026-04-23T07:58:40.002Z</time></trkpt><trkpt lat="-20.158012250108946" lon="119.67607457894648"><ele>43.0</ele><time>2026-04-23T07:58:41Z</time></trkpt><trkpt lat="-20.157789339865268" lon="119.67624540321727"><ele>42.5</ele><time>2026-04-23T07:58:42Z</time></trkpt><trkpt lat="-20.157561331682565" lon="119.67641463585551"><ele>42.0</ele><time>2026-04-23T07:58:43Z</time></trkpt><trkpt lat="-20.157335082726853" lon="119.67658126139781"><ele>41.0</ele><time>2026-04-23T07:58:44Z</time></trkpt><trkpt lat="-20.157111845350432" lon="119.67675135294431"><ele>40.0</ele><time>2026-04-23T07:58:45Z</time></trkpt><trkpt lat="-20.156892721360563" lon="119.67692460101452"><ele>40.0</ele><time>2026-04-23T07:58:46Z</time></trkpt><trkpt lat="-20.156672965370465" lon="119.67709796374236"><ele>40.0</ele><time>2026-04-23T07:58:47Z</time></trkpt><trkpt lat="-20.156454244515153" lon="119.67727042618525"><ele>40.5</ele><time>2026-04-23T07:58:48Z</time></trkpt><trkpt lat="-20.15623140051756" lon="119.67744491259437"><ele>41.0</ele><time>2026-04-23T07:58:49Z</time></trkpt><trkpt lat="-20.156007852498924" lon="119.67761787719846"><ele>41.0</ele><time>2026-04-23T07:58:50Z</time></trkpt><trkpt lat="-20.155782385798123" lon="119.67779087858604"><ele>41.0</ele><time>2026-04-23T07:58:51Z</time></trkpt><trkpt lat="-20.155554659759904" lon="119.67796674268877"><ele>40.0</ele><time>2026-04-23T07:58:52Z</time></trkpt><trkpt lat="-20.155321922790506" lon="119.6781453889964"><ele>39.0</ele><time>2026-04-23T07:58:53Z</time></trkpt><trkpt lat="-20.15508902876843" lon="119.67832516413024"><ele>39.0</ele><time>2026-04-23T07:58:54Z</time></trkpt><trkpt lat="-20.154858086390973" lon="119.67850501250048"><ele>39.0</ele><time>2026-04-23T07:58:55Z</time></trkpt><trkpt lat="-20.154641087132447" lon="119.6786745606462"><ele>39.0</ele><time>2026-04-23T07:58:56Z</time></trkpt><trkpt lat="-20.15443653971063" lon="119.67883526029414"><ele>39.0</ele><time>2026-04-23T07:58:57Z</time></trkpt><trkpt lat="-20.154228633869174" lon="119.67899700772125"><ele>39.0</ele><time>2026-04-23T07:58:58Z</time></trkpt><trkpt lat="-20.154015163389985" lon="119.67916247662488"><ele>39.0</ele><time>2026-04-23T07:58:59Z</time></trkpt><trkpt lat="-20.15379967890361" lon="119.67932768341404"><ele>38.5</ele><time>2026-04-23T07:59:00Z</time></trkpt><trkpt lat="-20.153580308952986" lon="119.67949400815104"><ele>38.0</ele><time>2026-04-23T07:59:01Z</time></trkpt><trkpt lat="-20.153360414949073" lon="119.67966484713064"><ele>38.0</ele><time>2026-04-23T07:59:02Z</time></trkpt><trkpt lat="-20.153143012130858" lon="119.67983918670025"><ele>38.0</ele><time>2026-04-23T07:59:03Z</time></trkpt><trkpt lat="-20.152923654010692" lon="119.6800154891087"><ele>38.0</ele><time>2026-04-23T07:59:04Z</time></trkpt><trkpt lat="-20.152700937790463" lon="119.68018899025233"><ele>38.0</ele><time>2026-04-23T07:59:05Z</time></trkpt><trkpt lat="-20.15247211403918" lon="119.68036102512049"><ele>37.0</ele><time>2026-04-23T07:59:06Z</time></trkpt><trkpt lat="-20.15224176280715" lon="119.6805355854996"><ele>36.0</ele><time>2026-04-23T07:59:07Z</time></trkpt><trkpt lat="-20.152011155011706" lon="119.68070970271383"><ele>36.0</ele><time>2026-04-23T07:59:08Z</time></trkpt><trkpt lat="-20.151783018761368" lon="119.6808864671798"><ele>36.0</ele><time>2026-04-23T07:59:09Z</time></trkpt><trkpt lat="-20.151556058521667" lon="119.68106542088468"><ele>36.5</ele><time>2026-04-23T07:59:10Z</time></trkpt><trkpt lat="-20.151329911696" lon="119.68124490422169"><ele>37.0</ele><time>2026-04-23T07:59:11Z</time></trkpt><trkpt lat="-20.151102975490666" lon="119.68142240532985"><ele>37.0</ele><time>2026-04-23T07:59:12Z</time></trkpt><trkpt lat="-20.150879656407582" lon="119.68159691722127"><ele>37.0</ele><time>2026-04-23T07:59:13Z</time></trkpt><trkpt lat="-20.15065464686076" lon="119.68177058530597"><ele>36.0</ele><time>2026-04-23T07:59:14Z</time></trkpt><trkpt lat="-20.150431602081724" lon="119.68194432397887"><ele>35.0</ele><time>2026-04-23T07:59:15Z</time></trkpt><trkpt lat="-20.15020914519263" lon="119.6821162442794"><ele>35.0</ele><time>2026-04-23T07:59:16Z</time></trkpt><trkpt lat="-20.14998773332679" lon="119.6822883642342"><ele>35.0</ele><time>2026-04-23T07:59:17Z</time></trkpt><trkpt lat="-20.14976436385997" lon="119.68246239477004"><ele>35.0</ele><time>2026-04-23T07:59:18Z</time></trkpt><trkpt lat="-20.149541269096947" lon="119.6826373636845"><ele>35.0</ele><time>2026-04-23T07:59:19.001Z</time></trkpt><trkpt lat="-20.149317629165708" lon="119.6828117527997"><ele>35.5</ele><time>2026-04-23T07:59:20Z</time></trkpt><trkpt lat="-20.14909141435905" lon="119.68299028825484"><ele>36.0</ele><time>2026-04-23T07:59:21Z</time></trkpt><trkpt lat="-20.148864170445382" lon="119.68316803253369"><ele>35.0</ele><time>2026-04-23T07:59:22.001Z</time></trkpt><trkpt lat="-20.148637813631968" lon="119.68334419851074"><ele>34.0</ele><time>2026-04-23T07:59:23.001Z</time></trkpt><trkpt lat="-20.14841333349191" lon="119.68351862450001"><ele>33.5</ele><time>2026-04-23T07:59:24.001Z</time></trkpt><trkpt lat="-20.14818949667234" lon="119.6836918479416"><ele>33.0</ele><time>2026-04-23T07:59:25.001Z</time></trkpt><trkpt lat="-20.147967240857866" lon="119.68386589406474"><ele>33.0</ele><time>2026-04-23T07:59:26.001Z</time></trkpt><trkpt lat="-20.14774384770437" lon="119.68403896226353"><ele>33.0</ele><time>2026-04-23T07:59:27.001Z</time></trkpt><trkpt lat="-20.1475203627216" lon="119.68421141163898"><ele>33.0</ele><time>2026-04-23T07:59:28.001Z</time></trkpt><trkpt lat="-20.147295299599943" lon="119.68438600063797"><ele>33.0</ele><time>2026-04-23T07:59:29.001Z</time></trkpt><trkpt lat="-20.14707117878161" lon="119.68456232840778"><ele>33.0</ele><time>2026-04-23T07:59:30.001Z</time></trkpt><trkpt lat="-20.146845502398786" lon="119.6847406355719"><ele>33.0</ele><time>2026-04-23T07:59:31.001Z</time></trkpt><trkpt lat="-20.146626577472095" lon="119.6849195219222"><ele>32.5</ele><time>2026-04-23T07:59:32.001Z</time></trkpt><trkpt lat="-20.14640594557338" lon="119.68509828398072"><ele>32.0</ele><time>2026-04-23T07:59:33.001Z</time></trkpt><trkpt lat="-20.14618602548152" lon="119.68527219811463"><ele>32.0</ele><time>2026-04-23T07:59:34.001Z</time></trkpt><trkpt lat="-20.145963345935886" lon="119.68544051400691"><ele>32.0</ele><time>2026-04-23T07:59:35.001Z</time></trkpt><trkpt lat="-20.145740878415307" lon="119.68560419463924"><ele>32.0</ele><time>2026-04-23T07:59:36.001Z</time></trkpt><trkpt lat="-20.145517716981352" lon="119.68577320141642"><ele>32.0</ele><time>2026-04-23T07:59:37.001Z</time></trkpt><trkpt lat="-20.145298904136656" lon="119.68594206755259"><ele>31.5</ele><time>2026-04-23T07:59:38.001Z</time></trkpt><trkpt lat="-20.14507980173098" lon="119.68611162923796"><ele>31.0</ele><time>2026-04-23T07:59:39.001Z</time></trkpt><trkpt lat="-20.144860659951988" lon="119.68627979377302"><ele>30.5</ele><time>2026-04-23T07:59:40.001Z</time></trkpt><trkpt lat="-20.144641200706282" lon="119.68644897175251"><ele>30.0</ele><time>2026-04-23T07:59:41.001Z</time></trkpt><trkpt lat="-20.144423725417994" lon="119.68661723469897"><ele>30.0</ele><time>2026-04-23T07:59:42.001Z</time></trkpt><trkpt lat="-20.144207590924065" lon="119.68678716320154"><ele>30.0</ele><time>2026-04-23T07:59:43.001Z</time></trkpt><trkpt lat="-20.143990799213743" lon="119.68695707659637"><ele>30.0</ele><time>2026-04-23T07:59:44.001Z</time></trkpt><trkpt lat="-20.143770709406695" lon="119.68712665567026"><ele>30.0</ele><time>2026-04-23T07:59:45.001Z</time></trkpt><trkpt lat="-20.143549642935064" lon="119.68729451147634"><ele>30.0</ele><time>2026-04-23T07:59:46.001Z</time></trkpt><trkpt lat="-20.143328203821522" lon="119.6874672457574"><ele>30.0</ele><time>2026-04-23T07:59:47.001Z</time></trkpt><trkpt lat="-20.143107160799183" lon="119.68764065747743"><ele>30.0</ele><time>2026-04-23T07:59:48.001Z</time></trkpt><trkpt lat="-20.142884346906552" lon="119.68781548156893"><ele>30.0</ele><time>2026-04-23T07:59:49.001Z</time></trkpt><trkpt lat="-20.142661812127862" lon="119.68799063605194"><ele>30.0</ele><time>2026-04-23T07:59:50.001Z</time></trkpt><trkpt lat="-20.142436898427132" lon="119.68816476622031"><ele>30.0</ele><time>2026-04-23T07:59:51.001Z</time></trkpt><trkpt lat="-20.14221231731459" lon="119.68833829060868"><ele>30.0</ele><time>2026-04-23T07:59:52.001Z</time></trkpt><trkpt lat="-20.141986794766783" lon="119.68851335544669"><ele>30.0</ele><time>2026-04-23T07:59:53.001Z</time></trkpt><trkpt lat="-20.141763296658386" lon="119.6886864555175"><ele>29.5</ele><time>2026-04-23T07:59:54.001Z</time></trkpt><trkpt lat="-20.141539959946407" lon="119.68886046531831"><ele>29.0</ele><time>2026-04-23T07:59:55.001Z</time></trkpt><trkpt lat="-20.14131742356829" lon="119.68903368869752"><ele>29.0</ele><time>2026-04-23T07:59:56.001Z</time></trkpt><trkpt lat="-20.14109493011982" lon="119.68920594570022"><ele>29.0</ele><time>2026-04-23T07:59:57.001Z</time></trkpt><trkpt lat="-20.140873220642348" lon="119.68937647044923"><ele>28.5</ele><time>2026-04-23T07:59:58.001Z</time></trkpt><trkpt lat="-20.140651439042973" lon="119.68954676244778"><ele>28.0</ele><time>2026-04-23T07:59:59.001Z</time></trkpt><trkpt lat="-20.14042844115614" lon="119.68971626181408"><ele>28.0</ele><time>2026-04-23T08:00:00.001Z</time></trkpt><trkpt lat="-20.140205787329492" lon="119.68988741987133"><ele>28.0</ele><time>2026-04-23T08:00:01.001Z</time></trkpt><trkpt lat="-20.139981540941434" lon="119.69005875250556"><ele>27.5</ele><time>2026-04-23T08:00:02.001Z</time></trkpt><trkpt lat="-20.139757947286416" lon="119.69023033939824"><ele>27.0</ele><time>2026-04-23T08:00:03.001Z</time></trkpt><trkpt lat="-20.139536294909067" lon="119.69040022129738"><ele>27.0</ele><time>2026-04-23T08:00:04.001Z</time></trkpt><trkpt lat="-20.13931259265508" lon="119.69057292627961"><ele>27.0</ele><time>2026-04-23T08:00:05.001Z</time></trkpt><trkpt lat="-20.139090963070327" lon="119.69074309757687"><ele>27.0</ele><time>2026-04-23T08:00:06.001Z</time></trkpt><trkpt lat="-20.13887171640802" lon="119.69091385300146"><ele>27.0</ele><time>2026-04-23T08:00:07.001Z</time></trkpt><trkpt lat="-20.13865274421242" lon="119.69108640928927"><ele>27.5</ele><time>2026-04-23T08:00:08.001Z</time></trkpt><trkpt lat="-20.138435325008754" lon="119.69125872491713"><ele>28.0</ele><time>2026-04-23T08:00:09.001Z</time></trkpt><trkpt lat="-20.13821413049526" lon="119.69143273954957"><ele>28.5</ele><time>2026-04-23T08:00:10.001Z</time></trkpt><trkpt lat="-20.13799196369351" lon="119.69160797602122"><ele>29.0</ele><time>2026-04-23T08:00:11.001Z</time></trkpt><trkpt lat="-20.137765838304514" lon="119.69178403610829"><ele>27.5</ele><time>2026-04-23T08:00:12.001Z</time></trkpt><trkpt lat="-20.137540135194534" lon="119.69195718012313"><ele>26.0</ele><time>2026-04-23T08:00:13.001Z</time></trkpt><trkpt lat="-20.137313853714517" lon="119.69213136713729"><ele>26.0</ele><time>2026-04-23T08:00:14.001Z</time></trkpt><trkpt lat="-20.13708888699172" lon="119.69230361973811"><ele>26.0</ele><time>2026-04-23T08:00:15.001Z</time></trkpt><trkpt lat="-20.136863878541924" lon="119.69247693482141"><ele>26.0</ele><time>2026-04-23T08:00:16.001Z</time></trkpt><trkpt lat="-20.136640159502992" lon="119.69264782507717"><ele>26.0</ele><time>2026-04-23T08:00:17.001Z</time></trkpt><trkpt lat="-20.136418429620925" lon="119.69282330607516"><ele>26.0</ele><time>2026-04-23T08:00:18.001Z</time></trkpt><trkpt lat="-20.136200740030265" lon="119.69299661983436"><ele>26.0</ele><time>2026-04-23T08:00:19.001Z</time></trkpt><trkpt lat="-20.135983862264858" lon="119.6931691014561"><ele>26.0</ele><time>2026-04-23T08:00:20.001Z</time></trkpt><trkpt lat="-20.13576739684348" lon="119.6933391377124"><ele>26.0</ele><time>2026-04-23T08:00:21.001Z</time></trkpt><trkpt lat="-20.135552720427267" lon="119.69350587186368"><ele>27.0</ele><time>2026-04-23T08:00:22.001Z</time></trkpt><trkpt lat="-20.135338101872616" lon="119.69366917218214"><ele>28.0</ele><time>2026-04-23T08:00:23.001Z</time></trkpt><trkpt lat="-20.13511950860605" lon="119.69383435949746"><ele>28.0</ele><time>2026-04-23T08:00:24.001Z</time></trkpt><trkpt lat="-20.134903117756725" lon="119.69399667128089"><ele>28.0</ele><time>2026-04-23T08:00:25.001Z</time></trkpt><trkpt lat="-20.134691973157516" lon="119.69416057979852"><ele>27.5</ele><time>2026-04-23T08:00:26.001Z</time></trkpt><trkpt lat="-20.13448280468342" lon="119.69432697171833"><ele>27.0</ele><time>2026-04-23T08:00:27.001Z</time></trkpt><trkpt lat="-20.13427300679393" lon="119.69449519048662"><ele>27.0</ele><time>2026-04-23T08:00:28.001Z</time></trkpt><trkpt lat="-20.134062260311353" lon="119.69465972676667"><ele>27.0</ele><time>2026-04-23T08:00:29.001Z</time></trkpt><trkpt lat="-20.133847717158993" lon="119.6948249031127"><ele>26.0</ele><time>2026-04-23T08:00:30.001Z</time></trkpt><trkpt lat="-20.13363609028977" lon="119.69498755900771"><ele>25.0</ele><time>2026-04-23T08:00:31.001Z</time></trkpt><trkpt lat="-20.133425654010658" lon="119.69515131885414"><ele>25.5</ele><time>2026-04-23T08:00:32.001Z</time></trkpt><trkpt lat="-20.133214963461214" lon="119.69531579547574"><ele>26.0</ele><time>2026-04-23T08:00:33.001Z</time></trkpt><trkpt lat="-20.133001088787346" lon="119.69548117175337"><ele>26.0</ele><time>2026-04-23T08:00:34.001Z</time></trkpt><trkpt lat="-20.13280203285859" lon="119.69563298851445"><ele>26.0</ele><time>2026-04-23T08:00:35.001Z</time></trkpt><trkpt lat="-20.13261483842406" lon="119.69577744042182"><ele>26.0</ele><time>2026-04-23T08:00:36.001Z</time></trkpt><trkpt lat="-20.13242630375408" lon="119.69592605454616"><ele>26.0</ele><time>2026-04-23T08:00:37.001Z</time></trkpt><trkpt lat="-20.13224158917872" lon="119.69608144724882"><ele>25.5</ele><time>2026-04-23T08:00:38.001Z</time></trkpt><trkpt lat="-20.132056872593886" lon="119.69624905435472"><ele>25.0</ele><time>2026-04-23T08:00:39.001Z</time></trkpt><trkpt lat="-20.13187337714149" lon="119.69642528335716"><ele>25.0</ele><time>2026-04-23T08:00:40.001Z</time></trkpt><trkpt lat="-20.13168635258193" lon="119.69660444031929"><ele>25.0</ele><time>2026-04-23T08:00:41.001Z</time></trkpt><trkpt lat="-20.131492326604736" lon="119.6967795136393"><ele>25.5</ele><time>2026-04-23T08:00:42.001Z</time></trkpt><trkpt lat="-20.131296828788493" lon="119.69695731224672"><ele>26.0</ele><time>2026-04-23T08:00:43.001Z</time></trkpt><trkpt lat="-20.13110905688054" lon="119.69714183338868"><ele>26.0</ele><time>2026-04-23T08:00:44.001Z</time></trkpt><trkpt lat="-20.13092887243409" lon="119.69734023580968"><ele>26.0</ele><time>2026-04-23T08:00:45.001Z</time></trkpt><trkpt lat="-20.130751208162923" lon="119.69754114059279"><ele>26.5</ele><time>2026-04-23T08:00:46.001Z</time></trkpt><trkpt lat="-20.13057606856222" lon="119.69774653279605"><ele>27.0</ele><time>2026-04-23T08:00:47Z</time></trkpt><trkpt lat="-20.13040257876371" lon="119.69794997875626"><ele>27.0</ele><time>2026-04-23T08:00:48Z</time></trkpt><trkpt lat="-20.130226313464025" lon="119.69815862763781"><ele>27.0</ele><time>2026-04-23T08:00:49Z</time></trkpt><trkpt lat="-20.130050974360802" lon="119.6983736960245"><ele>26.5</ele><time>2026-04-23T08:00:50Z</time></trkpt><trkpt lat="-20.129884280596183" lon="119.69858936624256"><ele>26.0</ele><time>2026-04-23T08:00:51Z</time></trkpt><trkpt lat="-20.12972095232461" lon="119.69880991926186"><ele>26.0</ele><time>2026-04-23T08:00:52Z</time></trkpt><trkpt lat="-20.129559710709177" lon="119.69903387669295"><ele>26.0</ele><time>2026-04-23T08:00:53Z</time></trkpt><trkpt lat="-20.12939770999368" lon="119.69925692952425"><ele>25.5</ele><time>2026-04-23T08:00:54Z</time></trkpt><trkpt lat="-20.129233963208097" lon="119.6994802706632"><ele>25.0</ele><time>2026-04-23T08:00:55Z</time></trkpt><trkpt lat="-20.12907171974924" lon="119.69970072356843"><ele>25.0</ele><time>2026-04-23T08:00:56Z</time></trkpt><trkpt lat="-20.12890738189149" lon="119.69992306361125"><ele>25.0</ele><time>2026-04-23T08:00:57Z</time></trkpt><trkpt lat="-20.12874013761666" lon="119.70014452596405"><ele>26.0</ele><time>2026-04-23T08:00:58Z</time></trkpt><trkpt lat="-20.12857177556292" lon="119.70036593723886"><ele>27.0</ele><time>2026-04-23T08:00:59Z</time></trkpt><trkpt lat="-20.12840481318721" lon="119.70058854243015"><ele>27.0</ele><time>2026-04-23T08:01:00Z</time></trkpt><trkpt lat="-20.128237715391702" lon="119.70081467506509"><ele>27.0</ele><time>2026-04-23T08:01:01Z</time></trkpt><trkpt lat="-20.12807063937154" lon="119.70104276276341"><ele>26.0</ele><time>2026-04-23T08:01:02Z</time></trkpt><trkpt lat="-20.127901941942635" lon="119.70127385975884"><ele>25.0</ele><time>2026-04-23T08:01:03Z</time></trkpt><trkpt lat="-20.1277343862564" lon="119.70150542898472"><ele>25.0</ele><time>2026-04-23T08:01:04Z</time></trkpt><trkpt lat="-20.127564174992084" lon="119.7017346236657"><ele>25.0</ele><time>2026-04-23T08:01:05Z</time></trkpt><trkpt lat="-20.127391847266235" lon="119.701967572884"><ele>25.0</ele><time>2026-04-23T08:01:06Z</time></trkpt><trkpt lat="-20.127220627260463" lon="119.70219878088866"><ele>25.0</ele><time>2026-04-23T08:01:07Z</time></trkpt><trkpt lat="-20.127050115305277" lon="119.70243175164653"><ele>25.0</ele><time>2026-04-23T08:01:08Z</time></trkpt><trkpt lat="-20.126879944034226" lon="119.7026681733327"><ele>25.0</ele><time>2026-04-23T08:01:09Z</time></trkpt><trkpt lat="-20.126709352015563" lon="119.7029035476477"><ele>24.5</ele><time>2026-04-23T08:01:10Z</time></trkpt><trkpt lat="-20.126539088001675" lon="119.70313371066477"><ele>24.0</ele><time>2026-04-23T08:01:11Z</time></trkpt><trkpt lat="-20.12636706384318" lon="119.70336502421536"><ele>24.5</ele><time>2026-04-23T08:01:12Z</time></trkpt><trkpt lat="-20.126193217012833" lon="119.7035948701779"><ele>25.0</ele><time>2026-04-23T08:01:13Z</time></trkpt><trkpt lat="-20.126019574496823" lon="119.70382749047093"><ele>25.0</ele><time>2026-04-23T08:01:14Z</time></trkpt><trkpt lat="-20.1258475448835" lon="119.70405915434598"><ele>25.0</ele><time>2026-04-23T08:01:15Z</time></trkpt><trkpt lat="-20.125674309117777" lon="119.70429312036705"><ele>25.0</ele><time>2026-04-23T08:01:16Z</time></trkpt><trkpt lat="-20.12550050264114" lon="119.70452939195086"><ele>25.0</ele><time>2026-04-23T08:01:17Z</time></trkpt><trkpt lat="-20.125325617017243" lon="119.70476435713249"><ele>25.0</ele><time>2026-04-23T08:01:18Z</time></trkpt><trkpt lat="-20.125148798721124" lon="119.70499989627403"><ele>25.0</ele><time>2026-04-23T08:01:19Z</time></trkpt><trkpt lat="-20.12497368157063" lon="119.70523188852798"><ele>25.0</ele><time>2026-04-23T08:01:20Z</time></trkpt><trkpt lat="-20.124800831518083" lon="119.70546320120978"><ele>25.0</ele><time>2026-04-23T08:01:21Z</time></trkpt><trkpt lat="-20.12462851983403" lon="119.70569476777398"><ele>25.0</ele><time>2026-04-23T08:01:22Z</time></trkpt><trkpt lat="-20.124458593234586" lon="119.70592727905094"><ele>25.0</ele><time>2026-04-23T08:01:23Z</time></trkpt><trkpt lat="-20.124286915580708" lon="119.7061612714626"><ele>24.0</ele><time>2026-04-23T08:01:24Z</time></trkpt><trkpt lat="-20.124115827110124" lon="119.70639428729281"><ele>23.0</ele><time>2026-04-23T08:01:25Z</time></trkpt><trkpt lat="-20.123943702472502" lon="119.70662616752287"><ele>23.0</ele><time>2026-04-23T08:01:26Z</time></trkpt><trkpt lat="-20.12376933125727" lon="119.7068609531962"><ele>23.0</ele><time>2026-04-23T08:01:27Z</time></trkpt><trkpt lat="-20.123596565217987" lon="119.7070962709038"><ele>23.5</ele><time>2026-04-23T08:01:28Z</time></trkpt><trkpt lat="-20.123424345563194" lon="119.70733429094051"><ele>24.0</ele><time>2026-04-23T08:01:29Z</time></trkpt><trkpt lat="-20.123251933343855" lon="119.7075721109895"><ele>24.5</ele><time>2026-04-23T08:01:30Z</time></trkpt><trkpt lat="-20.123079308798538" lon="119.70780576932422"><ele>25.0</ele><time>2026-04-23T08:01:31Z</time></trkpt><trkpt lat="-20.12290500868095" lon="119.70803867588543"><ele>25.0</ele><time>2026-04-23T08:01:32Z</time></trkpt><trkpt lat="-20.122729998090872" lon="119.70827160007487"><ele>25.0</ele><time>2026-04-23T08:01:33Z</time></trkpt><trkpt lat="-20.122556506890266" lon="119.70850475582311"><ele>24.5</ele><time>2026-04-23T08:01:34Z</time></trkpt><trkpt lat="-20.122382699446867" lon="119.70873981931112"><ele>24.0</ele><time>2026-04-23T08:01:35Z</time></trkpt><trkpt lat="-20.122207299865952" lon="119.70897914844215"><ele>24.0</ele><time>2026-04-23T08:01:36Z</time></trkpt><trkpt lat="-20.12203052570674" lon="119.70922113478784"><ele>24.0</ele><time>2026-04-23T08:01:37Z</time></trkpt><trkpt lat="-20.121853484288717" lon="119.70946393719257"><ele>24.0</ele><time>2026-04-23T08:01:38Z</time></trkpt><trkpt lat="-20.121675388322615" lon="119.70970640401812"><ele>24.0</ele><time>2026-04-23T08:01:39Z</time></trkpt><trkpt lat="-20.12149712305683" lon="119.7099496518754"><ele>24.0</ele><time>2026-04-23T08:01:40Z</time></trkpt><trkpt lat="-20.121314618156784" lon="119.71019493947954"><ele>24.0</ele><time>2026-04-23T08:01:41Z</time></trkpt><trkpt lat="-20.12112982824504" lon="119.71044047295692"><ele>24.0</ele><time>2026-04-23T08:01:42Z</time></trkpt><trkpt lat="-20.1209475456023" lon="119.710687622095"><ele>24.0</ele><time>2026-04-23T08:01:43Z</time></trkpt><trkpt lat="-20.120767161824766" lon="119.71093298161253"><ele>24.0</ele><time>2026-04-23T08:01:44Z</time></trkpt><trkpt lat="-20.120589684602542" lon="119.7111805715128"><ele>24.0</ele><time>2026-04-23T08:01:45Z</time></trkpt><trkpt lat="-20.12041085821231" lon="119.71142655094474"><ele>24.0</ele><time>2026-04-23T08:01:46Z</time></trkpt><trkpt lat="-20.12023166936343" lon="119.71167070727398"><ele>24.0</ele><time>2026-04-23T08:01:47Z</time></trkpt><trkpt lat="-20.120050099628997" lon="119.71191435885261"><ele>23.5</ele><time>2026-04-23T08:01:48Z</time></trkpt><trkpt lat="-20.119868074020207" lon="119.71215401605262"><ele>23.0</ele><time>2026-04-23T08:01:49Z</time></trkpt><trkpt lat="-20.11968523799457" lon="119.71239384542052"><ele>23.0</ele><time>2026-04-23T08:01:50.001Z</time></trkpt><trkpt lat="-20.119504280844193" lon="119.71263182583098"><ele>23.0</ele><time>2026-04-23T08:01:51.001Z</time></trkpt><trkpt lat="-20.119326597533735" lon="119.71286953158555"><ele>23.0</ele><time>2026-04-23T08:01:52.001Z</time></trkpt><trkpt lat="-20.119151046913906" lon="119.71310728776952"><ele>23.0</ele><time>2026-04-23T08:01:53.001Z</time></trkpt><trkpt lat="-20.11897739162124" lon="119.71334528077014"><ele>23.5</ele><time>2026-04-23T08:01:54.001Z</time></trkpt><trkpt lat="-20.118804755377347" lon="119.71358283888496"><ele>24.0</ele><time>2026-04-23T08:01:55.001Z</time></trkpt><trkpt lat="-20.11863088151158" lon="119.71381778644471"><ele>24.0</ele><time>2026-04-23T08:01:56.001Z</time></trkpt><trkpt lat="-20.118453973356495" lon="119.71405165191125"><ele>24.0</ele><time>2026-04-23T08:01:57.001Z</time></trkpt><trkpt lat="-20.11827628309497" lon="119.71428462898214"><ele>24.0</ele><time>2026-04-23T08:01:58.001Z</time></trkpt><trkpt lat="-20.118099392906313" lon="119.714519775613"><ele>24.0</ele><time>2026-04-23T08:01:59.001Z</time></trkpt><trkpt lat="-20.117921363977153" lon="119.71475901146252"><ele>24.0</ele><time>2026-04-23T08:02:00.001Z</time></trkpt><trkpt lat="-20.11774100239058" lon="119.71500449204211"><ele>24.0</ele><time>2026-04-23T08:02:01.001Z</time></trkpt><trkpt lat="-20.117559035715313" lon="119.71525279491227"><ele>23.5</ele><time>2026-04-23T08:02:02.001Z</time></trkpt><trkpt lat="-20.11737712138306" lon="119.71550333763487"><ele>23.0</ele><time>2026-04-23T08:02:03.001Z</time></trkpt><trkpt lat="-20.117198553472882" lon="119.71575450706389"><ele>23.0</ele><time>2026-04-23T08:02:04.001Z</time></trkpt><trkpt lat="-20.117018149745604" lon="119.71600777535926"><ele>23.0</ele><time>2026-04-23T08:02:05.001Z</time></trkpt><trkpt lat="-20.116835404269263" lon="119.71625850975923"><ele>23.0</ele><time>2026-04-23T08:02:06.001Z</time></trkpt><trkpt lat="-20.11665074775324" lon="119.71650634660678"><ele>23.0</ele><time>2026-04-23T08:02:07.001Z</time></trkpt><trkpt lat="-20.11646768722041" lon="119.71675037852006"><ele>23.0</ele><time>2026-04-23T08:02:08.001Z</time></trkpt><trkpt lat="-20.116285436378142" lon="119.71699113606529"><ele>23.0</ele><time>2026-04-23T08:02:09.001Z</time></trkpt><trkpt lat="-20.116104881421293" lon="119.71722883231759"><ele>23.0</ele><time>2026-04-23T08:02:10.001Z</time></trkpt><trkpt lat="-20.115927788593137" lon="119.71746389413613"><ele>23.0</ele><time>2026-04-23T08:02:11.001Z</time></trkpt><trkpt lat="-20.115749784415623" lon="119.71770105487856"><ele>22.5</ele><time>2026-04-23T08:02:12.001Z</time></trkpt><trkpt lat="-20.11557622438115" lon="119.71793606441337"><ele>22.0</ele><time>2026-04-23T08:02:13.001Z</time></trkpt><trkpt lat="-20.115403453020097" lon="119.71817541708205"><ele>22.0</ele><time>2026-04-23T08:02:14.001Z</time></trkpt><trkpt lat="-20.11522971100771" lon="119.71841418694338"><ele>22.0</ele><time>2026-04-23T08:02:15.001Z</time></trkpt><trkpt lat="-20.115055462867428" lon="119.71865102196239"><ele>22.5</ele><time>2026-04-23T08:02:16.001Z</time></trkpt><trkpt lat="-20.11487777896599" lon="119.71888694154605"><ele>23.0</ele><time>2026-04-23T08:02:17.001Z</time></trkpt><trkpt lat="-20.114700527099913" lon="119.71912473442708"><ele>23.0</ele><time>2026-04-23T08:02:18.001Z</time></trkpt><trkpt lat="-20.114524393695376" lon="119.71936450233733"><ele>23.0</ele><time>2026-04-23T08:02:19.001Z</time></trkpt><trkpt lat="-20.11434892454431" lon="119.71960342673087"><ele>23.5</ele><time>2026-04-23T08:02:20.001Z</time></trkpt><trkpt lat="-20.11417612126948" lon="119.71984036167844"><ele>24.0</ele><time>2026-04-23T08:02:21.001Z</time></trkpt><trkpt lat="-20.114002606548212" lon="119.72007772196841"><ele>23.5</ele><time>2026-04-23T08:02:22.001Z</time></trkpt><trkpt lat="-20.113828227626033" lon="119.72031420937543"><ele>23.0</ele><time>2026-04-23T08:02:23.001Z</time></trkpt><trkpt lat="-20.113651225995422" lon="119.72055371766263"><ele>23.0</ele><time>2026-04-23T08:02:24.001Z</time></trkpt><trkpt lat="-20.11347065402434" lon="119.72079670496771"><ele>23.0</ele><time>2026-04-23T08:02:25.001Z</time></trkpt><trkpt lat="-20.113286800788735" lon="119.7210390459973"><ele>22.0</ele><time>2026-04-23T08:02:26.001Z</time></trkpt><trkpt lat="-20.113102870296444" lon="119.72128340564132"><ele>21.0</ele><time>2026-04-23T08:02:27.001Z</time></trkpt><trkpt lat="-20.112921575055964" lon="119.72152593148725"><ele>21.0</ele><time>2026-04-23T08:02:28.001Z</time></trkpt><trkpt lat="-20.112736499119524" lon="119.72177308727905"><ele>21.0</ele><time>2026-04-23T08:02:29.001Z</time></trkpt><trkpt lat="-20.11254869849926" lon="119.72202026606193"><ele>22.0</ele><time>2026-04-23T08:02:30.001Z</time></trkpt><trkpt lat="-20.112359939199308" lon="119.7222633675233"><ele>23.0</ele><time>2026-04-23T08:02:31.001Z</time></trkpt><trkpt lat="-20.112169264110182" lon="119.72250185230209"><ele>22.5</ele><time>2026-04-23T08:02:32.001Z</time></trkpt><trkpt lat="-20.111979336122978" lon="119.72273841718165"><ele>22.0</ele><time>2026-04-23T08:02:33.001Z</time></trkpt><trkpt lat="-20.111791686241126" lon="119.72297157673522"><ele>22.0</ele><time>2026-04-23T08:02:34.001Z</time></trkpt><trkpt lat="-20.11160253329747" lon="119.72320108647602"><ele>22.0</ele><time>2026-04-23T08:02:35.001Z</time></trkpt><trkpt lat="-20.111414295716852" lon="119.72342927575777"><ele>22.0</ele><time>2026-04-23T08:02:36.001Z</time></trkpt><trkpt lat="-20.11122907691718" lon="119.72365402365853"><ele>22.0</ele><time>2026-04-23T08:02:37.001Z</time></trkpt><trkpt lat="-20.11104111936897" lon="119.72387745306357"><ele>22.0</ele><time>2026-04-23T08:02:38.001Z</time></trkpt><trkpt lat="-20.110852789837825" lon="119.72409681822359"><ele>22.0</ele><time>2026-04-23T08:02:39.001Z</time></trkpt><trkpt lat="-20.110664281425766" lon="119.72431324515001"><ele>23.0</ele><time>2026-04-23T08:02:40.001Z</time></trkpt><trkpt lat="-20.110474452577336" lon="119.72452292768281"><ele>24.0</ele><time>2026-04-23T08:02:41.001Z</time></trkpt><trkpt lat="-20.110281867942728" lon="119.72473314445226"><ele>24.0</ele><time>2026-04-23T08:02:42.001Z</time></trkpt><trkpt lat="-20.110088777819065" lon="119.72494084186003"><ele>24.0</ele><time>2026-04-23T08:02:43.001Z</time></trkpt><trkpt lat="-20.109895946167633" lon="119.7251484692992"><ele>23.5</ele><time>2026-04-23T08:02:44.001Z</time></trkpt><trkpt lat="-20.109705037873105" lon="119.72535657069382"><ele>23.0</ele><time>2026-04-23T08:02:45.001Z</time></trkpt><trkpt lat="-20.10951422916175" lon="119.72556309168417"><ele>23.0</ele><time>2026-04-23T08:02:46.001Z</time></trkpt><trkpt lat="-20.10931692997028" lon="119.72577953916861"><ele>23.0</ele><time>2026-04-23T08:02:47.001Z</time></trkpt><trkpt lat="-20.10912212316381" lon="119.72599539917009"><ele>23.0</ele><time>2026-04-23T08:02:48.001Z</time></trkpt><trkpt lat="-20.108928119522552" lon="119.72620841583786"><ele>23.0</ele><time>2026-04-23T08:02:49.001Z</time></trkpt><trkpt lat="-20.10873047803741" lon="119.72642719418543"><ele>23.0</ele><time>2026-04-23T08:02:50.001Z</time></trkpt><trkpt lat="-20.10853171086906" lon="119.72664398678982"><ele>23.0</ele><time>2026-04-23T08:02:51.001Z</time></trkpt><trkpt lat="-20.10833274203648" lon="119.72685776743702"><ele>22.5</ele><time>2026-04-23T08:02:52.001Z</time></trkpt><trkpt lat="-20.108135147764422" lon="119.72707012831472"><ele>22.0</ele><time>2026-04-23T08:02:53Z</time></trkpt><trkpt lat="-20.10793970528469" lon="119.72727887113061"><ele>22.0</ele><time>2026-04-23T08:02:54.001Z</time></trkpt><trkpt lat="-20.10774658122245" lon="119.72748708624607"><ele>22.0</ele><time>2026-04-23T08:02:55.001Z</time></trkpt><trkpt lat="-20.107557943581618" lon="119.72769252925605"><ele>22.0</ele><time>2026-04-23T08:02:56.001Z</time></trkpt><trkpt lat="-20.107368169729597" lon="119.72790018198253"><ele>22.0</ele><time>2026-04-23T08:02:57Z</time></trkpt><trkpt lat="-20.107178680140684" lon="119.72810906204948"><ele>22.0</ele><time>2026-04-23T08:02:58.001Z</time></trkpt><trkpt lat="-20.106989938368763" lon="119.72831967562615"><ele>22.0</ele><time>2026-04-23T08:02:59Z</time></trkpt><trkpt lat="-20.106798421545406" lon="119.72853354251765"><ele>22.0</ele><time>2026-04-23T08:03:00Z</time></trkpt><trkpt lat="-20.106603905161613" lon="119.72874765296616"><ele>22.0</ele><time>2026-04-23T08:03:01Z</time></trkpt><trkpt lat="-20.10641556117792" lon="119.7289512480705"><ele>22.5</ele><time>2026-04-23T08:03:02Z</time></trkpt><trkpt lat="-20.106237292518987" lon="119.72914077279475"><ele>23.0</ele><time>2026-04-23T08:03:03Z</time></trkpt><trkpt lat="-20.10605774629708" lon="119.72933062312906"><ele>23.0</ele><time>2026-04-23T08:03:04Z</time></trkpt><trkpt lat="-20.105874400006403" lon="119.7295299807947"><ele>23.0</ele><time>2026-04-23T08:03:05Z</time></trkpt><trkpt lat="-20.10568536841494" lon="119.7297344859631"><ele>22.5</ele><time>2026-04-23T08:03:06Z</time></trkpt><trkpt lat="-20.105495081041937" lon="119.72994071263389"><ele>22.0</ele><time>2026-04-23T08:03:07Z</time></trkpt><trkpt lat="-20.105303131437136" lon="119.73014799218187"><ele>22.5</ele><time>2026-04-23T08:03:08Z</time></trkpt><trkpt lat="-20.105112627331163" lon="119.73035725524173"><ele>23.0</ele><time>2026-04-23T08:03:09Z</time></trkpt><trkpt lat="-20.104920642042632" lon="119.73056968902762"><ele>22.5</ele><time>2026-04-23T08:03:10Z</time></trkpt><trkpt lat="-20.104727539785458" lon="119.73078245112777"><ele>22.0</ele><time>2026-04-23T08:03:11Z</time></trkpt><trkpt lat="-20.104532645772117" lon="119.73099528238104"><ele>22.5</ele><time>2026-04-23T08:03:12Z</time></trkpt><trkpt lat="-20.104338640948335" lon="119.73120776582044"><ele>23.0</ele><time>2026-04-23T08:03:13Z</time></trkpt><trkpt lat="-20.104144382751514" lon="119.7314189862327"><ele>21.5</ele><time>2026-04-23T08:03:14Z</time></trkpt><trkpt lat="-20.103950770243387" lon="119.73163041308418"><ele>20.0</ele><time>2026-04-23T08:03:15Z</time></trkpt><trkpt lat="-20.103752724299255" lon="119.73184233595114"><ele>20.5</ele><time>2026-04-23T08:03:16Z</time></trkpt><trkpt lat="-20.103554680985457" lon="119.73205405747996"><ele>21.0</ele><time>2026-04-23T08:03:17Z</time></trkpt><trkpt lat="-20.10335857151942" lon="119.73226752398777"><ele>21.0</ele><time>2026-04-23T08:03:18Z</time></trkpt><trkpt lat="-20.10316112867711" lon="119.732481531487"><ele>21.0</ele><time>2026-04-23T08:03:19Z</time></trkpt><trkpt lat="-20.102962854875713" lon="119.7326963400037"><ele>21.5</ele><time>2026-04-23T08:03:20Z</time></trkpt><trkpt lat="-20.102769124930752" lon="119.73290959102363"><ele>22.0</ele><time>2026-04-23T08:03:21Z</time></trkpt><trkpt lat="-20.102575238386155" lon="119.73311826335801"><ele>22.0</ele><time>2026-04-23T08:03:22Z</time></trkpt><trkpt lat="-20.102193573491434" lon="119.73353739053042"><ele>21.5</ele><time>2026-04-23T08:03:24Z</time></trkpt><trkpt lat="-20.102003746308867" lon="119.7337472898099"><ele>21.0</ele><time>2026-04-23T08:03:25Z</time></trkpt><trkpt lat="-20.10181285200987" lon="119.73395533104177"><ele>21.0</ele><time>2026-04-23T08:03:26Z</time></trkpt><trkpt lat="-20.10162068046418" lon="119.73416135041474"><ele>21.0</ele><time>2026-04-23T08:03:27Z</time></trkpt><trkpt lat="-20.101428322621796" lon="119.73436988236757"><ele>21.0</ele><time>2026-04-23T08:03:28Z</time></trkpt><trkpt lat="-20.101232447187876" lon="119.73457967787871"><ele>21.0</ele><time>2026-04-23T08:03:29Z</time></trkpt><trkpt lat="-20.101035218938097" lon="119.73479259548736"><ele>21.0</ele><time>2026-04-23T08:03:30Z</time></trkpt><trkpt lat="-20.100839091196026" lon="119.73500689852844"><ele>21.0</ele><time>2026-04-23T08:03:31Z</time></trkpt><trkpt lat="-20.10064130722459" lon="119.73522526098472"><ele>21.0</ele><time>2026-04-23T08:03:32Z</time></trkpt><trkpt lat="-20.100442750385366" lon="119.73544770211834"><ele>21.0</ele><time>2026-04-23T08:03:33Z</time></trkpt><trkpt lat="-20.100246315380115" lon="119.73566874282636"><ele>21.0</ele><time>2026-04-23T08:03:34Z</time></trkpt><trkpt lat="-20.100047649730122" lon="119.73588858372852"><ele>21.0</ele><time>2026-04-23T08:03:35Z</time></trkpt><trkpt lat="-20.09984773874471" lon="119.73610342427726"><ele>20.5</ele><time>2026-04-23T08:03:36.001Z</time></trkpt><trkpt lat="-20.099647210455135" lon="119.73631380506468"><ele>20.0</ele><time>2026-04-23T08:03:37.001Z</time></trkpt><trkpt lat="-20.09944319101743" lon="119.73652638351089"><ele>20.0</ele><time>2026-04-23T08:03:38.001Z</time></trkpt><trkpt lat="-20.099242242515523" lon="119.73673632930178"><ele>20.0</ele><time>2026-04-23T08:03:39.001Z</time></trkpt><trkpt lat="-20.099047051557122" lon="119.73694718643108"><ele>19.5</ele><time>2026-04-23T08:03:40.001Z</time></trkpt><trkpt lat="-20.098851181058752" lon="119.73716241424766"><ele>19.0</ele><time>2026-04-23T08:03:41.001Z</time></trkpt><trkpt lat="-20.098657783624333" lon="119.73737865963423"><ele>19.0</ele><time>2026-04-23T08:03:42.001Z</time></trkpt><trkpt lat="-20.098463688968405" lon="119.73759754948514"><ele>19.0</ele><time>2026-04-23T08:03:43.001Z</time></trkpt><trkpt lat="-20.098267313360864" lon="119.73781267463599"><ele>19.0</ele><time>2026-04-23T08:03:44.001Z</time></trkpt><trkpt lat="-20.098069171216704" lon="119.73802863544678"><ele>19.0</ele><time>2026-04-23T08:03:45.001Z</time></trkpt><trkpt lat="-20.097864646552818" lon="119.73824828757962"><ele>19.0</ele><time>2026-04-23T08:03:46.001Z</time></trkpt><trkpt lat="-20.09765370098969" lon="119.73847172655262"><ele>19.0</ele><time>2026-04-23T08:03:47.001Z</time></trkpt><trkpt lat="-20.097443770852763" lon="119.73869863175278"><ele>20.0</ele><time>2026-04-23T08:03:48.001Z</time></trkpt><trkpt lat="-20.09723846310439" lon="119.73892284475954"><ele>21.0</ele><time>2026-04-23T08:03:49.001Z</time></trkpt><trkpt lat="-20.097035295376266" lon="119.73914388310303"><ele>21.0</ele><time>2026-04-23T08:03:50.001Z</time></trkpt><trkpt lat="-20.096835325981637" lon="119.73936265791355"><ele>21.0</ele><time>2026-04-23T08:03:51.001Z</time></trkpt><trkpt lat="-20.096636619761405" lon="119.73958011532402"><ele>21.5</ele><time>2026-04-23T08:03:52.001Z</time></trkpt><trkpt lat="-20.09644014530811" lon="119.73979497557704"><ele>22.0</ele><time>2026-04-23T08:03:53.001Z</time></trkpt><trkpt lat="-20.096242352047156" lon="119.74000892386425"><ele>21.5</ele><time>2026-04-23T08:03:54.001Z</time></trkpt><trkpt lat="-20.09604697691555" lon="119.74022412960092"><ele>21.0</ele><time>2026-04-23T08:03:55.001Z</time></trkpt><trkpt lat="-20.095851681709416" lon="119.7404407276548"><ele>20.5</ele><time>2026-04-23T08:03:56.001Z</time></trkpt><trkpt lat="-20.09565965843646" lon="119.74065916697155"><ele>20.0</ele><time>2026-04-23T08:03:57.001Z</time></trkpt><trkpt lat="-20.09547534965118" lon="119.74088033223487"><ele>19.5</ele><time>2026-04-23T08:03:58.001Z</time></trkpt><trkpt lat="-20.095297982525256" lon="119.74110546997889"><ele>19.0</ele><time>2026-04-23T08:03:59.001Z</time></trkpt><trkpt lat="-20.09512392623254" lon="119.74133444059026"><ele>19.0</ele><time>2026-04-23T08:04:00.001Z</time></trkpt><trkpt lat="-20.094950573024423" lon="119.74156290565075"><ele>19.0</ele><time>2026-04-23T08:04:01.001Z</time></trkpt><trkpt lat="-20.09477669497134" lon="119.74179516755073"><ele>19.0</ele><time>2026-04-23T08:04:02.001Z</time></trkpt><trkpt lat="-20.09460657850708" lon="119.74202728655791"><ele>19.0</ele><time>2026-04-23T08:04:03.001Z</time></trkpt><trkpt lat="-20.094438204072123" lon="119.74226337651116"><ele>19.0</ele><time>2026-04-23T08:04:04.001Z</time></trkpt><trkpt lat="-20.094274442252548" lon="119.74250040394958"><ele>19.0</ele><time>2026-04-23T08:04:05.001Z</time></trkpt><trkpt lat="-20.094116483127447" lon="119.74274287606359"><ele>18.5</ele><time>2026-04-23T08:04:06.001Z</time></trkpt><trkpt lat="-20.09396678948183" lon="119.74298343761237"><ele>18.0</ele><time>2026-04-23T08:04:07.001Z</time></trkpt><trkpt lat="-20.09382920641752" lon="119.74321470235573"><ele>18.0</ele><time>2026-04-23T08:04:08.001Z</time></trkpt><trkpt lat="-20.093695208512916" lon="119.74344351783891"><ele>18.0</ele><time>2026-04-23T08:04:09.001Z</time></trkpt><trkpt lat="-20.093553813314315" lon="119.74368201047187"><ele>19.0</ele><time>2026-04-23T08:04:10.001Z</time></trkpt><trkpt lat="-20.09340958014787" lon="119.7439266535464"><ele>20.0</ele><time>2026-04-23T08:04:11.001Z</time></trkpt><trkpt lat="-20.093266450915817" lon="119.74417072024384"><ele>19.5</ele><time>2026-04-23T08:04:12.001Z</time></trkpt><trkpt lat="-20.093121127220282" lon="119.74441664291999"><ele>19.0</ele><time>2026-04-23T08:04:13.001Z</time></trkpt><trkpt lat="-20.09297119512436" lon="119.74466410844946"><ele>19.0</ele><time>2026-04-23T08:04:14.001Z</time></trkpt><trkpt lat="-20.092821839836038" lon="119.74491184404431"><ele>19.0</ele><time>2026-04-23T08:04:15.001Z</time></trkpt><trkpt lat="-20.09267389900145" lon="119.74516169362636"><ele>19.5</ele><time>2026-04-23T08:04:16.001Z</time></trkpt><trkpt lat="-20.092524891628454" lon="119.74541457161816"><ele>20.0</ele><time>2026-04-23T08:04:17.001Z</time></trkpt><trkpt lat="-20.092373856802954" lon="119.74566788004648"><ele>20.0</ele><time>2026-04-23T08:04:18.001Z</time></trkpt><trkpt lat="-20.09222171495944" lon="119.74592381210809"><ele>20.0</ele><time>2026-04-23T08:04:19.001Z</time></trkpt><trkpt lat="-20.092068382687792" lon="119.74617900959791"><ele>19.5</ele><time>2026-04-23T08:04:20.001Z</time></trkpt><trkpt lat="-20.09191535324467" lon="119.74643692666075"><ele>19.0</ele><time>2026-04-23T08:04:21.001Z</time></trkpt><trkpt lat="-20.091761227361207" lon="119.74669469855809"><ele>19.0</ele><time>2026-04-23T08:04:22.001Z</time></trkpt><trkpt lat="-20.09160810500314" lon="119.74695420710856"><ele>19.0</ele><time>2026-04-23T08:04:23.001Z</time></trkpt><trkpt lat="-20.091453120632046" lon="119.74721320378181"><ele>19.0</ele><time>2026-04-23T08:04:24.001Z</time></trkpt><trkpt lat="-20.09129766132074" lon="119.74747071033028"><ele>19.0</ele><time>2026-04-23T08:04:25.001Z</time></trkpt><trkpt lat="-20.09114248286551" lon="119.747729628986"><ele>19.0</ele><time>2026-04-23T08:04:26.001Z</time></trkpt><trkpt lat="-20.090987640923995" lon="119.74798691261404"><ele>19.0</ele><time>2026-04-23T08:04:27.001Z</time></trkpt><trkpt lat="-20.090833543680255" lon="119.74824382124203"><ele>18.5</ele><time>2026-04-23T08:04:28.001Z</time></trkpt><trkpt lat="-20.090680847827677" lon="119.74850148410465"><ele>18.0</ele><time>2026-04-23T08:04:29.001Z</time></trkpt><trkpt lat="-20.090527161285735" lon="119.74875890672325"><ele>17.5</ele><time>2026-04-23T08:04:30.001Z</time></trkpt><trkpt lat="-20.090374591618513" lon="119.74902017330888"><ele>17.0</ele><time>2026-04-23T08:04:31.001Z</time></trkpt><trkpt lat="-20.09022277227369" lon="119.74927942668549"><ele>17.0</ele><time>2026-04-23T08:04:32.001Z</time></trkpt><trkpt lat="-20.090073640595442" lon="119.74954077472759"><ele>17.0</ele><time>2026-04-23T08:04:33.001Z</time></trkpt><trkpt lat="-20.08992330131823" lon="119.74979270819284"><ele>18.0</ele><time>2026-04-23T08:04:34.001Z</time></trkpt><trkpt lat="-20.089771052733084" lon="119.75004566324927"><ele>19.0</ele><time>2026-04-23T08:04:35.001Z</time></trkpt><trkpt lat="-20.08961947611535" lon="119.75029517236928"><ele>19.0</ele><time>2026-04-23T08:04:36.001Z</time></trkpt><trkpt lat="-20.08947064552558" lon="119.75054452144764"><ele>19.0</ele><time>2026-04-23T08:04:37.001Z</time></trkpt><trkpt lat="-20.089321788059106" lon="119.75079282052337"><ele>19.0</ele><time>2026-04-23T08:04:38.001Z</time></trkpt><trkpt lat="-20.089171790716552" lon="119.75103881629995"><ele>19.0</ele><time>2026-04-23T08:04:39.001Z</time></trkpt><trkpt lat="-20.089024229591192" lon="119.75128728455334"><ele>18.0</ele><time>2026-04-23T08:04:40.001Z</time></trkpt><trkpt lat="-20.08887657229647" lon="119.75153755893662"><ele>17.0</ele><time>2026-04-23T08:04:41.001Z</time></trkpt><trkpt lat="-20.088728348381228" lon="119.75178741081874"><ele>16.5</ele><time>2026-04-23T08:04:42.001Z</time></trkpt><trkpt lat="-20.088581950879465" lon="119.75203722004362"><ele>16.0</ele><time>2026-04-23T08:04:43.001Z</time></trkpt><trkpt lat="-20.08843581082459" lon="119.75228317443192"><ele>16.0</ele><time>2026-04-23T08:04:44.001Z</time></trkpt><trkpt lat="-20.08828620873233" lon="119.75253561679928"><ele>16.0</ele><time>2026-04-23T08:04:45.001Z</time></trkpt><trkpt lat="-20.088131331887865" lon="119.75279088657473"><ele>15.5</ele><time>2026-04-23T08:04:46.001Z</time></trkpt><trkpt lat="-20.087976048166823" lon="119.7530498074258"><ele>15.0</ele><time>2026-04-23T08:04:47.001Z</time></trkpt><trkpt lat="-20.087819994078917" lon="119.75330790388817"><ele>15.0</ele><time>2026-04-23T08:04:48.001Z</time></trkpt><trkpt lat="-20.087662277336477" lon="119.7535694082083"><ele>15.0</ele><time>2026-04-23T08:04:49.001Z</time></trkpt><trkpt lat="-20.087506177855463" lon="119.75382933722479"><ele>15.0</ele><time>2026-04-23T08:04:50.001Z</time></trkpt><trkpt lat="-20.087350552539807" lon="119.75408779639055"><ele>15.0</ele><time>2026-04-23T08:04:51.001Z</time></trkpt><trkpt lat="-20.087197417371367" lon="119.75434954448185"><ele>16.0</ele><time>2026-04-23T08:04:52.001Z</time></trkpt><trkpt lat="-20.08704531422881" lon="119.75460610037152"><ele>17.0</ele><time>2026-04-23T08:04:53.001Z</time></trkpt><trkpt lat="-20.08689231132006" lon="119.75486642881758"><ele>17.0</ele><time>2026-04-23T08:04:54.001Z</time></trkpt><trkpt lat="-20.086740617602743" lon="119.75512658421583"><ele>17.0</ele><time>2026-04-23T08:04:55.001Z</time></trkpt><trkpt lat="-20.086586082727752" lon="119.7553871126405"><ele>16.0</ele><time>2026-04-23T08:04:56.001Z</time></trkpt><trkpt lat="-20.086431457400167" lon="119.75564526283328"><ele>15.0</ele><time>2026-04-23T08:04:57.001Z</time></trkpt><trkpt lat="-20.086276786742484" lon="119.75590579171603"><ele>14.5</ele><time>2026-04-23T08:04:58.001Z</time></trkpt><trkpt lat="-20.086121859433497" lon="119.7561639780727"><ele>14.0</ele><time>2026-04-23T08:04:59Z</time></trkpt><trkpt lat="-20.085966829983708" lon="119.75642457050077"><ele>14.0</ele><time>2026-04-23T08:05:00Z</time></trkpt><trkpt lat="-20.085815978106616" lon="119.75667967596556"><ele>14.0</ele><time>2026-04-23T08:05:01Z</time></trkpt><trkpt lat="-20.085669238055843" lon="119.75692397920126"><ele>14.0</ele><time>2026-04-23T08:05:02Z</time></trkpt><trkpt lat="-20.085532887449357" lon="119.75715589406654"><ele>14.0</ele><time>2026-04-23T08:05:03Z</time></trkpt><trkpt lat="-20.085393168552354" lon="119.75739208767206"><ele>14.0</ele><time>2026-04-23T08:05:04Z</time></trkpt><trkpt lat="-20.085250356913534" lon="119.75763490469646"><ele>14.0</ele><time>2026-04-23T08:05:05Z</time></trkpt><trkpt lat="-20.085102618477972" lon="119.75788130662534"><ele>14.5</ele><time>2026-04-23T08:05:06Z</time></trkpt><trkpt lat="-20.08495444217304" lon="119.75812803807705"><ele>15.0</ele><time>2026-04-23T08:05:07Z</time></trkpt><trkpt lat="-20.084805537227975" lon="119.75837404320573"><ele>15.5</ele><time>2026-04-23T08:05:08Z</time></trkpt><trkpt lat="-20.084656199024195" lon="119.75862214969462"><ele>16.0</ele><time>2026-04-23T08:05:09Z</time></trkpt><trkpt lat="-20.084505973922806" lon="119.7588686735566"><ele>16.0</ele><time>2026-04-23T08:05:10Z</time></trkpt><trkpt lat="-20.084354438303343" lon="119.75911669997822"><ele>16.0</ele><time>2026-04-23T08:05:11Z</time></trkpt><trkpt lat="-20.08420408206235" lon="119.7593648591501"><ele>15.5</ele><time>2026-04-23T08:05:12Z</time></trkpt><trkpt lat="-20.084054428014046" lon="119.75961505397781"><ele>15.0</ele><time>2026-04-23T08:05:13Z</time></trkpt><trkpt lat="-20.083903770241815" lon="119.75986849806345"><ele>15.0</ele><time>2026-04-23T08:05:14Z</time></trkpt><trkpt lat="-20.08375107138001" lon="119.76012384746134"><ele>15.0</ele><time>2026-04-23T08:05:15Z</time></trkpt><trkpt lat="-20.083597894300322" lon="119.76038210111557"><ele>15.5</ele><time>2026-04-23T08:05:16Z</time></trkpt><trkpt lat="-20.083443652440746" lon="119.76063932180014"><ele>16.0</ele><time>2026-04-23T08:05:17Z</time></trkpt><trkpt lat="-20.0832918464024" lon="119.7608992538127"><ele>15.5</ele><time>2026-04-23T08:05:18Z</time></trkpt><trkpt lat="-20.083140866797585" lon="119.76116007695751"><ele>15.0</ele><time>2026-04-23T08:05:19Z</time></trkpt><trkpt lat="-20.082992875420224" lon="119.7614245677418"><ele>15.0</ele><time>2026-04-23T08:05:20Z</time></trkpt><trkpt lat="-20.082844865722574" lon="119.76169390414869"><ele>15.0</ele><time>2026-04-23T08:05:21Z</time></trkpt><trkpt lat="-20.082702577803516" lon="119.76196682655791"><ele>15.0</ele><time>2026-04-23T08:05:22Z</time></trkpt><trkpt lat="-20.0825620604652" lon="119.76224551273906"><ele>15.0</ele><time>2026-04-23T08:05:23Z</time></trkpt><trkpt lat="-20.082427422699062" lon="119.76252313886465"><ele>15.5</ele><time>2026-04-23T08:05:24Z</time></trkpt><trkpt lat="-20.082299059522402" lon="119.76280247808226"><ele>16.0</ele><time>2026-04-23T08:05:25Z</time></trkpt><trkpt lat="-20.082177456503423" lon="119.76308198099512"><ele>16.0</ele><time>2026-04-23T08:05:26Z</time></trkpt><trkpt lat="-20.0820596944218" lon="119.76336092161586"><ele>16.0</ele><time>2026-04-23T08:05:27Z</time></trkpt><trkpt lat="-20.081946575819384" lon="119.76364096149904"><ele>16.5</ele><time>2026-04-23T08:05:28Z</time></trkpt><trkpt lat="-20.08183785441656" lon="119.76392444530099"><ele>17.0</ele><time>2026-04-23T08:05:29Z</time></trkpt><trkpt lat="-20.081730238808646" lon="119.76421017186648"><ele>16.5</ele><time>2026-04-23T08:05:30Z</time></trkpt><trkpt lat="-20.081626880052294" lon="119.76449829992642"><ele>16.0</ele><time>2026-04-23T08:05:31Z</time></trkpt><trkpt lat="-20.081529899687066" lon="119.76478577621533"><ele>15.5</ele><time>2026-04-23T08:05:32Z</time></trkpt><trkpt lat="-20.08144191285254" lon="119.76507440122994"><ele>15.0</ele><time>2026-04-23T08:05:33Z</time></trkpt><trkpt lat="-20.0813555736237" lon="119.76536356838335"><ele>15.0</ele><time>2026-04-23T08:05:34Z</time></trkpt><trkpt lat="-20.08126691795397" lon="119.76565919764505"><ele>15.0</ele><time>2026-04-23T08:05:35Z</time></trkpt><trkpt lat="-20.081173745005113" lon="119.76595686405935"><ele>15.5</ele><time>2026-04-23T08:05:36Z</time></trkpt><trkpt lat="-20.0810810621084" lon="119.76625671652403"><ele>16.0</ele><time>2026-04-23T08:05:37Z</time></trkpt><trkpt lat="-20.080989801051345" lon="119.76655833313362"><ele>16.0</ele><time>2026-04-23T08:05:38Z</time></trkpt><trkpt lat="-20.08089905128864" lon="119.76685646962055"><ele>16.0</ele><time>2026-04-23T08:05:39Z</time></trkpt><trkpt lat="-20.080809233520174" lon="119.7671545766279"><ele>15.5</ele><time>2026-04-23T08:05:40Z</time></trkpt><trkpt lat="-20.080718592236774" lon="119.7674542748004"><ele>15.0</ele><time>2026-04-23T08:05:41Z</time></trkpt><trkpt lat="-20.080627842328454" lon="119.76775681598322"><ele>15.0</ele><time>2026-04-23T08:05:42Z</time></trkpt><trkpt lat="-20.0805366372879" lon="119.76805922668395"><ele>15.0</ele><time>2026-04-23T08:05:43Z</time></trkpt><trkpt lat="-20.080444653965664" lon="119.76836264362464"><ele>15.0</ele><time>2026-04-23T08:05:44Z</time></trkpt><trkpt lat="-20.080351456857944" lon="119.76866839835274"><ele>15.0</ele><time>2026-04-23T08:05:45Z</time></trkpt><trkpt lat="-20.080259093891655" lon="119.7689752164791"><ele>15.0</ele><time>2026-04-23T08:05:46Z</time></trkpt><trkpt lat="-20.080165534210693" lon="119.76928013284784"><ele>15.0</ele><time>2026-04-23T08:05:47Z</time></trkpt><trkpt lat="-20.08007283579746" lon="119.76958403771131"><ele>15.0</ele><time>2026-04-23T08:05:48Z</time></trkpt><trkpt lat="-20.079982137371776" lon="119.76988769076449"><ele>15.0</ele><time>2026-04-23T08:05:49Z</time></trkpt><trkpt lat="-20.079890502342273" lon="119.77018683669222"><ele>14.5</ele><time>2026-04-23T08:05:50Z</time></trkpt><trkpt lat="-20.079800452158697" lon="119.77048539835766"><ele>14.0</ele><time>2026-04-23T08:05:51Z</time></trkpt><trkpt lat="-20.07971162496217" lon="119.77078018221971"><ele>14.5</ele><time>2026-04-23T08:05:52Z</time></trkpt><trkpt lat="-20.07962400292311" lon="119.77107203396173"><ele>15.0</ele><time>2026-04-23T08:05:53Z</time></trkpt><trkpt lat="-20.079535843992463" lon="119.77136435140775"><ele>15.0</ele><time>2026-04-23T08:05:54Z</time></trkpt><trkpt lat="-20.07944725153495" lon="119.77165687456045"><ele>15.0</ele><time>2026-04-23T08:05:55Z</time></trkpt><trkpt lat="-20.07935611536338" lon="119.77194811322354"><ele>15.5</ele><time>2026-04-23T08:05:56Z</time></trkpt><trkpt lat="-20.079264960148087" lon="119.77224158382569"><ele>16.0</ele><time>2026-04-23T08:05:57Z</time></trkpt><trkpt lat="-20.07917496778169" lon="119.77253638906171"><ele>16.0</ele><time>2026-04-23T08:05:58Z</time></trkpt><trkpt lat="-20.079084855562876" lon="119.772830348753"><ele>16.0</ele><time>2026-04-23T08:05:59Z</time></trkpt><trkpt lat="-20.07899565326598" lon="119.77312342884133"><ele>16.0</ele><time>2026-04-23T08:06:00Z</time></trkpt><trkpt lat="-20.07890443158714" lon="119.77341807071629"><ele>16.0</ele><time>2026-04-23T08:06:01Z</time></trkpt><trkpt lat="-20.078814648763505" lon="119.77371184710586"><ele>15.5</ele><time>2026-04-23T08:06:02Z</time></trkpt><trkpt lat="-20.07872528867508" lon="119.774011008729"><ele>15.0</ele><time>2026-04-23T08:06:03Z</time></trkpt><trkpt lat="-20.078634490412597" lon="119.77430711658816"><ele>15.0</ele><time>2026-04-23T08:06:04Z</time></trkpt><trkpt lat="-20.07854217050764" lon="119.77460540768321"><ele>15.0</ele><time>2026-04-23T08:06:05Z</time></trkpt><trkpt lat="-20.07844994664969" lon="119.77490033683841"><ele>15.5</ele><time>2026-04-23T08:06:06Z</time></trkpt><trkpt lat="-20.078358517811264" lon="119.77519796376305"><ele>16.0</ele><time>2026-04-23T08:06:07Z</time></trkpt><trkpt lat="-20.078266399902862" lon="119.77549374288444"><ele>16.0</ele><time>2026-04-23T08:06:08Z</time></trkpt><trkpt lat="-20.078175991853282" lon="119.77579244683112"><ele>16.0</ele><time>2026-04-23T08:06:09Z</time></trkpt><trkpt lat="-20.078086616345445" lon="119.77609119220384"><ele>16.0</ele><time>2026-04-23T08:06:10Z</time></trkpt><trkpt lat="-20.077998774794555" lon="119.77638845633562"><ele>16.0</ele><time>2026-04-23T08:06:11Z</time></trkpt><trkpt lat="-20.077910185412478" lon="119.77668521837138"><ele>16.0</ele><time>2026-04-23T08:06:12Z</time></trkpt><trkpt lat="-20.077821562779103" lon="119.77698024103199"><ele>16.0</ele><time>2026-04-23T08:06:13Z</time></trkpt><trkpt lat="-20.077733173993494" lon="119.77727580640683"><ele>16.0</ele><time>2026-04-23T08:06:14Z</time></trkpt><trkpt lat="-20.077644696858346" lon="119.77756750529116"><ele>16.0</ele><time>2026-04-23T08:06:15Z</time></trkpt><trkpt lat="-20.077557253284386" lon="119.77785900246138"><ele>16.0</ele><time>2026-04-23T08:06:16Z</time></trkpt><trkpt lat="-20.07746942465933" lon="119.77815030008024"><ele>16.0</ele><time>2026-04-23T08:06:17Z</time></trkpt><trkpt lat="-20.077380585470948" lon="119.7784388652518"><ele>16.5</ele><time>2026-04-23T08:06:18Z</time></trkpt><trkpt lat="-20.077291861822292" lon="119.77872160987938"><ele>17.0</ele><time>2026-04-23T08:06:19Z</time></trkpt><trkpt lat="-20.077206291120337" lon="119.77900351326896"><ele>17.0</ele><time>2026-04-23T08:06:20.001Z</time></trkpt><trkpt lat="-20.077121486702435" lon="119.77927864235895"><ele>17.0</ele><time>2026-04-23T08:06:21.001Z</time></trkpt><trkpt lat="-20.07703668862875" lon="119.7795495855492"><ele>17.5</ele><time>2026-04-23T08:06:22.001Z</time></trkpt><trkpt lat="-20.07695350622788" lon="119.77981627887743"><ele>18.0</ele><time>2026-04-23T08:06:23.001Z</time></trkpt><trkpt lat="-20.076874816220432" lon="119.78007033067072"><ele>18.0</ele><time>2026-04-23T08:06:24.001Z</time></trkpt><trkpt lat="-20.07680261121564" lon="119.78030488985262"><ele>18.0</ele><time>2026-04-23T08:06:25.001Z</time></trkpt><trkpt lat="-20.076736812451042" lon="119.78052476901738"><ele>18.0</ele><time>2026-04-23T08:06:26.001Z</time></trkpt><trkpt lat="-20.076675862815538" lon="119.7807273346666"><ele>18.0</ele><time>2026-04-23T08:06:27.001Z</time></trkpt><trkpt lat="-20.076619896093913" lon="119.78091243103233"><ele>18.0</ele><time>2026-04-23T08:06:28.001Z</time></trkpt><trkpt lat="-20.07657354168147" lon="119.78108364652807"><ele>18.0</ele><time>2026-04-23T08:06:29.001Z</time></trkpt><trkpt lat="-20.07653919734066" lon="119.78123921885887"><ele>18.2</ele><time>2026-04-23T08:06:30.001Z</time></trkpt><trkpt lat="-20.076495318430887" lon="119.78135318559056"><ele>18.4</ele><time>2026-04-23T08:06:31.001Z</time></trkpt><trkpt lat="-20.076466545741695" lon="119.78144672798321"><ele>18.599999999999998</ele><time>2026-04-23T08:06:32.001Z</time></trkpt><trkpt lat="-20.076442253962362" lon="119.78152570254618"><ele>18.8</ele><time>2026-04-23T08:06:33.001Z</time></trkpt><trkpt lat="-20.07641688332772" lon="119.78160812993082"><ele>19.0</ele><time>2026-04-23T08:06:34.001Z</time></trkpt><trkpt lat="-20.076387825885245" lon="119.781703832799"><ele>19.0</ele><time>2026-04-23T08:06:35.001Z</time></trkpt><trkpt lat="-20.076355677130078" lon="119.78180971706713"><ele>19.0</ele><time>2026-04-23T08:06:36.001Z</time></trkpt><trkpt lat="-20.076318367476123" lon="119.7819325990176"><ele>19.0</ele><time>2026-04-23T08:06:37.001Z</time></trkpt><trkpt lat="-20.076275180924807" lon="119.782074836935"><ele>19.0</ele><time>2026-04-23T08:06:38.001Z</time></trkpt><trkpt lat="-20.07622659816887" lon="119.78223484774304"><ele>19.0</ele><time>2026-04-23T08:06:39.001Z</time></trkpt><trkpt lat="-20.076176762880326" lon="119.78239898382316"><ele>19.0</ele><time>2026-04-23T08:06:40.001Z</time></trkpt><trkpt lat="-20.076123915622695" lon="119.78257364703543"><ele>19.0</ele><time>2026-04-23T08:06:41.001Z</time></trkpt><trkpt lat="-20.076073338655533" lon="119.78274029130813"><ele>19.0</ele><time>2026-04-23T08:06:42.001Z</time></trkpt><trkpt lat="-20.076019960911605" lon="119.78291546980766"><ele>19.0</ele><time>2026-04-23T08:06:43.001Z</time></trkpt><trkpt lat="-20.07596826054696" lon="119.78308514342424"><ele>19.0</ele><time>2026-04-23T08:06:44.001Z</time></trkpt><trkpt lat="-20.07592232954491" lon="119.783236157269"><ele>19.0</ele><time>2026-04-23T08:06:45.001Z</time></trkpt><trkpt lat="-20.075878390568533" lon="119.78338064433183"><ele>19.0</ele><time>2026-04-23T08:06:46.001Z</time></trkpt><trkpt lat="-20.075834916799952" lon="119.78352360137792"><ele>19.0</ele><time>2026-04-23T08:06:47.001Z</time></trkpt><trkpt lat="-20.0757914368003" lon="119.78366685541282"><ele>19.0</ele><time>2026-04-23T08:06:48.001Z</time></trkpt><trkpt lat="-20.075750412528624" lon="119.78380196126473"><ele>18.75</ele><time>2026-04-23T08:06:49.001Z</time></trkpt><trkpt lat="-20.075708992499145" lon="119.78393796194189"><ele>18.5</ele><time>2026-04-23T08:06:50.001Z</time></trkpt><trkpt lat="-20.075668898066382" lon="119.78406961311043"><ele>18.25</ele><time>2026-04-23T08:06:51.001Z</time></trkpt><trkpt lat="-20.07563256390403" lon="119.7841889173296"><ele>18.0</ele><time>2026-04-23T08:06:52.001Z</time></trkpt><trkpt lat="-20.07606469484529" lon="119.78446314497876"><ele>17.833333333333332</ele><time>2026-04-23T08:06:53.001Z</time></trkpt><trkpt lat="-20.07603103894093" lon="119.78456735165202"><ele>17.666666666666668</ele><time>2026-04-23T08:06:54.001Z</time></trkpt><trkpt lat="-20.07599702040067" lon="119.78466138587322"><ele>17.5</ele><time>2026-04-23T08:06:55.001Z</time></trkpt><trkpt lat="-20.075965856592358" lon="119.78473677137457"><ele>17.333333333333336</ele><time>2026-04-23T08:06:56.001Z</time></trkpt><trkpt lat="-20.075934531350818" lon="119.7848038027126"><ele>17.166666666666668</ele><time>2026-04-23T08:06:57.001Z</time></trkpt><trkpt lat="-20.075901801191314" lon="119.78486318591477"><ele>17.0</ele><time>2026-04-23T08:06:58.001Z</time></trkpt><trkpt lat="-20.075852800796795" lon="119.78494215264767"><ele>17.0</ele><time>2026-04-23T08:07:00.001Z</time></trkpt><trkpt lat="-20.075810377184588" lon="119.78501222356643"><ele>17.0</ele><time>2026-04-23T08:07:02.001Z</time></trkpt><trkpt lat="-20.075742827855187" lon="119.78512968518733"><ele>17.0</ele><time>2026-04-23T08:07:04.001Z</time></trkpt><trkpt lat="-20.075696003889206" lon="119.78520974869862"><ele>17.0</ele><time>2026-04-23T08:07:05Z</time></trkpt><trkpt lat="-20.075642938221655" lon="119.78530732833332"><ele>17.0</ele><time>2026-04-23T08:07:06Z</time></trkpt><trkpt lat="-20.075590282603844" lon="119.78541516823965"><ele>17.2</ele><time>2026-04-23T08:07:07Z</time></trkpt><trkpt lat="-20.075531930233844" lon="119.78551485165623"><ele>17.4</ele><time>2026-04-23T08:07:08Z</time></trkpt><trkpt lat="-20.075468130484825" lon="119.7856089595501"><ele>17.6</ele><time>2026-04-23T08:07:09Z</time></trkpt><trkpt lat="-20.075403900399674" lon="119.78568474972248"><ele>17.8</ele><time>2026-04-23T08:07:10Z</time></trkpt><trkpt lat="-20.0753452630873" lon="119.78574885878328"><ele>18.0</ele><time>2026-04-23T08:07:11Z</time></trkpt><trkpt lat="-20.075291110367573" lon="119.78581122951432"><ele>18.0</ele><time>2026-04-23T08:07:12Z</time></trkpt><trkpt lat="-20.075250490479775" lon="119.78586471079277"><ele>18.0</ele><time>2026-04-23T08:07:13Z</time></trkpt><trkpt lat="-20.075210255918773" lon="119.78591955374218"><ele>18.0</ele><time>2026-04-23T08:07:14Z</time></trkpt><trkpt lat="-20.075127398806952" lon="119.78602026496655"><ele>18.0</ele><time>2026-04-23T08:07:16Z</time></trkpt><trkpt lat="-20.075081742621116" lon="119.78608080856064"><ele>18.0</ele><time>2026-04-23T08:07:17Z</time></trkpt><trkpt lat="-20.07503700436513" lon="119.78616421632084"><ele>18.0</ele><time>2026-04-23T08:07:18Z</time></trkpt><trkpt lat="-20.07500080890627" lon="119.78627371322798"><ele>18.0</ele><time>2026-04-23T08:07:19Z</time></trkpt><trkpt lat="-20.07496029477933" lon="119.78639897869361"><ele>18.0</ele><time>2026-04-23T08:07:20Z</time></trkpt><trkpt lat="-20.074913422173537" lon="119.78654486994625"><ele>18.0</ele><time>2026-04-23T08:07:21Z</time></trkpt><trkpt lat="-20.07485947050647" lon="119.78669789350778"><ele>18.0</ele><time>2026-04-23T08:07:22Z</time></trkpt><trkpt lat="-20.074794280717168" lon="119.78687035739472"><ele>18.333333333333332</ele><time>2026-04-23T08:07:23Z</time></trkpt><trkpt lat="-20.07472498689462" lon="119.78706346638353"><ele>18.666666666666664</ele><time>2026-04-23T08:07:24Z</time></trkpt><trkpt lat="-20.074653923852185" lon="119.7872558951652"><ele>19.0</ele><time>2026-04-23T08:07:25Z</time></trkpt><trkpt lat="-20.074578929666274" lon="119.7874649553811"><ele>19.0</ele><time>2026-04-23T08:07:26Z</time></trkpt><trkpt lat="-20.07449160676341" lon="119.78768939260272"><ele>19.0</ele><time>2026-04-23T08:07:27Z</time></trkpt><trkpt lat="-20.074399636198894" lon="119.78791810131412"><ele>19.0</ele><time>2026-04-23T08:07:28Z</time></trkpt><trkpt lat="-20.074305137874198" lon="119.78814449037992"><ele>19.0</ele><time>2026-04-23T08:07:29Z</time></trkpt><trkpt lat="-20.07420510989971" lon="119.78837899107452"><ele>20.0</ele><time>2026-04-23T08:07:30Z</time></trkpt><trkpt lat="-20.0740968737005" lon="119.78861967048329"><ele>21.0</ele><time>2026-04-23T08:07:31Z</time></trkpt><trkpt lat="-20.073986597399237" lon="119.78885153832711"><ele>21.0</ele><time>2026-04-23T08:07:32Z</time></trkpt><trkpt lat="-20.07386442769266" lon="119.78908837013894"><ele>21.0</ele><time>2026-04-23T08:07:33Z</time></trkpt><trkpt lat="-20.073736381388947" lon="119.78932811935084"><ele>20.5</ele><time>2026-04-23T08:07:34Z</time></trkpt><trkpt lat="-20.073610780167705" lon="119.78956809024203"><ele>20.0</ele><time>2026-04-23T08:07:35Z</time></trkpt><trkpt lat="-20.073485418042875" lon="119.78981098606361"><ele>20.0</ele><time>2026-04-23T08:07:36Z</time></trkpt><trkpt lat="-20.073357522396233" lon="119.79004931940534"><ele>20.0</ele><time>2026-04-23T08:07:37Z</time></trkpt><trkpt lat="-20.073219547058137" lon="119.79028836219592"><ele>19.5</ele><time>2026-04-23T08:07:38Z</time></trkpt><trkpt lat="-20.073087433552264" lon="119.79052410696151"><ele>19.0</ele><time>2026-04-23T08:07:39Z</time></trkpt><trkpt lat="-20.072954189760175" lon="119.79075907728827"><ele>19.0</ele><time>2026-04-23T08:07:40Z</time></trkpt><trkpt lat="-20.072819273709715" lon="119.79099563906284"><ele>19.0</ele><time>2026-04-23T08:07:41Z</time></trkpt><trkpt lat="-20.07268650745151" lon="119.79123324782803"><ele>19.0</ele><time>2026-04-23T08:07:42Z</time></trkpt><trkpt lat="-20.072557816922593" lon="119.79147052975593"><ele>19.0</ele><time>2026-04-23T08:07:43Z</time></trkpt><trkpt lat="-20.0724301151063" lon="119.79170884237058"><ele>18.0</ele><time>2026-04-23T08:07:44Z</time></trkpt><trkpt lat="-20.072299168855064" lon="119.79194682166876"><ele>17.0</ele><time>2026-04-23T08:07:45Z</time></trkpt><trkpt lat="-20.072166377784697" lon="119.7921852767146"><ele>17.0</ele><time>2026-04-23T08:07:46Z</time></trkpt><trkpt lat="-20.072031791384664" lon="119.79242206305227"><ele>17.0</ele><time>2026-04-23T08:07:47Z</time></trkpt><trkpt lat="-20.07189274345511" lon="119.79265977186628"><ele>17.0</ele><time>2026-04-23T08:07:48Z</time></trkpt><trkpt lat="-20.071757310786506" lon="119.79290111199028"><ele>17.0</ele><time>2026-04-23T08:07:49Z</time></trkpt><trkpt lat="-20.071622799144574" lon="119.79314535373017"><ele>17.0</ele><time>2026-04-23T08:07:50Z</time></trkpt><trkpt lat="-20.071489180152135" lon="119.79339110080339"><ele>17.0</ele><time>2026-04-23T08:07:51Z</time></trkpt><trkpt lat="-20.07135651273878" lon="119.79363439228567"><ele>17.0</ele><time>2026-04-23T08:07:52Z</time></trkpt><trkpt lat="-20.07122517011384" lon="119.79388092055098"><ele>17.0</ele><time>2026-04-23T08:07:53Z</time></trkpt><trkpt lat="-20.07109281381686" lon="119.79412591523362"><ele>16.5</ele><time>2026-04-23T08:07:54Z</time></trkpt><trkpt lat="-20.07096079297504" lon="119.79436877604084"><ele>16.0</ele><time>2026-04-23T08:07:55Z</time></trkpt><trkpt lat="-20.070828216358816" lon="119.79461157055029"><ele>16.0</ele><time>2026-04-23T08:07:56Z</time></trkpt><trkpt lat="-20.070692198491237" lon="119.79485463340285"><ele>16.0</ele><time>2026-04-23T08:07:57Z</time></trkpt><trkpt lat="-20.07055698517478" lon="119.79509559212508"><ele>16.5</ele><time>2026-04-23T08:07:58Z</time></trkpt><trkpt lat="-20.07042164563727" lon="119.79533492861589"><ele>17.0</ele><time>2026-04-23T08:07:59Z</time></trkpt><trkpt lat="-20.070288752456644" lon="119.79557469434054"><ele>17.0</ele><time>2026-04-23T08:08:00Z</time></trkpt><trkpt lat="-20.07015703651751" lon="119.79581271661493"><ele>17.0</ele><time>2026-04-23T08:08:01Z</time></trkpt><trkpt lat="-20.070026732768586" lon="119.79604906729021"><ele>16.5</ele><time>2026-04-23T08:08:02Z</time></trkpt><trkpt lat="-20.069895886562755" lon="119.79628639552678"><ele>16.0</ele><time>2026-04-23T08:08:03Z</time></trkpt><trkpt lat="-20.069765117942868" lon="119.79651858792222"><ele>16.0</ele><time>2026-04-23T08:08:04Z</time></trkpt><trkpt lat="-20.069633725046373" lon="119.79675330396164"><ele>16.0</ele><time>2026-04-23T08:08:05Z</time></trkpt><trkpt lat="-20.069503453550684" lon="119.79698582720712"><ele>15.0</ele><time>2026-04-23T08:08:06Z</time></trkpt><trkpt lat="-20.069372743730508" lon="119.79721848440127"><ele>14.0</ele><time>2026-04-23T08:08:07Z</time></trkpt><trkpt lat="-20.06924300417797" lon="119.79744970648457"><ele>14.0</ele><time>2026-04-23T08:08:08Z</time></trkpt><trkpt lat="-20.06911428235616" lon="119.79768392103288"><ele>14.0</ele><time>2026-04-23T08:08:09Z</time></trkpt><trkpt lat="-20.068986600883964" lon="119.79791788397473"><ele>13.5</ele><time>2026-04-23T08:08:10Z</time></trkpt><trkpt lat="-20.06885852652631" lon="119.79815194263684"><ele>13.0</ele><time>2026-04-23T08:08:11Z</time></trkpt><trkpt lat="-20.068730422243636" lon="119.79838535020396"><ele>13.5</ele><time>2026-04-23T08:08:12Z</time></trkpt><trkpt lat="-20.068601944798196" lon="119.7986208691945"><ele>14.0</ele><time>2026-04-23T08:08:13Z</time></trkpt><trkpt lat="-20.068473254811284" lon="119.79885302968404"><ele>14.0</ele><time>2026-04-23T08:08:14Z</time></trkpt><trkpt lat="-20.068345161686352" lon="119.79908660320754"><ele>14.0</ele><time>2026-04-23T08:08:15Z</time></trkpt><trkpt lat="-20.068218119905676" lon="119.79931583510353"><ele>14.5</ele><time>2026-04-23T08:08:16Z</time></trkpt><trkpt lat="-20.068089305770954" lon="119.7995423074069"><ele>15.0</ele><time>2026-04-23T08:08:17Z</time></trkpt><trkpt lat="-20.06795967647649" lon="119.79976833082058"><ele>15.0</ele><time>2026-04-23T08:08:18Z</time></trkpt><trkpt lat="-20.067832282404535" lon="119.79999410656667"><ele>15.0</ele><time>2026-04-23T08:08:19Z</time></trkpt><trkpt lat="-20.067705586833625" lon="119.80021849070909"><ele>14.0</ele><time>2026-04-23T08:08:20.001Z</time></trkpt><trkpt lat="-20.06758060411745" lon="119.80044434002504"><ele>13.0</ele><time>2026-04-23T08:08:21Z</time></trkpt><trkpt lat="-20.06745558876774" lon="119.80066904770626"><ele>13.0</ele><time>2026-04-23T08:08:22.001Z</time></trkpt><trkpt lat="-20.067332626069117" lon="119.80089527996843"><ele>13.0</ele><time>2026-04-23T08:08:23.001Z</time></trkpt><trkpt lat="-20.06720847127149" lon="119.80112208406887"><ele>13.5</ele><time>2026-04-23T08:08:24.001Z</time></trkpt><trkpt lat="-20.067085505725558" lon="119.80134780567332"><ele>14.0</ele><time>2026-04-23T08:08:25.001Z</time></trkpt><trkpt lat="-20.066958915458894" lon="119.80157275347001"><ele>14.0</ele><time>2026-04-23T08:08:26.001Z</time></trkpt><trkpt lat="-20.06683618168632" lon="119.8017944749748"><ele>14.0</ele><time>2026-04-23T08:08:27.001Z</time></trkpt><trkpt lat="-20.066709478411465" lon="119.80201781904582"><ele>13.0</ele><time>2026-04-23T08:08:28.001Z</time></trkpt><trkpt lat="-20.06658112668939" lon="119.80224181352808"><ele>12.0</ele><time>2026-04-23T08:08:29.001Z</time></trkpt><trkpt lat="-20.066454153896288" lon="119.80246572111692"><ele>12.0</ele><time>2026-04-23T08:08:30.001Z</time></trkpt><trkpt lat="-20.0663302414429" lon="119.80269106033357"><ele>12.0</ele><time>2026-04-23T08:08:31.001Z</time></trkpt><trkpt lat="-20.066207399619692" lon="119.80291549663593"><ele>12.0</ele><time>2026-04-23T08:08:32.001Z</time></trkpt><trkpt lat="-20.06608611278346" lon="119.80314315683997"><ele>12.0</ele><time>2026-04-23T08:08:33.001Z</time></trkpt><trkpt lat="-20.0659645791263" lon="119.80337166654299"><ele>12.5</ele><time>2026-04-23T08:08:34.001Z</time></trkpt><trkpt lat="-20.06584149607025" lon="119.80360005109586"><ele>13.0</ele><time>2026-04-23T08:08:35.001Z</time></trkpt><trkpt lat="-20.065715206176503" lon="119.80383027776162"><ele>13.0</ele><time>2026-04-23T08:08:36.001Z</time></trkpt><trkpt lat="-20.065583247440536" lon="119.80406348162067"><ele>13.0</ele><time>2026-04-23T08:08:37.001Z</time></trkpt><trkpt lat="-20.065449307925224" lon="119.80429803257046"><ele>13.0</ele><time>2026-04-23T08:08:38.001Z</time></trkpt><trkpt lat="-20.065314528327807" lon="119.80453348391558"><ele>13.0</ele><time>2026-04-23T08:08:39.001Z</time></trkpt><trkpt lat="-20.065183137117174" lon="119.80477047078078"><ele>13.0</ele><time>2026-04-23T08:08:40.001Z</time></trkpt><trkpt lat="-20.06505057872652" lon="119.80501034069681"><ele>13.0</ele><time>2026-04-23T08:08:41.001Z</time></trkpt><trkpt lat="-20.06492020770515" lon="119.80524880860995"><ele>12.5</ele><time>2026-04-23T08:08:42.001Z</time></trkpt><trkpt lat="-20.064788533747283" lon="119.80548557153195"><ele>12.0</ele><time>2026-04-23T08:08:43.001Z</time></trkpt><trkpt lat="-20.064657773762445" lon="119.80572330217593"><ele>12.0</ele><time>2026-04-23T08:08:44.001Z</time></trkpt><trkpt lat="-20.064528456494717" lon="119.80595659569407"><ele>12.0</ele><time>2026-04-23T08:08:45.001Z</time></trkpt><trkpt lat="-20.064396433401463" lon="119.80618950373136"><ele>12.5</ele><time>2026-04-23T08:08:46.001Z</time></trkpt><trkpt lat="-20.0642599055936" lon="119.80642283317015"><ele>13.0</ele><time>2026-04-23T08:08:47.001Z</time></trkpt><trkpt lat="-20.064125238374974" lon="119.80665316706289"><ele>12.5</ele><time>2026-04-23T08:08:48.001Z</time></trkpt><trkpt lat="-20.063994594253348" lon="119.80688610810157"><ele>12.0</ele><time>2026-04-23T08:08:49.001Z</time></trkpt><trkpt lat="-20.063871009315065" lon="119.8071195397163"><ele>12.0</ele><time>2026-04-23T08:08:50.001Z</time></trkpt><trkpt lat="-20.06374729831165" lon="119.80735280723756"><ele>12.0</ele><time>2026-04-23T08:08:51.001Z</time></trkpt><trkpt lat="-20.063625222661283" lon="119.80758336203021"><ele>13.0</ele><time>2026-04-23T08:08:52.001Z</time></trkpt><trkpt lat="-20.063500982407966" lon="119.80781410408485"><ele>14.0</ele><time>2026-04-23T08:08:53.001Z</time></trkpt><trkpt lat="-20.063377832164793" lon="119.80803895025616"><ele>14.0</ele><time>2026-04-23T08:08:54.001Z</time></trkpt><trkpt lat="-20.063249142461814" lon="119.80826291769522"><ele>14.0</ele><time>2026-04-23T08:08:55.001Z</time></trkpt><trkpt lat="-20.063121673274505" lon="119.80848329433086"><ele>14.0</ele><time>2026-04-23T08:08:56.001Z</time></trkpt><trkpt lat="-20.062993898386605" lon="119.80870343773074"><ele>14.0</ele><time>2026-04-23T08:08:57.001Z</time></trkpt><trkpt lat="-20.062868494987455" lon="119.80892547434401"><ele>14.0</ele><time>2026-04-23T08:08:58.001Z</time></trkpt><trkpt lat="-20.062745865669434" lon="119.80914489104744"><ele>14.0</ele><time>2026-04-23T08:08:59.001Z</time></trkpt><trkpt lat="-20.06262428973886" lon="119.80936645966337"><ele>14.5</ele><time>2026-04-23T08:09:00.001Z</time></trkpt><trkpt lat="-20.062499648479744" lon="119.80958984973277"><ele>15.0</ele><time>2026-04-23T08:09:01.001Z</time></trkpt><trkpt lat="-20.06237114092054" lon="119.809816951261"><ele>15.0</ele><time>2026-04-23T08:09:02.001Z</time></trkpt><trkpt lat="-20.062239811087913" lon="119.81004664488029"><ele>15.0</ele><time>2026-04-23T08:09:03.001Z</time></trkpt><trkpt lat="-20.06211494903014" lon="119.8102770255595"><ele>15.5</ele><time>2026-04-23T08:09:04.001Z</time></trkpt><trkpt lat="-20.06198884139679" lon="119.81051075524043"><ele>16.0</ele><time>2026-04-23T08:09:05.001Z</time></trkpt><trkpt lat="-20.061864252337827" lon="119.81074334410992"><ele>16.0</ele><time>2026-04-23T08:09:06.001Z</time></trkpt><trkpt lat="-20.061736891505703" lon="119.81097587848986"><ele>16.0</ele><time>2026-04-23T08:09:07.001Z</time></trkpt><trkpt lat="-20.06160864043995" lon="119.81120710302136"><ele>16.0</ele><time>2026-04-23T08:09:08.001Z</time></trkpt><trkpt lat="-20.06147909293104" lon="119.81143705059381"><ele>16.0</ele><time>2026-04-23T08:09:09.001Z</time></trkpt><trkpt lat="-20.061351544685564" lon="119.81167026981397"><ele>16.5</ele><time>2026-04-23T08:09:10.001Z</time></trkpt><trkpt lat="-20.0612233825493" lon="119.8119000100394"><ele>17.0</ele><time>2026-04-23T08:09:10.999Z</time></trkpt><trkpt lat="-20.061093945190745" lon="119.81212939279011"><ele>17.0</ele><time>2026-04-23T08:09:11.999Z</time></trkpt><trkpt lat="-20.06096371220165" lon="119.81236017538394"><ele>17.0</ele><time>2026-04-23T08:09:12.999Z</time></trkpt><trkpt lat="-20.06083368380685" lon="119.81259175160295"><ele>17.5</ele><time>2026-04-23T08:09:13.999Z</time></trkpt><trkpt lat="-20.06070585007492" lon="119.8128230554133"><ele>18.0</ele><time>2026-04-23T08:09:14.999Z</time></trkpt><trkpt lat="-20.060578144653455" lon="119.81305789799703"><ele>18.0</ele><time>2026-04-23T08:09:15.999Z</time></trkpt><trkpt lat="-20.0604517000425" lon="119.81328797224398"><ele>18.0</ele><time>2026-04-23T08:09:16.999Z</time></trkpt><trkpt lat="-20.060324118986106" lon="119.81351944002226"><ele>18.5</ele><time>2026-04-23T08:09:17.999Z</time></trkpt><trkpt lat="-20.060197008749654" lon="119.81374814812419"><ele>19.0</ele><time>2026-04-23T08:09:18.999Z</time></trkpt><trkpt lat="-20.06006884199856" lon="119.81397925293639"><ele>19.0</ele><time>2026-04-23T08:09:19.999Z</time></trkpt><trkpt lat="-20.059939531169565" lon="119.81420795669965"><ele>19.0</ele><time>2026-04-23T08:09:20.999Z</time></trkpt><trkpt lat="-20.059814279353645" lon="119.8144344596884"><ele>19.0</ele><time>2026-04-23T08:09:21.999Z</time></trkpt><trkpt lat="-20.05968830133808" lon="119.81466010794999"><ele>19.0</ele><time>2026-04-23T08:09:22.999Z</time></trkpt><trkpt lat="-20.05956320460354" lon="119.81488062826442"><ele>19.0</ele><time>2026-04-23T08:09:23.999Z</time></trkpt><trkpt lat="-20.059440003571364" lon="119.81510597053558"><ele>19.0</ele><time>2026-04-23T08:09:24.999Z</time></trkpt><trkpt lat="-20.05931902694699" lon="119.81532741672908"><ele>19.0</ele><time>2026-04-23T08:09:25.999Z</time></trkpt><trkpt lat="-20.0591996464558" lon="119.81554747001476"><ele>19.0</ele><time>2026-04-23T08:09:26.999Z</time></trkpt><trkpt lat="-20.059080135909532" lon="119.81576651983067"><ele>20.0</ele><time>2026-04-23T08:09:27.999Z</time></trkpt><trkpt lat="-20.05896143298406" lon="119.8159845453405"><ele>21.0</ele><time>2026-04-23T08:09:28.999Z</time></trkpt><trkpt lat="-20.058839551414703" lon="119.81620764426124"><ele>21.5</ele><time>2026-04-23T08:09:29.999Z</time></trkpt><trkpt lat="-20.058717546889067" lon="119.8164303704774"><ele>22.0</ele><time>2026-04-23T08:09:30.999Z</time></trkpt><trkpt lat="-20.05859355131012" lon="119.8166475671446"><ele>22.0</ele><time>2026-04-23T08:09:31.999Z</time></trkpt><trkpt lat="-20.058466509187294" lon="119.81686367521613"><ele>22.0</ele><time>2026-04-23T08:09:32.999Z</time></trkpt><trkpt lat="-20.05833677472149" lon="119.81707395338773"><ele>22.0</ele><time>2026-04-23T08:09:33.999Z</time></trkpt><trkpt lat="-20.058210993642522" lon="119.81729052106823"><ele>22.0</ele><time>2026-04-23T08:09:34.999Z</time></trkpt><trkpt lat="-20.05809023962493" lon="119.81750645348866"><ele>21.0</ele><time>2026-04-23T08:09:35.999Z</time></trkpt><trkpt lat="-20.057974699725246" lon="119.81772848254386"><ele>20.0</ele><time>2026-04-23T08:09:36.999Z</time></trkpt><trkpt lat="-20.057858912645024" lon="119.81795146003451"><ele>20.0</ele><time>2026-04-23T08:09:37.999Z</time></trkpt><trkpt lat="-20.057743411575782" lon="119.81817410648104"><ele>20.0</ele><time>2026-04-23T08:09:38.999Z</time></trkpt><trkpt lat="-20.05762456958396" lon="119.8183915194327"><ele>20.5</ele><time>2026-04-23T08:09:39.999Z</time></trkpt><trkpt lat="-20.057501360629946" lon="119.81861286899134"><ele>21.0</ele><time>2026-04-23T08:09:40.999Z</time></trkpt><trkpt lat="-20.05737447966178" lon="119.81883157909134"><ele>22.5</ele><time>2026-04-23T08:09:42Z</time></trkpt><trkpt lat="-20.057249492915858" lon="119.81905252711528"><ele>24.0</ele><time>2026-04-23T08:09:43Z</time></trkpt><trkpt lat="-20.057122773706197" lon="119.81927470899653"><ele>24.0</ele><time>2026-04-23T08:09:44Z</time></trkpt><trkpt lat="-20.0569982815409" lon="119.8194948389382"><ele>24.0</ele><time>2026-04-23T08:09:45Z</time></trkpt><trkpt lat="-20.056874954487064" lon="119.81971989150554"><ele>24.0</ele><time>2026-04-23T08:09:46Z</time></trkpt><trkpt lat="-20.056752776667466" lon="119.81994189052052"><ele>24.0</ele><time>2026-04-23T08:09:47Z</time></trkpt><trkpt lat="-20.056629391159795" lon="119.82015953069366"><ele>24.0</ele><time>2026-04-23T08:09:48Z</time></trkpt><trkpt lat="-20.05650489208295" lon="119.82037983841266"><ele>24.0</ele><time>2026-04-23T08:09:49Z</time></trkpt><trkpt lat="-20.05638165135778" lon="119.82059776395653"><ele>24.0</ele><time>2026-04-23T08:09:50Z</time></trkpt><trkpt lat="-20.056257069012762" lon="119.82081621722173"><ele>24.0</ele><time>2026-04-23T08:09:51Z</time></trkpt><trkpt lat="-20.056132547659228" lon="119.8210431513793"><ele>23.0</ele><time>2026-04-23T08:09:52Z</time></trkpt><trkpt lat="-20.056009207547547" lon="119.82127252017267"><ele>22.0</ele><time>2026-04-23T08:09:53Z</time></trkpt><trkpt lat="-20.055887332142408" lon="119.82150295923077"><ele>22.0</ele><time>2026-04-23T08:09:54Z</time></trkpt><trkpt lat="-20.05576850911545" lon="119.82172530576423"><ele>22.0</ele><time>2026-04-23T08:09:55Z</time></trkpt><trkpt lat="-20.055658518738184" lon="119.8219315578259"><ele>22.0</ele><time>2026-04-23T08:09:56Z</time></trkpt><trkpt lat="-20.05555678882928" lon="119.82212520722673"><ele>22.0</ele><time>2026-04-23T08:09:57Z</time></trkpt><trkpt lat="-20.055460297712415" lon="119.82231323950715"><ele>22.0</ele><time>2026-04-23T08:09:58Z</time></trkpt><trkpt lat="-20.05537247033464" lon="119.82249108587547"><ele>22.333333333333332</ele><time>2026-04-23T08:09:59Z</time></trkpt><trkpt lat="-20.0552877283857" lon="119.82265866889124"><ele>22.666666666666668</ele><time>2026-04-23T08:10:00Z</time></trkpt><trkpt lat="-20.05520480397625" lon="119.82281939319226"><ele>23.0</ele><time>2026-04-23T08:10:01Z</time></trkpt><trkpt lat="-20.055125772917936" lon="119.82296882043045"><ele>23.0</ele><time>2026-04-23T08:10:02Z</time></trkpt><trkpt lat="-20.055051806466675" lon="119.82310446378537"><ele>23.0</ele><time>2026-04-23T08:10:03Z</time></trkpt><trkpt lat="-20.054993144264493" lon="119.82323032759848"><ele>23.0</ele><time>2026-04-23T08:10:04Z</time></trkpt><trkpt lat="-20.054945449478147" lon="119.82332491732595"><ele>23.0</ele><time>2026-04-23T08:10:05Z</time></trkpt><trkpt lat="-20.054905739932963" lon="119.82338506891924"><ele>23.0</ele><time>2026-04-23T08:10:06Z</time></trkpt><trkpt lat="-20.054832825154758" lon="119.82342037057818"><ele>23.0</ele><time>2026-04-23T08:10:08Z</time></trkpt><trkpt lat="-20.054629354473725" lon="119.82335344285703"><ele>23.0</ele><time>2026-04-23T08:10:11Z</time></trkpt><trkpt lat="-20.05453296256323" lon="119.82329740551884"><ele>23.0</ele><time>2026-04-23T08:10:12Z</time></trkpt><trkpt lat="-20.054417449086177" lon="119.82323679428308"><ele>23.0</ele><time>2026-04-23T08:10:13Z</time></trkpt><trkpt lat="-20.054284816159058" lon="119.82317419826292"><ele>23.0</ele><time>2026-04-23T08:10:14Z</time></trkpt><trkpt lat="-20.054137322931176" lon="119.82310420719412"><ele>23.0</ele><time>2026-04-23T08:10:15Z</time></trkpt><trkpt lat="-20.053967363042936" lon="119.82301954035877"><ele>23.333333333333336</ele><time>2026-04-23T08:10:16Z</time></trkpt><trkpt lat="-20.05380205096092" lon="119.82293544772297"><ele>23.666666666666668</ele><time>2026-04-23T08:10:17Z</time></trkpt><trkpt lat="-20.05362495923127" lon="119.82284716614888"><ele>24.0</ele><time>2026-04-23T08:10:18Z</time></trkpt><trkpt lat="-20.053432010434474" lon="119.82274890903047"><ele>24.0</ele><time>2026-04-23T08:10:19Z</time></trkpt><trkpt lat="-20.05322906200385" lon="119.82264184767853"><ele>24.0</ele><time>2026-04-23T08:10:20Z</time></trkpt><trkpt lat="-20.053019693688935" lon="119.82253606354865"><ele>24.0</ele><time>2026-04-23T08:10:21Z</time></trkpt><trkpt lat="-20.05281059290114" lon="119.82243473573696"><ele>24.0</ele><time>2026-04-23T08:10:22Z</time></trkpt><trkpt lat="-20.05258759631813" lon="119.82232579583935"><ele>24.5</ele><time>2026-04-23T08:10:23Z</time></trkpt><trkpt lat="-20.05236062097538" lon="119.8222150852544"><ele>25.0</ele><time>2026-04-23T08:10:24Z</time></trkpt><trkpt lat="-20.05213843117001" lon="119.82210334269304"><ele>25.0</ele><time>2026-04-23T08:10:25Z</time></trkpt><trkpt lat="-20.051927160793912" lon="119.821991262985"><ele>25.0</ele><time>2026-04-23T08:10:26Z</time></trkpt><trkpt lat="-20.05171518565019" lon="119.82187926856031"><ele>25.0</ele><time>2026-04-23T08:10:27Z</time></trkpt><trkpt lat="-20.051497659414352" lon="119.82176597514255"><ele>25.0</ele><time>2026-04-23T08:10:28Z</time></trkpt><trkpt lat="-20.05128143911685" lon="119.82165836302777"><ele>25.0</ele><time>2026-04-23T08:10:29Z</time></trkpt><trkpt lat="-20.05106215785588" lon="119.82154994943012"><ele>25.0</ele><time>2026-04-23T08:10:30Z</time></trkpt><trkpt lat="-20.050844913791096" lon="119.82144305484361"><ele>25.5</ele><time>2026-04-23T08:10:31Z</time></trkpt><trkpt lat="-20.050628036618175" lon="119.82133614735842"><ele>26.0</ele><time>2026-04-23T08:10:32Z</time></trkpt><trkpt lat="-20.05040871822112" lon="119.82122415162203"><ele>26.0</ele><time>2026-04-23T08:10:33Z</time></trkpt><trkpt lat="-20.050188102939536" lon="119.821110746431"><ele>26.0</ele><time>2026-04-23T08:10:34Z</time></trkpt><trkpt lat="-20.049966693551994" lon="119.82099482307179"><ele>25.0</ele><time>2026-04-23T08:10:35Z</time></trkpt><trkpt lat="-20.049742435010568" lon="119.82087582486812"><ele>24.0</ele><time>2026-04-23T08:10:36Z</time></trkpt><trkpt lat="-20.049515718715092" lon="119.82075615082643"><ele>24.0</ele><time>2026-04-23T08:10:37Z</time></trkpt><trkpt lat="-20.049286735649247" lon="119.8206373012032"><ele>24.0</ele><time>2026-04-23T08:10:38Z</time></trkpt><trkpt lat="-20.049053240579823" lon="119.82051664942456"><ele>23.5</ele><time>2026-04-23T08:10:39Z</time></trkpt><trkpt lat="-20.048816726069912" lon="119.82039661903346"><ele>23.0</ele><time>2026-04-23T08:10:40Z</time></trkpt><trkpt lat="-20.048579043861974" lon="119.82027800399125"><ele>23.0</ele><time>2026-04-23T08:10:41Z</time></trkpt><trkpt lat="-20.04834338315351" lon="119.82015932112073"><ele>23.0</ele><time>2026-04-23T08:10:42Z</time></trkpt><trkpt lat="-20.048117633900862" lon="119.82001602090354"><ele>22.5</ele><time>2026-04-23T08:10:43Z</time></trkpt><trkpt lat="-20.047882438037202" lon="119.81989113394233"><ele>22.0</ele><time>2026-04-23T08:10:44Z</time></trkpt><trkpt lat="-20.047640890565862" lon="119.81978451519613"><ele>23.0</ele><time>2026-04-23T08:10:45Z</time></trkpt><trkpt lat="-20.04741021374754" lon="119.8196593377547"><ele>24.0</ele><time>2026-04-23T08:10:46Z</time></trkpt><trkpt lat="-20.047180830884663" lon="119.81953671861419"><ele>24.0</ele><time>2026-04-23T08:10:47Z</time></trkpt><trkpt lat="-20.046952454511878" lon="119.81941597492202"><ele>24.0</ele><time>2026-04-23T08:10:48Z</time></trkpt><trkpt lat="-20.046723212944126" lon="119.81929688170061"><ele>22.5</ele><time>2026-04-23T08:10:49Z</time></trkpt><trkpt lat="-20.046496875901592" lon="119.81917956770747"><ele>21.0</ele><time>2026-04-23T08:10:50Z</time></trkpt><trkpt lat="-20.046271274843523" lon="119.81906349179448"><ele>21.0</ele><time>2026-04-23T08:10:51Z</time></trkpt><trkpt lat="-20.046045073742683" lon="119.81894989174012"><ele>21.0</ele><time>2026-04-23T08:10:52Z</time></trkpt><trkpt lat="-20.04582633282238" lon="119.81882369694753"><ele>21.5</ele><time>2026-04-23T08:10:53Z</time></trkpt><trkpt lat="-20.04559836547747" lon="119.81870771465329"><ele>22.0</ele><time>2026-04-23T08:10:54Z</time></trkpt><trkpt lat="-20.0453617505153" lon="119.81860638054107"><ele>21.5</ele><time>2026-04-23T08:10:55Z</time></trkpt><trkpt lat="-20.045132516977347" lon="119.81848146786469"><ele>21.0</ele><time>2026-04-23T08:10:56Z</time></trkpt><trkpt lat="-20.04490177309217" lon="119.81835771124732"><ele>21.0</ele><time>2026-04-23T08:10:57Z</time></trkpt><trkpt lat="-20.04466796149418" lon="119.8182307150046"><ele>21.0</ele><time>2026-04-23T08:10:58Z</time></trkpt><trkpt lat="-20.04443646451586" lon="119.81810803687212"><ele>21.0</ele><time>2026-04-23T08:10:59Z</time></trkpt><trkpt lat="-20.04419914056734" lon="119.8179796928783"><ele>21.0</ele><time>2026-04-23T08:11:00Z</time></trkpt><trkpt lat="-20.043960346203058" lon="119.81785154940042"><ele>20.5</ele><time>2026-04-23T08:11:01Z</time></trkpt><trkpt lat="-20.043716191391386" lon="119.81772060129683"><ele>20.0</ele><time>2026-04-23T08:11:02Z</time></trkpt><trkpt lat="-20.04346881572708" lon="119.81759251735805"><ele>20.0</ele><time>2026-04-23T08:11:03Z</time></trkpt><trkpt lat="-20.04322160840823" lon="119.81746495227593"><ele>20.0</ele><time>2026-04-23T08:11:04Z</time></trkpt><trkpt lat="-20.04297357560564" lon="119.81733772359816"><ele>20.0</ele><time>2026-04-23T08:11:05Z</time></trkpt><trkpt lat="-20.04272458671801" lon="119.81721078527642"><ele>20.0</ele><time>2026-04-23T08:11:06Z</time></trkpt><trkpt lat="-20.04247766539242" lon="119.81708213458427"><ele>19.0</ele><time>2026-04-23T08:11:07Z</time></trkpt><trkpt lat="-20.042234592419828" lon="119.81695126264341"><ele>18.0</ele><time>2026-04-23T08:11:08Z</time></trkpt><trkpt lat="-20.041990908734146" lon="119.81681961321831"><ele>18.0</ele><time>2026-04-23T08:11:09Z</time></trkpt><trkpt lat="-20.04174725634369" lon="119.81668987774744"><ele>18.0</ele><time>2026-04-23T08:11:10Z</time></trkpt><trkpt lat="-20.04150210754207" lon="119.81656182558777"><ele>18.0</ele><time>2026-04-23T08:11:11Z</time></trkpt><trkpt lat="-20.041256448211332" lon="119.81644049906053"><ele>18.0</ele><time>2026-04-23T08:11:12Z</time></trkpt><trkpt lat="-20.041009497231194" lon="119.8163162388685"><ele>17.5</ele><time>2026-04-23T08:11:13Z</time></trkpt><trkpt lat="-20.040765564637326" lon="119.81618901300655"><ele>17.0</ele><time>2026-04-23T08:11:14Z</time></trkpt><trkpt lat="-20.040523943954284" lon="119.81606324911917"><ele>17.0</ele><time>2026-04-23T08:11:15Z</time></trkpt><trkpt lat="-20.040278847491564" lon="119.81593496993946"><ele>17.0</ele><time>2026-04-23T08:11:16Z</time></trkpt><trkpt lat="-20.040036488508704" lon="119.81581063273796"><ele>16.5</ele><time>2026-04-23T08:11:16.999Z</time></trkpt><trkpt lat="-20.039793489430686" lon="119.8156807966377"><ele>16.0</ele><time>2026-04-23T08:11:17.999Z</time></trkpt><trkpt lat="-20.03955445749149" lon="119.8155476827225"><ele>16.0</ele><time>2026-04-23T08:11:18.999Z</time></trkpt><trkpt lat="-20.039313865401287" lon="119.81541494576568"><ele>16.0</ele><time>2026-04-23T08:11:19.999Z</time></trkpt><trkpt lat="-20.039066616762987" lon="119.8152825780516"><ele>16.0</ele><time>2026-04-23T08:11:20.999Z</time></trkpt><trkpt lat="-20.03881672689197" lon="119.81515230637437"><ele>16.0</ele><time>2026-04-23T08:11:21.999Z</time></trkpt><trkpt lat="-20.03856494904073" lon="119.81501967956349"><ele>16.0</ele><time>2026-04-23T08:11:22.999Z</time></trkpt><trkpt lat="-20.038316821991508" lon="119.81489023144482"><ele>16.0</ele><time>2026-04-23T08:11:23.999Z</time></trkpt><trkpt lat="-20.03807164007096" lon="119.81476427710233"><ele>16.0</ele><time>2026-04-23T08:11:24.999Z</time></trkpt><trkpt lat="-20.03782642869076" lon="119.8146378856016"><ele>16.0</ele><time>2026-04-23T08:11:25.999Z</time></trkpt><trkpt lat="-20.037581543850756" lon="119.81450954395291"><ele>15.0</ele><time>2026-04-23T08:11:26.999Z</time></trkpt><trkpt lat="-20.03734049639783" lon="119.8143814224014"><ele>14.0</ele><time>2026-04-23T08:11:27.999Z</time></trkpt><trkpt lat="-20.037100511848834" lon="119.81425471393243"><ele>14.0</ele><time>2026-04-23T08:11:28.999Z</time></trkpt><trkpt lat="-20.036853991405337" lon="119.8141271974"><ele>14.0</ele><time>2026-04-23T08:11:29.999Z</time></trkpt><trkpt lat="-20.03660854443608" lon="119.81400336688421"><ele>14.0</ele><time>2026-04-23T08:11:30.999Z</time></trkpt><trkpt lat="-20.036365085415255" lon="119.81387893450848"><ele>14.0</ele><time>2026-04-23T08:11:31.999Z</time></trkpt><trkpt lat="-20.0361222699229" lon="119.81375374581718"><ele>14.0</ele><time>2026-04-23T08:11:32.999Z</time></trkpt><trkpt lat="-20.035877038938764" lon="119.81362707575865"><ele>14.0</ele><time>2026-04-23T08:11:33.999Z</time></trkpt><trkpt lat="-20.035632643090047" lon="119.81349998214922"><ele>13.5</ele><time>2026-04-23T08:11:34.999Z</time></trkpt><trkpt lat="-20.035388596069094" lon="119.81337314331616"><ele>13.0</ele><time>2026-04-23T08:11:35.999Z</time></trkpt><trkpt lat="-20.035145620001355" lon="119.8132484889114"><ele>13.0</ele><time>2026-04-23T08:11:36.999Z</time></trkpt><trkpt lat="-20.034913095311964" lon="119.81312574684189"><ele>13.0</ele><time>2026-04-23T08:11:37.999Z</time></trkpt><trkpt lat="-20.03469961247663" lon="119.81301117363905"><ele>13.0</ele><time>2026-04-23T08:11:38.999Z</time></trkpt><trkpt lat="-20.034487826649936" lon="119.81290361566464"><ele>13.0</ele><time>2026-04-23T08:11:39.999Z</time></trkpt><trkpt lat="-20.0342794911496" lon="119.81279700341938"><ele>13.0</ele><time>2026-04-23T08:11:40.999Z</time></trkpt><trkpt lat="-20.034074264964968" lon="119.81268643289455"><ele>13.0</ele><time>2026-04-23T08:11:41.999Z</time></trkpt><trkpt lat="-20.033872177100257" lon="119.8125841820369"><ele>12.666666666666666</ele><time>2026-04-23T08:11:42.999Z</time></trkpt><trkpt lat="-20.033671058681993" lon="119.81248464480474"><ele>12.333333333333332</ele><time>2026-04-23T08:11:43.999Z</time></trkpt><trkpt lat="-20.033473940214286" lon="119.8123820710717"><ele>12.0</ele><time>2026-04-23T08:11:44.999Z</time></trkpt><trkpt lat="-20.033274998987178" lon="119.81227061001557"><ele>12.0</ele><time>2026-04-23T08:11:45.999Z</time></trkpt><trkpt lat="-20.033072432512665" lon="119.81215835660676"><ele>12.0</ele><time>2026-04-23T08:11:46.999Z</time></trkpt><trkpt lat="-20.03287133708881" lon="119.81205778707178"><ele>12.0</ele><time>2026-04-23T08:11:47.999Z</time></trkpt><trkpt lat="-20.032663584054443" lon="119.81195294481846"><ele>12.0</ele><time>2026-04-23T08:11:48.999Z</time></trkpt><trkpt lat="-20.032452943732665" lon="119.81184452311062"><ele>11.5</ele><time>2026-04-23T08:11:49.999Z</time></trkpt><trkpt lat="-20.03223822626123" lon="119.8117341506025"><ele>11.0</ele><time>2026-04-23T08:11:50.999Z</time></trkpt><trkpt lat="-20.03202478052784" lon="119.81162201063329"><ele>11.0</ele><time>2026-04-23T08:11:52Z</time></trkpt><trkpt lat="-20.03180416688549" lon="119.8115073609789"><ele>11.0</ele><time>2026-04-23T08:11:53Z</time></trkpt><trkpt lat="-20.031584974600978" lon="119.81139418752134"><ele>11.0</ele><time>2026-04-23T08:11:54Z</time></trkpt><trkpt lat="-20.03135936274722" lon="119.81127802600803"><ele>11.0</ele><time>2026-04-23T08:11:55Z</time></trkpt><trkpt lat="-20.0311358849628" lon="119.81116213597092"><ele>11.0</ele><time>2026-04-23T08:11:56Z</time></trkpt><trkpt lat="-20.03090111902562" lon="119.81104056999605"><ele>11.0</ele><time>2026-04-23T08:11:57Z</time></trkpt><trkpt lat="-20.030671331763497" lon="119.81092054813348"><ele>11.0</ele><time>2026-04-23T08:11:58Z</time></trkpt><trkpt lat="-20.030436590730563" lon="119.81079944611247"><ele>11.0</ele><time>2026-04-23T08:11:59Z</time></trkpt><trkpt lat="-20.030199254392603" lon="119.81067639875948"><ele>11.5</ele><time>2026-04-23T08:12:00Z</time></trkpt><trkpt lat="-20.02996084920872" lon="119.81055147012336"><ele>12.0</ele><time>2026-04-23T08:12:01Z</time></trkpt><trkpt lat="-20.02972308152149" lon="119.81042322466688"><ele>12.0</ele><time>2026-04-23T08:12:02Z</time></trkpt><trkpt lat="-20.02948620349778" lon="119.81029357581937"><ele>12.0</ele><time>2026-04-23T08:12:03Z</time></trkpt><trkpt lat="-20.029248236416795" lon="119.81016671382466"><ele>11.5</ele><time>2026-04-23T08:12:04Z</time></trkpt><trkpt lat="-20.029008867371793" lon="119.81004119030624"><ele>11.0</ele><time>2026-04-23T08:12:05Z</time></trkpt><trkpt lat="-20.02876922121544" lon="119.80991661369409"><ele>11.0</ele><time>2026-04-23T08:12:06Z</time></trkpt><trkpt lat="-20.028521321461234" lon="119.80978775662534"><ele>11.0</ele><time>2026-04-23T08:12:07Z</time></trkpt><trkpt lat="-20.028277524700293" lon="119.8096604056931"><ele>11.5</ele><time>2026-04-23T08:12:08Z</time></trkpt><trkpt lat="-20.02803680643959" lon="119.80953138938366"><ele>12.0</ele><time>2026-04-23T08:12:09Z</time></trkpt><trkpt lat="-20.027798330794834" lon="119.80940326525946"><ele>12.0</ele><time>2026-04-23T08:12:10Z</time></trkpt><trkpt lat="-20.02756020923972" lon="119.80927984148215"><ele>12.0</ele><time>2026-04-23T08:12:11Z</time></trkpt><trkpt lat="-20.02732054576457" lon="119.80915639793976"><ele>12.0</ele><time>2026-04-23T08:12:12Z</time></trkpt><trkpt lat="-20.027080224178142" lon="119.80903131688028"><ele>12.0</ele><time>2026-04-23T08:12:13Z</time></trkpt><trkpt lat="-20.026835741273622" lon="119.808903102894"><ele>11.5</ele><time>2026-04-23T08:12:14Z</time></trkpt><trkpt lat="-20.02659268407703" lon="119.80877718579382"><ele>11.0</ele><time>2026-04-23T08:12:15Z</time></trkpt><trkpt lat="-20.026346659843306" lon="119.80865187218512"><ele>11.0</ele><time>2026-04-23T08:12:16Z</time></trkpt><trkpt lat="-20.026101085613316" lon="119.80852559173212"><ele>11.0</ele><time>2026-04-23T08:12:17Z</time></trkpt><trkpt lat="-20.025853901138824" lon="119.80839775830808"><ele>12.0</ele><time>2026-04-23T08:12:18Z</time></trkpt><trkpt lat="-20.02560574527427" lon="119.80826998027624"><ele>13.0</ele><time>2026-04-23T08:12:19Z</time></trkpt><trkpt lat="-20.025356610087293" lon="119.80814106670395"><ele>13.0</ele><time>2026-04-23T08:12:20Z</time></trkpt><trkpt lat="-20.02510580797376" lon="119.80801196893196"><ele>13.0</ele><time>2026-04-23T08:12:21Z</time></trkpt><trkpt lat="-20.02485019735683" lon="119.80787827794413"><ele>12.0</ele><time>2026-04-23T08:12:22Z</time></trkpt><trkpt lat="-20.02459698218128" lon="119.80774380441466"><ele>11.0</ele><time>2026-04-23T08:12:23Z</time></trkpt><trkpt lat="-20.02434579276788" lon="119.80761409818851"><ele>11.0</ele><time>2026-04-23T08:12:24Z</time></trkpt><trkpt lat="-20.0240977911725" lon="119.80748527133218"><ele>11.0</ele><time>2026-04-23T08:12:25Z</time></trkpt><trkpt lat="-20.023851529156104" lon="119.80735797694679"><ele>11.0</ele><time>2026-04-23T08:12:26Z</time></trkpt><trkpt lat="-20.02360326448901" lon="119.80722993988626"><ele>11.0</ele><time>2026-04-23T08:12:27Z</time></trkpt><trkpt lat="-20.023352774513363" lon="119.80709917403955"><ele>12.0</ele><time>2026-04-23T08:12:28Z</time></trkpt><trkpt lat="-20.023103287580764" lon="119.8069673971639"><ele>13.0</ele><time>2026-04-23T08:12:29Z</time></trkpt><trkpt lat="-20.022853386326556" lon="119.80683427048727"><ele>13.0</ele><time>2026-04-23T08:12:30Z</time></trkpt><trkpt lat="-20.022603990121816" lon="119.80670369901078"><ele>13.0</ele><time>2026-04-23T08:12:31Z</time></trkpt><trkpt lat="-20.022352340495427" lon="119.80657338972925"><ele>13.0</ele><time>2026-04-23T08:12:32Z</time></trkpt><trkpt lat="-20.022101912333632" lon="119.80644428589733"><ele>13.0</ele><time>2026-04-23T08:12:33Z</time></trkpt><trkpt lat="-20.021847971998007" lon="119.80631190619863"><ele>12.5</ele><time>2026-04-23T08:12:34Z</time></trkpt><trkpt lat="-20.02159331403591" lon="119.80617763919368"><ele>12.0</ele><time>2026-04-23T08:12:35Z</time></trkpt><trkpt lat="-20.02134042036366" lon="119.80604613104694"><ele>12.0</ele><time>2026-04-23T08:12:36Z</time></trkpt><trkpt lat="-20.021088784861874" lon="119.80591730993382"><ele>12.0</ele><time>2026-04-23T08:12:37Z</time></trkpt><trkpt lat="-20.02083853672208" lon="119.80578794836546"><ele>12.5</ele><time>2026-04-23T08:12:38Z</time></trkpt><trkpt lat="-20.020590801731892" lon="119.80565606443547"><ele>13.0</ele><time>2026-04-23T08:12:39Z</time></trkpt><trkpt lat="-20.020339385260392" lon="119.8055232758046"><ele>13.0</ele><time>2026-04-23T08:12:40Z</time></trkpt><trkpt lat="-20.02008797675834" lon="119.80539248685372"><ele>13.0</ele><time>2026-04-23T08:12:41Z</time></trkpt><trkpt lat="-20.019834711339406" lon="119.80526225700407"><ele>13.0</ele><time>2026-04-23T08:12:42Z</time></trkpt><trkpt lat="-20.019582223714476" lon="119.8051301103364"><ele>13.0</ele><time>2026-04-23T08:12:43Z</time></trkpt><trkpt lat="-20.019329749095895" lon="119.80499608583713"><ele>14.0</ele><time>2026-04-23T08:12:44Z</time></trkpt><trkpt lat="-20.019076787336243" lon="119.80486387576252"><ele>15.0</ele><time>2026-04-23T08:12:45Z</time></trkpt><trkpt lat="-20.01882639419784" lon="119.80473167829352"><ele>15.0</ele><time>2026-04-23T08:12:46Z</time></trkpt><trkpt lat="-20.018575153453543" lon="119.80460102311403"><ele>15.0</ele><time>2026-04-23T08:12:47Z</time></trkpt><trkpt lat="-20.01832392017976" lon="119.80447066572737"><ele>15.5</ele><time>2026-04-23T08:12:48Z</time></trkpt><trkpt lat="-20.018070696543035" lon="119.80433732428119"><ele>16.0</ele><time>2026-04-23T08:12:49Z</time></trkpt><trkpt lat="-20.017817289718483" lon="119.80420554796035"><ele>16.0</ele><time>2026-04-23T08:12:50Z</time></trkpt><trkpt lat="-20.01756686512216" lon="119.80407312481736"><ele>16.0</ele><time>2026-04-23T08:12:51Z</time></trkpt><trkpt lat="-20.017319699053534" lon="119.80393784943033"><ele>16.0</ele><time>2026-04-23T08:12:52Z</time></trkpt><trkpt lat="-20.017072628086368" lon="119.80380099295013"><ele>16.0</ele><time>2026-04-23T08:12:53Z</time></trkpt><trkpt lat="-20.01682604225891" lon="119.80366863322187"><ele>16.5</ele><time>2026-04-23T08:12:54Z</time></trkpt><trkpt lat="-20.0165781250493" lon="119.80354239119714"><ele>17.0</ele><time>2026-04-23T08:12:55Z</time></trkpt><trkpt lat="-20.016327874059822" lon="119.80341125492116"><ele>17.0</ele><time>2026-04-23T08:12:56Z</time></trkpt><trkpt lat="-20.016073817213453" lon="119.80327977735794"><ele>17.0</ele><time>2026-04-23T08:12:57Z</time></trkpt><trkpt lat="-20.015821140740854" lon="119.80315099809131"><ele>17.5</ele><time>2026-04-23T08:12:58Z</time></trkpt><trkpt lat="-20.015568924475936" lon="119.80301852970751"><ele>18.0</ele><time>2026-04-23T08:12:59Z</time></trkpt><trkpt lat="-20.01531782525682" lon="119.80288827666236"><ele>18.0</ele><time>2026-04-23T08:13:00Z</time></trkpt><trkpt lat="-20.015067396679225" lon="119.80275853010276"><ele>18.0</ele><time>2026-04-23T08:13:01Z</time></trkpt><trkpt lat="-20.014816463023944" lon="119.80262906158983"><ele>17.5</ele><time>2026-04-23T08:13:02Z</time></trkpt><trkpt lat="-20.01456858525099" lon="119.80250133045884"><ele>17.0</ele><time>2026-04-23T08:13:03Z</time></trkpt><trkpt lat="-20.014316705733027" lon="119.80237472518921"><ele>17.5</ele><time>2026-04-23T08:13:04Z</time></trkpt><trkpt lat="-20.014068287772258" lon="119.80225067514893"><ele>18.0</ele><time>2026-04-23T08:13:05Z</time></trkpt><trkpt lat="-20.013822275031156" lon="119.80212561495435"><ele>18.0</ele><time>2026-04-23T08:13:06Z</time></trkpt><trkpt lat="-20.01357783088373" lon="119.80199843008549"><ele>18.0</ele><time>2026-04-23T08:13:07Z</time></trkpt><trkpt lat="-20.0133324450284" lon="119.8018720889068"><ele>18.0</ele><time>2026-04-23T08:13:08Z</time></trkpt><trkpt lat="-20.013087132931947" lon="119.80174657100372"><ele>18.0</ele><time>2026-04-23T08:13:09Z</time></trkpt><trkpt lat="-20.01284334969198" lon="119.80162128958973"><ele>18.0</ele><time>2026-04-23T08:13:10Z</time></trkpt><trkpt lat="-20.01259840453266" lon="119.80149545526463"><ele>18.0</ele><time>2026-04-23T08:13:11Z</time></trkpt><trkpt lat="-20.01235321810477" lon="119.80137156006202"><ele>18.0</ele><time>2026-04-23T08:13:12Z</time></trkpt><trkpt lat="-20.01210774057605" lon="119.80124668316559"><ele>18.0</ele><time>2026-04-23T08:13:13Z</time></trkpt><trkpt lat="-20.01186028873594" lon="119.801120421997"><ele>19.0</ele><time>2026-04-23T08:13:14Z</time></trkpt><trkpt lat="-20.01161114922791" lon="119.80099291770993"><ele>20.0</ele><time>2026-04-23T08:13:15Z</time></trkpt><trkpt lat="-20.01136235548192" lon="119.80086534387121"><ele>20.0</ele><time>2026-04-23T08:13:16Z</time></trkpt><trkpt lat="-20.011113930905573" lon="119.80073704658257"><ele>20.0</ele><time>2026-04-23T08:13:17Z</time></trkpt><trkpt lat="-20.010862806902413" lon="119.80060693935141"><ele>19.5</ele><time>2026-04-23T08:13:18Z</time></trkpt><trkpt lat="-20.010612318749825" lon="119.80047882921185"><ele>19.0</ele><time>2026-04-23T08:13:19Z</time></trkpt><trkpt lat="-20.010360911569073" lon="119.80035345220699"><ele>19.0</ele><time>2026-04-23T08:13:20Z</time></trkpt><trkpt lat="-20.01010744054023" lon="119.80022511148158"><ele>19.0</ele><time>2026-04-23T08:13:21.001Z</time></trkpt><trkpt lat="-20.009857207540662" lon="119.80009954479812"><ele>19.0</ele><time>2026-04-23T08:13:22.001Z</time></trkpt><trkpt lat="-20.00960542263929" lon="119.79997489360638"><ele>19.0</ele><time>2026-04-23T08:13:23Z</time></trkpt><trkpt lat="-20.009356678766306" lon="119.79985134662753"><ele>18.5</ele><time>2026-04-23T08:13:24Z</time></trkpt><trkpt lat="-20.009106499399575" lon="119.79972582007092"><ele>18.0</ele><time>2026-04-23T08:13:25Z</time></trkpt><trkpt lat="-20.008857449432764" lon="119.79959855474799"><ele>18.0</ele><time>2026-04-23T08:13:26Z</time></trkpt><trkpt lat="-20.008603365547494" lon="119.79947065506602"><ele>18.0</ele><time>2026-04-23T08:13:27Z</time></trkpt><trkpt lat="-20.008348783788275" lon="119.79934222109074"><ele>17.5</ele><time>2026-04-23T08:13:28Z</time></trkpt><trkpt lat="-20.008092388814276" lon="119.79921363756864"><ele>17.0</ele><time>2026-04-23T08:13:29Z</time></trkpt><trkpt lat="-20.007839172052186" lon="119.79908702428051"><ele>17.0</ele><time>2026-04-23T08:13:30Z</time></trkpt><trkpt lat="-20.007585800941936" lon="119.79895932755055"><ele>17.0</ele><time>2026-04-23T08:13:31Z</time></trkpt><trkpt lat="-20.007336063529348" lon="119.79883391805708"><ele>16.5</ele><time>2026-04-23T08:13:32Z</time></trkpt><trkpt lat="-20.007086787151596" lon="119.7987090787425"><ele>16.0</ele><time>2026-04-23T08:13:33Z</time></trkpt><trkpt lat="-20.006837133647842" lon="119.79858569404578"><ele>15.0</ele><time>2026-04-23T08:13:34Z</time></trkpt><trkpt lat="-20.00658628807267" lon="119.79846219374349"><ele>14.0</ele><time>2026-04-23T08:13:35Z</time></trkpt><trkpt lat="-20.006335236329193" lon="119.79833900049306"><ele>14.0</ele><time>2026-04-23T08:13:36Z</time></trkpt><trkpt lat="-20.006083559182517" lon="119.79821231253408"><ele>14.0</ele><time>2026-04-23T08:13:37Z</time></trkpt><trkpt lat="-20.005833107238356" lon="119.79808452122272"><ele>13.5</ele><time>2026-04-23T08:13:38Z</time></trkpt><trkpt lat="-20.00558098886878" lon="119.7979566444018"><ele>13.0</ele><time>2026-04-23T08:13:39Z</time></trkpt><trkpt lat="-20.00532753350791" lon="119.79782800405631"><ele>13.0</ele><time>2026-04-23T08:13:40Z</time></trkpt><trkpt lat="-20.005076575683997" lon="119.79770180316468"><ele>13.0</ele><time>2026-04-23T08:13:41Z</time></trkpt><trkpt lat="-20.00482344301983" lon="119.79757801590844"><ele>13.5</ele><time>2026-04-23T08:13:42Z</time></trkpt><trkpt lat="-20.004567736192232" lon="119.79745276162149"><ele>14.0</ele><time>2026-04-23T08:13:43Z</time></trkpt><trkpt lat="-20.004315730143308" lon="119.79732764148531"><ele>14.0</ele><time>2026-04-23T08:13:44Z</time></trkpt><trkpt lat="-20.004065992756306" lon="119.79720203011549"><ele>14.0</ele><time>2026-04-23T08:13:45Z</time></trkpt><trkpt lat="-20.003815512185025" lon="119.79707690003664"><ele>14.0</ele><time>2026-04-23T08:13:46Z</time></trkpt><trkpt lat="-20.003565585356167" lon="119.79695134802742"><ele>14.0</ele><time>2026-04-23T08:13:47Z</time></trkpt><trkpt lat="-20.003314775960455" lon="119.79682701730631"><ele>13.5</ele><time>2026-04-23T08:13:48Z</time></trkpt><trkpt lat="-20.003063744254586" lon="119.79670205577786"><ele>13.0</ele><time>2026-04-23T08:13:49Z</time></trkpt><trkpt lat="-20.002815956093716" lon="119.7965797975711"><ele>13.0</ele><time>2026-04-23T08:13:50Z</time></trkpt><trkpt lat="-20.0025715996631" lon="119.79645929106428"><ele>13.0</ele><time>2026-04-23T08:13:51Z</time></trkpt><trkpt lat="-20.002328951590286" lon="119.79633897246462"><ele>12.5</ele><time>2026-04-23T08:13:52Z</time></trkpt><trkpt lat="-20.002086853175104" lon="119.7962185360568"><ele>12.0</ele><time>2026-04-23T08:13:53Z</time></trkpt><trkpt lat="-20.0018436040317" lon="119.7960985408207"><ele>12.5</ele><time>2026-04-23T08:13:54Z</time></trkpt><trkpt lat="-20.001604350124754" lon="119.7959795735101"><ele>13.0</ele><time>2026-04-23T08:13:55Z</time></trkpt><trkpt lat="-20.001368362570954" lon="119.79586348650982"><ele>13.0</ele><time>2026-04-23T08:13:56Z</time></trkpt><trkpt lat="-20.001134351512846" lon="119.7957492219698"><ele>13.0</ele><time>2026-04-23T08:13:57Z</time></trkpt><trkpt lat="-20.00090172335828" lon="119.79563558318513"><ele>12.5</ele><time>2026-04-23T08:13:58Z</time></trkpt><trkpt lat="-20.000673417395117" lon="119.79552145270193"><ele>12.0</ele><time>2026-04-23T08:13:59Z</time></trkpt><trkpt lat="-20.00045033620829" lon="119.79540968073681"><ele>12.0</ele><time>2026-04-23T08:14:00Z</time></trkpt><trkpt lat="-20.000230848172013" lon="119.79530029095713"><ele>12.0</ele><time>2026-04-23T08:14:01Z</time></trkpt><trkpt lat="-20.000012320903885" lon="119.79519074680627"><ele>12.0</ele><time>2026-04-23T08:14:02Z</time></trkpt><trkpt lat="-19.999793502916795" lon="119.79508111643699"><ele>12.0</ele><time>2026-04-23T08:14:03Z</time></trkpt><trkpt lat="-19.99957444378306" lon="119.79497274170468"><ele>12.0</ele><time>2026-04-23T08:14:04Z</time></trkpt><trkpt lat="-19.999355749885744" lon="119.79486523871545"><ele>12.0</ele><time>2026-04-23T08:14:05Z</time></trkpt><trkpt lat="-19.99913875315763" lon="119.79475812646703"><ele>11.0</ele><time>2026-04-23T08:14:06Z</time></trkpt><trkpt lat="-19.998922491285658" lon="119.79465324654257"><ele>10.0</ele><time>2026-04-23T08:14:07Z</time></trkpt><trkpt lat="-19.998705681014496" lon="119.79454694795155"><ele>10.0</ele><time>2026-04-23T08:14:08Z</time></trkpt><trkpt lat="-19.998487401928486" lon="119.79443980022043"><ele>10.0</ele><time>2026-04-23T08:14:09Z</time></trkpt><trkpt lat="-19.998270167007764" lon="119.794332357094"><ele>10.0</ele><time>2026-04-23T08:14:10Z</time></trkpt><trkpt lat="-19.998049472183464" lon="119.794225979231"><ele>10.0</ele><time>2026-04-23T08:14:11Z</time></trkpt><trkpt lat="-19.997829976267113" lon="119.79411951577642"><ele>10.0</ele><time>2026-04-23T08:14:12Z</time></trkpt><trkpt lat="-19.997611290520254" lon="119.79400884809068"><ele>10.0</ele><time>2026-04-23T08:14:13Z</time></trkpt><trkpt lat="-19.997394187355816" lon="119.79389273781388"><ele>10.0</ele><time>2026-04-23T08:14:14Z</time></trkpt><trkpt lat="-19.9971804955634" lon="119.79378147070652"><ele>10.0</ele><time>2026-04-23T08:14:15Z</time></trkpt><trkpt lat="-19.996970603277013" lon="119.79367464997279"><ele>10.0</ele><time>2026-04-23T08:14:16Z</time></trkpt><trkpt lat="-19.99676593866915" lon="119.79357654773372"><ele>10.0</ele><time>2026-04-23T08:14:17Z</time></trkpt><trkpt lat="-19.99656778053147" lon="119.79348615157872"><ele>10.0</ele><time>2026-04-23T08:14:18Z</time></trkpt><trkpt lat="-19.996366978767533" lon="119.79338905602259"><ele>10.5</ele><time>2026-04-23T08:14:19Z</time></trkpt><trkpt lat="-19.996159025485955" lon="119.79328497254745"><ele>11.0</ele><time>2026-04-23T08:14:20Z</time></trkpt><trkpt lat="-19.995945864501714" lon="119.79317964103004"><ele>10.5</ele><time>2026-04-23T08:14:21Z</time></trkpt><trkpt lat="-19.995730498478963" lon="119.79307282526108"><ele>10.0</ele><time>2026-04-23T08:14:22Z</time></trkpt><trkpt lat="-19.99551369918738" lon="119.79296752778491"><ele>10.0</ele><time>2026-04-23T08:14:23Z</time></trkpt><trkpt lat="-19.995289176091525" lon="119.79285858409914"><ele>10.0</ele><time>2026-04-23T08:14:24Z</time></trkpt><trkpt lat="-19.99506601755503" lon="119.79274922239188"><ele>10.0</ele><time>2026-04-23T08:14:25Z</time></trkpt><trkpt lat="-19.994861722859604" lon="119.79265356383004"><ele>10.0</ele><time>2026-04-23T08:14:26Z</time></trkpt><trkpt lat="-19.994671483059232" lon="119.79256427342153"><ele>10.0</ele><time>2026-04-23T08:14:27Z</time></trkpt><trkpt lat="-19.99448711446147" lon="119.79247464957409"><ele>10.0</ele><time>2026-04-23T08:14:28Z</time></trkpt><trkpt lat="-19.99430384854725" lon="119.79238217441144"><ele>10.0</ele><time>2026-04-23T08:14:29Z</time></trkpt><trkpt lat="-19.99411565067268" lon="119.79228904257124"><ele>10.0</ele><time>2026-04-23T08:14:30Z</time></trkpt><trkpt lat="-19.993922688575505" lon="119.79219555053695"><ele>10.0</ele><time>2026-04-23T08:14:31Z</time></trkpt><trkpt lat="-19.99372929299063" lon="119.79209993041546"><ele>10.0</ele><time>2026-04-23T08:14:32Z</time></trkpt><trkpt lat="-19.99355170812829" lon="119.79201086692449"><ele>10.0</ele><time>2026-04-23T08:14:33Z</time></trkpt><trkpt lat="-19.993390127859413" lon="119.79192985692245"><ele>10.0</ele><time>2026-04-23T08:14:34Z</time></trkpt><trkpt lat="-19.993223899490054" lon="119.791848484441"><ele>10.0</ele><time>2026-04-23T08:14:35Z</time></trkpt><trkpt lat="-19.993043942115634" lon="119.79176270170484"><ele>10.0</ele><time>2026-04-23T08:14:36Z</time></trkpt><trkpt lat="-19.992870348967305" lon="119.7916807341834"><ele>10.0</ele><time>2026-04-23T08:14:37Z</time></trkpt><trkpt lat="-19.99268556412709" lon="119.79159242564766"><ele>10.0</ele><time>2026-04-23T08:14:38Z</time></trkpt><trkpt lat="-19.992496786643535" lon="119.79149885453609"><ele>10.0</ele><time>2026-04-23T08:14:39Z</time></trkpt><trkpt lat="-19.99231706902989" lon="119.79140767168083"><ele>10.333333333333334</ele><time>2026-04-23T08:14:40Z</time></trkpt><trkpt lat="-19.992131634459504" lon="119.79131451596183"><ele>10.666666666666666</ele><time>2026-04-23T08:14:41Z</time></trkpt><trkpt lat="-19.99195006314753" lon="119.79123297472323"><ele>11.0</ele><time>2026-04-23T08:14:42Z</time></trkpt><trkpt lat="-19.991761233773254" lon="119.7911481845044"><ele>11.0</ele><time>2026-04-23T08:14:43Z</time></trkpt><trkpt lat="-19.99156730661615" lon="119.79106028520519"><ele>11.0</ele><time>2026-04-23T08:14:44Z</time></trkpt><trkpt lat="-19.991376270623093" lon="119.79097117489954"><ele>11.0</ele><time>2026-04-23T08:14:45Z</time></trkpt><trkpt lat="-19.991187348335025" lon="119.79088446174099"><ele>11.666666666666666</ele><time>2026-04-23T08:14:46Z</time></trkpt><trkpt lat="-19.99101409960736" lon="119.79080575822226"><ele>12.333333333333332</ele><time>2026-04-23T08:14:47Z</time></trkpt><trkpt lat="-19.99085702471833" lon="119.79073593030202"><ele>13.0</ele><time>2026-04-23T08:14:48Z</time></trkpt><trkpt lat="-19.9907167518736" lon="119.79067474658083"><ele>13.5</ele><time>2026-04-23T08:14:49Z</time></trkpt><trkpt lat="-19.99059859690396" lon="119.79062689489044"><ele>14.0</ele><time>2026-04-23T08:14:50Z</time></trkpt><trkpt lat="-19.990484102268933" lon="119.7905809036143"><ele>14.5</ele><time>2026-04-23T08:14:51Z</time></trkpt><trkpt lat="-19.990370387881036" lon="119.79053133953516"><ele>15.0</ele><time>2026-04-23T08:14:52Z</time></trkpt><trkpt lat="-19.990267943184953" lon="119.79047864800988"><ele>15.0</ele><time>2026-04-23T08:14:53Z</time></trkpt><trkpt lat="-19.990177855374668" lon="119.79041445893237"><ele>15.0</ele><time>2026-04-23T08:14:54Z</time></trkpt><trkpt lat="-19.99009702344627" lon="119.79034611353298"><ele>15.0</ele><time>2026-04-23T08:14:55Z</time></trkpt><trkpt lat="-19.990022674009726" lon="119.79027828968304"><ele>15.0</ele><time>2026-04-23T08:14:56Z</time></trkpt><trkpt lat="-19.989951507353435" lon="119.79021330255088"><ele>15.0</ele><time>2026-04-23T08:14:57Z</time></trkpt><trkpt lat="-19.98988127730411" lon="119.79015593526027"><ele>15.0</ele><time>2026-04-23T08:14:58Z</time></trkpt><trkpt lat="-19.989816115487905" lon="119.79011498882663"><ele>15.0</ele><time>2026-04-23T08:14:59Z</time></trkpt><trkpt lat="-19.989712923950712" lon="119.79008773862216"><ele>15.0</ele><time>2026-04-23T08:15:01Z</time></trkpt><trkpt lat="-19.98964466068158" lon="119.79008181995758"><ele>15.0</ele><time>2026-04-23T08:15:03Z</time></trkpt><trkpt lat="-19.98961385011071" lon="119.79014447750578"><ele>15.0</ele><time>2026-04-23T08:15:25.001Z</time></trkpt><trkpt lat="-19.989561904550406" lon="119.79009082790627"><ele>15.0</ele><time>2026-04-23T08:19:15.001Z</time></trkpt><trkpt lat="-19.98944942098816" lon="119.79007852862738"><ele>15.0</ele><time>2026-04-23T08:19:17.001Z</time></trkpt><trkpt lat="-19.989374094653886" lon="119.7900757466825"><ele>15.0</ele><time>2026-04-23T08:19:18.001Z</time></trkpt><trkpt lat="-19.989294768441983" lon="119.79006867505171"><ele>15.0</ele><time>2026-04-23T08:19:19.001Z</time></trkpt><trkpt lat="-19.989210422812675" lon="119.79005572878879"><ele>15.0</ele><time>2026-04-23T08:19:20.001Z</time></trkpt><trkpt lat="-19.989122416543935" lon="119.79003355487252"><ele>15.0</ele><time>2026-04-23T08:19:21.001Z</time></trkpt><trkpt lat="-19.989037003386944" lon="119.79000415066905"><ele>15.0</ele><time>2026-04-23T08:19:22.001Z</time></trkpt><trkpt lat="-19.988942911329545" lon="119.78996677051578"><ele>14.5</ele><time>2026-04-23T08:19:23.001Z</time></trkpt><trkpt lat="-19.988833217956433" lon="119.78992253320696"><ele>14.0</ele><time>2026-04-23T08:19:24.001Z</time></trkpt><trkpt lat="-19.98871166208517" lon="119.78987351653306"><ele>13.5</ele><time>2026-04-23T08:19:25.001Z</time></trkpt><trkpt lat="-19.98858129080633" lon="119.78982392385367"><ele>13.0</ele><time>2026-04-23T08:19:26.001Z</time></trkpt><trkpt lat="-19.98845031285955" lon="119.78977350872773"><ele>12.75</ele><time>2026-04-23T08:19:27.001Z</time></trkpt><trkpt lat="-19.988319503541913" lon="119.78972307681019"><ele>12.5</ele><time>2026-04-23T08:19:28.001Z</time></trkpt><trkpt lat="-19.98819427692694" lon="119.78967695136517"><ele>12.25</ele><time>2026-04-23T08:19:29.001Z</time></trkpt><trkpt lat="-19.98807635224404" lon="119.78963345771642"><ele>12.0</ele><time>2026-04-23T08:19:30.001Z</time></trkpt><trkpt lat="-19.987955569782635" lon="119.78958733585286"><ele>12.0</ele><time>2026-04-23T08:19:31.001Z</time></trkpt><trkpt lat="-19.987831815521574" lon="119.7895394076433"><ele>12.0</ele><time>2026-04-23T08:19:32.001Z</time></trkpt><trkpt lat="-19.987697828963626" lon="119.7894893344245"><ele>12.0</ele><time>2026-04-23T08:19:33.001Z</time></trkpt><trkpt lat="-19.987560081080975" lon="119.7894355487132"><ele>12.0</ele><time>2026-04-23T08:19:34.001Z</time></trkpt><trkpt lat="-19.987416582014887" lon="119.78937821879109"><ele>11.5</ele><time>2026-04-23T08:19:35.001Z</time></trkpt><trkpt lat="-19.987272055592456" lon="119.78932272778553"><ele>11.0</ele><time>2026-04-23T08:19:36.001Z</time></trkpt><trkpt lat="-19.987132459795596" lon="119.78927001000798"><ele>10.5</ele><time>2026-04-23T08:19:37.001Z</time></trkpt><trkpt lat="-19.986997449504308" lon="119.78922156917162"><ele>10.0</ele><time>2026-04-23T08:19:38.001Z</time></trkpt><trkpt lat="-19.98687313711929" lon="119.78917666737307"><ele>10.0</ele><time>2026-04-23T08:19:39.001Z</time></trkpt><trkpt lat="-19.986759598082347" lon="119.78913475237361"><ele>10.0</ele><time>2026-04-23T08:19:40.001Z</time></trkpt><trkpt lat="-19.986666700527493" lon="119.78910074672272"><ele>10.0</ele><time>2026-04-23T08:19:41Z</time></trkpt><trkpt lat="-19.98658923873107" lon="119.7890712820314"><ele>10.0</ele><time>2026-04-23T08:19:42Z</time></trkpt><trkpt lat="-19.986483953442946" lon="119.78903340256863"><ele>10.0</ele><time>2026-04-23T08:19:44Z</time></trkpt><trkpt lat="-19.986389379412262" lon="119.78901076420782"><ele>9.8</ele><time>2026-04-23T08:19:58Z</time></trkpt><trkpt lat="-19.986263561544668" lon="119.78896256225123"><ele>9.6</ele><time>2026-04-23T08:20:00Z</time></trkpt><trkpt lat="-19.98618951454408" lon="119.78891518629909"><ele>9.4</ele><time>2026-04-23T08:20:01Z</time></trkpt><trkpt lat="-19.986119888582962" lon="119.78885648269788"><ele>9.2</ele><time>2026-04-23T08:20:02Z</time></trkpt><trkpt lat="-19.98603289838084" lon="119.78879908850578"><ele>9.0</ele><time>2026-04-23T08:20:03Z</time></trkpt><trkpt lat="-19.98597184877942" lon="119.78869360635223"><ele>9.0</ele><time>2026-04-23T08:20:04Z</time></trkpt><trkpt lat="-19.98597186554718" lon="119.78856316458825"><ele>9.0</ele><time>2026-04-23T08:20:05Z</time></trkpt><trkpt lat="-19.985987341853562" lon="119.7884394123466"><ele>9.0</ele><time>2026-04-23T08:20:06Z</time></trkpt><trkpt lat="-19.985994345314882" lon="119.78828722747782"><ele>9.0</ele><time>2026-04-23T08:20:07Z</time></trkpt><trkpt lat="-19.98600406753932" lon="119.78811256081619"><ele>8.666666666666666</ele><time>2026-04-23T08:20:08Z</time></trkpt><trkpt lat="-19.986004372457394" lon="119.7879276463297"><ele>8.333333333333332</ele><time>2026-04-23T08:20:09Z</time></trkpt><trkpt lat="-19.986041223778802" lon="119.7877263582065"><ele>8.0</ele><time>2026-04-23T08:20:10Z</time></trkpt><trkpt lat="-19.98608100506266" lon="119.7875205240323"><ele>7.666666666666666</ele><time>2026-04-23T08:20:11Z</time></trkpt><trkpt lat="-19.986128651535513" lon="119.78729842899519"><ele>7.333333333333334</ele><time>2026-04-23T08:20:12Z</time></trkpt><trkpt lat="-19.98617737600531" lon="119.78708027222959"><ele>7.0</ele><time>2026-04-23T08:20:13Z</time></trkpt><trkpt lat="-19.98622369829364" lon="119.78685426385707"><ele>6.666666666666667</ele><time>2026-04-23T08:20:14Z</time></trkpt><trkpt lat="-19.986268929700607" lon="119.78663598638467"><ele>6.333333333333334</ele><time>2026-04-23T08:20:15Z</time></trkpt><trkpt lat="-19.986313512152208" lon="119.7864150051855"><ele>6.0</ele><time>2026-04-23T08:20:16Z</time></trkpt><trkpt lat="-19.986351652795577" lon="119.78621647503404"><ele>6.0</ele><time>2026-04-23T08:20:17Z</time></trkpt><trkpt lat="-19.986386867138613" lon="119.78603020012656"><ele>6.0</ele><time>2026-04-23T08:20:18Z</time></trkpt><trkpt lat="-19.986420992684476" lon="119.78584385276602"><ele>6.0</ele><time>2026-04-23T08:20:19Z</time></trkpt><trkpt lat="-19.986451435724234" lon="119.78565784128871"><ele>6.333333333333334</ele><time>2026-04-23T08:20:20Z</time></trkpt><trkpt lat="-19.986478263120127" lon="119.78546799009541"><ele>6.666666666666667</ele><time>2026-04-23T08:20:21Z</time></trkpt><trkpt lat="-19.986497849289165" lon="119.7852756546832"><ele>7.0</ele><time>2026-04-23T08:20:22Z</time></trkpt><trkpt lat="-19.986511149653946" lon="119.7850735727525"><ele>6.333333333333334</ele><time>2026-04-23T08:20:23Z</time></trkpt><trkpt lat="-19.986513841633883" lon="119.78484782075193"><ele>5.666666666666667</ele><time>2026-04-23T08:20:24Z</time></trkpt><trkpt lat="-19.986505524855847" lon="119.78461161652116"><ele>5.0</ele><time>2026-04-23T08:20:25Z</time></trkpt><trkpt lat="-19.986506407312344" lon="119.78436846854584"><ele>5.333333333333334</ele><time>2026-04-23T08:20:26Z</time></trkpt><trkpt lat="-19.98649047320956" lon="119.7841501546002"><ele>5.666666666666667</ele><time>2026-04-23T08:20:27Z</time></trkpt><trkpt lat="-19.986473749691807" lon="119.78397975572007"><ele>6.0</ele><time>2026-04-23T08:20:28Z</time></trkpt><trkpt lat="-19.986447885270923" lon="119.78384172142157"><ele>6.0</ele><time>2026-04-23T08:20:29Z</time></trkpt><trkpt lat="-19.98641472437999" lon="119.78373762368697"><ele>6.0</ele><time>2026-04-23T08:20:30Z</time></trkpt><trkpt lat="-19.98637078288451" lon="119.78365090263601"><ele>6.0</ele><time>2026-04-23T08:20:31Z</time></trkpt><trkpt lat="-19.986301278467124" lon="119.7835678857988"><ele>6.0</ele><time>2026-04-23T08:20:32Z</time></trkpt><trkpt lat="-19.986221414464456" lon="119.78350385133534"><ele>6.0</ele><time>2026-04-23T08:20:33Z</time></trkpt><trkpt lat="-19.9861141081942" lon="119.78347863967605"><ele>6.0</ele><time>2026-04-23T08:20:34Z</time></trkpt><trkpt lat="-19.985998611292853" lon="119.78345302043047"><ele>6.0</ele><time>2026-04-23T08:20:35Z</time></trkpt><trkpt lat="-19.98586464165893" lon="119.78344089855341"><ele>6.0</ele><time>2026-04-23T08:20:36Z</time></trkpt><trkpt lat="-19.985700662926988" lon="119.78343714716206"><ele>6.0</ele><time>2026-04-23T08:20:37Z</time></trkpt><trkpt lat="-19.985520654023524" lon="119.78343220322007"><ele>6.0</ele><time>2026-04-23T08:20:38Z</time></trkpt><trkpt lat="-19.985330437557895" lon="119.78342266697463"><ele>6.0</ele><time>2026-04-23T08:20:39Z</time></trkpt><trkpt lat="-19.985133505471687" lon="119.78340527821722"><ele>6.0</ele><time>2026-04-23T08:20:40Z</time></trkpt><trkpt lat="-19.98493469148121" lon="119.78338061320133"><ele>6.0</ele><time>2026-04-23T08:20:41Z</time></trkpt><trkpt lat="-19.98473213310555" lon="119.78334768670133"><ele>6.0</ele><time>2026-04-23T08:20:42Z</time></trkpt><trkpt lat="-19.98451490040071" lon="119.78331178379105"><ele>6.0</ele><time>2026-04-23T08:20:43Z</time></trkpt><trkpt lat="-19.98428427173896" lon="119.78327562200556"><ele>6.0</ele><time>2026-04-23T08:20:44Z</time></trkpt><trkpt lat="-19.984060937680425" lon="119.78324009130316"><ele>6.0</ele><time>2026-04-23T08:20:45Z</time></trkpt><trkpt lat="-19.983828197250944" lon="119.78320128336289"><ele>6.0</ele><time>2026-04-23T08:20:46Z</time></trkpt><trkpt lat="-19.98360095130654" lon="119.783162583414"><ele>6.0</ele><time>2026-04-23T08:20:47Z</time></trkpt><trkpt lat="-19.983371572007083" lon="119.78312223757673"><ele>6.0</ele><time>2026-04-23T08:20:48Z</time></trkpt><trkpt lat="-19.983145986389143" lon="119.78308111623271"><ele>6.0</ele><time>2026-04-23T08:20:49Z</time></trkpt><trkpt lat="-19.982922926246857" lon="119.78304054089179"><ele>6.0</ele><time>2026-04-23T08:20:50Z</time></trkpt><trkpt lat="-19.982704440641548" lon="119.78299869264468"><ele>6.0</ele><time>2026-04-23T08:20:51Z</time></trkpt><trkpt lat="-19.9824993944782" lon="119.78295503264142"><ele>6.0</ele><time>2026-04-23T08:20:52Z</time></trkpt><trkpt lat="-19.982305189250553" lon="119.78291266173615"><ele>6.333333333333334</ele><time>2026-04-23T08:20:53Z</time></trkpt><trkpt lat="-19.982117501359415" lon="119.78288048547623"><ele>6.666666666666667</ele><time>2026-04-23T08:20:54Z</time></trkpt><trkpt lat="-19.981928633389007" lon="119.7828594766543"><ele>7.0</ele><time>2026-04-23T08:20:55Z</time></trkpt><trkpt lat="-19.981732283852242" lon="119.78282888295146"><ele>6.333333333333334</ele><time>2026-04-23T08:20:56Z</time></trkpt><trkpt lat="-19.981527115453115" lon="119.7828249069497"><ele>5.666666666666667</ele><time>2026-04-23T08:20:57Z</time></trkpt><trkpt lat="-19.981315360028855" lon="119.78284343135175"><ele>5.0</ele><time>2026-04-23T08:20:58Z</time></trkpt><trkpt lat="-19.9811002746245" lon="119.78287689014735"><ele>5.0</ele><time>2026-04-23T08:20:59Z</time></trkpt><trkpt lat="-19.98088294920748" lon="119.78292072346896"><ele>5.0</ele><time>2026-04-23T08:21:00Z</time></trkpt><trkpt lat="-19.980667185419097" lon="119.78298725802271"><ele>5.0</ele><time>2026-04-23T08:21:01Z</time></trkpt><trkpt lat="-19.980449678562554" lon="119.7830400054322"><ele>5.0</ele><time>2026-04-23T08:21:02Z</time></trkpt><trkpt lat="-19.980227132026812" lon="119.78309181862065"><ele>5.0</ele><time>2026-04-23T08:21:03Z</time></trkpt><trkpt lat="-19.980003699658905" lon="119.78314070855504"><ele>5.5</ele><time>2026-04-23T08:21:04Z</time></trkpt><trkpt lat="-19.979781423273753" lon="119.7831904098481"><ele>6.0</ele><time>2026-04-23T08:21:05Z</time></trkpt><trkpt lat="-19.97955585699008" lon="119.78324324317127"><ele>6.0</ele><time>2026-04-23T08:21:06Z</time></trkpt><trkpt lat="-19.979329611435038" lon="119.78329675648507"><ele>6.0</ele><time>2026-04-23T08:21:07Z</time></trkpt><trkpt lat="-19.979103664238913" lon="119.78334874921677"><ele>6.5</ele><time>2026-04-23T08:21:08Z</time></trkpt><trkpt lat="-19.97887459762916" lon="119.78340089758508"><ele>7.0</ele><time>2026-04-23T08:21:09Z</time></trkpt><trkpt lat="-19.978648618576674" lon="119.7834546319039"><ele>7.0</ele><time>2026-04-23T08:21:10.001Z</time></trkpt><trkpt lat="-19.978418630775742" lon="119.78350815767254"><ele>7.0</ele><time>2026-04-23T08:21:11.001Z</time></trkpt><trkpt lat="-19.978187081423826" lon="119.78356155418088"><ele>8.0</ele><time>2026-04-23T08:21:12.001Z</time></trkpt><trkpt lat="-19.97795641872372" lon="119.78361496010803"><ele>9.0</ele><time>2026-04-23T08:21:13.001Z</time></trkpt><trkpt lat="-19.97772224658571" lon="119.78366733877337"><ele>8.0</ele><time>2026-04-23T08:21:14.001Z</time></trkpt><trkpt lat="-19.977491312163647" lon="119.78372130701239"><ele>7.0</ele><time>2026-04-23T08:21:15.001Z</time></trkpt><trkpt lat="-19.97728184944234" lon="119.78377052298153"><ele>7.0</ele><time>2026-04-23T08:21:16.001Z</time></trkpt><trkpt lat="-19.977084496562867" lon="119.78381288847423"><ele>7.0</ele><time>2026-04-23T08:21:17.001Z</time></trkpt><trkpt lat="-19.976899034854693" lon="119.7838541312362"><ele>7.0</ele><time>2026-04-23T08:21:18.001Z</time></trkpt><trkpt lat="-19.97671824942882" lon="119.783895793948"><ele>6.333333333333334</ele><time>2026-04-23T08:21:19.001Z</time></trkpt><trkpt lat="-19.97652882451689" lon="119.78393797369873"><ele>5.666666666666667</ele><time>2026-04-23T08:21:20.001Z</time></trkpt><trkpt lat="-19.976327054018643" lon="119.78396988207768"><ele>5.0</ele><time>2026-04-23T08:21:21.001Z</time></trkpt><trkpt lat="-19.976128060871524" lon="119.78398816823149"><ele>5.0</ele><time>2026-04-23T08:21:22.001Z</time></trkpt><trkpt lat="-19.975930210532393" lon="119.78398865085273"><ele>5.0</ele><time>2026-04-23T08:21:23.001Z</time></trkpt><trkpt lat="-19.975727227002736" lon="119.7839726608219"><ele>5.0</ele><time>2026-04-23T08:21:24.001Z</time></trkpt><trkpt lat="-19.975525998060156" lon="119.78395505869865"><ele>5.333333333333334</ele><time>2026-04-23T08:21:25.001Z</time></trkpt><trkpt lat="-19.975322624820528" lon="119.78393883700289"><ele>5.666666666666667</ele><time>2026-04-23T08:21:26.001Z</time></trkpt><trkpt lat="-19.97511513493454" lon="119.78392281336895"><ele>6.0</ele><time>2026-04-23T08:21:27.001Z</time></trkpt><trkpt lat="-19.97490424592937" lon="119.78391556043952"><ele>7.0</ele><time>2026-04-23T08:21:28.001Z</time></trkpt><trkpt lat="-19.974705103168535" lon="119.78392021023589"><ele>8.0</ele><time>2026-04-23T08:21:29.001Z</time></trkpt><trkpt lat="-19.97452121190122" lon="119.78393731949402"><ele>9.0</ele><time>2026-04-23T08:21:30.001Z</time></trkpt><trkpt lat="-19.974334245041952" lon="119.78396334382427"><ele>9.0</ele><time>2026-04-23T08:21:31.001Z</time></trkpt><trkpt lat="-19.97415211049342" lon="119.78400978800283"><ele>9.0</ele><time>2026-04-23T08:21:32.001Z</time></trkpt><trkpt lat="-19.973959060461915" lon="119.7840776545371"><ele>9.0</ele><time>2026-04-23T08:21:33.001Z</time></trkpt><trkpt lat="-19.973767138800806" lon="119.78415956013696"><ele>9.0</ele><time>2026-04-23T08:21:34.001Z</time></trkpt><trkpt lat="-19.973593870690273" lon="119.7842544616455"><ele>9.0</ele><time>2026-04-23T08:21:35.001Z</time></trkpt><trkpt lat="-19.973442038356996" lon="119.78435433755376"><ele>9.0</ele><time>2026-04-23T08:21:36.001Z</time></trkpt><trkpt lat="-19.973297421127143" lon="119.78444933653853"><ele>8.333333333333334</ele><time>2026-04-23T08:21:37.001Z</time></trkpt><trkpt lat="-19.973157751151035" lon="119.784539533732"><ele>7.666666666666667</ele><time>2026-04-23T08:21:38.001Z</time></trkpt><trkpt lat="-19.97300247525767" lon="119.78462767419198"><ele>7.0</ele><time>2026-04-23T08:21:39.001Z</time></trkpt><trkpt lat="-19.972834629128222" lon="119.78471437255587"><ele>7.0</ele><time>2026-04-23T08:21:40.001Z</time></trkpt><trkpt lat="-19.972668363878665" lon="119.78480282179665"><ele>7.0</ele><time>2026-04-23T08:21:41.001Z</time></trkpt><trkpt lat="-19.972492131881925" lon="119.78487300354612"><ele>7.0</ele><time>2026-04-23T08:21:42.001Z</time></trkpt><trkpt lat="-19.972330466543735" lon="119.78493678203522"><ele>7.0</ele><time>2026-04-23T08:21:43.001Z</time></trkpt><trkpt lat="-19.97217541200467" lon="119.78499680969122"><ele>7.0</ele><time>2026-04-23T08:21:44.001Z</time></trkpt><trkpt lat="-19.972025815878713" lon="119.78505158239541"><ele>7.0</ele><time>2026-04-23T08:21:45.001Z</time></trkpt><trkpt lat="-19.971883481892824" lon="119.78510261551654"><ele>7.0</ele><time>2026-04-23T08:21:46.001Z</time></trkpt><trkpt lat="-19.971750854125613" lon="119.78514750400046"><ele>7.0</ele><time>2026-04-23T08:21:47.001Z</time></trkpt><trkpt lat="-19.971623186235803" lon="119.78518950216439"><ele>7.0</ele><time>2026-04-23T08:21:48.001Z</time></trkpt><trkpt lat="-19.971498003684804" lon="119.78522508417323"><ele>7.0</ele><time>2026-04-23T08:21:49.001Z</time></trkpt><trkpt lat="-19.97136861922271" lon="119.78524178814821"><ele>6.75</ele><time>2026-04-23T08:21:50.001Z</time></trkpt><trkpt lat="-19.971229737177172" lon="119.7852341487337"><ele>6.5</ele><time>2026-04-23T08:21:51.001Z</time></trkpt><trkpt lat="-19.971093236238268" lon="119.78520654115971"><ele>6.25</ele><time>2026-04-23T08:21:52.001Z</time></trkpt><trkpt lat="-19.97095860696724" lon="119.78515574149921"><ele>6.0</ele><time>2026-04-23T08:21:53.001Z</time></trkpt><trkpt lat="-19.970826070653374" lon="119.78507913614229"><ele>6.0</ele><time>2026-04-23T08:21:54.001Z</time></trkpt><trkpt lat="-19.970702067104398" lon="119.78497140696041"><ele>6.0</ele><time>2026-04-23T08:21:55.001Z</time></trkpt><trkpt lat="-19.97058208316004" lon="119.78485110993626"><ele>6.0</ele><time>2026-04-23T08:21:56.001Z</time></trkpt><trkpt lat="-19.970471527394075" lon="119.7847292050836"><ele>6.0</ele><time>2026-04-23T08:21:57.001Z</time></trkpt><trkpt lat="-19.970364790802737" lon="119.78461410964266"><ele>6.0</ele><time>2026-04-23T08:21:58.001Z</time></trkpt><trkpt lat="-19.970256631524908" lon="119.7845037600032"><ele>6.0</ele><time>2026-04-23T08:21:59.001Z</time></trkpt><trkpt lat="-19.97014123493788" lon="119.78439727119776"><ele>6.333333333333334</ele><time>2026-04-23T08:22:00.001Z</time></trkpt><trkpt lat="-19.970015108073294" lon="119.78429345672488"><ele>6.666666666666667</ele><time>2026-04-23T08:22:01.001Z</time></trkpt><trkpt lat="-19.969882383536056" lon="119.784190705475"><ele>7.0</ele><time>2026-04-23T08:22:02.001Z</time></trkpt><trkpt lat="-19.969745821610765" lon="119.7840829681344"><ele>7.0</ele><time>2026-04-23T08:22:03.001Z</time></trkpt><trkpt lat="-19.96961762984794" lon="119.78397075540258"><ele>7.0</ele><time>2026-04-23T08:22:04.001Z</time></trkpt><trkpt lat="-19.969497749238375" lon="119.78384544659254"><ele>7.0</ele><time>2026-04-23T08:22:05.001Z</time></trkpt><trkpt lat="-19.969386548506304" lon="119.78370773783475"><ele>7.0</ele><time>2026-04-23T08:22:06Z</time></trkpt><trkpt lat="-19.969278417803903" lon="119.78356570815806"><ele>7.0</ele><time>2026-04-23T08:22:07Z</time></trkpt><trkpt lat="-19.969169884165105" lon="119.783429449823"><ele>7.0</ele><time>2026-04-23T08:22:08Z</time></trkpt><trkpt lat="-19.969056878370278" lon="119.78330754168935"><ele>6.666666666666667</ele><time>2026-04-23T08:22:09Z</time></trkpt><trkpt lat="-19.968941556965202" lon="119.78319852807716"><ele>6.333333333333334</ele><time>2026-04-23T08:22:10Z</time></trkpt><trkpt lat="-19.968823019563178" lon="119.78310217590196"><ele>6.0</ele><time>2026-04-23T08:22:11Z</time></trkpt><trkpt lat="-19.96869401436055" lon="119.78302166278692"><ele>6.0</ele><time>2026-04-23T08:22:12Z</time></trkpt><trkpt lat="-19.968556451961597" lon="119.78295071416535"><ele>6.0</ele><time>2026-04-23T08:22:13Z</time></trkpt><trkpt lat="-19.968414175766114" lon="119.78287242620793"><ele>6.0</ele><time>2026-04-23T08:22:14Z</time></trkpt><trkpt lat="-19.96826790944945" lon="119.78278977136861"><ele>6.333333333333334</ele><time>2026-04-23T08:22:15Z</time></trkpt><trkpt lat="-19.968123441003968" lon="119.78270723671594"><ele>6.666666666666667</ele><time>2026-04-23T08:22:16Z</time></trkpt><trkpt lat="-19.96797872149984" lon="119.78262804137731"><ele>7.0</ele><time>2026-04-23T08:22:17Z</time></trkpt><trkpt lat="-19.967827921099655" lon="119.78254303389788"><ele>7.0</ele><time>2026-04-23T08:22:18Z</time></trkpt><trkpt lat="-19.967677729720165" lon="119.78245252778967"><ele>7.0</ele><time>2026-04-23T08:22:19Z</time></trkpt><trkpt lat="-19.96752827729163" lon="119.78235624043867"><ele>7.0</ele><time>2026-04-23T08:22:20Z</time></trkpt><trkpt lat="-19.967375203699596" lon="119.78226293662343"><ele>7.0</ele><time>2026-04-23T08:22:21Z</time></trkpt><trkpt lat="-19.96722282246342" lon="119.78217217724226"><ele>7.0</ele><time>2026-04-23T08:22:22Z</time></trkpt><trkpt lat="-19.967072101851763" lon="119.78207965317854"><ele>7.0</ele><time>2026-04-23T08:22:23Z</time></trkpt><trkpt lat="-19.966929519258315" lon="119.7819873564529"><ele>7.0</ele><time>2026-04-23T08:22:24Z</time></trkpt><trkpt lat="-19.966791947769664" lon="119.78189495681781"><ele>7.0</ele><time>2026-04-23T08:22:25Z</time></trkpt><trkpt lat="-19.966656185270303" lon="119.78179982283933"><ele>7.0</ele><time>2026-04-23T08:22:26Z</time></trkpt><trkpt lat="-19.96652352879506" lon="119.7817033355435"><ele>6.666666666666667</ele><time>2026-04-23T08:22:27Z</time></trkpt><trkpt lat="-19.966392467871106" lon="119.78160715106975"><ele>6.333333333333334</ele><time>2026-04-23T08:22:28Z</time></trkpt><trkpt lat="-19.966260329932325" lon="119.78151268512516"><ele>6.0</ele><time>2026-04-23T08:22:29Z</time></trkpt><trkpt lat="-19.96613539305261" lon="119.78142342560838"><ele>6.0</ele><time>2026-04-23T08:22:30Z</time></trkpt><trkpt lat="-19.96601729527778" lon="119.7813391722889"><ele>6.0</ele><time>2026-04-23T08:22:31Z</time></trkpt><trkpt lat="-19.96590939881272" lon="119.78125361611649"><ele>6.0</ele><time>2026-04-23T08:22:32Z</time></trkpt><trkpt lat="-19.96580340954511" lon="119.78116675366694"><ele>6.0</ele><time>2026-04-23T08:22:33Z</time></trkpt><trkpt lat="-19.965705964109784" lon="119.78108071576004"><ele>6.0</ele><time>2026-04-23T08:22:34Z</time></trkpt><trkpt lat="-19.96560888474559" lon="119.78098888523327"><ele>6.0</ele><time>2026-04-23T08:22:35Z</time></trkpt><trkpt lat="-19.965517781435977" lon="119.78088715478746"><ele>6.0</ele><time>2026-04-23T08:22:36Z</time></trkpt><trkpt lat="-19.965448001578174" lon="119.7807831057099"><ele>6.0</ele><time>2026-04-23T08:22:37Z</time></trkpt><trkpt lat="-19.96539687656926" lon="119.78066960606144"><ele>6.0</ele><time>2026-04-23T08:22:38Z</time></trkpt><trkpt lat="-19.965359716080847" lon="119.78054184553808"><ele>6.0</ele><time>2026-04-23T08:22:39Z</time></trkpt><trkpt lat="-19.965345616871783" lon="119.78039038600959"><ele>6.0</ele><time>2026-04-23T08:22:40Z</time></trkpt><trkpt lat="-19.965346177246936" lon="119.78021926390473"><ele>6.0</ele><time>2026-04-23T08:22:41Z</time></trkpt><trkpt lat="-19.965353919463617" lon="119.78002763828798"><ele>6.0</ele><time>2026-04-23T08:22:42Z</time></trkpt><trkpt lat="-19.965371697482265" lon="119.77982944502367"><ele>6.0</ele><time>2026-04-23T08:22:43Z</time></trkpt><trkpt lat="-19.965394569189897" lon="119.77962722828956"><ele>6.0</ele><time>2026-04-23T08:22:44Z</time></trkpt><trkpt lat="-19.965407803246933" lon="119.77941879467438"><ele>6.333333333333334</ele><time>2026-04-23T08:22:45Z</time></trkpt><trkpt lat="-19.965411111564826" lon="119.77921148461073"><ele>6.666666666666667</ele><time>2026-04-23T08:22:46Z</time></trkpt><trkpt lat="-19.965416564535946" lon="119.77900004366371"><ele>7.0</ele><time>2026-04-23T08:22:47Z</time></trkpt><trkpt lat="-19.965424046397246" lon="119.77878369553169"><ele>7.0</ele><time>2026-04-23T08:22:48Z</time></trkpt><trkpt lat="-19.965430286068894" lon="119.77856349158849"><ele>7.0</ele><time>2026-04-23T08:22:49Z</time></trkpt><trkpt lat="-19.965432439043035" lon="119.77834367143598"><ele>7.0</ele><time>2026-04-23T08:22:50Z</time></trkpt><trkpt lat="-19.965427941249462" lon="119.77812026407156"><ele>7.0</ele><time>2026-04-23T08:22:51Z</time></trkpt><trkpt lat="-19.965419682768356" lon="119.77790785213915"><ele>7.0</ele><time>2026-04-23T08:22:52Z</time></trkpt><trkpt lat="-19.965415239733094" lon="119.77770013783707"><ele>7.0</ele><time>2026-04-23T08:22:53Z</time></trkpt><trkpt lat="-19.965410782742428" lon="119.77748746100455"><ele>7.0</ele><time>2026-04-23T08:22:54Z</time></trkpt><trkpt lat="-19.965404371579073" lon="119.77727990946786"><ele>7.0</ele><time>2026-04-23T08:22:55Z</time></trkpt><trkpt lat="-19.965390733416417" lon="119.77707030077416"><ele>7.0</ele><time>2026-04-23T08:22:56Z</time></trkpt><trkpt lat="-19.965368523914567" lon="119.7768477440892"><ele>7.0</ele><time>2026-04-23T08:22:57Z</time></trkpt><trkpt lat="-19.965341477741603" lon="119.77662666685295"><ele>7.0</ele><time>2026-04-23T08:22:58Z</time></trkpt><trkpt lat="-19.965308894643666" lon="119.77640483921972"><ele>7.0</ele><time>2026-04-23T08:22:59Z</time></trkpt><trkpt lat="-19.965271926397477" lon="119.7761767643896"><ele>6.666666666666667</ele><time>2026-04-23T08:23:00Z</time></trkpt><trkpt lat="-19.965234306388695" lon="119.77594886617851"><ele>6.333333333333334</ele><time>2026-04-23T08:23:01Z</time></trkpt><trkpt lat="-19.96519594361946" lon="119.775722823446"><ele>6.0</ele><time>2026-04-23T08:23:02Z</time></trkpt><trkpt lat="-19.965160417800597" lon="119.77549532615207"><ele>6.0</ele><time>2026-04-23T08:23:03Z</time></trkpt><trkpt lat="-19.965131700357222" lon="119.77526820005521"><ele>6.0</ele><time>2026-04-23T08:23:04Z</time></trkpt><trkpt lat="-19.9651096140732" lon="119.77505444619545"><ele>6.0</ele><time>2026-04-23T08:23:05Z</time></trkpt><trkpt lat="-19.965097866085884" lon="119.77485543003516"><ele>6.333333333333334</ele><time>2026-04-23T08:23:06Z</time></trkpt><trkpt lat="-19.965090378015507" lon="119.77467338574303"><ele>6.666666666666667</ele><time>2026-04-23T08:23:07Z</time></trkpt><trkpt lat="-19.965067529620853" lon="119.77449055262692"><ele>7.0</ele><time>2026-04-23T08:23:08Z</time></trkpt><trkpt lat="-19.965024390345476" lon="119.77430259879783"><ele>7.0</ele><time>2026-04-23T08:23:09Z</time></trkpt><trkpt lat="-19.964964316796532" lon="119.77411667058122"><ele>7.0</ele><time>2026-04-23T08:23:10Z</time></trkpt><trkpt lat="-19.964887842911622" lon="119.77392763025992"><ele>7.0</ele><time>2026-04-23T08:23:11Z</time></trkpt><trkpt lat="-19.964790957034847" lon="119.7737321188267"><ele>7.0</ele><time>2026-04-23T08:23:12Z</time></trkpt><trkpt lat="-19.96467705552656" lon="119.7735335442739"><ele>7.0</ele><time>2026-04-23T08:23:13Z</time></trkpt><trkpt lat="-19.96456088921249" lon="119.77334303454863"><ele>7.0</ele><time>2026-04-23T08:23:14Z</time></trkpt><trkpt lat="-19.964447457452884" lon="119.77315400388466"><ele>7.333333333333334</ele><time>2026-04-23T08:23:15Z</time></trkpt><trkpt lat="-19.96433382875409" lon="119.77296375123106"><ele>7.666666666666666</ele><time>2026-04-23T08:23:16.001Z</time></trkpt><trkpt lat="-19.964221703532523" lon="119.77277788051698"><ele>8.0</ele><time>2026-04-23T08:23:17.001Z</time></trkpt><trkpt lat="-19.964113093830818" lon="119.77258874614671"><ele>8.333333333333332</ele><time>2026-04-23T08:23:18.001Z</time></trkpt><trkpt lat="-19.964008555570697" lon="119.77240911126154"><ele>8.666666666666666</ele><time>2026-04-23T08:23:19.001Z</time></trkpt><trkpt lat="-19.963904288018522" lon="119.77223868939467"><ele>9.0</ele><time>2026-04-23T08:23:20.001Z</time></trkpt><trkpt lat="-19.963801805854974" lon="119.77207418900292"><ele>9.0</ele><time>2026-04-23T08:23:21.001Z</time></trkpt><trkpt lat="-19.9636995125369" lon="119.77190758873117"><ele>9.0</ele><time>2026-04-23T08:23:22.001Z</time></trkpt><trkpt lat="-19.963600608538687" lon="119.77176242963205"><ele>9.0</ele><time>2026-04-23T08:23:23.001Z</time></trkpt><trkpt lat="-19.96350028182135" lon="119.77162604912078"><ele>8.5</ele><time>2026-04-23T08:23:24.001Z</time></trkpt><trkpt lat="-19.96340111641361" lon="119.77150796426747"><ele>8.0</ele><time>2026-04-23T08:23:25.001Z</time></trkpt><trkpt lat="-19.963298840974005" lon="119.77140477067037"><ele>7.5</ele><time>2026-04-23T08:23:26.001Z</time></trkpt><trkpt lat="-19.963190843361645" lon="119.77131673653984"><ele>7.0</ele><time>2026-04-23T08:23:27.001Z</time></trkpt><trkpt lat="-19.96308000699569" lon="119.77123982950239"><ele>7.75</ele><time>2026-04-23T08:23:28.001Z</time></trkpt><trkpt lat="-19.962965109613023" lon="119.77117160692676"><ele>8.5</ele><time>2026-04-23T08:23:29.001Z</time></trkpt><trkpt lat="-19.962841798084817" lon="119.77110592063855"><ele>9.25</ele><time>2026-04-23T08:23:30.001Z</time></trkpt><trkpt lat="-19.96272348848112" lon="119.77103121624594"><ele>10.0</ele><time>2026-04-23T08:23:31.001Z</time></trkpt><trkpt lat="-19.962601193708892" lon="119.77095739255573"><ele>9.5</ele><time>2026-04-23T08:23:32.001Z</time></trkpt><trkpt lat="-19.962486579678217" lon="119.77088745507646"><ele>9.0</ele><time>2026-04-23T08:23:33.001Z</time></trkpt><trkpt lat="-19.962384660729274" lon="119.77081712651132"><ele>8.5</ele><time>2026-04-23T08:23:34.001Z</time></trkpt><trkpt lat="-19.962288359910684" lon="119.77075182684959"><ele>8.0</ele><time>2026-04-23T08:23:35.001Z</time></trkpt><trkpt lat="-19.962183835858198" lon="119.77070493577857"><ele>8.0</ele><time>2026-04-23T08:23:36.001Z</time></trkpt><trkpt lat="-19.962077584889656" lon="119.7706425155157"><ele>8.0</ele><time>2026-04-23T08:23:37.001Z</time></trkpt><trkpt lat="-19.961958974649132" lon="119.77059394592952"><ele>8.0</ele><time>2026-04-23T08:23:38.001Z</time></trkpt><trkpt lat="-19.9618268191622" lon="119.77055660334439"><ele>8.0</ele><time>2026-04-23T08:23:39.001Z</time></trkpt><trkpt lat="-19.96169210215317" lon="119.77051628269778"><ele>8.5</ele><time>2026-04-23T08:23:40.001Z</time></trkpt><trkpt lat="-19.961556288010755" lon="119.77048833469374"><ele>9.0</ele><time>2026-04-23T08:23:41.001Z</time></trkpt><trkpt lat="-19.96142839797197" lon="119.77045933504071"><ele>9.5</ele><time>2026-04-23T08:23:42.001Z</time></trkpt><trkpt lat="-19.96130733969882" lon="119.77042692744907"><ele>10.0</ele><time>2026-04-23T08:23:43.001Z</time></trkpt><trkpt lat="-19.961191856150858" lon="119.77040114151099"><ele>10.0</ele><time>2026-04-23T08:23:44.001Z</time></trkpt><trkpt lat="-19.961082680377388" lon="119.77037549933313"><ele>10.0</ele><time>2026-04-23T08:23:45.001Z</time></trkpt><trkpt lat="-19.960985453266495" lon="119.77033067313894"><ele>10.0</ele><time>2026-04-23T08:23:46.001Z</time></trkpt><trkpt lat="-19.96087357905714" lon="119.77029296595882"><ele>10.0</ele><time>2026-04-23T08:23:47.001Z</time></trkpt><trkpt lat="-19.960767881930096" lon="119.77023577349567"><ele>9.5</ele><time>2026-04-23T08:23:48.001Z</time></trkpt><trkpt lat="-19.96066503494744" lon="119.77016176533235"><ele>9.0</ele><time>2026-04-23T08:23:49.001Z</time></trkpt><trkpt lat="-19.96057131356507" lon="119.77007185452396"><ele>8.5</ele><time>2026-04-23T08:23:50.001Z</time></trkpt><trkpt lat="-19.960492074758445" lon="119.76998107564869"><ele>8.0</ele><time>2026-04-23T08:23:51.001Z</time></trkpt><trkpt lat="-19.960426155521553" lon="119.76988453703093"><ele>8.0</ele><time>2026-04-23T08:23:52.001Z</time></trkpt><trkpt lat="-19.96037237404223" lon="119.7697879492284"><ele>8.0</ele><time>2026-04-23T08:23:53.001Z</time></trkpt><trkpt lat="-19.960331945396806" lon="119.7696871613827"><ele>8.0</ele><time>2026-04-23T08:23:54.001Z</time></trkpt><trkpt lat="-19.960299908768594" lon="119.76957432392436"><ele>8.0</ele><time>2026-04-23T08:23:55.001Z</time></trkpt><trkpt lat="-19.96027529173119" lon="119.76945292018655"><ele>8.0</ele><time>2026-04-23T08:23:56.001Z</time></trkpt><trkpt lat="-19.960264266553352" lon="119.76932196900226"><ele>8.25</ele><time>2026-04-23T08:23:57.001Z</time></trkpt><trkpt lat="-19.960263892624933" lon="119.76918364462172"><ele>8.5</ele><time>2026-04-23T08:23:58.001Z</time></trkpt><trkpt lat="-19.960270056464346" lon="119.76904974300695"><ele>8.75</ele><time>2026-04-23T08:23:59.001Z</time></trkpt><trkpt lat="-19.960254040007985" lon="119.76892985476701"><ele>9.0</ele><time>2026-04-23T08:24:00.001Z</time></trkpt><trkpt lat="-19.960253764858827" lon="119.76882154250583"><ele>9.0</ele><time>2026-04-23T08:24:01.001Z</time></trkpt><trkpt lat="-19.96025747612634" lon="119.76872284704208"><ele>9.0</ele><time>2026-04-23T08:24:02.001Z</time></trkpt><trkpt lat="-19.96028180552225" lon="119.76863349839003"><ele>9.0</ele><time>2026-04-23T08:24:03.001Z</time></trkpt><trkpt lat="-19.960294086140912" lon="119.76856053101044"><ele>9.0</ele><time>2026-04-23T08:24:04.001Z</time></trkpt><trkpt lat="-19.96033146165436" lon="119.768445711509"><ele>9.0</ele><time>2026-04-23T08:24:06.001Z</time></trkpt><trkpt lat="-19.96043654433837" lon="119.7683707090396"><ele>9.0</ele><time>2026-04-23T08:24:08.001Z</time></trkpt><trkpt lat="-19.960555791619168" lon="119.7683665782631"><ele>9.0</ele><time>2026-04-23T08:24:10.001Z</time></trkpt><trkpt lat="-19.960648566135784" lon="119.76843344092406"><ele>9.0</ele><time>2026-04-23T08:24:12.001Z</time></trkpt><trkpt lat="-19.960722633811212" lon="119.76850145744257"><ele>9.0</ele><time>2026-04-23T08:24:14.001Z</time></trkpt><trkpt lat="-19.960793542868423" lon="119.76857413013653"><ele>9.0</ele><time>2026-04-23T08:24:16Z</time></trkpt><trkpt lat="-19.960863119095315" lon="119.76866556500106"><ele>9.0</ele><time>2026-04-23T08:24:18Z</time></trkpt><trkpt lat="-19.960956558593843" lon="119.76875905275709"><ele>9.0</ele><time>2026-04-23T08:24:20Z</time></trkpt><trkpt lat="-19.961004813985216" lon="119.76881475740151"><ele>9.0</ele><time>2026-04-23T08:24:21Z</time></trkpt><trkpt lat="-19.961045571607023" lon="119.76888384146343"><ele>9.0</ele><time>2026-04-23T08:24:22Z</time></trkpt><trkpt lat="-19.961105195558027" lon="119.76893267647966"><ele>9.0</ele><time>2026-04-23T08:24:23Z</time></trkpt><trkpt lat="-19.961163062694943" lon="119.76899292081458"><ele>9.0</ele><time>2026-04-23T08:24:24Z</time></trkpt><trkpt lat="-19.961242106225928" lon="119.76901921583885"><ele>9.000000000000002</ele><time>2026-04-23T08:24:25Z</time></trkpt><trkpt lat="-19.961306411247016" lon="119.76905213065004"><ele>9.0</ele><time>2026-04-23T08:24:26Z</time></trkpt><trkpt lat="-19.961374819920252" lon="119.76905230608293"><ele>9.0</ele><time>2026-04-23T08:24:27Z</time></trkpt><trkpt lat="-19.9614399811833" lon="119.76906068082427"><ele>9.0</ele><time>2026-04-23T08:24:28Z</time></trkpt><trkpt lat="-19.961507537283758" lon="119.76906382683092"><ele>9.0</ele><time>2026-04-23T08:24:29Z</time></trkpt><trkpt lat="-19.96157593302678" lon="119.76906715164101"><ele>9.000000000000002</ele><time>2026-04-23T08:24:30Z</time></trkpt><trkpt lat="-19.961645500822822" lon="119.76906786345269"><ele>9.0</ele><time>2026-04-23T08:24:31Z</time></trkpt><trkpt lat="-19.961772132331678" lon="119.76906375221104"><ele>9.166666666666666</ele><time>2026-04-23T08:24:33Z</time></trkpt><trkpt lat="-19.961838068718496" lon="119.76905992853662"><ele>9.333333333333334</ele><time>2026-04-23T08:24:34Z</time></trkpt><trkpt lat="-19.961963446247136" lon="119.76906127122555"><ele>9.5</ele><time>2026-04-23T08:24:36Z</time></trkpt><trkpt lat="-19.962035188272587" lon="119.76904570575165"><ele>9.666666666666668</ele><time>2026-04-23T08:24:37Z</time></trkpt><trkpt lat="-19.96210878711728" lon="119.76903068788835"><ele>9.833333333333334</ele><time>2026-04-23T08:24:38Z</time></trkpt><trkpt lat="-19.962174816833926" lon="119.76899553113974"><ele>10.0</ele><time>2026-04-23T08:24:39Z</time></trkpt><trkpt lat="-19.962239667076265" lon="119.7689929701372"><ele>10.0</ele><time>2026-04-23T08:24:40Z</time></trkpt><trkpt lat="-19.96230390323929" lon="119.76897778923056"><ele>10.0</ele><time>2026-04-23T08:24:41Z</time></trkpt><trkpt lat="-19.962368446223994" lon="119.76896833270078"><ele>10.0</ele><time>2026-04-23T08:24:42Z</time></trkpt><trkpt lat="-19.962429829770258" lon="119.76894898085476"><ele>10.0</ele><time>2026-04-23T08:24:43Z</time></trkpt><trkpt lat="-19.962537379301583" lon="119.76892818644387"><ele>10.0</ele><time>2026-04-23T08:24:45Z</time></trkpt><trkpt lat="-19.96262068186387" lon="119.76890242602201"><ele>10.0</ele><time>2026-04-23T08:24:47Z</time></trkpt><trkpt lat="-19.96268627107354" lon="119.76889236308324"><ele>9.25</ele><time>2026-04-23T08:24:49Z</time></trkpt><trkpt lat="-19.962878703631837" lon="119.76877793133879"><ele>8.5</ele><time>2026-04-23T08:24:55Z</time></trkpt><trkpt lat="-19.96294127950758" lon="119.76880995163606"><ele>7.75</ele><time>2026-04-23T08:24:56Z</time></trkpt><trkpt lat="-19.963001695470304" lon="119.7688702085632"><ele>7.0</ele><time>2026-04-23T08:24:59Z</time></trkpt><trkpt lat="-19.963070363073225" lon="119.76894682238769"><ele>7.000000000000001</ele><time>2026-04-23T08:25:01Z</time></trkpt><trkpt lat="-19.963118156085773" lon="119.76900926350054"><ele>7.0</ele><time>2026-04-23T08:25:03Z</time></trkpt><trkpt lat="-19.963163151457643" lon="119.76906831600438"><ele>7.0</ele><time>2026-04-23T08:25:05Z</time></trkpt><trkpt lat="-19.963210016620824" lon="119.76913018315429"><ele>7.0</ele><time>2026-04-23T08:25:07Z</time></trkpt><trkpt lat="-19.96326103871826" lon="119.76919203599059"><ele>7.000000000000001</ele><time>2026-04-23T08:25:10Z</time></trkpt><trkpt lat="-19.963311467369675" lon="119.7692523194647"><ele>7.0</ele><time>2026-04-23T08:25:13Z</time></trkpt><trkpt lat="-19.963365310536464" lon="119.76931622141478"><ele>7.199999999999999</ele><time>2026-04-23T08:25:16Z</time></trkpt><trkpt lat="-19.963240117549685" lon="119.7695079181631"><ele>7.3999999999999995</ele><time>2026-04-23T08:25:23Z</time></trkpt><trkpt lat="-19.963174050647492" lon="119.76945937674063"><ele>7.6000000000000005</ele><time>2026-04-23T08:26:11.001Z</time></trkpt><trkpt lat="-19.96311744721989" lon="119.7694122091478"><ele>7.800000000000001</ele><time>2026-04-23T08:26:17Z</time></trkpt><trkpt lat="-19.96317159485858" lon="119.76945364187385"><ele>8.0</ele><time>2026-04-23T08:26:58Z</time></trkpt><trkpt lat="-19.96322152444902" lon="119.7695079130554"><ele>8.0</ele><time>2026-04-23T08:27:05Z</time></trkpt><trkpt lat="-19.963333889797944" lon="119.76956487284633"><ele>8.0</ele><time>2026-04-23T08:30:30.999Z</time></trkpt><trkpt lat="-19.963353653847506" lon="119.76966408169301"><ele>8.0</ele><time>2026-04-23T08:30:32.999Z</time></trkpt><trkpt lat="-19.963362559522785" lon="119.76976372020133"><ele>8.0</ele><time>2026-04-23T08:30:34.999Z</time></trkpt><trkpt lat="-19.963410349979917" lon="119.76984080888656"><ele>8.0</ele><time>2026-04-23T08:30:36.999Z</time></trkpt><trkpt lat="-19.96351113831413" lon="119.76989381404559"><ele>8.0</ele><time>2026-04-23T08:30:38.999Z</time></trkpt><trkpt lat="-19.963579896363385" lon="119.76992927631368"><ele>8.0</ele><time>2026-04-23T08:30:39.999Z</time></trkpt><trkpt lat="-19.963653817165817" lon="119.7699711344023"><ele>8.0</ele><time>2026-04-23T08:30:40.999Z</time></trkpt><trkpt lat="-19.96373768703776" lon="119.77001680530138"><ele>8.0</ele><time>2026-04-23T08:30:41.999Z</time></trkpt><trkpt lat="-19.96383393483662" lon="119.77006876426859"><ele>8.0</ele><time>2026-04-23T08:30:42.999Z</time></trkpt><trkpt lat="-19.963947865141893" lon="119.77012481421839"><ele>8.0</ele><time>2026-04-23T08:30:43.999Z</time></trkpt><trkpt lat="-19.96406811635827" lon="119.7701804541164"><ele>8.0</ele><time>2026-04-23T08:30:44.999Z</time></trkpt><trkpt lat="-19.964206320687914" lon="119.77024439865055"><ele>8.0</ele><time>2026-04-23T08:30:45.999Z</time></trkpt><trkpt lat="-19.964340068717096" lon="119.77030405321723"><ele>8.0</ele><time>2026-04-23T08:30:46.999Z</time></trkpt><trkpt lat="-19.964464079429316" lon="119.77035575353283"><ele>8.25</ele><time>2026-04-23T08:30:47.999Z</time></trkpt><trkpt lat="-19.96459131646465" lon="119.7704086060184"><ele>8.5</ele><time>2026-04-23T08:30:49Z</time></trkpt><trkpt lat="-19.96472579733403" lon="119.77046795814591"><ele>8.75</ele><time>2026-04-23T08:30:50Z</time></trkpt><trkpt lat="-19.96485642140424" lon="119.77053167973878"><ele>9.0</ele><time>2026-04-23T08:30:51Z</time></trkpt><trkpt lat="-19.964976661250677" lon="119.77059401920184"><ele>8.2</ele><time>2026-04-23T08:30:52Z</time></trkpt><trkpt lat="-19.965092893058625" lon="119.770652417351"><ele>7.4</ele><time>2026-04-23T08:30:53Z</time></trkpt><trkpt lat="-19.965202141003314" lon="119.77071247686372"><ele>6.6</ele><time>2026-04-23T08:30:54Z</time></trkpt><trkpt lat="-19.96529456522904" lon="119.77076376262747"><ele>5.8</ele><time>2026-04-23T08:30:55Z</time></trkpt><trkpt lat="-19.96536353404717" lon="119.77080312963267"><ele>5.0</ele><time>2026-04-23T08:30:56Z</time></trkpt><trkpt lat="-19.965422036960017" lon="119.77084247582279"><ele>5.0</ele><time>2026-04-23T08:30:57Z</time></trkpt><trkpt lat="-19.965509203855824" lon="119.77090271506606"><ele>5.0</ele><time>2026-04-23T08:30:59Z</time></trkpt><trkpt lat="-19.965550033053344" lon="119.77095681487691"><ele>5.0</ele><time>2026-04-23T08:31:01Z</time></trkpt><trkpt lat="-19.965585940390564" lon="119.77101562137713"><ele>5.0</ele><time>2026-04-23T08:31:02Z</time></trkpt><trkpt lat="-19.96562067302641" lon="119.77110529284258"><ele>5.0</ele><time>2026-04-23T08:31:04Z</time></trkpt><trkpt lat="-19.965661914182633" lon="119.77118789377766"><ele>5.0</ele><time>2026-04-23T08:31:05Z</time></trkpt><trkpt lat="-19.965679581797527" lon="119.77128398761919"><ele>5.5</ele><time>2026-04-23T08:31:06Z</time></trkpt><trkpt lat="-19.965708137323087" lon="119.77136821269295"><ele>6.0</ele><time>2026-04-23T08:31:07Z</time></trkpt><trkpt lat="-19.96574779491013" lon="119.7714392174377"><ele>6.5</ele><time>2026-04-23T08:31:08Z</time></trkpt><trkpt lat="-19.96576106740103" lon="119.77152000904685"><ele>7.0</ele><time>2026-04-23T08:31:09Z</time></trkpt><trkpt lat="-19.965794312808537" lon="119.77157785339743"><ele>7.499999999999999</ele><time>2026-04-23T08:31:10Z</time></trkpt><trkpt lat="-19.965822911271584" lon="119.77167676909606"><ele>8.0</ele><time>2026-04-23T08:31:12Z</time></trkpt><trkpt lat="-19.965706339196778" lon="119.77176712630725"><ele>8.0</ele><time>2026-04-23T08:31:14Z</time></trkpt><trkpt lat="-19.965656573225477" lon="119.77183646824385"><ele>8.0</ele><time>2026-04-23T08:31:15Z</time></trkpt><trkpt lat="-19.96559076961424" lon="119.77192950496261"><ele>8.0</ele><time>2026-04-23T08:31:16Z</time></trkpt><trkpt lat="-19.96552364956887" lon="119.77204826736566"><ele>8.0</ele><time>2026-04-23T08:31:17Z</time></trkpt><trkpt lat="-19.965437004697833" lon="119.77215008317133"><ele>7.333333333333333</ele><time>2026-04-23T08:31:18Z</time></trkpt><trkpt lat="-19.965362013968743" lon="119.77229009036932"><ele>6.666666666666666</ele><time>2026-04-23T08:31:19Z</time></trkpt><trkpt lat="-19.965257542476365" lon="119.77242006055211"><ele>6.0</ele><time>2026-04-23T08:31:20Z</time></trkpt><trkpt lat="-19.965149917564357" lon="119.7725661051378"><ele>6.0</ele><time>2026-04-23T08:31:21Z</time></trkpt><trkpt lat="-19.965044451458116" lon="119.77270171939684"><ele>6.0</ele><time>2026-04-23T08:31:22Z</time></trkpt><trkpt lat="-19.96494492187799" lon="119.77282928232209"><ele>6.0</ele><time>2026-04-23T08:31:23Z</time></trkpt><trkpt lat="-19.964856192755935" lon="119.77294387173623"><ele>6.5</ele><time>2026-04-23T08:31:24Z</time></trkpt><trkpt lat="-19.96477792910657" lon="119.77305287524288"><ele>7.0</ele><time>2026-04-23T08:31:25Z</time></trkpt><trkpt lat="-19.964699699040324" lon="119.77316311457722"><ele>7.5</ele><time>2026-04-23T08:31:26Z</time></trkpt><trkpt lat="-19.964651601972264" lon="119.77323101224297"><ele>8.0</ele><time>2026-04-23T08:31:27Z</time></trkpt><trkpt lat="-19.964576112977834" lon="119.77332691811124"><ele>8.0</ele><time>2026-04-23T08:31:29Z</time></trkpt><trkpt lat="-19.96452860767486" lon="119.77340843578091"><ele>8.0</ele><time>2026-04-23T08:31:31Z</time></trkpt><trkpt lat="-19.96459456465587" lon="119.77353059091614"><ele>8.0</ele><time>2026-04-23T08:31:32Z</time></trkpt><trkpt lat="-19.96464397201694" lon="119.77364448452924"><ele>8.0</ele><time>2026-04-23T08:31:33Z</time></trkpt><trkpt lat="-19.964716257743206" lon="119.77374918457072"><ele>7.666666666666666</ele><time>2026-04-23T08:31:34Z</time></trkpt><trkpt lat="-19.96480255017437" lon="119.77390341340087"><ele>7.333333333333334</ele><time>2026-04-23T08:31:35Z</time></trkpt><trkpt lat="-19.964893498755355" lon="119.7740846863237"><ele>7.0</ele><time>2026-04-23T08:31:36Z</time></trkpt><trkpt lat="-19.96495690729136" lon="119.77426066810926"><ele>7.0</ele><time>2026-04-23T08:31:37Z</time></trkpt><trkpt lat="-19.96500037660199" lon="119.77445325661817"><ele>7.0</ele><time>2026-04-23T08:31:38Z</time></trkpt><trkpt lat="-19.96501703373709" lon="119.77468469069164"><ele>7.0</ele><time>2026-04-23T08:31:39Z</time></trkpt><trkpt lat="-19.965040740101685" lon="119.7749227698754"><ele>7.0</ele><time>2026-04-23T08:31:40Z</time></trkpt><trkpt lat="-19.965051386238798" lon="119.77514547816858"><ele>7.0</ele><time>2026-04-23T08:31:41Z</time></trkpt><trkpt lat="-19.965068233275055" lon="119.77536149737321"><ele>7.0</ele><time>2026-04-23T08:31:42Z</time></trkpt><trkpt lat="-19.965109202028" lon="119.77556713902712"><ele>7.0</ele><time>2026-04-23T08:31:43Z</time></trkpt><trkpt lat="-19.965145684139163" lon="119.77576271513794"><ele>7.0</ele><time>2026-04-23T08:31:44Z</time></trkpt><trkpt lat="-19.965183116692877" lon="119.77596808247341"><ele>7.0</ele><time>2026-04-23T08:31:45Z</time></trkpt><trkpt lat="-19.96523604585744" lon="119.77618430081648"><ele>7.0</ele><time>2026-04-23T08:31:46Z</time></trkpt><trkpt lat="-19.965270342804228" lon="119.77638406909725"><ele>7.0</ele><time>2026-04-23T08:31:47Z</time></trkpt><trkpt lat="-19.965300483838963" lon="119.77658213353693"><ele>7.0</ele><time>2026-04-23T08:31:48Z</time></trkpt><trkpt lat="-19.965325749485256" lon="119.77677674742806"><ele>7.0</ele><time>2026-04-23T08:31:49Z</time></trkpt><trkpt lat="-19.965347258207785" lon="119.77697365150237"><ele>7.0</ele><time>2026-04-23T08:31:50Z</time></trkpt><trkpt lat="-19.965359671278716" lon="119.77717023622549"><ele>7.0</ele><time>2026-04-23T08:31:51Z</time></trkpt><trkpt lat="-19.965367305749883" lon="119.77737207403605"><ele>7.0</ele><time>2026-04-23T08:31:52Z</time></trkpt><trkpt lat="-19.96537042729397" lon="119.7775808786962"><ele>7.0</ele><time>2026-04-23T08:31:53Z</time></trkpt><trkpt lat="-19.96537182255473" lon="119.77779620935891"><ele>7.0</ele><time>2026-04-23T08:31:54Z</time></trkpt><trkpt lat="-19.96537762348963" lon="119.77801370753191"><ele>7.0</ele><time>2026-04-23T08:31:55Z</time></trkpt><trkpt lat="-19.965380826697505" lon="119.77823342968135"><ele>7.0</ele><time>2026-04-23T08:31:56Z</time></trkpt><trkpt lat="-19.96538234638443" lon="119.77844431410101"><ele>7.0</ele><time>2026-04-23T08:31:57Z</time></trkpt><trkpt lat="-19.965384949947865" lon="119.77864736999413"><ele>7.0</ele><time>2026-04-23T08:31:58Z</time></trkpt><trkpt lat="-19.965384124552358" lon="119.77883635333879"><ele>7.0</ele><time>2026-04-23T08:31:59Z</time></trkpt><trkpt lat="-19.96537999464007" lon="119.77902121418145"><ele>7.0</ele><time>2026-04-23T08:32:00Z</time></trkpt><trkpt lat="-19.96537325292265" lon="119.7792059966538"><ele>6.666666666666667</ele><time>2026-04-23T08:32:01Z</time></trkpt><trkpt lat="-19.965367470592263" lon="119.77938694775918"><ele>6.333333333333334</ele><time>2026-04-23T08:32:02Z</time></trkpt><trkpt lat="-19.96536175286494" lon="119.77956196791591"><ele>6.0</ele><time>2026-04-23T08:32:03Z</time></trkpt><trkpt lat="-19.96535547278341" lon="119.7797355714757"><ele>6.0</ele><time>2026-04-23T08:32:04Z</time></trkpt><trkpt lat="-19.96534877014038" lon="119.7799062954398"><ele>6.0</ele><time>2026-04-23T08:32:05Z</time></trkpt><trkpt lat="-19.96534541693799" lon="119.78007518596505"><ele>6.0</ele><time>2026-04-23T08:32:06Z</time></trkpt><trkpt lat="-19.96534262543038" lon="119.78024589564481"><ele>6.0</ele><time>2026-04-23T08:32:07Z</time></trkpt><trkpt lat="-19.96535186236113" lon="119.78040663333584"><ele>6.0</ele><time>2026-04-23T08:32:08Z</time></trkpt><trkpt lat="-19.9653689894114" lon="119.78055815598536"><ele>6.0</ele><time>2026-04-23T08:32:09Z</time></trkpt><trkpt lat="-19.96537943222031" lon="119.78070403370056"><ele>6.0</ele><time>2026-04-23T08:32:10Z</time></trkpt><trkpt lat="-19.965429007246925" lon="119.78083572709723"><ele>6.0</ele><time>2026-04-23T08:32:11Z</time></trkpt><trkpt lat="-19.965515430742112" lon="119.78096022321198"><ele>6.0</ele><time>2026-04-23T08:32:12Z</time></trkpt><trkpt lat="-19.965637219340486" lon="119.78106408166842"><ele>6.0</ele><time>2026-04-23T08:32:13Z</time></trkpt><trkpt lat="-19.965767174530352" lon="119.78118313777046"><ele>6.0</ele><time>2026-04-23T08:32:14Z</time></trkpt><trkpt lat="-19.965915333983364" lon="119.7812987463255"><ele>6.0</ele><time>2026-04-23T08:32:15Z</time></trkpt><trkpt lat="-19.966078307101082" lon="119.78141548233661"><ele>6.0</ele><time>2026-04-23T08:32:16Z</time></trkpt><trkpt lat="-19.966247432122707" lon="119.78153614166621"><ele>6.0</ele><time>2026-04-23T08:32:17Z</time></trkpt><trkpt lat="-19.966422815907972" lon="119.78166477635739"><ele>6.0</ele><time>2026-04-23T08:32:18Z</time></trkpt><trkpt lat="-19.96659935158461" lon="119.7817921998891"><ele>6.0</ele><time>2026-04-23T08:32:19Z</time></trkpt><trkpt lat="-19.966786313754785" lon="119.78192560401523"><ele>6.5</ele><time>2026-04-23T08:32:20Z</time></trkpt><trkpt lat="-19.966985811886" lon="119.78206055568003"><ele>7.0</ele><time>2026-04-23T08:32:21Z</time></trkpt><trkpt lat="-19.967189548677876" lon="119.78218958981184"><ele>7.0</ele><time>2026-04-23T08:32:22Z</time></trkpt><trkpt lat="-19.96737584727981" lon="119.78230428725178"><ele>7.0</ele><time>2026-04-23T08:32:23Z</time></trkpt><trkpt lat="-19.967556678554615" lon="119.78241386715341"><ele>7.0</ele><time>2026-04-23T08:32:24Z</time></trkpt><trkpt lat="-19.967736418947194" lon="119.78252278408742"><ele>7.0</ele><time>2026-04-23T08:32:25Z</time></trkpt><trkpt lat="-19.967921747170728" lon="119.78263424761413"><ele>7.0</ele><time>2026-04-23T08:32:26Z</time></trkpt><trkpt lat="-19.96811100172705" lon="119.7827465367059"><ele>7.0</ele><time>2026-04-23T08:32:27Z</time></trkpt><trkpt lat="-19.968303955609567" lon="119.78285626853176"><ele>6.666666666666667</ele><time>2026-04-23T08:32:28Z</time></trkpt><trkpt lat="-19.96850031233728" lon="119.78296313503594"><ele>6.333333333333334</ele><time>2026-04-23T08:32:29Z</time></trkpt><trkpt lat="-19.968672437525196" lon="119.78305925047025"><ele>6.0</ele><time>2026-04-23T08:32:30Z</time></trkpt><trkpt lat="-19.968820643271776" lon="119.78317932193079"><ele>6.0</ele><time>2026-04-23T08:32:31Z</time></trkpt><trkpt lat="-19.96895856388203" lon="119.78329878263318"><ele>6.0</ele><time>2026-04-23T08:32:32Z</time></trkpt><trkpt lat="-19.969092198184956" lon="119.78343496330021"><ele>6.0</ele><time>2026-04-23T08:32:33Z</time></trkpt><trkpt lat="-19.96923597775612" lon="119.78359073253122"><ele>6.333333333333334</ele><time>2026-04-23T08:32:34Z</time></trkpt><trkpt lat="-19.96937611581421" lon="119.78374642240362"><ele>6.666666666666667</ele><time>2026-04-23T08:32:35Z</time></trkpt><trkpt lat="-19.969499759968876" lon="119.78390473278223"><ele>7.0</ele><time>2026-04-23T08:32:36Z</time></trkpt><trkpt lat="-19.969631615889018" lon="119.78404905545878"><ele>7.0</ele><time>2026-04-23T08:32:37Z</time></trkpt><trkpt lat="-19.969772899010948" lon="119.78417365466389"><ele>7.0</ele><time>2026-04-23T08:32:38Z</time></trkpt><trkpt lat="-19.96992441797392" lon="119.78428809587292"><ele>7.0</ele><time>2026-04-23T08:32:39Z</time></trkpt><trkpt lat="-19.970072185858896" lon="119.7843913941029"><ele>6.666666666666667</ele><time>2026-04-23T08:32:40Z</time></trkpt><trkpt lat="-19.970215019145016" lon="119.784508638185"><ele>6.333333333333334</ele><time>2026-04-23T08:32:41Z</time></trkpt><trkpt lat="-19.97035421945985" lon="119.78463823750563"><ele>6.0</ele><time>2026-04-23T08:32:42Z</time></trkpt><trkpt lat="-19.970484796037557" lon="119.78477380586604"><ele>6.0</ele><time>2026-04-23T08:32:43Z</time></trkpt><trkpt lat="-19.970603245078852" lon="119.78490888713779"><ele>6.0</ele><time>2026-04-23T08:32:44Z</time></trkpt><trkpt lat="-19.970722417849515" lon="119.78503380393408"><ele>6.0</ele><time>2026-04-23T08:32:45Z</time></trkpt><trkpt lat="-19.970848007383463" lon="119.78513463919626"><ele>7.0</ele><time>2026-04-23T08:32:46Z</time></trkpt><trkpt lat="-19.97098552840252" lon="119.78521048743687"><ele>8.0</ele><time>2026-04-23T08:32:47Z</time></trkpt><trkpt lat="-19.971133940363107" lon="119.7852642345639"><ele>9.0</ele><time>2026-04-23T08:32:48Z</time></trkpt><trkpt lat="-19.971291258190302" lon="119.78528424185289"><ele>9.0</ele><time>2026-04-23T08:32:49Z</time></trkpt><trkpt lat="-19.971462114053836" lon="119.78526991550575"><ele>9.0</ele><time>2026-04-23T08:32:50Z</time></trkpt><trkpt lat="-19.97165359103893" lon="119.7852231528103"><ele>9.0</ele><time>2026-04-23T08:32:51Z</time></trkpt><trkpt lat="-19.971851247053873" lon="119.78515190762967"><ele>8.333333333333334</ele><time>2026-04-23T08:32:52Z</time></trkpt><trkpt lat="-19.97205400337871" lon="119.78507319343575"><ele>7.666666666666667</ele><time>2026-04-23T08:32:53Z</time></trkpt><trkpt lat="-19.97225352335538" lon="119.7849913632146"><ele>7.0</ele><time>2026-04-23T08:32:54Z</time></trkpt><trkpt lat="-19.972451833835507" lon="119.78490908069105"><ele>7.0</ele><time>2026-04-23T08:32:55Z</time></trkpt><trkpt lat="-19.972650511137623" lon="119.78482598883959"><ele>7.0</ele><time>2026-04-23T08:32:56Z</time></trkpt><trkpt lat="-19.97284941979209" lon="119.78474032533484"><ele>7.0</ele><time>2026-04-23T08:32:57Z</time></trkpt><trkpt lat="-19.973046487010546" lon="119.78464348527994"><ele>7.0</ele><time>2026-04-23T08:32:58Z</time></trkpt><trkpt lat="-19.97323878018181" lon="119.78453215006815"><ele>7.0</ele><time>2026-04-23T08:32:59Z</time></trkpt><trkpt lat="-19.97342475654163" lon="119.78441686642384"><ele>7.0</ele><time>2026-04-23T08:33:00Z</time></trkpt><trkpt lat="-19.973603974991697" lon="119.78430625806587"><ele>7.666666666666667</ele><time>2026-04-23T08:33:01Z</time></trkpt><trkpt lat="-19.97378259794277" lon="119.78421002704546"><ele>8.333333333333334</ele><time>2026-04-23T08:33:02Z</time></trkpt><trkpt lat="-19.97396491179608" lon="119.78412566244866"><ele>9.0</ele><time>2026-04-23T08:33:03Z</time></trkpt><trkpt lat="-19.974152439226334" lon="119.78406068030938"><ele>9.0</ele><time>2026-04-23T08:33:04Z</time></trkpt><trkpt lat="-19.974333157638316" lon="119.7840139032231"><ele>9.0</ele><time>2026-04-23T08:33:05Z</time></trkpt><trkpt lat="-19.97451956959072" lon="119.78398800532442"><ele>9.0</ele><time>2026-04-23T08:33:06Z</time></trkpt><trkpt lat="-19.974710468302145" lon="119.78397288112576"><ele>9.0</ele><time>2026-04-23T08:33:07Z</time></trkpt><trkpt lat="-19.974908182014644" lon="119.78396996355423"><ele>9.0</ele><time>2026-04-23T08:33:08Z</time></trkpt><trkpt lat="-19.97512037326299" lon="119.78397638584164"><ele>9.0</ele><time>2026-04-23T08:33:09Z</time></trkpt><trkpt lat="-19.97534442299174" lon="119.7839879801182"><ele>8.0</ele><time>2026-04-23T08:33:10Z</time></trkpt><trkpt lat="-19.975569316202186" lon="119.78399999576963"><ele>7.0</ele><time>2026-04-23T08:33:11Z</time></trkpt><trkpt lat="-19.9757881967046" lon="119.7840125007082"><ele>6.0</ele><time>2026-04-23T08:33:12Z</time></trkpt><trkpt lat="-19.976003215278237" lon="119.784022827507"><ele>5.5</ele><time>2026-04-23T08:33:13Z</time></trkpt><trkpt lat="-19.97622928487048" lon="119.78401912638364"><ele>5.0</ele><time>2026-04-23T08:33:14Z</time></trkpt><trkpt lat="-19.976452873026865" lon="119.78399497793039"><ele>5.0</ele><time>2026-04-23T08:33:15Z</time></trkpt><trkpt lat="-19.976679324676795" lon="119.78395378260157"><ele>5.0</ele><time>2026-04-23T08:33:16Z</time></trkpt><trkpt lat="-19.97690612654757" lon="119.7839057893479"><ele>6.0</ele><time>2026-04-23T08:33:17Z</time></trkpt><trkpt lat="-19.977136549718562" lon="119.78385326177853"><ele>7.0</ele><time>2026-04-23T08:33:18Z</time></trkpt><trkpt lat="-19.977370712431647" lon="119.78380131830004"><ele>8.0</ele><time>2026-04-23T08:33:19Z</time></trkpt><trkpt lat="-19.9776014663747" lon="119.78374539082039"><ele>9.0</ele><time>2026-04-23T08:33:20Z</time></trkpt><trkpt lat="-19.977826432163614" lon="119.78369222693982"><ele>9.0</ele><time>2026-04-23T08:33:21Z</time></trkpt><trkpt lat="-19.978046747963973" lon="119.78364510120288"><ele>9.0</ele><time>2026-04-23T08:33:22Z</time></trkpt><trkpt lat="-19.97826313463022" lon="119.78359691436029"><ele>9.0</ele><time>2026-04-23T08:33:23Z</time></trkpt><trkpt lat="-19.978474996284664" lon="119.78354706540489"><ele>8.333333333333334</ele><time>2026-04-23T08:33:24Z</time></trkpt><trkpt lat="-19.978692612801595" lon="119.78349499540582"><ele>7.666666666666667</ele><time>2026-04-23T08:33:25Z</time></trkpt><trkpt lat="-19.978904645358334" lon="119.78344604686569"><ele>7.0</ele><time>2026-04-23T08:33:26Z</time></trkpt><trkpt lat="-19.979120254960204" lon="119.78339379001292"><ele>6.666666666666667</ele><time>2026-04-23T08:33:27Z</time></trkpt><trkpt lat="-19.979330756293297" lon="119.78334107519427"><ele>6.333333333333334</ele><time>2026-04-23T08:33:28Z</time></trkpt><trkpt lat="-19.979538697102452" lon="119.78329070664563"><ele>6.0</ele><time>2026-04-23T08:33:29Z</time></trkpt><trkpt lat="-19.97974000369187" lon="119.78324316653263"><ele>6.0</ele><time>2026-04-23T08:33:30Z</time></trkpt><trkpt lat="-19.979942015445666" lon="119.78319559082128"><ele>6.0</ele><time>2026-04-23T08:33:31Z</time></trkpt><trkpt lat="-19.980140214778444" lon="119.78314942878204"><ele>6.0</ele><time>2026-04-23T08:33:32Z</time></trkpt><trkpt lat="-19.980337374134827" lon="119.78310345081435"><ele>5.666666666666667</ele><time>2026-04-23T08:33:33Z</time></trkpt><trkpt lat="-19.980542628100714" lon="119.78305611100522"><ele>5.333333333333334</ele><time>2026-04-23T08:33:34Z</time></trkpt><trkpt lat="-19.98074235641178" lon="119.7830108350232"><ele>5.0</ele><time>2026-04-23T08:33:35Z</time></trkpt><trkpt lat="-19.980938552591294" lon="119.78296626374018"><ele>5.0</ele><time>2026-04-23T08:33:36Z</time></trkpt><trkpt lat="-19.981126780455504" lon="119.78292666201075"><ele>5.0</ele><time>2026-04-23T08:33:37Z</time></trkpt><trkpt lat="-19.981325567085957" lon="119.7828965562967"><ele>5.0</ele><time>2026-04-23T08:33:38Z</time></trkpt><trkpt lat="-19.981557434618317" lon="119.7828839774002"><ele>6.0</ele><time>2026-04-23T08:33:39.001Z</time></trkpt><trkpt lat="-19.98180198780854" lon="119.78288902703207"><ele>7.0</ele><time>2026-04-23T08:33:40.001Z</time></trkpt><trkpt lat="-19.98206433362692" lon="119.78291940194822"><ele>7.0</ele><time>2026-04-23T08:33:41.001Z</time></trkpt><trkpt lat="-19.982329750849626" lon="119.78296959785223"><ele>7.0</ele><time>2026-04-23T08:33:42.001Z</time></trkpt><trkpt lat="-19.982578745594576" lon="119.78302252228728"><ele>6.5</ele><time>2026-04-23T08:33:43.001Z</time></trkpt><trkpt lat="-19.9828233491862" lon="119.78307195429704"><ele>6.0</ele><time>2026-04-23T08:33:44.001Z</time></trkpt><trkpt lat="-19.983054442515307" lon="119.78311420282517"><ele>6.0</ele><time>2026-04-23T08:33:45.001Z</time></trkpt><trkpt lat="-19.98328070000532" lon="119.78315283041847"><ele>6.0</ele><time>2026-04-23T08:33:46.001Z</time></trkpt><trkpt lat="-19.983502186497223" lon="119.78319047399015"><ele>6.0</ele><time>2026-04-23T08:33:47.001Z</time></trkpt><trkpt lat="-19.98371808195953" lon="119.7832294081456"><ele>6.0</ele><time>2026-04-23T08:33:48.001Z</time></trkpt><trkpt lat="-19.983928067162484" lon="119.78326919481452"><ele>6.0</ele><time>2026-04-23T08:33:49.001Z</time></trkpt><trkpt lat="-19.984133652597816" lon="119.78330701168218"><ele>6.0</ele><time>2026-04-23T08:33:50.001Z</time></trkpt><trkpt lat="-19.98433180976354" lon="119.78333784588439"><ele>6.0</ele><time>2026-04-23T08:33:51.001Z</time></trkpt><trkpt lat="-19.984524919091786" lon="119.7833648183874"><ele>6.0</ele><time>2026-04-23T08:33:52.001Z</time></trkpt><trkpt lat="-19.984713858512915" lon="119.78339536745762"><ele>6.0</ele><time>2026-04-23T08:33:53.001Z</time></trkpt><trkpt lat="-19.984898252577132" lon="119.78341305428799"><ele>6.0</ele><time>2026-04-23T08:33:54.001Z</time></trkpt><trkpt lat="-19.98507772169173" lon="119.78343562604361"><ele>6.0</ele><time>2026-04-23T08:33:55.001Z</time></trkpt><trkpt lat="-19.985254706843968" lon="119.78345605188152"><ele>6.0</ele><time>2026-04-23T08:33:56.001Z</time></trkpt><trkpt lat="-19.98542584136395" lon="119.78346896471382"><ele>6.0</ele><time>2026-04-23T08:33:57.001Z</time></trkpt><trkpt lat="-19.985588158831366" lon="119.78347626423133"><ele>6.0</ele><time>2026-04-23T08:33:58.001Z</time></trkpt><trkpt lat="-19.985740540573868" lon="119.783481291423"><ele>6.0</ele><time>2026-04-23T08:33:59.001Z</time></trkpt><trkpt lat="-19.985879167358064" lon="119.78348792140557"><ele>6.0</ele><time>2026-04-23T08:34:00.001Z</time></trkpt><trkpt lat="-19.98600486211997" lon="119.78350675134017"><ele>6.0</ele><time>2026-04-23T08:34:01.001Z</time></trkpt><trkpt lat="-19.986123180960686" lon="119.78354292691016"><ele>6.0</ele><time>2026-04-23T08:34:02.001Z</time></trkpt><trkpt lat="-19.98621995512832" lon="119.78361305264902"><ele>6.0</ele><time>2026-04-23T08:34:03.001Z</time></trkpt><trkpt lat="-19.986305400944687" lon="119.78369105479474"><ele>6.0</ele><time>2026-04-23T08:34:04.001Z</time></trkpt><trkpt lat="-19.986367785578338" lon="119.78377323185838"><ele>6.0</ele><time>2026-04-23T08:34:05.001Z</time></trkpt><trkpt lat="-19.986408417030454" lon="119.78388281830323"><ele>6.0</ele><time>2026-04-23T08:34:06.001Z</time></trkpt><trkpt lat="-19.986438616500735" lon="119.784009147868"><ele>6.0</ele><time>2026-04-23T08:34:07.001Z</time></trkpt><trkpt lat="-19.98645780453881" lon="119.784150622646"><ele>6.0</ele><time>2026-04-23T08:34:08.001Z</time></trkpt><trkpt lat="-19.986462911213227" lon="119.78430873691413"><ele>6.0</ele><time>2026-04-23T08:34:09.001Z</time></trkpt><trkpt lat="-19.986465482499035" lon="119.78448239566733"><ele>6.0</ele><time>2026-04-23T08:34:10.001Z</time></trkpt><trkpt lat="-19.986471860243665" lon="119.78466172428841"><ele>5.666666666666667</ele><time>2026-04-23T08:34:11.001Z</time></trkpt><trkpt lat="-19.986477489360446" lon="119.78483705630693"><ele>5.333333333333334</ele><time>2026-04-23T08:34:12.001Z</time></trkpt><trkpt lat="-19.986473833881963" lon="119.78502024249359"><ele>5.0</ele><time>2026-04-23T08:34:13.001Z</time></trkpt><trkpt lat="-19.98645987969892" lon="119.78520781163752"><ele>5.666666666666667</ele><time>2026-04-23T08:34:14.001Z</time></trkpt><trkpt lat="-19.986440076597248" lon="119.78540738961384"><ele>6.333333333333334</ele><time>2026-04-23T08:34:15.001Z</time></trkpt><trkpt lat="-19.986416511010866" lon="119.78561394943192"><ele>7.0</ele><time>2026-04-23T08:34:16.001Z</time></trkpt><trkpt lat="-19.98638687408867" lon="119.78582153042555"><ele>6.666666666666667</ele><time>2026-04-23T08:34:17.001Z</time></trkpt><trkpt lat="-19.986351419273873" lon="119.78603607949876"><ele>6.333333333333334</ele><time>2026-04-23T08:34:18.001Z</time></trkpt><trkpt lat="-19.986305777129314" lon="119.786251991673"><ele>6.0</ele><time>2026-04-23T08:34:19.001Z</time></trkpt><trkpt lat="-19.986255706337584" lon="119.78646937551831"><ele>6.0</ele><time>2026-04-23T08:34:20.001Z</time></trkpt><trkpt lat="-19.986209323422546" lon="119.78668866292219"><ele>6.0</ele><time>2026-04-23T08:34:21.001Z</time></trkpt><trkpt lat="-19.9861677153874" lon="119.78690682243372"><ele>6.0</ele><time>2026-04-23T08:34:22.001Z</time></trkpt><trkpt lat="-19.986127213720575" lon="119.78712697647275"><ele>6.333333333333334</ele><time>2026-04-23T08:34:23.001Z</time></trkpt><trkpt lat="-19.98608550173161" lon="119.787329162063"><ele>6.666666666666667</ele><time>2026-04-23T08:34:24.001Z</time></trkpt><trkpt lat="-19.986048748507404" lon="119.7875220059586"><ele>7.0</ele><time>2026-04-23T08:34:25.001Z</time></trkpt><trkpt lat="-19.9860178263885" lon="119.78771065353713"><ele>7.333333333333334</ele><time>2026-04-23T08:34:26.001Z</time></trkpt><trkpt lat="-19.985991160540905" lon="119.78790042762634"><ele>7.666666666666666</ele><time>2026-04-23T08:34:27.001Z</time></trkpt><trkpt lat="-19.985971478200415" lon="119.78807905703393"><ele>8.0</ele><time>2026-04-23T08:34:28.001Z</time></trkpt><trkpt lat="-19.98595761832707" lon="119.78823363130488"><ele>8.0</ele><time>2026-04-23T08:34:29.001Z</time></trkpt><trkpt lat="-19.985949219434968" lon="119.7883686461345"><ele>8.0</ele><time>2026-04-23T08:34:30.001Z</time></trkpt><trkpt lat="-19.985947062764602" lon="119.78848427082478"><ele>8.0</ele><time>2026-04-23T08:34:31.001Z</time></trkpt><trkpt lat="-19.985948603686012" lon="119.78858487339454"><ele>8.0</ele><time>2026-04-23T08:34:32.001Z</time></trkpt><trkpt lat="-19.985961704185726" lon="119.78867352123461"><ele>8.0</ele><time>2026-04-23T08:34:33.001Z</time></trkpt><trkpt lat="-19.986001709943" lon="119.78877332431372"><ele>8.25</ele><time>2026-04-23T08:34:34.001Z</time></trkpt><trkpt lat="-19.986068991523318" lon="119.7888749555698"><ele>8.5</ele><time>2026-04-23T08:34:35.001Z</time></trkpt><trkpt lat="-19.986178139332807" lon="119.78895881306627"><ele>8.75</ele><time>2026-04-23T08:34:36.001Z</time></trkpt><trkpt lat="-19.98631600653312" lon="119.7890276729974"><ele>9.0</ele><time>2026-04-23T08:34:37.001Z</time></trkpt><trkpt lat="-19.986472417052724" lon="119.78908483505298"><ele>9.0</ele><time>2026-04-23T08:34:38.001Z</time></trkpt><trkpt lat="-19.986639818481585" lon="119.78913947945695"><ele>9.0</ele><time>2026-04-23T08:34:39.001Z</time></trkpt><trkpt lat="-19.986804006837904" lon="119.78919750657715"><ele>9.0</ele><time>2026-04-23T08:34:40.001Z</time></trkpt><trkpt lat="-19.986972181336913" lon="119.78926359778056"><ele>9.333333333333334</ele><time>2026-04-23T08:34:41.001Z</time></trkpt><trkpt lat="-19.987146399689088" lon="119.7893328562278"><ele>9.666666666666668</ele><time>2026-04-23T08:34:42.001Z</time></trkpt><trkpt lat="-19.987326440553133" lon="119.78940355944034"><ele>10.0</ele><time>2026-04-23T08:34:43.001Z</time></trkpt><trkpt lat="-19.98750665796759" lon="119.78947049466525"><ele>10.666666666666668</ele><time>2026-04-23T08:34:44.001Z</time></trkpt><trkpt lat="-19.987683720205606" lon="119.78953752793555"><ele>11.333333333333334</ele><time>2026-04-23T08:34:45.001Z</time></trkpt><trkpt lat="-19.98785601003598" lon="119.78960280140444"><ele>12.0</ele><time>2026-04-23T08:34:46.001Z</time></trkpt><trkpt lat="-19.988027947599775" lon="119.78967129227296"><ele>12.0</ele><time>2026-04-23T08:34:47.001Z</time></trkpt><trkpt lat="-19.98819706966189" lon="119.78973874833491"><ele>12.0</ele><time>2026-04-23T08:34:48.001Z</time></trkpt><trkpt lat="-19.988354795468204" lon="119.7897988394792"><ele>12.0</ele><time>2026-04-23T08:34:49.001Z</time></trkpt><trkpt lat="-19.98850784799103" lon="119.78985241338383"><ele>12.25</ele><time>2026-04-23T08:34:50.001Z</time></trkpt><trkpt lat="-19.988653355420194" lon="119.78990486597172"><ele>12.5</ele><time>2026-04-23T08:34:51.001Z</time></trkpt><trkpt lat="-19.9887906587705" lon="119.7899580122774"><ele>12.75</ele><time>2026-04-23T08:34:52.001Z</time></trkpt><trkpt lat="-19.988913641293664" lon="119.79001073502374"><ele>13.0</ele><time>2026-04-23T08:34:53.001Z</time></trkpt><trkpt lat="-19.989020026123534" lon="119.79005427297552"><ele>13.0</ele><time>2026-04-23T08:34:54.001Z</time></trkpt><trkpt lat="-19.989112212143983" lon="119.79009321394025"><ele>13.0</ele><time>2026-04-23T08:34:55.001Z</time></trkpt><trkpt lat="-19.98921366298909" lon="119.79013142360476"><ele>13.0</ele><time>2026-04-23T08:34:56.001Z</time></trkpt><trkpt lat="-19.989313083363854" lon="119.79016644175672"><ele>13.0</ele><time>2026-04-23T08:34:57.001Z</time></trkpt><trkpt lat="-19.98942014600141" lon="119.79020490827685"><ele>13.0</ele><time>2026-04-23T08:34:58.001Z</time></trkpt><trkpt lat="-19.989532904947282" lon="119.79024942525346"><ele>13.2</ele><time>2026-04-23T08:34:59.001Z</time></trkpt><trkpt lat="-19.98964336473152" lon="119.79029502744457"><ele>13.4</ele><time>2026-04-23T08:35:00.001Z</time></trkpt><trkpt lat="-19.98974326197732" lon="119.79033196046436"><ele>13.599999999999998</ele><time>2026-04-23T08:35:01.001Z</time></trkpt><trkpt lat="-19.989836948330503" lon="119.79036461713167"><ele>13.799999999999999</ele><time>2026-04-23T08:35:02.001Z</time></trkpt><trkpt lat="-19.98992169134415" lon="119.79040012287601"><ele>14.0</ele><time>2026-04-23T08:35:03.001Z</time></trkpt><trkpt lat="-19.99000032127506" lon="119.79043572598825"><ele>14.166666666666668</ele><time>2026-04-23T08:35:04.001Z</time></trkpt><trkpt lat="-19.990072447952873" lon="119.79046390545975"><ele>14.333333333333334</ele><time>2026-04-23T08:35:05.001Z</time></trkpt><trkpt lat="-19.99013390393752" lon="119.79048568986676"><ele>14.5</ele><time>2026-04-23T08:35:06.001Z</time></trkpt><trkpt lat="-19.99019433815413" lon="119.79050697513986"><ele>14.666666666666668</ele><time>2026-04-23T08:35:07.001Z</time></trkpt><trkpt lat="-19.990310627938157" lon="119.79055250058943"><ele>14.833333333333334</ele><time>2026-04-23T08:35:09.001Z</time></trkpt><trkpt lat="-19.99037052601697" lon="119.79057491758095"><ele>15.0</ele><time>2026-04-23T08:35:10.001Z</time></trkpt><trkpt lat="-19.990434365554435" lon="119.7905983838972"><ele>15.0</ele><time>2026-04-23T08:35:11.001Z</time></trkpt><trkpt lat="-19.99050399566754" lon="119.79062719147515"><ele>15.0</ele><time>2026-04-23T08:35:12.001Z</time></trkpt><trkpt lat="-19.990570471429233" lon="119.79065916218228"><ele>15.0</ele><time>2026-04-23T08:35:13.001Z</time></trkpt><trkpt lat="-19.990462563630775" lon="119.7906040406451"><ele>15.0</ele><time>2026-04-23T08:35:22.001Z</time></trkpt><trkpt lat="-19.990369107200017" lon="119.79056526938076"><ele>15.0</ele><time>2026-04-23T08:35:24.001Z</time></trkpt><trkpt lat="-19.9902564258783" lon="119.79051852249417"><ele>15.0</ele><time>2026-04-23T08:35:26.001Z</time></trkpt><trkpt lat="-19.990223028966476" lon="119.79041549349137"><ele>15.0</ele><time>2026-04-23T08:35:27.001Z</time></trkpt><trkpt lat="-19.99016763448296" lon="119.79037870385598"><ele>15.0</ele><time>2026-04-23T08:35:28.001Z</time></trkpt><trkpt lat="-19.990075302895843" lon="119.79030470198403"><ele>15.0</ele><time>2026-04-23T08:35:30.001Z</time></trkpt><trkpt lat="-19.989980269044292" lon="119.79022646909817"><ele>15.0</ele><time>2026-04-23T08:35:32.001Z</time></trkpt><trkpt lat="-19.98992388245242" lon="119.79018506829759"><ele>15.0</ele><time>2026-04-23T08:35:33.001Z</time></trkpt><trkpt lat="-19.989821167582736" lon="119.79012946427714"><ele>15.0</ele><time>2026-04-23T08:35:35.001Z</time></trkpt><trkpt lat="-19.98973475313094" lon="119.79009211392409"><ele>15.0</ele><time>2026-04-23T08:35:37.001Z</time></trkpt><trkpt lat="-19.989661790849553" lon="119.79006780852627"><ele>15.0</ele><time>2026-04-23T08:35:39.001Z</time></trkpt><trkpt lat="-19.990080710903026" lon="119.79007385866583"><ele>15.0</ele><time>2026-04-23T08:40:08.001Z</time></trkpt><trkpt lat="-19.990192918702565" lon="119.79009674159705"><ele>15.0</ele><time>2026-04-23T08:40:10.001Z</time></trkpt><trkpt lat="-19.990340152499858" lon="119.79014073408204"><ele>15.0</ele><time>2026-04-23T08:40:12.001Z</time></trkpt><trkpt lat="-19.990330246635835" lon="119.79056717815496"><ele>15.0</ele><time>2026-04-23T08:40:13.001Z</time></trkpt><trkpt lat="-19.99043877475991" lon="119.79060819146457"><ele>15.0</ele><time>2026-04-23T08:40:14.001Z</time></trkpt><trkpt lat="-19.99055641240052" lon="119.79065321356164"><ele>15.0</ele><time>2026-04-23T08:40:15.001Z</time></trkpt><trkpt lat="-19.9906744494769" lon="119.79070352698932"><ele>15.0</ele><time>2026-04-23T08:40:16.001Z</time></trkpt><trkpt lat="-19.990786008761614" lon="119.7907556011626"><ele>14.333333333333332</ele><time>2026-04-23T08:40:17.001Z</time></trkpt><trkpt lat="-19.990912645629457" lon="119.79081695705531"><ele>13.666666666666666</ele><time>2026-04-23T08:40:18.001Z</time></trkpt><trkpt lat="-19.991060934025988" lon="119.79088620226706"><ele>13.0</ele><time>2026-04-23T08:40:19.001Z</time></trkpt><trkpt lat="-19.99121193296173" lon="119.79095267432474"><ele>12.0</ele><time>2026-04-23T08:40:20.001Z</time></trkpt><trkpt lat="-19.991373088584293" lon="119.79102324299868"><ele>11.0</ele><time>2026-04-23T08:40:21.001Z</time></trkpt><trkpt lat="-19.99173001039567" lon="119.79118608190268"><ele>11.0</ele><time>2026-04-23T08:40:23.001Z</time></trkpt><trkpt lat="-19.99192590758689" lon="119.79128210489358"><ele>11.0</ele><time>2026-04-23T08:40:24.001Z</time></trkpt><trkpt lat="-19.99212341297648" lon="119.79137909346176"><ele>11.0</ele><time>2026-04-23T08:40:25.001Z</time></trkpt><trkpt lat="-19.992330997539565" lon="119.79148361913569"><ele>10.5</ele><time>2026-04-23T08:40:26.001Z</time></trkpt><trkpt lat="-19.992554342169385" lon="119.79157505467364"><ele>10.0</ele><time>2026-04-23T08:40:27.001Z</time></trkpt><trkpt lat="-19.992773483475567" lon="119.79170046517811"><ele>10.0</ele><time>2026-04-23T08:40:28.001Z</time></trkpt><trkpt lat="-19.99300438820181" lon="119.79181002231354"><ele>10.0</ele><time>2026-04-23T08:40:29.001Z</time></trkpt></trkseg></trk></gpx>